<?xml version="1.0" encoding="UTF-8" standalone="no" ?>
<gpx xmlns="http://www.topografix.com/GPX/1/1" xmlns:xsi="http://www.w3.org/2001/XMLSchema-instance" xsi:schemaLocation="http://www.topografix.com/GPX/1/1 http://www.topografix.com/GPX/1/1/gpx.xsd" version="1.1" creator="VisuGPX - https://www.visugpx.com">
  <metadata>
    <name>6000D 2013 de Jipi</name>
    <desc><![CDATA[la 6000D 2013 ]]></desc>
  </metadata>
  <trk>
    <name><![CDATA[Tracé]]></name>
    <trkseg>
      <trkpt lat="45.55591" lon="6.65154">
        <ele>682</ele>
        <time>2013-07-27T04:00:28Z</time>
      </trkpt>
      <trkpt lat="45.55595" lon="6.6517">
        <ele>682.666687</ele>
        <time>2013-07-27T04:00:32Z</time>
      </trkpt>
      <trkpt lat="45.55605" lon="6.65188">
        <ele>682.7999878</ele>
        <time>2013-07-27T04:00:37Z</time>
      </trkpt>
      <trkpt lat="45.55616" lon="6.65216">
        <ele>682.5999756</ele>
        <time>2013-07-27T04:00:45Z</time>
      </trkpt>
      <trkpt lat="45.55619" lon="6.65227">
        <ele>682.4000244</ele>
        <time>2013-07-27T04:00:48Z</time>
      </trkpt>
      <trkpt lat="45.55633" lon="6.65248">
        <ele>682.2000122</ele>
        <time>2013-07-27T04:00:56Z</time>
      </trkpt>
      <trkpt lat="45.55639" lon="6.65257">
        <ele>682.4000244</ele>
        <time>2013-07-27T04:00:59Z</time>
      </trkpt>
      <trkpt lat="45.55652" lon="6.65273">
        <ele>683.2000122</ele>
        <time>2013-07-27T04:01:04Z</time>
      </trkpt>
      <trkpt lat="45.55663" lon="6.65285">
        <ele>684.4000244</ele>
        <time>2013-07-27T04:01:09Z</time>
      </trkpt>
      <trkpt lat="45.55674" lon="6.653">
        <ele>685.2000122</ele>
        <time>2013-07-27T04:01:15Z</time>
      </trkpt>
      <trkpt lat="45.55685" lon="6.65314">
        <ele>685.4000244</ele>
        <time>2013-07-27T04:01:19Z</time>
      </trkpt>
      <trkpt lat="45.55694" lon="6.6533">
        <ele>686</ele>
        <time>2013-07-27T04:01:25Z</time>
      </trkpt>
      <trkpt lat="45.557" lon="6.65339">
        <ele>686.4000244</ele>
        <time>2013-07-27T04:01:27Z</time>
      </trkpt>
      <trkpt lat="45.55706" lon="6.65346">
        <ele>687</ele>
        <time>2013-07-27T04:01:30Z</time>
      </trkpt>
      <trkpt lat="45.55711" lon="6.65356">
        <ele>687.7999878</ele>
        <time>2013-07-27T04:01:33Z</time>
      </trkpt>
      <trkpt lat="45.55723" lon="6.65389">
        <ele>688</ele>
        <time>2013-07-27T04:01:41Z</time>
      </trkpt>
      <trkpt lat="45.55728" lon="6.65401">
        <ele>686.7999878</ele>
        <time>2013-07-27T04:01:44Z</time>
      </trkpt>
      <trkpt lat="45.55731" lon="6.65414">
        <ele>685.5999756</ele>
        <time>2013-07-27T04:01:47Z</time>
      </trkpt>
      <trkpt lat="45.55733" lon="6.65428">
        <ele>685.2000122</ele>
        <time>2013-07-27T04:01:50Z</time>
      </trkpt>
      <trkpt lat="45.55733" lon="6.65444">
        <ele>685.2000122</ele>
        <time>2013-07-27T04:01:53Z</time>
      </trkpt>
      <trkpt lat="45.55735" lon="6.65453">
        <ele>685.4000244</ele>
        <time>2013-07-27T04:01:55Z</time>
      </trkpt>
      <trkpt lat="45.55737" lon="6.65462">
        <ele>686</ele>
        <time>2013-07-27T04:01:57Z</time>
      </trkpt>
      <trkpt lat="45.55739" lon="6.65476">
        <ele>686.5999756</ele>
        <time>2013-07-27T04:02:00Z</time>
      </trkpt>
      <trkpt lat="45.5574" lon="6.65485">
        <ele>686.4000244</ele>
        <time>2013-07-27T04:02:02Z</time>
      </trkpt>
      <trkpt lat="45.55741" lon="6.65498">
        <ele>685.7999878</ele>
        <time>2013-07-27T04:02:05Z</time>
      </trkpt>
      <trkpt lat="45.55741" lon="6.65512">
        <ele>685</ele>
        <time>2013-07-27T04:02:08Z</time>
      </trkpt>
      <trkpt lat="45.55742" lon="6.65521">
        <ele>684</ele>
        <time>2013-07-27T04:02:10Z</time>
      </trkpt>
      <trkpt lat="45.55743" lon="6.65534">
        <ele>682.7999878</ele>
        <time>2013-07-27T04:02:13Z</time>
      </trkpt>
      <trkpt lat="45.55742" lon="6.65546">
        <ele>682</ele>
        <time>2013-07-27T04:02:16Z</time>
      </trkpt>
      <trkpt lat="45.5574" lon="6.65555">
        <ele>681.5999756</ele>
        <time>2013-07-27T04:02:18Z</time>
      </trkpt>
      <trkpt lat="45.55734" lon="6.65572">
        <ele>681.7999878</ele>
        <time>2013-07-27T04:02:23Z</time>
      </trkpt>
      <trkpt lat="45.55731" lon="6.65585">
        <ele>682.2000122</ele>
        <time>2013-07-27T04:02:25Z</time>
      </trkpt>
      <trkpt lat="45.55725" lon="6.65605">
        <ele>682.5999756</ele>
        <time>2013-07-27T04:02:30Z</time>
      </trkpt>
      <trkpt lat="45.55721" lon="6.65617">
        <ele>683</ele>
        <time>2013-07-27T04:02:33Z</time>
      </trkpt>
      <trkpt lat="45.55717" lon="6.65628">
        <ele>683.4000244</ele>
        <time>2013-07-27T04:02:37Z</time>
      </trkpt>
      <trkpt lat="45.55712" lon="6.6564">
        <ele>683.5999756</ele>
        <time>2013-07-27T04:02:39Z</time>
      </trkpt>
      <trkpt lat="45.55704" lon="6.65653">
        <ele>683.7999878</ele>
        <time>2013-07-27T04:02:43Z</time>
      </trkpt>
      <trkpt lat="45.55691" lon="6.65664">
        <ele>682.7999878</ele>
        <time>2013-07-27T04:02:48Z</time>
      </trkpt>
      <trkpt lat="45.55681" lon="6.65675">
        <ele>682.2000122</ele>
        <time>2013-07-27T04:02:53Z</time>
      </trkpt>
      <trkpt lat="45.55675" lon="6.65686">
        <ele>682.2000122</ele>
        <time>2013-07-27T04:02:55Z</time>
      </trkpt>
      <trkpt lat="45.55671" lon="6.65695">
        <ele>682.4000244</ele>
        <time>2013-07-27T04:02:57Z</time>
      </trkpt>
      <trkpt lat="45.55669" lon="6.6571">
        <ele>682</ele>
        <time>2013-07-27T04:03:00Z</time>
      </trkpt>
      <trkpt lat="45.55669" lon="6.6572">
        <ele>681.4000244</ele>
        <time>2013-07-27T04:03:02Z</time>
      </trkpt>
      <trkpt lat="45.55668" lon="6.6573">
        <ele>681</ele>
        <time>2013-07-27T04:03:04Z</time>
      </trkpt>
      <trkpt lat="45.55667" lon="6.65739">
        <ele>680.5999756</ele>
        <time>2013-07-27T04:03:06Z</time>
      </trkpt>
      <trkpt lat="45.55664" lon="6.65753">
        <ele>680.2000122</ele>
        <time>2013-07-27T04:03:09Z</time>
      </trkpt>
      <trkpt lat="45.5566" lon="6.65789">
        <ele>679.4000244</ele>
        <time>2013-07-27T04:03:17Z</time>
      </trkpt>
      <trkpt lat="45.55659" lon="6.65798">
        <ele>677.7999878</ele>
        <time>2013-07-27T04:03:19Z</time>
      </trkpt>
      <trkpt lat="45.55659" lon="6.65812">
        <ele>677</ele>
        <time>2013-07-27T04:03:22Z</time>
      </trkpt>
      <trkpt lat="45.55661" lon="6.65828">
        <ele>675.4000244</ele>
        <time>2013-07-27T04:03:26Z</time>
      </trkpt>
      <trkpt lat="45.55661" lon="6.65842">
        <ele>675.2000122</ele>
        <time>2013-07-27T04:03:29Z</time>
      </trkpt>
      <trkpt lat="45.55658" lon="6.65855">
        <ele>675.5999756</ele>
        <time>2013-07-27T04:03:32Z</time>
      </trkpt>
      <trkpt lat="45.55657" lon="6.65864">
        <ele>675</ele>
        <time>2013-07-27T04:03:34Z</time>
      </trkpt>
      <trkpt lat="45.55656" lon="6.65878">
        <ele>674.2000122</ele>
        <time>2013-07-27T04:03:37Z</time>
      </trkpt>
      <trkpt lat="45.55656" lon="6.65893">
        <ele>673.2000122</ele>
        <time>2013-07-27T04:03:40Z</time>
      </trkpt>
      <trkpt lat="45.55656" lon="6.65903">
        <ele>672.2000122</ele>
        <time>2013-07-27T04:03:42Z</time>
      </trkpt>
      <trkpt lat="45.55655" lon="6.65917">
        <ele>671</ele>
        <time>2013-07-27T04:03:45Z</time>
      </trkpt>
      <trkpt lat="45.55655" lon="6.65926">
        <ele>670</ele>
        <time>2013-07-27T04:03:47Z</time>
      </trkpt>
      <trkpt lat="45.55657" lon="6.6594">
        <ele>669.2000122</ele>
        <time>2013-07-27T04:03:50Z</time>
      </trkpt>
      <trkpt lat="45.55657" lon="6.65949">
        <ele>668.4000244</ele>
        <time>2013-07-27T04:03:53Z</time>
      </trkpt>
      <trkpt lat="45.55657" lon="6.65958">
        <ele>667.5999756</ele>
        <time>2013-07-27T04:03:55Z</time>
      </trkpt>
      <trkpt lat="45.55658" lon="6.65973">
        <ele>666.4000244</ele>
        <time>2013-07-27T04:03:57Z</time>
      </trkpt>
      <trkpt lat="45.55657" lon="6.65987">
        <ele>664.7999878</ele>
        <time>2013-07-27T04:04:00Z</time>
      </trkpt>
      <trkpt lat="45.55653" lon="6.65995">
        <ele>663.7999878</ele>
        <time>2013-07-27T04:04:02Z</time>
      </trkpt>
      <trkpt lat="45.55645" lon="6.66005">
        <ele>663.2000122</ele>
        <time>2013-07-27T04:04:05Z</time>
      </trkpt>
      <trkpt lat="45.55638" lon="6.66008">
        <ele>662.7999878</ele>
        <time>2013-07-27T04:04:07Z</time>
      </trkpt>
      <trkpt lat="45.55628" lon="6.66014">
        <ele>663</ele>
        <time>2013-07-27T04:04:11Z</time>
      </trkpt>
      <trkpt lat="45.55618" lon="6.66017">
        <ele>664</ele>
        <time>2013-07-27T04:04:13Z</time>
      </trkpt>
      <trkpt lat="45.55611" lon="6.6602">
        <ele>663.7999878</ele>
        <time>2013-07-27T04:04:15Z</time>
      </trkpt>
      <trkpt lat="45.55602" lon="6.66027">
        <ele>663.4000244</ele>
        <time>2013-07-27T04:04:18Z</time>
      </trkpt>
      <trkpt lat="45.55594" lon="6.66036">
        <ele>662.5999756</ele>
        <time>2013-07-27T04:04:21Z</time>
      </trkpt>
      <trkpt lat="45.55592" lon="6.66047">
        <ele>662.4000244</ele>
        <time>2013-07-27T04:04:23Z</time>
      </trkpt>
      <trkpt lat="45.55589" lon="6.66056">
        <ele>661.7999878</ele>
        <time>2013-07-27T04:04:25Z</time>
      </trkpt>
      <trkpt lat="45.55586" lon="6.66066">
        <ele>661.5999756</ele>
        <time>2013-07-27T04:04:27Z</time>
      </trkpt>
      <trkpt lat="45.55581" lon="6.66079">
        <ele>661.7999878</ele>
        <time>2013-07-27T04:04:30Z</time>
      </trkpt>
      <trkpt lat="45.55577" lon="6.66087">
        <ele>662.4000244</ele>
        <time>2013-07-27T04:04:32Z</time>
      </trkpt>
      <trkpt lat="45.5557" lon="6.66109">
        <ele>662.2000122</ele>
        <time>2013-07-27T04:04:37Z</time>
      </trkpt>
      <trkpt lat="45.55568" lon="6.66122">
        <ele>662.2000122</ele>
        <time>2013-07-27T04:04:40Z</time>
      </trkpt>
      <trkpt lat="45.5556" lon="6.66139">
        <ele>661.4000244</ele>
        <time>2013-07-27T04:04:45Z</time>
      </trkpt>
      <trkpt lat="45.55552" lon="6.6615">
        <ele>662.2000122</ele>
        <time>2013-07-27T04:04:49Z</time>
      </trkpt>
      <trkpt lat="45.55544" lon="6.66157">
        <ele>664</ele>
        <time>2013-07-27T04:04:52Z</time>
      </trkpt>
      <trkpt lat="45.55538" lon="6.66159">
        <ele>665.7999878</ele>
        <time>2013-07-27T04:04:54Z</time>
      </trkpt>
      <trkpt lat="45.55531" lon="6.66161">
        <ele>667.4000244</ele>
        <time>2013-07-27T04:04:56Z</time>
      </trkpt>
      <trkpt lat="45.55524" lon="6.66162">
        <ele>669.4000244</ele>
        <time>2013-07-27T04:04:59Z</time>
      </trkpt>
      <trkpt lat="45.55515" lon="6.66161">
        <ele>670</ele>
        <time>2013-07-27T04:05:01Z</time>
      </trkpt>
      <trkpt lat="45.55504" lon="6.66154">
        <ele>669.5999756</ele>
        <time>2013-07-27T04:05:06Z</time>
      </trkpt>
      <trkpt lat="45.55498" lon="6.66143">
        <ele>669.5999756</ele>
        <time>2013-07-27T04:05:08Z</time>
      </trkpt>
      <trkpt lat="45.55488" lon="6.66125">
        <ele>669.2000122</ele>
        <time>2013-07-27T04:05:13Z</time>
      </trkpt>
      <trkpt lat="45.55486" lon="6.66112">
        <ele>668.7999878</ele>
        <time>2013-07-27T04:05:16Z</time>
      </trkpt>
      <trkpt lat="45.55485" lon="6.6609">
        <ele>668</ele>
        <time>2013-07-27T04:05:21Z</time>
      </trkpt>
      <trkpt lat="45.55489" lon="6.66069">
        <ele>666.2000122</ele>
        <time>2013-07-27T04:05:26Z</time>
      </trkpt>
      <trkpt lat="45.55492" lon="6.66061">
        <ele>665.4000244</ele>
        <time>2013-07-27T04:05:28Z</time>
      </trkpt>
      <trkpt lat="45.55496" lon="6.66047">
        <ele>664.5999756</ele>
        <time>2013-07-27T04:05:31Z</time>
      </trkpt>
      <trkpt lat="45.55495" lon="6.66038">
        <ele>664.4000244</ele>
        <time>2013-07-27T04:05:33Z</time>
      </trkpt>
      <trkpt lat="45.55495" lon="6.66029">
        <ele>664.5999756</ele>
        <time>2013-07-27T04:05:35Z</time>
      </trkpt>
      <trkpt lat="45.55493" lon="6.66016">
        <ele>664.2000122</ele>
        <time>2013-07-27T04:05:38Z</time>
      </trkpt>
      <trkpt lat="45.55486" lon="6.66">
        <ele>664.2000122</ele>
        <time>2013-07-27T04:05:42Z</time>
      </trkpt>
      <trkpt lat="45.55479" lon="6.65992">
        <ele>664.4000244</ele>
        <time>2013-07-27T04:05:45Z</time>
      </trkpt>
      <trkpt lat="45.55473" lon="6.65978">
        <ele>664.4000244</ele>
        <time>2013-07-27T04:05:50Z</time>
      </trkpt>
      <trkpt lat="45.55466" lon="6.65951">
        <ele>664.2000122</ele>
        <time>2013-07-27T04:05:57Z</time>
      </trkpt>
      <trkpt lat="45.5546" lon="6.65929">
        <ele>663.7999878</ele>
        <time>2013-07-27T04:06:02Z</time>
      </trkpt>
      <trkpt lat="45.55458" lon="6.65913">
        <ele>663.4000244</ele>
        <time>2013-07-27T04:06:05Z</time>
      </trkpt>
      <trkpt lat="45.55456" lon="6.65904">
        <ele>663</ele>
        <time>2013-07-27T04:06:07Z</time>
      </trkpt>
      <trkpt lat="45.55454" lon="6.65895">
        <ele>662.2000122</ele>
        <time>2013-07-27T04:06:09Z</time>
      </trkpt>
      <trkpt lat="45.55452" lon="6.65883">
        <ele>661</ele>
        <time>2013-07-27T04:06:12Z</time>
      </trkpt>
      <trkpt lat="45.55449" lon="6.65861">
        <ele>659.4000244</ele>
        <time>2013-07-27T04:06:17Z</time>
      </trkpt>
      <trkpt lat="45.55448" lon="6.65852">
        <ele>658.7999878</ele>
        <time>2013-07-27T04:06:19Z</time>
      </trkpt>
      <trkpt lat="45.55447" lon="6.65839">
        <ele>659</ele>
        <time>2013-07-27T04:06:22Z</time>
      </trkpt>
      <trkpt lat="45.55447" lon="6.65827">
        <ele>659.4000244</ele>
        <time>2013-07-27T04:06:25Z</time>
      </trkpt>
      <trkpt lat="45.55447" lon="6.65816">
        <ele>660</ele>
        <time>2013-07-27T04:06:28Z</time>
      </trkpt>
      <trkpt lat="45.55446" lon="6.65804">
        <ele>661.2000122</ele>
        <time>2013-07-27T04:06:31Z</time>
      </trkpt>
      <trkpt lat="45.55445" lon="6.65795">
        <ele>661.7999878</ele>
        <time>2013-07-27T04:06:33Z</time>
      </trkpt>
      <trkpt lat="45.55442" lon="6.65774">
        <ele>662</ele>
        <time>2013-07-27T04:06:38Z</time>
      </trkpt>
      <trkpt lat="45.55439" lon="6.65762">
        <ele>662.2000122</ele>
        <time>2013-07-27T04:06:41Z</time>
      </trkpt>
      <trkpt lat="45.55433" lon="6.65748">
        <ele>662.5999756</ele>
        <time>2013-07-27T04:06:45Z</time>
      </trkpt>
      <trkpt lat="45.55428" lon="6.65739">
        <ele>662.4000244</ele>
        <time>2013-07-27T04:06:49Z</time>
      </trkpt>
      <trkpt lat="45.55421" lon="6.65731">
        <ele>662.2000122</ele>
        <time>2013-07-27T04:06:52Z</time>
      </trkpt>
      <trkpt lat="45.55413" lon="6.65725">
        <ele>662</ele>
        <time>2013-07-27T04:06:56Z</time>
      </trkpt>
      <trkpt lat="45.55406" lon="6.65721">
        <ele>662.5999756</ele>
        <time>2013-07-27T04:06:58Z</time>
      </trkpt>
      <trkpt lat="45.55399" lon="6.65716">
        <ele>663.7999878</ele>
        <time>2013-07-27T04:07:01Z</time>
      </trkpt>
      <trkpt lat="45.55389" lon="6.6571">
        <ele>666.5999756</ele>
        <time>2013-07-27T04:07:05Z</time>
      </trkpt>
      <trkpt lat="45.55381" lon="6.65699">
        <ele>668.4000244</ele>
        <time>2013-07-27T04:07:10Z</time>
      </trkpt>
      <trkpt lat="45.55369" lon="6.65683">
        <ele>669.4000244</ele>
        <time>2013-07-27T04:07:14Z</time>
      </trkpt>
      <trkpt lat="45.55362" lon="6.6567">
        <ele>669.7999878</ele>
        <time>2013-07-27T04:07:19Z</time>
      </trkpt>
      <trkpt lat="45.55356" lon="6.65661">
        <ele>670</ele>
        <time>2013-07-27T04:07:21Z</time>
      </trkpt>
      <trkpt lat="45.55347" lon="6.65644">
        <ele>669.2000122</ele>
        <time>2013-07-27T04:07:26Z</time>
      </trkpt>
      <trkpt lat="45.55342" lon="6.65632">
        <ele>668.4000244</ele>
        <time>2013-07-27T04:07:29Z</time>
      </trkpt>
      <trkpt lat="45.55336" lon="6.65622">
        <ele>667.5999756</ele>
        <time>2013-07-27T04:07:32Z</time>
      </trkpt>
      <trkpt lat="45.55325" lon="6.65607">
        <ele>666.4000244</ele>
        <time>2013-07-27T04:07:37Z</time>
      </trkpt>
      <trkpt lat="45.55314" lon="6.65594">
        <ele>666.4000244</ele>
        <time>2013-07-27T04:07:42Z</time>
      </trkpt>
      <trkpt lat="45.55305" lon="6.65583">
        <ele>665.7999878</ele>
        <time>2013-07-27T04:07:46Z</time>
      </trkpt>
      <trkpt lat="45.55297" lon="6.65575">
        <ele>664.7999878</ele>
        <time>2013-07-27T04:07:49Z</time>
      </trkpt>
      <trkpt lat="45.55293" lon="6.65569">
        <ele>664.2000122</ele>
        <time>2013-07-27T04:07:51Z</time>
      </trkpt>
      <trkpt lat="45.55286" lon="6.6555">
        <ele>662</ele>
        <time>2013-07-27T04:07:56Z</time>
      </trkpt>
      <trkpt lat="45.55281" lon="6.65539">
        <ele>661.4000244</ele>
        <time>2013-07-27T04:07:59Z</time>
      </trkpt>
      <trkpt lat="45.55278" lon="6.65531">
        <ele>661</ele>
        <time>2013-07-27T04:08:01Z</time>
      </trkpt>
      <trkpt lat="45.55273" lon="6.65519">
        <ele>660.4000244</ele>
        <time>2013-07-27T04:08:04Z</time>
      </trkpt>
      <trkpt lat="45.55271" lon="6.6551">
        <ele>660.2000122</ele>
        <time>2013-07-27T04:08:06Z</time>
      </trkpt>
      <trkpt lat="45.55269" lon="6.65498">
        <ele>659.7999878</ele>
        <time>2013-07-27T04:08:09Z</time>
      </trkpt>
      <trkpt lat="45.55266" lon="6.65481">
        <ele>660</ele>
        <time>2013-07-27T04:08:13Z</time>
      </trkpt>
      <trkpt lat="45.55263" lon="6.65468">
        <ele>660.5999756</ele>
        <time>2013-07-27T04:08:16Z</time>
      </trkpt>
      <trkpt lat="45.55256" lon="6.65457">
        <ele>662.4000244</ele>
        <time>2013-07-27T04:08:21Z</time>
      </trkpt>
      <trkpt lat="45.55248" lon="6.65442">
        <ele>664.7999878</ele>
        <time>2013-07-27T04:08:25Z</time>
      </trkpt>
      <trkpt lat="45.55239" lon="6.65426">
        <ele>666.4000244</ele>
        <time>2013-07-27T04:08:30Z</time>
      </trkpt>
      <trkpt lat="45.55232" lon="6.65418">
        <ele>666.7999878</ele>
        <time>2013-07-27T04:08:33Z</time>
      </trkpt>
      <trkpt lat="45.55225" lon="6.6541">
        <ele>666.5999756</ele>
        <time>2013-07-27T04:08:36Z</time>
      </trkpt>
      <trkpt lat="45.55218" lon="6.65403">
        <ele>666.5999756</ele>
        <time>2013-07-27T04:08:39Z</time>
      </trkpt>
      <trkpt lat="45.55211" lon="6.65393">
        <ele>666.5999756</ele>
        <time>2013-07-27T04:08:42Z</time>
      </trkpt>
      <trkpt lat="45.55206" lon="6.65382">
        <ele>666.4000244</ele>
        <time>2013-07-27T04:08:45Z</time>
      </trkpt>
      <trkpt lat="45.55193" lon="6.65356">
        <ele>665.7999878</ele>
        <time>2013-07-27T04:08:52Z</time>
      </trkpt>
      <trkpt lat="45.55184" lon="6.65338">
        <ele>664.4000244</ele>
        <time>2013-07-27T04:08:57Z</time>
      </trkpt>
      <trkpt lat="45.55177" lon="6.65329">
        <ele>663.5999756</ele>
        <time>2013-07-27T04:09:00Z</time>
      </trkpt>
      <trkpt lat="45.55171" lon="6.65314">
        <ele>663</ele>
        <time>2013-07-27T04:09:04Z</time>
      </trkpt>
      <trkpt lat="45.55168" lon="6.65301">
        <ele>662.7999878</ele>
        <time>2013-07-27T04:09:07Z</time>
      </trkpt>
      <trkpt lat="45.55163" lon="6.6529">
        <ele>662.2000122</ele>
        <time>2013-07-27T04:09:10Z</time>
      </trkpt>
      <trkpt lat="45.55157" lon="6.65281">
        <ele>661.7999878</ele>
        <time>2013-07-27T04:09:13Z</time>
      </trkpt>
      <trkpt lat="45.55151" lon="6.65266">
        <ele>662.2000122</ele>
        <time>2013-07-27T04:09:18Z</time>
      </trkpt>
      <trkpt lat="45.55144" lon="6.65246">
        <ele>663.5999756</ele>
        <time>2013-07-27T04:09:23Z</time>
      </trkpt>
      <trkpt lat="45.55139" lon="6.65236">
        <ele>664.7999878</ele>
        <time>2013-07-27T04:09:26Z</time>
      </trkpt>
      <trkpt lat="45.55135" lon="6.65225">
        <ele>665.4000244</ele>
        <time>2013-07-27T04:09:29Z</time>
      </trkpt>
      <trkpt lat="45.55138" lon="6.65211">
        <ele>665.5999756</ele>
        <time>2013-07-27T04:09:32Z</time>
      </trkpt>
      <trkpt lat="45.5514" lon="6.65202">
        <ele>665.4000244</ele>
        <time>2013-07-27T04:09:34Z</time>
      </trkpt>
      <trkpt lat="45.55141" lon="6.65188">
        <ele>665.4000244</ele>
        <time>2013-07-27T04:09:37Z</time>
      </trkpt>
      <trkpt lat="45.55141" lon="6.65174">
        <ele>665</ele>
        <time>2013-07-27T04:09:40Z</time>
      </trkpt>
      <trkpt lat="45.55137" lon="6.65167">
        <ele>664.7999878</ele>
        <time>2013-07-27T04:09:42Z</time>
      </trkpt>
      <trkpt lat="45.55129" lon="6.65159">
        <ele>665.2000122</ele>
        <time>2013-07-27T04:09:45Z</time>
      </trkpt>
      <trkpt lat="45.55108" lon="6.65139">
        <ele>665.4000244</ele>
        <time>2013-07-27T04:09:54Z</time>
      </trkpt>
      <trkpt lat="45.55098" lon="6.65126">
        <ele>665.7999878</ele>
        <time>2013-07-27T04:09:59Z</time>
      </trkpt>
      <trkpt lat="45.55093" lon="6.65117">
        <ele>666.7999878</ele>
        <time>2013-07-27T04:10:02Z</time>
      </trkpt>
      <trkpt lat="45.55091" lon="6.65106">
        <ele>667.5999756</ele>
        <time>2013-07-27T04:10:06Z</time>
      </trkpt>
      <trkpt lat="45.55088" lon="6.65096">
        <ele>668.2000122</ele>
        <time>2013-07-27T04:10:08Z</time>
      </trkpt>
      <trkpt lat="45.55088" lon="6.6508">
        <ele>669.2000122</ele>
        <time>2013-07-27T04:10:13Z</time>
      </trkpt>
      <trkpt lat="45.55087" lon="6.65068">
        <ele>669.5999756</ele>
        <time>2013-07-27T04:10:15Z</time>
      </trkpt>
      <trkpt lat="45.55084" lon="6.65054">
        <ele>669.5999756</ele>
        <time>2013-07-27T04:10:19Z</time>
      </trkpt>
      <trkpt lat="45.55083" lon="6.65039">
        <ele>669.5999756</ele>
        <time>2013-07-27T04:10:22Z</time>
      </trkpt>
      <trkpt lat="45.55083" lon="6.65024">
        <ele>668.7999878</ele>
        <time>2013-07-27T04:10:24Z</time>
      </trkpt>
      <trkpt lat="45.55082" lon="6.65014">
        <ele>667.5999756</ele>
        <time>2013-07-27T04:10:27Z</time>
      </trkpt>
      <trkpt lat="45.55081" lon="6.65004">
        <ele>665.7999878</ele>
        <time>2013-07-27T04:10:29Z</time>
      </trkpt>
      <trkpt lat="45.55077" lon="6.64989">
        <ele>664.5999756</ele>
        <time>2013-07-27T04:10:31Z</time>
      </trkpt>
      <trkpt lat="45.55074" lon="6.6498">
        <ele>663.4000244</ele>
        <time>2013-07-27T04:10:33Z</time>
      </trkpt>
      <trkpt lat="45.55071" lon="6.64971">
        <ele>662.4000244</ele>
        <time>2013-07-27T04:10:35Z</time>
      </trkpt>
      <trkpt lat="45.55067" lon="6.64964">
        <ele>662</ele>
        <time>2013-07-27T04:10:38Z</time>
      </trkpt>
      <trkpt lat="45.55058" lon="6.6496">
        <ele>662.2000122</ele>
        <time>2013-07-27T04:10:40Z</time>
      </trkpt>
      <trkpt lat="45.55043" lon="6.64958">
        <ele>662.5999756</ele>
        <time>2013-07-27T04:10:45Z</time>
      </trkpt>
      <trkpt lat="45.55037" lon="6.64949">
        <ele>662.7999878</ele>
        <time>2013-07-27T04:10:49Z</time>
      </trkpt>
      <trkpt lat="45.55033" lon="6.64938">
        <ele>662.5999756</ele>
        <time>2013-07-27T04:10:52Z</time>
      </trkpt>
      <trkpt lat="45.55027" lon="6.64917">
        <ele>661.2000122</ele>
        <time>2013-07-27T04:10:56Z</time>
      </trkpt>
      <trkpt lat="45.55025" lon="6.64908">
        <ele>660</ele>
        <time>2013-07-27T04:10:58Z</time>
      </trkpt>
      <trkpt lat="45.5502" lon="6.64897">
        <ele>659.2000122</ele>
        <time>2013-07-27T04:11:01Z</time>
      </trkpt>
      <trkpt lat="45.55017" lon="6.64884">
        <ele>659.2000122</ele>
        <time>2013-07-27T04:11:04Z</time>
      </trkpt>
      <trkpt lat="45.55012" lon="6.64865">
        <ele>660.5999756</ele>
        <time>2013-07-27T04:11:10Z</time>
      </trkpt>
      <trkpt lat="45.55008" lon="6.64854">
        <ele>662.2000122</ele>
        <time>2013-07-27T04:11:12Z</time>
      </trkpt>
      <trkpt lat="45.55005" lon="6.64839">
        <ele>665.5999756</ele>
        <time>2013-07-27T04:11:17Z</time>
      </trkpt>
      <trkpt lat="45.55" lon="6.64822">
        <ele>667.5999756</ele>
        <time>2013-07-27T04:11:21Z</time>
      </trkpt>
      <trkpt lat="45.54998" lon="6.64809">
        <ele>667.7999878</ele>
        <time>2013-07-27T04:11:24Z</time>
      </trkpt>
      <trkpt lat="45.54993" lon="6.64778">
        <ele>668.5999756</ele>
        <time>2013-07-27T04:11:31Z</time>
      </trkpt>
      <trkpt lat="45.54988" lon="6.64753">
        <ele>669</ele>
        <time>2013-07-27T04:11:37Z</time>
      </trkpt>
      <trkpt lat="45.54983" lon="6.64739">
        <ele>669.2000122</ele>
        <time>2013-07-27T04:11:42Z</time>
      </trkpt>
      <trkpt lat="45.54979" lon="6.64728">
        <ele>669.4000244</ele>
        <time>2013-07-27T04:11:44Z</time>
      </trkpt>
      <trkpt lat="45.54976" lon="6.64718">
        <ele>669.7999878</ele>
        <time>2013-07-27T04:11:47Z</time>
      </trkpt>
      <trkpt lat="45.54976" lon="6.64706">
        <ele>670</ele>
        <time>2013-07-27T04:11:50Z</time>
      </trkpt>
      <trkpt lat="45.54975" lon="6.64694">
        <ele>670.2000122</ele>
        <time>2013-07-27T04:11:53Z</time>
      </trkpt>
      <trkpt lat="45.54971" lon="6.64675">
        <ele>670.5999756</ele>
        <time>2013-07-27T04:11:58Z</time>
      </trkpt>
      <trkpt lat="45.5497" lon="6.64665">
        <ele>670.7999878</ele>
        <time>2013-07-27T04:12:01Z</time>
      </trkpt>
      <trkpt lat="45.5497" lon="6.64652">
        <ele>671</ele>
        <time>2013-07-27T04:12:04Z</time>
      </trkpt>
      <trkpt lat="45.54972" lon="6.64635">
        <ele>669.4000244</ele>
        <time>2013-07-27T04:12:09Z</time>
      </trkpt>
      <trkpt lat="45.54972" lon="6.64619">
        <ele>668</ele>
        <time>2013-07-27T04:12:12Z</time>
      </trkpt>
      <trkpt lat="45.54972" lon="6.64603">
        <ele>666.2000122</ele>
        <time>2013-07-27T04:12:14Z</time>
      </trkpt>
      <trkpt lat="45.54972" lon="6.64588">
        <ele>664.4000244</ele>
        <time>2013-07-27T04:12:17Z</time>
      </trkpt>
      <trkpt lat="45.54971" lon="6.64578">
        <ele>663</ele>
        <time>2013-07-27T04:12:19Z</time>
      </trkpt>
      <trkpt lat="45.54972" lon="6.64563">
        <ele>662</ele>
        <time>2013-07-27T04:12:22Z</time>
      </trkpt>
      <trkpt lat="45.54972" lon="6.64554">
        <ele>661.4000244</ele>
        <time>2013-07-27T04:12:25Z</time>
      </trkpt>
      <trkpt lat="45.54971" lon="6.64541">
        <ele>661</ele>
        <time>2013-07-27T04:12:28Z</time>
      </trkpt>
      <trkpt lat="45.54965" lon="6.64503">
        <ele>660.7999878</ele>
        <time>2013-07-27T04:12:36Z</time>
      </trkpt>
      <trkpt lat="45.54964" lon="6.64481">
        <ele>661</ele>
        <time>2013-07-27T04:12:41Z</time>
      </trkpt>
      <trkpt lat="45.54965" lon="6.64472">
        <ele>660.7999878</ele>
        <time>2013-07-27T04:12:43Z</time>
      </trkpt>
      <trkpt lat="45.54967" lon="6.64463">
        <ele>660.4000244</ele>
        <time>2013-07-27T04:12:46Z</time>
      </trkpt>
      <trkpt lat="45.54972" lon="6.64445">
        <ele>660.7999878</ele>
        <time>2013-07-27T04:12:50Z</time>
      </trkpt>
      <trkpt lat="45.54973" lon="6.64431">
        <ele>660.7999878</ele>
        <time>2013-07-27T04:12:55Z</time>
      </trkpt>
      <trkpt lat="45.54974" lon="6.64414">
        <ele>661.7999878</ele>
        <time>2013-07-27T04:12:59Z</time>
      </trkpt>
      <trkpt lat="45.54971" lon="6.64402">
        <ele>661.7999878</ele>
        <time>2013-07-27T04:13:02Z</time>
      </trkpt>
      <trkpt lat="45.54968" lon="6.64391">
        <ele>662.5999756</ele>
        <time>2013-07-27T04:13:05Z</time>
      </trkpt>
      <trkpt lat="45.54968" lon="6.64372">
        <ele>663.7999878</ele>
        <time>2013-07-27T04:13:10Z</time>
      </trkpt>
      <trkpt lat="45.54966" lon="6.64354">
        <ele>665.5999756</ele>
        <time>2013-07-27T04:13:16Z</time>
      </trkpt>
      <trkpt lat="45.54961" lon="6.6434">
        <ele>666.7999878</ele>
        <time>2013-07-27T04:13:20Z</time>
      </trkpt>
      <trkpt lat="45.54956" lon="6.64308">
        <ele>666.4000244</ele>
        <time>2013-07-27T04:13:27Z</time>
      </trkpt>
      <trkpt lat="45.54957" lon="6.64292">
        <ele>665.7999878</ele>
        <time>2013-07-27T04:13:30Z</time>
      </trkpt>
      <trkpt lat="45.54957" lon="6.64277">
        <ele>664.7999878</ele>
        <time>2013-07-27T04:13:33Z</time>
      </trkpt>
      <trkpt lat="45.54957" lon="6.64256">
        <ele>663.2000122</ele>
        <time>2013-07-27T04:13:38Z</time>
      </trkpt>
      <trkpt lat="45.54961" lon="6.64241">
        <ele>662.4000244</ele>
        <time>2013-07-27T04:13:43Z</time>
      </trkpt>
      <trkpt lat="45.54962" lon="6.64221">
        <ele>662.2000122</ele>
        <time>2013-07-27T04:13:47Z</time>
      </trkpt>
      <trkpt lat="45.5496" lon="6.64204">
        <ele>662.2000122</ele>
        <time>2013-07-27T04:13:52Z</time>
      </trkpt>
      <trkpt lat="45.54959" lon="6.6419">
        <ele>662.5999756</ele>
        <time>2013-07-27T04:13:54Z</time>
      </trkpt>
      <trkpt lat="45.54957" lon="6.64181">
        <ele>663</ele>
        <time>2013-07-27T04:13:57Z</time>
      </trkpt>
      <trkpt lat="45.54954" lon="6.6416">
        <ele>663.5999756</ele>
        <time>2013-07-27T04:14:01Z</time>
      </trkpt>
      <trkpt lat="45.54953" lon="6.6414">
        <ele>663.7999878</ele>
        <time>2013-07-27T04:14:06Z</time>
      </trkpt>
      <trkpt lat="45.54952" lon="6.64127">
        <ele>663.4000244</ele>
        <time>2013-07-27T04:14:10Z</time>
      </trkpt>
      <trkpt lat="45.54951" lon="6.64114">
        <ele>663</ele>
        <time>2013-07-27T04:14:13Z</time>
      </trkpt>
      <trkpt lat="45.54953" lon="6.64096">
        <ele>663</ele>
        <time>2013-07-27T04:14:17Z</time>
      </trkpt>
      <trkpt lat="45.5496" lon="6.64069">
        <ele>663</ele>
        <time>2013-07-27T04:14:24Z</time>
      </trkpt>
      <trkpt lat="45.54971" lon="6.64054">
        <ele>662</ele>
        <time>2013-07-27T04:14:29Z</time>
      </trkpt>
      <trkpt lat="45.54976" lon="6.64046">
        <ele>661.2000122</ele>
        <time>2013-07-27T04:14:32Z</time>
      </trkpt>
      <trkpt lat="45.54983" lon="6.64028">
        <ele>660.7999878</ele>
        <time>2013-07-27T04:14:37Z</time>
      </trkpt>
      <trkpt lat="45.54987" lon="6.64012">
        <ele>659.5999756</ele>
        <time>2013-07-27T04:14:41Z</time>
      </trkpt>
      <trkpt lat="45.54988" lon="6.64003">
        <ele>658.4000244</ele>
        <time>2013-07-27T04:14:43Z</time>
      </trkpt>
      <trkpt lat="45.54987" lon="6.63986">
        <ele>658.5999756</ele>
        <time>2013-07-27T04:14:49Z</time>
      </trkpt>
      <trkpt lat="45.54987" lon="6.63977">
        <ele>659.2000122</ele>
        <time>2013-07-27T04:14:52Z</time>
      </trkpt>
      <trkpt lat="45.54984" lon="6.6396">
        <ele>663.2000122</ele>
        <time>2013-07-27T04:14:56Z</time>
      </trkpt>
      <trkpt lat="45.54979" lon="6.63944">
        <ele>666.4000244</ele>
        <time>2013-07-27T04:15:01Z</time>
      </trkpt>
      <trkpt lat="45.54976" lon="6.63924">
        <ele>668.7999878</ele>
        <time>2013-07-27T04:15:06Z</time>
      </trkpt>
      <trkpt lat="45.54973" lon="6.63913">
        <ele>669.2000122</ele>
        <time>2013-07-27T04:15:09Z</time>
      </trkpt>
      <trkpt lat="45.54971" lon="6.63904">
        <ele>669.7999878</ele>
        <time>2013-07-27T04:15:12Z</time>
      </trkpt>
      <trkpt lat="45.54968" lon="6.6389">
        <ele>671</ele>
        <time>2013-07-27T04:15:17Z</time>
      </trkpt>
      <trkpt lat="45.54962" lon="6.63875">
        <ele>671.5999756</ele>
        <time>2013-07-27T04:15:21Z</time>
      </trkpt>
      <trkpt lat="45.54955" lon="6.63859">
        <ele>671</ele>
        <time>2013-07-27T04:15:26Z</time>
      </trkpt>
      <trkpt lat="45.54953" lon="6.63845">
        <ele>670</ele>
        <time>2013-07-27T04:15:29Z</time>
      </trkpt>
      <trkpt lat="45.54952" lon="6.63826">
        <ele>668.7999878</ele>
        <time>2013-07-27T04:15:32Z</time>
      </trkpt>
      <trkpt lat="45.5495" lon="6.63818">
        <ele>667.7999878</ele>
        <time>2013-07-27T04:15:34Z</time>
      </trkpt>
      <trkpt lat="45.54946" lon="6.63807">
        <ele>667.2000122</ele>
        <time>2013-07-27T04:15:38Z</time>
      </trkpt>
      <trkpt lat="45.54937" lon="6.63791">
        <ele>667</ele>
        <time>2013-07-27T04:15:42Z</time>
      </trkpt>
      <trkpt lat="45.54932" lon="6.63782">
        <ele>667.7999878</ele>
        <time>2013-07-27T04:15:45Z</time>
      </trkpt>
      <trkpt lat="45.54927" lon="6.63765">
        <ele>668.7999878</ele>
        <time>2013-07-27T04:15:51Z</time>
      </trkpt>
      <trkpt lat="45.54918" lon="6.63751">
        <ele>670.2000122</ele>
        <time>2013-07-27T04:15:55Z</time>
      </trkpt>
      <trkpt lat="45.54909" lon="6.63735">
        <ele>671.4000244</ele>
        <time>2013-07-27T04:16:00Z</time>
      </trkpt>
      <trkpt lat="45.54899" lon="6.6372">
        <ele>672.2000122</ele>
        <time>2013-07-27T04:16:05Z</time>
      </trkpt>
      <trkpt lat="45.54893" lon="6.63712">
        <ele>672.2000122</ele>
        <time>2013-07-27T04:16:08Z</time>
      </trkpt>
      <trkpt lat="45.54882" lon="6.637">
        <ele>672</ele>
        <time>2013-07-27T04:16:14Z</time>
      </trkpt>
      <trkpt lat="45.54876" lon="6.63691">
        <ele>672.7999878</ele>
        <time>2013-07-27T04:16:17Z</time>
      </trkpt>
      <trkpt lat="45.54872" lon="6.63676">
        <ele>674.2000122</ele>
        <time>2013-07-27T04:16:21Z</time>
      </trkpt>
      <trkpt lat="45.54865" lon="6.63665">
        <ele>676.7999878</ele>
        <time>2013-07-27T04:16:26Z</time>
      </trkpt>
      <trkpt lat="45.54856" lon="6.6365">
        <ele>679</ele>
        <time>2013-07-27T04:16:30Z</time>
      </trkpt>
      <trkpt lat="45.54851" lon="6.63639">
        <ele>679.2000122</ele>
        <time>2013-07-27T04:16:33Z</time>
      </trkpt>
      <trkpt lat="45.54842" lon="6.63622">
        <ele>679</ele>
        <time>2013-07-27T04:16:37Z</time>
      </trkpt>
      <trkpt lat="45.54837" lon="6.63611">
        <ele>678</ele>
        <time>2013-07-27T04:16:40Z</time>
      </trkpt>
      <trkpt lat="45.54832" lon="6.6359">
        <ele>676.4000244</ele>
        <time>2013-07-27T04:16:46Z</time>
      </trkpt>
      <trkpt lat="45.5483" lon="6.63575">
        <ele>674.7999878</ele>
        <time>2013-07-27T04:16:49Z</time>
      </trkpt>
      <trkpt lat="45.54835" lon="6.63555">
        <ele>672.7999878</ele>
        <time>2013-07-27T04:16:51Z</time>
      </trkpt>
      <trkpt lat="45.5484" lon="6.63539">
        <ele>670.7999878</ele>
        <time>2013-07-27T04:16:55Z</time>
      </trkpt>
      <trkpt lat="45.54843" lon="6.63525">
        <ele>668.7999878</ele>
        <time>2013-07-27T04:16:58Z</time>
      </trkpt>
      <trkpt lat="45.54848" lon="6.63512">
        <ele>667</ele>
        <time>2013-07-27T04:17:00Z</time>
      </trkpt>
      <trkpt lat="45.54852" lon="6.63494">
        <ele>665.2000122</ele>
        <time>2013-07-27T04:17:05Z</time>
      </trkpt>
      <trkpt lat="45.54852" lon="6.63483">
        <ele>664.2000122</ele>
        <time>2013-07-27T04:17:07Z</time>
      </trkpt>
      <trkpt lat="45.54848" lon="6.6347">
        <ele>663.2000122</ele>
        <time>2013-07-27T04:17:11Z</time>
      </trkpt>
      <trkpt lat="45.54839" lon="6.63464">
        <ele>662</ele>
        <time>2013-07-27T04:17:13Z</time>
      </trkpt>
      <trkpt lat="45.54833" lon="6.63459">
        <ele>661</ele>
        <time>2013-07-27T04:17:16Z</time>
      </trkpt>
      <trkpt lat="45.54826" lon="6.63452">
        <ele>660.5999756</ele>
        <time>2013-07-27T04:17:18Z</time>
      </trkpt>
      <trkpt lat="45.54817" lon="6.63443">
        <ele>661.2000122</ele>
        <time>2013-07-27T04:17:23Z</time>
      </trkpt>
      <trkpt lat="45.54806" lon="6.63431">
        <ele>661.5999756</ele>
        <time>2013-07-27T04:17:28Z</time>
      </trkpt>
      <trkpt lat="45.54799" lon="6.63423">
        <ele>661.4000244</ele>
        <time>2013-07-27T04:17:30Z</time>
      </trkpt>
      <trkpt lat="45.54794" lon="6.63415">
        <ele>661</ele>
        <time>2013-07-27T04:17:33Z</time>
      </trkpt>
      <trkpt lat="45.54783" lon="6.63401">
        <ele>660</ele>
        <time>2013-07-27T04:17:38Z</time>
      </trkpt>
      <trkpt lat="45.54775" lon="6.63388">
        <ele>659.5999756</ele>
        <time>2013-07-27T04:17:43Z</time>
      </trkpt>
      <trkpt lat="45.54769" lon="6.63378">
        <ele>659.2000122</ele>
        <time>2013-07-27T04:17:45Z</time>
      </trkpt>
      <trkpt lat="45.54764" lon="6.63372">
        <ele>658.5999756</ele>
        <time>2013-07-27T04:17:48Z</time>
      </trkpt>
      <trkpt lat="45.54757" lon="6.63362">
        <ele>658.4000244</ele>
        <time>2013-07-27T04:17:50Z</time>
      </trkpt>
      <trkpt lat="45.54752" lon="6.63356">
        <ele>658</ele>
        <time>2013-07-27T04:17:53Z</time>
      </trkpt>
      <trkpt lat="45.54746" lon="6.63347">
        <ele>657.7999878</ele>
        <time>2013-07-27T04:17:55Z</time>
      </trkpt>
      <trkpt lat="45.54739" lon="6.63341">
        <ele>657.7999878</ele>
        <time>2013-07-27T04:17:59Z</time>
      </trkpt>
      <trkpt lat="45.54733" lon="6.63333">
        <ele>657.7999878</ele>
        <time>2013-07-27T04:18:01Z</time>
      </trkpt>
      <trkpt lat="45.54723" lon="6.63327">
        <ele>657.4000244</ele>
        <time>2013-07-27T04:18:06Z</time>
      </trkpt>
      <trkpt lat="45.54717" lon="6.63322">
        <ele>657.2000122</ele>
        <time>2013-07-27T04:18:09Z</time>
      </trkpt>
      <trkpt lat="45.54711" lon="6.63318">
        <ele>657</ele>
        <time>2013-07-27T04:18:12Z</time>
      </trkpt>
      <trkpt lat="45.54695" lon="6.63309">
        <ele>657.2000122</ele>
        <time>2013-07-27T04:18:22Z</time>
      </trkpt>
      <trkpt lat="45.54689" lon="6.63305">
        <ele>657.4000244</ele>
        <time>2013-07-27T04:18:24Z</time>
      </trkpt>
      <trkpt lat="45.54681" lon="6.63298">
        <ele>657.7999878</ele>
        <time>2013-07-27T04:18:29Z</time>
      </trkpt>
      <trkpt lat="45.5467" lon="6.63291">
        <ele>658.7999878</ele>
        <time>2013-07-27T04:18:34Z</time>
      </trkpt>
      <trkpt lat="45.54664" lon="6.63285">
        <ele>659.7999878</ele>
        <time>2013-07-27T04:18:38Z</time>
      </trkpt>
      <trkpt lat="45.54661" lon="6.63277">
        <ele>660.7999878</ele>
        <time>2013-07-27T04:18:40Z</time>
      </trkpt>
      <trkpt lat="45.54656" lon="6.63269">
        <ele>662.7999878</ele>
        <time>2013-07-27T04:18:45Z</time>
      </trkpt>
      <trkpt lat="45.5465" lon="6.63259">
        <ele>663.5999756</ele>
        <time>2013-07-27T04:18:50Z</time>
      </trkpt>
      <trkpt lat="45.54639" lon="6.63251">
        <ele>664</ele>
        <time>2013-07-27T04:18:57Z</time>
      </trkpt>
      <trkpt lat="45.54632" lon="6.63241">
        <ele>664.5999756</ele>
        <time>2013-07-27T04:19:01Z</time>
      </trkpt>
      <trkpt lat="45.54625" lon="6.63232">
        <ele>665.2000122</ele>
        <time>2013-07-27T04:19:06Z</time>
      </trkpt>
      <trkpt lat="45.5462" lon="6.63226">
        <ele>665.5999756</ele>
        <time>2013-07-27T04:19:10Z</time>
      </trkpt>
      <trkpt lat="45.54615" lon="6.63219">
        <ele>666.2000122</ele>
        <time>2013-07-27T04:19:12Z</time>
      </trkpt>
      <trkpt lat="45.54603" lon="6.63206">
        <ele>667.7999878</ele>
        <time>2013-07-27T04:19:17Z</time>
      </trkpt>
      <trkpt lat="45.54598" lon="6.63193">
        <ele>668.5999756</ele>
        <time>2013-07-27T04:19:22Z</time>
      </trkpt>
      <trkpt lat="45.54596" lon="6.63182">
        <ele>668.4000244</ele>
        <time>2013-07-27T04:19:24Z</time>
      </trkpt>
      <trkpt lat="45.54596" lon="6.63171">
        <ele>668</ele>
        <time>2013-07-27T04:19:30Z</time>
      </trkpt>
      <trkpt lat="45.54593" lon="6.63153">
        <ele>668</ele>
        <time>2013-07-27T04:19:38Z</time>
      </trkpt>
      <trkpt lat="45.54589" lon="6.63143">
        <ele>669.5999756</ele>
        <time>2013-07-27T04:19:47Z</time>
      </trkpt>
      <trkpt lat="45.54586" lon="6.63134">
        <ele>671</ele>
        <time>2013-07-27T04:19:51Z</time>
      </trkpt>
      <trkpt lat="45.54583" lon="6.63124">
        <ele>672.7999878</ele>
        <time>2013-07-27T04:19:58Z</time>
      </trkpt>
      <trkpt lat="45.54582" lon="6.63115">
        <ele>674.4000244</ele>
        <time>2013-07-27T04:20:02Z</time>
      </trkpt>
      <trkpt lat="45.5458" lon="6.63106">
        <ele>676</ele>
        <time>2013-07-27T04:20:07Z</time>
      </trkpt>
      <trkpt lat="45.54579" lon="6.6309">
        <ele>676</ele>
        <time>2013-07-27T04:20:14Z</time>
      </trkpt>
      <trkpt lat="45.54578" lon="6.63078">
        <ele>675</ele>
        <time>2013-07-27T04:20:19Z</time>
      </trkpt>
      <trkpt lat="45.54574" lon="6.63066">
        <ele>674.2000122</ele>
        <time>2013-07-27T04:20:25Z</time>
      </trkpt>
      <trkpt lat="45.54569" lon="6.63056">
        <ele>674.4000244</ele>
        <time>2013-07-27T04:20:30Z</time>
      </trkpt>
      <trkpt lat="45.54565" lon="6.63041">
        <ele>675.7999878</ele>
        <time>2013-07-27T04:20:35Z</time>
      </trkpt>
      <trkpt lat="45.54565" lon="6.63031">
        <ele>676.4000244</ele>
        <time>2013-07-27T04:20:37Z</time>
      </trkpt>
      <trkpt lat="45.54561" lon="6.63023">
        <ele>677</ele>
        <time>2013-07-27T04:20:40Z</time>
      </trkpt>
      <trkpt lat="45.54552" lon="6.63002">
        <ele>677.2000122</ele>
        <time>2013-07-27T04:20:48Z</time>
      </trkpt>
      <trkpt lat="45.54548" lon="6.62992">
        <ele>677</ele>
        <time>2013-07-27T04:20:53Z</time>
      </trkpt>
      <trkpt lat="45.54543" lon="6.62985">
        <ele>677.5999756</ele>
        <time>2013-07-27T04:20:58Z</time>
      </trkpt>
      <trkpt lat="45.54541" lon="6.62976">
        <ele>678.7999878</ele>
        <time>2013-07-27T04:21:00Z</time>
      </trkpt>
      <trkpt lat="45.54539" lon="6.62964">
        <ele>681.7999878</ele>
        <time>2013-07-27T04:21:04Z</time>
      </trkpt>
      <trkpt lat="45.54535" lon="6.62955">
        <ele>683</ele>
        <time>2013-07-27T04:21:07Z</time>
      </trkpt>
      <trkpt lat="45.5453" lon="6.62948">
        <ele>684</ele>
        <time>2013-07-27T04:21:10Z</time>
      </trkpt>
      <trkpt lat="45.54531" lon="6.62929">
        <ele>682.7999878</ele>
        <time>2013-07-27T04:21:16Z</time>
      </trkpt>
      <trkpt lat="45.54531" lon="6.62913">
        <ele>681.4000244</ele>
        <time>2013-07-27T04:21:21Z</time>
      </trkpt>
      <trkpt lat="45.54528" lon="6.62904">
        <ele>680.7999878</ele>
        <time>2013-07-27T04:21:24Z</time>
      </trkpt>
      <trkpt lat="45.5452" lon="6.62892">
        <ele>681.5999756</ele>
        <time>2013-07-27T04:21:29Z</time>
      </trkpt>
      <trkpt lat="45.54517" lon="6.62883">
        <ele>681.7999878</ele>
        <time>2013-07-27T04:21:32Z</time>
      </trkpt>
      <trkpt lat="45.5451" lon="6.62877">
        <ele>682.5999756</ele>
        <time>2013-07-27T04:21:36Z</time>
      </trkpt>
      <trkpt lat="45.54504" lon="6.62867">
        <ele>683.4000244</ele>
        <time>2013-07-27T04:21:41Z</time>
      </trkpt>
      <trkpt lat="45.54504" lon="6.62852">
        <ele>684.5999756</ele>
        <time>2013-07-27T04:21:45Z</time>
      </trkpt>
      <trkpt lat="45.54505" lon="6.62837">
        <ele>684.4000244</ele>
        <time>2013-07-27T04:21:50Z</time>
      </trkpt>
      <trkpt lat="45.54504" lon="6.62828">
        <ele>684.2000122</ele>
        <time>2013-07-27T04:21:52Z</time>
      </trkpt>
      <trkpt lat="45.54499" lon="6.62819">
        <ele>683.2000122</ele>
        <time>2013-07-27T04:21:57Z</time>
      </trkpt>
      <trkpt lat="45.54493" lon="6.62812">
        <ele>683</ele>
        <time>2013-07-27T04:22:02Z</time>
      </trkpt>
      <trkpt lat="45.54486" lon="6.62797">
        <ele>682.7999878</ele>
        <time>2013-07-27T04:22:10Z</time>
      </trkpt>
      <trkpt lat="45.54483" lon="6.62788">
        <ele>684</ele>
        <time>2013-07-27T04:22:15Z</time>
      </trkpt>
      <trkpt lat="45.54482" lon="6.62777">
        <ele>685.7999878</ele>
        <time>2013-07-27T04:22:22Z</time>
      </trkpt>
      <trkpt lat="45.54477" lon="6.62769">
        <ele>685.7999878</ele>
        <time>2013-07-27T04:22:27Z</time>
      </trkpt>
      <trkpt lat="45.54474" lon="6.62753">
        <ele>685.5999756</ele>
        <time>2013-07-27T04:22:35Z</time>
      </trkpt>
      <trkpt lat="45.54469" lon="6.62741">
        <ele>685.4000244</ele>
        <time>2013-07-27T04:22:42Z</time>
      </trkpt>
      <trkpt lat="45.54465" lon="6.62728">
        <ele>686.2000122</ele>
        <time>2013-07-27T04:22:50Z</time>
      </trkpt>
      <trkpt lat="45.54461" lon="6.62719">
        <ele>687.4000244</ele>
        <time>2013-07-27T04:22:54Z</time>
      </trkpt>
      <trkpt lat="45.54459" lon="6.62707">
        <ele>688</ele>
        <time>2013-07-27T04:22:59Z</time>
      </trkpt>
      <trkpt lat="45.54457" lon="6.62693">
        <ele>687.7999878</ele>
        <time>2013-07-27T04:23:05Z</time>
      </trkpt>
      <trkpt lat="45.54451" lon="6.62681">
        <ele>687.2000122</ele>
        <time>2013-07-27T04:23:12Z</time>
      </trkpt>
      <trkpt lat="45.54448" lon="6.62671">
        <ele>688.5999756</ele>
        <time>2013-07-27T04:23:18Z</time>
      </trkpt>
      <trkpt lat="45.54443" lon="6.62662">
        <ele>690.2000122</ele>
        <time>2013-07-27T04:23:26Z</time>
      </trkpt>
      <trkpt lat="45.54438" lon="6.62651">
        <ele>690</ele>
        <time>2013-07-27T04:23:31Z</time>
      </trkpt>
      <trkpt lat="45.54434" lon="6.62642">
        <ele>690</ele>
        <time>2013-07-27T04:23:36Z</time>
      </trkpt>
      <trkpt lat="45.54431" lon="6.62632">
        <ele>690.5999756</ele>
        <time>2013-07-27T04:23:41Z</time>
      </trkpt>
      <trkpt lat="45.54428" lon="6.62619">
        <ele>691.4000244</ele>
        <time>2013-07-27T04:23:47Z</time>
      </trkpt>
      <trkpt lat="45.54425" lon="6.62608">
        <ele>691.2000122</ele>
        <time>2013-07-27T04:23:54Z</time>
      </trkpt>
      <trkpt lat="45.54421" lon="6.62598">
        <ele>691</ele>
        <time>2013-07-27T04:23:58Z</time>
      </trkpt>
      <trkpt lat="45.54416" lon="6.62588">
        <ele>691.5999756</ele>
        <time>2013-07-27T04:24:04Z</time>
      </trkpt>
      <trkpt lat="45.54415" lon="6.62577">
        <ele>693</ele>
        <time>2013-07-27T04:24:10Z</time>
      </trkpt>
      <trkpt lat="45.54412" lon="6.62568">
        <ele>694.2000122</ele>
        <time>2013-07-27T04:24:14Z</time>
      </trkpt>
      <trkpt lat="45.54408" lon="6.6256">
        <ele>695.7999878</ele>
        <time>2013-07-27T04:24:19Z</time>
      </trkpt>
      <trkpt lat="45.54404" lon="6.62552">
        <ele>698.5999756</ele>
        <time>2013-07-27T04:24:24Z</time>
      </trkpt>
      <trkpt lat="45.54401" lon="6.62538">
        <ele>702.7999878</ele>
        <time>2013-07-27T04:24:32Z</time>
      </trkpt>
      <trkpt lat="45.54394" lon="6.62526">
        <ele>705</ele>
        <time>2013-07-27T04:24:39Z</time>
      </trkpt>
      <trkpt lat="45.54388" lon="6.62517">
        <ele>706</ele>
        <time>2013-07-27T04:24:44Z</time>
      </trkpt>
      <trkpt lat="45.5438" lon="6.62507">
        <ele>707</ele>
        <time>2013-07-27T04:24:51Z</time>
      </trkpt>
      <trkpt lat="45.54378" lon="6.62495">
        <ele>708</ele>
        <time>2013-07-27T04:24:58Z</time>
      </trkpt>
      <trkpt lat="45.54377" lon="6.62483">
        <ele>709.2000122</ele>
        <time>2013-07-27T04:25:02Z</time>
      </trkpt>
      <trkpt lat="45.54374" lon="6.62469">
        <ele>709</ele>
        <time>2013-07-27T04:25:09Z</time>
      </trkpt>
      <trkpt lat="45.54369" lon="6.6246">
        <ele>709</ele>
        <time>2013-07-27T04:25:16Z</time>
      </trkpt>
      <trkpt lat="45.54368" lon="6.62449">
        <ele>710.2000122</ele>
        <time>2013-07-27T04:25:20Z</time>
      </trkpt>
      <trkpt lat="45.54365" lon="6.62434">
        <ele>712.4000244</ele>
        <time>2013-07-27T04:25:27Z</time>
      </trkpt>
      <trkpt lat="45.54364" lon="6.62421">
        <ele>714.5999756</ele>
        <time>2013-07-27T04:25:33Z</time>
      </trkpt>
      <trkpt lat="45.5436" lon="6.62413">
        <ele>716.5999756</ele>
        <time>2013-07-27T04:25:38Z</time>
      </trkpt>
      <trkpt lat="45.54356" lon="6.62406">
        <ele>717.5999756</ele>
        <time>2013-07-27T04:25:43Z</time>
      </trkpt>
      <trkpt lat="45.5435" lon="6.62398">
        <ele>718.7999878</ele>
        <time>2013-07-27T04:25:50Z</time>
      </trkpt>
      <trkpt lat="45.54348" lon="6.62384">
        <ele>720.4000244</ele>
        <time>2013-07-27T04:25:57Z</time>
      </trkpt>
      <trkpt lat="45.54348" lon="6.62371">
        <ele>722.2000122</ele>
        <time>2013-07-27T04:26:02Z</time>
      </trkpt>
      <trkpt lat="45.54345" lon="6.6236">
        <ele>724.4000244</ele>
        <time>2013-07-27T04:26:08Z</time>
      </trkpt>
      <trkpt lat="45.5434" lon="6.62353">
        <ele>727.2000122</ele>
        <time>2013-07-27T04:26:13Z</time>
      </trkpt>
      <trkpt lat="45.54338" lon="6.62344">
        <ele>729</ele>
        <time>2013-07-27T04:26:18Z</time>
      </trkpt>
      <trkpt lat="45.54337" lon="6.62334">
        <ele>731.2000122</ele>
        <time>2013-07-27T04:26:22Z</time>
      </trkpt>
      <trkpt lat="45.54337" lon="6.62323">
        <ele>733.4000244</ele>
        <time>2013-07-27T04:26:27Z</time>
      </trkpt>
      <trkpt lat="45.54333" lon="6.62315">
        <ele>736.2000122</ele>
        <time>2013-07-27T04:26:33Z</time>
      </trkpt>
      <trkpt lat="45.54335" lon="6.62296">
        <ele>737</ele>
        <time>2013-07-27T04:26:38Z</time>
      </trkpt>
      <trkpt lat="45.54335" lon="6.62286">
        <ele>737.2000122</ele>
        <time>2013-07-27T04:26:41Z</time>
      </trkpt>
      <trkpt lat="45.5433" lon="6.62277">
        <ele>737.2000122</ele>
        <time>2013-07-27T04:26:46Z</time>
      </trkpt>
      <trkpt lat="45.54328" lon="6.62266">
        <ele>737.5999756</ele>
        <time>2013-07-27T04:26:54Z</time>
      </trkpt>
      <trkpt lat="45.54321" lon="6.62261">
        <ele>737.5999756</ele>
        <time>2013-07-27T04:26:59Z</time>
      </trkpt>
      <trkpt lat="45.54311" lon="6.62256">
        <ele>737.5999756</ele>
        <time>2013-07-27T04:27:04Z</time>
      </trkpt>
      <trkpt lat="45.54309" lon="6.62244">
        <ele>738.7999878</ele>
        <time>2013-07-27T04:27:11Z</time>
      </trkpt>
      <trkpt lat="45.54305" lon="6.62233">
        <ele>740.5999756</ele>
        <time>2013-07-27T04:27:19Z</time>
      </trkpt>
      <trkpt lat="45.54305" lon="6.62223">
        <ele>742</ele>
        <time>2013-07-27T04:27:23Z</time>
      </trkpt>
      <trkpt lat="45.54301" lon="6.62214">
        <ele>742.7999878</ele>
        <time>2013-07-27T04:27:29Z</time>
      </trkpt>
      <trkpt lat="45.54298" lon="6.62205">
        <ele>743</ele>
        <time>2013-07-27T04:27:34Z</time>
      </trkpt>
      <trkpt lat="45.54295" lon="6.62195">
        <ele>744</ele>
        <time>2013-07-27T04:27:39Z</time>
      </trkpt>
      <trkpt lat="45.54291" lon="6.62186">
        <ele>745.4000244</ele>
        <time>2013-07-27T04:27:44Z</time>
      </trkpt>
      <trkpt lat="45.54283" lon="6.62177">
        <ele>745.7999878</ele>
        <time>2013-07-27T04:27:49Z</time>
      </trkpt>
      <trkpt lat="45.54277" lon="6.62171">
        <ele>745.5999756</ele>
        <time>2013-07-27T04:27:54Z</time>
      </trkpt>
      <trkpt lat="45.54272" lon="6.62158">
        <ele>744.7999878</ele>
        <time>2013-07-27T04:28:00Z</time>
      </trkpt>
      <trkpt lat="45.54269" lon="6.6215">
        <ele>744.5999756</ele>
        <time>2013-07-27T04:28:05Z</time>
      </trkpt>
      <trkpt lat="45.54264" lon="6.62141">
        <ele>745.4000244</ele>
        <time>2013-07-27T04:28:10Z</time>
      </trkpt>
      <trkpt lat="45.54258" lon="6.62135">
        <ele>747.5999756</ele>
        <time>2013-07-27T04:28:16Z</time>
      </trkpt>
      <trkpt lat="45.54251" lon="6.6213">
        <ele>750.2000122</ele>
        <time>2013-07-27T04:28:21Z</time>
      </trkpt>
      <trkpt lat="45.54246" lon="6.62123">
        <ele>752.4000244</ele>
        <time>2013-07-27T04:28:28Z</time>
      </trkpt>
      <trkpt lat="45.54243" lon="6.62113">
        <ele>753.4000244</ele>
        <time>2013-07-27T04:28:33Z</time>
      </trkpt>
      <trkpt lat="45.54239" lon="6.62105">
        <ele>754.7999878</ele>
        <time>2013-07-27T04:28:38Z</time>
      </trkpt>
      <trkpt lat="45.54236" lon="6.62094">
        <ele>757.2000122</ele>
        <time>2013-07-27T04:28:44Z</time>
      </trkpt>
      <trkpt lat="45.54233" lon="6.62084">
        <ele>759.4000244</ele>
        <time>2013-07-27T04:28:48Z</time>
      </trkpt>
      <trkpt lat="45.54227" lon="6.62079">
        <ele>761</ele>
        <time>2013-07-27T04:28:52Z</time>
      </trkpt>
      <trkpt lat="45.54222" lon="6.62072">
        <ele>761.7999878</ele>
        <time>2013-07-27T04:28:58Z</time>
      </trkpt>
      <trkpt lat="45.54219" lon="6.62061">
        <ele>762.2000122</ele>
        <time>2013-07-27T04:29:02Z</time>
      </trkpt>
      <trkpt lat="45.54219" lon="6.62048">
        <ele>762.4000244</ele>
        <time>2013-07-27T04:29:07Z</time>
      </trkpt>
      <trkpt lat="45.54216" lon="6.62037">
        <ele>762.5999756</ele>
        <time>2013-07-27T04:29:14Z</time>
      </trkpt>
      <trkpt lat="45.54214" lon="6.62025">
        <ele>762.2000122</ele>
        <time>2013-07-27T04:29:18Z</time>
      </trkpt>
      <trkpt lat="45.54213" lon="6.62014">
        <ele>762.4000244</ele>
        <time>2013-07-27T04:29:23Z</time>
      </trkpt>
      <trkpt lat="45.54208" lon="6.62006">
        <ele>762.5999756</ele>
        <time>2013-07-27T04:29:29Z</time>
      </trkpt>
      <trkpt lat="45.54205" lon="6.61998">
        <ele>764</ele>
        <time>2013-07-27T04:29:34Z</time>
      </trkpt>
      <trkpt lat="45.54201" lon="6.61989">
        <ele>765.5999756</ele>
        <time>2013-07-27T04:29:40Z</time>
      </trkpt>
      <trkpt lat="45.54197" lon="6.61979">
        <ele>768.2000122</ele>
        <time>2013-07-27T04:29:46Z</time>
      </trkpt>
      <trkpt lat="45.54192" lon="6.61967">
        <ele>769</ele>
        <time>2013-07-27T04:29:54Z</time>
      </trkpt>
      <trkpt lat="45.54187" lon="6.61958">
        <ele>767.4000244</ele>
        <time>2013-07-27T04:29:58Z</time>
      </trkpt>
      <trkpt lat="45.5418" lon="6.61951">
        <ele>766</ele>
        <time>2013-07-27T04:30:04Z</time>
      </trkpt>
      <trkpt lat="45.54169" lon="6.61946">
        <ele>768.2000122</ele>
        <time>2013-07-27T04:30:12Z</time>
      </trkpt>
      <trkpt lat="45.54163" lon="6.61947">
        <ele>769.2000122</ele>
        <time>2013-07-27T04:30:14Z</time>
      </trkpt>
      <trkpt lat="45.54155" lon="6.61946">
        <ele>771.4000244</ele>
        <time>2013-07-27T04:30:19Z</time>
      </trkpt>
      <trkpt lat="45.54155" lon="6.61929">
        <ele>772.2000122</ele>
        <time>2013-07-27T04:30:25Z</time>
      </trkpt>
      <trkpt lat="45.54155" lon="6.61917">
        <ele>773.5999756</ele>
        <time>2013-07-27T04:30:30Z</time>
      </trkpt>
      <trkpt lat="45.54154" lon="6.61908">
        <ele>775.4000244</ele>
        <time>2013-07-27T04:30:35Z</time>
      </trkpt>
      <trkpt lat="45.54151" lon="6.61897">
        <ele>780</ele>
        <time>2013-07-27T04:30:43Z</time>
      </trkpt>
      <trkpt lat="45.54146" lon="6.61891">
        <ele>782.7999878</ele>
        <time>2013-07-27T04:30:47Z</time>
      </trkpt>
      <trkpt lat="45.54141" lon="6.61885">
        <ele>784.2000122</ele>
        <time>2013-07-27T04:30:53Z</time>
      </trkpt>
      <trkpt lat="45.54137" lon="6.61877">
        <ele>784.7999878</ele>
        <time>2013-07-27T04:30:57Z</time>
      </trkpt>
      <trkpt lat="45.54138" lon="6.61865">
        <ele>785.5999756</ele>
        <time>2013-07-27T04:31:02Z</time>
      </trkpt>
      <trkpt lat="45.54137" lon="6.61853">
        <ele>787.2000122</ele>
        <time>2013-07-27T04:31:08Z</time>
      </trkpt>
      <trkpt lat="45.54139" lon="6.61836">
        <ele>789.4000244</ele>
        <time>2013-07-27T04:31:15Z</time>
      </trkpt>
      <trkpt lat="45.54137" lon="6.61826">
        <ele>790.5999756</ele>
        <time>2013-07-27T04:31:22Z</time>
      </trkpt>
      <trkpt lat="45.54132" lon="6.61833">
        <ele>788.2000122</ele>
        <time>2013-07-27T04:31:29Z</time>
      </trkpt>
      <trkpt lat="45.54131" lon="6.61842">
        <ele>785.2000122</ele>
        <time>2013-07-27T04:31:34Z</time>
      </trkpt>
      <trkpt lat="45.54131" lon="6.61853">
        <ele>784.5999756</ele>
        <time>2013-07-27T04:31:41Z</time>
      </trkpt>
      <trkpt lat="45.54131" lon="6.61863">
        <ele>786.5999756</ele>
        <time>2013-07-27T04:31:48Z</time>
      </trkpt>
      <trkpt lat="45.54133" lon="6.61871">
        <ele>789</ele>
        <time>2013-07-27T04:31:55Z</time>
      </trkpt>
      <trkpt lat="45.54137" lon="6.6188">
        <ele>792</ele>
        <time>2013-07-27T04:32:02Z</time>
      </trkpt>
      <trkpt lat="45.5414" lon="6.61888">
        <ele>794.7999878</ele>
        <time>2013-07-27T04:32:08Z</time>
      </trkpt>
      <trkpt lat="45.54144" lon="6.61899">
        <ele>798</ele>
        <time>2013-07-27T04:32:15Z</time>
      </trkpt>
      <trkpt lat="45.54144" lon="6.61909">
        <ele>797.4000244</ele>
        <time>2013-07-27T04:32:20Z</time>
      </trkpt>
      <trkpt lat="45.54137" lon="6.61915">
        <ele>796</ele>
        <time>2013-07-27T04:32:27Z</time>
      </trkpt>
      <trkpt lat="45.54131" lon="6.61914">
        <ele>797.4000244</ele>
        <time>2013-07-27T04:32:32Z</time>
      </trkpt>
      <trkpt lat="45.54121" lon="6.61914">
        <ele>798.7999878</ele>
        <time>2013-07-27T04:32:37Z</time>
      </trkpt>
      <trkpt lat="45.54116" lon="6.61906">
        <ele>798.2000122</ele>
        <time>2013-07-27T04:32:42Z</time>
      </trkpt>
      <trkpt lat="45.5411" lon="6.61899">
        <ele>797.2000122</ele>
        <time>2013-07-27T04:32:49Z</time>
      </trkpt>
      <trkpt lat="45.54105" lon="6.61894">
        <ele>797.7999878</ele>
        <time>2013-07-27T04:32:54Z</time>
      </trkpt>
      <trkpt lat="45.541" lon="6.61885">
        <ele>798.7999878</ele>
        <time>2013-07-27T04:33:01Z</time>
      </trkpt>
      <trkpt lat="45.54097" lon="6.61877">
        <ele>799.7999878</ele>
        <time>2013-07-27T04:33:06Z</time>
      </trkpt>
      <trkpt lat="45.54096" lon="6.61866">
        <ele>801.2000122</ele>
        <time>2013-07-27T04:33:12Z</time>
      </trkpt>
      <trkpt lat="45.5409" lon="6.61856">
        <ele>803.5999756</ele>
        <time>2013-07-27T04:33:19Z</time>
      </trkpt>
      <trkpt lat="45.54089" lon="6.61847">
        <ele>805</ele>
        <time>2013-07-27T04:33:24Z</time>
      </trkpt>
      <trkpt lat="45.54086" lon="6.61837">
        <ele>806.2000122</ele>
        <time>2013-07-27T04:33:30Z</time>
      </trkpt>
      <trkpt lat="45.54079" lon="6.61828">
        <ele>807.7999878</ele>
        <time>2013-07-27T04:33:38Z</time>
      </trkpt>
      <trkpt lat="45.54076" lon="6.61819">
        <ele>810.5999756</ele>
        <time>2013-07-27T04:33:44Z</time>
      </trkpt>
      <trkpt lat="45.54071" lon="6.61808">
        <ele>814</ele>
        <time>2013-07-27T04:33:51Z</time>
      </trkpt>
      <trkpt lat="45.54064" lon="6.61801">
        <ele>815.7999878</ele>
        <time>2013-07-27T04:33:58Z</time>
      </trkpt>
      <trkpt lat="45.54059" lon="6.61793">
        <ele>818</ele>
        <time>2013-07-27T04:34:02Z</time>
      </trkpt>
      <trkpt lat="45.54055" lon="6.61782">
        <ele>819.4000244</ele>
        <time>2013-07-27T04:34:08Z</time>
      </trkpt>
      <trkpt lat="45.54049" lon="6.61773">
        <ele>821.7999878</ele>
        <time>2013-07-27T04:34:13Z</time>
      </trkpt>
      <trkpt lat="45.54041" lon="6.61766">
        <ele>826.7999878</ele>
        <time>2013-07-27T04:34:21Z</time>
      </trkpt>
      <trkpt lat="45.54041" lon="6.61754">
        <ele>829.4000244</ele>
        <time>2013-07-27T04:34:26Z</time>
      </trkpt>
      <trkpt lat="45.54043" lon="6.61745">
        <ele>830.4000244</ele>
        <time>2013-07-27T04:34:28Z</time>
      </trkpt>
      <trkpt lat="45.54043" lon="6.61732">
        <ele>832.4000244</ele>
        <time>2013-07-27T04:34:33Z</time>
      </trkpt>
      <trkpt lat="45.54042" lon="6.61721">
        <ele>833.4000244</ele>
        <time>2013-07-27T04:34:38Z</time>
      </trkpt>
      <trkpt lat="45.54037" lon="6.61695">
        <ele>834</ele>
        <time>2013-07-27T04:34:51Z</time>
      </trkpt>
      <trkpt lat="45.54035" lon="6.61682">
        <ele>835</ele>
        <time>2013-07-27T04:34:55Z</time>
      </trkpt>
      <trkpt lat="45.54032" lon="6.61671">
        <ele>836.2000122</ele>
        <time>2013-07-27T04:35:00Z</time>
      </trkpt>
      <trkpt lat="45.54026" lon="6.61648">
        <ele>836.2000122</ele>
        <time>2013-07-27T04:35:11Z</time>
      </trkpt>
      <trkpt lat="45.54023" lon="6.61638">
        <ele>836.5999756</ele>
        <time>2013-07-27T04:35:16Z</time>
      </trkpt>
      <trkpt lat="45.5402" lon="6.61625">
        <ele>834.2000122</ele>
        <time>2013-07-27T04:35:20Z</time>
      </trkpt>
      <trkpt lat="45.54017" lon="6.61613">
        <ele>831.2000122</ele>
        <time>2013-07-27T04:35:25Z</time>
      </trkpt>
      <trkpt lat="45.54013" lon="6.61601">
        <ele>829.2000122</ele>
        <time>2013-07-27T04:35:29Z</time>
      </trkpt>
      <trkpt lat="45.54007" lon="6.61595">
        <ele>829.4000244</ele>
        <time>2013-07-27T04:35:34Z</time>
      </trkpt>
      <trkpt lat="45.53998" lon="6.61595">
        <ele>830.5999756</ele>
        <time>2013-07-27T04:35:40Z</time>
      </trkpt>
      <trkpt lat="45.53989" lon="6.61591">
        <ele>834</ele>
        <time>2013-07-27T04:35:48Z</time>
      </trkpt>
      <trkpt lat="45.53983" lon="6.61588">
        <ele>835.2000122</ele>
        <time>2013-07-27T04:35:50Z</time>
      </trkpt>
      <trkpt lat="45.53977" lon="6.61582">
        <ele>836</ele>
        <time>2013-07-27T04:35:55Z</time>
      </trkpt>
      <trkpt lat="45.53968" lon="6.61575">
        <ele>837</ele>
        <time>2013-07-27T04:35:59Z</time>
      </trkpt>
      <trkpt lat="45.53962" lon="6.6157">
        <ele>837.4000244</ele>
        <time>2013-07-27T04:36:02Z</time>
      </trkpt>
      <trkpt lat="45.53957" lon="6.61564">
        <ele>838</ele>
        <time>2013-07-27T04:36:06Z</time>
      </trkpt>
      <trkpt lat="45.53953" lon="6.61557">
        <ele>838</ele>
        <time>2013-07-27T04:36:08Z</time>
      </trkpt>
      <trkpt lat="45.53946" lon="6.6155">
        <ele>836.7999878</ele>
        <time>2013-07-27T04:36:15Z</time>
      </trkpt>
      <trkpt lat="45.53938" lon="6.61546">
        <ele>836.5999756</ele>
        <time>2013-07-27T04:36:20Z</time>
      </trkpt>
      <trkpt lat="45.5393" lon="6.61537">
        <ele>837.2000122</ele>
        <time>2013-07-27T04:36:24Z</time>
      </trkpt>
      <trkpt lat="45.53925" lon="6.6153">
        <ele>837.5999756</ele>
        <time>2013-07-27T04:36:27Z</time>
      </trkpt>
      <trkpt lat="45.53918" lon="6.61519">
        <ele>838.4000244</ele>
        <time>2013-07-27T04:36:33Z</time>
      </trkpt>
      <trkpt lat="45.53912" lon="6.61512">
        <ele>839.4000244</ele>
        <time>2013-07-27T04:36:38Z</time>
      </trkpt>
      <trkpt lat="45.53906" lon="6.61503">
        <ele>839.2000122</ele>
        <time>2013-07-27T04:36:43Z</time>
      </trkpt>
      <trkpt lat="45.53899" lon="6.61494">
        <ele>838.2000122</ele>
        <time>2013-07-27T04:36:50Z</time>
      </trkpt>
      <trkpt lat="45.53888" lon="6.61492">
        <ele>838.2000122</ele>
        <time>2013-07-27T04:36:56Z</time>
      </trkpt>
      <trkpt lat="45.53875" lon="6.61493">
        <ele>839.4000244</ele>
        <time>2013-07-27T04:37:01Z</time>
      </trkpt>
      <trkpt lat="45.53868" lon="6.61491">
        <ele>840</ele>
        <time>2013-07-27T04:37:04Z</time>
      </trkpt>
      <trkpt lat="45.53859" lon="6.61486">
        <ele>841.2000122</ele>
        <time>2013-07-27T04:37:09Z</time>
      </trkpt>
      <trkpt lat="45.53852" lon="6.61484">
        <ele>842.7999878</ele>
        <time>2013-07-27T04:37:15Z</time>
      </trkpt>
      <trkpt lat="45.53844" lon="6.61476">
        <ele>845.2000122</ele>
        <time>2013-07-27T04:37:21Z</time>
      </trkpt>
      <trkpt lat="45.53838" lon="6.6147">
        <ele>846.2000122</ele>
        <time>2013-07-27T04:37:26Z</time>
      </trkpt>
      <trkpt lat="45.53832" lon="6.61462">
        <ele>847.4000244</ele>
        <time>2013-07-27T04:37:32Z</time>
      </trkpt>
      <trkpt lat="45.53828" lon="6.61454">
        <ele>848.4000244</ele>
        <time>2013-07-27T04:37:37Z</time>
      </trkpt>
      <trkpt lat="45.53825" lon="6.61444">
        <ele>850</ele>
        <time>2013-07-27T04:37:44Z</time>
      </trkpt>
      <trkpt lat="45.5382" lon="6.61434">
        <ele>851.5999756</ele>
        <time>2013-07-27T04:37:49Z</time>
      </trkpt>
      <trkpt lat="45.53813" lon="6.6143">
        <ele>852.4000244</ele>
        <time>2013-07-27T04:37:57Z</time>
      </trkpt>
      <trkpt lat="45.53809" lon="6.61439">
        <ele>849.4000244</ele>
        <time>2013-07-27T04:38:12Z</time>
      </trkpt>
      <trkpt lat="45.53805" lon="6.61446">
        <ele>849</ele>
        <time>2013-07-27T04:38:22Z</time>
      </trkpt>
      <trkpt lat="45.53805" lon="6.61457">
        <ele>850.4000244</ele>
        <time>2013-07-27T04:38:33Z</time>
      </trkpt>
      <trkpt lat="45.53806" lon="6.61467">
        <ele>851.7999878</ele>
        <time>2013-07-27T04:38:41Z</time>
      </trkpt>
      <trkpt lat="45.53808" lon="6.61476">
        <ele>852.7999878</ele>
        <time>2013-07-27T04:38:49Z</time>
      </trkpt>
      <trkpt lat="45.53809" lon="6.61486">
        <ele>854.4000244</ele>
        <time>2013-07-27T04:38:57Z</time>
      </trkpt>
      <trkpt lat="45.53809" lon="6.61498">
        <ele>857.7999878</ele>
        <time>2013-07-27T04:39:08Z</time>
      </trkpt>
      <trkpt lat="45.53811" lon="6.61506">
        <ele>862.5999756</ele>
        <time>2013-07-27T04:39:21Z</time>
      </trkpt>
      <trkpt lat="45.53814" lon="6.61514">
        <ele>863.2000122</ele>
        <time>2013-07-27T04:39:29Z</time>
      </trkpt>
      <trkpt lat="45.53818" lon="6.61522">
        <ele>866</ele>
        <time>2013-07-27T04:39:39Z</time>
      </trkpt>
      <trkpt lat="45.53824" lon="6.61527">
        <ele>870.5999756</ele>
        <time>2013-07-27T04:39:47Z</time>
      </trkpt>
      <trkpt lat="45.5383" lon="6.61533">
        <ele>875</ele>
        <time>2013-07-27T04:39:57Z</time>
      </trkpt>
      <trkpt lat="45.53835" lon="6.6154">
        <ele>874.5999756</ele>
        <time>2013-07-27T04:40:03Z</time>
      </trkpt>
      <trkpt lat="45.53837" lon="6.61549">
        <ele>872.2000122</ele>
        <time>2013-07-27T04:40:08Z</time>
      </trkpt>
      <trkpt lat="45.53841" lon="6.61562">
        <ele>868.5999756</ele>
        <time>2013-07-27T04:40:13Z</time>
      </trkpt>
      <trkpt lat="45.53844" lon="6.61571">
        <ele>867.7999878</ele>
        <time>2013-07-27T04:40:17Z</time>
      </trkpt>
      <trkpt lat="45.53847" lon="6.61581">
        <ele>871.7999878</ele>
        <time>2013-07-27T04:40:25Z</time>
      </trkpt>
      <trkpt lat="45.53851" lon="6.61588">
        <ele>873.5999756</ele>
        <time>2013-07-27T04:40:34Z</time>
      </trkpt>
      <trkpt lat="45.53852" lon="6.61598">
        <ele>872.4000244</ele>
        <time>2013-07-27T04:40:42Z</time>
      </trkpt>
      <trkpt lat="45.53857" lon="6.61605">
        <ele>875</ele>
        <time>2013-07-27T04:40:50Z</time>
      </trkpt>
      <trkpt lat="45.53861" lon="6.61615">
        <ele>876.7999878</ele>
        <time>2013-07-27T04:40:56Z</time>
      </trkpt>
      <trkpt lat="45.53865" lon="6.61623">
        <ele>880</ele>
        <time>2013-07-27T04:41:03Z</time>
      </trkpt>
      <trkpt lat="45.53869" lon="6.61632">
        <ele>884.5999756</ele>
        <time>2013-07-27T04:41:10Z</time>
      </trkpt>
      <trkpt lat="45.53872" lon="6.61642">
        <ele>885.5999756</ele>
        <time>2013-07-27T04:41:16Z</time>
      </trkpt>
      <trkpt lat="45.53872" lon="6.61654">
        <ele>882.7999878</ele>
        <time>2013-07-27T04:41:23Z</time>
      </trkpt>
      <trkpt lat="45.53868" lon="6.61659">
        <ele>887.7999878</ele>
        <time>2013-07-27T04:41:34Z</time>
      </trkpt>
      <trkpt lat="45.53859" lon="6.61658">
        <ele>894.5999756</ele>
        <time>2013-07-27T04:41:45Z</time>
      </trkpt>
      <trkpt lat="45.53853" lon="6.61655">
        <ele>897.5999756</ele>
        <time>2013-07-27T04:41:53Z</time>
      </trkpt>
      <trkpt lat="45.53849" lon="6.6165">
        <ele>905.5999756</ele>
        <time>2013-07-27T04:42:06Z</time>
      </trkpt>
      <trkpt lat="45.53844" lon="6.61644">
        <ele>913</ele>
        <time>2013-07-27T04:42:18Z</time>
      </trkpt>
      <trkpt lat="45.53837" lon="6.61642">
        <ele>916.7999878</ele>
        <time>2013-07-27T04:42:26Z</time>
      </trkpt>
      <trkpt lat="45.53832" lon="6.61635">
        <ele>919.5999756</ele>
        <time>2013-07-27T04:42:34Z</time>
      </trkpt>
      <trkpt lat="45.53825" lon="6.61634">
        <ele>926</ele>
        <time>2013-07-27T04:42:46Z</time>
      </trkpt>
      <trkpt lat="45.53819" lon="6.61628">
        <ele>926</ele>
        <time>2013-07-27T04:42:52Z</time>
      </trkpt>
      <trkpt lat="45.53814" lon="6.61619">
        <ele>927.4000244</ele>
        <time>2013-07-27T04:43:00Z</time>
      </trkpt>
      <trkpt lat="45.53807" lon="6.61614">
        <ele>930.4000244</ele>
        <time>2013-07-27T04:43:08Z</time>
      </trkpt>
      <trkpt lat="45.53803" lon="6.61604">
        <ele>931.7999878</ele>
        <time>2013-07-27T04:43:16Z</time>
      </trkpt>
      <trkpt lat="45.53801" lon="6.61597">
        <ele>934.2000122</ele>
        <time>2013-07-27T04:43:28Z</time>
      </trkpt>
      <trkpt lat="45.53796" lon="6.6159">
        <ele>934.7999878</ele>
        <time>2013-07-27T04:43:37Z</time>
      </trkpt>
      <trkpt lat="45.53789" lon="6.61589">
        <ele>935.4000244</ele>
        <time>2013-07-27T04:43:46Z</time>
      </trkpt>
      <trkpt lat="45.53783" lon="6.61589">
        <ele>936.4000244</ele>
        <time>2013-07-27T04:43:54Z</time>
      </trkpt>
      <trkpt lat="45.53774" lon="6.61585">
        <ele>937.7999878</ele>
        <time>2013-07-27T04:44:04Z</time>
      </trkpt>
      <trkpt lat="45.53768" lon="6.61585">
        <ele>938.7999878</ele>
        <time>2013-07-27T04:44:14Z</time>
      </trkpt>
      <trkpt lat="45.53764" lon="6.6159">
        <ele>939.4000244</ele>
        <time>2013-07-27T04:44:25Z</time>
      </trkpt>
      <trkpt lat="45.53754" lon="6.6159">
        <ele>940.5999756</ele>
        <time>2013-07-27T04:44:32Z</time>
      </trkpt>
      <trkpt lat="45.53747" lon="6.6159">
        <ele>945</ele>
        <time>2013-07-27T04:44:39Z</time>
      </trkpt>
      <trkpt lat="45.5374" lon="6.61591">
        <ele>952.7999878</ele>
        <time>2013-07-27T04:44:47Z</time>
      </trkpt>
      <trkpt lat="45.53734" lon="6.61589">
        <ele>954.5999756</ele>
        <time>2013-07-27T04:44:53Z</time>
      </trkpt>
      <trkpt lat="45.53727" lon="6.61587">
        <ele>954.7999878</ele>
        <time>2013-07-27T04:44:58Z</time>
      </trkpt>
      <trkpt lat="45.53719" lon="6.61585">
        <ele>955</ele>
        <time>2013-07-27T04:45:04Z</time>
      </trkpt>
      <trkpt lat="45.53712" lon="6.61586">
        <ele>955.4000244</ele>
        <time>2013-07-27T04:45:13Z</time>
      </trkpt>
      <trkpt lat="45.53705" lon="6.61583">
        <ele>956</ele>
        <time>2013-07-27T04:45:21Z</time>
      </trkpt>
      <trkpt lat="45.53696" lon="6.61584">
        <ele>958.2000122</ele>
        <time>2013-07-27T04:45:30Z</time>
      </trkpt>
      <trkpt lat="45.53689" lon="6.61582">
        <ele>960</ele>
        <time>2013-07-27T04:45:38Z</time>
      </trkpt>
      <trkpt lat="45.53682" lon="6.61582">
        <ele>962</ele>
        <time>2013-07-27T04:45:44Z</time>
      </trkpt>
      <trkpt lat="45.53677" lon="6.61584">
        <ele>966.2000122</ele>
        <time>2013-07-27T04:45:54Z</time>
      </trkpt>
      <trkpt lat="45.5367" lon="6.61585">
        <ele>969.4000244</ele>
        <time>2013-07-27T04:46:02Z</time>
      </trkpt>
      <trkpt lat="45.53663" lon="6.61589">
        <ele>970.4000244</ele>
        <time>2013-07-27T04:46:13Z</time>
      </trkpt>
      <trkpt lat="45.53653" lon="6.61585">
        <ele>970</ele>
        <time>2013-07-27T04:46:21Z</time>
      </trkpt>
      <trkpt lat="45.53645" lon="6.61583">
        <ele>970.7999878</ele>
        <time>2013-07-27T04:46:25Z</time>
      </trkpt>
      <trkpt lat="45.53638" lon="6.61584">
        <ele>978</ele>
        <time>2013-07-27T04:46:33Z</time>
      </trkpt>
      <trkpt lat="45.53629" lon="6.6158">
        <ele>984</ele>
        <time>2013-07-27T04:46:41Z</time>
      </trkpt>
      <trkpt lat="45.53624" lon="6.61582">
        <ele>985.4000244</ele>
        <time>2013-07-27T04:47:00Z</time>
      </trkpt>
      <trkpt lat="45.53627" lon="6.61591">
        <ele>989.4000244</ele>
        <time>2013-07-27T04:47:22Z</time>
      </trkpt>
      <trkpt lat="45.53633" lon="6.61594">
        <ele>996.7999878</ele>
        <time>2013-07-27T04:47:33Z</time>
      </trkpt>
      <trkpt lat="45.53639" lon="6.61599">
        <ele>999</ele>
        <time>2013-07-27T04:47:41Z</time>
      </trkpt>
      <trkpt lat="45.53645" lon="6.61607">
        <ele>999.7999878</ele>
        <time>2013-07-27T04:47:51Z</time>
      </trkpt>
      <trkpt lat="45.53651" lon="6.61609">
        <ele>1001.7999878</ele>
        <time>2013-07-27T04:47:59Z</time>
      </trkpt>
      <trkpt lat="45.53658" lon="6.61612">
        <ele>1002.4000244</ele>
        <time>2013-07-27T04:48:07Z</time>
      </trkpt>
      <trkpt lat="45.53664" lon="6.61619">
        <ele>1001.4000244</ele>
        <time>2013-07-27T04:48:15Z</time>
      </trkpt>
      <trkpt lat="45.5367" lon="6.61628">
        <ele>1002.4000244</ele>
        <time>2013-07-27T04:48:24Z</time>
      </trkpt>
      <trkpt lat="45.53677" lon="6.61635">
        <ele>1003.7999878</ele>
        <time>2013-07-27T04:48:31Z</time>
      </trkpt>
      <trkpt lat="45.53684" lon="6.61644">
        <ele>1006</ele>
        <time>2013-07-27T04:48:37Z</time>
      </trkpt>
      <trkpt lat="45.53688" lon="6.6165">
        <ele>1007.7999878</ele>
        <time>2013-07-27T04:48:42Z</time>
      </trkpt>
      <trkpt lat="45.53688" lon="6.6166">
        <ele>1009.4000244</ele>
        <time>2013-07-27T04:48:47Z</time>
      </trkpt>
      <trkpt lat="45.53688" lon="6.61671">
        <ele>1010.7999878</ele>
        <time>2013-07-27T04:48:53Z</time>
      </trkpt>
      <trkpt lat="45.53686" lon="6.61681">
        <ele>1010.5999756</ele>
        <time>2013-07-27T04:49:01Z</time>
      </trkpt>
      <trkpt lat="45.53686" lon="6.6169">
        <ele>1007</ele>
        <time>2013-07-27T04:49:08Z</time>
      </trkpt>
      <trkpt lat="45.53691" lon="6.61692">
        <ele>1006.2000122</ele>
        <time>2013-07-27T04:49:20Z</time>
      </trkpt>
      <trkpt lat="45.53694" lon="6.617">
        <ele>1007.2000122</ele>
        <time>2013-07-27T04:49:26Z</time>
      </trkpt>
      <trkpt lat="45.53695" lon="6.6171">
        <ele>1005.4000244</ele>
        <time>2013-07-27T04:49:30Z</time>
      </trkpt>
      <trkpt lat="45.53699" lon="6.61717">
        <ele>1003.2000122</ele>
        <time>2013-07-27T04:49:37Z</time>
      </trkpt>
      <trkpt lat="45.53703" lon="6.61722">
        <ele>1007.7999878</ele>
        <time>2013-07-27T04:49:48Z</time>
      </trkpt>
      <trkpt lat="45.53709" lon="6.61727">
        <ele>1013.4000244</ele>
        <time>2013-07-27T04:49:58Z</time>
      </trkpt>
      <trkpt lat="45.53712" lon="6.61735">
        <ele>1017.5999756</ele>
        <time>2013-07-27T04:50:05Z</time>
      </trkpt>
      <trkpt lat="45.53714" lon="6.61744">
        <ele>1021.2000122</ele>
        <time>2013-07-27T04:50:13Z</time>
      </trkpt>
      <trkpt lat="45.53708" lon="6.61751">
        <ele>1023.7999878</ele>
        <time>2013-07-27T04:50:21Z</time>
      </trkpt>
      <trkpt lat="45.53703" lon="6.61758">
        <ele>1026.8000488</ele>
        <time>2013-07-27T04:50:31Z</time>
      </trkpt>
      <trkpt lat="45.53697" lon="6.61762">
        <ele>1029</ele>
        <time>2013-07-27T04:50:39Z</time>
      </trkpt>
      <trkpt lat="45.53692" lon="6.6177">
        <ele>1031.5999756</ele>
        <time>2013-07-27T04:50:57Z</time>
      </trkpt>
      <trkpt lat="45.53691" lon="6.6178">
        <ele>1035.4000244</ele>
        <time>2013-07-27T04:51:14Z</time>
      </trkpt>
      <trkpt lat="45.53696" lon="6.61786">
        <ele>1042</ele>
        <time>2013-07-27T04:51:27Z</time>
      </trkpt>
      <trkpt lat="45.53701" lon="6.61793">
        <ele>1049.4000244</ele>
        <time>2013-07-27T04:51:38Z</time>
      </trkpt>
      <trkpt lat="45.53707" lon="6.61802">
        <ele>1055</ele>
        <time>2013-07-27T04:51:50Z</time>
      </trkpt>
      <trkpt lat="45.53711" lon="6.6181">
        <ele>1056</ele>
        <time>2013-07-27T04:51:58Z</time>
      </trkpt>
      <trkpt lat="45.53715" lon="6.61821">
        <ele>1054.8000488</ele>
        <time>2013-07-27T04:52:07Z</time>
      </trkpt>
      <trkpt lat="45.53719" lon="6.61828">
        <ele>1055.1999512</ele>
        <time>2013-07-27T04:52:15Z</time>
      </trkpt>
      <trkpt lat="45.53723" lon="6.61834">
        <ele>1057.4000244</ele>
        <time>2013-07-27T04:52:27Z</time>
      </trkpt>
      <trkpt lat="45.53725" lon="6.61845">
        <ele>1059.1999512</ele>
        <time>2013-07-27T04:52:33Z</time>
      </trkpt>
      <trkpt lat="45.53726" lon="6.61856">
        <ele>1060.4000244</ele>
        <time>2013-07-27T04:52:40Z</time>
      </trkpt>
      <trkpt lat="45.53728" lon="6.61867">
        <ele>1057.1999512</ele>
        <time>2013-07-27T04:52:47Z</time>
      </trkpt>
      <trkpt lat="45.5373" lon="6.61878">
        <ele>1053.1999512</ele>
        <time>2013-07-27T04:52:52Z</time>
      </trkpt>
      <trkpt lat="45.53732" lon="6.61888">
        <ele>1050.4000244</ele>
        <time>2013-07-27T04:52:58Z</time>
      </trkpt>
      <trkpt lat="45.53736" lon="6.619">
        <ele>1053.1999512</ele>
        <time>2013-07-27T04:53:06Z</time>
      </trkpt>
      <trkpt lat="45.53741" lon="6.61908">
        <ele>1057.5999756</ele>
        <time>2013-07-27T04:53:16Z</time>
      </trkpt>
      <trkpt lat="45.53748" lon="6.61912">
        <ele>1064.5999756</ele>
        <time>2013-07-27T04:53:25Z</time>
      </trkpt>
      <trkpt lat="45.53754" lon="6.6192">
        <ele>1066.8000488</ele>
        <time>2013-07-27T04:53:34Z</time>
      </trkpt>
      <trkpt lat="45.53758" lon="6.61933">
        <ele>1070.8000488</ele>
        <time>2013-07-27T04:53:42Z</time>
      </trkpt>
      <trkpt lat="45.53762" lon="6.6194">
        <ele>1075</ele>
        <time>2013-07-27T04:53:47Z</time>
      </trkpt>
      <trkpt lat="45.53766" lon="6.61949">
        <ele>1079</ele>
        <time>2013-07-27T04:53:54Z</time>
      </trkpt>
      <trkpt lat="45.53767" lon="6.61958">
        <ele>1079.8000488</ele>
        <time>2013-07-27T04:54:01Z</time>
      </trkpt>
      <trkpt lat="45.53769" lon="6.61968">
        <ele>1079.1999512</ele>
        <time>2013-07-27T04:54:07Z</time>
      </trkpt>
      <trkpt lat="45.53769" lon="6.61978">
        <ele>1079</ele>
        <time>2013-07-27T04:54:15Z</time>
      </trkpt>
      <trkpt lat="45.53772" lon="6.61988">
        <ele>1081.4000244</ele>
        <time>2013-07-27T04:54:23Z</time>
      </trkpt>
      <trkpt lat="45.53775" lon="6.61996">
        <ele>1084</ele>
        <time>2013-07-27T04:54:31Z</time>
      </trkpt>
      <trkpt lat="45.53778" lon="6.62004">
        <ele>1084.4000244</ele>
        <time>2013-07-27T04:54:38Z</time>
      </trkpt>
      <trkpt lat="45.53782" lon="6.62014">
        <ele>1085.1999512</ele>
        <time>2013-07-27T04:54:47Z</time>
      </trkpt>
      <trkpt lat="45.53786" lon="6.62022">
        <ele>1091.4000244</ele>
        <time>2013-07-27T04:54:58Z</time>
      </trkpt>
      <trkpt lat="45.53791" lon="6.62028">
        <ele>1095.8000488</ele>
        <time>2013-07-27T04:55:08Z</time>
      </trkpt>
      <trkpt lat="45.53797" lon="6.62037">
        <ele>1097.4000244</ele>
        <time>2013-07-27T04:55:18Z</time>
      </trkpt>
      <trkpt lat="45.53801" lon="6.62046">
        <ele>1100.1999512</ele>
        <time>2013-07-27T04:55:27Z</time>
      </trkpt>
      <trkpt lat="45.53806" lon="6.62052">
        <ele>1102.8000488</ele>
        <time>2013-07-27T04:55:34Z</time>
      </trkpt>
      <trkpt lat="45.53812" lon="6.62058">
        <ele>1103.8000488</ele>
        <time>2013-07-27T04:55:43Z</time>
      </trkpt>
      <trkpt lat="45.53818" lon="6.62064">
        <ele>1104.5999756</ele>
        <time>2013-07-27T04:55:50Z</time>
      </trkpt>
      <trkpt lat="45.53822" lon="6.62072">
        <ele>1107</ele>
        <time>2013-07-27T04:55:58Z</time>
      </trkpt>
      <trkpt lat="45.53826" lon="6.62085">
        <ele>1106.8000488</ele>
        <time>2013-07-27T04:56:06Z</time>
      </trkpt>
      <trkpt lat="45.53828" lon="6.62097">
        <ele>1106.5999756</ele>
        <time>2013-07-27T04:56:14Z</time>
      </trkpt>
      <trkpt lat="45.53831" lon="6.62105">
        <ele>1109</ele>
        <time>2013-07-27T04:56:21Z</time>
      </trkpt>
      <trkpt lat="45.53833" lon="6.62115">
        <ele>1110.5999756</ele>
        <time>2013-07-27T04:56:29Z</time>
      </trkpt>
      <trkpt lat="45.53836" lon="6.62127">
        <ele>1112</ele>
        <time>2013-07-27T04:56:38Z</time>
      </trkpt>
      <trkpt lat="45.53839" lon="6.62135">
        <ele>1113.8000488</ele>
        <time>2013-07-27T04:56:44Z</time>
      </trkpt>
      <trkpt lat="45.5384" lon="6.62148">
        <ele>1114.5999756</ele>
        <time>2013-07-27T04:56:52Z</time>
      </trkpt>
      <trkpt lat="45.53843" lon="6.62155">
        <ele>1115</ele>
        <time>2013-07-27T04:57:00Z</time>
      </trkpt>
      <trkpt lat="45.53844" lon="6.62165">
        <ele>1115.5999756</ele>
        <time>2013-07-27T04:57:07Z</time>
      </trkpt>
      <trkpt lat="45.53844" lon="6.62178">
        <ele>1116.8000488</ele>
        <time>2013-07-27T04:57:15Z</time>
      </trkpt>
      <trkpt lat="45.53845" lon="6.62187">
        <ele>1118.4000244</ele>
        <time>2013-07-27T04:57:22Z</time>
      </trkpt>
      <trkpt lat="45.53847" lon="6.62195">
        <ele>1120</ele>
        <time>2013-07-27T04:57:29Z</time>
      </trkpt>
      <trkpt lat="45.53849" lon="6.62205">
        <ele>1123.1999512</ele>
        <time>2013-07-27T04:57:38Z</time>
      </trkpt>
      <trkpt lat="45.53849" lon="6.62215">
        <ele>1127.1999512</ele>
        <time>2013-07-27T04:57:46Z</time>
      </trkpt>
      <trkpt lat="45.53851" lon="6.62226">
        <ele>1129.4000244</ele>
        <time>2013-07-27T04:57:54Z</time>
      </trkpt>
      <trkpt lat="45.5385" lon="6.62237">
        <ele>1131</ele>
        <time>2013-07-27T04:58:02Z</time>
      </trkpt>
      <trkpt lat="45.53851" lon="6.62247">
        <ele>1133.4000244</ele>
        <time>2013-07-27T04:58:09Z</time>
      </trkpt>
      <trkpt lat="45.53851" lon="6.62257">
        <ele>1136</ele>
        <time>2013-07-27T04:58:15Z</time>
      </trkpt>
      <trkpt lat="45.53855" lon="6.62267">
        <ele>1137.8000488</ele>
        <time>2013-07-27T04:58:23Z</time>
      </trkpt>
      <trkpt lat="45.53858" lon="6.62277">
        <ele>1140.4000244</ele>
        <time>2013-07-27T04:58:31Z</time>
      </trkpt>
      <trkpt lat="45.53862" lon="6.62285">
        <ele>1141.8000488</ele>
        <time>2013-07-27T04:58:36Z</time>
      </trkpt>
      <trkpt lat="45.53868" lon="6.62294">
        <ele>1142.4000244</ele>
        <time>2013-07-27T04:58:42Z</time>
      </trkpt>
      <trkpt lat="45.53871" lon="6.62304">
        <ele>1143.1999512</ele>
        <time>2013-07-27T04:58:47Z</time>
      </trkpt>
      <trkpt lat="45.53873" lon="6.62315">
        <ele>1143.1999512</ele>
        <time>2013-07-27T04:58:52Z</time>
      </trkpt>
      <trkpt lat="45.53875" lon="6.62324">
        <ele>1142.5999756</ele>
        <time>2013-07-27T04:58:57Z</time>
      </trkpt>
      <trkpt lat="45.53881" lon="6.62336">
        <ele>1143.1999512</ele>
        <time>2013-07-27T04:59:04Z</time>
      </trkpt>
      <trkpt lat="45.53886" lon="6.62343">
        <ele>1144.4000244</ele>
        <time>2013-07-27T04:59:09Z</time>
      </trkpt>
      <trkpt lat="45.53891" lon="6.62351">
        <ele>1145.8000488</ele>
        <time>2013-07-27T04:59:14Z</time>
      </trkpt>
      <trkpt lat="45.53896" lon="6.62362">
        <ele>1147.4000244</ele>
        <time>2013-07-27T04:59:21Z</time>
      </trkpt>
      <trkpt lat="45.53899" lon="6.6237">
        <ele>1148.8000488</ele>
        <time>2013-07-27T04:59:26Z</time>
      </trkpt>
      <trkpt lat="45.53901" lon="6.62379">
        <ele>1150.1999512</ele>
        <time>2013-07-27T04:59:31Z</time>
      </trkpt>
      <trkpt lat="45.53904" lon="6.62396">
        <ele>1150.4000244</ele>
        <time>2013-07-27T04:59:39Z</time>
      </trkpt>
      <trkpt lat="45.53904" lon="6.62409">
        <ele>1148.4000244</ele>
        <time>2013-07-27T04:59:44Z</time>
      </trkpt>
      <trkpt lat="45.53904" lon="6.62422">
        <ele>1146</ele>
        <time>2013-07-27T04:59:49Z</time>
      </trkpt>
      <trkpt lat="45.53904" lon="6.62434">
        <ele>1144.5999756</ele>
        <time>2013-07-27T04:59:54Z</time>
      </trkpt>
      <trkpt lat="45.53905" lon="6.62444">
        <ele>1145</ele>
        <time>2013-07-27T04:59:59Z</time>
      </trkpt>
      <trkpt lat="45.53905" lon="6.62454">
        <ele>1146.1999512</ele>
        <time>2013-07-27T05:00:04Z</time>
      </trkpt>
      <trkpt lat="45.53904" lon="6.62465">
        <ele>1147.4000244</ele>
        <time>2013-07-27T05:00:10Z</time>
      </trkpt>
      <trkpt lat="45.53899" lon="6.62487">
        <ele>1147.5999756</ele>
        <time>2013-07-27T05:00:21Z</time>
      </trkpt>
      <trkpt lat="45.53895" lon="6.62498">
        <ele>1148.5999756</ele>
        <time>2013-07-27T05:00:27Z</time>
      </trkpt>
      <trkpt lat="45.53894" lon="6.62512">
        <ele>1150.1999512</ele>
        <time>2013-07-27T05:00:35Z</time>
      </trkpt>
      <trkpt lat="45.53897" lon="6.62525">
        <ele>1151.4000244</ele>
        <time>2013-07-27T05:00:43Z</time>
      </trkpt>
      <trkpt lat="45.53899" lon="6.62536">
        <ele>1153.8000488</ele>
        <time>2013-07-27T05:00:50Z</time>
      </trkpt>
      <trkpt lat="45.53901" lon="6.62546">
        <ele>1154.1999512</ele>
        <time>2013-07-27T05:00:55Z</time>
      </trkpt>
      <trkpt lat="45.53895" lon="6.62554">
        <ele>1154.4000244</ele>
        <time>2013-07-27T05:01:01Z</time>
      </trkpt>
      <trkpt lat="45.53889" lon="6.6256">
        <ele>1154.8000488</ele>
        <time>2013-07-27T05:01:06Z</time>
      </trkpt>
      <trkpt lat="45.53885" lon="6.62569">
        <ele>1156</ele>
        <time>2013-07-27T05:01:12Z</time>
      </trkpt>
      <trkpt lat="45.53881" lon="6.62579">
        <ele>1158.1999512</ele>
        <time>2013-07-27T05:01:19Z</time>
      </trkpt>
      <trkpt lat="45.53878" lon="6.62586">
        <ele>1159.8000488</ele>
        <time>2013-07-27T05:01:24Z</time>
      </trkpt>
      <trkpt lat="45.53875" lon="6.62596">
        <ele>1161.4000244</ele>
        <time>2013-07-27T05:01:32Z</time>
      </trkpt>
      <trkpt lat="45.53871" lon="6.62597">
        <ele>1161.1999512</ele>
        <time>2013-07-27T05:01:40Z</time>
      </trkpt>
      <trkpt lat="45.5387" lon="6.6258">
        <ele>1160.4000244</ele>
        <time>2013-07-27T05:01:46Z</time>
      </trkpt>
      <trkpt lat="45.53871" lon="6.62567">
        <ele>1160.1999512</ele>
        <time>2013-07-27T05:01:50Z</time>
      </trkpt>
      <trkpt lat="45.5387" lon="6.62554">
        <ele>1161.5999756</ele>
        <time>2013-07-27T05:01:55Z</time>
      </trkpt>
      <trkpt lat="45.53862" lon="6.62549">
        <ele>1164.1999512</ele>
        <time>2013-07-27T05:02:01Z</time>
      </trkpt>
      <trkpt lat="45.53856" lon="6.62546">
        <ele>1167</ele>
        <time>2013-07-27T05:02:06Z</time>
      </trkpt>
      <trkpt lat="45.53853" lon="6.62554">
        <ele>1169.5999756</ele>
        <time>2013-07-27T05:02:35Z</time>
      </trkpt>
      <trkpt lat="45.53848" lon="6.6256">
        <ele>1170.5999756</ele>
        <time>2013-07-27T05:02:40Z</time>
      </trkpt>
      <trkpt lat="45.53845" lon="6.62568">
        <ele>1171</ele>
        <time>2013-07-27T05:02:45Z</time>
      </trkpt>
      <trkpt lat="45.53845" lon="6.62578">
        <ele>1170.8000488</ele>
        <time>2013-07-27T05:02:51Z</time>
      </trkpt>
      <trkpt lat="45.53847" lon="6.62587">
        <ele>1171</ele>
        <time>2013-07-27T05:02:55Z</time>
      </trkpt>
      <trkpt lat="45.53849" lon="6.62596">
        <ele>1171.5999756</ele>
        <time>2013-07-27T05:03:00Z</time>
      </trkpt>
      <trkpt lat="45.53849" lon="6.62605">
        <ele>1172.1999512</ele>
        <time>2013-07-27T05:03:05Z</time>
      </trkpt>
      <trkpt lat="45.53848" lon="6.62616">
        <ele>1172.8000488</ele>
        <time>2013-07-27T05:03:11Z</time>
      </trkpt>
      <trkpt lat="45.53846" lon="6.62627">
        <ele>1174</ele>
        <time>2013-07-27T05:03:15Z</time>
      </trkpt>
      <trkpt lat="45.53845" lon="6.62639">
        <ele>1174.8000488</ele>
        <time>2013-07-27T05:03:21Z</time>
      </trkpt>
      <trkpt lat="45.53835" lon="6.62648">
        <ele>1175</ele>
        <time>2013-07-27T05:03:27Z</time>
      </trkpt>
      <trkpt lat="45.53827" lon="6.62658">
        <ele>1175.5999756</ele>
        <time>2013-07-27T05:03:32Z</time>
      </trkpt>
      <trkpt lat="45.53818" lon="6.62664">
        <ele>1177</ele>
        <time>2013-07-27T05:03:37Z</time>
      </trkpt>
      <trkpt lat="45.5381" lon="6.62668">
        <ele>1179</ele>
        <time>2013-07-27T05:03:41Z</time>
      </trkpt>
      <trkpt lat="45.53803" lon="6.62669">
        <ele>1179.8000488</ele>
        <time>2013-07-27T05:03:45Z</time>
      </trkpt>
      <trkpt lat="45.53793" lon="6.62672">
        <ele>1180.8000488</ele>
        <time>2013-07-27T05:03:49Z</time>
      </trkpt>
      <trkpt lat="45.53786" lon="6.62675">
        <ele>1181</ele>
        <time>2013-07-27T05:03:52Z</time>
      </trkpt>
      <trkpt lat="45.5378" lon="6.62679">
        <ele>1181.5999756</ele>
        <time>2013-07-27T05:03:55Z</time>
      </trkpt>
      <trkpt lat="45.53771" lon="6.62684">
        <ele>1183.1999512</ele>
        <time>2013-07-27T05:03:59Z</time>
      </trkpt>
      <trkpt lat="45.53765" lon="6.62688">
        <ele>1184.4000244</ele>
        <time>2013-07-27T05:04:02Z</time>
      </trkpt>
      <trkpt lat="45.53757" lon="6.62694">
        <ele>1185.4000244</ele>
        <time>2013-07-27T05:04:06Z</time>
      </trkpt>
      <trkpt lat="45.53751" lon="6.62699">
        <ele>1185.4000244</ele>
        <time>2013-07-27T05:04:09Z</time>
      </trkpt>
      <trkpt lat="45.53743" lon="6.62705">
        <ele>1184.1999512</ele>
        <time>2013-07-27T05:04:13Z</time>
      </trkpt>
      <trkpt lat="45.53737" lon="6.62717">
        <ele>1184</ele>
        <time>2013-07-27T05:04:19Z</time>
      </trkpt>
      <trkpt lat="45.53731" lon="6.62724">
        <ele>1184.8000488</ele>
        <time>2013-07-27T05:04:21Z</time>
      </trkpt>
      <trkpt lat="45.53721" lon="6.62734">
        <ele>1185.5999756</ele>
        <time>2013-07-27T05:04:26Z</time>
      </trkpt>
      <trkpt lat="45.53718" lon="6.62744">
        <ele>1184.5999756</ele>
        <time>2013-07-27T05:04:31Z</time>
      </trkpt>
      <trkpt lat="45.53722" lon="6.62751">
        <ele>1183</ele>
        <time>2013-07-27T05:04:34Z</time>
      </trkpt>
      <trkpt lat="45.53728" lon="6.62768">
        <ele>1180.5999756</ele>
        <time>2013-07-27T05:04:39Z</time>
      </trkpt>
      <trkpt lat="45.53731" lon="6.62782">
        <ele>1179.5999756</ele>
        <time>2013-07-27T05:04:44Z</time>
      </trkpt>
      <trkpt lat="45.53724" lon="6.62795">
        <ele>1180.1999512</ele>
        <time>2013-07-27T05:04:50Z</time>
      </trkpt>
      <trkpt lat="45.53714" lon="6.62805">
        <ele>1181.1999512</ele>
        <time>2013-07-27T05:04:54Z</time>
      </trkpt>
      <trkpt lat="45.53704" lon="6.62813">
        <ele>1180.5999756</ele>
        <time>2013-07-27T05:04:59Z</time>
      </trkpt>
      <trkpt lat="45.53698" lon="6.62815">
        <ele>1180</ele>
        <time>2013-07-27T05:05:02Z</time>
      </trkpt>
      <trkpt lat="45.53692" lon="6.62819">
        <ele>1179.4000244</ele>
        <time>2013-07-27T05:05:06Z</time>
      </trkpt>
      <trkpt lat="45.53685" lon="6.62821">
        <ele>1179.5999756</ele>
        <time>2013-07-27T05:05:11Z</time>
      </trkpt>
      <trkpt lat="45.53677" lon="6.62818">
        <ele>1179.5999756</ele>
        <time>2013-07-27T05:05:16Z</time>
      </trkpt>
      <trkpt lat="45.53669" lon="6.62814">
        <ele>1179.5999756</ele>
        <time>2013-07-27T05:05:22Z</time>
      </trkpt>
      <trkpt lat="45.53662" lon="6.6281">
        <ele>1180</ele>
        <time>2013-07-27T05:05:28Z</time>
      </trkpt>
      <trkpt lat="45.53654" lon="6.62812">
        <ele>1181.8000488</ele>
        <time>2013-07-27T05:05:34Z</time>
      </trkpt>
      <trkpt lat="45.53647" lon="6.62816">
        <ele>1183.5999756</ele>
        <time>2013-07-27T05:05:40Z</time>
      </trkpt>
      <trkpt lat="45.53639" lon="6.62819">
        <ele>1185.8000488</ele>
        <time>2013-07-27T05:05:49Z</time>
      </trkpt>
      <trkpt lat="45.53634" lon="6.62818">
        <ele>1186</ele>
        <time>2013-07-27T05:05:56Z</time>
      </trkpt>
      <trkpt lat="45.53635" lon="6.62827">
        <ele>1186.5999756</ele>
        <time>2013-07-27T05:06:00Z</time>
      </trkpt>
      <trkpt lat="45.53638" lon="6.62838">
        <ele>1188.1999512</ele>
        <time>2013-07-27T05:06:07Z</time>
      </trkpt>
      <trkpt lat="45.5364" lon="6.62847">
        <ele>1189.5999756</ele>
        <time>2013-07-27T05:06:14Z</time>
      </trkpt>
      <trkpt lat="45.5364" lon="6.6286">
        <ele>1189.8000488</ele>
        <time>2013-07-27T05:06:21Z</time>
      </trkpt>
      <trkpt lat="45.53641" lon="6.62872">
        <ele>1188.8000488</ele>
        <time>2013-07-27T05:06:30Z</time>
      </trkpt>
      <trkpt lat="45.53644" lon="6.62888">
        <ele>1188.8000488</ele>
        <time>2013-07-27T05:06:38Z</time>
      </trkpt>
      <trkpt lat="45.53646" lon="6.62899">
        <ele>1189.4000244</ele>
        <time>2013-07-27T05:06:45Z</time>
      </trkpt>
      <trkpt lat="45.5365" lon="6.62907">
        <ele>1195.1999512</ele>
        <time>2013-07-27T05:07:10Z</time>
      </trkpt>
      <trkpt lat="45.53651" lon="6.62916">
        <ele>1197.4000244</ele>
        <time>2013-07-27T05:07:15Z</time>
      </trkpt>
      <trkpt lat="45.53652" lon="6.62925">
        <ele>1198.1999512</ele>
        <time>2013-07-27T05:07:20Z</time>
      </trkpt>
      <trkpt lat="45.53653" lon="6.62937">
        <ele>1198.5999756</ele>
        <time>2013-07-27T05:07:27Z</time>
      </trkpt>
      <trkpt lat="45.53653" lon="6.62949">
        <ele>1198.8000488</ele>
        <time>2013-07-27T05:07:34Z</time>
      </trkpt>
      <trkpt lat="45.53658" lon="6.62959">
        <ele>1200.4000244</ele>
        <time>2013-07-27T05:07:40Z</time>
      </trkpt>
      <trkpt lat="45.53661" lon="6.6297">
        <ele>1201.5999756</ele>
        <time>2013-07-27T05:07:48Z</time>
      </trkpt>
      <trkpt lat="45.53664" lon="6.62982">
        <ele>1202.5999756</ele>
        <time>2013-07-27T05:07:55Z</time>
      </trkpt>
      <trkpt lat="45.53667" lon="6.62995">
        <ele>1205.1999512</ele>
        <time>2013-07-27T05:08:03Z</time>
      </trkpt>
      <trkpt lat="45.53669" lon="6.6301">
        <ele>1206.5999756</ele>
        <time>2013-07-27T05:08:10Z</time>
      </trkpt>
      <trkpt lat="45.5367" lon="6.6302">
        <ele>1206.4000244</ele>
        <time>2013-07-27T05:08:15Z</time>
      </trkpt>
      <trkpt lat="45.53671" lon="6.63029">
        <ele>1206.8000488</ele>
        <time>2013-07-27T05:08:22Z</time>
      </trkpt>
      <trkpt lat="45.53677" lon="6.63036">
        <ele>1209</ele>
        <time>2013-07-27T05:08:27Z</time>
      </trkpt>
      <trkpt lat="45.53678" lon="6.63046">
        <ele>1210.4000244</ele>
        <time>2013-07-27T05:08:32Z</time>
      </trkpt>
      <trkpt lat="45.53679" lon="6.63059">
        <ele>1209.5999756</ele>
        <time>2013-07-27T05:08:39Z</time>
      </trkpt>
      <trkpt lat="45.53681" lon="6.63068">
        <ele>1209.4000244</ele>
        <time>2013-07-27T05:08:45Z</time>
      </trkpt>
      <trkpt lat="45.53684" lon="6.63079">
        <ele>1210.4000244</ele>
        <time>2013-07-27T05:08:52Z</time>
      </trkpt>
      <trkpt lat="45.53688" lon="6.63092">
        <ele>1212</ele>
        <time>2013-07-27T05:08:59Z</time>
      </trkpt>
      <trkpt lat="45.5369" lon="6.631">
        <ele>1213.8000488</ele>
        <time>2013-07-27T05:09:05Z</time>
      </trkpt>
      <trkpt lat="45.53691" lon="6.63111">
        <ele>1215.5999756</ele>
        <time>2013-07-27T05:09:10Z</time>
      </trkpt>
      <trkpt lat="45.53693" lon="6.63122">
        <ele>1217.8000488</ele>
        <time>2013-07-27T05:09:17Z</time>
      </trkpt>
      <trkpt lat="45.53695" lon="6.63134">
        <ele>1218.8000488</ele>
        <time>2013-07-27T05:09:24Z</time>
      </trkpt>
      <trkpt lat="45.53698" lon="6.63146">
        <ele>1220.8000488</ele>
        <time>2013-07-27T05:09:31Z</time>
      </trkpt>
      <trkpt lat="45.53701" lon="6.63157">
        <ele>1223.5999756</ele>
        <time>2013-07-27T05:09:38Z</time>
      </trkpt>
      <trkpt lat="45.53703" lon="6.63168">
        <ele>1224.5999756</ele>
        <time>2013-07-27T05:09:44Z</time>
      </trkpt>
      <trkpt lat="45.53704" lon="6.63178">
        <ele>1225.5999756</ele>
        <time>2013-07-27T05:09:49Z</time>
      </trkpt>
      <trkpt lat="45.53706" lon="6.63187">
        <ele>1226</ele>
        <time>2013-07-27T05:09:53Z</time>
      </trkpt>
      <trkpt lat="45.53707" lon="6.63197">
        <ele>1226.4000244</ele>
        <time>2013-07-27T05:09:58Z</time>
      </trkpt>
      <trkpt lat="45.53708" lon="6.63208">
        <ele>1226.8000488</ele>
        <time>2013-07-27T05:10:04Z</time>
      </trkpt>
      <trkpt lat="45.53708" lon="6.63221">
        <ele>1226.8000488</ele>
        <time>2013-07-27T05:10:11Z</time>
      </trkpt>
      <trkpt lat="45.53712" lon="6.63234">
        <ele>1227</ele>
        <time>2013-07-27T05:10:19Z</time>
      </trkpt>
      <trkpt lat="45.53711" lon="6.63246">
        <ele>1227.5999756</ele>
        <time>2013-07-27T05:10:25Z</time>
      </trkpt>
      <trkpt lat="45.53712" lon="6.63255">
        <ele>1228.8000488</ele>
        <time>2013-07-27T05:10:30Z</time>
      </trkpt>
      <trkpt lat="45.53715" lon="6.63264">
        <ele>1230.1999512</ele>
        <time>2013-07-27T05:10:36Z</time>
      </trkpt>
      <trkpt lat="45.53717" lon="6.63276">
        <ele>1232.1999512</ele>
        <time>2013-07-27T05:10:44Z</time>
      </trkpt>
      <trkpt lat="45.53719" lon="6.63285">
        <ele>1234.4000244</ele>
        <time>2013-07-27T05:10:51Z</time>
      </trkpt>
      <trkpt lat="45.53722" lon="6.63297">
        <ele>1236</ele>
        <time>2013-07-27T05:10:58Z</time>
      </trkpt>
      <trkpt lat="45.53722" lon="6.63308">
        <ele>1237</ele>
        <time>2013-07-27T05:11:03Z</time>
      </trkpt>
      <trkpt lat="45.53723" lon="6.63317">
        <ele>1238.1999512</ele>
        <time>2013-07-27T05:11:08Z</time>
      </trkpt>
      <trkpt lat="45.53722" lon="6.63327">
        <ele>1239.4000244</ele>
        <time>2013-07-27T05:11:13Z</time>
      </trkpt>
      <trkpt lat="45.53718" lon="6.63336">
        <ele>1239.8000488</ele>
        <time>2013-07-27T05:11:18Z</time>
      </trkpt>
      <trkpt lat="45.53711" lon="6.63335">
        <ele>1239.1999512</ele>
        <time>2013-07-27T05:11:22Z</time>
      </trkpt>
      <trkpt lat="45.53706" lon="6.63329">
        <ele>1238</ele>
        <time>2013-07-27T05:11:27Z</time>
      </trkpt>
      <trkpt lat="45.53703" lon="6.63321">
        <ele>1239</ele>
        <time>2013-07-27T05:11:33Z</time>
      </trkpt>
      <trkpt lat="45.53698" lon="6.63307">
        <ele>1239.5999756</ele>
        <time>2013-07-27T05:11:41Z</time>
      </trkpt>
      <trkpt lat="45.53695" lon="6.63298">
        <ele>1237.1999512</ele>
        <time>2013-07-27T05:11:46Z</time>
      </trkpt>
      <trkpt lat="45.53693" lon="6.63288">
        <ele>1235.4000244</ele>
        <time>2013-07-27T05:11:50Z</time>
      </trkpt>
      <trkpt lat="45.5369" lon="6.63277">
        <ele>1235.8000488</ele>
        <time>2013-07-27T05:11:57Z</time>
      </trkpt>
      <trkpt lat="45.53687" lon="6.63266">
        <ele>1236.1999512</ele>
        <time>2013-07-27T05:12:02Z</time>
      </trkpt>
      <trkpt lat="45.53682" lon="6.63255">
        <ele>1238.1999512</ele>
        <time>2013-07-27T05:12:11Z</time>
      </trkpt>
      <trkpt lat="45.53678" lon="6.63247">
        <ele>1240.5999756</ele>
        <time>2013-07-27T05:12:15Z</time>
      </trkpt>
      <trkpt lat="45.53675" lon="6.63239">
        <ele>1243.8000488</ele>
        <time>2013-07-27T05:12:22Z</time>
      </trkpt>
      <trkpt lat="45.53668" lon="6.63234">
        <ele>1246.1999512</ele>
        <time>2013-07-27T05:12:28Z</time>
      </trkpt>
      <trkpt lat="45.53662" lon="6.6323">
        <ele>1248.4000244</ele>
        <time>2013-07-27T05:12:33Z</time>
      </trkpt>
      <trkpt lat="45.53654" lon="6.6323">
        <ele>1251.1999512</ele>
        <time>2013-07-27T05:12:40Z</time>
      </trkpt>
      <trkpt lat="45.53646" lon="6.63229">
        <ele>1254.4000244</ele>
        <time>2013-07-27T05:12:48Z</time>
      </trkpt>
      <trkpt lat="45.53638" lon="6.63224">
        <ele>1258.4000244</ele>
        <time>2013-07-27T05:12:55Z</time>
      </trkpt>
      <trkpt lat="45.5363" lon="6.63216">
        <ele>1257.4000244</ele>
        <time>2013-07-27T05:13:01Z</time>
      </trkpt>
      <trkpt lat="45.53628" lon="6.63222">
        <ele>1255.8000488</ele>
        <time>2013-07-27T05:13:10Z</time>
      </trkpt>
      <trkpt lat="45.53631" lon="6.63232">
        <ele>1259.5999756</ele>
        <time>2013-07-27T05:13:18Z</time>
      </trkpt>
      <trkpt lat="45.53629" lon="6.6324">
        <ele>1260.5999756</ele>
        <time>2013-07-27T05:13:24Z</time>
      </trkpt>
      <trkpt lat="45.53628" lon="6.63256">
        <ele>1262</ele>
        <time>2013-07-27T05:13:35Z</time>
      </trkpt>
      <trkpt lat="45.53627" lon="6.63265">
        <ele>1265.5999756</ele>
        <time>2013-07-27T05:13:43Z</time>
      </trkpt>
      <trkpt lat="45.5363" lon="6.63275">
        <ele>1268.4000244</ele>
        <time>2013-07-27T05:13:51Z</time>
      </trkpt>
      <trkpt lat="45.53627" lon="6.63284">
        <ele>1270.5999756</ele>
        <time>2013-07-27T05:13:59Z</time>
      </trkpt>
      <trkpt lat="45.53625" lon="6.63296">
        <ele>1273.1999512</ele>
        <time>2013-07-27T05:14:08Z</time>
      </trkpt>
      <trkpt lat="45.53621" lon="6.63304">
        <ele>1275</ele>
        <time>2013-07-27T05:14:14Z</time>
      </trkpt>
      <trkpt lat="45.53614" lon="6.63315">
        <ele>1275</ele>
        <time>2013-07-27T05:14:24Z</time>
      </trkpt>
      <trkpt lat="45.5361" lon="6.63323">
        <ele>1272</ele>
        <time>2013-07-27T05:14:31Z</time>
      </trkpt>
      <trkpt lat="45.53609" lon="6.63333">
        <ele>1274.4000244</ele>
        <time>2013-07-27T05:14:40Z</time>
      </trkpt>
      <trkpt lat="45.53606" lon="6.6334">
        <ele>1277</ele>
        <time>2013-07-27T05:14:46Z</time>
      </trkpt>
      <trkpt lat="45.536" lon="6.63343">
        <ele>1277.4000244</ele>
        <time>2013-07-27T05:14:49Z</time>
      </trkpt>
      <trkpt lat="45.53594" lon="6.63343">
        <ele>1278.1999512</ele>
        <time>2013-07-27T05:14:58Z</time>
      </trkpt>
      <trkpt lat="45.53593" lon="6.63353">
        <ele>1281.4000244</ele>
        <time>2013-07-27T05:15:07Z</time>
      </trkpt>
      <trkpt lat="45.53595" lon="6.63364">
        <ele>1286.4000244</ele>
        <time>2013-07-27T05:15:16Z</time>
      </trkpt>
      <trkpt lat="45.53595" lon="6.63373">
        <ele>1288.5999756</ele>
        <time>2013-07-27T05:15:23Z</time>
      </trkpt>
      <trkpt lat="45.53589" lon="6.63388">
        <ele>1288.5999756</ele>
        <time>2013-07-27T05:15:31Z</time>
      </trkpt>
      <trkpt lat="45.53592" lon="6.634">
        <ele>1291.4000244</ele>
        <time>2013-07-27T05:15:39Z</time>
      </trkpt>
      <trkpt lat="45.53596" lon="6.63409">
        <ele>1292.1999512</ele>
        <time>2013-07-27T05:15:44Z</time>
      </trkpt>
      <trkpt lat="45.53597" lon="6.63418">
        <ele>1292</ele>
        <time>2013-07-27T05:15:49Z</time>
      </trkpt>
      <trkpt lat="45.53601" lon="6.63427">
        <ele>1292.8000488</ele>
        <time>2013-07-27T05:15:55Z</time>
      </trkpt>
      <trkpt lat="45.53604" lon="6.63438">
        <ele>1294</ele>
        <time>2013-07-27T05:16:01Z</time>
      </trkpt>
      <trkpt lat="45.53603" lon="6.63449">
        <ele>1294.8000488</ele>
        <time>2013-07-27T05:16:07Z</time>
      </trkpt>
      <trkpt lat="45.53603" lon="6.63458">
        <ele>1296.5999756</ele>
        <time>2013-07-27T05:16:13Z</time>
      </trkpt>
      <trkpt lat="45.53601" lon="6.63466">
        <ele>1300.5999756</ele>
        <time>2013-07-27T05:16:20Z</time>
      </trkpt>
      <trkpt lat="45.53602" lon="6.63476">
        <ele>1303.1999512</ele>
        <time>2013-07-27T05:16:26Z</time>
      </trkpt>
      <trkpt lat="45.53602" lon="6.63486">
        <ele>1304.4000244</ele>
        <time>2013-07-27T05:16:31Z</time>
      </trkpt>
      <trkpt lat="45.53602" lon="6.63496">
        <ele>1304</ele>
        <time>2013-07-27T05:16:36Z</time>
      </trkpt>
      <trkpt lat="45.53608" lon="6.63503">
        <ele>1303.4000244</ele>
        <time>2013-07-27T05:16:43Z</time>
      </trkpt>
      <trkpt lat="45.53614" lon="6.63515">
        <ele>1305.1999512</ele>
        <time>2013-07-27T05:16:50Z</time>
      </trkpt>
      <trkpt lat="45.53616" lon="6.6353">
        <ele>1306.4000244</ele>
        <time>2013-07-27T05:16:55Z</time>
      </trkpt>
      <trkpt lat="45.53619" lon="6.63547">
        <ele>1306.1999512</ele>
        <time>2013-07-27T05:17:00Z</time>
      </trkpt>
      <trkpt lat="45.53621" lon="6.63558">
        <ele>1305.1999512</ele>
        <time>2013-07-27T05:17:03Z</time>
      </trkpt>
      <trkpt lat="45.53625" lon="6.63573">
        <ele>1303.4000244</ele>
        <time>2013-07-27T05:17:08Z</time>
      </trkpt>
      <trkpt lat="45.5363" lon="6.63587">
        <ele>1302.1999512</ele>
        <time>2013-07-27T05:17:14Z</time>
      </trkpt>
      <trkpt lat="45.53632" lon="6.63596">
        <ele>1302</ele>
        <time>2013-07-27T05:17:17Z</time>
      </trkpt>
      <trkpt lat="45.53631" lon="6.63606">
        <ele>1302.8000488</ele>
        <time>2013-07-27T05:17:21Z</time>
      </trkpt>
      <trkpt lat="45.53634" lon="6.63619">
        <ele>1303.8000488</ele>
        <time>2013-07-27T05:17:27Z</time>
      </trkpt>
      <trkpt lat="45.53638" lon="6.63632">
        <ele>1303.5999756</ele>
        <time>2013-07-27T05:17:32Z</time>
      </trkpt>
      <trkpt lat="45.5364" lon="6.63641">
        <ele>1303.4000244</ele>
        <time>2013-07-27T05:17:35Z</time>
      </trkpt>
      <trkpt lat="45.53645" lon="6.63653">
        <ele>1303.8000488</ele>
        <time>2013-07-27T05:17:40Z</time>
      </trkpt>
      <trkpt lat="45.53648" lon="6.63661">
        <ele>1305.1999512</ele>
        <time>2013-07-27T05:17:42Z</time>
      </trkpt>
      <trkpt lat="45.5365" lon="6.63673">
        <ele>1308.4000244</ele>
        <time>2013-07-27T05:17:47Z</time>
      </trkpt>
      <trkpt lat="45.53648" lon="6.63687">
        <ele>1312.4000244</ele>
        <time>2013-07-27T05:17:54Z</time>
      </trkpt>
      <trkpt lat="45.53643" lon="6.63697">
        <ele>1314.5999756</ele>
        <time>2013-07-27T05:17:58Z</time>
      </trkpt>
      <trkpt lat="45.53644" lon="6.63709">
        <ele>1316.8000488</ele>
        <time>2013-07-27T05:18:03Z</time>
      </trkpt>
      <trkpt lat="45.53645" lon="6.63719">
        <ele>1318.1999512</ele>
        <time>2013-07-27T05:18:07Z</time>
      </trkpt>
      <trkpt lat="45.53649" lon="6.63739">
        <ele>1319.4000244</ele>
        <time>2013-07-27T05:18:16Z</time>
      </trkpt>
      <trkpt lat="45.53652" lon="6.63753">
        <ele>1320</ele>
        <time>2013-07-27T05:18:21Z</time>
      </trkpt>
      <trkpt lat="45.53654" lon="6.63764">
        <ele>1320.4000244</ele>
        <time>2013-07-27T05:18:26Z</time>
      </trkpt>
      <trkpt lat="45.53653" lon="6.63777">
        <ele>1320</ele>
        <time>2013-07-27T05:18:30Z</time>
      </trkpt>
      <trkpt lat="45.53656" lon="6.63792">
        <ele>1322.1999512</ele>
        <time>2013-07-27T05:18:37Z</time>
      </trkpt>
      <trkpt lat="45.53658" lon="6.63804">
        <ele>1324.5999756</ele>
        <time>2013-07-27T05:18:42Z</time>
      </trkpt>
      <trkpt lat="45.53658" lon="6.63816">
        <ele>1326</ele>
        <time>2013-07-27T05:18:46Z</time>
      </trkpt>
      <trkpt lat="45.53659" lon="6.63826">
        <ele>1325.4000244</ele>
        <time>2013-07-27T05:18:50Z</time>
      </trkpt>
      <trkpt lat="45.5366" lon="6.63839">
        <ele>1324.4000244</ele>
        <time>2013-07-27T05:18:53Z</time>
      </trkpt>
      <trkpt lat="45.53659" lon="6.6385">
        <ele>1323.5999756</ele>
        <time>2013-07-27T05:18:55Z</time>
      </trkpt>
      <trkpt lat="45.53659" lon="6.6386">
        <ele>1323.1999512</ele>
        <time>2013-07-27T05:18:58Z</time>
      </trkpt>
      <trkpt lat="45.53659" lon="6.63869">
        <ele>1322.5999756</ele>
        <time>2013-07-27T05:19:01Z</time>
      </trkpt>
      <trkpt lat="45.53658" lon="6.63883">
        <ele>1322.8000488</ele>
        <time>2013-07-27T05:19:06Z</time>
      </trkpt>
      <trkpt lat="45.53658" lon="6.63896">
        <ele>1323</ele>
        <time>2013-07-27T05:19:11Z</time>
      </trkpt>
      <trkpt lat="45.53656" lon="6.63911">
        <ele>1321</ele>
        <time>2013-07-27T05:19:18Z</time>
      </trkpt>
      <trkpt lat="45.53651" lon="6.63923">
        <ele>1318.8000488</ele>
        <time>2013-07-27T05:19:25Z</time>
      </trkpt>
      <trkpt lat="45.53648" lon="6.63932">
        <ele>1316.5999756</ele>
        <time>2013-07-27T05:19:29Z</time>
      </trkpt>
      <trkpt lat="45.53642" lon="6.63934">
        <ele>1315</ele>
        <time>2013-07-27T05:19:35Z</time>
      </trkpt>
      <trkpt lat="45.53638" lon="6.63926">
        <ele>1314.5999756</ele>
        <time>2013-07-27T05:19:44Z</time>
      </trkpt>
      <trkpt lat="45.5363" lon="6.63923">
        <ele>1316.1999512</ele>
        <time>2013-07-27T05:19:51Z</time>
      </trkpt>
      <trkpt lat="45.53626" lon="6.63915">
        <ele>1318.8000488</ele>
        <time>2013-07-27T05:19:59Z</time>
      </trkpt>
      <trkpt lat="45.53623" lon="6.63907">
        <ele>1321.4000244</ele>
        <time>2013-07-27T05:20:05Z</time>
      </trkpt>
      <trkpt lat="45.53619" lon="6.63897">
        <ele>1324.4000244</ele>
        <time>2013-07-27T05:20:12Z</time>
      </trkpt>
      <trkpt lat="45.53614" lon="6.63888">
        <ele>1326.8000488</ele>
        <time>2013-07-27T05:20:20Z</time>
      </trkpt>
      <trkpt lat="45.5361" lon="6.63877">
        <ele>1328.8000488</ele>
        <time>2013-07-27T05:20:29Z</time>
      </trkpt>
      <trkpt lat="45.53604" lon="6.63868">
        <ele>1330.5999756</ele>
        <time>2013-07-27T05:20:37Z</time>
      </trkpt>
      <trkpt lat="45.53595" lon="6.63865">
        <ele>1331.4000244</ele>
        <time>2013-07-27T05:20:44Z</time>
      </trkpt>
      <trkpt lat="45.5359" lon="6.63853">
        <ele>1332.1999512</ele>
        <time>2013-07-27T05:20:52Z</time>
      </trkpt>
      <trkpt lat="45.53591" lon="6.63838">
        <ele>1334</ele>
        <time>2013-07-27T05:20:58Z</time>
      </trkpt>
      <trkpt lat="45.5359" lon="6.63828">
        <ele>1335.4000244</ele>
        <time>2013-07-27T05:21:03Z</time>
      </trkpt>
      <trkpt lat="45.53587" lon="6.63818">
        <ele>1337.1999512</ele>
        <time>2013-07-27T05:21:08Z</time>
      </trkpt>
      <trkpt lat="45.53586" lon="6.63807">
        <ele>1339.5999756</ele>
        <time>2013-07-27T05:21:15Z</time>
      </trkpt>
      <trkpt lat="45.53582" lon="6.63793">
        <ele>1339.5999756</ele>
        <time>2013-07-27T05:21:21Z</time>
      </trkpt>
      <trkpt lat="45.5358" lon="6.63782">
        <ele>1339.1999512</ele>
        <time>2013-07-27T05:21:24Z</time>
      </trkpt>
      <trkpt lat="45.53578" lon="6.63772">
        <ele>1338.4000244</ele>
        <time>2013-07-27T05:21:28Z</time>
      </trkpt>
      <trkpt lat="45.53576" lon="6.63763">
        <ele>1337.4000244</ele>
        <time>2013-07-27T05:21:30Z</time>
      </trkpt>
      <trkpt lat="45.53575" lon="6.63753">
        <ele>1336.5999756</ele>
        <time>2013-07-27T05:21:33Z</time>
      </trkpt>
      <trkpt lat="45.53574" lon="6.63739">
        <ele>1336.1999512</ele>
        <time>2013-07-27T05:21:38Z</time>
      </trkpt>
      <trkpt lat="45.53573" lon="6.63722">
        <ele>1335.4000244</ele>
        <time>2013-07-27T05:21:42Z</time>
      </trkpt>
      <trkpt lat="45.53572" lon="6.63712">
        <ele>1335</ele>
        <time>2013-07-27T05:21:46Z</time>
      </trkpt>
      <trkpt lat="45.53572" lon="6.63702">
        <ele>1334.5999756</ele>
        <time>2013-07-27T05:21:49Z</time>
      </trkpt>
      <trkpt lat="45.53571" lon="6.63692">
        <ele>1334</ele>
        <time>2013-07-27T05:21:51Z</time>
      </trkpt>
      <trkpt lat="45.5357" lon="6.63678">
        <ele>1333.1999512</ele>
        <time>2013-07-27T05:21:56Z</time>
      </trkpt>
      <trkpt lat="45.53568" lon="6.63669">
        <ele>1332.8000488</ele>
        <time>2013-07-27T05:21:58Z</time>
      </trkpt>
      <trkpt lat="45.53566" lon="6.63655">
        <ele>1332.4000244</ele>
        <time>2013-07-27T05:22:03Z</time>
      </trkpt>
      <trkpt lat="45.5356" lon="6.63642">
        <ele>1332.8000488</ele>
        <time>2013-07-27T05:22:09Z</time>
      </trkpt>
      <trkpt lat="45.53554" lon="6.63632">
        <ele>1334</ele>
        <time>2013-07-27T05:22:14Z</time>
      </trkpt>
      <trkpt lat="45.53549" lon="6.63621">
        <ele>1335</ele>
        <time>2013-07-27T05:22:21Z</time>
      </trkpt>
      <trkpt lat="45.53543" lon="6.63612">
        <ele>1335.8000488</ele>
        <time>2013-07-27T05:22:26Z</time>
      </trkpt>
      <trkpt lat="45.53539" lon="6.63602">
        <ele>1337</ele>
        <time>2013-07-27T05:22:31Z</time>
      </trkpt>
      <trkpt lat="45.53534" lon="6.63596">
        <ele>1338.5999756</ele>
        <time>2013-07-27T05:22:36Z</time>
      </trkpt>
      <trkpt lat="45.53528" lon="6.63602">
        <ele>1338.8000488</ele>
        <time>2013-07-27T05:22:41Z</time>
      </trkpt>
      <trkpt lat="45.53527" lon="6.63618">
        <ele>1337.5999756</ele>
        <time>2013-07-27T05:22:47Z</time>
      </trkpt>
      <trkpt lat="45.53529" lon="6.63627">
        <ele>1337</ele>
        <time>2013-07-27T05:22:50Z</time>
      </trkpt>
      <trkpt lat="45.53521" lon="6.63636">
        <ele>1336.8000488</ele>
        <time>2013-07-27T05:22:55Z</time>
      </trkpt>
      <trkpt lat="45.53516" lon="6.63629">
        <ele>1337.4000244</ele>
        <time>2013-07-27T05:22:58Z</time>
      </trkpt>
      <trkpt lat="45.53513" lon="6.6362">
        <ele>1339.4000244</ele>
        <time>2013-07-27T05:23:03Z</time>
      </trkpt>
      <trkpt lat="45.5351" lon="6.63611">
        <ele>1344.8000488</ele>
        <time>2013-07-27T05:23:10Z</time>
      </trkpt>
      <trkpt lat="45.53508" lon="6.63599">
        <ele>1347.8000488</ele>
        <time>2013-07-27T05:23:16Z</time>
      </trkpt>
      <trkpt lat="45.53506" lon="6.63591">
        <ele>1350.1999512</ele>
        <time>2013-07-27T05:23:21Z</time>
      </trkpt>
      <trkpt lat="45.53501" lon="6.63583">
        <ele>1351.1999512</ele>
        <time>2013-07-27T05:23:26Z</time>
      </trkpt>
      <trkpt lat="45.53496" lon="6.63575">
        <ele>1351.5999756</ele>
        <time>2013-07-27T05:23:31Z</time>
      </trkpt>
      <trkpt lat="45.5349" lon="6.63577">
        <ele>1350.8000488</ele>
        <time>2013-07-27T05:23:36Z</time>
      </trkpt>
      <trkpt lat="45.53486" lon="6.63583">
        <ele>1352</ele>
        <time>2013-07-27T05:23:45Z</time>
      </trkpt>
      <trkpt lat="45.53493" lon="6.63594">
        <ele>1353.4000244</ele>
        <time>2013-07-27T05:23:50Z</time>
      </trkpt>
      <trkpt lat="45.535" lon="6.63611">
        <ele>1353.8000488</ele>
        <time>2013-07-27T05:23:55Z</time>
      </trkpt>
      <trkpt lat="45.53505" lon="6.63623">
        <ele>1353.8000488</ele>
        <time>2013-07-27T05:23:59Z</time>
      </trkpt>
      <trkpt lat="45.53508" lon="6.63633">
        <ele>1353.5999756</ele>
        <time>2013-07-27T05:24:01Z</time>
      </trkpt>
      <trkpt lat="45.53508" lon="6.63643">
        <ele>1353.8000488</ele>
        <time>2013-07-27T05:24:04Z</time>
      </trkpt>
      <trkpt lat="45.53507" lon="6.63664">
        <ele>1353.5999756</ele>
        <time>2013-07-27T05:24:23Z</time>
      </trkpt>
      <trkpt lat="45.53506" lon="6.63676">
        <ele>1354.1999512</ele>
        <time>2013-07-27T05:24:28Z</time>
      </trkpt>
      <trkpt lat="45.535" lon="6.63686">
        <ele>1355.8000488</ele>
        <time>2013-07-27T05:24:34Z</time>
      </trkpt>
      <trkpt lat="45.53498" lon="6.63699">
        <ele>1358.8000488</ele>
        <time>2013-07-27T05:24:41Z</time>
      </trkpt>
      <trkpt lat="45.53489" lon="6.63705">
        <ele>1359.4000244</ele>
        <time>2013-07-27T05:24:46Z</time>
      </trkpt>
      <trkpt lat="45.53482" lon="6.63714">
        <ele>1359.4000244</ele>
        <time>2013-07-27T05:24:52Z</time>
      </trkpt>
      <trkpt lat="45.53477" lon="6.63724">
        <ele>1359</ele>
        <time>2013-07-27T05:24:58Z</time>
      </trkpt>
      <trkpt lat="45.53471" lon="6.6373">
        <ele>1358.8000488</ele>
        <time>2013-07-27T05:25:03Z</time>
      </trkpt>
      <trkpt lat="45.53466" lon="6.6374">
        <ele>1358.4000244</ele>
        <time>2013-07-27T05:25:11Z</time>
      </trkpt>
      <trkpt lat="45.5346" lon="6.63748">
        <ele>1360</ele>
        <time>2013-07-27T05:25:19Z</time>
      </trkpt>
      <trkpt lat="45.5345" lon="6.63753">
        <ele>1360.5999756</ele>
        <time>2013-07-27T05:25:25Z</time>
      </trkpt>
      <trkpt lat="45.53448" lon="6.63761">
        <ele>1363.1999512</ele>
        <time>2013-07-27T05:25:32Z</time>
      </trkpt>
      <trkpt lat="45.53445" lon="6.63771">
        <ele>1368.5999756</ele>
        <time>2013-07-27T05:25:40Z</time>
      </trkpt>
      <trkpt lat="45.53442" lon="6.63781">
        <ele>1371.1999512</ele>
        <time>2013-07-27T05:25:47Z</time>
      </trkpt>
      <trkpt lat="45.53439" lon="6.6379">
        <ele>1373.1999512</ele>
        <time>2013-07-27T05:25:53Z</time>
      </trkpt>
      <trkpt lat="45.53434" lon="6.63795">
        <ele>1374.1999512</ele>
        <time>2013-07-27T05:25:59Z</time>
      </trkpt>
      <trkpt lat="45.53431" lon="6.63804">
        <ele>1374</ele>
        <time>2013-07-27T05:26:06Z</time>
      </trkpt>
      <trkpt lat="45.53426" lon="6.6381">
        <ele>1375.4000244</ele>
        <time>2013-07-27T05:26:14Z</time>
      </trkpt>
      <trkpt lat="45.53418" lon="6.63816">
        <ele>1378.1999512</ele>
        <time>2013-07-27T05:26:22Z</time>
      </trkpt>
      <trkpt lat="45.53411" lon="6.6382">
        <ele>1381.1999512</ele>
        <time>2013-07-27T05:26:29Z</time>
      </trkpt>
      <trkpt lat="45.53407" lon="6.63827">
        <ele>1383</ele>
        <time>2013-07-27T05:26:38Z</time>
      </trkpt>
      <trkpt lat="45.53405" lon="6.63836">
        <ele>1384.5999756</ele>
        <time>2013-07-27T05:26:48Z</time>
      </trkpt>
      <trkpt lat="45.53399" lon="6.63842">
        <ele>1386.1999512</ele>
        <time>2013-07-27T05:26:55Z</time>
      </trkpt>
      <trkpt lat="45.53393" lon="6.63848">
        <ele>1387</ele>
        <time>2013-07-27T05:27:01Z</time>
      </trkpt>
      <trkpt lat="45.53386" lon="6.63853">
        <ele>1388.1999512</ele>
        <time>2013-07-27T05:27:09Z</time>
      </trkpt>
      <trkpt lat="45.5338" lon="6.63859">
        <ele>1390.8000488</ele>
        <time>2013-07-27T05:27:16Z</time>
      </trkpt>
      <trkpt lat="45.53374" lon="6.63867">
        <ele>1391.1999512</ele>
        <time>2013-07-27T05:27:23Z</time>
      </trkpt>
      <trkpt lat="45.53369" lon="6.63876">
        <ele>1389.4000244</ele>
        <time>2013-07-27T05:27:30Z</time>
      </trkpt>
      <trkpt lat="45.53363" lon="6.63886">
        <ele>1388.8000488</ele>
        <time>2013-07-27T05:27:35Z</time>
      </trkpt>
      <trkpt lat="45.53358" lon="6.63891">
        <ele>1392.1999512</ele>
        <time>2013-07-27T05:27:41Z</time>
      </trkpt>
      <trkpt lat="45.53354" lon="6.639">
        <ele>1396</ele>
        <time>2013-07-27T05:27:48Z</time>
      </trkpt>
      <trkpt lat="45.53351" lon="6.63908">
        <ele>1397.1999512</ele>
        <time>2013-07-27T05:27:54Z</time>
      </trkpt>
      <trkpt lat="45.53342" lon="6.63913">
        <ele>1397</ele>
        <time>2013-07-27T05:28:00Z</time>
      </trkpt>
      <trkpt lat="45.53339" lon="6.63925">
        <ele>1399</ele>
        <time>2013-07-27T05:28:08Z</time>
      </trkpt>
      <trkpt lat="45.53337" lon="6.63934">
        <ele>1400.5999756</ele>
        <time>2013-07-27T05:28:14Z</time>
      </trkpt>
      <trkpt lat="45.53334" lon="6.63942">
        <ele>1400</ele>
        <time>2013-07-27T05:28:19Z</time>
      </trkpt>
      <trkpt lat="45.53334" lon="6.63953">
        <ele>1400.5999756</ele>
        <time>2013-07-27T05:28:26Z</time>
      </trkpt>
      <trkpt lat="45.53329" lon="6.6396">
        <ele>1402.5999756</ele>
        <time>2013-07-27T05:28:31Z</time>
      </trkpt>
      <trkpt lat="45.53324" lon="6.63967">
        <ele>1404.4000244</ele>
        <time>2013-07-27T05:28:36Z</time>
      </trkpt>
      <trkpt lat="45.53321" lon="6.63977">
        <ele>1406.8000488</ele>
        <time>2013-07-27T05:28:43Z</time>
      </trkpt>
      <trkpt lat="45.53317" lon="6.6399">
        <ele>1407.5999756</ele>
        <time>2013-07-27T05:28:51Z</time>
      </trkpt>
      <trkpt lat="45.53313" lon="6.64002">
        <ele>1410</ele>
        <time>2013-07-27T05:28:58Z</time>
      </trkpt>
      <trkpt lat="45.53308" lon="6.6401">
        <ele>1410.8000488</ele>
        <time>2013-07-27T05:29:03Z</time>
      </trkpt>
      <trkpt lat="45.533" lon="6.64021">
        <ele>1410.5999756</ele>
        <time>2013-07-27T05:29:11Z</time>
      </trkpt>
      <trkpt lat="45.53296" lon="6.6403">
        <ele>1411.5999756</ele>
        <time>2013-07-27T05:29:18Z</time>
      </trkpt>
      <trkpt lat="45.53297" lon="6.64045">
        <ele>1414</ele>
        <time>2013-07-27T05:29:26Z</time>
      </trkpt>
      <trkpt lat="45.53295" lon="6.64053">
        <ele>1415.5999756</ele>
        <time>2013-07-27T05:29:30Z</time>
      </trkpt>
      <trkpt lat="45.53294" lon="6.64073">
        <ele>1415.8000488</ele>
        <time>2013-07-27T05:29:37Z</time>
      </trkpt>
      <trkpt lat="45.53292" lon="6.64082">
        <ele>1415</ele>
        <time>2013-07-27T05:29:40Z</time>
      </trkpt>
      <trkpt lat="45.53291" lon="6.64094">
        <ele>1414</ele>
        <time>2013-07-27T05:29:44Z</time>
      </trkpt>
      <trkpt lat="45.53296" lon="6.64108">
        <ele>1414.5999756</ele>
        <time>2013-07-27T05:29:49Z</time>
      </trkpt>
      <trkpt lat="45.53298" lon="6.64129">
        <ele>1415.5999756</ele>
        <time>2013-07-27T05:29:54Z</time>
      </trkpt>
      <trkpt lat="45.5329" lon="6.64138">
        <ele>1415.8000488</ele>
        <time>2013-07-27T05:29:57Z</time>
      </trkpt>
      <trkpt lat="45.53279" lon="6.64156">
        <ele>1415.8000488</ele>
        <time>2013-07-27T05:30:03Z</time>
      </trkpt>
      <trkpt lat="45.53277" lon="6.64165">
        <ele>1416</ele>
        <time>2013-07-27T05:30:06Z</time>
      </trkpt>
      <trkpt lat="45.53267" lon="6.64176">
        <ele>1416.5999756</ele>
        <time>2013-07-27T05:30:11Z</time>
      </trkpt>
      <trkpt lat="45.53262" lon="6.64186">
        <ele>1417.8000488</ele>
        <time>2013-07-27T05:30:15Z</time>
      </trkpt>
      <trkpt lat="45.53261" lon="6.64199">
        <ele>1418.5999756</ele>
        <time>2013-07-27T05:30:20Z</time>
      </trkpt>
      <trkpt lat="45.53262" lon="6.64211">
        <ele>1418.8000488</ele>
        <time>2013-07-27T05:30:25Z</time>
      </trkpt>
      <trkpt lat="45.53265" lon="6.64221">
        <ele>1419</ele>
        <time>2013-07-27T05:30:27Z</time>
      </trkpt>
      <trkpt lat="45.53265" lon="6.64239">
        <ele>1419</ele>
        <time>2013-07-27T05:30:32Z</time>
      </trkpt>
      <trkpt lat="45.53263" lon="6.64252">
        <ele>1418.4000244</ele>
        <time>2013-07-27T05:30:35Z</time>
      </trkpt>
      <trkpt lat="45.53261" lon="6.64261">
        <ele>1417.8000488</ele>
        <time>2013-07-27T05:30:38Z</time>
      </trkpt>
      <trkpt lat="45.53257" lon="6.64275">
        <ele>1416.8000488</ele>
        <time>2013-07-27T05:30:44Z</time>
      </trkpt>
      <trkpt lat="45.53255" lon="6.64286">
        <ele>1417</ele>
        <time>2013-07-27T05:30:50Z</time>
      </trkpt>
      <trkpt lat="45.53247" lon="6.64293">
        <ele>1415.5999756</ele>
        <time>2013-07-27T05:30:56Z</time>
      </trkpt>
      <trkpt lat="45.53242" lon="6.64299">
        <ele>1413.8000488</ele>
        <time>2013-07-27T05:31:01Z</time>
      </trkpt>
      <trkpt lat="45.53238" lon="6.64308">
        <ele>1412.8000488</ele>
        <time>2013-07-27T05:31:08Z</time>
      </trkpt>
      <trkpt lat="45.53232" lon="6.64318">
        <ele>1416</ele>
        <time>2013-07-27T05:31:17Z</time>
      </trkpt>
      <trkpt lat="45.53226" lon="6.64322">
        <ele>1417.5999756</ele>
        <time>2013-07-27T05:31:23Z</time>
      </trkpt>
      <trkpt lat="45.53219" lon="6.64329">
        <ele>1419</ele>
        <time>2013-07-27T05:31:31Z</time>
      </trkpt>
      <trkpt lat="45.53214" lon="6.64339">
        <ele>1421</ele>
        <time>2013-07-27T05:31:39Z</time>
      </trkpt>
      <trkpt lat="45.5321" lon="6.64349">
        <ele>1424.5999756</ele>
        <time>2013-07-27T05:31:47Z</time>
      </trkpt>
      <trkpt lat="45.53206" lon="6.6436">
        <ele>1427.1999512</ele>
        <time>2013-07-27T05:31:54Z</time>
      </trkpt>
      <trkpt lat="45.53202" lon="6.64371">
        <ele>1427.1999512</ele>
        <time>2013-07-27T05:32:02Z</time>
      </trkpt>
      <trkpt lat="45.53198" lon="6.64382">
        <ele>1427.8000488</ele>
        <time>2013-07-27T05:32:07Z</time>
      </trkpt>
      <trkpt lat="45.53189" lon="6.64396">
        <ele>1429.8000488</ele>
        <time>2013-07-27T05:32:12Z</time>
      </trkpt>
      <trkpt lat="45.53188" lon="6.64409">
        <ele>1430.8000488</ele>
        <time>2013-07-27T05:32:17Z</time>
      </trkpt>
      <trkpt lat="45.53188" lon="6.64418">
        <ele>1431.5999756</ele>
        <time>2013-07-27T05:32:25Z</time>
      </trkpt>
      <trkpt lat="45.53185" lon="6.64431">
        <ele>1433.1999512</ele>
        <time>2013-07-27T05:32:32Z</time>
      </trkpt>
      <trkpt lat="45.53183" lon="6.6444">
        <ele>1434.8000488</ele>
        <time>2013-07-27T05:32:37Z</time>
      </trkpt>
      <trkpt lat="45.53178" lon="6.64449">
        <ele>1435.5999756</ele>
        <time>2013-07-27T05:32:42Z</time>
      </trkpt>
      <trkpt lat="45.53173" lon="6.64459">
        <ele>1436.4000244</ele>
        <time>2013-07-27T05:32:48Z</time>
      </trkpt>
      <trkpt lat="45.53167" lon="6.64466">
        <ele>1437</ele>
        <time>2013-07-27T05:32:53Z</time>
      </trkpt>
      <trkpt lat="45.53154" lon="6.64476">
        <ele>1437</ele>
        <time>2013-07-27T05:33:02Z</time>
      </trkpt>
      <trkpt lat="45.53143" lon="6.6448">
        <ele>1436.1999512</ele>
        <time>2013-07-27T05:33:08Z</time>
      </trkpt>
      <trkpt lat="45.53135" lon="6.64484">
        <ele>1434.8000488</ele>
        <time>2013-07-27T05:33:14Z</time>
      </trkpt>
      <trkpt lat="45.53127" lon="6.64488">
        <ele>1434</ele>
        <time>2013-07-27T05:33:19Z</time>
      </trkpt>
      <trkpt lat="45.53121" lon="6.64493">
        <ele>1435.1999512</ele>
        <time>2013-07-27T05:33:24Z</time>
      </trkpt>
      <trkpt lat="45.53114" lon="6.64498">
        <ele>1436.4000244</ele>
        <time>2013-07-27T05:33:29Z</time>
      </trkpt>
      <trkpt lat="45.53107" lon="6.64504">
        <ele>1437.1999512</ele>
        <time>2013-07-27T05:33:35Z</time>
      </trkpt>
      <trkpt lat="45.53099" lon="6.64506">
        <ele>1436.8000488</ele>
        <time>2013-07-27T05:33:40Z</time>
      </trkpt>
      <trkpt lat="45.531" lon="6.64512">
        <ele>1437</ele>
        <time>2013-07-27T05:33:45Z</time>
      </trkpt>
      <trkpt lat="45.53093" lon="6.64521">
        <ele>1440</ele>
        <time>2013-07-27T05:33:53Z</time>
      </trkpt>
      <trkpt lat="45.53089" lon="6.64527">
        <ele>1442</ele>
        <time>2013-07-27T05:33:58Z</time>
      </trkpt>
      <trkpt lat="45.53086" lon="6.6454">
        <ele>1444.4000244</ele>
        <time>2013-07-27T05:34:06Z</time>
      </trkpt>
      <trkpt lat="45.53085" lon="6.6455">
        <ele>1446.8000488</ele>
        <time>2013-07-27T05:34:12Z</time>
      </trkpt>
      <trkpt lat="45.53084" lon="6.6456">
        <ele>1449</ele>
        <time>2013-07-27T05:34:19Z</time>
      </trkpt>
      <trkpt lat="45.53084" lon="6.6457">
        <ele>1450.1999512</ele>
        <time>2013-07-27T05:34:24Z</time>
      </trkpt>
      <trkpt lat="45.53083" lon="6.6458">
        <ele>1452</ele>
        <time>2013-07-27T05:34:29Z</time>
      </trkpt>
      <trkpt lat="45.53076" lon="6.64589">
        <ele>1453.1999512</ele>
        <time>2013-07-27T05:34:35Z</time>
      </trkpt>
      <trkpt lat="45.53072" lon="6.64596">
        <ele>1454</ele>
        <time>2013-07-27T05:34:40Z</time>
      </trkpt>
      <trkpt lat="45.53067" lon="6.64607">
        <ele>1456.4000244</ele>
        <time>2013-07-27T05:34:47Z</time>
      </trkpt>
      <trkpt lat="45.53062" lon="6.64616">
        <ele>1457</ele>
        <time>2013-07-27T05:34:54Z</time>
      </trkpt>
      <trkpt lat="45.53059" lon="6.64637">
        <ele>1457</ele>
        <time>2013-07-27T05:35:02Z</time>
      </trkpt>
      <trkpt lat="45.53058" lon="6.64649">
        <ele>1457.1999512</ele>
        <time>2013-07-27T05:35:06Z</time>
      </trkpt>
      <trkpt lat="45.53054" lon="6.64668">
        <ele>1457.1999512</ele>
        <time>2013-07-27T05:35:12Z</time>
      </trkpt>
      <trkpt lat="45.53053" lon="6.64678">
        <ele>1457.8000488</ele>
        <time>2013-07-27T05:35:15Z</time>
      </trkpt>
      <trkpt lat="45.5305" lon="6.64689">
        <ele>1458.8000488</ele>
        <time>2013-07-27T05:35:19Z</time>
      </trkpt>
      <trkpt lat="45.53046" lon="6.647">
        <ele>1460.8000488</ele>
        <time>2013-07-27T05:35:23Z</time>
      </trkpt>
      <trkpt lat="45.53045" lon="6.64712">
        <ele>1462.1999512</ele>
        <time>2013-07-27T05:35:28Z</time>
      </trkpt>
      <trkpt lat="45.53039" lon="6.64721">
        <ele>1463.8000488</ele>
        <time>2013-07-27T05:35:32Z</time>
      </trkpt>
      <trkpt lat="45.53035" lon="6.64729">
        <ele>1464.4000244</ele>
        <time>2013-07-27T05:35:35Z</time>
      </trkpt>
      <trkpt lat="45.5303" lon="6.64741">
        <ele>1466</ele>
        <time>2013-07-27T05:35:40Z</time>
      </trkpt>
      <trkpt lat="45.53025" lon="6.64755">
        <ele>1467.5999756</ele>
        <time>2013-07-27T05:35:45Z</time>
      </trkpt>
      <trkpt lat="45.53024" lon="6.64765">
        <ele>1467.8000488</ele>
        <time>2013-07-27T05:35:48Z</time>
      </trkpt>
      <trkpt lat="45.53025" lon="6.64775">
        <ele>1468</ele>
        <time>2013-07-27T05:35:51Z</time>
      </trkpt>
      <trkpt lat="45.53025" lon="6.6479">
        <ele>1468</ele>
        <time>2013-07-27T05:35:56Z</time>
      </trkpt>
      <trkpt lat="45.53026" lon="6.648">
        <ele>1468.1999512</ele>
        <time>2013-07-27T05:35:59Z</time>
      </trkpt>
      <trkpt lat="45.53025" lon="6.6481">
        <ele>1468.5999756</ele>
        <time>2013-07-27T05:36:02Z</time>
      </trkpt>
      <trkpt lat="45.53025" lon="6.64841">
        <ele>1468.4000244</ele>
        <time>2013-07-27T05:36:11Z</time>
      </trkpt>
      <trkpt lat="45.53023" lon="6.64859">
        <ele>1467</ele>
        <time>2013-07-27T05:36:16Z</time>
      </trkpt>
      <trkpt lat="45.53019" lon="6.64876">
        <ele>1464.5999756</ele>
        <time>2013-07-27T05:36:20Z</time>
      </trkpt>
      <trkpt lat="45.53016" lon="6.6489">
        <ele>1463.5999756</ele>
        <time>2013-07-27T05:36:24Z</time>
      </trkpt>
      <trkpt lat="45.53012" lon="6.64902">
        <ele>1463</ele>
        <time>2013-07-27T05:36:27Z</time>
      </trkpt>
      <trkpt lat="45.53006" lon="6.64912">
        <ele>1462.1999512</ele>
        <time>2013-07-27T05:36:29Z</time>
      </trkpt>
      <trkpt lat="45.53001" lon="6.64923">
        <ele>1462.1999512</ele>
        <time>2013-07-27T05:36:34Z</time>
      </trkpt>
      <trkpt lat="45.52996" lon="6.64929">
        <ele>1462.1999512</ele>
        <time>2013-07-27T05:36:37Z</time>
      </trkpt>
      <trkpt lat="45.52985" lon="6.64936">
        <ele>1462.4000244</ele>
        <time>2013-07-27T05:36:42Z</time>
      </trkpt>
      <trkpt lat="45.52974" lon="6.6494">
        <ele>1462.4000244</ele>
        <time>2013-07-27T05:36:47Z</time>
      </trkpt>
      <trkpt lat="45.52962" lon="6.64942">
        <ele>1463.1999512</ele>
        <time>2013-07-27T05:36:52Z</time>
      </trkpt>
      <trkpt lat="45.52954" lon="6.64945">
        <ele>1464.8000488</ele>
        <time>2013-07-27T05:36:57Z</time>
      </trkpt>
      <trkpt lat="45.52948" lon="6.64949">
        <ele>1465.5999756</ele>
        <time>2013-07-27T05:36:59Z</time>
      </trkpt>
      <trkpt lat="45.52938" lon="6.6496">
        <ele>1467</ele>
        <time>2013-07-27T05:37:04Z</time>
      </trkpt>
      <trkpt lat="45.52934" lon="6.64968">
        <ele>1467.1999512</ele>
        <time>2013-07-27T05:37:07Z</time>
      </trkpt>
      <trkpt lat="45.5293" lon="6.64976">
        <ele>1467</ele>
        <time>2013-07-27T05:37:10Z</time>
      </trkpt>
      <trkpt lat="45.52934" lon="6.64988">
        <ele>1466.4000244</ele>
        <time>2013-07-27T05:37:15Z</time>
      </trkpt>
      <trkpt lat="45.52943" lon="6.64991">
        <ele>1466</ele>
        <time>2013-07-27T05:37:21Z</time>
      </trkpt>
      <trkpt lat="45.52951" lon="6.64995">
        <ele>1466.4000244</ele>
        <time>2013-07-27T05:37:27Z</time>
      </trkpt>
      <trkpt lat="45.5296" lon="6.64999">
        <ele>1468.1999512</ele>
        <time>2013-07-27T05:37:33Z</time>
      </trkpt>
      <trkpt lat="45.52964" lon="6.65013">
        <ele>1470.8000488</ele>
        <time>2013-07-27T05:37:39Z</time>
      </trkpt>
      <trkpt lat="45.5296" lon="6.65038">
        <ele>1470.4000244</ele>
        <time>2013-07-27T05:37:49Z</time>
      </trkpt>
      <trkpt lat="45.52956" lon="6.65051">
        <ele>1468.5999756</ele>
        <time>2013-07-27T05:37:54Z</time>
      </trkpt>
      <trkpt lat="45.52952" lon="6.65058">
        <ele>1468.5999756</ele>
        <time>2013-07-27T05:37:56Z</time>
      </trkpt>
      <trkpt lat="45.52945" lon="6.65071">
        <ele>1468.8000488</ele>
        <time>2013-07-27T05:38:02Z</time>
      </trkpt>
      <trkpt lat="45.52941" lon="6.6508">
        <ele>1467.8000488</ele>
        <time>2013-07-27T05:38:07Z</time>
      </trkpt>
      <trkpt lat="45.52937" lon="6.65087">
        <ele>1465</ele>
        <time>2013-07-27T05:38:11Z</time>
      </trkpt>
      <trkpt lat="45.52932" lon="6.65096">
        <ele>1464</ele>
        <time>2013-07-27T05:38:16Z</time>
      </trkpt>
      <trkpt lat="45.52923" lon="6.65101">
        <ele>1465</ele>
        <time>2013-07-27T05:38:20Z</time>
      </trkpt>
      <trkpt lat="45.52915" lon="6.65108">
        <ele>1466</ele>
        <time>2013-07-27T05:38:23Z</time>
      </trkpt>
      <trkpt lat="45.52909" lon="6.65119">
        <ele>1466.4000244</ele>
        <time>2013-07-27T05:38:26Z</time>
      </trkpt>
      <trkpt lat="45.529" lon="6.65132">
        <ele>1466.1999512</ele>
        <time>2013-07-27T05:38:31Z</time>
      </trkpt>
      <trkpt lat="45.5289" lon="6.65139">
        <ele>1466.8000488</ele>
        <time>2013-07-27T05:38:36Z</time>
      </trkpt>
      <trkpt lat="45.52885" lon="6.65146">
        <ele>1471.1999512</ele>
        <time>2013-07-27T05:38:43Z</time>
      </trkpt>
      <trkpt lat="45.52882" lon="6.65159">
        <ele>1473.8000488</ele>
        <time>2013-07-27T05:38:48Z</time>
      </trkpt>
      <trkpt lat="45.52879" lon="6.65177">
        <ele>1473.8000488</ele>
        <time>2013-07-27T05:38:55Z</time>
      </trkpt>
      <trkpt lat="45.5288" lon="6.65186">
        <ele>1473.8000488</ele>
        <time>2013-07-27T05:39:00Z</time>
      </trkpt>
      <trkpt lat="45.52885" lon="6.65196">
        <ele>1475.1999512</ele>
        <time>2013-07-27T05:39:10Z</time>
      </trkpt>
      <trkpt lat="45.5289" lon="6.65205">
        <ele>1475.5999756</ele>
        <time>2013-07-27T05:39:19Z</time>
      </trkpt>
      <trkpt lat="45.52888" lon="6.65217">
        <ele>1475</ele>
        <time>2013-07-27T05:39:24Z</time>
      </trkpt>
      <trkpt lat="45.52892" lon="6.65225">
        <ele>1475.4000244</ele>
        <time>2013-07-27T05:39:32Z</time>
      </trkpt>
      <trkpt lat="45.52897" lon="6.65235">
        <ele>1477.5999756</ele>
        <time>2013-07-27T05:39:40Z</time>
      </trkpt>
      <trkpt lat="45.52898" lon="6.65249">
        <ele>1477.5999756</ele>
        <time>2013-07-27T05:39:46Z</time>
      </trkpt>
      <trkpt lat="45.52901" lon="6.6526">
        <ele>1477.4000244</ele>
        <time>2013-07-27T05:39:51Z</time>
      </trkpt>
      <trkpt lat="45.52906" lon="6.6527">
        <ele>1477.5999756</ele>
        <time>2013-07-27T05:39:57Z</time>
      </trkpt>
      <trkpt lat="45.52911" lon="6.65277">
        <ele>1478.1999512</ele>
        <time>2013-07-27T05:40:03Z</time>
      </trkpt>
      <trkpt lat="45.52916" lon="6.65286">
        <ele>1479.5999756</ele>
        <time>2013-07-27T05:40:11Z</time>
      </trkpt>
      <trkpt lat="45.52919" lon="6.65297">
        <ele>1481</ele>
        <time>2013-07-27T05:40:18Z</time>
      </trkpt>
      <trkpt lat="45.5292" lon="6.65306">
        <ele>1480.4000244</ele>
        <time>2013-07-27T05:40:23Z</time>
      </trkpt>
      <trkpt lat="45.52922" lon="6.65317">
        <ele>1479.8000488</ele>
        <time>2013-07-27T05:40:28Z</time>
      </trkpt>
      <trkpt lat="45.52928" lon="6.65325">
        <ele>1480.5999756</ele>
        <time>2013-07-27T05:40:33Z</time>
      </trkpt>
      <trkpt lat="45.52924" lon="6.65333">
        <ele>1481.8000488</ele>
        <time>2013-07-27T05:40:38Z</time>
      </trkpt>
      <trkpt lat="45.52917" lon="6.65338">
        <ele>1483.5999756</ele>
        <time>2013-07-27T05:40:44Z</time>
      </trkpt>
      <trkpt lat="45.52909" lon="6.65341">
        <ele>1485.5999756</ele>
        <time>2013-07-27T05:40:53Z</time>
      </trkpt>
      <trkpt lat="45.52904" lon="6.65347">
        <ele>1487.8000488</ele>
        <time>2013-07-27T05:41:00Z</time>
      </trkpt>
      <trkpt lat="45.52898" lon="6.65345">
        <ele>1488.8000488</ele>
        <time>2013-07-27T05:41:04Z</time>
      </trkpt>
      <trkpt lat="45.52889" lon="6.65347">
        <ele>1490.1999512</ele>
        <time>2013-07-27T05:41:10Z</time>
      </trkpt>
      <trkpt lat="45.52884" lon="6.65356">
        <ele>1493.5999756</ele>
        <time>2013-07-27T05:41:17Z</time>
      </trkpt>
      <trkpt lat="45.52885" lon="6.65369">
        <ele>1495.1999512</ele>
        <time>2013-07-27T05:41:27Z</time>
      </trkpt>
      <trkpt lat="45.52891" lon="6.65376">
        <ele>1497.5999756</ele>
        <time>2013-07-27T05:41:40Z</time>
      </trkpt>
      <trkpt lat="45.52897" lon="6.65383">
        <ele>1502</ele>
        <time>2013-07-27T05:41:51Z</time>
      </trkpt>
      <trkpt lat="45.52899" lon="6.65394">
        <ele>1504.4000244</ele>
        <time>2013-07-27T05:41:58Z</time>
      </trkpt>
      <trkpt lat="45.52901" lon="6.65403">
        <ele>1504.5999756</ele>
        <time>2013-07-27T05:42:03Z</time>
      </trkpt>
      <trkpt lat="45.52901" lon="6.65413">
        <ele>1504.4000244</ele>
        <time>2013-07-27T05:42:07Z</time>
      </trkpt>
      <trkpt lat="45.529" lon="6.65424">
        <ele>1504.8000488</ele>
        <time>2013-07-27T05:42:12Z</time>
      </trkpt>
      <trkpt lat="45.52895" lon="6.65433">
        <ele>1505.5999756</ele>
        <time>2013-07-27T05:42:18Z</time>
      </trkpt>
      <trkpt lat="45.52888" lon="6.65443">
        <ele>1507.8000488</ele>
        <time>2013-07-27T05:42:26Z</time>
      </trkpt>
      <trkpt lat="45.52884" lon="6.65451">
        <ele>1509</ele>
        <time>2013-07-27T05:42:32Z</time>
      </trkpt>
      <trkpt lat="45.52879" lon="6.6546">
        <ele>1511.5999756</ele>
        <time>2013-07-27T05:42:39Z</time>
      </trkpt>
      <trkpt lat="45.52881" lon="6.65474">
        <ele>1514.4000244</ele>
        <time>2013-07-27T05:42:47Z</time>
      </trkpt>
      <trkpt lat="45.52885" lon="6.65485">
        <ele>1514.8000488</ele>
        <time>2013-07-27T05:42:50Z</time>
      </trkpt>
      <trkpt lat="45.52884" lon="6.65502">
        <ele>1514.5999756</ele>
        <time>2013-07-27T05:42:55Z</time>
      </trkpt>
      <trkpt lat="45.52882" lon="6.65517">
        <ele>1513.5999756</ele>
        <time>2013-07-27T05:43:00Z</time>
      </trkpt>
      <trkpt lat="45.52885" lon="6.65533">
        <ele>1511.8000488</ele>
        <time>2013-07-27T05:43:09Z</time>
      </trkpt>
      <trkpt lat="45.5289" lon="6.65554">
        <ele>1509</ele>
        <time>2013-07-27T05:43:14Z</time>
      </trkpt>
      <trkpt lat="45.5289" lon="6.65569">
        <ele>1505.5999756</ele>
        <time>2013-07-27T05:43:19Z</time>
      </trkpt>
      <trkpt lat="45.52892" lon="6.6558">
        <ele>1503.5999756</ele>
        <time>2013-07-27T05:43:21Z</time>
      </trkpt>
      <trkpt lat="45.52895" lon="6.65598">
        <ele>1501.8000488</ele>
        <time>2013-07-27T05:43:27Z</time>
      </trkpt>
      <trkpt lat="45.52898" lon="6.65609">
        <ele>1502</ele>
        <time>2013-07-27T05:43:30Z</time>
      </trkpt>
      <trkpt lat="45.52901" lon="6.65623">
        <ele>1502.5999756</ele>
        <time>2013-07-27T05:43:32Z</time>
      </trkpt>
      <trkpt lat="45.529" lon="6.65636">
        <ele>1504</ele>
        <time>2013-07-27T05:43:35Z</time>
      </trkpt>
      <trkpt lat="45.52902" lon="6.65649">
        <ele>1507.4000244</ele>
        <time>2013-07-27T05:43:43Z</time>
      </trkpt>
      <trkpt lat="45.52904" lon="6.6566">
        <ele>1508.4000244</ele>
        <time>2013-07-27T05:43:47Z</time>
      </trkpt>
      <trkpt lat="45.52906" lon="6.65671">
        <ele>1509.1999512</ele>
        <time>2013-07-27T05:43:51Z</time>
      </trkpt>
      <trkpt lat="45.52908" lon="6.65685">
        <ele>1510.4000244</ele>
        <time>2013-07-27T05:43:56Z</time>
      </trkpt>
      <trkpt lat="45.52906" lon="6.65701">
        <ele>1511.5999756</ele>
        <time>2013-07-27T05:44:01Z</time>
      </trkpt>
      <trkpt lat="45.52905" lon="6.65714">
        <ele>1512</ele>
        <time>2013-07-27T05:44:04Z</time>
      </trkpt>
      <trkpt lat="45.52903" lon="6.65738">
        <ele>1511.4000244</ele>
        <time>2013-07-27T05:44:10Z</time>
      </trkpt>
      <trkpt lat="45.52901" lon="6.65749">
        <ele>1510.4000244</ele>
        <time>2013-07-27T05:44:13Z</time>
      </trkpt>
      <trkpt lat="45.52899" lon="6.65765">
        <ele>1509.1999512</ele>
        <time>2013-07-27T05:44:19Z</time>
      </trkpt>
      <trkpt lat="45.52895" lon="6.65785">
        <ele>1509</ele>
        <time>2013-07-27T05:44:26Z</time>
      </trkpt>
      <trkpt lat="45.52894" lon="6.65796">
        <ele>1508.4000244</ele>
        <time>2013-07-27T05:44:29Z</time>
      </trkpt>
      <trkpt lat="45.52894" lon="6.65806">
        <ele>1507.4000244</ele>
        <time>2013-07-27T05:44:32Z</time>
      </trkpt>
      <trkpt lat="45.52896" lon="6.65822">
        <ele>1505.1999512</ele>
        <time>2013-07-27T05:44:38Z</time>
      </trkpt>
      <trkpt lat="45.52893" lon="6.65835">
        <ele>1502.8000488</ele>
        <time>2013-07-27T05:44:43Z</time>
      </trkpt>
      <trkpt lat="45.52892" lon="6.65851">
        <ele>1498.8000488</ele>
        <time>2013-07-27T05:44:48Z</time>
      </trkpt>
      <trkpt lat="45.52889" lon="6.65871">
        <ele>1495.1999512</ele>
        <time>2013-07-27T05:44:53Z</time>
      </trkpt>
      <trkpt lat="45.52886" lon="6.65879">
        <ele>1494</ele>
        <time>2013-07-27T05:44:55Z</time>
      </trkpt>
      <trkpt lat="45.52881" lon="6.65892">
        <ele>1493.1999512</ele>
        <time>2013-07-27T05:44:58Z</time>
      </trkpt>
      <trkpt lat="45.52876" lon="6.65904">
        <ele>1492.5999756</ele>
        <time>2013-07-27T05:45:01Z</time>
      </trkpt>
      <trkpt lat="45.52874" lon="6.65923">
        <ele>1492.1999512</ele>
        <time>2013-07-27T05:45:06Z</time>
      </trkpt>
      <trkpt lat="45.52882" lon="6.65944">
        <ele>1492.1999512</ele>
        <time>2013-07-27T05:45:13Z</time>
      </trkpt>
      <trkpt lat="45.5288" lon="6.65954">
        <ele>1492</ele>
        <time>2013-07-27T05:45:16Z</time>
      </trkpt>
      <trkpt lat="45.52878" lon="6.65964">
        <ele>1491.5999756</ele>
        <time>2013-07-27T05:45:19Z</time>
      </trkpt>
      <trkpt lat="45.52873" lon="6.65979">
        <ele>1490.5999756</ele>
        <time>2013-07-27T05:45:24Z</time>
      </trkpt>
      <trkpt lat="45.52872" lon="6.65989">
        <ele>1491</ele>
        <time>2013-07-27T05:45:29Z</time>
      </trkpt>
      <trkpt lat="45.52873" lon="6.65999">
        <ele>1491.5999756</ele>
        <time>2013-07-27T05:45:37Z</time>
      </trkpt>
      <trkpt lat="45.52872" lon="6.66008">
        <ele>1489.8000488</ele>
        <time>2013-07-27T05:45:43Z</time>
      </trkpt>
      <trkpt lat="45.52867" lon="6.66017">
        <ele>1487.4000244</ele>
        <time>2013-07-27T05:45:48Z</time>
      </trkpt>
      <trkpt lat="45.52859" lon="6.66026">
        <ele>1488</ele>
        <time>2013-07-27T05:45:55Z</time>
      </trkpt>
      <trkpt lat="45.52852" lon="6.66032">
        <ele>1489.4000244</ele>
        <time>2013-07-27T05:46:01Z</time>
      </trkpt>
      <trkpt lat="45.52849" lon="6.66042">
        <ele>1491.8000488</ele>
        <time>2013-07-27T05:46:11Z</time>
      </trkpt>
      <trkpt lat="45.52843" lon="6.66047">
        <ele>1493.8000488</ele>
        <time>2013-07-27T05:46:21Z</time>
      </trkpt>
      <trkpt lat="45.52837" lon="6.66058">
        <ele>1495.8000488</ele>
        <time>2013-07-27T05:46:30Z</time>
      </trkpt>
      <trkpt lat="45.52832" lon="6.66068">
        <ele>1500.1999512</ele>
        <time>2013-07-27T05:46:39Z</time>
      </trkpt>
      <trkpt lat="45.52825" lon="6.66074">
        <ele>1501.5999756</ele>
        <time>2013-07-27T05:46:44Z</time>
      </trkpt>
      <trkpt lat="45.52817" lon="6.66086">
        <ele>1501.8000488</ele>
        <time>2013-07-27T05:46:53Z</time>
      </trkpt>
      <trkpt lat="45.52811" lon="6.66096">
        <ele>1502.1999512</ele>
        <time>2013-07-27T05:47:00Z</time>
      </trkpt>
      <trkpt lat="45.52805" lon="6.66103">
        <ele>1502.5999756</ele>
        <time>2013-07-27T05:47:05Z</time>
      </trkpt>
      <trkpt lat="45.528" lon="6.66111">
        <ele>1503.1999512</ele>
        <time>2013-07-27T05:47:10Z</time>
      </trkpt>
      <trkpt lat="45.52798" lon="6.66124">
        <ele>1505.8000488</ele>
        <time>2013-07-27T05:47:18Z</time>
      </trkpt>
      <trkpt lat="45.52796" lon="6.66135">
        <ele>1509.5999756</ele>
        <time>2013-07-27T05:47:24Z</time>
      </trkpt>
      <trkpt lat="45.52795" lon="6.66147">
        <ele>1513.4000244</ele>
        <time>2013-07-27T05:47:32Z</time>
      </trkpt>
      <trkpt lat="45.52793" lon="6.6616">
        <ele>1515.5999756</ele>
        <time>2013-07-27T05:47:40Z</time>
      </trkpt>
      <trkpt lat="45.52789" lon="6.66171">
        <ele>1514</ele>
        <time>2013-07-27T05:47:47Z</time>
      </trkpt>
      <trkpt lat="45.52782" lon="6.66182">
        <ele>1514</ele>
        <time>2013-07-27T05:47:55Z</time>
      </trkpt>
      <trkpt lat="45.52777" lon="6.66191">
        <ele>1516.4000244</ele>
        <time>2013-07-27T05:48:01Z</time>
      </trkpt>
      <trkpt lat="45.52772" lon="6.66201">
        <ele>1519.1999512</ele>
        <time>2013-07-27T05:48:08Z</time>
      </trkpt>
      <trkpt lat="45.52766" lon="6.66208">
        <ele>1519.1999512</ele>
        <time>2013-07-27T05:48:13Z</time>
      </trkpt>
      <trkpt lat="45.52753" lon="6.66223">
        <ele>1519.1999512</ele>
        <time>2013-07-27T05:48:26Z</time>
      </trkpt>
      <trkpt lat="45.52749" lon="6.66235">
        <ele>1521.1999512</ele>
        <time>2013-07-27T05:48:35Z</time>
      </trkpt>
      <trkpt lat="45.52742" lon="6.66242">
        <ele>1524</ele>
        <time>2013-07-27T05:48:42Z</time>
      </trkpt>
      <trkpt lat="45.5274" lon="6.66253">
        <ele>1524.8000488</ele>
        <time>2013-07-27T05:48:49Z</time>
      </trkpt>
      <trkpt lat="45.52734" lon="6.66258">
        <ele>1524.4000244</ele>
        <time>2013-07-27T05:48:55Z</time>
      </trkpt>
      <trkpt lat="45.52727" lon="6.66261">
        <ele>1524.8000488</ele>
        <time>2013-07-27T05:49:02Z</time>
      </trkpt>
      <trkpt lat="45.5272" lon="6.66265">
        <ele>1526</ele>
        <time>2013-07-27T05:49:08Z</time>
      </trkpt>
      <trkpt lat="45.52715" lon="6.66271">
        <ele>1526.8000488</ele>
        <time>2013-07-27T05:49:14Z</time>
      </trkpt>
      <trkpt lat="45.52708" lon="6.66284">
        <ele>1525.4000244</ele>
        <time>2013-07-27T05:49:23Z</time>
      </trkpt>
      <trkpt lat="45.52705" lon="6.66293">
        <ele>1522.5999756</ele>
        <time>2013-07-27T05:49:28Z</time>
      </trkpt>
      <trkpt lat="45.52707" lon="6.66306">
        <ele>1521.1999512</ele>
        <time>2013-07-27T05:49:36Z</time>
      </trkpt>
      <trkpt lat="45.52706" lon="6.66316">
        <ele>1523</ele>
        <time>2013-07-27T05:49:41Z</time>
      </trkpt>
      <trkpt lat="45.52704" lon="6.66325">
        <ele>1524.4000244</ele>
        <time>2013-07-27T05:49:46Z</time>
      </trkpt>
      <trkpt lat="45.527" lon="6.66338">
        <ele>1524.5999756</ele>
        <time>2013-07-27T05:49:53Z</time>
      </trkpt>
      <trkpt lat="45.52697" lon="6.66345">
        <ele>1525.5999756</ele>
        <time>2013-07-27T05:50:00Z</time>
      </trkpt>
      <trkpt lat="45.52696" lon="6.66356">
        <ele>1528.5999756</ele>
        <time>2013-07-27T05:50:08Z</time>
      </trkpt>
      <trkpt lat="45.52694" lon="6.66368">
        <ele>1530.4000244</ele>
        <time>2013-07-27T05:50:16Z</time>
      </trkpt>
      <trkpt lat="45.52695" lon="6.6638">
        <ele>1530.1999512</ele>
        <time>2013-07-27T05:50:22Z</time>
      </trkpt>
      <trkpt lat="45.5269" lon="6.6639">
        <ele>1529.8000488</ele>
        <time>2013-07-27T05:50:27Z</time>
      </trkpt>
      <trkpt lat="45.52684" lon="6.66398">
        <ele>1527.8000488</ele>
        <time>2013-07-27T05:50:32Z</time>
      </trkpt>
      <trkpt lat="45.52681" lon="6.66409">
        <ele>1527</ele>
        <time>2013-07-27T05:50:36Z</time>
      </trkpt>
      <trkpt lat="45.52678" lon="6.66419">
        <ele>1526.8000488</ele>
        <time>2013-07-27T05:50:41Z</time>
      </trkpt>
      <trkpt lat="45.52676" lon="6.66428">
        <ele>1529.4000244</ele>
        <time>2013-07-27T05:50:48Z</time>
      </trkpt>
      <trkpt lat="45.5267" lon="6.66438">
        <ele>1531.4000244</ele>
        <time>2013-07-27T05:50:53Z</time>
      </trkpt>
      <trkpt lat="45.52667" lon="6.66451">
        <ele>1533.5999756</ele>
        <time>2013-07-27T05:51:02Z</time>
      </trkpt>
      <trkpt lat="45.52664" lon="6.66465">
        <ele>1535</ele>
        <time>2013-07-27T05:51:07Z</time>
      </trkpt>
      <trkpt lat="45.5266" lon="6.66473">
        <ele>1535.5999756</ele>
        <time>2013-07-27T05:51:10Z</time>
      </trkpt>
      <trkpt lat="45.52653" lon="6.66479">
        <ele>1536.4000244</ele>
        <time>2013-07-27T05:51:14Z</time>
      </trkpt>
      <trkpt lat="45.52647" lon="6.66485">
        <ele>1536.8000488</ele>
        <time>2013-07-27T05:51:19Z</time>
      </trkpt>
      <trkpt lat="45.52638" lon="6.66499">
        <ele>1538</ele>
        <time>2013-07-27T05:51:24Z</time>
      </trkpt>
      <trkpt lat="45.52629" lon="6.66507">
        <ele>1540.1999512</ele>
        <time>2013-07-27T05:51:28Z</time>
      </trkpt>
      <trkpt lat="45.52622" lon="6.66513">
        <ele>1541.4000244</ele>
        <time>2013-07-27T05:51:31Z</time>
      </trkpt>
      <trkpt lat="45.52614" lon="6.66524">
        <ele>1543.1999512</ele>
        <time>2013-07-27T05:51:36Z</time>
      </trkpt>
      <trkpt lat="45.5261" lon="6.66534">
        <ele>1545.1999512</ele>
        <time>2013-07-27T05:51:43Z</time>
      </trkpt>
      <trkpt lat="45.52603" lon="6.66541">
        <ele>1546.8000488</ele>
        <time>2013-07-27T05:51:50Z</time>
      </trkpt>
      <trkpt lat="45.52596" lon="6.66547">
        <ele>1548.5999756</ele>
        <time>2013-07-27T05:51:56Z</time>
      </trkpt>
      <trkpt lat="45.52589" lon="6.66553">
        <ele>1550.1999512</ele>
        <time>2013-07-27T05:52:02Z</time>
      </trkpt>
      <trkpt lat="45.52584" lon="6.66561">
        <ele>1550.8000488</ele>
        <time>2013-07-27T05:52:05Z</time>
      </trkpt>
      <trkpt lat="45.52579" lon="6.66567">
        <ele>1551.1999512</ele>
        <time>2013-07-27T05:52:10Z</time>
      </trkpt>
      <trkpt lat="45.52571" lon="6.66574">
        <ele>1551.8000488</ele>
        <time>2013-07-27T05:52:15Z</time>
      </trkpt>
      <trkpt lat="45.52565" lon="6.66575">
        <ele>1553.1999512</ele>
        <time>2013-07-27T05:52:20Z</time>
      </trkpt>
      <trkpt lat="45.52561" lon="6.66585">
        <ele>1554.5999756</ele>
        <time>2013-07-27T05:52:25Z</time>
      </trkpt>
      <trkpt lat="45.52561" lon="6.6659">
        <ele>1551.4000244</ele>
        <time>2013-07-27T05:52:32Z</time>
      </trkpt>
      <trkpt lat="45.52568" lon="6.66579">
        <ele>1544.8000488</ele>
        <time>2013-07-27T05:52:39Z</time>
      </trkpt>
      <trkpt lat="45.52574" lon="6.66581">
        <ele>1542</ele>
        <time>2013-07-27T05:52:52Z</time>
      </trkpt>
      <trkpt lat="45.52577" lon="6.66593">
        <ele>1539.8000488</ele>
        <time>2013-07-27T05:52:57Z</time>
      </trkpt>
      <trkpt lat="45.5258" lon="6.66603">
        <ele>1539</ele>
        <time>2013-07-27T05:53:00Z</time>
      </trkpt>
      <trkpt lat="45.52584" lon="6.66613">
        <ele>1538</ele>
        <time>2013-07-27T05:53:05Z</time>
      </trkpt>
      <trkpt lat="45.52588" lon="6.66621">
        <ele>1538.1999512</ele>
        <time>2013-07-27T05:53:10Z</time>
      </trkpt>
      <trkpt lat="45.5259" lon="6.66634">
        <ele>1539.4000244</ele>
        <time>2013-07-27T05:53:16Z</time>
      </trkpt>
      <trkpt lat="45.52591" lon="6.66643">
        <ele>1541</ele>
        <time>2013-07-27T05:53:20Z</time>
      </trkpt>
      <trkpt lat="45.52592" lon="6.66657">
        <ele>1542.4000244</ele>
        <time>2013-07-27T05:53:25Z</time>
      </trkpt>
      <trkpt lat="45.52591" lon="6.66667">
        <ele>1541.5999756</ele>
        <time>2013-07-27T05:53:28Z</time>
      </trkpt>
      <trkpt lat="45.52591" lon="6.66678">
        <ele>1540.5999756</ele>
        <time>2013-07-27T05:53:31Z</time>
      </trkpt>
      <trkpt lat="45.52593" lon="6.66695">
        <ele>1538</ele>
        <time>2013-07-27T05:53:35Z</time>
      </trkpt>
      <trkpt lat="45.52595" lon="6.66706">
        <ele>1537</ele>
        <time>2013-07-27T05:53:38Z</time>
      </trkpt>
      <trkpt lat="45.52596" lon="6.66718">
        <ele>1537.1999512</ele>
        <time>2013-07-27T05:53:43Z</time>
      </trkpt>
      <trkpt lat="45.52594" lon="6.6673">
        <ele>1538.1999512</ele>
        <time>2013-07-27T05:53:50Z</time>
      </trkpt>
      <trkpt lat="45.52591" lon="6.66741">
        <ele>1537.8000488</ele>
        <time>2013-07-27T05:53:58Z</time>
      </trkpt>
      <trkpt lat="45.52588" lon="6.66751">
        <ele>1538.1999512</ele>
        <time>2013-07-27T05:54:05Z</time>
      </trkpt>
      <trkpt lat="45.52586" lon="6.66761">
        <ele>1540.1999512</ele>
        <time>2013-07-27T05:54:12Z</time>
      </trkpt>
      <trkpt lat="45.52583" lon="6.6677">
        <ele>1541.1999512</ele>
        <time>2013-07-27T05:54:18Z</time>
      </trkpt>
      <trkpt lat="45.52582" lon="6.66782">
        <ele>1543.5999756</ele>
        <time>2013-07-27T05:54:25Z</time>
      </trkpt>
      <trkpt lat="45.52584" lon="6.6679">
        <ele>1546.1999512</ele>
        <time>2013-07-27T05:54:30Z</time>
      </trkpt>
      <trkpt lat="45.52576" lon="6.66799">
        <ele>1549.4000244</ele>
        <time>2013-07-27T05:54:39Z</time>
      </trkpt>
      <trkpt lat="45.5257" lon="6.66803">
        <ele>1549.8000488</ele>
        <time>2013-07-27T05:54:44Z</time>
      </trkpt>
      <trkpt lat="45.52565" lon="6.66809">
        <ele>1549.1999512</ele>
        <time>2013-07-27T05:54:49Z</time>
      </trkpt>
      <trkpt lat="45.52559" lon="6.66816">
        <ele>1549.1999512</ele>
        <time>2013-07-27T05:54:54Z</time>
      </trkpt>
      <trkpt lat="45.52554" lon="6.66826">
        <ele>1551.4000244</ele>
        <time>2013-07-27T05:55:01Z</time>
      </trkpt>
      <trkpt lat="45.5255" lon="6.66837">
        <ele>1554.8000488</ele>
        <time>2013-07-27T05:55:10Z</time>
      </trkpt>
      <trkpt lat="45.52549" lon="6.66847">
        <ele>1558.5999756</ele>
        <time>2013-07-27T05:55:17Z</time>
      </trkpt>
      <trkpt lat="45.52546" lon="6.66855">
        <ele>1560.4000244</ele>
        <time>2013-07-27T05:55:26Z</time>
      </trkpt>
      <trkpt lat="45.52547" lon="6.66867">
        <ele>1563.5999756</ele>
        <time>2013-07-27T05:55:36Z</time>
      </trkpt>
      <trkpt lat="45.52544" lon="6.66878">
        <ele>1563</ele>
        <time>2013-07-27T05:55:52Z</time>
      </trkpt>
      <trkpt lat="45.52541" lon="6.66885">
        <ele>1565</ele>
        <time>2013-07-27T05:56:04Z</time>
      </trkpt>
      <trkpt lat="45.52537" lon="6.66891">
        <ele>1565.4000244</ele>
        <time>2013-07-27T05:56:17Z</time>
      </trkpt>
      <trkpt lat="45.52535" lon="6.66897">
        <ele>1564.4000244</ele>
        <time>2013-07-27T05:56:38Z</time>
      </trkpt>
      <trkpt lat="45.52532" lon="6.66907">
        <ele>1563</ele>
        <time>2013-07-27T05:56:59Z</time>
      </trkpt>
      <trkpt lat="45.52526" lon="6.66913">
        <ele>1559.8000488</ele>
        <time>2013-07-27T05:57:12Z</time>
      </trkpt>
      <trkpt lat="45.52522" lon="6.66921">
        <ele>1559.4000244</ele>
        <time>2013-07-27T05:57:28Z</time>
      </trkpt>
      <trkpt lat="45.52519" lon="6.66935">
        <ele>1563.8000488</ele>
        <time>2013-07-27T05:57:40Z</time>
      </trkpt>
      <trkpt lat="45.52517" lon="6.66947">
        <ele>1564.4000244</ele>
        <time>2013-07-27T05:57:43Z</time>
      </trkpt>
      <trkpt lat="45.52521" lon="6.66966">
        <ele>1565.4000244</ele>
        <time>2013-07-27T05:57:48Z</time>
      </trkpt>
      <trkpt lat="45.5252" lon="6.66984">
        <ele>1566.1999512</ele>
        <time>2013-07-27T05:57:53Z</time>
      </trkpt>
      <trkpt lat="45.52515" lon="6.66999">
        <ele>1567</ele>
        <time>2013-07-27T05:57:59Z</time>
      </trkpt>
      <trkpt lat="45.52514" lon="6.67009">
        <ele>1567.1999512</ele>
        <time>2013-07-27T05:58:02Z</time>
      </trkpt>
      <trkpt lat="45.52512" lon="6.67018">
        <ele>1566.5999756</ele>
        <time>2013-07-27T05:58:05Z</time>
      </trkpt>
      <trkpt lat="45.5251" lon="6.67029">
        <ele>1565.8000488</ele>
        <time>2013-07-27T05:58:07Z</time>
      </trkpt>
      <trkpt lat="45.52509" lon="6.67039">
        <ele>1566.1999512</ele>
        <time>2013-07-27T05:58:10Z</time>
      </trkpt>
      <trkpt lat="45.52504" lon="6.67048">
        <ele>1566</ele>
        <time>2013-07-27T05:58:13Z</time>
      </trkpt>
      <trkpt lat="45.52501" lon="6.67058">
        <ele>1565.5999756</ele>
        <time>2013-07-27T05:58:16Z</time>
      </trkpt>
      <trkpt lat="45.52499" lon="6.67075">
        <ele>1565.4000244</ele>
        <time>2013-07-27T05:58:22Z</time>
      </trkpt>
      <trkpt lat="45.52495" lon="6.67091">
        <ele>1562.1999512</ele>
        <time>2013-07-27T05:58:26Z</time>
      </trkpt>
      <trkpt lat="45.52488" lon="6.67107">
        <ele>1558.4000244</ele>
        <time>2013-07-27T05:58:31Z</time>
      </trkpt>
      <trkpt lat="45.5249" lon="6.67119">
        <ele>1556.4000244</ele>
        <time>2013-07-27T05:58:35Z</time>
      </trkpt>
      <trkpt lat="45.52494" lon="6.67128">
        <ele>1554.4000244</ele>
        <time>2013-07-27T05:58:37Z</time>
      </trkpt>
      <trkpt lat="45.52496" lon="6.67139">
        <ele>1550.1999512</ele>
        <time>2013-07-27T05:58:42Z</time>
      </trkpt>
      <trkpt lat="45.52498" lon="6.6715">
        <ele>1547.4000244</ele>
        <time>2013-07-27T05:58:44Z</time>
      </trkpt>
      <trkpt lat="45.525" lon="6.67169">
        <ele>1540.8000488</ele>
        <time>2013-07-27T05:58:50Z</time>
      </trkpt>
      <trkpt lat="45.52504" lon="6.6718">
        <ele>1538</ele>
        <time>2013-07-27T05:58:53Z</time>
      </trkpt>
      <trkpt lat="45.52506" lon="6.67191">
        <ele>1535.4000244</ele>
        <time>2013-07-27T05:58:56Z</time>
      </trkpt>
      <trkpt lat="45.52509" lon="6.67202">
        <ele>1533.1999512</ele>
        <time>2013-07-27T05:58:58Z</time>
      </trkpt>
      <trkpt lat="45.52512" lon="6.67213">
        <ele>1531.1999512</ele>
        <time>2013-07-27T05:59:02Z</time>
      </trkpt>
      <trkpt lat="45.52517" lon="6.67231">
        <ele>1528.8000488</ele>
        <time>2013-07-27T05:59:06Z</time>
      </trkpt>
      <trkpt lat="45.5252" lon="6.67241">
        <ele>1528</ele>
        <time>2013-07-27T05:59:09Z</time>
      </trkpt>
      <trkpt lat="45.52522" lon="6.67252">
        <ele>1527.8000488</ele>
        <time>2013-07-27T05:59:12Z</time>
      </trkpt>
      <trkpt lat="45.52523" lon="6.67265">
        <ele>1528.1999512</ele>
        <time>2013-07-27T05:59:16Z</time>
      </trkpt>
      <trkpt lat="45.52524" lon="6.67276">
        <ele>1528.8000488</ele>
        <time>2013-07-27T05:59:19Z</time>
      </trkpt>
      <trkpt lat="45.52525" lon="6.67287">
        <ele>1529</ele>
        <time>2013-07-27T05:59:22Z</time>
      </trkpt>
      <trkpt lat="45.52528" lon="6.67298">
        <ele>1529.4000244</ele>
        <time>2013-07-27T05:59:25Z</time>
      </trkpt>
      <trkpt lat="45.52534" lon="6.67307">
        <ele>1529.5999756</ele>
        <time>2013-07-27T05:59:28Z</time>
      </trkpt>
      <trkpt lat="45.5254" lon="6.67311">
        <ele>1529.5999756</ele>
        <time>2013-07-27T05:59:32Z</time>
      </trkpt>
      <trkpt lat="45.52544" lon="6.6732">
        <ele>1529</ele>
        <time>2013-07-27T05:59:35Z</time>
      </trkpt>
      <trkpt lat="45.52546" lon="6.6733">
        <ele>1528.4000244</ele>
        <time>2013-07-27T05:59:37Z</time>
      </trkpt>
      <trkpt lat="45.52547" lon="6.67347">
        <ele>1526.5999756</ele>
        <time>2013-07-27T05:59:42Z</time>
      </trkpt>
      <trkpt lat="45.52546" lon="6.67362">
        <ele>1525</ele>
        <time>2013-07-27T05:59:47Z</time>
      </trkpt>
      <trkpt lat="45.52541" lon="6.67379">
        <ele>1525</ele>
        <time>2013-07-27T05:59:54Z</time>
      </trkpt>
      <trkpt lat="45.52538" lon="6.67388">
        <ele>1526</ele>
        <time>2013-07-27T06:00:00Z</time>
      </trkpt>
      <trkpt lat="45.52531" lon="6.67393">
        <ele>1526.1999512</ele>
        <time>2013-07-27T06:00:08Z</time>
      </trkpt>
      <trkpt lat="45.52525" lon="6.67401">
        <ele>1526.8000488</ele>
        <time>2013-07-27T06:00:16Z</time>
      </trkpt>
      <trkpt lat="45.52517" lon="6.67407">
        <ele>1528.1999512</ele>
        <time>2013-07-27T06:00:23Z</time>
      </trkpt>
      <trkpt lat="45.5251" lon="6.67412">
        <ele>1528.5999756</ele>
        <time>2013-07-27T06:00:28Z</time>
      </trkpt>
      <trkpt lat="45.52508" lon="6.67422">
        <ele>1529.4000244</ele>
        <time>2013-07-27T06:00:34Z</time>
      </trkpt>
      <trkpt lat="45.52503" lon="6.67433">
        <ele>1532.1999512</ele>
        <time>2013-07-27T06:00:42Z</time>
      </trkpt>
      <trkpt lat="45.52501" lon="6.67442">
        <ele>1536</ele>
        <time>2013-07-27T06:00:50Z</time>
      </trkpt>
      <trkpt lat="45.52497" lon="6.67453">
        <ele>1539.4000244</ele>
        <time>2013-07-27T06:00:57Z</time>
      </trkpt>
      <trkpt lat="45.5249" lon="6.67457">
        <ele>1538.8000488</ele>
        <time>2013-07-27T06:01:02Z</time>
      </trkpt>
      <trkpt lat="45.52482" lon="6.67462">
        <ele>1537.5999756</ele>
        <time>2013-07-27T06:01:07Z</time>
      </trkpt>
      <trkpt lat="45.5247" lon="6.67468">
        <ele>1537.1999512</ele>
        <time>2013-07-27T06:01:15Z</time>
      </trkpt>
      <trkpt lat="45.52464" lon="6.67472">
        <ele>1537.8000488</ele>
        <time>2013-07-27T06:01:22Z</time>
      </trkpt>
      <trkpt lat="45.52459" lon="6.67479">
        <ele>1537.8000488</ele>
        <time>2013-07-27T06:01:27Z</time>
      </trkpt>
      <trkpt lat="45.52458" lon="6.6749">
        <ele>1538</ele>
        <time>2013-07-27T06:01:35Z</time>
      </trkpt>
      <trkpt lat="45.52454" lon="6.675">
        <ele>1539</ele>
        <time>2013-07-27T06:01:42Z</time>
      </trkpt>
      <trkpt lat="45.52448" lon="6.67506">
        <ele>1540.5999756</ele>
        <time>2013-07-27T06:01:49Z</time>
      </trkpt>
      <trkpt lat="45.5244" lon="6.67511">
        <ele>1540.5999756</ele>
        <time>2013-07-27T06:01:56Z</time>
      </trkpt>
      <trkpt lat="45.52432" lon="6.67517">
        <ele>1541.1999512</ele>
        <time>2013-07-27T06:02:03Z</time>
      </trkpt>
      <trkpt lat="45.52424" lon="6.67522">
        <ele>1542.4000244</ele>
        <time>2013-07-27T06:02:08Z</time>
      </trkpt>
      <trkpt lat="45.52415" lon="6.67528">
        <ele>1542.1999512</ele>
        <time>2013-07-27T06:02:15Z</time>
      </trkpt>
      <trkpt lat="45.52409" lon="6.67532">
        <ele>1542.1999512</ele>
        <time>2013-07-27T06:02:20Z</time>
      </trkpt>
      <trkpt lat="45.52401" lon="6.6754">
        <ele>1542</ele>
        <time>2013-07-27T06:02:26Z</time>
      </trkpt>
      <trkpt lat="45.52394" lon="6.67549">
        <ele>1543.1999512</ele>
        <time>2013-07-27T06:02:34Z</time>
      </trkpt>
      <trkpt lat="45.52388" lon="6.67555">
        <ele>1544.5999756</ele>
        <time>2013-07-27T06:02:41Z</time>
      </trkpt>
      <trkpt lat="45.52382" lon="6.6756">
        <ele>1545.4000244</ele>
        <time>2013-07-27T06:02:47Z</time>
      </trkpt>
      <trkpt lat="45.52374" lon="6.67568">
        <ele>1546.8000488</ele>
        <time>2013-07-27T06:02:54Z</time>
      </trkpt>
      <trkpt lat="45.52369" lon="6.67572">
        <ele>1548.1999512</ele>
        <time>2013-07-27T06:02:58Z</time>
      </trkpt>
      <trkpt lat="45.52361" lon="6.67574">
        <ele>1550.8000488</ele>
        <time>2013-07-27T06:03:05Z</time>
      </trkpt>
      <trkpt lat="45.52351" lon="6.67572">
        <ele>1551.1999512</ele>
        <time>2013-07-27T06:03:10Z</time>
      </trkpt>
      <trkpt lat="45.52345" lon="6.67569">
        <ele>1548.4000244</ele>
        <time>2013-07-27T06:03:14Z</time>
      </trkpt>
      <trkpt lat="45.52337" lon="6.67572">
        <ele>1545.5999756</ele>
        <time>2013-07-27T06:03:21Z</time>
      </trkpt>
      <trkpt lat="45.52331" lon="6.67577">
        <ele>1548.8000488</ele>
        <time>2013-07-27T06:03:27Z</time>
      </trkpt>
      <trkpt lat="45.52328" lon="6.67585">
        <ele>1554.8000488</ele>
        <time>2013-07-27T06:03:32Z</time>
      </trkpt>
      <trkpt lat="45.52332" lon="6.67589">
        <ele>1558.5999756</ele>
        <time>2013-07-27T06:03:40Z</time>
      </trkpt>
      <trkpt lat="45.52337" lon="6.67583">
        <ele>1558.5999756</ele>
        <time>2013-07-27T06:03:45Z</time>
      </trkpt>
      <trkpt lat="45.52343" lon="6.67575">
        <ele>1559.8000488</ele>
        <time>2013-07-27T06:03:51Z</time>
      </trkpt>
      <trkpt lat="45.52351" lon="6.67568">
        <ele>1563.5999756</ele>
        <time>2013-07-27T06:03:58Z</time>
      </trkpt>
      <trkpt lat="45.52357" lon="6.67561">
        <ele>1567.1999512</ele>
        <time>2013-07-27T06:04:05Z</time>
      </trkpt>
      <trkpt lat="45.52364" lon="6.67557">
        <ele>1569.4000244</ele>
        <time>2013-07-27T06:04:12Z</time>
      </trkpt>
      <trkpt lat="45.52369" lon="6.67544">
        <ele>1571</ele>
        <time>2013-07-27T06:04:20Z</time>
      </trkpt>
      <trkpt lat="45.52372" lon="6.67531">
        <ele>1572.1999512</ele>
        <time>2013-07-27T06:04:28Z</time>
      </trkpt>
      <trkpt lat="45.52372" lon="6.67519">
        <ele>1573</ele>
        <time>2013-07-27T06:04:35Z</time>
      </trkpt>
      <trkpt lat="45.52369" lon="6.67509">
        <ele>1573.1999512</ele>
        <time>2013-07-27T06:04:41Z</time>
      </trkpt>
      <trkpt lat="45.52363" lon="6.67503">
        <ele>1572.8000488</ele>
        <time>2013-07-27T06:04:48Z</time>
      </trkpt>
      <trkpt lat="45.52357" lon="6.675">
        <ele>1573.1999512</ele>
        <time>2013-07-27T06:04:54Z</time>
      </trkpt>
      <trkpt lat="45.52351" lon="6.67502">
        <ele>1574.5999756</ele>
        <time>2013-07-27T06:05:00Z</time>
      </trkpt>
      <trkpt lat="45.52348" lon="6.6751">
        <ele>1578.4000244</ele>
        <time>2013-07-27T06:05:09Z</time>
      </trkpt>
      <trkpt lat="45.52344" lon="6.67517">
        <ele>1582.8000488</ele>
        <time>2013-07-27T06:05:18Z</time>
      </trkpt>
      <trkpt lat="45.5234" lon="6.67525">
        <ele>1585</ele>
        <time>2013-07-27T06:05:22Z</time>
      </trkpt>
      <trkpt lat="45.52333" lon="6.67534">
        <ele>1586</ele>
        <time>2013-07-27T06:05:28Z</time>
      </trkpt>
      <trkpt lat="45.52325" lon="6.67543">
        <ele>1585.8000488</ele>
        <time>2013-07-27T06:05:32Z</time>
      </trkpt>
      <trkpt lat="45.5232" lon="6.67549">
        <ele>1585.4000244</ele>
        <time>2013-07-27T06:05:36Z</time>
      </trkpt>
      <trkpt lat="45.5231" lon="6.67563">
        <ele>1585.8000488</ele>
        <time>2013-07-27T06:05:42Z</time>
      </trkpt>
      <trkpt lat="45.52306" lon="6.6757">
        <ele>1586.4000244</ele>
        <time>2013-07-27T06:05:45Z</time>
      </trkpt>
      <trkpt lat="45.523" lon="6.67576">
        <ele>1586.4000244</ele>
        <time>2013-07-27T06:05:49Z</time>
      </trkpt>
      <trkpt lat="45.52296" lon="6.67591">
        <ele>1589</ele>
        <time>2013-07-27T06:05:54Z</time>
      </trkpt>
      <trkpt lat="45.52297" lon="6.67602">
        <ele>1592.1999512</ele>
        <time>2013-07-27T06:05:59Z</time>
      </trkpt>
      <trkpt lat="45.52295" lon="6.67611">
        <ele>1594.1999512</ele>
        <time>2013-07-27T06:06:03Z</time>
      </trkpt>
      <trkpt lat="45.52294" lon="6.67625">
        <ele>1592.4000244</ele>
        <time>2013-07-27T06:06:08Z</time>
      </trkpt>
      <trkpt lat="45.52292" lon="6.67637">
        <ele>1589.8000488</ele>
        <time>2013-07-27T06:06:14Z</time>
      </trkpt>
      <trkpt lat="45.52291" lon="6.67649">
        <ele>1588.8000488</ele>
        <time>2013-07-27T06:06:18Z</time>
      </trkpt>
      <trkpt lat="45.52291" lon="6.67661">
        <ele>1587.5999756</ele>
        <time>2013-07-27T06:06:24Z</time>
      </trkpt>
      <trkpt lat="45.52297" lon="6.67674">
        <ele>1585</ele>
        <time>2013-07-27T06:06:29Z</time>
      </trkpt>
      <trkpt lat="45.52302" lon="6.67681">
        <ele>1582.1999512</ele>
        <time>2013-07-27T06:06:33Z</time>
      </trkpt>
      <trkpt lat="45.52312" lon="6.67687">
        <ele>1581.8000488</ele>
        <time>2013-07-27T06:06:39Z</time>
      </trkpt>
      <trkpt lat="45.52323" lon="6.67693">
        <ele>1583.1999512</ele>
        <time>2013-07-27T06:06:46Z</time>
      </trkpt>
      <trkpt lat="45.52334" lon="6.67701">
        <ele>1585</ele>
        <time>2013-07-27T06:06:51Z</time>
      </trkpt>
      <trkpt lat="45.5234" lon="6.67708">
        <ele>1586</ele>
        <time>2013-07-27T06:06:56Z</time>
      </trkpt>
      <trkpt lat="45.52346" lon="6.67719">
        <ele>1586.5999756</ele>
        <time>2013-07-27T06:07:00Z</time>
      </trkpt>
      <trkpt lat="45.52349" lon="6.67728">
        <ele>1587</ele>
        <time>2013-07-27T06:07:07Z</time>
      </trkpt>
      <trkpt lat="45.52341" lon="6.67737">
        <ele>1587.4000244</ele>
        <time>2013-07-27T06:07:12Z</time>
      </trkpt>
      <trkpt lat="45.52336" lon="6.67748">
        <ele>1587.8000488</ele>
        <time>2013-07-27T06:07:18Z</time>
      </trkpt>
      <trkpt lat="45.52324" lon="6.67756">
        <ele>1587.8000488</ele>
        <time>2013-07-27T06:07:28Z</time>
      </trkpt>
      <trkpt lat="45.52316" lon="6.67757">
        <ele>1586.1999512</ele>
        <time>2013-07-27T06:07:35Z</time>
      </trkpt>
      <trkpt lat="45.5231" lon="6.67751">
        <ele>1585.8000488</ele>
        <time>2013-07-27T06:07:40Z</time>
      </trkpt>
      <trkpt lat="45.52304" lon="6.67733">
        <ele>1585.1999512</ele>
        <time>2013-07-27T06:07:51Z</time>
      </trkpt>
      <trkpt lat="45.52296" lon="6.6773">
        <ele>1582.4000244</ele>
        <time>2013-07-27T06:07:58Z</time>
      </trkpt>
      <trkpt lat="45.52287" lon="6.67723">
        <ele>1581.4000244</ele>
        <time>2013-07-27T06:08:04Z</time>
      </trkpt>
      <trkpt lat="45.52277" lon="6.67723">
        <ele>1582.1999512</ele>
        <time>2013-07-27T06:08:11Z</time>
      </trkpt>
      <trkpt lat="45.52274" lon="6.6773">
        <ele>1585.4000244</ele>
        <time>2013-07-27T06:08:18Z</time>
      </trkpt>
      <trkpt lat="45.5227" lon="6.67739">
        <ele>1589.8000488</ele>
        <time>2013-07-27T06:08:27Z</time>
      </trkpt>
      <trkpt lat="45.52264" lon="6.67748">
        <ele>1592.1999512</ele>
        <time>2013-07-27T06:08:33Z</time>
      </trkpt>
      <trkpt lat="45.52263" lon="6.67757">
        <ele>1588.5999756</ele>
        <time>2013-07-27T06:08:47Z</time>
      </trkpt>
      <trkpt lat="45.52259" lon="6.67767">
        <ele>1589.4000244</ele>
        <time>2013-07-27T06:08:55Z</time>
      </trkpt>
      <trkpt lat="45.52256" lon="6.67774">
        <ele>1589</ele>
        <time>2013-07-27T06:09:01Z</time>
      </trkpt>
      <trkpt lat="45.52253" lon="6.67783">
        <ele>1588.8000488</ele>
        <time>2013-07-27T06:09:06Z</time>
      </trkpt>
      <trkpt lat="45.5225" lon="6.67792">
        <ele>1590</ele>
        <time>2013-07-27T06:09:12Z</time>
      </trkpt>
      <trkpt lat="45.52243" lon="6.67799">
        <ele>1590.4000244</ele>
        <time>2013-07-27T06:09:19Z</time>
      </trkpt>
      <trkpt lat="45.52237" lon="6.67803">
        <ele>1589</ele>
        <time>2013-07-27T06:09:25Z</time>
      </trkpt>
      <trkpt lat="45.52229" lon="6.67809">
        <ele>1588.4000244</ele>
        <time>2013-07-27T06:09:31Z</time>
      </trkpt>
      <trkpt lat="45.52222" lon="6.67816">
        <ele>1589</ele>
        <time>2013-07-27T06:09:36Z</time>
      </trkpt>
      <trkpt lat="45.52217" lon="6.67825">
        <ele>1590.5999756</ele>
        <time>2013-07-27T06:09:41Z</time>
      </trkpt>
      <trkpt lat="45.52211" lon="6.67835">
        <ele>1592.8000488</ele>
        <time>2013-07-27T06:09:50Z</time>
      </trkpt>
      <trkpt lat="45.52205" lon="6.67839">
        <ele>1594.5999756</ele>
        <time>2013-07-27T06:09:56Z</time>
      </trkpt>
      <trkpt lat="45.522" lon="6.67844">
        <ele>1596.8000488</ele>
        <time>2013-07-27T06:10:03Z</time>
      </trkpt>
      <trkpt lat="45.52195" lon="6.67854">
        <ele>1598.8000488</ele>
        <time>2013-07-27T06:10:11Z</time>
      </trkpt>
      <trkpt lat="45.5219" lon="6.67864">
        <ele>1600.5999756</ele>
        <time>2013-07-27T06:10:19Z</time>
      </trkpt>
      <trkpt lat="45.52185" lon="6.67874">
        <ele>1602.4000244</ele>
        <time>2013-07-27T06:10:26Z</time>
      </trkpt>
      <trkpt lat="45.5218" lon="6.67883">
        <ele>1603.8000488</ele>
        <time>2013-07-27T06:10:33Z</time>
      </trkpt>
      <trkpt lat="45.52174" lon="6.67891">
        <ele>1605</ele>
        <time>2013-07-27T06:10:39Z</time>
      </trkpt>
      <trkpt lat="45.52166" lon="6.67897">
        <ele>1606.4000244</ele>
        <time>2013-07-27T06:10:46Z</time>
      </trkpt>
      <trkpt lat="45.5216" lon="6.679">
        <ele>1607.1999512</ele>
        <time>2013-07-27T06:10:51Z</time>
      </trkpt>
      <trkpt lat="45.52154" lon="6.679">
        <ele>1608.1999512</ele>
        <time>2013-07-27T06:10:56Z</time>
      </trkpt>
      <trkpt lat="45.52147" lon="6.67897">
        <ele>1610.1999512</ele>
        <time>2013-07-27T06:11:02Z</time>
      </trkpt>
      <trkpt lat="45.52144" lon="6.67889">
        <ele>1613.1999512</ele>
        <time>2013-07-27T06:11:10Z</time>
      </trkpt>
      <trkpt lat="45.52146" lon="6.67881">
        <ele>1614.5999756</ele>
        <time>2013-07-27T06:11:18Z</time>
      </trkpt>
      <trkpt lat="45.52151" lon="6.67871">
        <ele>1616.4000244</ele>
        <time>2013-07-27T06:11:24Z</time>
      </trkpt>
      <trkpt lat="45.52152" lon="6.67861">
        <ele>1619</ele>
        <time>2013-07-27T06:11:29Z</time>
      </trkpt>
      <trkpt lat="45.52152" lon="6.67852">
        <ele>1619.5999756</ele>
        <time>2013-07-27T06:11:32Z</time>
      </trkpt>
      <trkpt lat="45.5215" lon="6.67838">
        <ele>1620.4000244</ele>
        <time>2013-07-27T06:11:39Z</time>
      </trkpt>
      <trkpt lat="45.52148" lon="6.67826">
        <ele>1621.1999512</ele>
        <time>2013-07-27T06:11:46Z</time>
      </trkpt>
      <trkpt lat="45.52145" lon="6.67816">
        <ele>1622.5999756</ele>
        <time>2013-07-27T06:11:51Z</time>
      </trkpt>
      <trkpt lat="45.52139" lon="6.67808">
        <ele>1622.5999756</ele>
        <time>2013-07-27T06:11:57Z</time>
      </trkpt>
      <trkpt lat="45.52136" lon="6.67788">
        <ele>1622.5999756</ele>
        <time>2013-07-27T06:12:07Z</time>
      </trkpt>
      <trkpt lat="45.52133" lon="6.67778">
        <ele>1623.5999756</ele>
        <time>2013-07-27T06:12:11Z</time>
      </trkpt>
      <trkpt lat="45.52128" lon="6.67767">
        <ele>1624.8000488</ele>
        <time>2013-07-27T06:12:16Z</time>
      </trkpt>
      <trkpt lat="45.52118" lon="6.67764">
        <ele>1626.4000244</ele>
        <time>2013-07-27T06:12:22Z</time>
      </trkpt>
      <trkpt lat="45.52111" lon="6.67763">
        <ele>1628.1999512</ele>
        <time>2013-07-27T06:12:28Z</time>
      </trkpt>
      <trkpt lat="45.52104" lon="6.67767">
        <ele>1628.4000244</ele>
        <time>2013-07-27T06:12:32Z</time>
      </trkpt>
      <trkpt lat="45.52102" lon="6.67767">
        <ele>1627.1999512</ele>
        <time>2013-07-27T06:12:48Z</time>
      </trkpt>
      <trkpt lat="45.52111" lon="6.67774">
        <ele>1626.5999756</ele>
        <time>2013-07-27T06:12:57Z</time>
      </trkpt>
      <trkpt lat="45.52114" lon="6.67782">
        <ele>1626.8000488</ele>
        <time>2013-07-27T06:13:02Z</time>
      </trkpt>
      <trkpt lat="45.52112" lon="6.67793">
        <ele>1625.4000244</ele>
        <time>2013-07-27T06:13:09Z</time>
      </trkpt>
      <trkpt lat="45.5211" lon="6.67801">
        <ele>1624.4000244</ele>
        <time>2013-07-27T06:13:13Z</time>
      </trkpt>
      <trkpt lat="45.52107" lon="6.6781">
        <ele>1625.8000488</ele>
        <time>2013-07-27T06:13:21Z</time>
      </trkpt>
      <trkpt lat="45.52106" lon="6.67821">
        <ele>1629</ele>
        <time>2013-07-27T06:13:29Z</time>
      </trkpt>
      <trkpt lat="45.52106" lon="6.67831">
        <ele>1630</ele>
        <time>2013-07-27T06:13:34Z</time>
      </trkpt>
      <trkpt lat="45.52105" lon="6.67844">
        <ele>1631.4000244</ele>
        <time>2013-07-27T06:13:41Z</time>
      </trkpt>
      <trkpt lat="45.52103" lon="6.67854">
        <ele>1632.4000244</ele>
        <time>2013-07-27T06:13:45Z</time>
      </trkpt>
      <trkpt lat="45.52103" lon="6.67869">
        <ele>1633</ele>
        <time>2013-07-27T06:13:54Z</time>
      </trkpt>
      <trkpt lat="45.52101" lon="6.67878">
        <ele>1633.4000244</ele>
        <time>2013-07-27T06:13:59Z</time>
      </trkpt>
      <trkpt lat="45.521" lon="6.67887">
        <ele>1634.1999512</ele>
        <time>2013-07-27T06:14:03Z</time>
      </trkpt>
      <trkpt lat="45.52099" lon="6.67897">
        <ele>1634.5999756</ele>
        <time>2013-07-27T06:14:08Z</time>
      </trkpt>
      <trkpt lat="45.52098" lon="6.67909">
        <ele>1635</ele>
        <time>2013-07-27T06:14:15Z</time>
      </trkpt>
      <trkpt lat="45.52095" lon="6.67918">
        <ele>1636.1999512</ele>
        <time>2013-07-27T06:14:20Z</time>
      </trkpt>
      <trkpt lat="45.52093" lon="6.67931">
        <ele>1637.4000244</ele>
        <time>2013-07-27T06:14:27Z</time>
      </trkpt>
      <trkpt lat="45.52091" lon="6.67941">
        <ele>1637.1999512</ele>
        <time>2013-07-27T06:14:32Z</time>
      </trkpt>
      <trkpt lat="45.52089" lon="6.67952">
        <ele>1635.8000488</ele>
        <time>2013-07-27T06:14:39Z</time>
      </trkpt>
      <trkpt lat="45.52084" lon="6.67961">
        <ele>1635.1999512</ele>
        <time>2013-07-27T06:14:46Z</time>
      </trkpt>
      <trkpt lat="45.52078" lon="6.6797">
        <ele>1636.8000488</ele>
        <time>2013-07-27T06:14:53Z</time>
      </trkpt>
      <trkpt lat="45.52071" lon="6.67974">
        <ele>1638.4000244</ele>
        <time>2013-07-27T06:15:00Z</time>
      </trkpt>
      <trkpt lat="45.52063" lon="6.67976">
        <ele>1640</ele>
        <time>2013-07-27T06:15:05Z</time>
      </trkpt>
      <trkpt lat="45.52058" lon="6.67968">
        <ele>1640.8000488</ele>
        <time>2013-07-27T06:15:10Z</time>
      </trkpt>
      <trkpt lat="45.52057" lon="6.67956">
        <ele>1641.4000244</ele>
        <time>2013-07-27T06:15:16Z</time>
      </trkpt>
      <trkpt lat="45.52058" lon="6.67946">
        <ele>1644.8000488</ele>
        <time>2013-07-27T06:15:23Z</time>
      </trkpt>
      <trkpt lat="45.52061" lon="6.67938">
        <ele>1647.4000244</ele>
        <time>2013-07-27T06:15:30Z</time>
      </trkpt>
      <trkpt lat="45.52063" lon="6.67928">
        <ele>1650.1999512</ele>
        <time>2013-07-27T06:15:37Z</time>
      </trkpt>
      <trkpt lat="45.52054" lon="6.67918">
        <ele>1653.5999756</ele>
        <time>2013-07-27T06:15:46Z</time>
      </trkpt>
      <trkpt lat="45.52049" lon="6.67911">
        <ele>1652.1999512</ele>
        <time>2013-07-27T06:15:51Z</time>
      </trkpt>
      <trkpt lat="45.5205" lon="6.67901">
        <ele>1651.4000244</ele>
        <time>2013-07-27T06:15:56Z</time>
      </trkpt>
      <trkpt lat="45.52049" lon="6.6789">
        <ele>1653</ele>
        <time>2013-07-27T06:16:04Z</time>
      </trkpt>
      <trkpt lat="45.52049" lon="6.67878">
        <ele>1654</ele>
        <time>2013-07-27T06:16:09Z</time>
      </trkpt>
      <trkpt lat="45.5205" lon="6.67867">
        <ele>1654.5999756</ele>
        <time>2013-07-27T06:16:15Z</time>
      </trkpt>
      <trkpt lat="45.5205" lon="6.67858">
        <ele>1655.5999756</ele>
        <time>2013-07-27T06:16:20Z</time>
      </trkpt>
      <trkpt lat="45.52047" lon="6.67846">
        <ele>1656.5999756</ele>
        <time>2013-07-27T06:16:27Z</time>
      </trkpt>
      <trkpt lat="45.52042" lon="6.67839">
        <ele>1657</ele>
        <time>2013-07-27T06:16:33Z</time>
      </trkpt>
      <trkpt lat="45.52037" lon="6.67831">
        <ele>1657.4000244</ele>
        <time>2013-07-27T06:16:39Z</time>
      </trkpt>
      <trkpt lat="45.52034" lon="6.67823">
        <ele>1658</ele>
        <time>2013-07-27T06:16:43Z</time>
      </trkpt>
      <trkpt lat="45.52032" lon="6.67807">
        <ele>1659.1999512</ele>
        <time>2013-07-27T06:16:49Z</time>
      </trkpt>
      <trkpt lat="45.52028" lon="6.67796">
        <ele>1661.1999512</ele>
        <time>2013-07-27T06:16:56Z</time>
      </trkpt>
      <trkpt lat="45.52023" lon="6.67793">
        <ele>1664.8000488</ele>
        <time>2013-07-27T06:17:06Z</time>
      </trkpt>
      <trkpt lat="45.52018" lon="6.67801">
        <ele>1669.8000488</ele>
        <time>2013-07-27T06:17:17Z</time>
      </trkpt>
      <trkpt lat="45.52023" lon="6.67811">
        <ele>1668.8000488</ele>
        <time>2013-07-27T06:17:25Z</time>
      </trkpt>
      <trkpt lat="45.52025" lon="6.67822">
        <ele>1669.5999756</ele>
        <time>2013-07-27T06:17:34Z</time>
      </trkpt>
      <trkpt lat="45.52026" lon="6.67831">
        <ele>1670.5999756</ele>
        <time>2013-07-27T06:17:40Z</time>
      </trkpt>
      <trkpt lat="45.52029" lon="6.67842">
        <ele>1672.1999512</ele>
        <time>2013-07-27T06:17:47Z</time>
      </trkpt>
      <trkpt lat="45.52028" lon="6.67853">
        <ele>1673.1999512</ele>
        <time>2013-07-27T06:17:53Z</time>
      </trkpt>
      <trkpt lat="45.52026" lon="6.67864">
        <ele>1673.4000244</ele>
        <time>2013-07-27T06:18:00Z</time>
      </trkpt>
      <trkpt lat="45.52025" lon="6.67877">
        <ele>1673</ele>
        <time>2013-07-27T06:18:06Z</time>
      </trkpt>
      <trkpt lat="45.52024" lon="6.67889">
        <ele>1672.4000244</ele>
        <time>2013-07-27T06:18:10Z</time>
      </trkpt>
      <trkpt lat="45.52024" lon="6.679">
        <ele>1671.5999756</ele>
        <time>2013-07-27T06:18:15Z</time>
      </trkpt>
      <trkpt lat="45.52023" lon="6.67913">
        <ele>1671</ele>
        <time>2013-07-27T06:18:21Z</time>
      </trkpt>
      <trkpt lat="45.52019" lon="6.67927">
        <ele>1671.4000244</ele>
        <time>2013-07-27T06:18:29Z</time>
      </trkpt>
      <trkpt lat="45.52013" lon="6.67934">
        <ele>1671.8000488</ele>
        <time>2013-07-27T06:18:34Z</time>
      </trkpt>
      <trkpt lat="45.52008" lon="6.67941">
        <ele>1670.8000488</ele>
        <time>2013-07-27T06:18:40Z</time>
      </trkpt>
      <trkpt lat="45.52002" lon="6.67952">
        <ele>1671.5999756</ele>
        <time>2013-07-27T06:18:48Z</time>
      </trkpt>
      <trkpt lat="45.51995" lon="6.6796">
        <ele>1671.8000488</ele>
        <time>2013-07-27T06:18:54Z</time>
      </trkpt>
      <trkpt lat="45.51989" lon="6.67971">
        <ele>1669.5999756</ele>
        <time>2013-07-27T06:19:00Z</time>
      </trkpt>
      <trkpt lat="45.5199" lon="6.67983">
        <ele>1667.5999756</ele>
        <time>2013-07-27T06:19:06Z</time>
      </trkpt>
      <trkpt lat="45.51989" lon="6.67993">
        <ele>1672.5999756</ele>
        <time>2013-07-27T06:19:13Z</time>
      </trkpt>
      <trkpt lat="45.51996" lon="6.68">
        <ele>1676.8000488</ele>
        <time>2013-07-27T06:19:18Z</time>
      </trkpt>
      <trkpt lat="45.51999" lon="6.68011">
        <ele>1679.1999512</ele>
        <time>2013-07-27T06:19:23Z</time>
      </trkpt>
      <trkpt lat="45.52" lon="6.68022">
        <ele>1681.4000244</ele>
        <time>2013-07-27T06:19:29Z</time>
      </trkpt>
      <trkpt lat="45.52" lon="6.68035">
        <ele>1685.5999756</ele>
        <time>2013-07-27T06:19:37Z</time>
      </trkpt>
      <trkpt lat="45.52" lon="6.68044">
        <ele>1689.1999512</ele>
        <time>2013-07-27T06:19:42Z</time>
      </trkpt>
      <trkpt lat="45.51998" lon="6.68056">
        <ele>1691.4000244</ele>
        <time>2013-07-27T06:19:48Z</time>
      </trkpt>
      <trkpt lat="45.51991" lon="6.68061">
        <ele>1691</ele>
        <time>2013-07-27T06:20:01Z</time>
      </trkpt>
      <trkpt lat="45.51988" lon="6.6807">
        <ele>1689.5999756</ele>
        <time>2013-07-27T06:20:16Z</time>
      </trkpt>
      <trkpt lat="45.51983" lon="6.68084">
        <ele>1689.1999512</ele>
        <time>2013-07-27T06:20:21Z</time>
      </trkpt>
      <trkpt lat="45.51977" lon="6.68078">
        <ele>1689.4000244</ele>
        <time>2013-07-27T06:20:25Z</time>
      </trkpt>
      <trkpt lat="45.51972" lon="6.68071">
        <ele>1689.8000488</ele>
        <time>2013-07-27T06:20:28Z</time>
      </trkpt>
      <trkpt lat="45.51968" lon="6.68058">
        <ele>1691.4000244</ele>
        <time>2013-07-27T06:20:33Z</time>
      </trkpt>
      <trkpt lat="45.51969" lon="6.68044">
        <ele>1691.8000488</ele>
        <time>2013-07-27T06:20:38Z</time>
      </trkpt>
      <trkpt lat="45.51971" lon="6.68034">
        <ele>1691.1999512</ele>
        <time>2013-07-27T06:20:41Z</time>
      </trkpt>
      <trkpt lat="45.51975" lon="6.68025">
        <ele>1691</ele>
        <time>2013-07-27T06:20:44Z</time>
      </trkpt>
      <trkpt lat="45.51977" lon="6.68015">
        <ele>1690.4000244</ele>
        <time>2013-07-27T06:20:47Z</time>
      </trkpt>
      <trkpt lat="45.51976" lon="6.68004">
        <ele>1689.4000244</ele>
        <time>2013-07-27T06:20:50Z</time>
      </trkpt>
      <trkpt lat="45.51974" lon="6.67991">
        <ele>1688.4000244</ele>
        <time>2013-07-27T06:20:54Z</time>
      </trkpt>
      <trkpt lat="45.51975" lon="6.67976">
        <ele>1686.5999756</ele>
        <time>2013-07-27T06:20:59Z</time>
      </trkpt>
      <trkpt lat="45.51977" lon="6.67968">
        <ele>1686.4000244</ele>
        <time>2013-07-27T06:21:02Z</time>
      </trkpt>
      <trkpt lat="45.51979" lon="6.67959">
        <ele>1686.1999512</ele>
        <time>2013-07-27T06:21:05Z</time>
      </trkpt>
      <trkpt lat="45.5198" lon="6.67949">
        <ele>1685.8000488</ele>
        <time>2013-07-27T06:21:08Z</time>
      </trkpt>
      <trkpt lat="45.51983" lon="6.67939">
        <ele>1685.4000244</ele>
        <time>2013-07-27T06:21:11Z</time>
      </trkpt>
      <trkpt lat="45.51986" lon="6.6793">
        <ele>1685</ele>
        <time>2013-07-27T06:21:14Z</time>
      </trkpt>
      <trkpt lat="45.51988" lon="6.6792">
        <ele>1684.8000488</ele>
        <time>2013-07-27T06:21:17Z</time>
      </trkpt>
      <trkpt lat="45.51992" lon="6.67909">
        <ele>1684.5999756</ele>
        <time>2013-07-27T06:21:20Z</time>
      </trkpt>
      <trkpt lat="45.51995" lon="6.67899">
        <ele>1684.8000488</ele>
        <time>2013-07-27T06:21:23Z</time>
      </trkpt>
      <trkpt lat="45.51996" lon="6.6788">
        <ele>1685.1999512</ele>
        <time>2013-07-27T06:21:28Z</time>
      </trkpt>
      <trkpt lat="45.51994" lon="6.67871">
        <ele>1685</ele>
        <time>2013-07-27T06:21:30Z</time>
      </trkpt>
      <trkpt lat="45.51992" lon="6.67858">
        <ele>1684.5999756</ele>
        <time>2013-07-27T06:21:33Z</time>
      </trkpt>
      <trkpt lat="45.51988" lon="6.67848">
        <ele>1684.1999512</ele>
        <time>2013-07-27T06:21:36Z</time>
      </trkpt>
      <trkpt lat="45.51984" lon="6.67838">
        <ele>1683.5999756</ele>
        <time>2013-07-27T06:21:39Z</time>
      </trkpt>
      <trkpt lat="45.51982" lon="6.67827">
        <ele>1684.1999512</ele>
        <time>2013-07-27T06:21:42Z</time>
      </trkpt>
      <trkpt lat="45.51986" lon="6.6782">
        <ele>1684.8000488</ele>
        <time>2013-07-27T06:21:45Z</time>
      </trkpt>
      <trkpt lat="45.51988" lon="6.67809">
        <ele>1685.8000488</ele>
        <time>2013-07-27T06:21:48Z</time>
      </trkpt>
      <trkpt lat="45.51992" lon="6.67795">
        <ele>1687.4000244</ele>
        <time>2013-07-27T06:21:52Z</time>
      </trkpt>
      <trkpt lat="45.51992" lon="6.67784">
        <ele>1687.4000244</ele>
        <time>2013-07-27T06:21:55Z</time>
      </trkpt>
      <trkpt lat="45.51993" lon="6.67772">
        <ele>1687.4000244</ele>
        <time>2013-07-27T06:22:00Z</time>
      </trkpt>
      <trkpt lat="45.51998" lon="6.67764">
        <ele>1687.4000244</ele>
        <time>2013-07-27T06:22:03Z</time>
      </trkpt>
      <trkpt lat="45.52003" lon="6.67752">
        <ele>1686.4000244</ele>
        <time>2013-07-27T06:22:06Z</time>
      </trkpt>
      <trkpt lat="45.52004" lon="6.67736">
        <ele>1684.1999512</ele>
        <time>2013-07-27T06:22:10Z</time>
      </trkpt>
      <trkpt lat="45.52005" lon="6.67724">
        <ele>1682.8000488</ele>
        <time>2013-07-27T06:22:13Z</time>
      </trkpt>
      <trkpt lat="45.52002" lon="6.67708">
        <ele>1681.5999756</ele>
        <time>2013-07-27T06:22:17Z</time>
      </trkpt>
      <trkpt lat="45.51999" lon="6.6769">
        <ele>1682.1999512</ele>
        <time>2013-07-27T06:22:22Z</time>
      </trkpt>
      <trkpt lat="45.51997" lon="6.67673">
        <ele>1683.1999512</ele>
        <time>2013-07-27T06:22:27Z</time>
      </trkpt>
      <trkpt lat="45.51992" lon="6.67659">
        <ele>1684.4000244</ele>
        <time>2013-07-27T06:22:32Z</time>
      </trkpt>
      <trkpt lat="45.51988" lon="6.67651">
        <ele>1685</ele>
        <time>2013-07-27T06:22:35Z</time>
      </trkpt>
      <trkpt lat="45.51979" lon="6.67642">
        <ele>1684.5999756</ele>
        <time>2013-07-27T06:22:40Z</time>
      </trkpt>
      <trkpt lat="45.51979" lon="6.67625">
        <ele>1683.4000244</ele>
        <time>2013-07-27T06:22:44Z</time>
      </trkpt>
      <trkpt lat="45.51986" lon="6.67613">
        <ele>1683.5999756</ele>
        <time>2013-07-27T06:22:49Z</time>
      </trkpt>
      <trkpt lat="45.51992" lon="6.67604">
        <ele>1685.4000244</ele>
        <time>2013-07-27T06:22:53Z</time>
      </trkpt>
      <trkpt lat="45.52002" lon="6.67591">
        <ele>1686</ele>
        <time>2013-07-27T06:22:58Z</time>
      </trkpt>
      <trkpt lat="45.52011" lon="6.67579">
        <ele>1686.1999512</ele>
        <time>2013-07-27T06:23:03Z</time>
      </trkpt>
      <trkpt lat="45.5202" lon="6.67569">
        <ele>1687.8000488</ele>
        <time>2013-07-27T06:23:07Z</time>
      </trkpt>
      <trkpt lat="45.52025" lon="6.67561">
        <ele>1688</ele>
        <time>2013-07-27T06:23:10Z</time>
      </trkpt>
      <trkpt lat="45.5203" lon="6.67555">
        <ele>1688.4000244</ele>
        <time>2013-07-27T06:23:12Z</time>
      </trkpt>
      <trkpt lat="45.52036" lon="6.67548">
        <ele>1688.1999512</ele>
        <time>2013-07-27T06:23:14Z</time>
      </trkpt>
      <trkpt lat="45.52045" lon="6.67536">
        <ele>1686.1999512</ele>
        <time>2013-07-27T06:23:19Z</time>
      </trkpt>
      <trkpt lat="45.52051" lon="6.67528">
        <ele>1684.4000244</ele>
        <time>2013-07-27T06:23:22Z</time>
      </trkpt>
      <trkpt lat="45.52058" lon="6.67513">
        <ele>1680.4000244</ele>
        <time>2013-07-27T06:23:27Z</time>
      </trkpt>
      <trkpt lat="45.52065" lon="6.67498">
        <ele>1677.8000488</ele>
        <time>2013-07-27T06:23:33Z</time>
      </trkpt>
      <trkpt lat="45.52076" lon="6.67474">
        <ele>1676.8000488</ele>
        <time>2013-07-27T06:23:40Z</time>
      </trkpt>
      <trkpt lat="45.52082" lon="6.67465">
        <ele>1676.1999512</ele>
        <time>2013-07-27T06:23:43Z</time>
      </trkpt>
      <trkpt lat="45.52086" lon="6.67459">
        <ele>1675</ele>
        <time>2013-07-27T06:23:45Z</time>
      </trkpt>
      <trkpt lat="45.52094" lon="6.67451">
        <ele>1673.8000488</ele>
        <time>2013-07-27T06:23:48Z</time>
      </trkpt>
      <trkpt lat="45.52105" lon="6.67437">
        <ele>1669.8000488</ele>
        <time>2013-07-27T06:23:53Z</time>
      </trkpt>
      <trkpt lat="45.52113" lon="6.67429">
        <ele>1668</ele>
        <time>2013-07-27T06:23:56Z</time>
      </trkpt>
      <trkpt lat="45.52121" lon="6.67418">
        <ele>1665</ele>
        <time>2013-07-27T06:24:00Z</time>
      </trkpt>
      <trkpt lat="45.52128" lon="6.6741">
        <ele>1664.8000488</ele>
        <time>2013-07-27T06:24:03Z</time>
      </trkpt>
      <trkpt lat="45.52131" lon="6.674">
        <ele>1665.1999512</ele>
        <time>2013-07-27T06:24:06Z</time>
      </trkpt>
      <trkpt lat="45.52137" lon="6.67384">
        <ele>1666.5999756</ele>
        <time>2013-07-27T06:24:11Z</time>
      </trkpt>
      <trkpt lat="45.5214" lon="6.67368">
        <ele>1666.4000244</ele>
        <time>2013-07-27T06:24:16Z</time>
      </trkpt>
      <trkpt lat="45.52145" lon="6.67353">
        <ele>1665.1999512</ele>
        <time>2013-07-27T06:24:21Z</time>
      </trkpt>
      <trkpt lat="45.52148" lon="6.67341">
        <ele>1664</ele>
        <time>2013-07-27T06:24:25Z</time>
      </trkpt>
      <trkpt lat="45.52151" lon="6.67332">
        <ele>1663.8000488</ele>
        <time>2013-07-27T06:24:31Z</time>
      </trkpt>
      <trkpt lat="45.52156" lon="6.67323">
        <ele>1664.5999756</ele>
        <time>2013-07-27T06:24:36Z</time>
      </trkpt>
      <trkpt lat="45.52162" lon="6.67313">
        <ele>1665.8000488</ele>
        <time>2013-07-27T06:24:41Z</time>
      </trkpt>
      <trkpt lat="45.52169" lon="6.67305">
        <ele>1666</ele>
        <time>2013-07-27T06:24:43Z</time>
      </trkpt>
      <trkpt lat="45.52178" lon="6.67289">
        <ele>1665.5999756</ele>
        <time>2013-07-27T06:24:48Z</time>
      </trkpt>
      <trkpt lat="45.52183" lon="6.67279">
        <ele>1664.5999756</ele>
        <time>2013-07-27T06:24:51Z</time>
      </trkpt>
      <trkpt lat="45.52191" lon="6.67268">
        <ele>1662.5999756</ele>
        <time>2013-07-27T06:24:56Z</time>
      </trkpt>
      <trkpt lat="45.52196" lon="6.67259">
        <ele>1661.8000488</ele>
        <time>2013-07-27T06:24:59Z</time>
      </trkpt>
      <trkpt lat="45.52201" lon="6.67252">
        <ele>1661</ele>
        <time>2013-07-27T06:25:02Z</time>
      </trkpt>
      <trkpt lat="45.52203" lon="6.67242">
        <ele>1661.5999756</ele>
        <time>2013-07-27T06:25:06Z</time>
      </trkpt>
      <trkpt lat="45.52206" lon="6.67233">
        <ele>1663.1999512</ele>
        <time>2013-07-27T06:25:08Z</time>
      </trkpt>
      <trkpt lat="45.52213" lon="6.67225">
        <ele>1666.4000244</ele>
        <time>2013-07-27T06:25:13Z</time>
      </trkpt>
      <trkpt lat="45.52221" lon="6.67213">
        <ele>1669.5999756</ele>
        <time>2013-07-27T06:25:18Z</time>
      </trkpt>
      <trkpt lat="45.52227" lon="6.67203">
        <ele>1671</ele>
        <time>2013-07-27T06:25:24Z</time>
      </trkpt>
      <trkpt lat="45.52232" lon="6.67197">
        <ele>1672</ele>
        <time>2013-07-27T06:25:27Z</time>
      </trkpt>
      <trkpt lat="45.52239" lon="6.67188">
        <ele>1673.5999756</ele>
        <time>2013-07-27T06:25:32Z</time>
      </trkpt>
      <trkpt lat="45.52245" lon="6.6718">
        <ele>1676.5999756</ele>
        <time>2013-07-27T06:25:36Z</time>
      </trkpt>
      <trkpt lat="45.5225" lon="6.67174">
        <ele>1679.8000488</ele>
        <time>2013-07-27T06:25:40Z</time>
      </trkpt>
      <trkpt lat="45.52256" lon="6.6717">
        <ele>1682.5999756</ele>
        <time>2013-07-27T06:25:45Z</time>
      </trkpt>
      <trkpt lat="45.52263" lon="6.67163">
        <ele>1682.8000488</ele>
        <time>2013-07-27T06:25:51Z</time>
      </trkpt>
      <trkpt lat="45.5227" lon="6.67156">
        <ele>1680.8000488</ele>
        <time>2013-07-27T06:25:56Z</time>
      </trkpt>
      <trkpt lat="45.52276" lon="6.67148">
        <ele>1678.1999512</ele>
        <time>2013-07-27T06:26:02Z</time>
      </trkpt>
      <trkpt lat="45.5228" lon="6.67139">
        <ele>1677.1999512</ele>
        <time>2013-07-27T06:26:08Z</time>
      </trkpt>
      <trkpt lat="45.52282" lon="6.67128">
        <ele>1676.8000488</ele>
        <time>2013-07-27T06:26:14Z</time>
      </trkpt>
      <trkpt lat="45.52282" lon="6.67116">
        <ele>1677</ele>
        <time>2013-07-27T06:26:19Z</time>
      </trkpt>
      <trkpt lat="45.52284" lon="6.67106">
        <ele>1677.5999756</ele>
        <time>2013-07-27T06:26:24Z</time>
      </trkpt>
      <trkpt lat="45.52286" lon="6.67097">
        <ele>1678.1999512</ele>
        <time>2013-07-27T06:26:29Z</time>
      </trkpt>
      <trkpt lat="45.5229" lon="6.67082">
        <ele>1678.1999512</ele>
        <time>2013-07-27T06:26:36Z</time>
      </trkpt>
      <trkpt lat="45.5229" lon="6.67071">
        <ele>1677.1999512</ele>
        <time>2013-07-27T06:26:41Z</time>
      </trkpt>
      <trkpt lat="45.52291" lon="6.67062">
        <ele>1677</ele>
        <time>2013-07-27T06:26:46Z</time>
      </trkpt>
      <trkpt lat="45.52291" lon="6.67051">
        <ele>1677.5999756</ele>
        <time>2013-07-27T06:26:51Z</time>
      </trkpt>
      <trkpt lat="45.52288" lon="6.67039">
        <ele>1677.1999512</ele>
        <time>2013-07-27T06:26:56Z</time>
      </trkpt>
      <trkpt lat="45.52285" lon="6.67023">
        <ele>1675.8000488</ele>
        <time>2013-07-27T06:27:02Z</time>
      </trkpt>
      <trkpt lat="45.52283" lon="6.67012">
        <ele>1674.5999756</ele>
        <time>2013-07-27T06:27:07Z</time>
      </trkpt>
      <trkpt lat="45.5228" lon="6.67001">
        <ele>1673.4000244</ele>
        <time>2013-07-27T06:27:12Z</time>
      </trkpt>
      <trkpt lat="45.52279" lon="6.66988">
        <ele>1674.4000244</ele>
        <time>2013-07-27T06:27:18Z</time>
      </trkpt>
      <trkpt lat="45.52279" lon="6.66976">
        <ele>1677.5999756</ele>
        <time>2013-07-27T06:27:26Z</time>
      </trkpt>
      <trkpt lat="45.52276" lon="6.66958">
        <ele>1678</ele>
        <time>2013-07-27T06:27:37Z</time>
      </trkpt>
      <trkpt lat="45.52277" lon="6.66948">
        <ele>1677</ele>
        <time>2013-07-27T06:27:42Z</time>
      </trkpt>
      <trkpt lat="45.52279" lon="6.66939">
        <ele>1677.4000244</ele>
        <time>2013-07-27T06:27:46Z</time>
      </trkpt>
      <trkpt lat="45.52281" lon="6.66929">
        <ele>1679.1999512</ele>
        <time>2013-07-27T06:27:51Z</time>
      </trkpt>
      <trkpt lat="45.52284" lon="6.66917">
        <ele>1681.4000244</ele>
        <time>2013-07-27T06:27:56Z</time>
      </trkpt>
      <trkpt lat="45.52291" lon="6.66902">
        <ele>1683</ele>
        <time>2013-07-27T06:28:02Z</time>
      </trkpt>
      <trkpt lat="45.52296" lon="6.66894">
        <ele>1684.1999512</ele>
        <time>2013-07-27T06:28:05Z</time>
      </trkpt>
      <trkpt lat="45.52301" lon="6.66883">
        <ele>1687</ele>
        <time>2013-07-27T06:28:09Z</time>
      </trkpt>
      <trkpt lat="45.52304" lon="6.66868">
        <ele>1689</ele>
        <time>2013-07-27T06:28:14Z</time>
      </trkpt>
      <trkpt lat="45.52303" lon="6.66852">
        <ele>1687.8000488</ele>
        <time>2013-07-27T06:28:18Z</time>
      </trkpt>
      <trkpt lat="45.52302" lon="6.66841">
        <ele>1684.1999512</ele>
        <time>2013-07-27T06:28:23Z</time>
      </trkpt>
      <trkpt lat="45.52301" lon="6.66832">
        <ele>1682.1999512</ele>
        <time>2013-07-27T06:28:28Z</time>
      </trkpt>
      <trkpt lat="45.52298" lon="6.66821">
        <ele>1682.1999512</ele>
        <time>2013-07-27T06:28:33Z</time>
      </trkpt>
      <trkpt lat="45.52297" lon="6.66806">
        <ele>1683.1999512</ele>
        <time>2013-07-27T06:28:41Z</time>
      </trkpt>
      <trkpt lat="45.52296" lon="6.66793">
        <ele>1684.5999756</ele>
        <time>2013-07-27T06:28:46Z</time>
      </trkpt>
      <trkpt lat="45.52295" lon="6.66778">
        <ele>1684.5999756</ele>
        <time>2013-07-27T06:28:51Z</time>
      </trkpt>
      <trkpt lat="45.52292" lon="6.66767">
        <ele>1682.4000244</ele>
        <time>2013-07-27T06:28:56Z</time>
      </trkpt>
      <trkpt lat="45.52291" lon="6.66751">
        <ele>1678.5999756</ele>
        <time>2013-07-27T06:29:02Z</time>
      </trkpt>
      <trkpt lat="45.52291" lon="6.66737">
        <ele>1674.5999756</ele>
        <time>2013-07-27T06:29:06Z</time>
      </trkpt>
      <trkpt lat="45.52288" lon="6.66725">
        <ele>1672</ele>
        <time>2013-07-27T06:29:12Z</time>
      </trkpt>
      <trkpt lat="45.52287" lon="6.66713">
        <ele>1672</ele>
        <time>2013-07-27T06:29:17Z</time>
      </trkpt>
      <trkpt lat="45.5229" lon="6.66697">
        <ele>1675.1999512</ele>
        <time>2013-07-27T06:29:22Z</time>
      </trkpt>
      <trkpt lat="45.52285" lon="6.66686">
        <ele>1678.8000488</ele>
        <time>2013-07-27T06:29:27Z</time>
      </trkpt>
      <trkpt lat="45.52282" lon="6.66676">
        <ele>1681</ele>
        <time>2013-07-27T06:29:32Z</time>
      </trkpt>
      <trkpt lat="45.52278" lon="6.66664">
        <ele>1680.5999756</ele>
        <time>2013-07-27T06:29:36Z</time>
      </trkpt>
      <trkpt lat="45.52274" lon="6.66651">
        <ele>1680.4000244</ele>
        <time>2013-07-27T06:29:41Z</time>
      </trkpt>
      <trkpt lat="45.52267" lon="6.66641">
        <ele>1680.8000488</ele>
        <time>2013-07-27T06:29:46Z</time>
      </trkpt>
      <trkpt lat="45.52261" lon="6.66631">
        <ele>1681.8000488</ele>
        <time>2013-07-27T06:29:50Z</time>
      </trkpt>
      <trkpt lat="45.52251" lon="6.6662">
        <ele>1682.5999756</ele>
        <time>2013-07-27T06:29:55Z</time>
      </trkpt>
      <trkpt lat="45.52244" lon="6.66607">
        <ele>1682.8000488</ele>
        <time>2013-07-27T06:30:00Z</time>
      </trkpt>
      <trkpt lat="45.52241" lon="6.66589">
        <ele>1683.5999756</ele>
        <time>2013-07-27T06:30:06Z</time>
      </trkpt>
      <trkpt lat="45.5224" lon="6.66576">
        <ele>1687.5999756</ele>
        <time>2013-07-27T06:30:14Z</time>
      </trkpt>
      <trkpt lat="45.52235" lon="6.66565">
        <ele>1692.5999756</ele>
        <time>2013-07-27T06:30:22Z</time>
      </trkpt>
      <trkpt lat="45.52227" lon="6.66556">
        <ele>1694.5999756</ele>
        <time>2013-07-27T06:30:30Z</time>
      </trkpt>
      <trkpt lat="45.52222" lon="6.6655">
        <ele>1694.8000488</ele>
        <time>2013-07-27T06:30:35Z</time>
      </trkpt>
      <trkpt lat="45.52216" lon="6.66544">
        <ele>1695.1999512</ele>
        <time>2013-07-27T06:30:40Z</time>
      </trkpt>
      <trkpt lat="45.52208" lon="6.66536">
        <ele>1695</ele>
        <time>2013-07-27T06:30:47Z</time>
      </trkpt>
      <trkpt lat="45.52201" lon="6.66528">
        <ele>1694.8000488</ele>
        <time>2013-07-27T06:30:53Z</time>
      </trkpt>
      <trkpt lat="45.52195" lon="6.66521">
        <ele>1695.4000244</ele>
        <time>2013-07-27T06:31:00Z</time>
      </trkpt>
      <trkpt lat="45.52187" lon="6.66517">
        <ele>1695.8000488</ele>
        <time>2013-07-27T06:31:07Z</time>
      </trkpt>
      <trkpt lat="45.52182" lon="6.66511">
        <ele>1696.8000488</ele>
        <time>2013-07-27T06:31:12Z</time>
      </trkpt>
      <trkpt lat="45.52176" lon="6.66507">
        <ele>1697.4000244</ele>
        <time>2013-07-27T06:31:17Z</time>
      </trkpt>
      <trkpt lat="45.52171" lon="6.665">
        <ele>1697.8000488</ele>
        <time>2013-07-27T06:31:22Z</time>
      </trkpt>
      <trkpt lat="45.52168" lon="6.66491">
        <ele>1699.1999512</ele>
        <time>2013-07-27T06:31:27Z</time>
      </trkpt>
      <trkpt lat="45.52164" lon="6.66481">
        <ele>1701.4000244</ele>
        <time>2013-07-27T06:31:33Z</time>
      </trkpt>
      <trkpt lat="45.52161" lon="6.66469">
        <ele>1704.4000244</ele>
        <time>2013-07-27T06:31:38Z</time>
      </trkpt>
      <trkpt lat="45.52155" lon="6.66465">
        <ele>1706.8000488</ele>
        <time>2013-07-27T06:31:43Z</time>
      </trkpt>
      <trkpt lat="45.52152" lon="6.66456">
        <ele>1711.1999512</ele>
        <time>2013-07-27T06:31:50Z</time>
      </trkpt>
      <trkpt lat="45.52143" lon="6.66447">
        <ele>1714.5999756</ele>
        <time>2013-07-27T06:31:59Z</time>
      </trkpt>
      <trkpt lat="45.52134" lon="6.66439">
        <ele>1713.8000488</ele>
        <time>2013-07-27T06:32:05Z</time>
      </trkpt>
      <trkpt lat="45.52125" lon="6.66432">
        <ele>1711.4000244</ele>
        <time>2013-07-27T06:32:10Z</time>
      </trkpt>
      <trkpt lat="45.52117" lon="6.66429">
        <ele>1709.5999756</ele>
        <time>2013-07-27T06:32:15Z</time>
      </trkpt>
      <trkpt lat="45.52111" lon="6.66422">
        <ele>1709</ele>
        <time>2013-07-27T06:32:20Z</time>
      </trkpt>
      <trkpt lat="45.52104" lon="6.66416">
        <ele>1708.1999512</ele>
        <time>2013-07-27T06:32:27Z</time>
      </trkpt>
      <trkpt lat="45.52095" lon="6.66414">
        <ele>1708.8000488</ele>
        <time>2013-07-27T06:32:35Z</time>
      </trkpt>
      <trkpt lat="45.52087" lon="6.66412">
        <ele>1709.8000488</ele>
        <time>2013-07-27T06:32:43Z</time>
      </trkpt>
      <trkpt lat="45.52081" lon="6.66409">
        <ele>1710.1999512</ele>
        <time>2013-07-27T06:32:48Z</time>
      </trkpt>
      <trkpt lat="45.52074" lon="6.66408">
        <ele>1710.4000244</ele>
        <time>2013-07-27T06:32:53Z</time>
      </trkpt>
      <trkpt lat="45.52065" lon="6.66406">
        <ele>1710.1999512</ele>
        <time>2013-07-27T06:33:01Z</time>
      </trkpt>
      <trkpt lat="45.52057" lon="6.66401">
        <ele>1712.1999512</ele>
        <time>2013-07-27T06:33:09Z</time>
      </trkpt>
      <trkpt lat="45.5205" lon="6.66398">
        <ele>1715.4000244</ele>
        <time>2013-07-27T06:33:20Z</time>
      </trkpt>
      <trkpt lat="45.52042" lon="6.66396">
        <ele>1719.4000244</ele>
        <time>2013-07-27T06:33:27Z</time>
      </trkpt>
      <trkpt lat="45.52032" lon="6.66395">
        <ele>1721.8000488</ele>
        <time>2013-07-27T06:33:33Z</time>
      </trkpt>
      <trkpt lat="45.52021" lon="6.66393">
        <ele>1723.4000244</ele>
        <time>2013-07-27T06:33:40Z</time>
      </trkpt>
      <trkpt lat="45.52012" lon="6.66393">
        <ele>1726</ele>
        <time>2013-07-27T06:33:47Z</time>
      </trkpt>
      <trkpt lat="45.52005" lon="6.66394">
        <ele>1727.4000244</ele>
        <time>2013-07-27T06:33:52Z</time>
      </trkpt>
      <trkpt lat="45.51996" lon="6.66393">
        <ele>1728.8000488</ele>
        <time>2013-07-27T06:34:01Z</time>
      </trkpt>
      <trkpt lat="45.51989" lon="6.66392">
        <ele>1731.5999756</ele>
        <time>2013-07-27T06:34:08Z</time>
      </trkpt>
      <trkpt lat="45.51981" lon="6.66394">
        <ele>1735</ele>
        <time>2013-07-27T06:34:16Z</time>
      </trkpt>
      <trkpt lat="45.51976" lon="6.66386">
        <ele>1739.5999756</ele>
        <time>2013-07-27T06:34:25Z</time>
      </trkpt>
      <trkpt lat="45.51973" lon="6.66378">
        <ele>1742.8000488</ele>
        <time>2013-07-27T06:34:34Z</time>
      </trkpt>
      <trkpt lat="45.5197" lon="6.66369">
        <ele>1745.4000244</ele>
        <time>2013-07-27T06:34:42Z</time>
      </trkpt>
      <trkpt lat="45.51966" lon="6.66361">
        <ele>1752.5999756</ele>
        <time>2013-07-27T06:35:00Z</time>
      </trkpt>
      <trkpt lat="45.5196" lon="6.66358">
        <ele>1756.1999512</ele>
        <time>2013-07-27T06:35:08Z</time>
      </trkpt>
      <trkpt lat="45.51954" lon="6.66355">
        <ele>1757.1999512</ele>
        <time>2013-07-27T06:35:13Z</time>
      </trkpt>
      <trkpt lat="45.51946" lon="6.66354">
        <ele>1762.1999512</ele>
        <time>2013-07-27T06:35:26Z</time>
      </trkpt>
      <trkpt lat="45.51938" lon="6.66354">
        <ele>1765.5999756</ele>
        <time>2013-07-27T06:35:36Z</time>
      </trkpt>
      <trkpt lat="45.51931" lon="6.66349">
        <ele>1766.5999756</ele>
        <time>2013-07-27T06:35:45Z</time>
      </trkpt>
      <trkpt lat="45.51923" lon="6.66335">
        <ele>1767.1999512</ele>
        <time>2013-07-27T06:36:00Z</time>
      </trkpt>
      <trkpt lat="45.51919" lon="6.66328">
        <ele>1769.4000244</ele>
        <time>2013-07-27T06:36:07Z</time>
      </trkpt>
      <trkpt lat="45.51912" lon="6.66324">
        <ele>1772</ele>
        <time>2013-07-27T06:36:14Z</time>
      </trkpt>
      <trkpt lat="45.51906" lon="6.66317">
        <ele>1775.5999756</ele>
        <time>2013-07-27T06:36:22Z</time>
      </trkpt>
      <trkpt lat="45.51901" lon="6.6631">
        <ele>1778</ele>
        <time>2013-07-27T06:36:28Z</time>
      </trkpt>
      <trkpt lat="45.51898" lon="6.66297">
        <ele>1780</ele>
        <time>2013-07-27T06:36:36Z</time>
      </trkpt>
      <trkpt lat="45.51894" lon="6.66287">
        <ele>1781</ele>
        <time>2013-07-27T06:36:47Z</time>
      </trkpt>
      <trkpt lat="45.51891" lon="6.66277">
        <ele>1783.1999512</ele>
        <time>2013-07-27T06:36:55Z</time>
      </trkpt>
      <trkpt lat="45.51886" lon="6.6627">
        <ele>1784.5999756</ele>
        <time>2013-07-27T06:37:00Z</time>
      </trkpt>
      <trkpt lat="45.51881" lon="6.66261">
        <ele>1785.4000244</ele>
        <time>2013-07-27T06:37:08Z</time>
      </trkpt>
      <trkpt lat="45.51873" lon="6.6625">
        <ele>1786.1999512</ele>
        <time>2013-07-27T06:37:19Z</time>
      </trkpt>
      <trkpt lat="45.51867" lon="6.66241">
        <ele>1786.5999756</ele>
        <time>2013-07-27T06:37:29Z</time>
      </trkpt>
      <trkpt lat="45.5186" lon="6.66234">
        <ele>1786.8000488</ele>
        <time>2013-07-27T06:37:37Z</time>
      </trkpt>
      <trkpt lat="45.51855" lon="6.66224">
        <ele>1790.5999756</ele>
        <time>2013-07-27T06:37:47Z</time>
      </trkpt>
      <trkpt lat="45.51851" lon="6.66216">
        <ele>1794.4000244</ele>
        <time>2013-07-27T06:37:55Z</time>
      </trkpt>
      <trkpt lat="45.51844" lon="6.66209">
        <ele>1797.1999512</ele>
        <time>2013-07-27T06:38:02Z</time>
      </trkpt>
      <trkpt lat="45.51839" lon="6.662">
        <ele>1799</ele>
        <time>2013-07-27T06:38:11Z</time>
      </trkpt>
      <trkpt lat="45.51832" lon="6.66192">
        <ele>1799.8000488</ele>
        <time>2013-07-27T06:38:18Z</time>
      </trkpt>
      <trkpt lat="45.51825" lon="6.66185">
        <ele>1800.5999756</ele>
        <time>2013-07-27T06:38:25Z</time>
      </trkpt>
      <trkpt lat="45.5182" lon="6.6618">
        <ele>1801.8000488</ele>
        <time>2013-07-27T06:38:31Z</time>
      </trkpt>
      <trkpt lat="45.51814" lon="6.66172">
        <ele>1803.4000244</ele>
        <time>2013-07-27T06:38:40Z</time>
      </trkpt>
      <trkpt lat="45.51806" lon="6.66163">
        <ele>1802.4000244</ele>
        <time>2013-07-27T06:38:45Z</time>
      </trkpt>
      <trkpt lat="45.51797" lon="6.66157">
        <ele>1800</ele>
        <time>2013-07-27T06:38:51Z</time>
      </trkpt>
      <trkpt lat="45.51791" lon="6.6615">
        <ele>1798.8000488</ele>
        <time>2013-07-27T06:38:58Z</time>
      </trkpt>
      <trkpt lat="45.51784" lon="6.66144">
        <ele>1800.4000244</ele>
        <time>2013-07-27T06:39:06Z</time>
      </trkpt>
      <trkpt lat="45.51779" lon="6.66138">
        <ele>1801.1999512</ele>
        <time>2013-07-27T06:39:12Z</time>
      </trkpt>
      <trkpt lat="45.51775" lon="6.66131">
        <ele>1801.8000488</ele>
        <time>2013-07-27T06:39:18Z</time>
      </trkpt>
      <trkpt lat="45.51769" lon="6.66125">
        <ele>1803.1999512</ele>
        <time>2013-07-27T06:39:25Z</time>
      </trkpt>
      <trkpt lat="45.51764" lon="6.66118">
        <ele>1804</ele>
        <time>2013-07-27T06:39:32Z</time>
      </trkpt>
      <trkpt lat="45.51759" lon="6.6611">
        <ele>1803.5999756</ele>
        <time>2013-07-27T06:39:40Z</time>
      </trkpt>
      <trkpt lat="45.51754" lon="6.66102">
        <ele>1803.5999756</ele>
        <time>2013-07-27T06:39:45Z</time>
      </trkpt>
      <trkpt lat="45.51747" lon="6.66094">
        <ele>1803</ele>
        <time>2013-07-27T06:39:54Z</time>
      </trkpt>
      <trkpt lat="45.5174" lon="6.6609">
        <ele>1800.5999756</ele>
        <time>2013-07-27T06:39:58Z</time>
      </trkpt>
      <trkpt lat="45.51735" lon="6.66081">
        <ele>1797.8000488</ele>
        <time>2013-07-27T06:40:04Z</time>
      </trkpt>
      <trkpt lat="45.51734" lon="6.66069">
        <ele>1797.1999512</ele>
        <time>2013-07-27T06:40:11Z</time>
      </trkpt>
      <trkpt lat="45.51731" lon="6.66057">
        <ele>1797.8000488</ele>
        <time>2013-07-27T06:40:19Z</time>
      </trkpt>
      <trkpt lat="45.51728" lon="6.66048">
        <ele>1797.8000488</ele>
        <time>2013-07-27T06:40:25Z</time>
      </trkpt>
      <trkpt lat="45.51724" lon="6.66037">
        <ele>1797.1999512</ele>
        <time>2013-07-27T06:40:31Z</time>
      </trkpt>
      <trkpt lat="45.5172" lon="6.66028">
        <ele>1796.1999512</ele>
        <time>2013-07-27T06:40:36Z</time>
      </trkpt>
      <trkpt lat="45.51715" lon="6.66019">
        <ele>1795.4000244</ele>
        <time>2013-07-27T06:40:42Z</time>
      </trkpt>
      <trkpt lat="45.51711" lon="6.66012">
        <ele>1796</ele>
        <time>2013-07-27T06:40:47Z</time>
      </trkpt>
      <trkpt lat="45.51703" lon="6.66009">
        <ele>1798.4000244</ele>
        <time>2013-07-27T06:40:54Z</time>
      </trkpt>
      <trkpt lat="45.51696" lon="6.66008">
        <ele>1800</ele>
        <time>2013-07-27T06:40:59Z</time>
      </trkpt>
      <trkpt lat="45.51689" lon="6.66008">
        <ele>1802</ele>
        <time>2013-07-27T06:41:04Z</time>
      </trkpt>
      <trkpt lat="45.51684" lon="6.66">
        <ele>1803.4000244</ele>
        <time>2013-07-27T06:41:12Z</time>
      </trkpt>
      <trkpt lat="45.51678" lon="6.66002">
        <ele>1805.1999512</ele>
        <time>2013-07-27T06:41:19Z</time>
      </trkpt>
      <trkpt lat="45.5167" lon="6.66005">
        <ele>1808.4000244</ele>
        <time>2013-07-27T06:41:27Z</time>
      </trkpt>
      <trkpt lat="45.51666" lon="6.65996">
        <ele>1810.1999512</ele>
        <time>2013-07-27T06:41:40Z</time>
      </trkpt>
      <trkpt lat="45.51661" lon="6.65996">
        <ele>1813</ele>
        <time>2013-07-27T06:41:50Z</time>
      </trkpt>
      <trkpt lat="45.51652" lon="6.65993">
        <ele>1816.4000244</ele>
        <time>2013-07-27T06:42:01Z</time>
      </trkpt>
      <trkpt lat="45.51646" lon="6.65992">
        <ele>1822</ele>
        <time>2013-07-27T06:42:16Z</time>
      </trkpt>
      <trkpt lat="45.5164" lon="6.65989">
        <ele>1825.4000244</ele>
        <time>2013-07-27T06:42:26Z</time>
      </trkpt>
      <trkpt lat="45.51635" lon="6.65982">
        <ele>1825.1999512</ele>
        <time>2013-07-27T06:42:35Z</time>
      </trkpt>
      <trkpt lat="45.51628" lon="6.65983">
        <ele>1825</ele>
        <time>2013-07-27T06:42:43Z</time>
      </trkpt>
      <trkpt lat="45.51622" lon="6.65983">
        <ele>1826.4000244</ele>
        <time>2013-07-27T06:42:50Z</time>
      </trkpt>
      <trkpt lat="45.51615" lon="6.65983">
        <ele>1828.1999512</ele>
        <time>2013-07-27T06:43:00Z</time>
      </trkpt>
      <trkpt lat="45.51612" lon="6.65988">
        <ele>1827</ele>
        <time>2013-07-27T06:43:14Z</time>
      </trkpt>
      <trkpt lat="45.51614" lon="6.65996">
        <ele>1827.8000488</ele>
        <time>2013-07-27T06:43:24Z</time>
      </trkpt>
      <trkpt lat="45.51616" lon="6.66005">
        <ele>1829</ele>
        <time>2013-07-27T06:43:34Z</time>
      </trkpt>
      <trkpt lat="45.51617" lon="6.66015">
        <ele>1829.4000244</ele>
        <time>2013-07-27T06:43:46Z</time>
      </trkpt>
      <trkpt lat="45.51616" lon="6.66025">
        <ele>1830.1999512</ele>
        <time>2013-07-27T06:43:56Z</time>
      </trkpt>
      <trkpt lat="45.51616" lon="6.66034">
        <ele>1830.8000488</ele>
        <time>2013-07-27T06:44:06Z</time>
      </trkpt>
      <trkpt lat="45.51614" lon="6.66043">
        <ele>1832.4000244</ele>
        <time>2013-07-27T06:44:15Z</time>
      </trkpt>
      <trkpt lat="45.51617" lon="6.66052">
        <ele>1836.8000488</ele>
        <time>2013-07-27T06:44:25Z</time>
      </trkpt>
      <trkpt lat="45.51617" lon="6.66061">
        <ele>1840.4000244</ele>
        <time>2013-07-27T06:44:33Z</time>
      </trkpt>
      <trkpt lat="45.51612" lon="6.66071">
        <ele>1840.4000244</ele>
        <time>2013-07-27T06:44:42Z</time>
      </trkpt>
      <trkpt lat="45.5161" lon="6.66083">
        <ele>1843.8000488</ele>
        <time>2013-07-27T06:44:54Z</time>
      </trkpt>
      <trkpt lat="45.51608" lon="6.66093">
        <ele>1841.1999512</ele>
        <time>2013-07-27T06:45:04Z</time>
      </trkpt>
      <trkpt lat="45.51608" lon="6.66106">
        <ele>1841.8000488</ele>
        <time>2013-07-27T06:45:13Z</time>
      </trkpt>
      <trkpt lat="45.51606" lon="6.66117">
        <ele>1844.1999512</ele>
        <time>2013-07-27T06:45:22Z</time>
      </trkpt>
      <trkpt lat="45.51606" lon="6.66126">
        <ele>1846.5999756</ele>
        <time>2013-07-27T06:45:30Z</time>
      </trkpt>
      <trkpt lat="45.51607" lon="6.66135">
        <ele>1849.5999756</ele>
        <time>2013-07-27T06:45:39Z</time>
      </trkpt>
      <trkpt lat="45.51609" lon="6.66146">
        <ele>1854.4000244</ele>
        <time>2013-07-27T06:45:50Z</time>
      </trkpt>
      <trkpt lat="45.51611" lon="6.66155">
        <ele>1855.8000488</ele>
        <time>2013-07-27T06:46:02Z</time>
      </trkpt>
      <trkpt lat="45.51615" lon="6.66164">
        <ele>1858</ele>
        <time>2013-07-27T06:46:11Z</time>
      </trkpt>
      <trkpt lat="45.51617" lon="6.66173">
        <ele>1860.8000488</ele>
        <time>2013-07-27T06:46:22Z</time>
      </trkpt>
      <trkpt lat="45.51617" lon="6.66182">
        <ele>1863.4000244</ele>
        <time>2013-07-27T06:46:33Z</time>
      </trkpt>
      <trkpt lat="45.51619" lon="6.66192">
        <ele>1866.4000244</ele>
        <time>2013-07-27T06:46:47Z</time>
      </trkpt>
      <trkpt lat="45.5162" lon="6.66201">
        <ele>1868</ele>
        <time>2013-07-27T06:46:59Z</time>
      </trkpt>
      <trkpt lat="45.51623" lon="6.66211">
        <ele>1871.1999512</ele>
        <time>2013-07-27T06:47:13Z</time>
      </trkpt>
      <trkpt lat="45.51624" lon="6.66221">
        <ele>1873.4000244</ele>
        <time>2013-07-27T06:47:27Z</time>
      </trkpt>
      <trkpt lat="45.51624" lon="6.66232">
        <ele>1876.8000488</ele>
        <time>2013-07-27T06:47:40Z</time>
      </trkpt>
      <trkpt lat="45.51621" lon="6.66243">
        <ele>1880.1999512</ele>
        <time>2013-07-27T06:47:50Z</time>
      </trkpt>
      <trkpt lat="45.51624" lon="6.66255">
        <ele>1881</ele>
        <time>2013-07-27T06:47:59Z</time>
      </trkpt>
      <trkpt lat="45.51627" lon="6.66265">
        <ele>1881</ele>
        <time>2013-07-27T06:48:07Z</time>
      </trkpt>
      <trkpt lat="45.5163" lon="6.66275">
        <ele>1882.8000488</ele>
        <time>2013-07-27T06:48:16Z</time>
      </trkpt>
      <trkpt lat="45.51631" lon="6.66285">
        <ele>1886.1999512</ele>
        <time>2013-07-27T06:48:26Z</time>
      </trkpt>
      <trkpt lat="45.51636" lon="6.66293">
        <ele>1888.1999512</ele>
        <time>2013-07-27T06:48:35Z</time>
      </trkpt>
      <trkpt lat="45.51637" lon="6.66302">
        <ele>1891</ele>
        <time>2013-07-27T06:48:42Z</time>
      </trkpt>
      <trkpt lat="45.5164" lon="6.66315">
        <ele>1891.8000488</ele>
        <time>2013-07-27T06:48:52Z</time>
      </trkpt>
      <trkpt lat="45.51642" lon="6.66324">
        <ele>1890.8000488</ele>
        <time>2013-07-27T06:48:58Z</time>
      </trkpt>
      <trkpt lat="45.51643" lon="6.66336">
        <ele>1890.5999756</ele>
        <time>2013-07-27T06:49:05Z</time>
      </trkpt>
      <trkpt lat="45.51642" lon="6.66347">
        <ele>1892.8000488</ele>
        <time>2013-07-27T06:49:13Z</time>
      </trkpt>
      <trkpt lat="45.51645" lon="6.66355">
        <ele>1895.1999512</ele>
        <time>2013-07-27T06:49:19Z</time>
      </trkpt>
      <trkpt lat="45.51648" lon="6.66364">
        <ele>1896.1999512</ele>
        <time>2013-07-27T06:49:23Z</time>
      </trkpt>
      <trkpt lat="45.51648" lon="6.66375">
        <ele>1897</ele>
        <time>2013-07-27T06:49:30Z</time>
      </trkpt>
      <trkpt lat="45.5165" lon="6.66387">
        <ele>1896.8000488</ele>
        <time>2013-07-27T06:49:38Z</time>
      </trkpt>
      <trkpt lat="45.51654" lon="6.66396">
        <ele>1896.1999512</ele>
        <time>2013-07-27T06:49:45Z</time>
      </trkpt>
      <trkpt lat="45.51653" lon="6.66408">
        <ele>1897.5999756</ele>
        <time>2013-07-27T06:49:53Z</time>
      </trkpt>
      <trkpt lat="45.51656" lon="6.66419">
        <ele>1900.5999756</ele>
        <time>2013-07-27T06:50:00Z</time>
      </trkpt>
      <trkpt lat="45.51657" lon="6.66431">
        <ele>1903.4000244</ele>
        <time>2013-07-27T06:50:08Z</time>
      </trkpt>
      <trkpt lat="45.51659" lon="6.66442">
        <ele>1905.8000488</ele>
        <time>2013-07-27T06:50:15Z</time>
      </trkpt>
      <trkpt lat="45.51662" lon="6.66455">
        <ele>1907.1999512</ele>
        <time>2013-07-27T06:50:23Z</time>
      </trkpt>
      <trkpt lat="45.51661" lon="6.66466">
        <ele>1907.4000244</ele>
        <time>2013-07-27T06:50:31Z</time>
      </trkpt>
      <trkpt lat="45.5166" lon="6.66476">
        <ele>1908.1999512</ele>
        <time>2013-07-27T06:50:40Z</time>
      </trkpt>
      <trkpt lat="45.51658" lon="6.66485">
        <ele>1908.5999756</ele>
        <time>2013-07-27T06:50:49Z</time>
      </trkpt>
      <trkpt lat="45.51656" lon="6.66493">
        <ele>1911.8000488</ele>
        <time>2013-07-27T06:50:58Z</time>
      </trkpt>
      <trkpt lat="45.51655" lon="6.66502">
        <ele>1914.4000244</ele>
        <time>2013-07-27T06:51:07Z</time>
      </trkpt>
      <trkpt lat="45.51657" lon="6.66515">
        <ele>1918.5999756</ele>
        <time>2013-07-27T06:51:18Z</time>
      </trkpt>
      <trkpt lat="45.51659" lon="6.66524">
        <ele>1923</ele>
        <time>2013-07-27T06:51:25Z</time>
      </trkpt>
      <trkpt lat="45.51659" lon="6.66533">
        <ele>1925</ele>
        <time>2013-07-27T06:51:32Z</time>
      </trkpt>
      <trkpt lat="45.51659" lon="6.66544">
        <ele>1926.4000244</ele>
        <time>2013-07-27T06:51:40Z</time>
      </trkpt>
      <trkpt lat="45.51662" lon="6.66554">
        <ele>1928.1999512</ele>
        <time>2013-07-27T06:51:48Z</time>
      </trkpt>
      <trkpt lat="45.51661" lon="6.66564">
        <ele>1928.5999756</ele>
        <time>2013-07-27T06:51:55Z</time>
      </trkpt>
      <trkpt lat="45.51661" lon="6.66574">
        <ele>1929.1999512</ele>
        <time>2013-07-27T06:52:01Z</time>
      </trkpt>
      <trkpt lat="45.51658" lon="6.66583">
        <ele>1928.8000488</ele>
        <time>2013-07-27T06:52:07Z</time>
      </trkpt>
      <trkpt lat="45.51652" lon="6.66589">
        <ele>1926.5999756</ele>
        <time>2013-07-27T06:52:12Z</time>
      </trkpt>
      <trkpt lat="45.5165" lon="6.66601">
        <ele>1925.4000244</ele>
        <time>2013-07-27T06:52:20Z</time>
      </trkpt>
      <trkpt lat="45.51646" lon="6.66607">
        <ele>1924.4000244</ele>
        <time>2013-07-27T06:52:27Z</time>
      </trkpt>
      <trkpt lat="45.51637" lon="6.66603">
        <ele>1924</ele>
        <time>2013-07-27T06:52:32Z</time>
      </trkpt>
      <trkpt lat="45.5163" lon="6.66601">
        <ele>1924.4000244</ele>
        <time>2013-07-27T06:52:37Z</time>
      </trkpt>
      <trkpt lat="45.51626" lon="6.66608">
        <ele>1929.1999512</ele>
        <time>2013-07-27T06:52:46Z</time>
      </trkpt>
      <trkpt lat="45.5162" lon="6.6661">
        <ele>1933</ele>
        <time>2013-07-27T06:52:56Z</time>
      </trkpt>
      <trkpt lat="45.51619" lon="6.6662">
        <ele>1936</ele>
        <time>2013-07-27T06:53:09Z</time>
      </trkpt>
      <trkpt lat="45.51615" lon="6.66628">
        <ele>1939.4000244</ele>
        <time>2013-07-27T06:53:21Z</time>
      </trkpt>
      <trkpt lat="45.51611" lon="6.66633">
        <ele>1942.8000488</ele>
        <time>2013-07-27T06:53:33Z</time>
      </trkpt>
      <trkpt lat="45.51606" lon="6.66641">
        <ele>1943.4000244</ele>
        <time>2013-07-27T06:53:45Z</time>
      </trkpt>
      <trkpt lat="45.51603" lon="6.66648">
        <ele>1945.4000244</ele>
        <time>2013-07-27T06:54:00Z</time>
      </trkpt>
      <trkpt lat="45.51599" lon="6.66655">
        <ele>1950.4000244</ele>
        <time>2013-07-27T06:54:14Z</time>
      </trkpt>
      <trkpt lat="45.51595" lon="6.66662">
        <ele>1951.1999512</ele>
        <time>2013-07-27T06:54:29Z</time>
      </trkpt>
      <trkpt lat="45.51587" lon="6.66665">
        <ele>1950.5999756</ele>
        <time>2013-07-27T06:54:40Z</time>
      </trkpt>
      <trkpt lat="45.5158" lon="6.6667">
        <ele>1949.8000488</ele>
        <time>2013-07-27T06:54:48Z</time>
      </trkpt>
      <trkpt lat="45.51575" lon="6.66678">
        <ele>1951.1999512</ele>
        <time>2013-07-27T06:55:00Z</time>
      </trkpt>
      <trkpt lat="45.51575" lon="6.66688">
        <ele>1949.8000488</ele>
        <time>2013-07-27T06:55:10Z</time>
      </trkpt>
      <trkpt lat="45.51567" lon="6.66689">
        <ele>1952.4000244</ele>
        <time>2013-07-27T06:55:19Z</time>
      </trkpt>
      <trkpt lat="45.51562" lon="6.66693">
        <ele>1952.4000244</ele>
        <time>2013-07-27T06:55:30Z</time>
      </trkpt>
      <trkpt lat="45.5156" lon="6.66701">
        <ele>1960.1999512</ele>
        <time>2013-07-27T06:55:48Z</time>
      </trkpt>
      <trkpt lat="45.51563" lon="6.66708">
        <ele>1967.8000488</ele>
        <time>2013-07-27T06:56:00Z</time>
      </trkpt>
      <trkpt lat="45.51561" lon="6.66714">
        <ele>1969.5999756</ele>
        <time>2013-07-27T06:56:10Z</time>
      </trkpt>
      <trkpt lat="45.51555" lon="6.66715">
        <ele>1969.5999756</ele>
        <time>2013-07-27T06:56:19Z</time>
      </trkpt>
      <trkpt lat="45.51553" lon="6.66723">
        <ele>1970.4000244</ele>
        <time>2013-07-27T06:56:30Z</time>
      </trkpt>
      <trkpt lat="45.51552" lon="6.66731">
        <ele>1971.8000488</ele>
        <time>2013-07-27T06:56:41Z</time>
      </trkpt>
      <trkpt lat="45.51549" lon="6.66739">
        <ele>1977.5999756</ele>
        <time>2013-07-27T06:56:54Z</time>
      </trkpt>
      <trkpt lat="45.51544" lon="6.66746">
        <ele>1982.4000244</ele>
        <time>2013-07-27T06:57:05Z</time>
      </trkpt>
      <trkpt lat="45.51542" lon="6.66753">
        <ele>1985.4000244</ele>
        <time>2013-07-27T06:57:22Z</time>
      </trkpt>
      <trkpt lat="45.51535" lon="6.66758">
        <ele>1988.1999512</ele>
        <time>2013-07-27T06:57:32Z</time>
      </trkpt>
      <trkpt lat="45.5153" lon="6.66761">
        <ele>1988.8000488</ele>
        <time>2013-07-27T06:57:42Z</time>
      </trkpt>
      <trkpt lat="45.51522" lon="6.66765">
        <ele>1989</ele>
        <time>2013-07-27T06:57:52Z</time>
      </trkpt>
      <trkpt lat="45.51515" lon="6.66764">
        <ele>1992.1999512</ele>
        <time>2013-07-27T06:58:01Z</time>
      </trkpt>
      <trkpt lat="45.51509" lon="6.66765">
        <ele>1994</ele>
        <time>2013-07-27T06:58:10Z</time>
      </trkpt>
      <trkpt lat="45.51504" lon="6.66763">
        <ele>1997.4000244</ele>
        <time>2013-07-27T06:58:24Z</time>
      </trkpt>
      <trkpt lat="45.51497" lon="6.66763">
        <ele>1999.1999512</ele>
        <time>2013-07-27T06:58:29Z</time>
      </trkpt>
      <trkpt lat="45.51491" lon="6.66759">
        <ele>2000.8000488</ele>
        <time>2013-07-27T06:58:35Z</time>
      </trkpt>
      <trkpt lat="45.51487" lon="6.66751">
        <ele>2002</ele>
        <time>2013-07-27T06:58:44Z</time>
      </trkpt>
      <trkpt lat="45.51485" lon="6.66742">
        <ele>2002.8000488</ele>
        <time>2013-07-27T06:58:54Z</time>
      </trkpt>
      <trkpt lat="45.51481" lon="6.66735">
        <ele>2007.4000244</ele>
        <time>2013-07-27T06:59:05Z</time>
      </trkpt>
      <trkpt lat="45.51478" lon="6.66727">
        <ele>2011</ele>
        <time>2013-07-27T06:59:16Z</time>
      </trkpt>
      <trkpt lat="45.51474" lon="6.6672">
        <ele>2017.8000488</ele>
        <time>2013-07-27T06:59:30Z</time>
      </trkpt>
      <trkpt lat="45.51469" lon="6.66713">
        <ele>2020</ele>
        <time>2013-07-27T06:59:40Z</time>
      </trkpt>
      <trkpt lat="45.51463" lon="6.66706">
        <ele>2022</ele>
        <time>2013-07-27T06:59:52Z</time>
      </trkpt>
      <trkpt lat="45.51459" lon="6.66699">
        <ele>2024.1999512</ele>
        <time>2013-07-27T07:00:03Z</time>
      </trkpt>
      <trkpt lat="45.51453" lon="6.66693">
        <ele>2025.4000244</ele>
        <time>2013-07-27T07:00:14Z</time>
      </trkpt>
      <trkpt lat="45.51447" lon="6.66686">
        <ele>2028.4000244</ele>
        <time>2013-07-27T07:00:27Z</time>
      </trkpt>
      <trkpt lat="45.51442" lon="6.6668">
        <ele>2030</ele>
        <time>2013-07-27T07:00:37Z</time>
      </trkpt>
      <trkpt lat="45.51436" lon="6.66672">
        <ele>2032.8000488</ele>
        <time>2013-07-27T07:00:48Z</time>
      </trkpt>
      <trkpt lat="45.51432" lon="6.66664">
        <ele>2035.5999756</ele>
        <time>2013-07-27T07:00:58Z</time>
      </trkpt>
      <trkpt lat="45.51427" lon="6.66659">
        <ele>2037.1999512</ele>
        <time>2013-07-27T07:01:08Z</time>
      </trkpt>
      <trkpt lat="45.51424" lon="6.66652">
        <ele>2041.1999512</ele>
        <time>2013-07-27T07:01:21Z</time>
      </trkpt>
      <trkpt lat="45.5142" lon="6.66643">
        <ele>2043.1999512</ele>
        <time>2013-07-27T07:01:34Z</time>
      </trkpt>
      <trkpt lat="45.51416" lon="6.66633">
        <ele>2045.1999512</ele>
        <time>2013-07-27T07:01:44Z</time>
      </trkpt>
      <trkpt lat="45.51414" lon="6.66623">
        <ele>2046</ele>
        <time>2013-07-27T07:01:52Z</time>
      </trkpt>
      <trkpt lat="45.51411" lon="6.66616">
        <ele>2046.4000244</ele>
        <time>2013-07-27T07:02:01Z</time>
      </trkpt>
      <trkpt lat="45.51412" lon="6.66611">
        <ele>2044.8000488</ele>
        <time>2013-07-27T07:02:12Z</time>
      </trkpt>
      <trkpt lat="45.51408" lon="6.66602">
        <ele>2043.8000488</ele>
        <time>2013-07-27T07:02:17Z</time>
      </trkpt>
      <trkpt lat="45.51403" lon="6.66598">
        <ele>2046.4000244</ele>
        <time>2013-07-27T07:02:23Z</time>
      </trkpt>
      <trkpt lat="45.51397" lon="6.66594">
        <ele>2049.3999023</ele>
        <time>2013-07-27T07:02:31Z</time>
      </trkpt>
      <trkpt lat="45.51392" lon="6.66588">
        <ele>2051.1999512</ele>
        <time>2013-07-27T07:02:40Z</time>
      </trkpt>
      <trkpt lat="45.51387" lon="6.66582">
        <ele>2052.1999512</ele>
        <time>2013-07-27T07:02:47Z</time>
      </trkpt>
      <trkpt lat="45.51381" lon="6.66576">
        <ele>2054.1999512</ele>
        <time>2013-07-27T07:02:55Z</time>
      </trkpt>
      <trkpt lat="45.51376" lon="6.6657">
        <ele>2057.6000977</ele>
        <time>2013-07-27T07:03:05Z</time>
      </trkpt>
      <trkpt lat="45.51369" lon="6.66563">
        <ele>2060.3999023</ele>
        <time>2013-07-27T07:03:16Z</time>
      </trkpt>
      <trkpt lat="45.51362" lon="6.66556">
        <ele>2063</ele>
        <time>2013-07-27T07:03:25Z</time>
      </trkpt>
      <trkpt lat="45.51358" lon="6.66548">
        <ele>2065.6000977</ele>
        <time>2013-07-27T07:03:36Z</time>
      </trkpt>
      <trkpt lat="45.51353" lon="6.6654">
        <ele>2065.6000977</ele>
        <time>2013-07-27T07:03:44Z</time>
      </trkpt>
      <trkpt lat="45.51347" lon="6.66535">
        <ele>2065.1999512</ele>
        <time>2013-07-27T07:03:51Z</time>
      </trkpt>
      <trkpt lat="45.51342" lon="6.66524">
        <ele>2064.8000488</ele>
        <time>2013-07-27T07:03:58Z</time>
      </trkpt>
      <trkpt lat="45.51337" lon="6.66521">
        <ele>2065</ele>
        <time>2013-07-27T07:04:05Z</time>
      </trkpt>
      <trkpt lat="45.5133" lon="6.66527">
        <ele>2065.3999023</ele>
        <time>2013-07-27T07:04:14Z</time>
      </trkpt>
      <trkpt lat="45.51326" lon="6.6652">
        <ele>2065</ele>
        <time>2013-07-27T07:04:19Z</time>
      </trkpt>
      <trkpt lat="45.51326" lon="6.66509">
        <ele>2065.3999023</ele>
        <time>2013-07-27T07:04:24Z</time>
      </trkpt>
      <trkpt lat="45.51322" lon="6.66503">
        <ele>2068.8000488</ele>
        <time>2013-07-27T07:04:37Z</time>
      </trkpt>
      <trkpt lat="45.51318" lon="6.66494">
        <ele>2074.3999023</ele>
        <time>2013-07-27T07:04:49Z</time>
      </trkpt>
      <trkpt lat="45.51312" lon="6.66488">
        <ele>2079.3999023</ele>
        <time>2013-07-27T07:05:02Z</time>
      </trkpt>
      <trkpt lat="45.51307" lon="6.66481">
        <ele>2080.8000488</ele>
        <time>2013-07-27T07:05:11Z</time>
      </trkpt>
      <trkpt lat="45.51299" lon="6.66475">
        <ele>2082.8000488</ele>
        <time>2013-07-27T07:05:22Z</time>
      </trkpt>
      <trkpt lat="45.51292" lon="6.66476">
        <ele>2085.3999023</ele>
        <time>2013-07-27T07:05:31Z</time>
      </trkpt>
      <trkpt lat="45.51286" lon="6.6647">
        <ele>2086.8000488</ele>
        <time>2013-07-27T07:05:41Z</time>
      </trkpt>
      <trkpt lat="45.51278" lon="6.66468">
        <ele>2088.6000977</ele>
        <time>2013-07-27T07:05:50Z</time>
      </trkpt>
      <trkpt lat="45.51273" lon="6.66464">
        <ele>2091</ele>
        <time>2013-07-27T07:06:00Z</time>
      </trkpt>
      <trkpt lat="45.51265" lon="6.66459">
        <ele>2093.3999023</ele>
        <time>2013-07-27T07:06:10Z</time>
      </trkpt>
      <trkpt lat="45.51258" lon="6.66455">
        <ele>2095.1999512</ele>
        <time>2013-07-27T07:06:19Z</time>
      </trkpt>
      <trkpt lat="45.51251" lon="6.66451">
        <ele>2095.8000488</ele>
        <time>2013-07-27T07:06:29Z</time>
      </trkpt>
      <trkpt lat="45.51244" lon="6.66448">
        <ele>2097.8000488</ele>
        <time>2013-07-27T07:06:38Z</time>
      </trkpt>
      <trkpt lat="45.51237" lon="6.66445">
        <ele>2099.1999512</ele>
        <time>2013-07-27T07:06:46Z</time>
      </trkpt>
      <trkpt lat="45.51228" lon="6.66441">
        <ele>2100.3999023</ele>
        <time>2013-07-27T07:06:55Z</time>
      </trkpt>
      <trkpt lat="45.51221" lon="6.66437">
        <ele>2100.8000488</ele>
        <time>2013-07-27T07:07:03Z</time>
      </trkpt>
      <trkpt lat="45.51215" lon="6.66433">
        <ele>2101.3999023</ele>
        <time>2013-07-27T07:07:11Z</time>
      </trkpt>
      <trkpt lat="45.51208" lon="6.66432">
        <ele>2103</ele>
        <time>2013-07-27T07:07:21Z</time>
      </trkpt>
      <trkpt lat="45.51202" lon="6.66432">
        <ele>2105.3999023</ele>
        <time>2013-07-27T07:07:30Z</time>
      </trkpt>
      <trkpt lat="45.51195" lon="6.66435">
        <ele>2107.1999512</ele>
        <time>2013-07-27T07:07:39Z</time>
      </trkpt>
      <trkpt lat="45.51188" lon="6.66435">
        <ele>2109.3999023</ele>
        <time>2013-07-27T07:07:48Z</time>
      </trkpt>
      <trkpt lat="45.51182" lon="6.66435">
        <ele>2111.8000488</ele>
        <time>2013-07-27T07:07:59Z</time>
      </trkpt>
      <trkpt lat="45.51176" lon="6.66432">
        <ele>2113.1999512</ele>
        <time>2013-07-27T07:08:05Z</time>
      </trkpt>
      <trkpt lat="45.51168" lon="6.66436">
        <ele>2114.3999023</ele>
        <time>2013-07-27T07:08:10Z</time>
      </trkpt>
      <trkpt lat="45.51163" lon="6.66444">
        <ele>2113.8000488</ele>
        <time>2013-07-27T07:08:17Z</time>
      </trkpt>
      <trkpt lat="45.51154" lon="6.66444">
        <ele>2114.3999023</ele>
        <time>2013-07-27T07:08:25Z</time>
      </trkpt>
      <trkpt lat="45.51152" lon="6.66453">
        <ele>2114.8000488</ele>
        <time>2013-07-27T07:08:31Z</time>
      </trkpt>
      <trkpt lat="45.51142" lon="6.66457">
        <ele>2112</ele>
        <time>2013-07-27T07:08:39Z</time>
      </trkpt>
      <trkpt lat="45.51136" lon="6.66463">
        <ele>2110.3999023</ele>
        <time>2013-07-27T07:08:44Z</time>
      </trkpt>
      <trkpt lat="45.51129" lon="6.66469">
        <ele>2110.8000488</ele>
        <time>2013-07-27T07:08:49Z</time>
      </trkpt>
      <trkpt lat="45.51121" lon="6.66476">
        <ele>2111.8000488</ele>
        <time>2013-07-27T07:08:56Z</time>
      </trkpt>
      <trkpt lat="45.51116" lon="6.66482">
        <ele>2115.6000977</ele>
        <time>2013-07-27T07:09:04Z</time>
      </trkpt>
      <trkpt lat="45.51109" lon="6.66484">
        <ele>2117.8000488</ele>
        <time>2013-07-27T07:09:12Z</time>
      </trkpt>
      <trkpt lat="45.51101" lon="6.66487">
        <ele>2118.1999512</ele>
        <time>2013-07-27T07:09:19Z</time>
      </trkpt>
      <trkpt lat="45.51094" lon="6.66496">
        <ele>2118.1999512</ele>
        <time>2013-07-27T07:09:27Z</time>
      </trkpt>
      <trkpt lat="45.51088" lon="6.66501">
        <ele>2118</ele>
        <time>2013-07-27T07:09:33Z</time>
      </trkpt>
      <trkpt lat="45.51081" lon="6.66508">
        <ele>2117.6000977</ele>
        <time>2013-07-27T07:09:38Z</time>
      </trkpt>
      <trkpt lat="45.51075" lon="6.66517">
        <ele>2118</ele>
        <time>2013-07-27T07:09:44Z</time>
      </trkpt>
      <trkpt lat="45.51061" lon="6.66534">
        <ele>2118.1999512</ele>
        <time>2013-07-27T07:09:58Z</time>
      </trkpt>
      <trkpt lat="45.51056" lon="6.66541">
        <ele>2119.6000977</ele>
        <time>2013-07-27T07:10:03Z</time>
      </trkpt>
      <trkpt lat="45.5105" lon="6.66554">
        <ele>2120.3999023</ele>
        <time>2013-07-27T07:10:08Z</time>
      </trkpt>
      <trkpt lat="45.51044" lon="6.66567">
        <ele>2119.8000488</ele>
        <time>2013-07-27T07:10:12Z</time>
      </trkpt>
      <trkpt lat="45.5104" lon="6.66575">
        <ele>2119.1999512</ele>
        <time>2013-07-27T07:10:15Z</time>
      </trkpt>
      <trkpt lat="45.5103" lon="6.66587">
        <ele>2119.1999512</ele>
        <time>2013-07-27T07:10:20Z</time>
      </trkpt>
      <trkpt lat="45.51024" lon="6.66598">
        <ele>2119.8000488</ele>
        <time>2013-07-27T07:10:26Z</time>
      </trkpt>
      <trkpt lat="45.51017" lon="6.66605">
        <ele>2120.3999023</ele>
        <time>2013-07-27T07:10:30Z</time>
      </trkpt>
      <trkpt lat="45.51012" lon="6.66611">
        <ele>2120.8000488</ele>
        <time>2013-07-27T07:10:33Z</time>
      </trkpt>
      <trkpt lat="45.51003" lon="6.6662">
        <ele>2121</ele>
        <time>2013-07-27T07:10:38Z</time>
      </trkpt>
      <trkpt lat="45.50998" lon="6.66627">
        <ele>2120.6000977</ele>
        <time>2013-07-27T07:10:40Z</time>
      </trkpt>
      <trkpt lat="45.50993" lon="6.66634">
        <ele>2120</ele>
        <time>2013-07-27T07:10:43Z</time>
      </trkpt>
      <trkpt lat="45.50986" lon="6.66641">
        <ele>2118</ele>
        <time>2013-07-27T07:10:47Z</time>
      </trkpt>
      <trkpt lat="45.50978" lon="6.66649">
        <ele>2116.3999023</ele>
        <time>2013-07-27T07:10:52Z</time>
      </trkpt>
      <trkpt lat="45.50971" lon="6.66656">
        <ele>2115</ele>
        <time>2013-07-27T07:10:57Z</time>
      </trkpt>
      <trkpt lat="45.50966" lon="6.66665">
        <ele>2113</ele>
        <time>2013-07-27T07:11:03Z</time>
      </trkpt>
      <trkpt lat="45.5096" lon="6.6667">
        <ele>2111</ele>
        <time>2013-07-27T07:11:08Z</time>
      </trkpt>
      <trkpt lat="45.50954" lon="6.66677">
        <ele>2110</ele>
        <time>2013-07-27T07:11:12Z</time>
      </trkpt>
      <trkpt lat="45.50945" lon="6.66683">
        <ele>2108.8000488</ele>
        <time>2013-07-27T07:11:17Z</time>
      </trkpt>
      <trkpt lat="45.5094" lon="6.66688">
        <ele>2107.8000488</ele>
        <time>2013-07-27T07:11:19Z</time>
      </trkpt>
      <trkpt lat="45.50929" lon="6.66695">
        <ele>2105.6000977</ele>
        <time>2013-07-27T07:11:24Z</time>
      </trkpt>
      <trkpt lat="45.50919" lon="6.66698">
        <ele>2104.3999023</ele>
        <time>2013-07-27T07:11:30Z</time>
      </trkpt>
      <trkpt lat="45.50908" lon="6.66696">
        <ele>2102</ele>
        <time>2013-07-27T07:11:35Z</time>
      </trkpt>
      <trkpt lat="45.50895" lon="6.66701">
        <ele>2098</ele>
        <time>2013-07-27T07:11:39Z</time>
      </trkpt>
      <trkpt lat="45.50895" lon="6.66714">
        <ele>2094.6000977</ele>
        <time>2013-07-27T07:11:44Z</time>
      </trkpt>
      <trkpt lat="45.50884" lon="6.66724">
        <ele>2094.3999023</ele>
        <time>2013-07-27T07:11:49Z</time>
      </trkpt>
      <trkpt lat="45.50876" lon="6.66734">
        <ele>2094.3999023</ele>
        <time>2013-07-27T07:11:54Z</time>
      </trkpt>
      <trkpt lat="45.50872" lon="6.66745">
        <ele>2094</ele>
        <time>2013-07-27T07:11:58Z</time>
      </trkpt>
      <trkpt lat="45.5087" lon="6.66754">
        <ele>2093.1999512</ele>
        <time>2013-07-27T07:12:02Z</time>
      </trkpt>
      <trkpt lat="45.50869" lon="6.66764">
        <ele>2092.8000488</ele>
        <time>2013-07-27T07:12:04Z</time>
      </trkpt>
      <trkpt lat="45.50862" lon="6.66772">
        <ele>2091.8000488</ele>
        <time>2013-07-27T07:12:07Z</time>
      </trkpt>
      <trkpt lat="45.50854" lon="6.66779">
        <ele>2091</ele>
        <time>2013-07-27T07:12:10Z</time>
      </trkpt>
      <trkpt lat="45.50848" lon="6.66786">
        <ele>2089.3999023</ele>
        <time>2013-07-27T07:12:15Z</time>
      </trkpt>
      <trkpt lat="45.50845" lon="6.66791">
        <ele>2092</ele>
        <time>2013-07-27T07:12:43Z</time>
      </trkpt>
      <trkpt lat="45.50838" lon="6.66803">
        <ele>2091.3999023</ele>
        <time>2013-07-27T07:12:48Z</time>
      </trkpt>
      <trkpt lat="45.50832" lon="6.66809">
        <ele>2090.6000977</ele>
        <time>2013-07-27T07:12:52Z</time>
      </trkpt>
      <trkpt lat="45.50824" lon="6.66816">
        <ele>2090.1999512</ele>
        <time>2013-07-27T07:12:57Z</time>
      </trkpt>
      <trkpt lat="45.50818" lon="6.66821">
        <ele>2089.8000488</ele>
        <time>2013-07-27T07:13:00Z</time>
      </trkpt>
      <trkpt lat="45.50811" lon="6.66831">
        <ele>2089</ele>
        <time>2013-07-27T07:13:06Z</time>
      </trkpt>
      <trkpt lat="45.50806" lon="6.66844">
        <ele>2088</ele>
        <time>2013-07-27T07:13:11Z</time>
      </trkpt>
      <trkpt lat="45.508" lon="6.66852">
        <ele>2087</ele>
        <time>2013-07-27T07:13:14Z</time>
      </trkpt>
      <trkpt lat="45.50797" lon="6.6686">
        <ele>2085.6000977</ele>
        <time>2013-07-27T07:13:16Z</time>
      </trkpt>
      <trkpt lat="45.50797" lon="6.66869">
        <ele>2083.8000488</ele>
        <time>2013-07-27T07:13:19Z</time>
      </trkpt>
      <trkpt lat="45.50795" lon="6.66881">
        <ele>2080.3999023</ele>
        <time>2013-07-27T07:13:24Z</time>
      </trkpt>
      <trkpt lat="45.5079" lon="6.66896">
        <ele>2079</ele>
        <time>2013-07-27T07:13:28Z</time>
      </trkpt>
      <trkpt lat="45.50786" lon="6.66904">
        <ele>2078.1999512</ele>
        <time>2013-07-27T07:13:32Z</time>
      </trkpt>
      <trkpt lat="45.50777" lon="6.66916">
        <ele>2076.8000488</ele>
        <time>2013-07-27T07:13:38Z</time>
      </trkpt>
      <trkpt lat="45.50773" lon="6.66925">
        <ele>2075.3999023</ele>
        <time>2013-07-27T07:13:41Z</time>
      </trkpt>
      <trkpt lat="45.50768" lon="6.66933">
        <ele>2074.3999023</ele>
        <time>2013-07-27T07:13:44Z</time>
      </trkpt>
      <trkpt lat="45.50764" lon="6.66943">
        <ele>2073.8000488</ele>
        <time>2013-07-27T07:13:46Z</time>
      </trkpt>
      <trkpt lat="45.50753" lon="6.66954">
        <ele>2072.8000488</ele>
        <time>2013-07-27T07:13:51Z</time>
      </trkpt>
      <trkpt lat="45.50743" lon="6.66962">
        <ele>2072.6000977</ele>
        <time>2013-07-27T07:13:56Z</time>
      </trkpt>
      <trkpt lat="45.50735" lon="6.66964">
        <ele>2072</ele>
        <time>2013-07-27T07:13:59Z</time>
      </trkpt>
      <trkpt lat="45.50726" lon="6.66969">
        <ele>2070.3999023</ele>
        <time>2013-07-27T07:14:04Z</time>
      </trkpt>
      <trkpt lat="45.50719" lon="6.66971">
        <ele>2070.1999512</ele>
        <time>2013-07-27T07:14:06Z</time>
      </trkpt>
      <trkpt lat="45.50712" lon="6.66974">
        <ele>2069.8000488</ele>
        <time>2013-07-27T07:14:09Z</time>
      </trkpt>
      <trkpt lat="45.50703" lon="6.66973">
        <ele>2070.3999023</ele>
        <time>2013-07-27T07:14:14Z</time>
      </trkpt>
      <trkpt lat="45.50697" lon="6.66977">
        <ele>2071.6000977</ele>
        <time>2013-07-27T07:14:17Z</time>
      </trkpt>
      <trkpt lat="45.5069" lon="6.6698">
        <ele>2072.3999023</ele>
        <time>2013-07-27T07:14:19Z</time>
      </trkpt>
      <trkpt lat="45.5068" lon="6.6698">
        <ele>2073.8000488</ele>
        <time>2013-07-27T07:14:24Z</time>
      </trkpt>
      <trkpt lat="45.50674" lon="6.66983">
        <ele>2073.8000488</ele>
        <time>2013-07-27T07:14:27Z</time>
      </trkpt>
      <trkpt lat="45.50668" lon="6.66986">
        <ele>2072.8000488</ele>
        <time>2013-07-27T07:14:29Z</time>
      </trkpt>
      <trkpt lat="45.50659" lon="6.66986">
        <ele>2072</ele>
        <time>2013-07-27T07:14:33Z</time>
      </trkpt>
      <trkpt lat="45.50652" lon="6.6699">
        <ele>2071.1999512</ele>
        <time>2013-07-27T07:14:35Z</time>
      </trkpt>
      <trkpt lat="45.50645" lon="6.66994">
        <ele>2070</ele>
        <time>2013-07-27T07:14:37Z</time>
      </trkpt>
      <trkpt lat="45.50636" lon="6.66996">
        <ele>2068.3999023</ele>
        <time>2013-07-27T07:14:40Z</time>
      </trkpt>
      <trkpt lat="45.50629" lon="6.66999">
        <ele>2067.8000488</ele>
        <time>2013-07-27T07:14:43Z</time>
      </trkpt>
      <trkpt lat="45.50618" lon="6.67006">
        <ele>2066</ele>
        <time>2013-07-27T07:14:48Z</time>
      </trkpt>
      <trkpt lat="45.50607" lon="6.6701">
        <ele>2065.6000977</ele>
        <time>2013-07-27T07:14:53Z</time>
      </trkpt>
      <trkpt lat="45.50599" lon="6.67013">
        <ele>2063.1999512</ele>
        <time>2013-07-27T07:14:58Z</time>
      </trkpt>
      <trkpt lat="45.50592" lon="6.67022">
        <ele>2060.3999023</ele>
        <time>2013-07-27T07:15:04Z</time>
      </trkpt>
      <trkpt lat="45.50583" lon="6.67034">
        <ele>2056.8000488</ele>
        <time>2013-07-27T07:15:10Z</time>
      </trkpt>
      <trkpt lat="45.50582" lon="6.67052">
        <ele>2053.8000488</ele>
        <time>2013-07-27T07:15:14Z</time>
      </trkpt>
      <trkpt lat="45.5058" lon="6.67064">
        <ele>2052.6000977</ele>
        <time>2013-07-27T07:15:17Z</time>
      </trkpt>
      <trkpt lat="45.50577" lon="6.67074">
        <ele>2051.8000488</ele>
        <time>2013-07-27T07:15:20Z</time>
      </trkpt>
      <trkpt lat="45.50571" lon="6.67089">
        <ele>2049.8000488</ele>
        <time>2013-07-27T07:15:25Z</time>
      </trkpt>
      <trkpt lat="45.50569" lon="6.671">
        <ele>2048.3999023</ele>
        <time>2013-07-27T07:15:30Z</time>
      </trkpt>
      <trkpt lat="45.50571" lon="6.6711">
        <ele>2047</ele>
        <time>2013-07-27T07:15:34Z</time>
      </trkpt>
      <trkpt lat="45.50567" lon="6.67118">
        <ele>2046.4000244</ele>
        <time>2013-07-27T07:15:37Z</time>
      </trkpt>
      <trkpt lat="45.50563" lon="6.67132">
        <ele>2043.8000488</ele>
        <time>2013-07-27T07:15:42Z</time>
      </trkpt>
      <trkpt lat="45.50561" lon="6.6715">
        <ele>2041.4000244</ele>
        <time>2013-07-27T07:15:46Z</time>
      </trkpt>
      <trkpt lat="45.50557" lon="6.67158">
        <ele>2041</ele>
        <time>2013-07-27T07:15:49Z</time>
      </trkpt>
      <trkpt lat="45.50552" lon="6.67164">
        <ele>2040.5999756</ele>
        <time>2013-07-27T07:15:52Z</time>
      </trkpt>
      <trkpt lat="45.50543" lon="6.67175">
        <ele>2039.5999756</ele>
        <time>2013-07-27T07:15:57Z</time>
      </trkpt>
      <trkpt lat="45.50538" lon="6.67183">
        <ele>2037.8000488</ele>
        <time>2013-07-27T07:16:00Z</time>
      </trkpt>
      <trkpt lat="45.50531" lon="6.67194">
        <ele>2033.1999512</ele>
        <time>2013-07-27T07:16:05Z</time>
      </trkpt>
      <trkpt lat="45.50524" lon="6.67205">
        <ele>2029.4000244</ele>
        <time>2013-07-27T07:16:11Z</time>
      </trkpt>
      <trkpt lat="45.50515" lon="6.67213">
        <ele>2027.5999756</ele>
        <time>2013-07-27T07:16:16Z</time>
      </trkpt>
      <trkpt lat="45.50517" lon="6.6723">
        <ele>2027.4000244</ele>
        <time>2013-07-27T07:16:21Z</time>
      </trkpt>
      <trkpt lat="45.5052" lon="6.67242">
        <ele>2026.4000244</ele>
        <time>2013-07-27T07:16:27Z</time>
      </trkpt>
      <trkpt lat="45.50522" lon="6.67256">
        <ele>2023.1999512</ele>
        <time>2013-07-27T07:16:32Z</time>
      </trkpt>
      <trkpt lat="45.50519" lon="6.67273">
        <ele>2021.1999512</ele>
        <time>2013-07-27T07:16:37Z</time>
      </trkpt>
      <trkpt lat="45.50516" lon="6.67288">
        <ele>2019.8000488</ele>
        <time>2013-07-27T07:16:43Z</time>
      </trkpt>
      <trkpt lat="45.50513" lon="6.67298">
        <ele>2019.1999512</ele>
        <time>2013-07-27T07:16:45Z</time>
      </trkpt>
      <trkpt lat="45.50512" lon="6.67308">
        <ele>2017.5999756</ele>
        <time>2013-07-27T07:16:49Z</time>
      </trkpt>
      <trkpt lat="45.50512" lon="6.67319">
        <ele>2016</ele>
        <time>2013-07-27T07:16:51Z</time>
      </trkpt>
      <trkpt lat="45.50513" lon="6.67338">
        <ele>2013.5999756</ele>
        <time>2013-07-27T07:16:56Z</time>
      </trkpt>
      <trkpt lat="45.50515" lon="6.67347">
        <ele>2012.1999512</ele>
        <time>2013-07-27T07:16:59Z</time>
      </trkpt>
      <trkpt lat="45.50515" lon="6.67357">
        <ele>2010.4000244</ele>
        <time>2013-07-27T07:17:04Z</time>
      </trkpt>
      <trkpt lat="45.5051" lon="6.6737">
        <ele>2007.4000244</ele>
        <time>2013-07-27T07:17:09Z</time>
      </trkpt>
      <trkpt lat="45.50507" lon="6.6738">
        <ele>2003.8000488</ele>
        <time>2013-07-27T07:17:13Z</time>
      </trkpt>
      <trkpt lat="45.50506" lon="6.67395">
        <ele>1999.5999756</ele>
        <time>2013-07-27T07:17:17Z</time>
      </trkpt>
      <trkpt lat="45.50506" lon="6.67405">
        <ele>1997.5999756</ele>
        <time>2013-07-27T07:17:20Z</time>
      </trkpt>
      <trkpt lat="45.50509" lon="6.67423">
        <ele>1995.5999756</ele>
        <time>2013-07-27T07:17:25Z</time>
      </trkpt>
      <trkpt lat="45.5051" lon="6.67435">
        <ele>1994.5999756</ele>
        <time>2013-07-27T07:17:28Z</time>
      </trkpt>
      <trkpt lat="45.50509" lon="6.67453">
        <ele>1993.5999756</ele>
        <time>2013-07-27T07:17:34Z</time>
      </trkpt>
      <trkpt lat="45.50512" lon="6.67468">
        <ele>1993</ele>
        <time>2013-07-27T07:17:38Z</time>
      </trkpt>
      <trkpt lat="45.50521" lon="6.67479">
        <ele>1993.4000244</ele>
        <time>2013-07-27T07:17:43Z</time>
      </trkpt>
      <trkpt lat="45.50526" lon="6.67489">
        <ele>1994</ele>
        <time>2013-07-27T07:17:45Z</time>
      </trkpt>
      <trkpt lat="45.50528" lon="6.67502">
        <ele>1993.1999512</ele>
        <time>2013-07-27T07:17:50Z</time>
      </trkpt>
      <trkpt lat="45.50531" lon="6.67511">
        <ele>1993</ele>
        <time>2013-07-27T07:17:54Z</time>
      </trkpt>
      <trkpt lat="45.50535" lon="6.67519">
        <ele>1992</ele>
        <time>2013-07-27T07:17:59Z</time>
      </trkpt>
      <trkpt lat="45.50537" lon="6.67531">
        <ele>1991.5999756</ele>
        <time>2013-07-27T07:18:03Z</time>
      </trkpt>
      <trkpt lat="45.5054" lon="6.67544">
        <ele>1991.1999512</ele>
        <time>2013-07-27T07:18:08Z</time>
      </trkpt>
      <trkpt lat="45.50544" lon="6.67565">
        <ele>1991.1999512</ele>
        <time>2013-07-27T07:18:15Z</time>
      </trkpt>
      <trkpt lat="45.5055" lon="6.67581">
        <ele>1991.4000244</ele>
        <time>2013-07-27T07:18:19Z</time>
      </trkpt>
      <trkpt lat="45.50552" lon="6.67592">
        <ele>1991.8000488</ele>
        <time>2013-07-27T07:18:22Z</time>
      </trkpt>
      <trkpt lat="45.50552" lon="6.67601">
        <ele>1992</ele>
        <time>2013-07-27T07:18:25Z</time>
      </trkpt>
      <trkpt lat="45.50554" lon="6.67614">
        <ele>1992.5999756</ele>
        <time>2013-07-27T07:18:31Z</time>
      </trkpt>
      <trkpt lat="45.5056" lon="6.67627">
        <ele>1993.4000244</ele>
        <time>2013-07-27T07:18:37Z</time>
      </trkpt>
      <trkpt lat="45.5057" lon="6.67634">
        <ele>1995.1999512</ele>
        <time>2013-07-27T07:18:42Z</time>
      </trkpt>
      <trkpt lat="45.50575" lon="6.67643">
        <ele>1995.8000488</ele>
        <time>2013-07-27T07:18:45Z</time>
      </trkpt>
      <trkpt lat="45.50576" lon="6.67653">
        <ele>1996.8000488</ele>
        <time>2013-07-27T07:18:50Z</time>
      </trkpt>
      <trkpt lat="45.50579" lon="6.67669">
        <ele>1997.1999512</ele>
        <time>2013-07-27T07:18:57Z</time>
      </trkpt>
      <trkpt lat="45.50582" lon="6.67679">
        <ele>1997.1999512</ele>
        <time>2013-07-27T07:19:05Z</time>
      </trkpt>
      <trkpt lat="45.5058" lon="6.67686">
        <ele>1998.1999512</ele>
        <time>2013-07-27T07:19:39Z</time>
      </trkpt>
      <trkpt lat="45.50575" lon="6.67694">
        <ele>1995.4000244</ele>
        <time>2013-07-27T07:25:34Z</time>
      </trkpt>
      <trkpt lat="45.5057" lon="6.67705">
        <ele>1993.4000244</ele>
        <time>2013-07-27T07:25:41Z</time>
      </trkpt>
      <trkpt lat="45.50565" lon="6.67711">
        <ele>1991.8000488</ele>
        <time>2013-07-27T07:25:48Z</time>
      </trkpt>
      <trkpt lat="45.50559" lon="6.67717">
        <ele>1991.4000244</ele>
        <time>2013-07-27T07:25:55Z</time>
      </trkpt>
      <trkpt lat="45.50553" lon="6.67726">
        <ele>1991</ele>
        <time>2013-07-27T07:26:01Z</time>
      </trkpt>
      <trkpt lat="45.50549" lon="6.67733">
        <ele>1990.8000488</ele>
        <time>2013-07-27T07:26:06Z</time>
      </trkpt>
      <trkpt lat="45.50539" lon="6.67762">
        <ele>1990.8000488</ele>
        <time>2013-07-27T07:26:24Z</time>
      </trkpt>
      <trkpt lat="45.50532" lon="6.67775">
        <ele>1990.5999756</ele>
        <time>2013-07-27T07:26:33Z</time>
      </trkpt>
      <trkpt lat="45.50525" lon="6.67782">
        <ele>1990.4000244</ele>
        <time>2013-07-27T07:26:39Z</time>
      </trkpt>
      <trkpt lat="45.50518" lon="6.67787">
        <ele>1990.5999756</ele>
        <time>2013-07-27T07:26:45Z</time>
      </trkpt>
      <trkpt lat="45.50509" lon="6.67793">
        <ele>1993.4000244</ele>
        <time>2013-07-27T07:26:52Z</time>
      </trkpt>
      <trkpt lat="45.50502" lon="6.678">
        <ele>1996.1999512</ele>
        <time>2013-07-27T07:27:01Z</time>
      </trkpt>
      <trkpt lat="45.50494" lon="6.67806">
        <ele>1997.8000488</ele>
        <time>2013-07-27T07:27:09Z</time>
      </trkpt>
      <trkpt lat="45.50486" lon="6.67812">
        <ele>1999</ele>
        <time>2013-07-27T07:27:17Z</time>
      </trkpt>
      <trkpt lat="45.5048" lon="6.67814">
        <ele>1999.5999756</ele>
        <time>2013-07-27T07:27:23Z</time>
      </trkpt>
      <trkpt lat="45.50473" lon="6.67817">
        <ele>2000.5999756</ele>
        <time>2013-07-27T07:27:30Z</time>
      </trkpt>
      <trkpt lat="45.50465" lon="6.67824">
        <ele>2001.5999756</ele>
        <time>2013-07-27T07:27:38Z</time>
      </trkpt>
      <trkpt lat="45.50458" lon="6.67826">
        <ele>2002.1999512</ele>
        <time>2013-07-27T07:27:44Z</time>
      </trkpt>
      <trkpt lat="45.50451" lon="6.67833">
        <ele>2002</ele>
        <time>2013-07-27T07:27:51Z</time>
      </trkpt>
      <trkpt lat="45.50443" lon="6.67833">
        <ele>2002.1999512</ele>
        <time>2013-07-27T07:27:58Z</time>
      </trkpt>
      <trkpt lat="45.50434" lon="6.67834">
        <ele>2002.8000488</ele>
        <time>2013-07-27T07:28:05Z</time>
      </trkpt>
      <trkpt lat="45.50426" lon="6.67836">
        <ele>2004.4000244</ele>
        <time>2013-07-27T07:28:12Z</time>
      </trkpt>
      <trkpt lat="45.50418" lon="6.67839">
        <ele>2005.8000488</ele>
        <time>2013-07-27T07:28:18Z</time>
      </trkpt>
      <trkpt lat="45.5041" lon="6.67843">
        <ele>2007.4000244</ele>
        <time>2013-07-27T07:28:26Z</time>
      </trkpt>
      <trkpt lat="45.504" lon="6.67849">
        <ele>2008</ele>
        <time>2013-07-27T07:28:35Z</time>
      </trkpt>
      <trkpt lat="45.50392" lon="6.6786">
        <ele>2008.1999512</ele>
        <time>2013-07-27T07:28:46Z</time>
      </trkpt>
      <trkpt lat="45.50388" lon="6.67868">
        <ele>2009.4000244</ele>
        <time>2013-07-27T07:28:53Z</time>
      </trkpt>
      <trkpt lat="45.50384" lon="6.67874">
        <ele>2011.1999512</ele>
        <time>2013-07-27T07:29:00Z</time>
      </trkpt>
      <trkpt lat="45.50383" lon="6.67885">
        <ele>2013.5999756</ele>
        <time>2013-07-27T07:29:09Z</time>
      </trkpt>
      <trkpt lat="45.50382" lon="6.67897">
        <ele>2017</ele>
        <time>2013-07-27T07:29:19Z</time>
      </trkpt>
      <trkpt lat="45.50383" lon="6.67907">
        <ele>2018.8000488</ele>
        <time>2013-07-27T07:29:27Z</time>
      </trkpt>
      <trkpt lat="45.50387" lon="6.67915">
        <ele>2021.4000244</ele>
        <time>2013-07-27T07:29:38Z</time>
      </trkpt>
      <trkpt lat="45.50392" lon="6.67924">
        <ele>2023</ele>
        <time>2013-07-27T07:29:46Z</time>
      </trkpt>
      <trkpt lat="45.50396" lon="6.67931">
        <ele>2024</ele>
        <time>2013-07-27T07:29:51Z</time>
      </trkpt>
      <trkpt lat="45.504" lon="6.6794">
        <ele>2025.4000244</ele>
        <time>2013-07-27T07:29:59Z</time>
      </trkpt>
      <trkpt lat="45.50407" lon="6.67943">
        <ele>2028</ele>
        <time>2013-07-27T07:30:08Z</time>
      </trkpt>
      <trkpt lat="45.50412" lon="6.67948">
        <ele>2029.4000244</ele>
        <time>2013-07-27T07:30:15Z</time>
      </trkpt>
      <trkpt lat="45.5042" lon="6.67953">
        <ele>2030.8000488</ele>
        <time>2013-07-27T07:30:21Z</time>
      </trkpt>
      <trkpt lat="45.50428" lon="6.67959">
        <ele>2031.8000488</ele>
        <time>2013-07-27T07:30:28Z</time>
      </trkpt>
      <trkpt lat="45.50436" lon="6.67966">
        <ele>2031.8000488</ele>
        <time>2013-07-27T07:30:36Z</time>
      </trkpt>
      <trkpt lat="45.50441" lon="6.67972">
        <ele>2032.8000488</ele>
        <time>2013-07-27T07:30:42Z</time>
      </trkpt>
      <trkpt lat="45.50446" lon="6.67981">
        <ele>2034.4000244</ele>
        <time>2013-07-27T07:30:50Z</time>
      </trkpt>
      <trkpt lat="45.50451" lon="6.67987">
        <ele>2036.1999512</ele>
        <time>2013-07-27T07:30:58Z</time>
      </trkpt>
      <trkpt lat="45.50455" lon="6.67997">
        <ele>2037.8000488</ele>
        <time>2013-07-27T07:31:07Z</time>
      </trkpt>
      <trkpt lat="45.50459" lon="6.68008">
        <ele>2039.8000488</ele>
        <time>2013-07-27T07:31:15Z</time>
      </trkpt>
      <trkpt lat="45.50462" lon="6.68017">
        <ele>2041.1999512</ele>
        <time>2013-07-27T07:31:21Z</time>
      </trkpt>
      <trkpt lat="45.50466" lon="6.68027">
        <ele>2041.8000488</ele>
        <time>2013-07-27T07:31:30Z</time>
      </trkpt>
      <trkpt lat="45.50468" lon="6.68038">
        <ele>2042.5999756</ele>
        <time>2013-07-27T07:31:37Z</time>
      </trkpt>
      <trkpt lat="45.50473" lon="6.68049">
        <ele>2044</ele>
        <time>2013-07-27T07:31:44Z</time>
      </trkpt>
      <trkpt lat="45.50478" lon="6.68057">
        <ele>2045.8000488</ele>
        <time>2013-07-27T07:31:49Z</time>
      </trkpt>
      <trkpt lat="45.50481" lon="6.68065">
        <ele>2047.5999756</ele>
        <time>2013-07-27T07:31:53Z</time>
      </trkpt>
      <trkpt lat="45.50484" lon="6.68074">
        <ele>2048.1999512</ele>
        <time>2013-07-27T07:31:59Z</time>
      </trkpt>
      <trkpt lat="45.50488" lon="6.68083">
        <ele>2048.8000488</ele>
        <time>2013-07-27T07:32:06Z</time>
      </trkpt>
      <trkpt lat="45.50488" lon="6.68093">
        <ele>2050</ele>
        <time>2013-07-27T07:32:11Z</time>
      </trkpt>
      <trkpt lat="45.5049" lon="6.68102">
        <ele>2051.1999512</ele>
        <time>2013-07-27T07:32:16Z</time>
      </trkpt>
      <trkpt lat="45.50491" lon="6.68111">
        <ele>2052.3999023</ele>
        <time>2013-07-27T07:32:21Z</time>
      </trkpt>
      <trkpt lat="45.50493" lon="6.6812">
        <ele>2054.1999512</ele>
        <time>2013-07-27T07:32:30Z</time>
      </trkpt>
      <trkpt lat="45.50496" lon="6.68129">
        <ele>2056.1999512</ele>
        <time>2013-07-27T07:32:37Z</time>
      </trkpt>
      <trkpt lat="45.505" lon="6.68139">
        <ele>2057</ele>
        <time>2013-07-27T07:32:44Z</time>
      </trkpt>
      <trkpt lat="45.50507" lon="6.68146">
        <ele>2059</ele>
        <time>2013-07-27T07:32:51Z</time>
      </trkpt>
      <trkpt lat="45.50512" lon="6.68154">
        <ele>2061.3999023</ele>
        <time>2013-07-27T07:33:00Z</time>
      </trkpt>
      <trkpt lat="45.50517" lon="6.68164">
        <ele>2063.3999023</ele>
        <time>2013-07-27T07:33:07Z</time>
      </trkpt>
      <trkpt lat="45.5052" lon="6.68176">
        <ele>2065</ele>
        <time>2013-07-27T07:33:14Z</time>
      </trkpt>
      <trkpt lat="45.50523" lon="6.68185">
        <ele>2065.8000488</ele>
        <time>2013-07-27T07:33:18Z</time>
      </trkpt>
      <trkpt lat="45.50528" lon="6.68191">
        <ele>2067.6000977</ele>
        <time>2013-07-27T07:33:24Z</time>
      </trkpt>
      <trkpt lat="45.50531" lon="6.682">
        <ele>2068.8000488</ele>
        <time>2013-07-27T07:33:30Z</time>
      </trkpt>
      <trkpt lat="45.50534" lon="6.68208">
        <ele>2068.6000977</ele>
        <time>2013-07-27T07:33:35Z</time>
      </trkpt>
      <trkpt lat="45.50536" lon="6.68217">
        <ele>2067.1999512</ele>
        <time>2013-07-27T07:33:41Z</time>
      </trkpt>
      <trkpt lat="45.50539" lon="6.68228">
        <ele>2066.8000488</ele>
        <time>2013-07-27T07:33:47Z</time>
      </trkpt>
      <trkpt lat="45.50538" lon="6.68238">
        <ele>2067</ele>
        <time>2013-07-27T07:33:52Z</time>
      </trkpt>
      <trkpt lat="45.50534" lon="6.68244">
        <ele>2066.1999512</ele>
        <time>2013-07-27T07:33:58Z</time>
      </trkpt>
      <trkpt lat="45.50529" lon="6.68256">
        <ele>2065</ele>
        <time>2013-07-27T07:34:06Z</time>
      </trkpt>
      <trkpt lat="45.50524" lon="6.68263">
        <ele>2065.8000488</ele>
        <time>2013-07-27T07:34:13Z</time>
      </trkpt>
      <trkpt lat="45.50525" lon="6.68272">
        <ele>2066.1999512</ele>
        <time>2013-07-27T07:34:19Z</time>
      </trkpt>
      <trkpt lat="45.50526" lon="6.68282">
        <ele>2066.3999023</ele>
        <time>2013-07-27T07:34:26Z</time>
      </trkpt>
      <trkpt lat="45.50528" lon="6.68292">
        <ele>2066.8000488</ele>
        <time>2013-07-27T07:34:33Z</time>
      </trkpt>
      <trkpt lat="45.50527" lon="6.68305">
        <ele>2067.1999512</ele>
        <time>2013-07-27T07:34:41Z</time>
      </trkpt>
      <trkpt lat="45.50524" lon="6.68315">
        <ele>2067</ele>
        <time>2013-07-27T07:34:46Z</time>
      </trkpt>
      <trkpt lat="45.50522" lon="6.68325">
        <ele>2066.6000977</ele>
        <time>2013-07-27T07:34:51Z</time>
      </trkpt>
      <trkpt lat="45.50516" lon="6.68334">
        <ele>2067.1999512</ele>
        <time>2013-07-27T07:34:58Z</time>
      </trkpt>
      <trkpt lat="45.50507" lon="6.68337">
        <ele>2068.1999512</ele>
        <time>2013-07-27T07:35:04Z</time>
      </trkpt>
      <trkpt lat="45.50502" lon="6.68334">
        <ele>2070.3999023</ele>
        <time>2013-07-27T07:35:10Z</time>
      </trkpt>
      <trkpt lat="45.505" lon="6.68321">
        <ele>2074</ele>
        <time>2013-07-27T07:35:17Z</time>
      </trkpt>
      <trkpt lat="45.50498" lon="6.68312">
        <ele>2075.8000488</ele>
        <time>2013-07-27T07:35:26Z</time>
      </trkpt>
      <trkpt lat="45.50492" lon="6.68306">
        <ele>2076.6000977</ele>
        <time>2013-07-27T07:35:34Z</time>
      </trkpt>
      <trkpt lat="45.50484" lon="6.68309">
        <ele>2078.3999023</ele>
        <time>2013-07-27T07:35:42Z</time>
      </trkpt>
      <trkpt lat="45.50478" lon="6.68316">
        <ele>2079.3999023</ele>
        <time>2013-07-27T07:35:49Z</time>
      </trkpt>
      <trkpt lat="45.50472" lon="6.68321">
        <ele>2080.6000977</ele>
        <time>2013-07-27T07:35:56Z</time>
      </trkpt>
      <trkpt lat="45.50462" lon="6.68326">
        <ele>2081</ele>
        <time>2013-07-27T07:36:06Z</time>
      </trkpt>
      <trkpt lat="45.50457" lon="6.68334">
        <ele>2081.1999512</ele>
        <time>2013-07-27T07:36:14Z</time>
      </trkpt>
      <trkpt lat="45.50454" lon="6.68344">
        <ele>2082.6000977</ele>
        <time>2013-07-27T07:36:22Z</time>
      </trkpt>
      <trkpt lat="45.50451" lon="6.68354">
        <ele>2085.3999023</ele>
        <time>2013-07-27T07:36:34Z</time>
      </trkpt>
      <trkpt lat="45.50448" lon="6.68363">
        <ele>2086.1999512</ele>
        <time>2013-07-27T07:36:40Z</time>
      </trkpt>
      <trkpt lat="45.50449" lon="6.68371">
        <ele>2089.8000488</ele>
        <time>2013-07-27T07:36:53Z</time>
      </trkpt>
      <trkpt lat="45.50443" lon="6.68377">
        <ele>2092.8000488</ele>
        <time>2013-07-27T07:37:09Z</time>
      </trkpt>
      <trkpt lat="45.50435" lon="6.68379">
        <ele>2090.8000488</ele>
        <time>2013-07-27T07:37:16Z</time>
      </trkpt>
      <trkpt lat="45.50433" lon="6.68388">
        <ele>2096.1999512</ele>
        <time>2013-07-27T07:37:31Z</time>
      </trkpt>
      <trkpt lat="45.5043" lon="6.68394">
        <ele>2099.1999512</ele>
        <time>2013-07-27T07:37:42Z</time>
      </trkpt>
      <trkpt lat="45.50426" lon="6.68401">
        <ele>2099.6000977</ele>
        <time>2013-07-27T07:37:51Z</time>
      </trkpt>
      <trkpt lat="45.50419" lon="6.68397">
        <ele>2101.1999512</ele>
        <time>2013-07-27T07:38:01Z</time>
      </trkpt>
      <trkpt lat="45.50412" lon="6.68401">
        <ele>2104.1999512</ele>
        <time>2013-07-27T07:38:10Z</time>
      </trkpt>
      <trkpt lat="45.50411" lon="6.68411">
        <ele>2105.8000488</ele>
        <time>2013-07-27T07:38:15Z</time>
      </trkpt>
      <trkpt lat="45.50414" lon="6.68422">
        <ele>2108.6000977</ele>
        <time>2013-07-27T07:38:19Z</time>
      </trkpt>
      <trkpt lat="45.50414" lon="6.68431">
        <ele>2110.6000977</ele>
        <time>2013-07-27T07:38:24Z</time>
      </trkpt>
      <trkpt lat="45.50414" lon="6.6844">
        <ele>2110.8000488</ele>
        <time>2013-07-27T07:38:30Z</time>
      </trkpt>
      <trkpt lat="45.50412" lon="6.68452">
        <ele>2110.8000488</ele>
        <time>2013-07-27T07:38:37Z</time>
      </trkpt>
      <trkpt lat="45.5041" lon="6.68469">
        <ele>2111.6000977</ele>
        <time>2013-07-27T07:38:47Z</time>
      </trkpt>
      <trkpt lat="45.5041" lon="6.6848">
        <ele>2112.1999512</ele>
        <time>2013-07-27T07:38:53Z</time>
      </trkpt>
      <trkpt lat="45.50409" lon="6.68492">
        <ele>2112.6000977</ele>
        <time>2013-07-27T07:39:00Z</time>
      </trkpt>
      <trkpt lat="45.50407" lon="6.68501">
        <ele>2113.3999023</ele>
        <time>2013-07-27T07:39:05Z</time>
      </trkpt>
      <trkpt lat="45.50402" lon="6.6851">
        <ele>2115</ele>
        <time>2013-07-27T07:39:11Z</time>
      </trkpt>
      <trkpt lat="45.50399" lon="6.68518">
        <ele>2115.8000488</ele>
        <time>2013-07-27T07:39:16Z</time>
      </trkpt>
      <trkpt lat="45.50395" lon="6.68528">
        <ele>2116.8000488</ele>
        <time>2013-07-27T07:39:24Z</time>
      </trkpt>
      <trkpt lat="45.50393" lon="6.6854">
        <ele>2118.8000488</ele>
        <time>2013-07-27T07:39:33Z</time>
      </trkpt>
      <trkpt lat="45.50391" lon="6.6855">
        <ele>2120.6000977</ele>
        <time>2013-07-27T07:39:41Z</time>
      </trkpt>
      <trkpt lat="45.50387" lon="6.6856">
        <ele>2123</ele>
        <time>2013-07-27T07:39:49Z</time>
      </trkpt>
      <trkpt lat="45.50382" lon="6.6857">
        <ele>2123.8000488</ele>
        <time>2013-07-27T07:39:57Z</time>
      </trkpt>
      <trkpt lat="45.50375" lon="6.6858">
        <ele>2123.3999023</ele>
        <time>2013-07-27T07:40:05Z</time>
      </trkpt>
      <trkpt lat="45.50366" lon="6.68592">
        <ele>2123.6000977</ele>
        <time>2013-07-27T07:40:16Z</time>
      </trkpt>
      <trkpt lat="45.50362" lon="6.686">
        <ele>2124.8000488</ele>
        <time>2013-07-27T07:40:22Z</time>
      </trkpt>
      <trkpt lat="45.50359" lon="6.68611">
        <ele>2127</ele>
        <time>2013-07-27T07:40:30Z</time>
      </trkpt>
      <trkpt lat="45.50357" lon="6.68624">
        <ele>2128.1999512</ele>
        <time>2013-07-27T07:40:38Z</time>
      </trkpt>
      <trkpt lat="45.50357" lon="6.68634">
        <ele>2128.8000488</ele>
        <time>2013-07-27T07:40:44Z</time>
      </trkpt>
      <trkpt lat="45.50359" lon="6.68643">
        <ele>2129.6000977</ele>
        <time>2013-07-27T07:40:50Z</time>
      </trkpt>
      <trkpt lat="45.50359" lon="6.68655">
        <ele>2130.1999512</ele>
        <time>2013-07-27T07:40:57Z</time>
      </trkpt>
      <trkpt lat="45.50358" lon="6.68669">
        <ele>2129.8000488</ele>
        <time>2013-07-27T07:41:05Z</time>
      </trkpt>
      <trkpt lat="45.50358" lon="6.68679">
        <ele>2130</ele>
        <time>2013-07-27T07:41:11Z</time>
      </trkpt>
      <trkpt lat="45.50361" lon="6.68687">
        <ele>2133.1999512</ele>
        <time>2013-07-27T07:41:19Z</time>
      </trkpt>
      <trkpt lat="45.5036" lon="6.68697">
        <ele>2135.1999512</ele>
        <time>2013-07-27T07:41:25Z</time>
      </trkpt>
      <trkpt lat="45.50358" lon="6.68706">
        <ele>2136.1999512</ele>
        <time>2013-07-27T07:41:30Z</time>
      </trkpt>
      <trkpt lat="45.50354" lon="6.68716">
        <ele>2138.3999023</ele>
        <time>2013-07-27T07:41:38Z</time>
      </trkpt>
      <trkpt lat="45.50347" lon="6.68725">
        <ele>2139.3999023</ele>
        <time>2013-07-27T07:41:46Z</time>
      </trkpt>
      <trkpt lat="45.50343" lon="6.68731">
        <ele>2138.3999023</ele>
        <time>2013-07-27T07:41:51Z</time>
      </trkpt>
      <trkpt lat="45.50341" lon="6.68742">
        <ele>2137.8000488</ele>
        <time>2013-07-27T07:41:59Z</time>
      </trkpt>
      <trkpt lat="45.50343" lon="6.68751">
        <ele>2139.3999023</ele>
        <time>2013-07-27T07:42:04Z</time>
      </trkpt>
      <trkpt lat="45.50345" lon="6.6876">
        <ele>2143</ele>
        <time>2013-07-27T07:42:09Z</time>
      </trkpt>
      <trkpt lat="45.50343" lon="6.6877">
        <ele>2148.1999512</ele>
        <time>2013-07-27T07:42:16Z</time>
      </trkpt>
      <trkpt lat="45.5034" lon="6.68779">
        <ele>2146.8000488</ele>
        <time>2013-07-27T07:42:22Z</time>
      </trkpt>
      <trkpt lat="45.50336" lon="6.68786">
        <ele>2142.6000977</ele>
        <time>2013-07-27T07:42:27Z</time>
      </trkpt>
      <trkpt lat="45.50331" lon="6.68794">
        <ele>2137.6000977</ele>
        <time>2013-07-27T07:42:33Z</time>
      </trkpt>
      <trkpt lat="45.50326" lon="6.688">
        <ele>2137.3999023</ele>
        <time>2013-07-27T07:42:38Z</time>
      </trkpt>
      <trkpt lat="45.50322" lon="6.68807">
        <ele>2137.6000977</ele>
        <time>2013-07-27T07:42:41Z</time>
      </trkpt>
      <trkpt lat="45.50317" lon="6.68814">
        <ele>2138.6000977</ele>
        <time>2013-07-27T07:42:45Z</time>
      </trkpt>
      <trkpt lat="45.50314" lon="6.68822">
        <ele>2141</ele>
        <time>2013-07-27T07:42:52Z</time>
      </trkpt>
      <trkpt lat="45.50306" lon="6.68827">
        <ele>2143.6000977</ele>
        <time>2013-07-27T07:43:01Z</time>
      </trkpt>
      <trkpt lat="45.50303" lon="6.68835">
        <ele>2144.8000488</ele>
        <time>2013-07-27T07:43:06Z</time>
      </trkpt>
      <trkpt lat="45.503" lon="6.68844">
        <ele>2146.3999023</ele>
        <time>2013-07-27T07:43:12Z</time>
      </trkpt>
      <trkpt lat="45.50297" lon="6.68852">
        <ele>2146.1999512</ele>
        <time>2013-07-27T07:43:16Z</time>
      </trkpt>
      <trkpt lat="45.50291" lon="6.68861">
        <ele>2143.6000977</ele>
        <time>2013-07-27T07:43:22Z</time>
      </trkpt>
      <trkpt lat="45.50289" lon="6.68873">
        <ele>2142</ele>
        <time>2013-07-27T07:43:29Z</time>
      </trkpt>
      <trkpt lat="45.50294" lon="6.68878">
        <ele>2142.8000488</ele>
        <time>2013-07-27T07:43:34Z</time>
      </trkpt>
      <trkpt lat="45.50295" lon="6.68889">
        <ele>2142.6000977</ele>
        <time>2013-07-27T07:43:39Z</time>
      </trkpt>
      <trkpt lat="45.5029" lon="6.68896">
        <ele>2141.8000488</ele>
        <time>2013-07-27T07:43:44Z</time>
      </trkpt>
      <trkpt lat="45.50288" lon="6.68908">
        <ele>2140.8000488</ele>
        <time>2013-07-27T07:43:49Z</time>
      </trkpt>
      <trkpt lat="45.50287" lon="6.68922">
        <ele>2141.6000977</ele>
        <time>2013-07-27T07:43:54Z</time>
      </trkpt>
      <trkpt lat="45.50284" lon="6.68936">
        <ele>2142.8000488</ele>
        <time>2013-07-27T07:43:59Z</time>
      </trkpt>
      <trkpt lat="45.50281" lon="6.68953">
        <ele>2143.3999023</ele>
        <time>2013-07-27T07:44:05Z</time>
      </trkpt>
      <trkpt lat="45.50279" lon="6.68962">
        <ele>2143.8000488</ele>
        <time>2013-07-27T07:44:08Z</time>
      </trkpt>
      <trkpt lat="45.50276" lon="6.68971">
        <ele>2144.6000977</ele>
        <time>2013-07-27T07:44:11Z</time>
      </trkpt>
      <trkpt lat="45.50275" lon="6.68986">
        <ele>2146.8000488</ele>
        <time>2013-07-27T07:44:16Z</time>
      </trkpt>
      <trkpt lat="45.50278" lon="6.68993">
        <ele>2147.8000488</ele>
        <time>2013-07-27T07:44:19Z</time>
      </trkpt>
      <trkpt lat="45.50279" lon="6.69005">
        <ele>2148.3999023</ele>
        <time>2013-07-27T07:44:24Z</time>
      </trkpt>
      <trkpt lat="45.50281" lon="6.69018">
        <ele>2148.6000977</ele>
        <time>2013-07-27T07:44:29Z</time>
      </trkpt>
      <trkpt lat="45.50281" lon="6.6903">
        <ele>2149</ele>
        <time>2013-07-27T07:44:34Z</time>
      </trkpt>
      <trkpt lat="45.50284" lon="6.69044">
        <ele>2150</ele>
        <time>2013-07-27T07:44:39Z</time>
      </trkpt>
      <trkpt lat="45.50287" lon="6.69057">
        <ele>2150.8000488</ele>
        <time>2013-07-27T07:44:44Z</time>
      </trkpt>
      <trkpt lat="45.50288" lon="6.69071">
        <ele>2151.6000977</ele>
        <time>2013-07-27T07:44:49Z</time>
      </trkpt>
      <trkpt lat="45.50289" lon="6.69085">
        <ele>2153</ele>
        <time>2013-07-27T07:44:54Z</time>
      </trkpt>
      <trkpt lat="45.50289" lon="6.69098">
        <ele>2154.6000977</ele>
        <time>2013-07-27T07:44:59Z</time>
      </trkpt>
      <trkpt lat="45.50292" lon="6.69113">
        <ele>2155.6000977</ele>
        <time>2013-07-27T07:45:04Z</time>
      </trkpt>
      <trkpt lat="45.50292" lon="6.69123">
        <ele>2155.6000977</ele>
        <time>2013-07-27T07:45:07Z</time>
      </trkpt>
      <trkpt lat="45.50294" lon="6.69137">
        <ele>2155.3999023</ele>
        <time>2013-07-27T07:45:13Z</time>
      </trkpt>
      <trkpt lat="45.50298" lon="6.69148">
        <ele>2155.3999023</ele>
        <time>2013-07-27T07:45:17Z</time>
      </trkpt>
      <trkpt lat="45.50301" lon="6.69161">
        <ele>2152.8000488</ele>
        <time>2013-07-27T07:45:23Z</time>
      </trkpt>
      <trkpt lat="45.50305" lon="6.69174">
        <ele>2150.8000488</ele>
        <time>2013-07-27T07:45:28Z</time>
      </trkpt>
      <trkpt lat="45.50307" lon="6.69189">
        <ele>2150.6000977</ele>
        <time>2013-07-27T07:45:33Z</time>
      </trkpt>
      <trkpt lat="45.50314" lon="6.69206">
        <ele>2152.1999512</ele>
        <time>2013-07-27T07:45:38Z</time>
      </trkpt>
      <trkpt lat="45.50317" lon="6.69219">
        <ele>2152.3999023</ele>
        <time>2013-07-27T07:45:43Z</time>
      </trkpt>
      <trkpt lat="45.50323" lon="6.69229">
        <ele>2152.6000977</ele>
        <time>2013-07-27T07:45:48Z</time>
      </trkpt>
      <trkpt lat="45.5033" lon="6.6924">
        <ele>2152</ele>
        <time>2013-07-27T07:45:54Z</time>
      </trkpt>
      <trkpt lat="45.50336" lon="6.69249">
        <ele>2151.8000488</ele>
        <time>2013-07-27T07:45:59Z</time>
      </trkpt>
      <trkpt lat="45.50344" lon="6.69259">
        <ele>2152.6000977</ele>
        <time>2013-07-27T07:46:04Z</time>
      </trkpt>
      <trkpt lat="45.50349" lon="6.69273">
        <ele>2155</ele>
        <time>2013-07-27T07:46:09Z</time>
      </trkpt>
      <trkpt lat="45.50351" lon="6.69286">
        <ele>2157</ele>
        <time>2013-07-27T07:46:14Z</time>
      </trkpt>
      <trkpt lat="45.50348" lon="6.69302">
        <ele>2155.6000977</ele>
        <time>2013-07-27T07:46:20Z</time>
      </trkpt>
      <trkpt lat="45.50348" lon="6.69317">
        <ele>2155.1999512</ele>
        <time>2013-07-27T07:46:25Z</time>
      </trkpt>
      <trkpt lat="45.50349" lon="6.69327">
        <ele>2155.6000977</ele>
        <time>2013-07-27T07:46:28Z</time>
      </trkpt>
      <trkpt lat="45.50348" lon="6.69337">
        <ele>2155.8000488</ele>
        <time>2013-07-27T07:46:31Z</time>
      </trkpt>
      <trkpt lat="45.50344" lon="6.69351">
        <ele>2155.6000977</ele>
        <time>2013-07-27T07:46:36Z</time>
      </trkpt>
      <trkpt lat="45.50343" lon="6.69363">
        <ele>2154.3999023</ele>
        <time>2013-07-27T07:46:40Z</time>
      </trkpt>
      <trkpt lat="45.5034" lon="6.69376">
        <ele>2153.1999512</ele>
        <time>2013-07-27T07:46:45Z</time>
      </trkpt>
      <trkpt lat="45.50333" lon="6.69387">
        <ele>2152.3999023</ele>
        <time>2013-07-27T07:46:50Z</time>
      </trkpt>
      <trkpt lat="45.50325" lon="6.69392">
        <ele>2153</ele>
        <time>2013-07-27T07:46:55Z</time>
      </trkpt>
      <trkpt lat="45.50317" lon="6.69394">
        <ele>2154.8000488</ele>
        <time>2013-07-27T07:46:59Z</time>
      </trkpt>
      <trkpt lat="45.50307" lon="6.69397">
        <ele>2156</ele>
        <time>2013-07-27T07:47:04Z</time>
      </trkpt>
      <trkpt lat="45.50299" lon="6.69407">
        <ele>2155.6000977</ele>
        <time>2013-07-27T07:47:09Z</time>
      </trkpt>
      <trkpt lat="45.50295" lon="6.69421">
        <ele>2155.1999512</ele>
        <time>2013-07-27T07:47:14Z</time>
      </trkpt>
      <trkpt lat="45.50292" lon="6.6943">
        <ele>2154.8000488</ele>
        <time>2013-07-27T07:47:17Z</time>
      </trkpt>
      <trkpt lat="45.50291" lon="6.69439">
        <ele>2154.1999512</ele>
        <time>2013-07-27T07:47:20Z</time>
      </trkpt>
      <trkpt lat="45.50287" lon="6.69449">
        <ele>2152.6000977</ele>
        <time>2013-07-27T07:47:24Z</time>
      </trkpt>
      <trkpt lat="45.5028" lon="6.69457">
        <ele>2152.3999023</ele>
        <time>2013-07-27T07:47:29Z</time>
      </trkpt>
      <trkpt lat="45.50269" lon="6.69456">
        <ele>2151.8000488</ele>
        <time>2013-07-27T07:47:34Z</time>
      </trkpt>
      <trkpt lat="45.50261" lon="6.6946">
        <ele>2151</ele>
        <time>2013-07-27T07:47:38Z</time>
      </trkpt>
      <trkpt lat="45.50252" lon="6.69467">
        <ele>2151</ele>
        <time>2013-07-27T07:47:43Z</time>
      </trkpt>
      <trkpt lat="45.50245" lon="6.69472">
        <ele>2152</ele>
        <time>2013-07-27T07:47:47Z</time>
      </trkpt>
      <trkpt lat="45.50239" lon="6.69474">
        <ele>2152.8000488</ele>
        <time>2013-07-27T07:47:50Z</time>
      </trkpt>
      <trkpt lat="45.50232" lon="6.69475">
        <ele>2153.3999023</ele>
        <time>2013-07-27T07:47:53Z</time>
      </trkpt>
      <trkpt lat="45.50225" lon="6.69476">
        <ele>2154.6000977</ele>
        <time>2013-07-27T07:47:57Z</time>
      </trkpt>
      <trkpt lat="45.50217" lon="6.69478">
        <ele>2155</ele>
        <time>2013-07-27T07:48:01Z</time>
      </trkpt>
      <trkpt lat="45.50208" lon="6.69483">
        <ele>2155.1999512</ele>
        <time>2013-07-27T07:48:06Z</time>
      </trkpt>
      <trkpt lat="45.50193" lon="6.69497">
        <ele>2155.3999023</ele>
        <time>2013-07-27T07:48:15Z</time>
      </trkpt>
      <trkpt lat="45.50189" lon="6.69504">
        <ele>2154.6000977</ele>
        <time>2013-07-27T07:48:18Z</time>
      </trkpt>
      <trkpt lat="45.50182" lon="6.69515">
        <ele>2153.8000488</ele>
        <time>2013-07-27T07:48:23Z</time>
      </trkpt>
      <trkpt lat="45.50171" lon="6.69529">
        <ele>2153.6000977</ele>
        <time>2013-07-27T07:48:30Z</time>
      </trkpt>
      <trkpt lat="45.50163" lon="6.69535">
        <ele>2153.3999023</ele>
        <time>2013-07-27T07:48:34Z</time>
      </trkpt>
      <trkpt lat="45.50153" lon="6.69541">
        <ele>2152.3999023</ele>
        <time>2013-07-27T07:48:39Z</time>
      </trkpt>
      <trkpt lat="45.50145" lon="6.6955">
        <ele>2151.1999512</ele>
        <time>2013-07-27T07:48:44Z</time>
      </trkpt>
      <trkpt lat="45.50139" lon="6.69557">
        <ele>2151</ele>
        <time>2013-07-27T07:48:48Z</time>
      </trkpt>
      <trkpt lat="45.50132" lon="6.69571">
        <ele>2151.3999023</ele>
        <time>2013-07-27T07:48:54Z</time>
      </trkpt>
      <trkpt lat="45.50125" lon="6.69582">
        <ele>2151.1999512</ele>
        <time>2013-07-27T07:48:59Z</time>
      </trkpt>
      <trkpt lat="45.50122" lon="6.6959">
        <ele>2151</ele>
        <time>2013-07-27T07:49:02Z</time>
      </trkpt>
      <trkpt lat="45.50118" lon="6.69599">
        <ele>2150.1999512</ele>
        <time>2013-07-27T07:49:06Z</time>
      </trkpt>
      <trkpt lat="45.50107" lon="6.69626">
        <ele>2150</ele>
        <time>2013-07-27T07:49:19Z</time>
      </trkpt>
      <trkpt lat="45.50105" lon="6.69635">
        <ele>2150.8000488</ele>
        <time>2013-07-27T07:49:24Z</time>
      </trkpt>
      <trkpt lat="45.50103" lon="6.69647">
        <ele>2151.6000977</ele>
        <time>2013-07-27T07:49:30Z</time>
      </trkpt>
      <trkpt lat="45.50103" lon="6.69659">
        <ele>2152.3999023</ele>
        <time>2013-07-27T07:49:36Z</time>
      </trkpt>
      <trkpt lat="45.50103" lon="6.69669">
        <ele>2153.1999512</ele>
        <time>2013-07-27T07:49:41Z</time>
      </trkpt>
      <trkpt lat="45.50102" lon="6.69681">
        <ele>2154.3999023</ele>
        <time>2013-07-27T07:49:47Z</time>
      </trkpt>
      <trkpt lat="45.50102" lon="6.69692">
        <ele>2155.3999023</ele>
        <time>2013-07-27T07:49:53Z</time>
      </trkpt>
      <trkpt lat="45.50102" lon="6.69701">
        <ele>2157</ele>
        <time>2013-07-27T07:49:58Z</time>
      </trkpt>
      <trkpt lat="45.50103" lon="6.69711">
        <ele>2158.8000488</ele>
        <time>2013-07-27T07:50:03Z</time>
      </trkpt>
      <trkpt lat="45.50105" lon="6.69719">
        <ele>2159.8000488</ele>
        <time>2013-07-27T07:50:08Z</time>
      </trkpt>
      <trkpt lat="45.50106" lon="6.6973">
        <ele>2159.3999023</ele>
        <time>2013-07-27T07:50:14Z</time>
      </trkpt>
      <trkpt lat="45.50104" lon="6.69741">
        <ele>2159.1999512</ele>
        <time>2013-07-27T07:50:20Z</time>
      </trkpt>
      <trkpt lat="45.50103" lon="6.69751">
        <ele>2159.8000488</ele>
        <time>2013-07-27T07:50:25Z</time>
      </trkpt>
      <trkpt lat="45.50102" lon="6.6976">
        <ele>2161.6000977</ele>
        <time>2013-07-27T07:50:30Z</time>
      </trkpt>
      <trkpt lat="45.50099" lon="6.69771">
        <ele>2162.8000488</ele>
        <time>2013-07-27T07:50:36Z</time>
      </trkpt>
      <trkpt lat="45.50095" lon="6.69783">
        <ele>2163.3999023</ele>
        <time>2013-07-27T07:50:42Z</time>
      </trkpt>
      <trkpt lat="45.50092" lon="6.69794">
        <ele>2164.1999512</ele>
        <time>2013-07-27T07:50:48Z</time>
      </trkpt>
      <trkpt lat="45.50091" lon="6.69804">
        <ele>2165</ele>
        <time>2013-07-27T07:50:53Z</time>
      </trkpt>
      <trkpt lat="45.50091" lon="6.69817">
        <ele>2166</ele>
        <time>2013-07-27T07:51:00Z</time>
      </trkpt>
      <trkpt lat="45.50089" lon="6.69827">
        <ele>2166.1999512</ele>
        <time>2013-07-27T07:51:05Z</time>
      </trkpt>
      <trkpt lat="45.50085" lon="6.69838">
        <ele>2166.1999512</ele>
        <time>2013-07-27T07:51:11Z</time>
      </trkpt>
      <trkpt lat="45.50083" lon="6.69849">
        <ele>2167.1999512</ele>
        <time>2013-07-27T07:51:17Z</time>
      </trkpt>
      <trkpt lat="45.50081" lon="6.69858">
        <ele>2168.8000488</ele>
        <time>2013-07-27T07:51:22Z</time>
      </trkpt>
      <trkpt lat="45.50078" lon="6.69868">
        <ele>2169.8000488</ele>
        <time>2013-07-27T07:51:28Z</time>
      </trkpt>
      <trkpt lat="45.50078" lon="6.6988">
        <ele>2170.1999512</ele>
        <time>2013-07-27T07:51:35Z</time>
      </trkpt>
      <trkpt lat="45.50079" lon="6.69889">
        <ele>2170.3999023</ele>
        <time>2013-07-27T07:51:40Z</time>
      </trkpt>
      <trkpt lat="45.50078" lon="6.69901">
        <ele>2171</ele>
        <time>2013-07-27T07:51:46Z</time>
      </trkpt>
      <trkpt lat="45.50073" lon="6.6991">
        <ele>2171.6000977</ele>
        <time>2013-07-27T07:51:52Z</time>
      </trkpt>
      <trkpt lat="45.50064" lon="6.69924">
        <ele>2172.8000488</ele>
        <time>2013-07-27T07:52:02Z</time>
      </trkpt>
      <trkpt lat="45.50057" lon="6.69929">
        <ele>2173.6000977</ele>
        <time>2013-07-27T07:52:09Z</time>
      </trkpt>
      <trkpt lat="45.5005" lon="6.69934">
        <ele>2173.8000488</ele>
        <time>2013-07-27T07:52:15Z</time>
      </trkpt>
      <trkpt lat="45.50039" lon="6.69943">
        <ele>2173.3999023</ele>
        <time>2013-07-27T07:52:25Z</time>
      </trkpt>
      <trkpt lat="45.50033" lon="6.6995">
        <ele>2173.3999023</ele>
        <time>2013-07-27T07:52:32Z</time>
      </trkpt>
      <trkpt lat="45.50027" lon="6.69956">
        <ele>2173.8000488</ele>
        <time>2013-07-27T07:52:39Z</time>
      </trkpt>
      <trkpt lat="45.50022" lon="6.69963">
        <ele>2174</ele>
        <time>2013-07-27T07:52:47Z</time>
      </trkpt>
      <trkpt lat="45.50016" lon="6.69971">
        <ele>2176</ele>
        <time>2013-07-27T07:52:58Z</time>
      </trkpt>
      <trkpt lat="45.5001" lon="6.69979">
        <ele>2175.6000977</ele>
        <time>2013-07-27T07:53:06Z</time>
      </trkpt>
      <trkpt lat="45.50003" lon="6.69986">
        <ele>2174.8000488</ele>
        <time>2013-07-27T07:53:13Z</time>
      </trkpt>
      <trkpt lat="45.49998" lon="6.69992">
        <ele>2175</ele>
        <time>2013-07-27T07:53:19Z</time>
      </trkpt>
      <trkpt lat="45.49992" lon="6.70002">
        <ele>2176.8000488</ele>
        <time>2013-07-27T07:53:27Z</time>
      </trkpt>
      <trkpt lat="45.49986" lon="6.70007">
        <ele>2177.8000488</ele>
        <time>2013-07-27T07:53:33Z</time>
      </trkpt>
      <trkpt lat="45.49981" lon="6.70016">
        <ele>2179</ele>
        <time>2013-07-27T07:53:41Z</time>
      </trkpt>
      <trkpt lat="45.49975" lon="6.70024">
        <ele>2180.6000977</ele>
        <time>2013-07-27T07:53:50Z</time>
      </trkpt>
      <trkpt lat="45.49968" lon="6.7003">
        <ele>2183.6000977</ele>
        <time>2013-07-27T07:53:59Z</time>
      </trkpt>
      <trkpt lat="45.49965" lon="6.70038">
        <ele>2185.3999023</ele>
        <time>2013-07-27T07:54:07Z</time>
      </trkpt>
      <trkpt lat="45.4996" lon="6.70048">
        <ele>2188</ele>
        <time>2013-07-27T07:54:17Z</time>
      </trkpt>
      <trkpt lat="45.49953" lon="6.70053">
        <ele>2189.8000488</ele>
        <time>2013-07-27T07:54:25Z</time>
      </trkpt>
      <trkpt lat="45.49946" lon="6.70058">
        <ele>2191</ele>
        <time>2013-07-27T07:54:33Z</time>
      </trkpt>
      <trkpt lat="45.49937" lon="6.70066">
        <ele>2191.1999512</ele>
        <time>2013-07-27T07:54:42Z</time>
      </trkpt>
      <trkpt lat="45.4993" lon="6.70073">
        <ele>2192.3999023</ele>
        <time>2013-07-27T07:54:50Z</time>
      </trkpt>
      <trkpt lat="45.49925" lon="6.7008">
        <ele>2194.1999512</ele>
        <time>2013-07-27T07:54:57Z</time>
      </trkpt>
      <trkpt lat="45.49921" lon="6.70088">
        <ele>2196</ele>
        <time>2013-07-27T07:55:03Z</time>
      </trkpt>
      <trkpt lat="45.49916" lon="6.70095">
        <ele>2198.6000977</ele>
        <time>2013-07-27T07:55:10Z</time>
      </trkpt>
      <trkpt lat="45.49912" lon="6.70106">
        <ele>2199.3999023</ele>
        <time>2013-07-27T07:55:18Z</time>
      </trkpt>
      <trkpt lat="45.49908" lon="6.70113">
        <ele>2199</ele>
        <time>2013-07-27T07:55:24Z</time>
      </trkpt>
      <trkpt lat="45.49903" lon="6.70121">
        <ele>2197.6000977</ele>
        <time>2013-07-27T07:55:31Z</time>
      </trkpt>
      <trkpt lat="45.49899" lon="6.70128">
        <ele>2197.8000488</ele>
        <time>2013-07-27T07:55:37Z</time>
      </trkpt>
      <trkpt lat="45.49896" lon="6.70137">
        <ele>2198.8000488</ele>
        <time>2013-07-27T07:55:44Z</time>
      </trkpt>
      <trkpt lat="45.49892" lon="6.70149">
        <ele>2200.8000488</ele>
        <time>2013-07-27T07:55:53Z</time>
      </trkpt>
      <trkpt lat="45.49886" lon="6.70158">
        <ele>2202.1999512</ele>
        <time>2013-07-27T07:56:00Z</time>
      </trkpt>
      <trkpt lat="45.49883" lon="6.70167">
        <ele>2204.1999512</ele>
        <time>2013-07-27T07:56:07Z</time>
      </trkpt>
      <trkpt lat="45.49881" lon="6.70177">
        <ele>2206.6000977</ele>
        <time>2013-07-27T07:56:14Z</time>
      </trkpt>
      <trkpt lat="45.49878" lon="6.70186">
        <ele>2207.6000977</ele>
        <time>2013-07-27T07:56:20Z</time>
      </trkpt>
      <trkpt lat="45.49879" lon="6.70196">
        <ele>2208.6000977</ele>
        <time>2013-07-27T07:56:28Z</time>
      </trkpt>
      <trkpt lat="45.49885" lon="6.70203">
        <ele>2209.3999023</ele>
        <time>2013-07-27T07:56:39Z</time>
      </trkpt>
      <trkpt lat="45.49886" lon="6.70213">
        <ele>2209.8000488</ele>
        <time>2013-07-27T07:56:46Z</time>
      </trkpt>
      <trkpt lat="45.49885" lon="6.70224">
        <ele>2210.8000488</ele>
        <time>2013-07-27T07:56:54Z</time>
      </trkpt>
      <trkpt lat="45.49883" lon="6.70233">
        <ele>2213.3999023</ele>
        <time>2013-07-27T07:57:02Z</time>
      </trkpt>
      <trkpt lat="45.49881" lon="6.70242">
        <ele>2218</ele>
        <time>2013-07-27T07:57:12Z</time>
      </trkpt>
      <trkpt lat="45.49884" lon="6.7025">
        <ele>2221</ele>
        <time>2013-07-27T07:57:21Z</time>
      </trkpt>
      <trkpt lat="45.4988" lon="6.70259">
        <ele>2224.1999512</ele>
        <time>2013-07-27T07:57:30Z</time>
      </trkpt>
      <trkpt lat="45.49875" lon="6.70269">
        <ele>2224.6000977</ele>
        <time>2013-07-27T07:57:41Z</time>
      </trkpt>
      <trkpt lat="45.49871" lon="6.70282">
        <ele>2225.8000488</ele>
        <time>2013-07-27T07:57:53Z</time>
      </trkpt>
      <trkpt lat="45.49872" lon="6.70292">
        <ele>2226.1999512</ele>
        <time>2013-07-27T07:58:01Z</time>
      </trkpt>
      <trkpt lat="45.49873" lon="6.70302">
        <ele>2226.3999023</ele>
        <time>2013-07-27T07:58:11Z</time>
      </trkpt>
      <trkpt lat="45.49874" lon="6.70312">
        <ele>2230.3999023</ele>
        <time>2013-07-27T07:58:23Z</time>
      </trkpt>
      <trkpt lat="45.49869" lon="6.7032">
        <ele>2232.1999512</ele>
        <time>2013-07-27T07:58:31Z</time>
      </trkpt>
      <trkpt lat="45.49866" lon="6.70329">
        <ele>2233</ele>
        <time>2013-07-27T07:58:38Z</time>
      </trkpt>
      <trkpt lat="45.49866" lon="6.70337">
        <ele>2234.6000977</ele>
        <time>2013-07-27T07:58:50Z</time>
      </trkpt>
      <trkpt lat="45.49862" lon="6.70346">
        <ele>2234.8000488</ele>
        <time>2013-07-27T07:58:59Z</time>
      </trkpt>
      <trkpt lat="45.49863" lon="6.70355">
        <ele>2235.1999512</ele>
        <time>2013-07-27T07:59:08Z</time>
      </trkpt>
      <trkpt lat="45.49863" lon="6.70369">
        <ele>2237.6000977</ele>
        <time>2013-07-27T07:59:16Z</time>
      </trkpt>
      <trkpt lat="45.49861" lon="6.70377">
        <ele>2239.1999512</ele>
        <time>2013-07-27T07:59:21Z</time>
      </trkpt>
      <trkpt lat="45.49855" lon="6.70388">
        <ele>2241.1999512</ele>
        <time>2013-07-27T07:59:29Z</time>
      </trkpt>
      <trkpt lat="45.4985" lon="6.70399">
        <ele>2241.3999023</ele>
        <time>2013-07-27T07:59:37Z</time>
      </trkpt>
      <trkpt lat="45.49846" lon="6.70406">
        <ele>2241.3999023</ele>
        <time>2013-07-27T07:59:42Z</time>
      </trkpt>
      <trkpt lat="45.49841" lon="6.70413">
        <ele>2241.8000488</ele>
        <time>2013-07-27T07:59:48Z</time>
      </trkpt>
      <trkpt lat="45.4983" lon="6.70427">
        <ele>2242</ele>
        <time>2013-07-27T08:00:00Z</time>
      </trkpt>
      <trkpt lat="45.49824" lon="6.70435">
        <ele>2242.6000977</ele>
        <time>2013-07-27T08:00:07Z</time>
      </trkpt>
      <trkpt lat="45.49817" lon="6.70445">
        <ele>2242.8000488</ele>
        <time>2013-07-27T08:00:15Z</time>
      </trkpt>
      <trkpt lat="45.49812" lon="6.70453">
        <ele>2242.3999023</ele>
        <time>2013-07-27T08:00:21Z</time>
      </trkpt>
      <trkpt lat="45.49806" lon="6.70459">
        <ele>2242.1999512</ele>
        <time>2013-07-27T08:00:27Z</time>
      </trkpt>
      <trkpt lat="45.49799" lon="6.70466">
        <ele>2242.8000488</ele>
        <time>2013-07-27T08:00:34Z</time>
      </trkpt>
      <trkpt lat="45.49791" lon="6.70471">
        <ele>2243.3999023</ele>
        <time>2013-07-27T08:00:42Z</time>
      </trkpt>
      <trkpt lat="45.49782" lon="6.70474">
        <ele>2243.6000977</ele>
        <time>2013-07-27T08:00:50Z</time>
      </trkpt>
      <trkpt lat="45.49774" lon="6.70474">
        <ele>2245.8000488</ele>
        <time>2013-07-27T08:00:57Z</time>
      </trkpt>
      <trkpt lat="45.49761" lon="6.70477">
        <ele>2248</ele>
        <time>2013-07-27T08:01:03Z</time>
      </trkpt>
      <trkpt lat="45.49754" lon="6.7048">
        <ele>2249.1999512</ele>
        <time>2013-07-27T08:01:06Z</time>
      </trkpt>
      <trkpt lat="45.49746" lon="6.70486">
        <ele>2250.8000488</ele>
        <time>2013-07-27T08:01:10Z</time>
      </trkpt>
      <trkpt lat="45.49734" lon="6.70495">
        <ele>2250.8000488</ele>
        <time>2013-07-27T08:01:19Z</time>
      </trkpt>
      <trkpt lat="45.49727" lon="6.705">
        <ele>2250</ele>
        <time>2013-07-27T08:01:25Z</time>
      </trkpt>
      <trkpt lat="45.49722" lon="6.70505">
        <ele>2248.8000488</ele>
        <time>2013-07-27T08:01:31Z</time>
      </trkpt>
      <trkpt lat="45.49716" lon="6.7051">
        <ele>2248.1999512</ele>
        <time>2013-07-27T08:01:36Z</time>
      </trkpt>
      <trkpt lat="45.49709" lon="6.70515">
        <ele>2247.6000977</ele>
        <time>2013-07-27T08:01:43Z</time>
      </trkpt>
      <trkpt lat="45.49702" lon="6.70522">
        <ele>2247.6000977</ele>
        <time>2013-07-27T08:01:50Z</time>
      </trkpt>
      <trkpt lat="45.49691" lon="6.70532">
        <ele>2248</ele>
        <time>2013-07-27T08:02:01Z</time>
      </trkpt>
      <trkpt lat="45.49685" lon="6.70536">
        <ele>2249.1999512</ele>
        <time>2013-07-27T08:02:07Z</time>
      </trkpt>
      <trkpt lat="45.49678" lon="6.7054">
        <ele>2250.1999512</ele>
        <time>2013-07-27T08:02:14Z</time>
      </trkpt>
      <trkpt lat="45.49672" lon="6.70544">
        <ele>2250</ele>
        <time>2013-07-27T08:02:20Z</time>
      </trkpt>
      <trkpt lat="45.49663" lon="6.70546">
        <ele>2250.1999512</ele>
        <time>2013-07-27T08:02:28Z</time>
      </trkpt>
      <trkpt lat="45.49655" lon="6.70551">
        <ele>2251</ele>
        <time>2013-07-27T08:02:35Z</time>
      </trkpt>
      <trkpt lat="45.49646" lon="6.70555">
        <ele>2249.8000488</ele>
        <time>2013-07-27T08:02:43Z</time>
      </trkpt>
      <trkpt lat="45.4964" lon="6.70557">
        <ele>2249.1999512</ele>
        <time>2013-07-27T08:02:49Z</time>
      </trkpt>
      <trkpt lat="45.49633" lon="6.70558">
        <ele>2249</ele>
        <time>2013-07-27T08:02:54Z</time>
      </trkpt>
      <trkpt lat="45.49627" lon="6.70559">
        <ele>2248.1999512</ele>
        <time>2013-07-27T08:02:59Z</time>
      </trkpt>
      <trkpt lat="45.49619" lon="6.70559">
        <ele>2247</ele>
        <time>2013-07-27T08:03:05Z</time>
      </trkpt>
      <trkpt lat="45.49611" lon="6.7056">
        <ele>2245.8000488</ele>
        <time>2013-07-27T08:03:11Z</time>
      </trkpt>
      <trkpt lat="45.49603" lon="6.7056">
        <ele>2244.3999023</ele>
        <time>2013-07-27T08:03:17Z</time>
      </trkpt>
      <trkpt lat="45.49595" lon="6.70558">
        <ele>2242.8000488</ele>
        <time>2013-07-27T08:03:24Z</time>
      </trkpt>
      <trkpt lat="45.49588" lon="6.70559">
        <ele>2242</ele>
        <time>2013-07-27T08:03:31Z</time>
      </trkpt>
      <trkpt lat="45.49582" lon="6.70562">
        <ele>2242.6000977</ele>
        <time>2013-07-27T08:03:37Z</time>
      </trkpt>
      <trkpt lat="45.49575" lon="6.70571">
        <ele>2244</ele>
        <time>2013-07-27T08:03:43Z</time>
      </trkpt>
      <trkpt lat="45.49569" lon="6.70583">
        <ele>2245.8000488</ele>
        <time>2013-07-27T08:03:50Z</time>
      </trkpt>
      <trkpt lat="45.49564" lon="6.70596">
        <ele>2246.8000488</ele>
        <time>2013-07-27T08:03:57Z</time>
      </trkpt>
      <trkpt lat="45.49559" lon="6.70605">
        <ele>2247.1999512</ele>
        <time>2013-07-27T08:04:03Z</time>
      </trkpt>
      <trkpt lat="45.49553" lon="6.70614">
        <ele>2248</ele>
        <time>2013-07-27T08:04:09Z</time>
      </trkpt>
      <trkpt lat="45.49548" lon="6.70619">
        <ele>2248.1999512</ele>
        <time>2013-07-27T08:04:14Z</time>
      </trkpt>
      <trkpt lat="45.49542" lon="6.70623">
        <ele>2249.1999512</ele>
        <time>2013-07-27T08:04:19Z</time>
      </trkpt>
      <trkpt lat="45.49536" lon="6.70628">
        <ele>2249.3999023</ele>
        <time>2013-07-27T08:04:24Z</time>
      </trkpt>
      <trkpt lat="45.49527" lon="6.70632">
        <ele>2249.8000488</ele>
        <time>2013-07-27T08:04:32Z</time>
      </trkpt>
      <trkpt lat="45.4952" lon="6.70637">
        <ele>2250.8000488</ele>
        <time>2013-07-27T08:04:39Z</time>
      </trkpt>
      <trkpt lat="45.49512" lon="6.70643">
        <ele>2250.6000977</ele>
        <time>2013-07-27T08:04:47Z</time>
      </trkpt>
      <trkpt lat="45.49503" lon="6.70649">
        <ele>2249</ele>
        <time>2013-07-27T08:04:55Z</time>
      </trkpt>
      <trkpt lat="45.49498" lon="6.70655">
        <ele>2248</ele>
        <time>2013-07-27T08:05:00Z</time>
      </trkpt>
      <trkpt lat="45.49492" lon="6.7066">
        <ele>2248.1999512</ele>
        <time>2013-07-27T08:05:07Z</time>
      </trkpt>
      <trkpt lat="45.49487" lon="6.70666">
        <ele>2249.1999512</ele>
        <time>2013-07-27T08:05:13Z</time>
      </trkpt>
      <trkpt lat="45.4948" lon="6.70673">
        <ele>2250.6000977</ele>
        <time>2013-07-27T08:05:21Z</time>
      </trkpt>
      <trkpt lat="45.49472" lon="6.70679">
        <ele>2250.6000977</ele>
        <time>2013-07-27T08:05:31Z</time>
      </trkpt>
      <trkpt lat="45.49466" lon="6.70686">
        <ele>2253.1999512</ele>
        <time>2013-07-27T08:05:40Z</time>
      </trkpt>
      <trkpt lat="45.4946" lon="6.70689">
        <ele>2256.8000488</ele>
        <time>2013-07-27T08:05:47Z</time>
      </trkpt>
      <trkpt lat="45.49454" lon="6.70696">
        <ele>2260.8000488</ele>
        <time>2013-07-27T08:05:56Z</time>
      </trkpt>
      <trkpt lat="45.49448" lon="6.70701">
        <ele>2264.8000488</ele>
        <time>2013-07-27T08:06:05Z</time>
      </trkpt>
      <trkpt lat="45.49444" lon="6.70708">
        <ele>2263.6000977</ele>
        <time>2013-07-27T08:06:14Z</time>
      </trkpt>
      <trkpt lat="45.49438" lon="6.70711">
        <ele>2261</ele>
        <time>2013-07-27T08:06:22Z</time>
      </trkpt>
      <trkpt lat="45.49434" lon="6.7072">
        <ele>2260</ele>
        <time>2013-07-27T08:06:30Z</time>
      </trkpt>
      <trkpt lat="45.49427" lon="6.70725">
        <ele>2259.1999512</ele>
        <time>2013-07-27T08:06:39Z</time>
      </trkpt>
      <trkpt lat="45.49421" lon="6.70729">
        <ele>2259.8000488</ele>
        <time>2013-07-27T08:06:48Z</time>
      </trkpt>
      <trkpt lat="45.49414" lon="6.70732">
        <ele>2260.3999023</ele>
        <time>2013-07-27T08:06:57Z</time>
      </trkpt>
      <trkpt lat="45.49407" lon="6.70735">
        <ele>2262.8000488</ele>
        <time>2013-07-27T08:07:07Z</time>
      </trkpt>
      <trkpt lat="45.49399" lon="6.70735">
        <ele>2266.6000977</ele>
        <time>2013-07-27T08:07:18Z</time>
      </trkpt>
      <trkpt lat="45.49392" lon="6.70736">
        <ele>2272.3999023</ele>
        <time>2013-07-27T08:07:29Z</time>
      </trkpt>
      <trkpt lat="45.49386" lon="6.70739">
        <ele>2273.6000977</ele>
        <time>2013-07-27T08:07:39Z</time>
      </trkpt>
      <trkpt lat="45.49379" lon="6.70741">
        <ele>2276.3999023</ele>
        <time>2013-07-27T08:07:51Z</time>
      </trkpt>
      <trkpt lat="45.49371" lon="6.7074">
        <ele>2280.8000488</ele>
        <time>2013-07-27T08:08:04Z</time>
      </trkpt>
      <trkpt lat="45.49364" lon="6.70738">
        <ele>2281.8000488</ele>
        <time>2013-07-27T08:08:13Z</time>
      </trkpt>
      <trkpt lat="45.49357" lon="6.70739">
        <ele>2282.6000977</ele>
        <time>2013-07-27T08:08:23Z</time>
      </trkpt>
      <trkpt lat="45.49349" lon="6.70743">
        <ele>2284.1999512</ele>
        <time>2013-07-27T08:08:34Z</time>
      </trkpt>
      <trkpt lat="45.49341" lon="6.70747">
        <ele>2287.1999512</ele>
        <time>2013-07-27T08:08:45Z</time>
      </trkpt>
      <trkpt lat="45.49334" lon="6.70749">
        <ele>2288.3999023</ele>
        <time>2013-07-27T08:08:53Z</time>
      </trkpt>
      <trkpt lat="45.49327" lon="6.7075">
        <ele>2289</ele>
        <time>2013-07-27T08:09:01Z</time>
      </trkpt>
      <trkpt lat="45.4932" lon="6.70751">
        <ele>2291.1999512</ele>
        <time>2013-07-27T08:09:10Z</time>
      </trkpt>
      <trkpt lat="45.49313" lon="6.7075">
        <ele>2293.8000488</ele>
        <time>2013-07-27T08:09:20Z</time>
      </trkpt>
      <trkpt lat="45.49306" lon="6.70751">
        <ele>2297.6000977</ele>
        <time>2013-07-27T08:09:30Z</time>
      </trkpt>
      <trkpt lat="45.49298" lon="6.7075">
        <ele>2302.6000977</ele>
        <time>2013-07-27T08:09:40Z</time>
      </trkpt>
      <trkpt lat="45.4929" lon="6.70752">
        <ele>2305.1999512</ele>
        <time>2013-07-27T08:09:50Z</time>
      </trkpt>
      <trkpt lat="45.49283" lon="6.70752">
        <ele>2307.1999512</ele>
        <time>2013-07-27T08:09:58Z</time>
      </trkpt>
      <trkpt lat="45.49275" lon="6.70751">
        <ele>2307.8000488</ele>
        <time>2013-07-27T08:10:07Z</time>
      </trkpt>
      <trkpt lat="45.49268" lon="6.70753">
        <ele>2308</ele>
        <time>2013-07-27T08:10:14Z</time>
      </trkpt>
      <trkpt lat="45.4926" lon="6.70757">
        <ele>2310.6000977</ele>
        <time>2013-07-27T08:10:22Z</time>
      </trkpt>
      <trkpt lat="45.49254" lon="6.70761">
        <ele>2313.1999512</ele>
        <time>2013-07-27T08:10:30Z</time>
      </trkpt>
      <trkpt lat="45.49252" lon="6.70769">
        <ele>2314.6000977</ele>
        <time>2013-07-27T08:10:40Z</time>
      </trkpt>
      <trkpt lat="45.49246" lon="6.70772">
        <ele>2315.3999023</ele>
        <time>2013-07-27T08:10:46Z</time>
      </trkpt>
      <trkpt lat="45.49239" lon="6.70777">
        <ele>2315</ele>
        <time>2013-07-27T08:10:54Z</time>
      </trkpt>
      <trkpt lat="45.49236" lon="6.70782">
        <ele>2315.6000977</ele>
        <time>2013-07-27T08:11:04Z</time>
      </trkpt>
      <trkpt lat="45.49236" lon="6.70788">
        <ele>2320.8000488</ele>
        <time>2013-07-27T08:11:15Z</time>
      </trkpt>
      <trkpt lat="45.4923" lon="6.70794">
        <ele>2322.8000488</ele>
        <time>2013-07-27T08:11:26Z</time>
      </trkpt>
      <trkpt lat="45.49225" lon="6.70799">
        <ele>2324.8000488</ele>
        <time>2013-07-27T08:11:36Z</time>
      </trkpt>
      <trkpt lat="45.49221" lon="6.70806">
        <ele>2329.6000977</ele>
        <time>2013-07-27T08:11:48Z</time>
      </trkpt>
      <trkpt lat="45.49218" lon="6.70815">
        <ele>2336</ele>
        <time>2013-07-27T08:12:01Z</time>
      </trkpt>
      <trkpt lat="45.4922" lon="6.70823">
        <ele>2337.8000488</ele>
        <time>2013-07-27T08:12:13Z</time>
      </trkpt>
      <trkpt lat="45.4922" lon="6.70832">
        <ele>2341.3999023</ele>
        <time>2013-07-27T08:12:27Z</time>
      </trkpt>
      <trkpt lat="45.49218" lon="6.70843">
        <ele>2341.1999512</ele>
        <time>2013-07-27T08:12:44Z</time>
      </trkpt>
      <trkpt lat="45.49219" lon="6.70853">
        <ele>2343.6000977</ele>
        <time>2013-07-27T08:13:01Z</time>
      </trkpt>
      <trkpt lat="45.49218" lon="6.70862">
        <ele>2343.6000977</ele>
        <time>2013-07-27T08:13:13Z</time>
      </trkpt>
      <trkpt lat="45.4922" lon="6.70872">
        <ele>2343.1999512</ele>
        <time>2013-07-27T08:13:30Z</time>
      </trkpt>
      <trkpt lat="45.49222" lon="6.70881">
        <ele>2343</ele>
        <time>2013-07-27T08:13:46Z</time>
      </trkpt>
      <trkpt lat="45.49224" lon="6.70891">
        <ele>2343</ele>
        <time>2013-07-27T08:14:03Z</time>
      </trkpt>
      <trkpt lat="45.49229" lon="6.709">
        <ele>2342</ele>
        <time>2013-07-27T08:14:15Z</time>
      </trkpt>
      <trkpt lat="45.4923" lon="6.70909">
        <ele>2342.1999512</ele>
        <time>2013-07-27T08:14:21Z</time>
      </trkpt>
      <trkpt lat="45.49229" lon="6.70918">
        <ele>2343.8000488</ele>
        <time>2013-07-27T08:14:29Z</time>
      </trkpt>
      <trkpt lat="45.49227" lon="6.70928">
        <ele>2352.6000977</ele>
        <time>2013-07-27T08:14:41Z</time>
      </trkpt>
      <trkpt lat="45.49221" lon="6.70934">
        <ele>2356.3999023</ele>
        <time>2013-07-27T08:14:50Z</time>
      </trkpt>
      <trkpt lat="45.49214" lon="6.70937">
        <ele>2361</ele>
        <time>2013-07-27T08:14:58Z</time>
      </trkpt>
      <trkpt lat="45.49206" lon="6.70942">
        <ele>2363</ele>
        <time>2013-07-27T08:15:06Z</time>
      </trkpt>
      <trkpt lat="45.49199" lon="6.70946">
        <ele>2364.3999023</ele>
        <time>2013-07-27T08:15:14Z</time>
      </trkpt>
      <trkpt lat="45.49195" lon="6.70956">
        <ele>2367.3999023</ele>
        <time>2013-07-27T08:15:22Z</time>
      </trkpt>
      <trkpt lat="45.49187" lon="6.70965">
        <ele>2367.8000488</ele>
        <time>2013-07-27T08:15:29Z</time>
      </trkpt>
      <trkpt lat="45.49181" lon="6.70968">
        <ele>2366.8000488</ele>
        <time>2013-07-27T08:15:34Z</time>
      </trkpt>
      <trkpt lat="45.49173" lon="6.70966">
        <ele>2364.8000488</ele>
        <time>2013-07-27T08:15:40Z</time>
      </trkpt>
      <trkpt lat="45.49167" lon="6.70972">
        <ele>2362.1999512</ele>
        <time>2013-07-27T08:16:09Z</time>
      </trkpt>
      <trkpt lat="45.49158" lon="6.70977">
        <ele>2361.8000488</ele>
        <time>2013-07-27T08:16:13Z</time>
      </trkpt>
      <trkpt lat="45.49146" lon="6.70983">
        <ele>2360.8000488</ele>
        <time>2013-07-27T08:16:20Z</time>
      </trkpt>
      <trkpt lat="45.49138" lon="6.70988">
        <ele>2360.3999023</ele>
        <time>2013-07-27T08:16:25Z</time>
      </trkpt>
      <trkpt lat="45.49127" lon="6.70994">
        <ele>2359.8000488</ele>
        <time>2013-07-27T08:16:31Z</time>
      </trkpt>
      <trkpt lat="45.49121" lon="6.70999">
        <ele>2359.3999023</ele>
        <time>2013-07-27T08:16:35Z</time>
      </trkpt>
      <trkpt lat="45.49114" lon="6.71006">
        <ele>2359.1999512</ele>
        <time>2013-07-27T08:16:40Z</time>
      </trkpt>
      <trkpt lat="45.49106" lon="6.71013">
        <ele>2359</ele>
        <time>2013-07-27T08:16:46Z</time>
      </trkpt>
      <trkpt lat="45.49101" lon="6.71023">
        <ele>2357.6000977</ele>
        <time>2013-07-27T08:16:51Z</time>
      </trkpt>
      <trkpt lat="45.49099" lon="6.71035">
        <ele>2356.6000977</ele>
        <time>2013-07-27T08:16:57Z</time>
      </trkpt>
      <trkpt lat="45.49097" lon="6.71045">
        <ele>2357.8000488</ele>
        <time>2013-07-27T08:17:05Z</time>
      </trkpt>
      <trkpt lat="45.49097" lon="6.71057">
        <ele>2358.1999512</ele>
        <time>2013-07-27T08:17:13Z</time>
      </trkpt>
      <trkpt lat="45.49097" lon="6.71067">
        <ele>2357.6000977</ele>
        <time>2013-07-27T08:17:19Z</time>
      </trkpt>
      <trkpt lat="45.49096" lon="6.7108">
        <ele>2358.3999023</ele>
        <time>2013-07-27T08:17:27Z</time>
      </trkpt>
      <trkpt lat="45.4909" lon="6.71101">
        <ele>2359.3999023</ele>
        <time>2013-07-27T08:17:40Z</time>
      </trkpt>
      <trkpt lat="45.49086" lon="6.71108">
        <ele>2359.6000977</ele>
        <time>2013-07-27T08:17:45Z</time>
      </trkpt>
      <trkpt lat="45.49082" lon="6.71118">
        <ele>2360</ele>
        <time>2013-07-27T08:17:51Z</time>
      </trkpt>
      <trkpt lat="45.49081" lon="6.71127">
        <ele>2360.1999512</ele>
        <time>2013-07-27T08:17:56Z</time>
      </trkpt>
      <trkpt lat="45.49082" lon="6.71139">
        <ele>2360.6000977</ele>
        <time>2013-07-27T08:18:02Z</time>
      </trkpt>
      <trkpt lat="45.49082" lon="6.71149">
        <ele>2361</ele>
        <time>2013-07-27T08:18:08Z</time>
      </trkpt>
      <trkpt lat="45.49081" lon="6.71161">
        <ele>2361</ele>
        <time>2013-07-27T08:18:15Z</time>
      </trkpt>
      <trkpt lat="45.49079" lon="6.71174">
        <ele>2362</ele>
        <time>2013-07-27T08:18:22Z</time>
      </trkpt>
      <trkpt lat="45.49076" lon="6.71187">
        <ele>2363.3999023</ele>
        <time>2013-07-27T08:18:29Z</time>
      </trkpt>
      <trkpt lat="45.49076" lon="6.71198">
        <ele>2364.1999512</ele>
        <time>2013-07-27T08:18:35Z</time>
      </trkpt>
      <trkpt lat="45.49077" lon="6.71211">
        <ele>2364.1999512</ele>
        <time>2013-07-27T08:18:42Z</time>
      </trkpt>
      <trkpt lat="45.49078" lon="6.71222">
        <ele>2364.8000488</ele>
        <time>2013-07-27T08:18:48Z</time>
      </trkpt>
      <trkpt lat="45.4908" lon="6.71231">
        <ele>2366</ele>
        <time>2013-07-27T08:18:54Z</time>
      </trkpt>
      <trkpt lat="45.4908" lon="6.71244">
        <ele>2364.8000488</ele>
        <time>2013-07-27T08:19:03Z</time>
      </trkpt>
      <trkpt lat="45.49083" lon="6.71255">
        <ele>2365.3999023</ele>
        <time>2013-07-27T08:19:10Z</time>
      </trkpt>
      <trkpt lat="45.49087" lon="6.71267">
        <ele>2366.8000488</ele>
        <time>2013-07-27T08:19:17Z</time>
      </trkpt>
      <trkpt lat="45.49088" lon="6.71278">
        <ele>2367.8000488</ele>
        <time>2013-07-27T08:19:23Z</time>
      </trkpt>
      <trkpt lat="45.49089" lon="6.71287">
        <ele>2368.8000488</ele>
        <time>2013-07-27T08:19:30Z</time>
      </trkpt>
      <trkpt lat="45.49088" lon="6.71297">
        <ele>2372.6000977</ele>
        <time>2013-07-27T08:19:39Z</time>
      </trkpt>
      <trkpt lat="45.4909" lon="6.71305">
        <ele>2374.1999512</ele>
        <time>2013-07-27T08:19:47Z</time>
      </trkpt>
      <trkpt lat="45.49085" lon="6.71312">
        <ele>2373.1999512</ele>
        <time>2013-07-27T08:19:56Z</time>
      </trkpt>
      <trkpt lat="45.49089" lon="6.71321">
        <ele>2375.8000488</ele>
        <time>2013-07-27T08:20:05Z</time>
      </trkpt>
      <trkpt lat="45.49087" lon="6.71331">
        <ele>2381</ele>
        <time>2013-07-27T08:20:17Z</time>
      </trkpt>
      <trkpt lat="45.49082" lon="6.71337">
        <ele>2383.1999512</ele>
        <time>2013-07-27T08:20:25Z</time>
      </trkpt>
      <trkpt lat="45.49076" lon="6.71342">
        <ele>2383.8000488</ele>
        <time>2013-07-27T08:20:33Z</time>
      </trkpt>
      <trkpt lat="45.49076" lon="6.71352">
        <ele>2384.6000977</ele>
        <time>2013-07-27T08:20:41Z</time>
      </trkpt>
      <trkpt lat="45.49076" lon="6.71362">
        <ele>2386</ele>
        <time>2013-07-27T08:20:49Z</time>
      </trkpt>
      <trkpt lat="45.49077" lon="6.71374">
        <ele>2386.8000488</ele>
        <time>2013-07-27T08:20:58Z</time>
      </trkpt>
      <trkpt lat="45.49075" lon="6.71382">
        <ele>2388.3999023</ele>
        <time>2013-07-27T08:21:08Z</time>
      </trkpt>
      <trkpt lat="45.49074" lon="6.71392">
        <ele>2389.1999512</ele>
        <time>2013-07-27T08:21:15Z</time>
      </trkpt>
      <trkpt lat="45.49077" lon="6.71401">
        <ele>2387.3999023</ele>
        <time>2013-07-27T08:21:25Z</time>
      </trkpt>
      <trkpt lat="45.49076" lon="6.71409">
        <ele>2390</ele>
        <time>2013-07-27T08:21:36Z</time>
      </trkpt>
      <trkpt lat="45.49076" lon="6.71418">
        <ele>2394.1999512</ele>
        <time>2013-07-27T08:21:46Z</time>
      </trkpt>
      <trkpt lat="45.49077" lon="6.71428">
        <ele>2394.1999512</ele>
        <time>2013-07-27T08:21:54Z</time>
      </trkpt>
      <trkpt lat="45.49079" lon="6.71436">
        <ele>2396.6000977</ele>
        <time>2013-07-27T08:22:02Z</time>
      </trkpt>
      <trkpt lat="45.49081" lon="6.71446">
        <ele>2398.8000488</ele>
        <time>2013-07-27T08:22:10Z</time>
      </trkpt>
      <trkpt lat="45.49079" lon="6.71455">
        <ele>2400.6000977</ele>
        <time>2013-07-27T08:22:17Z</time>
      </trkpt>
      <trkpt lat="45.49087" lon="6.7146">
        <ele>2403.3999023</ele>
        <time>2013-07-27T08:22:25Z</time>
      </trkpt>
      <trkpt lat="45.49084" lon="6.71468">
        <ele>2406.3999023</ele>
        <time>2013-07-27T08:22:30Z</time>
      </trkpt>
      <trkpt lat="45.49086" lon="6.71477">
        <ele>2407.1999512</ele>
        <time>2013-07-27T08:22:35Z</time>
      </trkpt>
      <trkpt lat="45.49091" lon="6.71485">
        <ele>2407.6000977</ele>
        <time>2013-07-27T08:22:42Z</time>
      </trkpt>
      <trkpt lat="45.49086" lon="6.71491">
        <ele>2407.8000488</ele>
        <time>2013-07-27T08:22:51Z</time>
      </trkpt>
      <trkpt lat="45.49092" lon="6.71499">
        <ele>2406.8000488</ele>
        <time>2013-07-27T08:22:58Z</time>
      </trkpt>
      <trkpt lat="45.49097" lon="6.71508">
        <ele>2407.8000488</ele>
        <time>2013-07-27T08:23:06Z</time>
      </trkpt>
      <trkpt lat="45.49104" lon="6.71511">
        <ele>2409.3999023</ele>
        <time>2013-07-27T08:23:12Z</time>
      </trkpt>
      <trkpt lat="45.49109" lon="6.71518">
        <ele>2411.8000488</ele>
        <time>2013-07-27T08:23:19Z</time>
      </trkpt>
      <trkpt lat="45.49115" lon="6.71525">
        <ele>2411.6000977</ele>
        <time>2013-07-27T08:23:30Z</time>
      </trkpt>
      <trkpt lat="45.49122" lon="6.71529">
        <ele>2413.1999512</ele>
        <time>2013-07-27T08:23:40Z</time>
      </trkpt>
      <trkpt lat="45.49119" lon="6.71534">
        <ele>2415.3999023</ele>
        <time>2013-07-27T08:23:48Z</time>
      </trkpt>
      <trkpt lat="45.49112" lon="6.7153">
        <ele>2416.3999023</ele>
        <time>2013-07-27T08:23:57Z</time>
      </trkpt>
      <trkpt lat="45.49104" lon="6.7153">
        <ele>2416.6000977</ele>
        <time>2013-07-27T08:24:09Z</time>
      </trkpt>
      <trkpt lat="45.49098" lon="6.71527">
        <ele>2417.3999023</ele>
        <time>2013-07-27T08:24:18Z</time>
      </trkpt>
      <trkpt lat="45.49091" lon="6.71528">
        <ele>2413.3999023</ele>
        <time>2013-07-27T08:24:28Z</time>
      </trkpt>
      <trkpt lat="45.49089" lon="6.7152">
        <ele>2411.3999023</ele>
        <time>2013-07-27T08:24:36Z</time>
      </trkpt>
      <trkpt lat="45.49084" lon="6.71519">
        <ele>2420.8000488</ele>
        <time>2013-07-27T08:24:50Z</time>
      </trkpt>
      <trkpt lat="45.49083" lon="6.71527">
        <ele>2427.3999023</ele>
        <time>2013-07-27T08:25:00Z</time>
      </trkpt>
      <trkpt lat="45.49087" lon="6.71535">
        <ele>2433.3999023</ele>
        <time>2013-07-27T08:25:09Z</time>
      </trkpt>
      <trkpt lat="45.49095" lon="6.71548">
        <ele>2435</ele>
        <time>2013-07-27T08:25:19Z</time>
      </trkpt>
      <trkpt lat="45.49102" lon="6.71552">
        <ele>2434.6000977</ele>
        <time>2013-07-27T08:25:26Z</time>
      </trkpt>
      <trkpt lat="45.49105" lon="6.71548">
        <ele>2437</ele>
        <time>2013-07-27T08:25:42Z</time>
      </trkpt>
      <trkpt lat="45.49102" lon="6.7155">
        <ele>2440.6000977</ele>
        <time>2013-07-27T08:25:50Z</time>
      </trkpt>
      <trkpt lat="45.49107" lon="6.71558">
        <ele>2437.6000977</ele>
        <time>2013-07-27T08:26:00Z</time>
      </trkpt>
      <trkpt lat="45.49113" lon="6.71564">
        <ele>2435</ele>
        <time>2013-07-27T08:26:08Z</time>
      </trkpt>
      <trkpt lat="45.4912" lon="6.71573">
        <ele>2435.1999512</ele>
        <time>2013-07-27T08:26:16Z</time>
      </trkpt>
      <trkpt lat="45.49126" lon="6.7158">
        <ele>2437.1999512</ele>
        <time>2013-07-27T08:26:23Z</time>
      </trkpt>
      <trkpt lat="45.4913" lon="6.7159">
        <ele>2438.6000977</ele>
        <time>2013-07-27T08:26:30Z</time>
      </trkpt>
      <trkpt lat="45.49134" lon="6.716">
        <ele>2439</ele>
        <time>2013-07-27T08:26:36Z</time>
      </trkpt>
      <trkpt lat="45.49138" lon="6.7161">
        <ele>2438.1999512</ele>
        <time>2013-07-27T08:26:44Z</time>
      </trkpt>
      <trkpt lat="45.49142" lon="6.71619">
        <ele>2438.8000488</ele>
        <time>2013-07-27T08:26:52Z</time>
      </trkpt>
      <trkpt lat="45.49149" lon="6.71631">
        <ele>2440.6000977</ele>
        <time>2013-07-27T08:27:00Z</time>
      </trkpt>
      <trkpt lat="45.49154" lon="6.71637">
        <ele>2440</ele>
        <time>2013-07-27T08:27:05Z</time>
      </trkpt>
      <trkpt lat="45.49159" lon="6.71647">
        <ele>2438.1999512</ele>
        <time>2013-07-27T08:27:12Z</time>
      </trkpt>
      <trkpt lat="45.49165" lon="6.71654">
        <ele>2438.3999023</ele>
        <time>2013-07-27T08:27:18Z</time>
      </trkpt>
      <trkpt lat="45.49171" lon="6.71669">
        <ele>2438.3999023</ele>
        <time>2013-07-27T08:27:28Z</time>
      </trkpt>
      <trkpt lat="45.49176" lon="6.7168">
        <ele>2439.8000488</ele>
        <time>2013-07-27T08:27:35Z</time>
      </trkpt>
      <trkpt lat="45.49182" lon="6.71703">
        <ele>2440.1999512</ele>
        <time>2013-07-27T08:27:48Z</time>
      </trkpt>
      <trkpt lat="45.49183" lon="6.71713">
        <ele>2439.6000977</ele>
        <time>2013-07-27T08:27:53Z</time>
      </trkpt>
      <trkpt lat="45.49185" lon="6.71725">
        <ele>2440.1999512</ele>
        <time>2013-07-27T08:27:59Z</time>
      </trkpt>
      <trkpt lat="45.49186" lon="6.71735">
        <ele>2441.1999512</ele>
        <time>2013-07-27T08:28:04Z</time>
      </trkpt>
      <trkpt lat="45.49187" lon="6.71746">
        <ele>2442.1999512</ele>
        <time>2013-07-27T08:28:10Z</time>
      </trkpt>
      <trkpt lat="45.49186" lon="6.71759">
        <ele>2442.1999512</ele>
        <time>2013-07-27T08:28:17Z</time>
      </trkpt>
      <trkpt lat="45.49185" lon="6.71785">
        <ele>2441.6000977</ele>
        <time>2013-07-27T08:28:31Z</time>
      </trkpt>
      <trkpt lat="45.49188" lon="6.71798">
        <ele>2440.1999512</ele>
        <time>2013-07-27T08:28:39Z</time>
      </trkpt>
      <trkpt lat="45.49193" lon="6.71805">
        <ele>2439.1999512</ele>
        <time>2013-07-27T08:28:47Z</time>
      </trkpt>
      <trkpt lat="45.49189" lon="6.71811">
        <ele>2439</ele>
        <time>2013-07-27T08:28:57Z</time>
      </trkpt>
      <trkpt lat="45.49188" lon="6.71822">
        <ele>2435.3999023</ele>
        <time>2013-07-27T08:29:19Z</time>
      </trkpt>
      <trkpt lat="45.49188" lon="6.71839">
        <ele>2435.8000488</ele>
        <time>2013-07-27T08:29:28Z</time>
      </trkpt>
      <trkpt lat="45.49188" lon="6.71851">
        <ele>2436.6000977</ele>
        <time>2013-07-27T08:29:35Z</time>
      </trkpt>
      <trkpt lat="45.49187" lon="6.71864">
        <ele>2436.3999023</ele>
        <time>2013-07-27T08:29:43Z</time>
      </trkpt>
      <trkpt lat="45.49185" lon="6.71872">
        <ele>2435.3999023</ele>
        <time>2013-07-27T08:29:49Z</time>
      </trkpt>
      <trkpt lat="45.49184" lon="6.71881">
        <ele>2433.1999512</ele>
        <time>2013-07-27T08:29:56Z</time>
      </trkpt>
      <trkpt lat="45.49185" lon="6.71892">
        <ele>2432.6000977</ele>
        <time>2013-07-27T08:30:02Z</time>
      </trkpt>
      <trkpt lat="45.49187" lon="6.719">
        <ele>2432.6000977</ele>
        <time>2013-07-27T08:30:07Z</time>
      </trkpt>
      <trkpt lat="45.4919" lon="6.71908">
        <ele>2433.1999512</ele>
        <time>2013-07-27T08:30:12Z</time>
      </trkpt>
      <trkpt lat="45.49195" lon="6.7192">
        <ele>2434.3999023</ele>
        <time>2013-07-27T08:30:20Z</time>
      </trkpt>
      <trkpt lat="45.49201" lon="6.71933">
        <ele>2434.6000977</ele>
        <time>2013-07-27T08:30:29Z</time>
      </trkpt>
      <trkpt lat="45.49207" lon="6.71943">
        <ele>2435.1999512</ele>
        <time>2013-07-27T08:30:36Z</time>
      </trkpt>
      <trkpt lat="45.49212" lon="6.71949">
        <ele>2438</ele>
        <time>2013-07-27T08:30:41Z</time>
      </trkpt>
      <trkpt lat="45.49217" lon="6.71958">
        <ele>2440.8000488</ele>
        <time>2013-07-27T08:30:48Z</time>
      </trkpt>
      <trkpt lat="45.49223" lon="6.71968">
        <ele>2440.3999023</ele>
        <time>2013-07-27T08:30:56Z</time>
      </trkpt>
      <trkpt lat="45.49227" lon="6.71979">
        <ele>2442.1999512</ele>
        <time>2013-07-27T08:31:04Z</time>
      </trkpt>
      <trkpt lat="45.4923" lon="6.71987">
        <ele>2445.1999512</ele>
        <time>2013-07-27T08:31:10Z</time>
      </trkpt>
      <trkpt lat="45.49234" lon="6.71997">
        <ele>2448.6000977</ele>
        <time>2013-07-27T08:31:19Z</time>
      </trkpt>
      <trkpt lat="45.49239" lon="6.72006">
        <ele>2447.8000488</ele>
        <time>2013-07-27T08:31:27Z</time>
      </trkpt>
      <trkpt lat="45.49243" lon="6.72019">
        <ele>2448</ele>
        <time>2013-07-27T08:31:37Z</time>
      </trkpt>
      <trkpt lat="45.49246" lon="6.72028">
        <ele>2448.3999023</ele>
        <time>2013-07-27T08:31:44Z</time>
      </trkpt>
      <trkpt lat="45.49247" lon="6.72039">
        <ele>2448.8000488</ele>
        <time>2013-07-27T08:31:52Z</time>
      </trkpt>
      <trkpt lat="45.49245" lon="6.72051">
        <ele>2449.3999023</ele>
        <time>2013-07-27T08:32:00Z</time>
      </trkpt>
      <trkpt lat="45.49244" lon="6.7206">
        <ele>2450.1999512</ele>
        <time>2013-07-27T08:32:06Z</time>
      </trkpt>
      <trkpt lat="45.49242" lon="6.72069">
        <ele>2450.8000488</ele>
        <time>2013-07-27T08:32:12Z</time>
      </trkpt>
      <trkpt lat="45.49242" lon="6.72084">
        <ele>2451.1999512</ele>
        <time>2013-07-27T08:32:21Z</time>
      </trkpt>
      <trkpt lat="45.4924" lon="6.72093">
        <ele>2452.8000488</ele>
        <time>2013-07-27T08:32:28Z</time>
      </trkpt>
      <trkpt lat="45.49237" lon="6.72102">
        <ele>2454.6000977</ele>
        <time>2013-07-27T08:32:35Z</time>
      </trkpt>
      <trkpt lat="45.49235" lon="6.72112">
        <ele>2456.1999512</ele>
        <time>2013-07-27T08:32:43Z</time>
      </trkpt>
      <trkpt lat="45.49232" lon="6.72122">
        <ele>2458</ele>
        <time>2013-07-27T08:32:53Z</time>
      </trkpt>
      <trkpt lat="45.49231" lon="6.72135">
        <ele>2459.8000488</ele>
        <time>2013-07-27T08:33:03Z</time>
      </trkpt>
      <trkpt lat="45.49229" lon="6.72146">
        <ele>2461.1999512</ele>
        <time>2013-07-27T08:33:13Z</time>
      </trkpt>
      <trkpt lat="45.49227" lon="6.72158">
        <ele>2463.6000977</ele>
        <time>2013-07-27T08:33:23Z</time>
      </trkpt>
      <trkpt lat="45.49225" lon="6.72171">
        <ele>2464.1999512</ele>
        <time>2013-07-27T08:33:34Z</time>
      </trkpt>
      <trkpt lat="45.49222" lon="6.72182">
        <ele>2465</ele>
        <time>2013-07-27T08:33:42Z</time>
      </trkpt>
      <trkpt lat="45.4922" lon="6.72193">
        <ele>2466.1999512</ele>
        <time>2013-07-27T08:33:50Z</time>
      </trkpt>
      <trkpt lat="45.49218" lon="6.72204">
        <ele>2467.3999023</ele>
        <time>2013-07-27T08:33:58Z</time>
      </trkpt>
      <trkpt lat="45.49217" lon="6.72214">
        <ele>2467.8000488</ele>
        <time>2013-07-27T08:34:06Z</time>
      </trkpt>
      <trkpt lat="45.49215" lon="6.72226">
        <ele>2468.1999512</ele>
        <time>2013-07-27T08:34:14Z</time>
      </trkpt>
      <trkpt lat="45.49213" lon="6.72236">
        <ele>2469.8000488</ele>
        <time>2013-07-27T08:34:22Z</time>
      </trkpt>
      <trkpt lat="45.49209" lon="6.72246">
        <ele>2471.1999512</ele>
        <time>2013-07-27T08:34:30Z</time>
      </trkpt>
      <trkpt lat="45.49207" lon="6.72256">
        <ele>2473.1999512</ele>
        <time>2013-07-27T08:34:38Z</time>
      </trkpt>
      <trkpt lat="45.49206" lon="6.72267">
        <ele>2474.3999023</ele>
        <time>2013-07-27T08:34:46Z</time>
      </trkpt>
      <trkpt lat="45.49205" lon="6.72279">
        <ele>2476.6000977</ele>
        <time>2013-07-27T08:34:55Z</time>
      </trkpt>
      <trkpt lat="45.49204" lon="6.72288">
        <ele>2479.6000977</ele>
        <time>2013-07-27T08:35:03Z</time>
      </trkpt>
      <trkpt lat="45.49201" lon="6.72298">
        <ele>2481.1999512</ele>
        <time>2013-07-27T08:35:10Z</time>
      </trkpt>
      <trkpt lat="45.49194" lon="6.72305">
        <ele>2482.8000488</ele>
        <time>2013-07-27T08:35:17Z</time>
      </trkpt>
      <trkpt lat="45.49187" lon="6.7231">
        <ele>2483.8000488</ele>
        <time>2013-07-27T08:35:23Z</time>
      </trkpt>
      <trkpt lat="45.4918" lon="6.72318">
        <ele>2484.8000488</ele>
        <time>2013-07-27T08:35:31Z</time>
      </trkpt>
      <trkpt lat="45.49175" lon="6.72329">
        <ele>2485.8000488</ele>
        <time>2013-07-27T08:35:39Z</time>
      </trkpt>
      <trkpt lat="45.49175" lon="6.72339">
        <ele>2486.8000488</ele>
        <time>2013-07-27T08:35:46Z</time>
      </trkpt>
      <trkpt lat="45.49175" lon="6.7235">
        <ele>2487.8000488</ele>
        <time>2013-07-27T08:35:53Z</time>
      </trkpt>
      <trkpt lat="45.49176" lon="6.72362">
        <ele>2488.1999512</ele>
        <time>2013-07-27T08:36:01Z</time>
      </trkpt>
      <trkpt lat="45.49178" lon="6.72373">
        <ele>2488.8000488</ele>
        <time>2013-07-27T08:36:08Z</time>
      </trkpt>
      <trkpt lat="45.4918" lon="6.72386">
        <ele>2490</ele>
        <time>2013-07-27T08:36:17Z</time>
      </trkpt>
      <trkpt lat="45.49179" lon="6.72396">
        <ele>2491.1999512</ele>
        <time>2013-07-27T08:36:23Z</time>
      </trkpt>
      <trkpt lat="45.49177" lon="6.72409">
        <ele>2492.8000488</ele>
        <time>2013-07-27T08:36:31Z</time>
      </trkpt>
      <trkpt lat="45.49175" lon="6.72418">
        <ele>2493.3999023</ele>
        <time>2013-07-27T08:36:36Z</time>
      </trkpt>
      <trkpt lat="45.4917" lon="6.72434">
        <ele>2493.1999512</ele>
        <time>2013-07-27T08:36:45Z</time>
      </trkpt>
      <trkpt lat="45.49166" lon="6.72444">
        <ele>2493</ele>
        <time>2013-07-27T08:36:52Z</time>
      </trkpt>
      <trkpt lat="45.49162" lon="6.72454">
        <ele>2492.6000977</ele>
        <time>2013-07-27T08:36:59Z</time>
      </trkpt>
      <trkpt lat="45.49157" lon="6.72461">
        <ele>2492.1999512</ele>
        <time>2013-07-27T08:37:04Z</time>
      </trkpt>
      <trkpt lat="45.49151" lon="6.7247">
        <ele>2493</ele>
        <time>2013-07-27T08:37:11Z</time>
      </trkpt>
      <trkpt lat="45.49146" lon="6.72479">
        <ele>2493.6000977</ele>
        <time>2013-07-27T08:37:17Z</time>
      </trkpt>
      <trkpt lat="45.49142" lon="6.72486">
        <ele>2493.6000977</ele>
        <time>2013-07-27T08:37:22Z</time>
      </trkpt>
      <trkpt lat="45.49137" lon="6.72497">
        <ele>2492.8000488</ele>
        <time>2013-07-27T08:37:29Z</time>
      </trkpt>
      <trkpt lat="45.49134" lon="6.72506">
        <ele>2493</ele>
        <time>2013-07-27T08:37:35Z</time>
      </trkpt>
      <trkpt lat="45.49132" lon="6.72515">
        <ele>2493.6000977</ele>
        <time>2013-07-27T08:37:40Z</time>
      </trkpt>
      <trkpt lat="45.49131" lon="6.72524">
        <ele>2494.1999512</ele>
        <time>2013-07-27T08:37:45Z</time>
      </trkpt>
      <trkpt lat="45.4913" lon="6.72541">
        <ele>2493.8000488</ele>
        <time>2013-07-27T08:37:54Z</time>
      </trkpt>
      <trkpt lat="45.4913" lon="6.72553">
        <ele>2492.6000977</ele>
        <time>2013-07-27T08:38:01Z</time>
      </trkpt>
      <trkpt lat="45.49131" lon="6.72563">
        <ele>2491.6000977</ele>
        <time>2013-07-27T08:38:08Z</time>
      </trkpt>
      <trkpt lat="45.49133" lon="6.72572">
        <ele>2492</ele>
        <time>2013-07-27T08:38:14Z</time>
      </trkpt>
      <trkpt lat="45.49134" lon="6.72583">
        <ele>2493.8000488</ele>
        <time>2013-07-27T08:38:21Z</time>
      </trkpt>
      <trkpt lat="45.49137" lon="6.72592">
        <ele>2494</ele>
        <time>2013-07-27T08:38:28Z</time>
      </trkpt>
      <trkpt lat="45.49139" lon="6.72602">
        <ele>2494.1999512</ele>
        <time>2013-07-27T08:38:35Z</time>
      </trkpt>
      <trkpt lat="45.49144" lon="6.72611">
        <ele>2496</ele>
        <time>2013-07-27T08:38:44Z</time>
      </trkpt>
      <trkpt lat="45.49149" lon="6.72619">
        <ele>2499.8000488</ele>
        <time>2013-07-27T08:38:53Z</time>
      </trkpt>
      <trkpt lat="45.49153" lon="6.72627">
        <ele>2497.8000488</ele>
        <time>2013-07-27T08:39:01Z</time>
      </trkpt>
      <trkpt lat="45.49158" lon="6.72635">
        <ele>2496.1999512</ele>
        <time>2013-07-27T08:39:08Z</time>
      </trkpt>
      <trkpt lat="45.49161" lon="6.72647">
        <ele>2498.3999023</ele>
        <time>2013-07-27T08:39:16Z</time>
      </trkpt>
      <trkpt lat="45.49163" lon="6.72656">
        <ele>2505.6000977</ele>
        <time>2013-07-27T08:39:23Z</time>
      </trkpt>
      <trkpt lat="45.49163" lon="6.72667">
        <ele>2510</ele>
        <time>2013-07-27T08:39:33Z</time>
      </trkpt>
      <trkpt lat="45.49162" lon="6.72677">
        <ele>2513.1999512</ele>
        <time>2013-07-27T08:39:43Z</time>
      </trkpt>
      <trkpt lat="45.49162" lon="6.72686">
        <ele>2515.1999512</ele>
        <time>2013-07-27T08:39:51Z</time>
      </trkpt>
      <trkpt lat="45.49158" lon="6.72693">
        <ele>2518.3999023</ele>
        <time>2013-07-27T08:40:00Z</time>
      </trkpt>
      <trkpt lat="45.49157" lon="6.72701">
        <ele>2520.8000488</ele>
        <time>2013-07-27T08:40:11Z</time>
      </trkpt>
      <trkpt lat="45.49156" lon="6.72713">
        <ele>2522.1999512</ele>
        <time>2013-07-27T08:40:21Z</time>
      </trkpt>
      <trkpt lat="45.49158" lon="6.72723">
        <ele>2523.1999512</ele>
        <time>2013-07-27T08:40:29Z</time>
      </trkpt>
      <trkpt lat="45.49159" lon="6.7273">
        <ele>2523</ele>
        <time>2013-07-27T08:40:39Z</time>
      </trkpt>
      <trkpt lat="45.49162" lon="6.7274">
        <ele>2525</ele>
        <time>2013-07-27T08:40:49Z</time>
      </trkpt>
      <trkpt lat="45.49165" lon="6.72748">
        <ele>2527.6000977</ele>
        <time>2013-07-27T08:40:57Z</time>
      </trkpt>
      <trkpt lat="45.49166" lon="6.72758">
        <ele>2531</ele>
        <time>2013-07-27T08:41:08Z</time>
      </trkpt>
      <trkpt lat="45.49169" lon="6.72767">
        <ele>2532.1999512</ele>
        <time>2013-07-27T08:41:20Z</time>
      </trkpt>
      <trkpt lat="45.4917" lon="6.72777">
        <ele>2532.3999023</ele>
        <time>2013-07-27T08:41:29Z</time>
      </trkpt>
      <trkpt lat="45.4917" lon="6.7279">
        <ele>2532</ele>
        <time>2013-07-27T08:41:38Z</time>
      </trkpt>
      <trkpt lat="45.4917" lon="6.72799">
        <ele>2532.3999023</ele>
        <time>2013-07-27T08:41:45Z</time>
      </trkpt>
      <trkpt lat="45.49169" lon="6.72807">
        <ele>2534.3999023</ele>
        <time>2013-07-27T08:41:55Z</time>
      </trkpt>
      <trkpt lat="45.4917" lon="6.72817">
        <ele>2537.1999512</ele>
        <time>2013-07-27T08:42:08Z</time>
      </trkpt>
      <trkpt lat="45.49171" lon="6.72827">
        <ele>2541.6000977</ele>
        <time>2013-07-27T08:42:21Z</time>
      </trkpt>
      <trkpt lat="45.49168" lon="6.72836">
        <ele>2544.8000488</ele>
        <time>2013-07-27T08:42:32Z</time>
      </trkpt>
      <trkpt lat="45.49167" lon="6.72847">
        <ele>2547.6000977</ele>
        <time>2013-07-27T08:42:42Z</time>
      </trkpt>
      <trkpt lat="45.49166" lon="6.72857">
        <ele>2548.8000488</ele>
        <time>2013-07-27T08:42:50Z</time>
      </trkpt>
      <trkpt lat="45.49161" lon="6.72862">
        <ele>2547.8000488</ele>
        <time>2013-07-27T08:42:58Z</time>
      </trkpt>
      <trkpt lat="45.49162" lon="6.72871">
        <ele>2549</ele>
        <time>2013-07-27T08:43:08Z</time>
      </trkpt>
      <trkpt lat="45.49151" lon="6.72879">
        <ele>2549.3999023</ele>
        <time>2013-07-27T08:43:18Z</time>
      </trkpt>
      <trkpt lat="45.49146" lon="6.72886">
        <ele>2550.8000488</ele>
        <time>2013-07-27T08:43:24Z</time>
      </trkpt>
      <trkpt lat="45.4914" lon="6.72899">
        <ele>2552.1999512</ele>
        <time>2013-07-27T08:43:33Z</time>
      </trkpt>
      <trkpt lat="45.49138" lon="6.7291">
        <ele>2553.8000488</ele>
        <time>2013-07-27T08:43:41Z</time>
      </trkpt>
      <trkpt lat="45.49137" lon="6.72919">
        <ele>2554</ele>
        <time>2013-07-27T08:43:48Z</time>
      </trkpt>
      <trkpt lat="45.49136" lon="6.7293">
        <ele>2552</ele>
        <time>2013-07-27T08:43:55Z</time>
      </trkpt>
      <trkpt lat="45.49135" lon="6.72941">
        <ele>2550.6000977</ele>
        <time>2013-07-27T08:44:03Z</time>
      </trkpt>
      <trkpt lat="45.49133" lon="6.72949">
        <ele>2551.1999512</ele>
        <time>2013-07-27T08:44:09Z</time>
      </trkpt>
      <trkpt lat="45.49129" lon="6.72959">
        <ele>2554.3999023</ele>
        <time>2013-07-27T08:44:17Z</time>
      </trkpt>
      <trkpt lat="45.49127" lon="6.7297">
        <ele>2557.3999023</ele>
        <time>2013-07-27T08:44:25Z</time>
      </trkpt>
      <trkpt lat="45.49127" lon="6.72979">
        <ele>2559.1999512</ele>
        <time>2013-07-27T08:44:32Z</time>
      </trkpt>
      <trkpt lat="45.49128" lon="6.72992">
        <ele>2560.8000488</ele>
        <time>2013-07-27T08:44:40Z</time>
      </trkpt>
      <trkpt lat="45.49131" lon="6.73003">
        <ele>2562</ele>
        <time>2013-07-27T08:44:47Z</time>
      </trkpt>
      <trkpt lat="45.49136" lon="6.73012">
        <ele>2564</ele>
        <time>2013-07-27T08:44:55Z</time>
      </trkpt>
      <trkpt lat="45.49141" lon="6.73018">
        <ele>2565.8000488</ele>
        <time>2013-07-27T08:45:02Z</time>
      </trkpt>
      <trkpt lat="45.49148" lon="6.73026">
        <ele>2566.6000977</ele>
        <time>2013-07-27T08:45:10Z</time>
      </trkpt>
      <trkpt lat="45.49153" lon="6.73033">
        <ele>2569</ele>
        <time>2013-07-27T08:45:16Z</time>
      </trkpt>
      <trkpt lat="45.49157" lon="6.73044">
        <ele>2569.8000488</ele>
        <time>2013-07-27T08:45:24Z</time>
      </trkpt>
      <trkpt lat="45.49158" lon="6.73054">
        <ele>2569</ele>
        <time>2013-07-27T08:45:30Z</time>
      </trkpt>
      <trkpt lat="45.49156" lon="6.73063">
        <ele>2568.3999023</ele>
        <time>2013-07-27T08:45:36Z</time>
      </trkpt>
      <trkpt lat="45.49155" lon="6.73073">
        <ele>2568.6000977</ele>
        <time>2013-07-27T08:45:43Z</time>
      </trkpt>
      <trkpt lat="45.49154" lon="6.73083">
        <ele>2569.3999023</ele>
        <time>2013-07-27T08:45:50Z</time>
      </trkpt>
      <trkpt lat="45.49154" lon="6.73094">
        <ele>2570</ele>
        <time>2013-07-27T08:45:57Z</time>
      </trkpt>
      <trkpt lat="45.49156" lon="6.73104">
        <ele>2570.1999512</ele>
        <time>2013-07-27T08:46:05Z</time>
      </trkpt>
      <trkpt lat="45.49161" lon="6.73115">
        <ele>2570.6000977</ele>
        <time>2013-07-27T08:46:14Z</time>
      </trkpt>
      <trkpt lat="45.49166" lon="6.73121">
        <ele>2572</ele>
        <time>2013-07-27T08:46:22Z</time>
      </trkpt>
      <trkpt lat="45.49171" lon="6.73127">
        <ele>2572.3999023</ele>
        <time>2013-07-27T08:46:29Z</time>
      </trkpt>
      <trkpt lat="45.49179" lon="6.73135">
        <ele>2572</ele>
        <time>2013-07-27T08:46:38Z</time>
      </trkpt>
      <trkpt lat="45.49185" lon="6.73141">
        <ele>2570.8000488</ele>
        <time>2013-07-27T08:46:45Z</time>
      </trkpt>
      <trkpt lat="45.4919" lon="6.73147">
        <ele>2570.1999512</ele>
        <time>2013-07-27T08:46:51Z</time>
      </trkpt>
      <trkpt lat="45.49191" lon="6.73155">
        <ele>2569.6000977</ele>
        <time>2013-07-27T08:46:58Z</time>
      </trkpt>
      <trkpt lat="45.49197" lon="6.73157">
        <ele>2568.3999023</ele>
        <time>2013-07-27T08:47:03Z</time>
      </trkpt>
      <trkpt lat="45.49205" lon="6.73159">
        <ele>2567.6000977</ele>
        <time>2013-07-27T08:47:09Z</time>
      </trkpt>
      <trkpt lat="45.49211" lon="6.73165">
        <ele>2569.8000488</ele>
        <time>2013-07-27T08:47:19Z</time>
      </trkpt>
      <trkpt lat="45.49218" lon="6.7317">
        <ele>2571.8000488</ele>
        <time>2013-07-27T08:47:30Z</time>
      </trkpt>
      <trkpt lat="45.49228" lon="6.73169">
        <ele>2573.8000488</ele>
        <time>2013-07-27T08:47:38Z</time>
      </trkpt>
      <trkpt lat="45.49234" lon="6.73166">
        <ele>2575.3999023</ele>
        <time>2013-07-27T08:47:43Z</time>
      </trkpt>
      <trkpt lat="45.49242" lon="6.73162">
        <ele>2577.1999512</ele>
        <time>2013-07-27T08:47:50Z</time>
      </trkpt>
      <trkpt lat="45.49249" lon="6.7316">
        <ele>2578.1999512</ele>
        <time>2013-07-27T08:47:56Z</time>
      </trkpt>
      <trkpt lat="45.49255" lon="6.73153">
        <ele>2579.1999512</ele>
        <time>2013-07-27T08:48:02Z</time>
      </trkpt>
      <trkpt lat="45.49261" lon="6.73155">
        <ele>2580</ele>
        <time>2013-07-27T08:48:07Z</time>
      </trkpt>
      <trkpt lat="45.49269" lon="6.7316">
        <ele>2581.3999023</ele>
        <time>2013-07-27T08:48:15Z</time>
      </trkpt>
      <trkpt lat="45.49279" lon="6.73158">
        <ele>2583.1999512</ele>
        <time>2013-07-27T08:48:23Z</time>
      </trkpt>
      <trkpt lat="45.49288" lon="6.73156">
        <ele>2586.1999512</ele>
        <time>2013-07-27T08:48:30Z</time>
      </trkpt>
      <trkpt lat="45.49296" lon="6.73155">
        <ele>2587.6000977</ele>
        <time>2013-07-27T08:48:35Z</time>
      </trkpt>
      <trkpt lat="45.49303" lon="6.73157">
        <ele>2588.6000977</ele>
        <time>2013-07-27T08:48:41Z</time>
      </trkpt>
      <trkpt lat="45.49308" lon="6.73151">
        <ele>2592.1999512</ele>
        <time>2013-07-27T08:48:48Z</time>
      </trkpt>
      <trkpt lat="45.49317" lon="6.73152">
        <ele>2595.6000977</ele>
        <time>2013-07-27T08:48:57Z</time>
      </trkpt>
      <trkpt lat="45.49325" lon="6.73155">
        <ele>2594.1999512</ele>
        <time>2013-07-27T08:49:05Z</time>
      </trkpt>
      <trkpt lat="45.49332" lon="6.73155">
        <ele>2591.8000488</ele>
        <time>2013-07-27T08:49:14Z</time>
      </trkpt>
      <trkpt lat="45.49338" lon="6.73158">
        <ele>2590.8000488</ele>
        <time>2013-07-27T08:49:19Z</time>
      </trkpt>
      <trkpt lat="45.49345" lon="6.7316">
        <ele>2590.8000488</ele>
        <time>2013-07-27T08:49:26Z</time>
      </trkpt>
      <trkpt lat="45.49352" lon="6.7316">
        <ele>2595.6000977</ele>
        <time>2013-07-27T08:49:35Z</time>
      </trkpt>
      <trkpt lat="45.49358" lon="6.73157">
        <ele>2599.1999512</ele>
        <time>2013-07-27T08:49:40Z</time>
      </trkpt>
      <trkpt lat="45.49367" lon="6.73154">
        <ele>2602</ele>
        <time>2013-07-27T08:49:47Z</time>
      </trkpt>
      <trkpt lat="45.49375" lon="6.73156">
        <ele>2603.3999023</ele>
        <time>2013-07-27T08:49:52Z</time>
      </trkpt>
      <trkpt lat="45.49385" lon="6.73159">
        <ele>2603.3999023</ele>
        <time>2013-07-27T08:49:58Z</time>
      </trkpt>
      <trkpt lat="45.49392" lon="6.73161">
        <ele>2601.8000488</ele>
        <time>2013-07-27T08:50:03Z</time>
      </trkpt>
      <trkpt lat="45.49398" lon="6.7316">
        <ele>2602.1999512</ele>
        <time>2013-07-27T08:50:10Z</time>
      </trkpt>
      <trkpt lat="45.49405" lon="6.73158">
        <ele>2605.1999512</ele>
        <time>2013-07-27T08:50:16Z</time>
      </trkpt>
      <trkpt lat="45.49413" lon="6.7316">
        <ele>2606.1999512</ele>
        <time>2013-07-27T08:50:24Z</time>
      </trkpt>
      <trkpt lat="45.4942" lon="6.73162">
        <ele>2605.8000488</ele>
        <time>2013-07-27T08:50:31Z</time>
      </trkpt>
      <trkpt lat="45.49426" lon="6.7317">
        <ele>2603.6000977</ele>
        <time>2013-07-27T08:50:39Z</time>
      </trkpt>
      <trkpt lat="45.49432" lon="6.73176">
        <ele>2604.3999023</ele>
        <time>2013-07-27T08:50:46Z</time>
      </trkpt>
      <trkpt lat="45.49438" lon="6.73188">
        <ele>2605.8000488</ele>
        <time>2013-07-27T08:50:56Z</time>
      </trkpt>
      <trkpt lat="45.49444" lon="6.73191">
        <ele>2606.1999512</ele>
        <time>2013-07-27T08:51:02Z</time>
      </trkpt>
      <trkpt lat="45.49452" lon="6.73193">
        <ele>2606.8000488</ele>
        <time>2013-07-27T08:51:10Z</time>
      </trkpt>
      <trkpt lat="45.49458" lon="6.73196">
        <ele>2607.3999023</ele>
        <time>2013-07-27T08:51:17Z</time>
      </trkpt>
      <trkpt lat="45.49465" lon="6.73198">
        <ele>2608</ele>
        <time>2013-07-27T08:51:24Z</time>
      </trkpt>
      <trkpt lat="45.49473" lon="6.73197">
        <ele>2609.6000977</ele>
        <time>2013-07-27T08:51:32Z</time>
      </trkpt>
      <trkpt lat="45.4948" lon="6.73198">
        <ele>2610.6000977</ele>
        <time>2013-07-27T08:51:39Z</time>
      </trkpt>
      <trkpt lat="45.49488" lon="6.732">
        <ele>2611.3999023</ele>
        <time>2013-07-27T08:51:47Z</time>
      </trkpt>
      <trkpt lat="45.49495" lon="6.73201">
        <ele>2611.3999023</ele>
        <time>2013-07-27T08:51:54Z</time>
      </trkpt>
      <trkpt lat="45.49503" lon="6.73205">
        <ele>2613.1999512</ele>
        <time>2013-07-27T08:52:03Z</time>
      </trkpt>
      <trkpt lat="45.49511" lon="6.73208">
        <ele>2615.1999512</ele>
        <time>2013-07-27T08:52:11Z</time>
      </trkpt>
      <trkpt lat="45.49517" lon="6.73211">
        <ele>2616.6000977</ele>
        <time>2013-07-27T08:52:19Z</time>
      </trkpt>
      <trkpt lat="45.49525" lon="6.73212">
        <ele>2616</ele>
        <time>2013-07-27T08:52:27Z</time>
      </trkpt>
      <trkpt lat="45.49532" lon="6.73213">
        <ele>2615.6000977</ele>
        <time>2013-07-27T08:52:34Z</time>
      </trkpt>
      <trkpt lat="45.49537" lon="6.7322">
        <ele>2617.3999023</ele>
        <time>2013-07-27T08:52:42Z</time>
      </trkpt>
      <trkpt lat="45.49545" lon="6.73223">
        <ele>2620.6000977</ele>
        <time>2013-07-27T08:52:49Z</time>
      </trkpt>
      <trkpt lat="45.49551" lon="6.73221">
        <ele>2622.3999023</ele>
        <time>2013-07-27T08:52:55Z</time>
      </trkpt>
      <trkpt lat="45.49559" lon="6.73222">
        <ele>2622.8000488</ele>
        <time>2013-07-27T08:53:02Z</time>
      </trkpt>
      <trkpt lat="45.49563" lon="6.73227">
        <ele>2623</ele>
        <time>2013-07-27T08:53:09Z</time>
      </trkpt>
      <trkpt lat="45.4957" lon="6.73231">
        <ele>2623.3999023</ele>
        <time>2013-07-27T08:53:15Z</time>
      </trkpt>
      <trkpt lat="45.4958" lon="6.73232">
        <ele>2625</ele>
        <time>2013-07-27T08:53:23Z</time>
      </trkpt>
      <trkpt lat="45.49587" lon="6.73232">
        <ele>2626.3999023</ele>
        <time>2013-07-27T08:53:28Z</time>
      </trkpt>
      <trkpt lat="45.49595" lon="6.73229">
        <ele>2628</ele>
        <time>2013-07-27T08:53:34Z</time>
      </trkpt>
      <trkpt lat="45.49604" lon="6.73232">
        <ele>2629.1999512</ele>
        <time>2013-07-27T08:53:39Z</time>
      </trkpt>
      <trkpt lat="45.49609" lon="6.73234">
        <ele>2629.6000977</ele>
        <time>2013-07-27T08:53:44Z</time>
      </trkpt>
      <trkpt lat="45.49614" lon="6.7324">
        <ele>2630.6000977</ele>
        <time>2013-07-27T08:53:52Z</time>
      </trkpt>
      <trkpt lat="45.49616" lon="6.73251">
        <ele>2631.3999023</ele>
        <time>2013-07-27T08:53:57Z</time>
      </trkpt>
      <trkpt lat="45.49621" lon="6.7326">
        <ele>2631.1999512</ele>
        <time>2013-07-27T08:54:07Z</time>
      </trkpt>
      <trkpt lat="45.49629" lon="6.73263">
        <ele>2632.6000977</ele>
        <time>2013-07-27T08:54:15Z</time>
      </trkpt>
      <trkpt lat="45.49632" lon="6.73273">
        <ele>2634.1999512</ele>
        <time>2013-07-27T08:54:23Z</time>
      </trkpt>
      <trkpt lat="45.49624" lon="6.73279">
        <ele>2636.3999023</ele>
        <time>2013-07-27T08:54:33Z</time>
      </trkpt>
      <trkpt lat="45.49616" lon="6.73276">
        <ele>2638</ele>
        <time>2013-07-27T08:54:43Z</time>
      </trkpt>
      <trkpt lat="45.49609" lon="6.73275">
        <ele>2641.1999512</ele>
        <time>2013-07-27T08:54:51Z</time>
      </trkpt>
      <trkpt lat="45.49601" lon="6.73275">
        <ele>2643.6000977</ele>
        <time>2013-07-27T08:54:58Z</time>
      </trkpt>
      <trkpt lat="45.49593" lon="6.73275">
        <ele>2644.1999512</ele>
        <time>2013-07-27T08:55:05Z</time>
      </trkpt>
      <trkpt lat="45.49583" lon="6.73275">
        <ele>2644.6000977</ele>
        <time>2013-07-27T08:55:13Z</time>
      </trkpt>
      <trkpt lat="45.49577" lon="6.73275">
        <ele>2645.1999512</ele>
        <time>2013-07-27T08:55:20Z</time>
      </trkpt>
      <trkpt lat="45.49569" lon="6.73275">
        <ele>2645</ele>
        <time>2013-07-27T08:55:27Z</time>
      </trkpt>
      <trkpt lat="45.49561" lon="6.73277">
        <ele>2645.1999512</ele>
        <time>2013-07-27T08:55:35Z</time>
      </trkpt>
      <trkpt lat="45.49555" lon="6.73279">
        <ele>2647.6000977</ele>
        <time>2013-07-27T08:55:42Z</time>
      </trkpt>
      <trkpt lat="45.49548" lon="6.73281">
        <ele>2649</ele>
        <time>2013-07-27T08:55:49Z</time>
      </trkpt>
      <trkpt lat="45.49541" lon="6.73281">
        <ele>2648.6000977</ele>
        <time>2013-07-27T08:55:56Z</time>
      </trkpt>
      <trkpt lat="45.49535" lon="6.73284">
        <ele>2649.3999023</ele>
        <time>2013-07-27T08:56:02Z</time>
      </trkpt>
      <trkpt lat="45.49527" lon="6.73285">
        <ele>2651.6000977</ele>
        <time>2013-07-27T08:56:09Z</time>
      </trkpt>
      <trkpt lat="45.4952" lon="6.73286">
        <ele>2652.8000488</ele>
        <time>2013-07-27T08:56:15Z</time>
      </trkpt>
      <trkpt lat="45.49513" lon="6.73286">
        <ele>2653.3999023</ele>
        <time>2013-07-27T08:56:22Z</time>
      </trkpt>
      <trkpt lat="45.49505" lon="6.73288">
        <ele>2653.3999023</ele>
        <time>2013-07-27T08:56:30Z</time>
      </trkpt>
      <trkpt lat="45.49498" lon="6.73289">
        <ele>2654.3999023</ele>
        <time>2013-07-27T08:56:39Z</time>
      </trkpt>
      <trkpt lat="45.4949" lon="6.73293">
        <ele>2656.3999023</ele>
        <time>2013-07-27T08:56:49Z</time>
      </trkpt>
      <trkpt lat="45.49483" lon="6.73295">
        <ele>2657.3999023</ele>
        <time>2013-07-27T08:56:56Z</time>
      </trkpt>
      <trkpt lat="45.49474" lon="6.73299">
        <ele>2658.6000977</ele>
        <time>2013-07-27T08:57:07Z</time>
      </trkpt>
      <trkpt lat="45.49467" lon="6.73303">
        <ele>2659.1999512</ele>
        <time>2013-07-27T08:57:15Z</time>
      </trkpt>
      <trkpt lat="45.49459" lon="6.73308">
        <ele>2660</ele>
        <time>2013-07-27T08:57:23Z</time>
      </trkpt>
      <trkpt lat="45.49453" lon="6.73314">
        <ele>2661.1999512</ele>
        <time>2013-07-27T08:57:31Z</time>
      </trkpt>
      <trkpt lat="45.49446" lon="6.73319">
        <ele>2661.8000488</ele>
        <time>2013-07-27T08:57:38Z</time>
      </trkpt>
      <trkpt lat="45.4944" lon="6.73321">
        <ele>2661.8000488</ele>
        <time>2013-07-27T08:57:44Z</time>
      </trkpt>
      <trkpt lat="45.49432" lon="6.73324">
        <ele>2661.8000488</ele>
        <time>2013-07-27T08:57:50Z</time>
      </trkpt>
      <trkpt lat="45.49426" lon="6.73325">
        <ele>2661.8000488</ele>
        <time>2013-07-27T08:57:56Z</time>
      </trkpt>
      <trkpt lat="45.49418" lon="6.73326">
        <ele>2662.6000977</ele>
        <time>2013-07-27T08:58:03Z</time>
      </trkpt>
      <trkpt lat="45.49409" lon="6.73328">
        <ele>2663.8000488</ele>
        <time>2013-07-27T08:58:12Z</time>
      </trkpt>
      <trkpt lat="45.49402" lon="6.7333">
        <ele>2665.8000488</ele>
        <time>2013-07-27T08:58:20Z</time>
      </trkpt>
      <trkpt lat="45.49395" lon="6.73331">
        <ele>2668.6000977</ele>
        <time>2013-07-27T08:58:28Z</time>
      </trkpt>
      <trkpt lat="45.49386" lon="6.73332">
        <ele>2670</ele>
        <time>2013-07-27T08:58:37Z</time>
      </trkpt>
      <trkpt lat="45.49377" lon="6.73336">
        <ele>2670.3999023</ele>
        <time>2013-07-27T08:58:45Z</time>
      </trkpt>
      <trkpt lat="45.49368" lon="6.73339">
        <ele>2671</ele>
        <time>2013-07-27T08:58:53Z</time>
      </trkpt>
      <trkpt lat="45.49361" lon="6.73342">
        <ele>2671.8000488</ele>
        <time>2013-07-27T08:58:59Z</time>
      </trkpt>
      <trkpt lat="45.49355" lon="6.73344">
        <ele>2674</ele>
        <time>2013-07-27T08:59:07Z</time>
      </trkpt>
      <trkpt lat="45.49348" lon="6.73348">
        <ele>2675.6000977</ele>
        <time>2013-07-27T08:59:15Z</time>
      </trkpt>
      <trkpt lat="45.4934" lon="6.73349">
        <ele>2677.1999512</ele>
        <time>2013-07-27T08:59:22Z</time>
      </trkpt>
      <trkpt lat="45.49334" lon="6.73351">
        <ele>2677.6000977</ele>
        <time>2013-07-27T08:59:27Z</time>
      </trkpt>
      <trkpt lat="45.49329" lon="6.73359">
        <ele>2677</ele>
        <time>2013-07-27T08:59:33Z</time>
      </trkpt>
      <trkpt lat="45.49322" lon="6.73363">
        <ele>2676.1999512</ele>
        <time>2013-07-27T08:59:40Z</time>
      </trkpt>
      <trkpt lat="45.49315" lon="6.73367">
        <ele>2676.6000977</ele>
        <time>2013-07-27T08:59:48Z</time>
      </trkpt>
      <trkpt lat="45.49307" lon="6.73369">
        <ele>2676.8000488</ele>
        <time>2013-07-27T08:59:56Z</time>
      </trkpt>
      <trkpt lat="45.49303" lon="6.73374">
        <ele>2677.3999023</ele>
        <time>2013-07-27T09:00:03Z</time>
      </trkpt>
      <trkpt lat="45.49297" lon="6.73376">
        <ele>2678.8000488</ele>
        <time>2013-07-27T09:00:10Z</time>
      </trkpt>
      <trkpt lat="45.4929" lon="6.73379">
        <ele>2678.6000977</ele>
        <time>2013-07-27T09:00:16Z</time>
      </trkpt>
      <trkpt lat="45.49284" lon="6.73383">
        <ele>2679.1999512</ele>
        <time>2013-07-27T09:00:22Z</time>
      </trkpt>
      <trkpt lat="45.49278" lon="6.73387">
        <ele>2681</ele>
        <time>2013-07-27T09:00:29Z</time>
      </trkpt>
      <trkpt lat="45.49271" lon="6.7339">
        <ele>2681</ele>
        <time>2013-07-27T09:00:40Z</time>
      </trkpt>
      <trkpt lat="45.49265" lon="6.73392">
        <ele>2683.1999512</ele>
        <time>2013-07-27T09:00:47Z</time>
      </trkpt>
      <trkpt lat="45.4926" lon="6.73399">
        <ele>2686</ele>
        <time>2013-07-27T09:00:54Z</time>
      </trkpt>
      <trkpt lat="45.49253" lon="6.73405">
        <ele>2687.6000977</ele>
        <time>2013-07-27T09:01:02Z</time>
      </trkpt>
      <trkpt lat="45.49246" lon="6.73411">
        <ele>2689.1999512</ele>
        <time>2013-07-27T09:01:11Z</time>
      </trkpt>
      <trkpt lat="45.4924" lon="6.73416">
        <ele>2689.6000977</ele>
        <time>2013-07-27T09:01:18Z</time>
      </trkpt>
      <trkpt lat="45.49234" lon="6.73422">
        <ele>2690.6000977</ele>
        <time>2013-07-27T09:01:26Z</time>
      </trkpt>
      <trkpt lat="45.49232" lon="6.73431">
        <ele>2693.3999023</ele>
        <time>2013-07-27T09:01:36Z</time>
      </trkpt>
      <trkpt lat="45.49234" lon="6.7344">
        <ele>2695.6000977</ele>
        <time>2013-07-27T09:01:45Z</time>
      </trkpt>
      <trkpt lat="45.49239" lon="6.73451">
        <ele>2697.6000977</ele>
        <time>2013-07-27T09:01:56Z</time>
      </trkpt>
      <trkpt lat="45.49241" lon="6.7346">
        <ele>2699.3999023</ele>
        <time>2013-07-27T09:02:03Z</time>
      </trkpt>
      <trkpt lat="45.49239" lon="6.73461">
        <ele>2701.1999512</ele>
        <time>2013-07-27T09:02:11Z</time>
      </trkpt>
      <trkpt lat="45.49244" lon="6.73453">
        <ele>2702.6000977</ele>
        <time>2013-07-27T09:02:16Z</time>
      </trkpt>
      <trkpt lat="45.49247" lon="6.73448">
        <ele>2705</ele>
        <time>2013-07-27T09:02:27Z</time>
      </trkpt>
      <trkpt lat="45.49244" lon="6.73446">
        <ele>2705.8000488</ele>
        <time>2013-07-27T09:03:03Z</time>
      </trkpt>
      <trkpt lat="45.49245" lon="6.73448">
        <ele>2706</ele>
        <time>2013-07-27T09:03:55Z</time>
      </trkpt>
      <trkpt lat="45.49244" lon="6.73452">
        <ele>2705.1999512</ele>
        <time>2013-07-27T09:06:12Z</time>
      </trkpt>
      <trkpt lat="45.49244" lon="6.73461">
        <ele>2703.8000488</ele>
        <time>2013-07-27T09:06:19Z</time>
      </trkpt>
      <trkpt lat="45.4925" lon="6.73475">
        <ele>2704.8000488</ele>
        <time>2013-07-27T09:06:25Z</time>
      </trkpt>
      <trkpt lat="45.49253" lon="6.73484">
        <ele>2705</ele>
        <time>2013-07-27T09:06:28Z</time>
      </trkpt>
      <trkpt lat="45.49258" lon="6.73498">
        <ele>2704</ele>
        <time>2013-07-27T09:06:33Z</time>
      </trkpt>
      <trkpt lat="45.49263" lon="6.7351">
        <ele>2702.6000977</ele>
        <time>2013-07-27T09:06:38Z</time>
      </trkpt>
      <trkpt lat="45.49259" lon="6.73519">
        <ele>2701</ele>
        <time>2013-07-27T09:06:41Z</time>
      </trkpt>
      <trkpt lat="45.49248" lon="6.73514">
        <ele>2697.3999023</ele>
        <time>2013-07-27T09:06:46Z</time>
      </trkpt>
      <trkpt lat="45.49241" lon="6.73502">
        <ele>2694.3999023</ele>
        <time>2013-07-27T09:06:51Z</time>
      </trkpt>
      <trkpt lat="45.49237" lon="6.73495">
        <ele>2694</ele>
        <time>2013-07-27T09:06:54Z</time>
      </trkpt>
      <trkpt lat="45.49233" lon="6.73487">
        <ele>2693.8000488</ele>
        <time>2013-07-27T09:06:57Z</time>
      </trkpt>
      <trkpt lat="45.49223" lon="6.73469">
        <ele>2693.6000977</ele>
        <time>2013-07-27T09:07:04Z</time>
      </trkpt>
      <trkpt lat="45.4922" lon="6.7346">
        <ele>2693.3999023</ele>
        <time>2013-07-27T09:07:07Z</time>
      </trkpt>
      <trkpt lat="45.49216" lon="6.73452">
        <ele>2693.6000977</ele>
        <time>2013-07-27T09:07:10Z</time>
      </trkpt>
      <trkpt lat="45.49212" lon="6.73444">
        <ele>2694</ele>
        <time>2013-07-27T09:07:13Z</time>
      </trkpt>
      <trkpt lat="45.49207" lon="6.73432">
        <ele>2694.3999023</ele>
        <time>2013-07-27T09:07:18Z</time>
      </trkpt>
      <trkpt lat="45.49199" lon="6.73422">
        <ele>2695.3999023</ele>
        <time>2013-07-27T09:07:23Z</time>
      </trkpt>
      <trkpt lat="45.49193" lon="6.73412">
        <ele>2695.3999023</ele>
        <time>2013-07-27T09:07:28Z</time>
      </trkpt>
      <trkpt lat="45.49185" lon="6.73403">
        <ele>2695</ele>
        <time>2013-07-27T09:07:33Z</time>
      </trkpt>
      <trkpt lat="45.49179" lon="6.73396">
        <ele>2694.3999023</ele>
        <time>2013-07-27T09:07:37Z</time>
      </trkpt>
      <trkpt lat="45.49175" lon="6.7339">
        <ele>2693.8000488</ele>
        <time>2013-07-27T09:07:40Z</time>
      </trkpt>
      <trkpt lat="45.49167" lon="6.73379">
        <ele>2692.1999512</ele>
        <time>2013-07-27T09:07:45Z</time>
      </trkpt>
      <trkpt lat="45.49158" lon="6.73371">
        <ele>2690.3999023</ele>
        <time>2013-07-27T09:07:50Z</time>
      </trkpt>
      <trkpt lat="45.49153" lon="6.73366">
        <ele>2689.6000977</ele>
        <time>2013-07-27T09:07:53Z</time>
      </trkpt>
      <trkpt lat="45.49147" lon="6.7336">
        <ele>2689</ele>
        <time>2013-07-27T09:07:56Z</time>
      </trkpt>
      <trkpt lat="45.49139" lon="6.73355">
        <ele>2687.6000977</ele>
        <time>2013-07-27T09:08:00Z</time>
      </trkpt>
      <trkpt lat="45.49133" lon="6.73351">
        <ele>2687</ele>
        <time>2013-07-27T09:08:03Z</time>
      </trkpt>
      <trkpt lat="45.49125" lon="6.73347">
        <ele>2685.6000977</ele>
        <time>2013-07-27T09:08:07Z</time>
      </trkpt>
      <trkpt lat="45.49119" lon="6.73345">
        <ele>2685</ele>
        <time>2013-07-27T09:08:10Z</time>
      </trkpt>
      <trkpt lat="45.49109" lon="6.73342">
        <ele>2684.1999512</ele>
        <time>2013-07-27T09:08:15Z</time>
      </trkpt>
      <trkpt lat="45.49099" lon="6.73336">
        <ele>2683</ele>
        <time>2013-07-27T09:08:21Z</time>
      </trkpt>
      <trkpt lat="45.49091" lon="6.73329">
        <ele>2681.6000977</ele>
        <time>2013-07-27T09:08:26Z</time>
      </trkpt>
      <trkpt lat="45.49082" lon="6.7332">
        <ele>2680</ele>
        <time>2013-07-27T09:08:32Z</time>
      </trkpt>
      <trkpt lat="45.49074" lon="6.73312">
        <ele>2678.3999023</ele>
        <time>2013-07-27T09:08:37Z</time>
      </trkpt>
      <trkpt lat="45.49064" lon="6.73303">
        <ele>2676.3999023</ele>
        <time>2013-07-27T09:08:42Z</time>
      </trkpt>
      <trkpt lat="45.49054" lon="6.73297">
        <ele>2674.6000977</ele>
        <time>2013-07-27T09:08:47Z</time>
      </trkpt>
      <trkpt lat="45.49046" lon="6.73289">
        <ele>2673</ele>
        <time>2013-07-27T09:08:51Z</time>
      </trkpt>
      <trkpt lat="45.4904" lon="6.73285">
        <ele>2672.6000977</ele>
        <time>2013-07-27T09:08:54Z</time>
      </trkpt>
      <trkpt lat="45.49029" lon="6.73279">
        <ele>2671.6000977</ele>
        <time>2013-07-27T09:08:59Z</time>
      </trkpt>
      <trkpt lat="45.49023" lon="6.73274">
        <ele>2671.3999023</ele>
        <time>2013-07-27T09:09:02Z</time>
      </trkpt>
      <trkpt lat="45.49011" lon="6.73271">
        <ele>2670.3999023</ele>
        <time>2013-07-27T09:09:08Z</time>
      </trkpt>
      <trkpt lat="45.49" lon="6.73271">
        <ele>2669.3999023</ele>
        <time>2013-07-27T09:09:13Z</time>
      </trkpt>
      <trkpt lat="45.48993" lon="6.73271">
        <ele>2668.6000977</ele>
        <time>2013-07-27T09:09:16Z</time>
      </trkpt>
      <trkpt lat="45.48986" lon="6.73271">
        <ele>2668</ele>
        <time>2013-07-27T09:09:19Z</time>
      </trkpt>
      <trkpt lat="45.48975" lon="6.73266">
        <ele>2666</ele>
        <time>2013-07-27T09:09:24Z</time>
      </trkpt>
      <trkpt lat="45.48975" lon="6.73274">
        <ele>2663.3999023</ele>
        <time>2013-07-27T09:09:30Z</time>
      </trkpt>
      <trkpt lat="45.48981" lon="6.73278">
        <ele>2662.3999023</ele>
        <time>2013-07-27T09:09:32Z</time>
      </trkpt>
      <trkpt lat="45.48989" lon="6.73284">
        <ele>2661.6000977</ele>
        <time>2013-07-27T09:09:35Z</time>
      </trkpt>
      <trkpt lat="45.48998" lon="6.73295">
        <ele>2661.1999512</ele>
        <time>2013-07-27T09:09:40Z</time>
      </trkpt>
      <trkpt lat="45.49009" lon="6.73303">
        <ele>2660.8000488</ele>
        <time>2013-07-27T09:09:45Z</time>
      </trkpt>
      <trkpt lat="45.49015" lon="6.73306">
        <ele>2660</ele>
        <time>2013-07-27T09:09:48Z</time>
      </trkpt>
      <trkpt lat="45.49023" lon="6.73315">
        <ele>2657.6000977</ele>
        <time>2013-07-27T09:09:53Z</time>
      </trkpt>
      <trkpt lat="45.49028" lon="6.73323">
        <ele>2655.6000977</ele>
        <time>2013-07-27T09:09:57Z</time>
      </trkpt>
      <trkpt lat="45.49019" lon="6.73329">
        <ele>2653.6000977</ele>
        <time>2013-07-27T09:10:02Z</time>
      </trkpt>
      <trkpt lat="45.49012" lon="6.73326">
        <ele>2652.6000977</ele>
        <time>2013-07-27T09:10:05Z</time>
      </trkpt>
      <trkpt lat="45.49004" lon="6.73321">
        <ele>2651</ele>
        <time>2013-07-27T09:10:09Z</time>
      </trkpt>
      <trkpt lat="45.48994" lon="6.73322">
        <ele>2650.1999512</ele>
        <time>2013-07-27T09:10:14Z</time>
      </trkpt>
      <trkpt lat="45.48984" lon="6.73315">
        <ele>2649.3999023</ele>
        <time>2013-07-27T09:10:19Z</time>
      </trkpt>
      <trkpt lat="45.48978" lon="6.73315">
        <ele>2648.6000977</ele>
        <time>2013-07-27T09:10:22Z</time>
      </trkpt>
      <trkpt lat="45.48973" lon="6.73323">
        <ele>2647.1999512</ele>
        <time>2013-07-27T09:10:25Z</time>
      </trkpt>
      <trkpt lat="45.48981" lon="6.73336">
        <ele>2644</ele>
        <time>2013-07-27T09:10:30Z</time>
      </trkpt>
      <trkpt lat="45.48989" lon="6.73337">
        <ele>2642</ele>
        <time>2013-07-27T09:10:33Z</time>
      </trkpt>
      <trkpt lat="45.49002" lon="6.73347">
        <ele>2638.8000488</ele>
        <time>2013-07-27T09:10:38Z</time>
      </trkpt>
      <trkpt lat="45.49009" lon="6.73353">
        <ele>2637.3999023</ele>
        <time>2013-07-27T09:10:41Z</time>
      </trkpt>
      <trkpt lat="45.49015" lon="6.73359">
        <ele>2635.8000488</ele>
        <time>2013-07-27T09:10:44Z</time>
      </trkpt>
      <trkpt lat="45.49024" lon="6.73369">
        <ele>2633</ele>
        <time>2013-07-27T09:10:48Z</time>
      </trkpt>
      <trkpt lat="45.49032" lon="6.73383">
        <ele>2631</ele>
        <time>2013-07-27T09:10:53Z</time>
      </trkpt>
      <trkpt lat="45.49038" lon="6.73389">
        <ele>2630.1999512</ele>
        <time>2013-07-27T09:10:56Z</time>
      </trkpt>
      <trkpt lat="45.49045" lon="6.73393">
        <ele>2628.6000977</ele>
        <time>2013-07-27T09:10:59Z</time>
      </trkpt>
      <trkpt lat="45.49058" lon="6.73403">
        <ele>2625.6000977</ele>
        <time>2013-07-27T09:11:04Z</time>
      </trkpt>
      <trkpt lat="45.49065" lon="6.7341">
        <ele>2624.3999023</ele>
        <time>2013-07-27T09:11:07Z</time>
      </trkpt>
      <trkpt lat="45.49072" lon="6.73416">
        <ele>2623.3999023</ele>
        <time>2013-07-27T09:11:10Z</time>
      </trkpt>
      <trkpt lat="45.49081" lon="6.73419">
        <ele>2623.1999512</ele>
        <time>2013-07-27T09:11:13Z</time>
      </trkpt>
      <trkpt lat="45.49088" lon="6.73426">
        <ele>2623.3999023</ele>
        <time>2013-07-27T09:11:16Z</time>
      </trkpt>
      <trkpt lat="45.49094" lon="6.73434">
        <ele>2623.8000488</ele>
        <time>2013-07-27T09:11:20Z</time>
      </trkpt>
      <trkpt lat="45.49102" lon="6.73441">
        <ele>2623.3999023</ele>
        <time>2013-07-27T09:11:25Z</time>
      </trkpt>
      <trkpt lat="45.4911" lon="6.7345">
        <ele>2621</ele>
        <time>2013-07-27T09:11:30Z</time>
      </trkpt>
      <trkpt lat="45.49118" lon="6.73461">
        <ele>2617.6000977</ele>
        <time>2013-07-27T09:11:35Z</time>
      </trkpt>
      <trkpt lat="45.49124" lon="6.73475">
        <ele>2615.8000488</ele>
        <time>2013-07-27T09:11:40Z</time>
      </trkpt>
      <trkpt lat="45.49129" lon="6.7349">
        <ele>2615.3999023</ele>
        <time>2013-07-27T09:11:45Z</time>
      </trkpt>
      <trkpt lat="45.49132" lon="6.73502">
        <ele>2614.8000488</ele>
        <time>2013-07-27T09:11:49Z</time>
      </trkpt>
      <trkpt lat="45.49133" lon="6.73512">
        <ele>2614.3999023</ele>
        <time>2013-07-27T09:11:52Z</time>
      </trkpt>
      <trkpt lat="45.49135" lon="6.73525">
        <ele>2612.8000488</ele>
        <time>2013-07-27T09:11:56Z</time>
      </trkpt>
      <trkpt lat="45.49134" lon="6.73534">
        <ele>2609.3999023</ele>
        <time>2013-07-27T09:13:36Z</time>
      </trkpt>
      <trkpt lat="45.49136" lon="6.73547">
        <ele>2607.6000977</ele>
        <time>2013-07-27T09:13:42Z</time>
      </trkpt>
      <trkpt lat="45.49137" lon="6.73558">
        <ele>2606</ele>
        <time>2013-07-27T09:13:46Z</time>
      </trkpt>
      <trkpt lat="45.49138" lon="6.73566">
        <ele>2606</ele>
        <time>2013-07-27T09:13:49Z</time>
      </trkpt>
      <trkpt lat="45.49139" lon="6.73576">
        <ele>2605.1999512</ele>
        <time>2013-07-27T09:13:52Z</time>
      </trkpt>
      <trkpt lat="45.49141" lon="6.73585">
        <ele>2604.6000977</ele>
        <time>2013-07-27T09:13:55Z</time>
      </trkpt>
      <trkpt lat="45.49142" lon="6.736">
        <ele>2604.3999023</ele>
        <time>2013-07-27T09:14:00Z</time>
      </trkpt>
      <trkpt lat="45.4914" lon="6.73614">
        <ele>2603.8000488</ele>
        <time>2013-07-27T09:14:04Z</time>
      </trkpt>
      <trkpt lat="45.49137" lon="6.73631">
        <ele>2602</ele>
        <time>2013-07-27T09:14:09Z</time>
      </trkpt>
      <trkpt lat="45.49138" lon="6.73645">
        <ele>2599.3999023</ele>
        <time>2013-07-27T09:14:13Z</time>
      </trkpt>
      <trkpt lat="45.49136" lon="6.73655">
        <ele>2598.3999023</ele>
        <time>2013-07-27T09:14:16Z</time>
      </trkpt>
      <trkpt lat="45.49134" lon="6.73668">
        <ele>2596.8000488</ele>
        <time>2013-07-27T09:14:20Z</time>
      </trkpt>
      <trkpt lat="45.49131" lon="6.73685">
        <ele>2595.6000977</ele>
        <time>2013-07-27T09:14:25Z</time>
      </trkpt>
      <trkpt lat="45.49129" lon="6.73695">
        <ele>2595.1999512</ele>
        <time>2013-07-27T09:14:28Z</time>
      </trkpt>
      <trkpt lat="45.49127" lon="6.73704">
        <ele>2594.3999023</ele>
        <time>2013-07-27T09:14:31Z</time>
      </trkpt>
      <trkpt lat="45.49122" lon="6.73718">
        <ele>2592.8000488</ele>
        <time>2013-07-27T09:14:36Z</time>
      </trkpt>
      <trkpt lat="45.49117" lon="6.73725">
        <ele>2591.8000488</ele>
        <time>2013-07-27T09:14:39Z</time>
      </trkpt>
      <trkpt lat="45.49111" lon="6.73732">
        <ele>2590.3999023</ele>
        <time>2013-07-27T09:14:42Z</time>
      </trkpt>
      <trkpt lat="45.49105" lon="6.73737">
        <ele>2589</ele>
        <time>2013-07-27T09:14:45Z</time>
      </trkpt>
      <trkpt lat="45.49098" lon="6.73742">
        <ele>2588</ele>
        <time>2013-07-27T09:14:48Z</time>
      </trkpt>
      <trkpt lat="45.4909" lon="6.73751">
        <ele>2586.3999023</ele>
        <time>2013-07-27T09:14:52Z</time>
      </trkpt>
      <trkpt lat="45.49085" lon="6.73758">
        <ele>2586</ele>
        <time>2013-07-27T09:14:55Z</time>
      </trkpt>
      <trkpt lat="45.49078" lon="6.7377">
        <ele>2584.8000488</ele>
        <time>2013-07-27T09:15:00Z</time>
      </trkpt>
      <trkpt lat="45.49069" lon="6.7378">
        <ele>2584</ele>
        <time>2013-07-27T09:15:05Z</time>
      </trkpt>
      <trkpt lat="45.49064" lon="6.73786">
        <ele>2583.3999023</ele>
        <time>2013-07-27T09:15:08Z</time>
      </trkpt>
      <trkpt lat="45.49057" lon="6.73792">
        <ele>2583</ele>
        <time>2013-07-27T09:15:11Z</time>
      </trkpt>
      <trkpt lat="45.49048" lon="6.73798">
        <ele>2582.6000977</ele>
        <time>2013-07-27T09:15:15Z</time>
      </trkpt>
      <trkpt lat="45.49041" lon="6.73801">
        <ele>2582</ele>
        <time>2013-07-27T09:15:18Z</time>
      </trkpt>
      <trkpt lat="45.4903" lon="6.73809">
        <ele>2581.1999512</ele>
        <time>2013-07-27T09:15:23Z</time>
      </trkpt>
      <trkpt lat="45.49025" lon="6.73816">
        <ele>2581</ele>
        <time>2013-07-27T09:15:26Z</time>
      </trkpt>
      <trkpt lat="45.49015" lon="6.73823">
        <ele>2579.6000977</ele>
        <time>2013-07-27T09:15:31Z</time>
      </trkpt>
      <trkpt lat="45.49007" lon="6.73826">
        <ele>2577.8000488</ele>
        <time>2013-07-27T09:15:35Z</time>
      </trkpt>
      <trkpt lat="45.49001" lon="6.7383">
        <ele>2576.3999023</ele>
        <time>2013-07-27T09:15:38Z</time>
      </trkpt>
      <trkpt lat="45.48988" lon="6.73832">
        <ele>2574.1999512</ele>
        <time>2013-07-27T09:15:43Z</time>
      </trkpt>
      <trkpt lat="45.48978" lon="6.73833">
        <ele>2573.1999512</ele>
        <time>2013-07-27T09:15:46Z</time>
      </trkpt>
      <trkpt lat="45.48967" lon="6.73826">
        <ele>2571.6000977</ele>
        <time>2013-07-27T09:15:50Z</time>
      </trkpt>
      <trkpt lat="45.48957" lon="6.73821">
        <ele>2570</ele>
        <time>2013-07-27T09:15:54Z</time>
      </trkpt>
      <trkpt lat="45.48945" lon="6.73819">
        <ele>2569.3999023</ele>
        <time>2013-07-27T09:15:59Z</time>
      </trkpt>
      <trkpt lat="45.48935" lon="6.73828">
        <ele>2568.6000977</ele>
        <time>2013-07-27T09:16:04Z</time>
      </trkpt>
      <trkpt lat="45.48921" lon="6.73846">
        <ele>2569</ele>
        <time>2013-07-27T09:16:12Z</time>
      </trkpt>
      <trkpt lat="45.48917" lon="6.73854">
        <ele>2569.3999023</ele>
        <time>2013-07-27T09:16:15Z</time>
      </trkpt>
      <trkpt lat="45.48915" lon="6.73867">
        <ele>2569.8000488</ele>
        <time>2013-07-27T09:16:19Z</time>
      </trkpt>
      <trkpt lat="45.48914" lon="6.73885">
        <ele>2570</ele>
        <time>2013-07-27T09:16:25Z</time>
      </trkpt>
      <trkpt lat="45.48911" lon="6.73908">
        <ele>2570.1999512</ele>
        <time>2013-07-27T09:16:33Z</time>
      </trkpt>
      <trkpt lat="45.48909" lon="6.73923">
        <ele>2569.1999512</ele>
        <time>2013-07-27T09:16:38Z</time>
      </trkpt>
      <trkpt lat="45.48907" lon="6.73932">
        <ele>2568</ele>
        <time>2013-07-27T09:16:41Z</time>
      </trkpt>
      <trkpt lat="45.48905" lon="6.73942">
        <ele>2566.8000488</ele>
        <time>2013-07-27T09:16:44Z</time>
      </trkpt>
      <trkpt lat="45.48903" lon="6.73952">
        <ele>2565.3999023</ele>
        <time>2013-07-27T09:16:47Z</time>
      </trkpt>
      <trkpt lat="45.48901" lon="6.73961">
        <ele>2564</ele>
        <time>2013-07-27T09:16:50Z</time>
      </trkpt>
      <trkpt lat="45.48899" lon="6.73976">
        <ele>2562.1999512</ele>
        <time>2013-07-27T09:16:55Z</time>
      </trkpt>
      <trkpt lat="45.48898" lon="6.73993">
        <ele>2561.3999023</ele>
        <time>2013-07-27T09:17:00Z</time>
      </trkpt>
      <trkpt lat="45.48895" lon="6.74012">
        <ele>2561.1999512</ele>
        <time>2013-07-27T09:17:06Z</time>
      </trkpt>
      <trkpt lat="45.48895" lon="6.74029">
        <ele>2562</ele>
        <time>2013-07-27T09:17:12Z</time>
      </trkpt>
      <trkpt lat="45.4889" lon="6.7404">
        <ele>2562</ele>
        <time>2013-07-27T09:17:17Z</time>
      </trkpt>
      <trkpt lat="45.48885" lon="6.74048">
        <ele>2560.8000488</ele>
        <time>2013-07-27T09:17:21Z</time>
      </trkpt>
      <trkpt lat="45.48881" lon="6.74055">
        <ele>2559.8000488</ele>
        <time>2013-07-27T09:17:24Z</time>
      </trkpt>
      <trkpt lat="45.48875" lon="6.74061">
        <ele>2559</ele>
        <time>2013-07-27T09:17:27Z</time>
      </trkpt>
      <trkpt lat="45.48864" lon="6.74069">
        <ele>2557</ele>
        <time>2013-07-27T09:17:32Z</time>
      </trkpt>
      <trkpt lat="45.48858" lon="6.74074">
        <ele>2555.6000977</ele>
        <time>2013-07-27T09:17:35Z</time>
      </trkpt>
      <trkpt lat="45.4885" lon="6.74078">
        <ele>2554.6000977</ele>
        <time>2013-07-27T09:17:38Z</time>
      </trkpt>
      <trkpt lat="45.48844" lon="6.74082">
        <ele>2553.3999023</ele>
        <time>2013-07-27T09:17:40Z</time>
      </trkpt>
      <trkpt lat="45.48837" lon="6.7409">
        <ele>2552</ele>
        <time>2013-07-27T09:17:43Z</time>
      </trkpt>
      <trkpt lat="45.48825" lon="6.74099">
        <ele>2549.3999023</ele>
        <time>2013-07-27T09:17:48Z</time>
      </trkpt>
      <trkpt lat="45.48818" lon="6.74102">
        <ele>2547.6000977</ele>
        <time>2013-07-27T09:17:51Z</time>
      </trkpt>
      <trkpt lat="45.48811" lon="6.74107">
        <ele>2546</ele>
        <time>2013-07-27T09:17:54Z</time>
      </trkpt>
      <trkpt lat="45.48802" lon="6.74108">
        <ele>2544.6000977</ele>
        <time>2013-07-27T09:17:57Z</time>
      </trkpt>
      <trkpt lat="45.48796" lon="6.74112">
        <ele>2543</ele>
        <time>2013-07-27T09:18:00Z</time>
      </trkpt>
      <trkpt lat="45.48789" lon="6.7412">
        <ele>2541.6000977</ele>
        <time>2013-07-27T09:18:04Z</time>
      </trkpt>
      <trkpt lat="45.48783" lon="6.74126">
        <ele>2541</ele>
        <time>2013-07-27T09:18:07Z</time>
      </trkpt>
      <trkpt lat="45.48779" lon="6.74133">
        <ele>2540.6000977</ele>
        <time>2013-07-27T09:18:10Z</time>
      </trkpt>
      <trkpt lat="45.48773" lon="6.74142">
        <ele>2540.1999512</ele>
        <time>2013-07-27T09:18:14Z</time>
      </trkpt>
      <trkpt lat="45.48768" lon="6.74148">
        <ele>2540</ele>
        <time>2013-07-27T09:18:17Z</time>
      </trkpt>
      <trkpt lat="45.48763" lon="6.74155">
        <ele>2539.6000977</ele>
        <time>2013-07-27T09:18:20Z</time>
      </trkpt>
      <trkpt lat="45.48757" lon="6.74161">
        <ele>2538.8000488</ele>
        <time>2013-07-27T09:18:23Z</time>
      </trkpt>
      <trkpt lat="45.48747" lon="6.74168">
        <ele>2536.8000488</ele>
        <time>2013-07-27T09:18:28Z</time>
      </trkpt>
      <trkpt lat="45.48741" lon="6.74171">
        <ele>2535.1999512</ele>
        <time>2013-07-27T09:18:31Z</time>
      </trkpt>
      <trkpt lat="45.48732" lon="6.74178">
        <ele>2532.6000977</ele>
        <time>2013-07-27T09:18:36Z</time>
      </trkpt>
      <trkpt lat="45.48726" lon="6.74183">
        <ele>2531.6000977</ele>
        <time>2013-07-27T09:18:39Z</time>
      </trkpt>
      <trkpt lat="45.48721" lon="6.74187">
        <ele>2530.3999023</ele>
        <time>2013-07-27T09:18:42Z</time>
      </trkpt>
      <trkpt lat="45.48708" lon="6.74196">
        <ele>2530.3999023</ele>
        <time>2013-07-27T09:18:49Z</time>
      </trkpt>
      <trkpt lat="45.48697" lon="6.74203">
        <ele>2530.6000977</ele>
        <time>2013-07-27T09:18:55Z</time>
      </trkpt>
      <trkpt lat="45.48689" lon="6.74205">
        <ele>2530</ele>
        <time>2013-07-27T09:18:59Z</time>
      </trkpt>
      <trkpt lat="45.48682" lon="6.74211">
        <ele>2529</ele>
        <time>2013-07-27T09:19:03Z</time>
      </trkpt>
      <trkpt lat="45.48676" lon="6.74216">
        <ele>2529.1999512</ele>
        <time>2013-07-27T09:19:06Z</time>
      </trkpt>
      <trkpt lat="45.48667" lon="6.74226">
        <ele>2529.1999512</ele>
        <time>2013-07-27T09:19:11Z</time>
      </trkpt>
      <trkpt lat="45.48661" lon="6.74231">
        <ele>2529.1999512</ele>
        <time>2013-07-27T09:19:14Z</time>
      </trkpt>
      <trkpt lat="45.48652" lon="6.74237">
        <ele>2529.6000977</ele>
        <time>2013-07-27T09:19:19Z</time>
      </trkpt>
      <trkpt lat="45.48641" lon="6.74242">
        <ele>2529.3999023</ele>
        <time>2013-07-27T09:19:24Z</time>
      </trkpt>
      <trkpt lat="45.48633" lon="6.74247">
        <ele>2528.8000488</ele>
        <time>2013-07-27T09:19:28Z</time>
      </trkpt>
      <trkpt lat="45.48627" lon="6.74251">
        <ele>2527.6000977</ele>
        <time>2013-07-27T09:19:31Z</time>
      </trkpt>
      <trkpt lat="45.48619" lon="6.74256">
        <ele>2525.8000488</ele>
        <time>2013-07-27T09:19:35Z</time>
      </trkpt>
      <trkpt lat="45.48612" lon="6.74261">
        <ele>2523.3999023</ele>
        <time>2013-07-27T09:19:39Z</time>
      </trkpt>
      <trkpt lat="45.48602" lon="6.74265">
        <ele>2521.3999023</ele>
        <time>2013-07-27T09:19:44Z</time>
      </trkpt>
      <trkpt lat="45.48594" lon="6.74272">
        <ele>2520.1999512</ele>
        <time>2013-07-27T09:19:49Z</time>
      </trkpt>
      <trkpt lat="45.48589" lon="6.74279">
        <ele>2520</ele>
        <time>2013-07-27T09:19:52Z</time>
      </trkpt>
      <trkpt lat="45.48588" lon="6.74292">
        <ele>2520.1999512</ele>
        <time>2013-07-27T09:19:57Z</time>
      </trkpt>
      <trkpt lat="45.48594" lon="6.74304">
        <ele>2520.3999023</ele>
        <time>2013-07-27T09:20:02Z</time>
      </trkpt>
      <trkpt lat="45.48603" lon="6.74311">
        <ele>2519.8000488</ele>
        <time>2013-07-27T09:20:06Z</time>
      </trkpt>
      <trkpt lat="45.48611" lon="6.74312">
        <ele>2519.3999023</ele>
        <time>2013-07-27T09:20:09Z</time>
      </trkpt>
      <trkpt lat="45.48623" lon="6.74313">
        <ele>2519.1999512</ele>
        <time>2013-07-27T09:20:14Z</time>
      </trkpt>
      <trkpt lat="45.4863" lon="6.74316">
        <ele>2519</ele>
        <time>2013-07-27T09:20:17Z</time>
      </trkpt>
      <trkpt lat="45.48641" lon="6.7432">
        <ele>2518</ele>
        <time>2013-07-27T09:20:22Z</time>
      </trkpt>
      <trkpt lat="45.48652" lon="6.74318">
        <ele>2516.6000977</ele>
        <time>2013-07-27T09:20:27Z</time>
      </trkpt>
      <trkpt lat="45.48671" lon="6.74321">
        <ele>2516.3999023</ele>
        <time>2013-07-27T09:20:36Z</time>
      </trkpt>
      <trkpt lat="45.48684" lon="6.74321">
        <ele>2516.3999023</ele>
        <time>2013-07-27T09:20:42Z</time>
      </trkpt>
      <trkpt lat="45.48693" lon="6.74322">
        <ele>2516</ele>
        <time>2013-07-27T09:20:46Z</time>
      </trkpt>
      <trkpt lat="45.48698" lon="6.74317">
        <ele>2515.6000977</ele>
        <time>2013-07-27T09:20:49Z</time>
      </trkpt>
      <trkpt lat="45.48708" lon="6.7431">
        <ele>2515</ele>
        <time>2013-07-27T09:20:54Z</time>
      </trkpt>
      <trkpt lat="45.48717" lon="6.74306">
        <ele>2514.1999512</ele>
        <time>2013-07-27T09:20:58Z</time>
      </trkpt>
      <trkpt lat="45.48723" lon="6.74302">
        <ele>2513.8000488</ele>
        <time>2013-07-27T09:21:01Z</time>
      </trkpt>
      <trkpt lat="45.48733" lon="6.74295">
        <ele>2512</ele>
        <time>2013-07-27T09:21:06Z</time>
      </trkpt>
      <trkpt lat="45.48744" lon="6.74292">
        <ele>2509.6000977</ele>
        <time>2013-07-27T09:21:11Z</time>
      </trkpt>
      <trkpt lat="45.48751" lon="6.74291">
        <ele>2508.1999512</ele>
        <time>2013-07-27T09:21:14Z</time>
      </trkpt>
      <trkpt lat="45.48758" lon="6.7429">
        <ele>2507.6000977</ele>
        <time>2013-07-27T09:21:17Z</time>
      </trkpt>
      <trkpt lat="45.48769" lon="6.74288">
        <ele>2505.8000488</ele>
        <time>2013-07-27T09:21:23Z</time>
      </trkpt>
      <trkpt lat="45.48779" lon="6.7428">
        <ele>2504.8000488</ele>
        <time>2013-07-27T09:21:29Z</time>
      </trkpt>
      <trkpt lat="45.48788" lon="6.74275">
        <ele>2503.3999023</ele>
        <time>2013-07-27T09:21:34Z</time>
      </trkpt>
      <trkpt lat="45.48799" lon="6.74272">
        <ele>2502.8000488</ele>
        <time>2013-07-27T09:21:40Z</time>
      </trkpt>
      <trkpt lat="45.48806" lon="6.74268">
        <ele>2502.8000488</ele>
        <time>2013-07-27T09:21:44Z</time>
      </trkpt>
      <trkpt lat="45.48814" lon="6.74261">
        <ele>2502.3999023</ele>
        <time>2013-07-27T09:21:49Z</time>
      </trkpt>
      <trkpt lat="45.48822" lon="6.74256">
        <ele>2502.1999512</ele>
        <time>2013-07-27T09:21:54Z</time>
      </trkpt>
      <trkpt lat="45.48831" lon="6.74252">
        <ele>2501.6000977</ele>
        <time>2013-07-27T09:22:00Z</time>
      </trkpt>
      <trkpt lat="45.48841" lon="6.74255">
        <ele>2499</ele>
        <time>2013-07-27T09:22:05Z</time>
      </trkpt>
      <trkpt lat="45.48851" lon="6.74256">
        <ele>2494.1999512</ele>
        <time>2013-07-27T09:22:10Z</time>
      </trkpt>
      <trkpt lat="45.48861" lon="6.74258">
        <ele>2489.8000488</ele>
        <time>2013-07-27T09:22:15Z</time>
      </trkpt>
      <trkpt lat="45.48878" lon="6.74259">
        <ele>2489</ele>
        <time>2013-07-27T09:22:23Z</time>
      </trkpt>
      <trkpt lat="45.48884" lon="6.74267">
        <ele>2487.8000488</ele>
        <time>2013-07-27T09:22:27Z</time>
      </trkpt>
      <trkpt lat="45.48885" lon="6.74277">
        <ele>2486.8000488</ele>
        <time>2013-07-27T09:22:30Z</time>
      </trkpt>
      <trkpt lat="45.48884" lon="6.7429">
        <ele>2486</ele>
        <time>2013-07-27T09:22:34Z</time>
      </trkpt>
      <trkpt lat="45.48882" lon="6.74299">
        <ele>2486.1999512</ele>
        <time>2013-07-27T09:22:37Z</time>
      </trkpt>
      <trkpt lat="45.48881" lon="6.74311">
        <ele>2486.1999512</ele>
        <time>2013-07-27T09:22:41Z</time>
      </trkpt>
      <trkpt lat="45.48883" lon="6.74324">
        <ele>2484.6000977</ele>
        <time>2013-07-27T09:22:46Z</time>
      </trkpt>
      <trkpt lat="45.48891" lon="6.74331">
        <ele>2483.6000977</ele>
        <time>2013-07-27T09:22:51Z</time>
      </trkpt>
      <trkpt lat="45.48901" lon="6.74336">
        <ele>2484.1999512</ele>
        <time>2013-07-27T09:22:56Z</time>
      </trkpt>
      <trkpt lat="45.48909" lon="6.74339">
        <ele>2486.6000977</ele>
        <time>2013-07-27T09:23:00Z</time>
      </trkpt>
      <trkpt lat="45.48919" lon="6.74341">
        <ele>2488.3999023</ele>
        <time>2013-07-27T09:23:05Z</time>
      </trkpt>
      <trkpt lat="45.48929" lon="6.7434">
        <ele>2490.1999512</ele>
        <time>2013-07-27T09:23:10Z</time>
      </trkpt>
      <trkpt lat="45.48938" lon="6.74339">
        <ele>2492.3999023</ele>
        <time>2013-07-27T09:23:15Z</time>
      </trkpt>
      <trkpt lat="45.48948" lon="6.74341">
        <ele>2493.8000488</ele>
        <time>2013-07-27T09:23:20Z</time>
      </trkpt>
      <trkpt lat="45.48953" lon="6.7435">
        <ele>2494.3999023</ele>
        <time>2013-07-27T09:23:24Z</time>
      </trkpt>
      <trkpt lat="45.48956" lon="6.74358">
        <ele>2493.8000488</ele>
        <time>2013-07-27T09:23:27Z</time>
      </trkpt>
      <trkpt lat="45.48959" lon="6.74371">
        <ele>2492</ele>
        <time>2013-07-27T09:23:32Z</time>
      </trkpt>
      <trkpt lat="45.48964" lon="6.74382">
        <ele>2489.6000977</ele>
        <time>2013-07-27T09:23:37Z</time>
      </trkpt>
      <trkpt lat="45.48969" lon="6.74392">
        <ele>2487.8000488</ele>
        <time>2013-07-27T09:23:42Z</time>
      </trkpt>
      <trkpt lat="45.48973" lon="6.74401">
        <ele>2486.8000488</ele>
        <time>2013-07-27T09:23:46Z</time>
      </trkpt>
      <trkpt lat="45.4898" lon="6.74409">
        <ele>2486.8000488</ele>
        <time>2013-07-27T09:23:51Z</time>
      </trkpt>
      <trkpt lat="45.48989" lon="6.74418">
        <ele>2488.3999023</ele>
        <time>2013-07-27T09:23:57Z</time>
      </trkpt>
      <trkpt lat="45.48995" lon="6.74423">
        <ele>2490.1999512</ele>
        <time>2013-07-27T09:24:01Z</time>
      </trkpt>
      <trkpt lat="45.49001" lon="6.74426">
        <ele>2490.8000488</ele>
        <time>2013-07-27T09:24:04Z</time>
      </trkpt>
      <trkpt lat="45.49008" lon="6.7443">
        <ele>2491.1999512</ele>
        <time>2013-07-27T09:24:07Z</time>
      </trkpt>
      <trkpt lat="45.49016" lon="6.74433">
        <ele>2491.6000977</ele>
        <time>2013-07-27T09:24:10Z</time>
      </trkpt>
      <trkpt lat="45.49025" lon="6.7444">
        <ele>2493</ele>
        <time>2013-07-27T09:24:15Z</time>
      </trkpt>
      <trkpt lat="45.4903" lon="6.74447">
        <ele>2494.8000488</ele>
        <time>2013-07-27T09:24:19Z</time>
      </trkpt>
      <trkpt lat="45.49036" lon="6.74457">
        <ele>2496</ele>
        <time>2013-07-27T09:24:24Z</time>
      </trkpt>
      <trkpt lat="45.49045" lon="6.74469">
        <ele>2496.3999023</ele>
        <time>2013-07-27T09:24:31Z</time>
      </trkpt>
      <trkpt lat="45.49051" lon="6.74475">
        <ele>2497</ele>
        <time>2013-07-27T09:24:35Z</time>
      </trkpt>
      <trkpt lat="45.49058" lon="6.74481">
        <ele>2497.8000488</ele>
        <time>2013-07-27T09:24:40Z</time>
      </trkpt>
      <trkpt lat="45.49066" lon="6.74486">
        <ele>2499</ele>
        <time>2013-07-27T09:24:45Z</time>
      </trkpt>
      <trkpt lat="45.49072" lon="6.74489">
        <ele>2500.1999512</ele>
        <time>2013-07-27T09:24:49Z</time>
      </trkpt>
      <trkpt lat="45.49079" lon="6.74494">
        <ele>2501.3999023</ele>
        <time>2013-07-27T09:24:53Z</time>
      </trkpt>
      <trkpt lat="45.49086" lon="6.74502">
        <ele>2502.6000977</ele>
        <time>2013-07-27T09:24:58Z</time>
      </trkpt>
      <trkpt lat="45.49091" lon="6.74511">
        <ele>2503.3999023</ele>
        <time>2013-07-27T09:25:03Z</time>
      </trkpt>
      <trkpt lat="45.49096" lon="6.74522">
        <ele>2502.8000488</ele>
        <time>2013-07-27T09:25:08Z</time>
      </trkpt>
      <trkpt lat="45.491" lon="6.74532">
        <ele>2500.8000488</ele>
        <time>2013-07-27T09:25:12Z</time>
      </trkpt>
      <trkpt lat="45.49104" lon="6.74542">
        <ele>2498.3999023</ele>
        <time>2013-07-27T09:25:16Z</time>
      </trkpt>
      <trkpt lat="45.49109" lon="6.74553">
        <ele>2497.6000977</ele>
        <time>2013-07-27T09:25:21Z</time>
      </trkpt>
      <trkpt lat="45.49113" lon="6.74563">
        <ele>2497</ele>
        <time>2013-07-27T09:25:26Z</time>
      </trkpt>
      <trkpt lat="45.49116" lon="6.74572">
        <ele>2495.1999512</ele>
        <time>2013-07-27T09:25:30Z</time>
      </trkpt>
      <trkpt lat="45.4912" lon="6.74581">
        <ele>2493.3999023</ele>
        <time>2013-07-27T09:25:34Z</time>
      </trkpt>
      <trkpt lat="45.49124" lon="6.74593">
        <ele>2492.3999023</ele>
        <time>2013-07-27T09:25:39Z</time>
      </trkpt>
      <trkpt lat="45.49129" lon="6.74606">
        <ele>2492.8000488</ele>
        <time>2013-07-27T09:25:44Z</time>
      </trkpt>
      <trkpt lat="45.49133" lon="6.74618">
        <ele>2492.1999512</ele>
        <time>2013-07-27T09:25:49Z</time>
      </trkpt>
      <trkpt lat="45.49139" lon="6.74628">
        <ele>2490.8000488</ele>
        <time>2013-07-27T09:25:54Z</time>
      </trkpt>
      <trkpt lat="45.49143" lon="6.74637">
        <ele>2489.8000488</ele>
        <time>2013-07-27T09:25:58Z</time>
      </trkpt>
      <trkpt lat="45.49147" lon="6.74663">
        <ele>2489.8000488</ele>
        <time>2013-07-27T09:26:11Z</time>
      </trkpt>
      <trkpt lat="45.49147" lon="6.74672">
        <ele>2495.8000488</ele>
        <time>2013-07-27T09:28:40Z</time>
      </trkpt>
      <trkpt lat="45.49143" lon="6.74681">
        <ele>2500</ele>
        <time>2013-07-27T09:28:47Z</time>
      </trkpt>
      <trkpt lat="45.49139" lon="6.7469">
        <ele>2501.3999023</ele>
        <time>2013-07-27T09:28:53Z</time>
      </trkpt>
      <trkpt lat="45.49136" lon="6.74699">
        <ele>2502.3999023</ele>
        <time>2013-07-27T09:28:59Z</time>
      </trkpt>
      <trkpt lat="45.49133" lon="6.74708">
        <ele>2502.8000488</ele>
        <time>2013-07-27T09:29:05Z</time>
      </trkpt>
      <trkpt lat="45.4913" lon="6.74716">
        <ele>2502.3999023</ele>
        <time>2013-07-27T09:29:12Z</time>
      </trkpt>
      <trkpt lat="45.49127" lon="6.7473">
        <ele>2502.1999512</ele>
        <time>2013-07-27T09:29:20Z</time>
      </trkpt>
      <trkpt lat="45.49125" lon="6.74743">
        <ele>2504</ele>
        <time>2013-07-27T09:29:28Z</time>
      </trkpt>
      <trkpt lat="45.49126" lon="6.74755">
        <ele>2505.6000977</ele>
        <time>2013-07-27T09:29:35Z</time>
      </trkpt>
      <trkpt lat="45.49126" lon="6.74767">
        <ele>2505.6000977</ele>
        <time>2013-07-27T09:29:42Z</time>
      </trkpt>
      <trkpt lat="45.49125" lon="6.74778">
        <ele>2505.6000977</ele>
        <time>2013-07-27T09:29:49Z</time>
      </trkpt>
      <trkpt lat="45.49124" lon="6.74787">
        <ele>2507.3999023</ele>
        <time>2013-07-27T09:29:55Z</time>
      </trkpt>
      <trkpt lat="45.49121" lon="6.74796">
        <ele>2508.3999023</ele>
        <time>2013-07-27T09:30:02Z</time>
      </trkpt>
      <trkpt lat="45.49117" lon="6.74804">
        <ele>2509.1999512</ele>
        <time>2013-07-27T09:30:09Z</time>
      </trkpt>
      <trkpt lat="45.49114" lon="6.74813">
        <ele>2510</ele>
        <time>2013-07-27T09:30:16Z</time>
      </trkpt>
      <trkpt lat="45.4911" lon="6.74824">
        <ele>2510.6000977</ele>
        <time>2013-07-27T09:30:25Z</time>
      </trkpt>
      <trkpt lat="45.49109" lon="6.74834">
        <ele>2512.8000488</ele>
        <time>2013-07-27T09:30:32Z</time>
      </trkpt>
      <trkpt lat="45.49108" lon="6.74844">
        <ele>2514.6000977</ele>
        <time>2013-07-27T09:30:39Z</time>
      </trkpt>
      <trkpt lat="45.49101" lon="6.74868">
        <ele>2515</ele>
        <time>2013-07-27T09:30:56Z</time>
      </trkpt>
      <trkpt lat="45.49099" lon="6.74885">
        <ele>2515.1999512</ele>
        <time>2013-07-27T09:31:06Z</time>
      </trkpt>
      <trkpt lat="45.49101" lon="6.74897">
        <ele>2515.8000488</ele>
        <time>2013-07-27T09:31:13Z</time>
      </trkpt>
      <trkpt lat="45.49106" lon="6.74905">
        <ele>2519.6000977</ele>
        <time>2013-07-27T09:31:20Z</time>
      </trkpt>
      <trkpt lat="45.4911" lon="6.74915">
        <ele>2523.3999023</ele>
        <time>2013-07-27T09:31:27Z</time>
      </trkpt>
      <trkpt lat="45.49112" lon="6.74924">
        <ele>2523.3999023</ele>
        <time>2013-07-27T09:31:32Z</time>
      </trkpt>
      <trkpt lat="45.49113" lon="6.74934">
        <ele>2522.6000977</ele>
        <time>2013-07-27T09:31:37Z</time>
      </trkpt>
      <trkpt lat="45.49116" lon="6.74944">
        <ele>2522</ele>
        <time>2013-07-27T09:31:43Z</time>
      </trkpt>
      <trkpt lat="45.49117" lon="6.74955">
        <ele>2523.6000977</ele>
        <time>2013-07-27T09:31:51Z</time>
      </trkpt>
      <trkpt lat="45.49119" lon="6.74964">
        <ele>2525.6000977</ele>
        <time>2013-07-27T09:31:57Z</time>
      </trkpt>
      <trkpt lat="45.49123" lon="6.74973">
        <ele>2528.1999512</ele>
        <time>2013-07-27T09:32:05Z</time>
      </trkpt>
      <trkpt lat="45.4913" lon="6.74979">
        <ele>2530</ele>
        <time>2013-07-27T09:32:12Z</time>
      </trkpt>
      <trkpt lat="45.49137" lon="6.74983">
        <ele>2531.6000977</ele>
        <time>2013-07-27T09:32:18Z</time>
      </trkpt>
      <trkpt lat="45.49144" lon="6.74989">
        <ele>2533.1999512</ele>
        <time>2013-07-27T09:32:25Z</time>
      </trkpt>
      <trkpt lat="45.4915" lon="6.74996">
        <ele>2534.8000488</ele>
        <time>2013-07-27T09:32:32Z</time>
      </trkpt>
      <trkpt lat="45.49155" lon="6.75006">
        <ele>2536.6000977</ele>
        <time>2013-07-27T09:32:41Z</time>
      </trkpt>
      <trkpt lat="45.49158" lon="6.75018">
        <ele>2537.8000488</ele>
        <time>2013-07-27T09:32:51Z</time>
      </trkpt>
      <trkpt lat="45.49154" lon="6.75034">
        <ele>2538.1999512</ele>
        <time>2013-07-27T09:33:02Z</time>
      </trkpt>
      <trkpt lat="45.4916" lon="6.75041">
        <ele>2539.8000488</ele>
        <time>2013-07-27T09:33:10Z</time>
      </trkpt>
      <trkpt lat="45.4916" lon="6.7505">
        <ele>2542</ele>
        <time>2013-07-27T09:33:18Z</time>
      </trkpt>
      <trkpt lat="45.49161" lon="6.75061">
        <ele>2544.8000488</ele>
        <time>2013-07-27T09:33:27Z</time>
      </trkpt>
      <trkpt lat="45.49158" lon="6.75072">
        <ele>2546.3999023</ele>
        <time>2013-07-27T09:33:35Z</time>
      </trkpt>
      <trkpt lat="45.49163" lon="6.75083">
        <ele>2547.6000977</ele>
        <time>2013-07-27T09:33:43Z</time>
      </trkpt>
      <trkpt lat="45.49167" lon="6.75089">
        <ele>2550</ele>
        <time>2013-07-27T09:33:49Z</time>
      </trkpt>
      <trkpt lat="45.49167" lon="6.75099">
        <ele>2549.6000977</ele>
        <time>2013-07-27T09:33:56Z</time>
      </trkpt>
      <trkpt lat="45.49166" lon="6.75112">
        <ele>2548</ele>
        <time>2013-07-27T09:34:04Z</time>
      </trkpt>
      <trkpt lat="45.49165" lon="6.75122">
        <ele>2548.8000488</ele>
        <time>2013-07-27T09:34:11Z</time>
      </trkpt>
      <trkpt lat="45.49166" lon="6.75133">
        <ele>2550.3999023</ele>
        <time>2013-07-27T09:34:19Z</time>
      </trkpt>
      <trkpt lat="45.49166" lon="6.75144">
        <ele>2553</ele>
        <time>2013-07-27T09:34:26Z</time>
      </trkpt>
      <trkpt lat="45.49166" lon="6.75154">
        <ele>2552.6000977</ele>
        <time>2013-07-27T09:34:34Z</time>
      </trkpt>
      <trkpt lat="45.49163" lon="6.75164">
        <ele>2553.6000977</ele>
        <time>2013-07-27T09:34:45Z</time>
      </trkpt>
      <trkpt lat="45.49166" lon="6.75171">
        <ele>2555</ele>
        <time>2013-07-27T09:34:53Z</time>
      </trkpt>
      <trkpt lat="45.49162" lon="6.75178">
        <ele>2554.8000488</ele>
        <time>2013-07-27T09:35:01Z</time>
      </trkpt>
      <trkpt lat="45.49158" lon="6.75186">
        <ele>2555.1999512</ele>
        <time>2013-07-27T09:35:09Z</time>
      </trkpt>
      <trkpt lat="45.49157" lon="6.75195">
        <ele>2557.3999023</ele>
        <time>2013-07-27T09:35:21Z</time>
      </trkpt>
      <trkpt lat="45.49154" lon="6.75203">
        <ele>2559.3999023</ele>
        <time>2013-07-27T09:35:32Z</time>
      </trkpt>
      <trkpt lat="45.49152" lon="6.75214">
        <ele>2563.8000488</ele>
        <time>2013-07-27T09:35:48Z</time>
      </trkpt>
      <trkpt lat="45.4915" lon="6.75223">
        <ele>2565.3999023</ele>
        <time>2013-07-27T09:35:59Z</time>
      </trkpt>
      <trkpt lat="45.49147" lon="6.75233">
        <ele>2568.6000977</ele>
        <time>2013-07-27T09:36:09Z</time>
      </trkpt>
      <trkpt lat="45.49144" lon="6.75241">
        <ele>2569.3999023</ele>
        <time>2013-07-27T09:36:17Z</time>
      </trkpt>
      <trkpt lat="45.49143" lon="6.7525">
        <ele>2570.8000488</ele>
        <time>2013-07-27T09:36:25Z</time>
      </trkpt>
      <trkpt lat="45.49143" lon="6.7526">
        <ele>2572.3999023</ele>
        <time>2013-07-27T09:36:33Z</time>
      </trkpt>
      <trkpt lat="45.49142" lon="6.7527">
        <ele>2573.3999023</ele>
        <time>2013-07-27T09:36:39Z</time>
      </trkpt>
      <trkpt lat="45.49142" lon="6.75279">
        <ele>2575</ele>
        <time>2013-07-27T09:36:46Z</time>
      </trkpt>
      <trkpt lat="45.49142" lon="6.75289">
        <ele>2577.3999023</ele>
        <time>2013-07-27T09:36:54Z</time>
      </trkpt>
      <trkpt lat="45.49142" lon="6.75298">
        <ele>2579</ele>
        <time>2013-07-27T09:37:01Z</time>
      </trkpt>
      <trkpt lat="45.49141" lon="6.75309">
        <ele>2579.8000488</ele>
        <time>2013-07-27T09:37:09Z</time>
      </trkpt>
      <trkpt lat="45.4914" lon="6.75321">
        <ele>2580.8000488</ele>
        <time>2013-07-27T09:37:17Z</time>
      </trkpt>
      <trkpt lat="45.49141" lon="6.75332">
        <ele>2581.6000977</ele>
        <time>2013-07-27T09:37:24Z</time>
      </trkpt>
      <trkpt lat="45.49142" lon="6.75342">
        <ele>2582.8000488</ele>
        <time>2013-07-27T09:37:32Z</time>
      </trkpt>
      <trkpt lat="45.49143" lon="6.75351">
        <ele>2583.8000488</ele>
        <time>2013-07-27T09:37:38Z</time>
      </trkpt>
      <trkpt lat="45.49144" lon="6.75361">
        <ele>2585.6000977</ele>
        <time>2013-07-27T09:37:45Z</time>
      </trkpt>
      <trkpt lat="45.49143" lon="6.7537">
        <ele>2587</ele>
        <time>2013-07-27T09:37:53Z</time>
      </trkpt>
      <trkpt lat="45.49146" lon="6.7538">
        <ele>2586.1999512</ele>
        <time>2013-07-27T09:38:00Z</time>
      </trkpt>
      <trkpt lat="45.49147" lon="6.75389">
        <ele>2586.3999023</ele>
        <time>2013-07-27T09:38:09Z</time>
      </trkpt>
      <trkpt lat="45.49147" lon="6.75403">
        <ele>2587.8000488</ele>
        <time>2013-07-27T09:38:16Z</time>
      </trkpt>
      <trkpt lat="45.49148" lon="6.75413">
        <ele>2589.6000977</ele>
        <time>2013-07-27T09:38:21Z</time>
      </trkpt>
      <trkpt lat="45.4915" lon="6.75423">
        <ele>2594.8000488</ele>
        <time>2013-07-27T09:38:29Z</time>
      </trkpt>
      <trkpt lat="45.49151" lon="6.75431">
        <ele>2598.3999023</ele>
        <time>2013-07-27T09:38:37Z</time>
      </trkpt>
      <trkpt lat="45.49156" lon="6.75438">
        <ele>2599.1999512</ele>
        <time>2013-07-27T09:38:43Z</time>
      </trkpt>
      <trkpt lat="45.4916" lon="6.75447">
        <ele>2600.1999512</ele>
        <time>2013-07-27T09:38:50Z</time>
      </trkpt>
      <trkpt lat="45.49162" lon="6.75455">
        <ele>2601.6000977</ele>
        <time>2013-07-27T09:38:56Z</time>
      </trkpt>
      <trkpt lat="45.49165" lon="6.75466">
        <ele>2603.3999023</ele>
        <time>2013-07-27T09:39:02Z</time>
      </trkpt>
      <trkpt lat="45.49167" lon="6.75478">
        <ele>2605</ele>
        <time>2013-07-27T09:39:11Z</time>
      </trkpt>
      <trkpt lat="45.49168" lon="6.75489">
        <ele>2604.1999512</ele>
        <time>2013-07-27T09:39:18Z</time>
      </trkpt>
      <trkpt lat="45.4917" lon="6.75498">
        <ele>2603</ele>
        <time>2013-07-27T09:39:24Z</time>
      </trkpt>
      <trkpt lat="45.49171" lon="6.75512">
        <ele>2602.6000977</ele>
        <time>2013-07-27T09:39:32Z</time>
      </trkpt>
      <trkpt lat="45.49166" lon="6.75521">
        <ele>2601.6000977</ele>
        <time>2013-07-27T09:39:39Z</time>
      </trkpt>
      <trkpt lat="45.49168" lon="6.75532">
        <ele>2601</ele>
        <time>2013-07-27T09:39:46Z</time>
      </trkpt>
      <trkpt lat="45.49166" lon="6.75543">
        <ele>2600.6000977</ele>
        <time>2013-07-27T09:39:54Z</time>
      </trkpt>
      <trkpt lat="45.49169" lon="6.75554">
        <ele>2604.8000488</ele>
        <time>2013-07-27T09:40:07Z</time>
      </trkpt>
      <trkpt lat="45.49172" lon="6.75562">
        <ele>2606</ele>
        <time>2013-07-27T09:40:15Z</time>
      </trkpt>
      <trkpt lat="45.49171" lon="6.75572">
        <ele>2608.8000488</ele>
        <time>2013-07-27T09:40:25Z</time>
      </trkpt>
      <trkpt lat="45.49172" lon="6.75582">
        <ele>2610</ele>
        <time>2013-07-27T09:40:35Z</time>
      </trkpt>
      <trkpt lat="45.49176" lon="6.75592">
        <ele>2610.6000977</ele>
        <time>2013-07-27T09:40:43Z</time>
      </trkpt>
      <trkpt lat="45.4918" lon="6.75595">
        <ele>2618.1999512</ele>
        <time>2013-07-27T09:40:53Z</time>
      </trkpt>
      <trkpt lat="45.49186" lon="6.75593">
        <ele>2621.8000488</ele>
        <time>2013-07-27T09:40:58Z</time>
      </trkpt>
      <trkpt lat="45.49187" lon="6.756">
        <ele>2623.8000488</ele>
        <time>2013-07-27T09:41:09Z</time>
      </trkpt>
      <trkpt lat="45.49188" lon="6.75609">
        <ele>2621.3999023</ele>
        <time>2013-07-27T09:41:19Z</time>
      </trkpt>
      <trkpt lat="45.49189" lon="6.75618">
        <ele>2624.3999023</ele>
        <time>2013-07-27T09:41:31Z</time>
      </trkpt>
      <trkpt lat="45.49189" lon="6.75628">
        <ele>2628</ele>
        <time>2013-07-27T09:41:45Z</time>
      </trkpt>
      <trkpt lat="45.49191" lon="6.75636">
        <ele>2626.8000488</ele>
        <time>2013-07-27T09:41:55Z</time>
      </trkpt>
      <trkpt lat="45.4919" lon="6.75647">
        <ele>2626.8000488</ele>
        <time>2013-07-27T09:42:06Z</time>
      </trkpt>
      <trkpt lat="45.49193" lon="6.75657">
        <ele>2629.3999023</ele>
        <time>2013-07-27T09:42:17Z</time>
      </trkpt>
      <trkpt lat="45.49191" lon="6.75667">
        <ele>2628.1999512</ele>
        <time>2013-07-27T09:42:25Z</time>
      </trkpt>
      <trkpt lat="45.4919" lon="6.75676">
        <ele>2626</ele>
        <time>2013-07-27T09:42:34Z</time>
      </trkpt>
      <trkpt lat="45.49189" lon="6.75686">
        <ele>2625</ele>
        <time>2013-07-27T09:42:42Z</time>
      </trkpt>
      <trkpt lat="45.49189" lon="6.75696">
        <ele>2625.8000488</ele>
        <time>2013-07-27T09:42:49Z</time>
      </trkpt>
      <trkpt lat="45.4919" lon="6.75706">
        <ele>2625.1999512</ele>
        <time>2013-07-27T09:42:54Z</time>
      </trkpt>
      <trkpt lat="45.49191" lon="6.75717">
        <ele>2622.6000977</ele>
        <time>2013-07-27T09:42:59Z</time>
      </trkpt>
      <trkpt lat="45.49189" lon="6.7573">
        <ele>2620.1999512</ele>
        <time>2013-07-27T09:43:05Z</time>
      </trkpt>
      <trkpt lat="45.49187" lon="6.75743">
        <ele>2620.1999512</ele>
        <time>2013-07-27T09:43:13Z</time>
      </trkpt>
      <trkpt lat="45.49183" lon="6.75755">
        <ele>2620.3999023</ele>
        <time>2013-07-27T09:43:21Z</time>
      </trkpt>
      <trkpt lat="45.49181" lon="6.75766">
        <ele>2621</ele>
        <time>2013-07-27T09:43:28Z</time>
      </trkpt>
      <trkpt lat="45.49176" lon="6.75784">
        <ele>2621.1999512</ele>
        <time>2013-07-27T09:43:38Z</time>
      </trkpt>
      <trkpt lat="45.49172" lon="6.75791">
        <ele>2620.6000977</ele>
        <time>2013-07-27T09:43:43Z</time>
      </trkpt>
      <trkpt lat="45.49165" lon="6.75806">
        <ele>2619.8000488</ele>
        <time>2013-07-27T09:43:52Z</time>
      </trkpt>
      <trkpt lat="45.49163" lon="6.75816">
        <ele>2619</ele>
        <time>2013-07-27T09:43:57Z</time>
      </trkpt>
      <trkpt lat="45.49163" lon="6.75826">
        <ele>2618</ele>
        <time>2013-07-27T09:44:02Z</time>
      </trkpt>
      <trkpt lat="45.49163" lon="6.75836">
        <ele>2618.3999023</ele>
        <time>2013-07-27T09:44:07Z</time>
      </trkpt>
      <trkpt lat="45.49166" lon="6.7585">
        <ele>2622</ele>
        <time>2013-07-27T09:44:15Z</time>
      </trkpt>
      <trkpt lat="45.49168" lon="6.75862">
        <ele>2625.3999023</ele>
        <time>2013-07-27T09:44:22Z</time>
      </trkpt>
      <trkpt lat="45.49169" lon="6.75872">
        <ele>2626.8000488</ele>
        <time>2013-07-27T09:44:27Z</time>
      </trkpt>
      <trkpt lat="45.49172" lon="6.75882">
        <ele>2630.6000977</ele>
        <time>2013-07-27T09:44:34Z</time>
      </trkpt>
      <trkpt lat="45.49176" lon="6.75891">
        <ele>2635.1999512</ele>
        <time>2013-07-27T09:44:42Z</time>
      </trkpt>
      <trkpt lat="45.49179" lon="6.75901">
        <ele>2637.6000977</ele>
        <time>2013-07-27T09:44:50Z</time>
      </trkpt>
      <trkpt lat="45.49184" lon="6.75908">
        <ele>2640</ele>
        <time>2013-07-27T09:44:57Z</time>
      </trkpt>
      <trkpt lat="45.49187" lon="6.75915">
        <ele>2643</ele>
        <time>2013-07-27T09:45:04Z</time>
      </trkpt>
      <trkpt lat="45.49191" lon="6.75925">
        <ele>2644.8000488</ele>
        <time>2013-07-27T09:45:11Z</time>
      </trkpt>
      <trkpt lat="45.49191" lon="6.75922">
        <ele>2644.3999023</ele>
        <time>2013-07-27T09:45:22Z</time>
      </trkpt>
      <trkpt lat="45.49192" lon="6.75932">
        <ele>2645.3999023</ele>
        <time>2013-07-27T09:45:29Z</time>
      </trkpt>
      <trkpt lat="45.49193" lon="6.75943">
        <ele>2646.6000977</ele>
        <time>2013-07-27T09:45:34Z</time>
      </trkpt>
      <trkpt lat="45.49195" lon="6.75954">
        <ele>2648.3999023</ele>
        <time>2013-07-27T09:45:40Z</time>
      </trkpt>
      <trkpt lat="45.49198" lon="6.75965">
        <ele>2650.3999023</ele>
        <time>2013-07-27T09:45:47Z</time>
      </trkpt>
      <trkpt lat="45.49198" lon="6.75977">
        <ele>2650.8000488</ele>
        <time>2013-07-27T09:45:52Z</time>
      </trkpt>
      <trkpt lat="45.49197" lon="6.75986">
        <ele>2651.6000977</ele>
        <time>2013-07-27T09:45:56Z</time>
      </trkpt>
      <trkpt lat="45.49197" lon="6.75995">
        <ele>2652</ele>
        <time>2013-07-27T09:46:01Z</time>
      </trkpt>
      <trkpt lat="45.492" lon="6.76004">
        <ele>2650.3999023</ele>
        <time>2013-07-27T09:46:06Z</time>
      </trkpt>
      <trkpt lat="45.49203" lon="6.76012">
        <ele>2649.1999512</ele>
        <time>2013-07-27T09:46:11Z</time>
      </trkpt>
      <trkpt lat="45.49206" lon="6.7602">
        <ele>2651.1999512</ele>
        <time>2013-07-27T09:46:19Z</time>
      </trkpt>
      <trkpt lat="45.49207" lon="6.76028">
        <ele>2654.6000977</ele>
        <time>2013-07-27T09:46:32Z</time>
      </trkpt>
      <trkpt lat="45.49208" lon="6.76037">
        <ele>2651.8000488</ele>
        <time>2013-07-27T09:46:43Z</time>
      </trkpt>
      <trkpt lat="45.49207" lon="6.76047">
        <ele>2651</ele>
        <time>2013-07-27T09:46:54Z</time>
      </trkpt>
      <trkpt lat="45.49206" lon="6.76058">
        <ele>2654</ele>
        <time>2013-07-27T09:47:06Z</time>
      </trkpt>
      <trkpt lat="45.49205" lon="6.76066">
        <ele>2656.3999023</ele>
        <time>2013-07-27T09:47:20Z</time>
      </trkpt>
      <trkpt lat="45.49203" lon="6.76076">
        <ele>2658.3999023</ele>
        <time>2013-07-27T09:47:36Z</time>
      </trkpt>
      <trkpt lat="45.492" lon="6.76084">
        <ele>2661.3999023</ele>
        <time>2013-07-27T09:47:51Z</time>
      </trkpt>
      <trkpt lat="45.49198" lon="6.76093">
        <ele>2662.1999512</ele>
        <time>2013-07-27T09:48:08Z</time>
      </trkpt>
      <trkpt lat="45.49196" lon="6.76101">
        <ele>2666</ele>
        <time>2013-07-27T09:48:28Z</time>
      </trkpt>
      <trkpt lat="45.49192" lon="6.7611">
        <ele>2669.3999023</ele>
        <time>2013-07-27T09:48:46Z</time>
      </trkpt>
      <trkpt lat="45.49189" lon="6.76118">
        <ele>2671.6000977</ele>
        <time>2013-07-27T09:49:00Z</time>
      </trkpt>
      <trkpt lat="45.49186" lon="6.76126">
        <ele>2673.8000488</ele>
        <time>2013-07-27T09:49:14Z</time>
      </trkpt>
      <trkpt lat="45.49183" lon="6.76134">
        <ele>2676.6000977</ele>
        <time>2013-07-27T09:49:29Z</time>
      </trkpt>
      <trkpt lat="45.49179" lon="6.76143">
        <ele>2678.1999512</ele>
        <time>2013-07-27T09:49:42Z</time>
      </trkpt>
      <trkpt lat="45.49175" lon="6.7615">
        <ele>2680.3999023</ele>
        <time>2013-07-27T09:49:54Z</time>
      </trkpt>
      <trkpt lat="45.49171" lon="6.7616">
        <ele>2681</ele>
        <time>2013-07-27T09:50:05Z</time>
      </trkpt>
      <trkpt lat="45.49168" lon="6.76168">
        <ele>2681.8000488</ele>
        <time>2013-07-27T09:50:16Z</time>
      </trkpt>
      <trkpt lat="45.49166" lon="6.7618">
        <ele>2684.3999023</ele>
        <time>2013-07-27T09:50:27Z</time>
      </trkpt>
      <trkpt lat="45.49163" lon="6.7619">
        <ele>2687</ele>
        <time>2013-07-27T09:50:40Z</time>
      </trkpt>
      <trkpt lat="45.49161" lon="6.76199">
        <ele>2690.1999512</ele>
        <time>2013-07-27T09:50:52Z</time>
      </trkpt>
      <trkpt lat="45.49158" lon="6.76208">
        <ele>2691.6000977</ele>
        <time>2013-07-27T09:51:06Z</time>
      </trkpt>
      <trkpt lat="45.49158" lon="6.76219">
        <ele>2698.3999023</ele>
        <time>2013-07-27T09:51:22Z</time>
      </trkpt>
      <trkpt lat="45.49155" lon="6.76228">
        <ele>2702</ele>
        <time>2013-07-27T09:51:35Z</time>
      </trkpt>
      <trkpt lat="45.49155" lon="6.76239">
        <ele>2704.1999512</ele>
        <time>2013-07-27T09:51:46Z</time>
      </trkpt>
      <trkpt lat="45.49149" lon="6.76242">
        <ele>2704.6000977</ele>
        <time>2013-07-27T09:51:53Z</time>
      </trkpt>
      <trkpt lat="45.49141" lon="6.76243">
        <ele>2703.8000488</ele>
        <time>2013-07-27T09:52:02Z</time>
      </trkpt>
      <trkpt lat="45.49133" lon="6.76249">
        <ele>2705.1999512</ele>
        <time>2013-07-27T09:52:14Z</time>
      </trkpt>
      <trkpt lat="45.49128" lon="6.76254">
        <ele>2706.8000488</ele>
        <time>2013-07-27T09:52:22Z</time>
      </trkpt>
      <trkpt lat="45.49122" lon="6.76258">
        <ele>2707.3999023</ele>
        <time>2013-07-27T09:52:30Z</time>
      </trkpt>
      <trkpt lat="45.49115" lon="6.76259">
        <ele>2707.8000488</ele>
        <time>2013-07-27T09:52:39Z</time>
      </trkpt>
      <trkpt lat="45.49109" lon="6.76263">
        <ele>2708</ele>
        <time>2013-07-27T09:52:48Z</time>
      </trkpt>
      <trkpt lat="45.49102" lon="6.76267">
        <ele>2707.8000488</ele>
        <time>2013-07-27T09:52:59Z</time>
      </trkpt>
      <trkpt lat="45.49096" lon="6.7627">
        <ele>2707.3999023</ele>
        <time>2013-07-27T09:53:09Z</time>
      </trkpt>
      <trkpt lat="45.49089" lon="6.76276">
        <ele>2708</ele>
        <time>2013-07-27T09:53:20Z</time>
      </trkpt>
      <trkpt lat="45.49083" lon="6.76282">
        <ele>2710.1999512</ele>
        <time>2013-07-27T09:53:29Z</time>
      </trkpt>
      <trkpt lat="45.49077" lon="6.76289">
        <ele>2713</ele>
        <time>2013-07-27T09:53:37Z</time>
      </trkpt>
      <trkpt lat="45.49072" lon="6.76297">
        <ele>2715.1999512</ele>
        <time>2013-07-27T09:53:48Z</time>
      </trkpt>
      <trkpt lat="45.49068" lon="6.76306">
        <ele>2718.3999023</ele>
        <time>2013-07-27T09:54:02Z</time>
      </trkpt>
      <trkpt lat="45.49068" lon="6.76316">
        <ele>2722</ele>
        <time>2013-07-27T09:54:15Z</time>
      </trkpt>
      <trkpt lat="45.49066" lon="6.76327">
        <ele>2725</ele>
        <time>2013-07-27T09:54:26Z</time>
      </trkpt>
      <trkpt lat="45.49065" lon="6.76335">
        <ele>2727.1999512</ele>
        <time>2013-07-27T09:54:34Z</time>
      </trkpt>
      <trkpt lat="45.49064" lon="6.76346">
        <ele>2730</ele>
        <time>2013-07-27T09:54:44Z</time>
      </trkpt>
      <trkpt lat="45.49064" lon="6.76356">
        <ele>2732.6000977</ele>
        <time>2013-07-27T09:54:51Z</time>
      </trkpt>
      <trkpt lat="45.49059" lon="6.76367">
        <ele>2733.3999023</ele>
        <time>2013-07-27T09:55:00Z</time>
      </trkpt>
      <trkpt lat="45.49052" lon="6.76373">
        <ele>2732</ele>
        <time>2013-07-27T09:55:08Z</time>
      </trkpt>
      <trkpt lat="45.49047" lon="6.76378">
        <ele>2730.8000488</ele>
        <time>2013-07-27T09:55:14Z</time>
      </trkpt>
      <trkpt lat="45.49041" lon="6.76382">
        <ele>2730</ele>
        <time>2013-07-27T09:55:20Z</time>
      </trkpt>
      <trkpt lat="45.49032" lon="6.7639">
        <ele>2729.3999023</ele>
        <time>2013-07-27T09:55:29Z</time>
      </trkpt>
      <trkpt lat="45.49027" lon="6.76397">
        <ele>2728.1999512</ele>
        <time>2013-07-27T09:55:35Z</time>
      </trkpt>
      <trkpt lat="45.49022" lon="6.76406">
        <ele>2726.3999023</ele>
        <time>2013-07-27T09:55:43Z</time>
      </trkpt>
      <trkpt lat="45.49015" lon="6.7641">
        <ele>2726.8000488</ele>
        <time>2013-07-27T09:55:51Z</time>
      </trkpt>
      <trkpt lat="45.49009" lon="6.76414">
        <ele>2728.6000977</ele>
        <time>2013-07-27T09:55:59Z</time>
      </trkpt>
      <trkpt lat="45.49003" lon="6.76419">
        <ele>2729.8000488</ele>
        <time>2013-07-27T09:56:07Z</time>
      </trkpt>
      <trkpt lat="45.48997" lon="6.76427">
        <ele>2731.8000488</ele>
        <time>2013-07-27T09:56:16Z</time>
      </trkpt>
      <trkpt lat="45.48991" lon="6.76434">
        <ele>2732.6000977</ele>
        <time>2013-07-27T09:56:24Z</time>
      </trkpt>
      <trkpt lat="45.48984" lon="6.76445">
        <ele>2733.1999512</ele>
        <time>2013-07-27T09:56:35Z</time>
      </trkpt>
      <trkpt lat="45.48979" lon="6.76452">
        <ele>2736.1999512</ele>
        <time>2013-07-27T09:56:44Z</time>
      </trkpt>
      <trkpt lat="45.48976" lon="6.7646">
        <ele>2739.8000488</ele>
        <time>2013-07-27T09:56:53Z</time>
      </trkpt>
      <trkpt lat="45.48972" lon="6.76464">
        <ele>2746</ele>
        <time>2013-07-27T09:57:20Z</time>
      </trkpt>
      <trkpt lat="45.48967" lon="6.76469">
        <ele>2746.3999023</ele>
        <time>2013-07-27T09:57:27Z</time>
      </trkpt>
      <trkpt lat="45.48962" lon="6.76476">
        <ele>2745.3999023</ele>
        <time>2013-07-27T09:57:33Z</time>
      </trkpt>
      <trkpt lat="45.48956" lon="6.76485">
        <ele>2744.6000977</ele>
        <time>2013-07-27T09:57:43Z</time>
      </trkpt>
      <trkpt lat="45.48949" lon="6.76492">
        <ele>2746</ele>
        <time>2013-07-27T09:57:52Z</time>
      </trkpt>
      <trkpt lat="45.48941" lon="6.76498">
        <ele>2747.3999023</ele>
        <time>2013-07-27T09:58:00Z</time>
      </trkpt>
      <trkpt lat="45.48935" lon="6.765">
        <ele>2748.8000488</ele>
        <time>2013-07-27T09:58:08Z</time>
      </trkpt>
      <trkpt lat="45.4893" lon="6.76507">
        <ele>2747</ele>
        <time>2013-07-27T09:58:16Z</time>
      </trkpt>
      <trkpt lat="45.48923" lon="6.76508">
        <ele>2745.1999512</ele>
        <time>2013-07-27T09:58:23Z</time>
      </trkpt>
      <trkpt lat="45.48917" lon="6.76509">
        <ele>2746.6000977</ele>
        <time>2013-07-27T09:58:30Z</time>
      </trkpt>
      <trkpt lat="45.48912" lon="6.76514">
        <ele>2747.8000488</ele>
        <time>2013-07-27T09:58:38Z</time>
      </trkpt>
      <trkpt lat="45.48905" lon="6.76517">
        <ele>2749.1999512</ele>
        <time>2013-07-27T09:58:47Z</time>
      </trkpt>
      <trkpt lat="45.48898" lon="6.76522">
        <ele>2751</ele>
        <time>2013-07-27T09:58:57Z</time>
      </trkpt>
      <trkpt lat="45.48892" lon="6.76527">
        <ele>2751.8000488</ele>
        <time>2013-07-27T09:59:09Z</time>
      </trkpt>
      <trkpt lat="45.48886" lon="6.76532">
        <ele>2755.1999512</ele>
        <time>2013-07-27T09:59:22Z</time>
      </trkpt>
      <trkpt lat="45.48881" lon="6.76539">
        <ele>2758.1999512</ele>
        <time>2013-07-27T09:59:31Z</time>
      </trkpt>
      <trkpt lat="45.48876" lon="6.76544">
        <ele>2761</ele>
        <time>2013-07-27T09:59:42Z</time>
      </trkpt>
      <trkpt lat="45.48871" lon="6.76551">
        <ele>2764.1999512</ele>
        <time>2013-07-27T09:59:52Z</time>
      </trkpt>
      <trkpt lat="45.48865" lon="6.76556">
        <ele>2766</ele>
        <time>2013-07-27T10:00:03Z</time>
      </trkpt>
      <trkpt lat="45.4886" lon="6.76565">
        <ele>2768.3999023</ele>
        <time>2013-07-27T10:00:16Z</time>
      </trkpt>
      <trkpt lat="45.48855" lon="6.7657">
        <ele>2769.3999023</ele>
        <time>2013-07-27T10:00:26Z</time>
      </trkpt>
      <trkpt lat="45.4885" lon="6.76578">
        <ele>2771.6000977</ele>
        <time>2013-07-27T10:00:39Z</time>
      </trkpt>
      <trkpt lat="45.48845" lon="6.76585">
        <ele>2773.8000488</ele>
        <time>2013-07-27T10:00:52Z</time>
      </trkpt>
      <trkpt lat="45.48841" lon="6.76593">
        <ele>2777.1999512</ele>
        <time>2013-07-27T10:01:10Z</time>
      </trkpt>
      <trkpt lat="45.48838" lon="6.76602">
        <ele>2781.6000977</ele>
        <time>2013-07-27T10:01:28Z</time>
      </trkpt>
      <trkpt lat="45.48839" lon="6.76611">
        <ele>2788.8000488</ele>
        <time>2013-07-27T10:01:58Z</time>
      </trkpt>
      <trkpt lat="45.48837" lon="6.76619">
        <ele>2794.6000977</ele>
        <time>2013-07-27T10:02:19Z</time>
      </trkpt>
      <trkpt lat="45.48837" lon="6.76628">
        <ele>2801.1999512</ele>
        <time>2013-07-27T10:02:46Z</time>
      </trkpt>
      <trkpt lat="45.48838" lon="6.76637">
        <ele>2808.3999023</ele>
        <time>2013-07-27T10:03:08Z</time>
      </trkpt>
      <trkpt lat="45.48837" lon="6.76646">
        <ele>2811.8000488</ele>
        <time>2013-07-27T10:03:26Z</time>
      </trkpt>
      <trkpt lat="45.48837" lon="6.76657">
        <ele>2815.1999512</ele>
        <time>2013-07-27T10:03:48Z</time>
      </trkpt>
      <trkpt lat="45.48841" lon="6.76664">
        <ele>2819.1999512</ele>
        <time>2013-07-27T10:04:08Z</time>
      </trkpt>
      <trkpt lat="45.48837" lon="6.76667">
        <ele>2820.1999512</ele>
        <time>2013-07-27T10:05:05Z</time>
      </trkpt>
      <trkpt lat="45.48838" lon="6.76676">
        <ele>2821.3999023</ele>
        <time>2013-07-27T10:05:19Z</time>
      </trkpt>
      <trkpt lat="45.48841" lon="6.76686">
        <ele>2825.3999023</ele>
        <time>2013-07-27T10:05:34Z</time>
      </trkpt>
      <trkpt lat="45.48841" lon="6.76695">
        <ele>2829.1999512</ele>
        <time>2013-07-27T10:05:48Z</time>
      </trkpt>
      <trkpt lat="45.48843" lon="6.76703">
        <ele>2833.3999023</ele>
        <time>2013-07-27T10:06:04Z</time>
      </trkpt>
      <trkpt lat="45.48844" lon="6.76712">
        <ele>2837.1999512</ele>
        <time>2013-07-27T10:06:21Z</time>
      </trkpt>
      <trkpt lat="45.48841" lon="6.76721">
        <ele>2839.1999512</ele>
        <time>2013-07-27T10:06:37Z</time>
      </trkpt>
      <trkpt lat="45.4884" lon="6.7673">
        <ele>2840.3999023</ele>
        <time>2013-07-27T10:06:56Z</time>
      </trkpt>
      <trkpt lat="45.48841" lon="6.76741">
        <ele>2843.8000488</ele>
        <time>2013-07-27T10:07:13Z</time>
      </trkpt>
      <trkpt lat="45.4884" lon="6.7675">
        <ele>2848.8000488</ele>
        <time>2013-07-27T10:07:31Z</time>
      </trkpt>
      <trkpt lat="45.4884" lon="6.76759">
        <ele>2852.6000977</ele>
        <time>2013-07-27T10:07:49Z</time>
      </trkpt>
      <trkpt lat="45.4884" lon="6.76769">
        <ele>2855.8000488</ele>
        <time>2013-07-27T10:08:07Z</time>
      </trkpt>
      <trkpt lat="45.48839" lon="6.76779">
        <ele>2856.8000488</ele>
        <time>2013-07-27T10:08:24Z</time>
      </trkpt>
      <trkpt lat="45.48838" lon="6.76788">
        <ele>2856.3999023</ele>
        <time>2013-07-27T10:08:39Z</time>
      </trkpt>
      <trkpt lat="45.48838" lon="6.76797">
        <ele>2860.8000488</ele>
        <time>2013-07-27T10:08:58Z</time>
      </trkpt>
      <trkpt lat="45.48838" lon="6.76808">
        <ele>2862.3999023</ele>
        <time>2013-07-27T10:09:16Z</time>
      </trkpt>
      <trkpt lat="45.48843" lon="6.76811">
        <ele>2864.1999512</ele>
        <time>2013-07-27T10:09:40Z</time>
      </trkpt>
      <trkpt lat="45.48844" lon="6.7682">
        <ele>2869.3999023</ele>
        <time>2013-07-27T10:10:03Z</time>
      </trkpt>
      <trkpt lat="45.48846" lon="6.76829">
        <ele>2872.6000977</ele>
        <time>2013-07-27T10:10:27Z</time>
      </trkpt>
      <trkpt lat="45.48848" lon="6.76837">
        <ele>2876.6000977</ele>
        <time>2013-07-27T10:10:47Z</time>
      </trkpt>
      <trkpt lat="45.4885" lon="6.76845">
        <ele>2879.6000977</ele>
        <time>2013-07-27T10:11:06Z</time>
      </trkpt>
      <trkpt lat="45.48853" lon="6.76851">
        <ele>2883.6000977</ele>
        <time>2013-07-27T10:11:28Z</time>
      </trkpt>
      <trkpt lat="45.48855" lon="6.76858">
        <ele>2887.1999512</ele>
        <time>2013-07-27T10:11:48Z</time>
      </trkpt>
      <trkpt lat="45.48856" lon="6.76867">
        <ele>2891.1999512</ele>
        <time>2013-07-27T10:12:06Z</time>
      </trkpt>
      <trkpt lat="45.48857" lon="6.76875">
        <ele>2895</ele>
        <time>2013-07-27T10:12:37Z</time>
      </trkpt>
      <trkpt lat="45.48859" lon="6.76884">
        <ele>2899.6000977</ele>
        <time>2013-07-27T10:12:55Z</time>
      </trkpt>
      <trkpt lat="45.48858" lon="6.76892">
        <ele>2904.3999023</ele>
        <time>2013-07-27T10:13:17Z</time>
      </trkpt>
      <trkpt lat="45.48858" lon="6.76901">
        <ele>2908.1999512</ele>
        <time>2013-07-27T10:13:38Z</time>
      </trkpt>
      <trkpt lat="45.48857" lon="6.76911">
        <ele>2912.6000977</ele>
        <time>2013-07-27T10:14:10Z</time>
      </trkpt>
      <trkpt lat="45.48856" lon="6.76919">
        <ele>2918</ele>
        <time>2013-07-27T10:14:36Z</time>
      </trkpt>
      <trkpt lat="45.48853" lon="6.76927">
        <ele>2927.1999512</ele>
        <time>2013-07-27T10:15:03Z</time>
      </trkpt>
      <trkpt lat="45.4885" lon="6.76935">
        <ele>2929</ele>
        <time>2013-07-27T10:15:21Z</time>
      </trkpt>
      <trkpt lat="45.48844" lon="6.76939">
        <ele>2930.3999023</ele>
        <time>2013-07-27T10:15:32Z</time>
      </trkpt>
      <trkpt lat="45.48841" lon="6.76948">
        <ele>2932.6000977</ele>
        <time>2013-07-27T10:15:47Z</time>
      </trkpt>
      <trkpt lat="45.48841" lon="6.76958">
        <ele>2935.3999023</ele>
        <time>2013-07-27T10:16:13Z</time>
      </trkpt>
      <trkpt lat="45.4884" lon="6.76967">
        <ele>2937.1999512</ele>
        <time>2013-07-27T10:16:32Z</time>
      </trkpt>
      <trkpt lat="45.48838" lon="6.76976">
        <ele>2941.6000977</ele>
        <time>2013-07-27T10:16:50Z</time>
      </trkpt>
      <trkpt lat="45.48834" lon="6.76985">
        <ele>2944.3999023</ele>
        <time>2013-07-27T10:17:06Z</time>
      </trkpt>
      <trkpt lat="45.48831" lon="6.76994">
        <ele>2947</ele>
        <time>2013-07-27T10:17:23Z</time>
      </trkpt>
      <trkpt lat="45.48831" lon="6.77004">
        <ele>2949.3999023</ele>
        <time>2013-07-27T10:17:42Z</time>
      </trkpt>
      <trkpt lat="45.48831" lon="6.77013">
        <ele>2953.3999023</ele>
        <time>2013-07-27T10:18:05Z</time>
      </trkpt>
      <trkpt lat="45.48832" lon="6.77023">
        <ele>2955.6000977</ele>
        <time>2013-07-27T10:18:23Z</time>
      </trkpt>
      <trkpt lat="45.48832" lon="6.77033">
        <ele>2956.8000488</ele>
        <time>2013-07-27T10:18:43Z</time>
      </trkpt>
      <trkpt lat="45.48832" lon="6.77041">
        <ele>2960.3999023</ele>
        <time>2013-07-27T10:18:56Z</time>
      </trkpt>
      <trkpt lat="45.48832" lon="6.7705">
        <ele>2963.3999023</ele>
        <time>2013-07-27T10:19:13Z</time>
      </trkpt>
      <trkpt lat="45.48834" lon="6.77058">
        <ele>2963.8000488</ele>
        <time>2013-07-27T10:19:34Z</time>
      </trkpt>
      <trkpt lat="45.48833" lon="6.77065">
        <ele>2967.1999512</ele>
        <time>2013-07-27T10:19:55Z</time>
      </trkpt>
      <trkpt lat="45.48838" lon="6.77068">
        <ele>2971</ele>
        <time>2013-07-27T10:20:26Z</time>
      </trkpt>
      <trkpt lat="45.4884" lon="6.77073">
        <ele>2976.3999023</ele>
        <time>2013-07-27T10:20:58Z</time>
      </trkpt>
      <trkpt lat="45.48843" lon="6.77081">
        <ele>2980.3999023</ele>
        <time>2013-07-27T10:21:26Z</time>
      </trkpt>
      <trkpt lat="45.48848" lon="6.77087">
        <ele>2981.3999023</ele>
        <time>2013-07-27T10:21:43Z</time>
      </trkpt>
      <trkpt lat="45.48853" lon="6.7708">
        <ele>2979.1999512</ele>
        <time>2013-07-27T10:22:01Z</time>
      </trkpt>
      <trkpt lat="45.48859" lon="6.77074">
        <ele>2980</ele>
        <time>2013-07-27T10:22:17Z</time>
      </trkpt>
      <trkpt lat="45.48864" lon="6.77077">
        <ele>2983.8000488</ele>
        <time>2013-07-27T10:22:32Z</time>
      </trkpt>
      <trkpt lat="45.48867" lon="6.77085">
        <ele>2986.8000488</ele>
        <time>2013-07-27T10:22:44Z</time>
      </trkpt>
      <trkpt lat="45.48872" lon="6.7709">
        <ele>2988.1999512</ele>
        <time>2013-07-27T10:22:57Z</time>
      </trkpt>
      <trkpt lat="45.4888" lon="6.77092">
        <ele>2989.6000977</ele>
        <time>2013-07-27T10:23:09Z</time>
      </trkpt>
      <trkpt lat="45.48888" lon="6.77092">
        <ele>2991.1999512</ele>
        <time>2013-07-27T10:23:22Z</time>
      </trkpt>
      <trkpt lat="45.48895" lon="6.77094">
        <ele>2992.6000977</ele>
        <time>2013-07-27T10:23:32Z</time>
      </trkpt>
      <trkpt lat="45.48908" lon="6.77097">
        <ele>2993</ele>
        <time>2013-07-27T10:23:49Z</time>
      </trkpt>
      <trkpt lat="45.48915" lon="6.771">
        <ele>2993</ele>
        <time>2013-07-27T10:24:01Z</time>
      </trkpt>
      <trkpt lat="45.48922" lon="6.77104">
        <ele>2995</ele>
        <time>2013-07-27T10:24:12Z</time>
      </trkpt>
      <trkpt lat="45.48928" lon="6.77107">
        <ele>2997.3999023</ele>
        <time>2013-07-27T10:24:23Z</time>
      </trkpt>
      <trkpt lat="45.48934" lon="6.77114">
        <ele>3000</ele>
        <time>2013-07-27T10:24:36Z</time>
      </trkpt>
      <trkpt lat="45.4894" lon="6.77119">
        <ele>3001.3999023</ele>
        <time>2013-07-27T10:24:48Z</time>
      </trkpt>
      <trkpt lat="45.4894" lon="6.77125">
        <ele>3002.6000977</ele>
        <time>2013-07-27T10:25:58Z</time>
      </trkpt>
      <trkpt lat="45.48943" lon="6.77133">
        <ele>3003</ele>
        <time>2013-07-27T10:26:07Z</time>
      </trkpt>
      <trkpt lat="45.48944" lon="6.77143">
        <ele>3001.6000977</ele>
        <time>2013-07-27T10:28:01Z</time>
      </trkpt>
      <trkpt lat="45.48948" lon="6.77156">
        <ele>3001.1999512</ele>
        <time>2013-07-27T10:28:14Z</time>
      </trkpt>
      <trkpt lat="45.48951" lon="6.77166">
        <ele>3004.1999512</ele>
        <time>2013-07-27T10:28:24Z</time>
      </trkpt>
      <trkpt lat="45.48953" lon="6.77175">
        <ele>3005.8000488</ele>
        <time>2013-07-27T10:28:32Z</time>
      </trkpt>
      <trkpt lat="45.48955" lon="6.77187">
        <ele>3007.1999512</ele>
        <time>2013-07-27T10:28:42Z</time>
      </trkpt>
      <trkpt lat="45.48956" lon="6.77197">
        <ele>3007.1999512</ele>
        <time>2013-07-27T10:28:51Z</time>
      </trkpt>
      <trkpt lat="45.48958" lon="6.77207">
        <ele>3007</ele>
        <time>2013-07-27T10:28:59Z</time>
      </trkpt>
      <trkpt lat="45.48959" lon="6.77219">
        <ele>3007.6000977</ele>
        <time>2013-07-27T10:29:09Z</time>
      </trkpt>
      <trkpt lat="45.4896" lon="6.7723">
        <ele>3008.1999512</ele>
        <time>2013-07-27T10:29:17Z</time>
      </trkpt>
      <trkpt lat="45.48961" lon="6.77242">
        <ele>3008.6000977</ele>
        <time>2013-07-27T10:29:27Z</time>
      </trkpt>
      <trkpt lat="45.48961" lon="6.77252">
        <ele>3009.1999512</ele>
        <time>2013-07-27T10:29:35Z</time>
      </trkpt>
      <trkpt lat="45.48962" lon="6.77264">
        <ele>3010.6000977</ele>
        <time>2013-07-27T10:29:46Z</time>
      </trkpt>
      <trkpt lat="45.48964" lon="6.77274">
        <ele>3012.6000977</ele>
        <time>2013-07-27T10:29:57Z</time>
      </trkpt>
      <trkpt lat="45.48964" lon="6.77284">
        <ele>3013.6000977</ele>
        <time>2013-07-27T10:30:06Z</time>
      </trkpt>
      <trkpt lat="45.48965" lon="6.77294">
        <ele>3014.1999512</ele>
        <time>2013-07-27T10:30:15Z</time>
      </trkpt>
      <trkpt lat="45.48967" lon="6.77304">
        <ele>3015</ele>
        <time>2013-07-27T10:30:24Z</time>
      </trkpt>
      <trkpt lat="45.48969" lon="6.77317">
        <ele>3015.1999512</ele>
        <time>2013-07-27T10:30:36Z</time>
      </trkpt>
      <trkpt lat="45.4897" lon="6.77329">
        <ele>3016.6000977</ele>
        <time>2013-07-27T10:30:45Z</time>
      </trkpt>
      <trkpt lat="45.48972" lon="6.77342">
        <ele>3017.1999512</ele>
        <time>2013-07-27T10:30:54Z</time>
      </trkpt>
      <trkpt lat="45.48973" lon="6.77353">
        <ele>3018</ele>
        <time>2013-07-27T10:31:02Z</time>
      </trkpt>
      <trkpt lat="45.48974" lon="6.77368">
        <ele>3018.8000488</ele>
        <time>2013-07-27T10:31:12Z</time>
      </trkpt>
      <trkpt lat="45.48976" lon="6.77379">
        <ele>3019.3999023</ele>
        <time>2013-07-27T10:31:19Z</time>
      </trkpt>
      <trkpt lat="45.48975" lon="6.77388">
        <ele>3019.8000488</ele>
        <time>2013-07-27T10:31:24Z</time>
      </trkpt>
      <trkpt lat="45.48977" lon="6.77398">
        <ele>3021</ele>
        <time>2013-07-27T10:31:32Z</time>
      </trkpt>
      <trkpt lat="45.48979" lon="6.77407">
        <ele>3022.8000488</ele>
        <time>2013-07-27T10:31:39Z</time>
      </trkpt>
      <trkpt lat="45.48983" lon="6.77418">
        <ele>3024</ele>
        <time>2013-07-27T10:31:49Z</time>
      </trkpt>
      <trkpt lat="45.48988" lon="6.77427">
        <ele>3024.8000488</ele>
        <time>2013-07-27T10:31:58Z</time>
      </trkpt>
      <trkpt lat="45.48993" lon="6.77433">
        <ele>3026</ele>
        <time>2013-07-27T10:32:07Z</time>
      </trkpt>
      <trkpt lat="45.49" lon="6.77437">
        <ele>3027.8000488</ele>
        <time>2013-07-27T10:32:16Z</time>
      </trkpt>
      <trkpt lat="45.49007" lon="6.77441">
        <ele>3029.1999512</ele>
        <time>2013-07-27T10:32:25Z</time>
      </trkpt>
      <trkpt lat="45.49014" lon="6.77445">
        <ele>3030.8000488</ele>
        <time>2013-07-27T10:32:34Z</time>
      </trkpt>
      <trkpt lat="45.4902" lon="6.77449">
        <ele>3032.3999023</ele>
        <time>2013-07-27T10:32:45Z</time>
      </trkpt>
      <trkpt lat="45.49027" lon="6.77456">
        <ele>3034.3999023</ele>
        <time>2013-07-27T10:32:56Z</time>
      </trkpt>
      <trkpt lat="45.49033" lon="6.77461">
        <ele>3035.8000488</ele>
        <time>2013-07-27T10:33:08Z</time>
      </trkpt>
      <trkpt lat="45.49038" lon="6.77465">
        <ele>3037.6000977</ele>
        <time>2013-07-27T10:33:21Z</time>
      </trkpt>
      <trkpt lat="45.49044" lon="6.77471">
        <ele>3039.3999023</ele>
        <time>2013-07-27T10:33:33Z</time>
      </trkpt>
      <trkpt lat="45.49049" lon="6.77478">
        <ele>3041.1999512</ele>
        <time>2013-07-27T10:33:44Z</time>
      </trkpt>
      <trkpt lat="45.49055" lon="6.77484">
        <ele>3043.6000977</ele>
        <time>2013-07-27T10:34:01Z</time>
      </trkpt>
      <trkpt lat="45.4906" lon="6.77491">
        <ele>3043.6000977</ele>
        <time>2013-07-27T10:34:14Z</time>
      </trkpt>
      <trkpt lat="45.49065" lon="6.77497">
        <ele>3044.3999023</ele>
        <time>2013-07-27T10:34:26Z</time>
      </trkpt>
      <trkpt lat="45.49069" lon="6.77505">
        <ele>3045</ele>
        <time>2013-07-27T10:34:37Z</time>
      </trkpt>
      <trkpt lat="45.49073" lon="6.77512">
        <ele>3046.8000488</ele>
        <time>2013-07-27T10:34:48Z</time>
      </trkpt>
      <trkpt lat="45.49078" lon="6.77519">
        <ele>3047.3999023</ele>
        <time>2013-07-27T10:35:01Z</time>
      </trkpt>
      <trkpt lat="45.49083" lon="6.77524">
        <ele>3047.8000488</ele>
        <time>2013-07-27T10:35:13Z</time>
      </trkpt>
      <trkpt lat="45.49088" lon="6.77533">
        <ele>3050</ele>
        <time>2013-07-27T10:35:25Z</time>
      </trkpt>
      <trkpt lat="45.49092" lon="6.77541">
        <ele>3052.1999512</ele>
        <time>2013-07-27T10:35:36Z</time>
      </trkpt>
      <trkpt lat="45.49096" lon="6.77548">
        <ele>3052.8000488</ele>
        <time>2013-07-27T10:35:48Z</time>
      </trkpt>
      <trkpt lat="45.491" lon="6.77557">
        <ele>3054</ele>
        <time>2013-07-27T10:36:03Z</time>
      </trkpt>
      <trkpt lat="45.49104" lon="6.77563">
        <ele>3057.1999512</ele>
        <time>2013-07-27T10:36:17Z</time>
      </trkpt>
      <trkpt lat="45.49109" lon="6.77571">
        <ele>3060.1999512</ele>
        <time>2013-07-27T10:36:29Z</time>
      </trkpt>
      <trkpt lat="45.49115" lon="6.77577">
        <ele>3061.8000488</ele>
        <time>2013-07-27T10:36:45Z</time>
      </trkpt>
      <trkpt lat="45.49122" lon="6.77578">
        <ele>3064</ele>
        <time>2013-07-27T10:36:57Z</time>
      </trkpt>
      <trkpt lat="45.49131" lon="6.77583">
        <ele>3063.3999023</ele>
        <time>2013-07-27T10:37:04Z</time>
      </trkpt>
      <trkpt lat="45.49139" lon="6.77582">
        <ele>3062.8000488</ele>
        <time>2013-07-27T10:37:12Z</time>
      </trkpt>
      <trkpt lat="45.49147" lon="6.7758">
        <ele>3063.1999512</ele>
        <time>2013-07-27T10:37:17Z</time>
      </trkpt>
      <trkpt lat="45.49157" lon="6.77577">
        <ele>3063</ele>
        <time>2013-07-27T10:37:22Z</time>
      </trkpt>
      <trkpt lat="45.49165" lon="6.77573">
        <ele>3062</ele>
        <time>2013-07-27T10:37:27Z</time>
      </trkpt>
      <trkpt lat="45.49175" lon="6.77571">
        <ele>3059.3999023</ele>
        <time>2013-07-27T10:37:34Z</time>
      </trkpt>
      <trkpt lat="45.4918" lon="6.77567">
        <ele>3058.1999512</ele>
        <time>2013-07-27T10:37:39Z</time>
      </trkpt>
      <trkpt lat="45.49188" lon="6.77562">
        <ele>3058.3999023</ele>
        <time>2013-07-27T10:37:45Z</time>
      </trkpt>
      <trkpt lat="45.49194" lon="6.77555">
        <ele>3058.6000977</ele>
        <time>2013-07-27T10:37:50Z</time>
      </trkpt>
      <trkpt lat="45.49197" lon="6.77545">
        <ele>3059</ele>
        <time>2013-07-27T10:37:55Z</time>
      </trkpt>
      <trkpt lat="45.49198" lon="6.77531">
        <ele>3059.3999023</ele>
        <time>2013-07-27T10:38:01Z</time>
      </trkpt>
      <trkpt lat="45.49198" lon="6.7752">
        <ele>3060.3999023</ele>
        <time>2013-07-27T10:38:06Z</time>
      </trkpt>
      <trkpt lat="45.49196" lon="6.7751">
        <ele>3060.1999512</ele>
        <time>2013-07-27T10:38:12Z</time>
      </trkpt>
      <trkpt lat="45.49199" lon="6.77501">
        <ele>3059</ele>
        <time>2013-07-27T10:38:17Z</time>
      </trkpt>
      <trkpt lat="45.49203" lon="6.77492">
        <ele>3060.6000977</ele>
        <time>2013-07-27T10:38:27Z</time>
      </trkpt>
      <trkpt lat="45.49206" lon="6.77482">
        <ele>3063</ele>
        <time>2013-07-27T10:38:36Z</time>
      </trkpt>
      <trkpt lat="45.49208" lon="6.77473">
        <ele>3062.8000488</ele>
        <time>2013-07-27T10:38:42Z</time>
      </trkpt>
      <trkpt lat="45.4921" lon="6.77461">
        <ele>3062.3999023</ele>
        <time>2013-07-27T10:38:50Z</time>
      </trkpt>
      <trkpt lat="45.49212" lon="6.77452">
        <ele>3062</ele>
        <time>2013-07-27T10:38:57Z</time>
      </trkpt>
      <trkpt lat="45.49213" lon="6.77437">
        <ele>3062</ele>
        <time>2013-07-27T10:39:07Z</time>
      </trkpt>
      <trkpt lat="45.49216" lon="6.77428">
        <ele>3061.6000977</ele>
        <time>2013-07-27T10:39:13Z</time>
      </trkpt>
      <trkpt lat="45.49218" lon="6.77418">
        <ele>3061.3999023</ele>
        <time>2013-07-27T10:39:19Z</time>
      </trkpt>
      <trkpt lat="45.49221" lon="6.77407">
        <ele>3061</ele>
        <time>2013-07-27T10:39:27Z</time>
      </trkpt>
      <trkpt lat="45.49225" lon="6.77399">
        <ele>3061.1999512</ele>
        <time>2013-07-27T10:39:34Z</time>
      </trkpt>
      <trkpt lat="45.49228" lon="6.77388">
        <ele>3062</ele>
        <time>2013-07-27T10:39:42Z</time>
      </trkpt>
      <trkpt lat="45.49231" lon="6.77377">
        <ele>3062.3999023</ele>
        <time>2013-07-27T10:39:51Z</time>
      </trkpt>
      <trkpt lat="45.49233" lon="6.77367">
        <ele>3061.6000977</ele>
        <time>2013-07-27T10:39:59Z</time>
      </trkpt>
      <trkpt lat="45.49233" lon="6.77358">
        <ele>3061.3999023</ele>
        <time>2013-07-27T10:40:07Z</time>
      </trkpt>
      <trkpt lat="45.49234" lon="6.7735">
        <ele>3060.6000977</ele>
        <time>2013-07-27T10:40:16Z</time>
      </trkpt>
      <trkpt lat="45.49236" lon="6.77341">
        <ele>3060.1999512</ele>
        <time>2013-07-27T10:40:24Z</time>
      </trkpt>
      <trkpt lat="45.49232" lon="6.77329">
        <ele>3064</ele>
        <time>2013-07-27T10:40:34Z</time>
      </trkpt>
      <trkpt lat="45.49229" lon="6.77319">
        <ele>3066</ele>
        <time>2013-07-27T10:40:43Z</time>
      </trkpt>
      <trkpt lat="45.49227" lon="6.77308">
        <ele>3067.6000977</ele>
        <time>2013-07-27T10:40:52Z</time>
      </trkpt>
      <trkpt lat="45.49227" lon="6.77297">
        <ele>3068.6000977</ele>
        <time>2013-07-27T10:41:01Z</time>
      </trkpt>
      <trkpt lat="45.49231" lon="6.77299">
        <ele>3065.6000977</ele>
        <time>2013-07-27T10:42:09Z</time>
      </trkpt>
      <trkpt lat="45.49237" lon="6.77293">
        <ele>3066.8000488</ele>
        <time>2013-07-27T10:42:14Z</time>
      </trkpt>
      <trkpt lat="45.49244" lon="6.77295">
        <ele>3067.6000977</ele>
        <time>2013-07-27T10:42:19Z</time>
      </trkpt>
      <trkpt lat="45.49249" lon="6.77303">
        <ele>3068.3999023</ele>
        <time>2013-07-27T10:42:25Z</time>
      </trkpt>
      <trkpt lat="45.49255" lon="6.77308">
        <ele>3069.3999023</ele>
        <time>2013-07-27T10:42:31Z</time>
      </trkpt>
      <trkpt lat="45.49263" lon="6.77315">
        <ele>3070.6000977</ele>
        <time>2013-07-27T10:42:38Z</time>
      </trkpt>
      <trkpt lat="45.49268" lon="6.77321">
        <ele>3071</ele>
        <time>2013-07-27T10:42:44Z</time>
      </trkpt>
      <trkpt lat="45.49276" lon="6.77324">
        <ele>3071</ele>
        <time>2013-07-27T10:42:51Z</time>
      </trkpt>
      <trkpt lat="45.49284" lon="6.77324">
        <ele>3071.1999512</ele>
        <time>2013-07-27T10:42:59Z</time>
      </trkpt>
      <trkpt lat="45.4929" lon="6.77327">
        <ele>3071.6000977</ele>
        <time>2013-07-27T10:43:06Z</time>
      </trkpt>
      <trkpt lat="45.49297" lon="6.77331">
        <ele>3067.1999512</ele>
        <time>2013-07-27T10:43:32Z</time>
      </trkpt>
      <trkpt lat="45.49305" lon="6.7733">
        <ele>3064</ele>
        <time>2013-07-27T10:43:40Z</time>
      </trkpt>
      <trkpt lat="45.49311" lon="6.77331">
        <ele>3063.8000488</ele>
        <time>2013-07-27T10:43:48Z</time>
      </trkpt>
      <trkpt lat="45.49318" lon="6.77334">
        <ele>3064.3999023</ele>
        <time>2013-07-27T10:43:53Z</time>
      </trkpt>
      <trkpt lat="45.49326" lon="6.77334">
        <ele>3064.6000977</ele>
        <time>2013-07-27T10:43:58Z</time>
      </trkpt>
      <trkpt lat="45.49338" lon="6.77334">
        <ele>3064.1999512</ele>
        <time>2013-07-27T10:44:04Z</time>
      </trkpt>
      <trkpt lat="45.49348" lon="6.77334">
        <ele>3062.3999023</ele>
        <time>2013-07-27T10:44:09Z</time>
      </trkpt>
      <trkpt lat="45.49356" lon="6.77333">
        <ele>3061</ele>
        <time>2013-07-27T10:44:13Z</time>
      </trkpt>
      <trkpt lat="45.49367" lon="6.77329">
        <ele>3059</ele>
        <time>2013-07-27T10:44:19Z</time>
      </trkpt>
      <trkpt lat="45.49377" lon="6.77324">
        <ele>3057</ele>
        <time>2013-07-27T10:44:25Z</time>
      </trkpt>
      <trkpt lat="45.49386" lon="6.77318">
        <ele>3055.1999512</ele>
        <time>2013-07-27T10:44:31Z</time>
      </trkpt>
      <trkpt lat="45.49394" lon="6.77312">
        <ele>3054.3999023</ele>
        <time>2013-07-27T10:44:36Z</time>
      </trkpt>
      <trkpt lat="45.49406" lon="6.77302">
        <ele>3054.1999512</ele>
        <time>2013-07-27T10:44:42Z</time>
      </trkpt>
      <trkpt lat="45.49413" lon="6.77299">
        <ele>3053</ele>
        <time>2013-07-27T10:44:46Z</time>
      </trkpt>
      <trkpt lat="45.49422" lon="6.77294">
        <ele>3052.3999023</ele>
        <time>2013-07-27T10:44:51Z</time>
      </trkpt>
      <trkpt lat="45.49431" lon="6.77288">
        <ele>3051</ele>
        <time>2013-07-27T10:44:57Z</time>
      </trkpt>
      <trkpt lat="45.49441" lon="6.77283">
        <ele>3048.1999512</ele>
        <time>2013-07-27T10:45:03Z</time>
      </trkpt>
      <trkpt lat="45.4945" lon="6.77279">
        <ele>3044.8000488</ele>
        <time>2013-07-27T10:45:08Z</time>
      </trkpt>
      <trkpt lat="45.49461" lon="6.77276">
        <ele>3042</ele>
        <time>2013-07-27T10:45:13Z</time>
      </trkpt>
      <trkpt lat="45.49471" lon="6.77272">
        <ele>3041</ele>
        <time>2013-07-27T10:45:18Z</time>
      </trkpt>
      <trkpt lat="45.49478" lon="6.77268">
        <ele>3040</ele>
        <time>2013-07-27T10:45:22Z</time>
      </trkpt>
      <trkpt lat="45.49488" lon="6.77259">
        <ele>3038.6000977</ele>
        <time>2013-07-27T10:45:28Z</time>
      </trkpt>
      <trkpt lat="45.495" lon="6.7725">
        <ele>3036.8000488</ele>
        <time>2013-07-27T10:45:34Z</time>
      </trkpt>
      <trkpt lat="45.49507" lon="6.77246">
        <ele>3035.6000977</ele>
        <time>2013-07-27T10:45:38Z</time>
      </trkpt>
      <trkpt lat="45.49515" lon="6.77242">
        <ele>3033.8000488</ele>
        <time>2013-07-27T10:45:42Z</time>
      </trkpt>
      <trkpt lat="45.49525" lon="6.77231">
        <ele>3031.3999023</ele>
        <time>2013-07-27T10:45:48Z</time>
      </trkpt>
      <trkpt lat="45.49531" lon="6.77221">
        <ele>3028.8000488</ele>
        <time>2013-07-27T10:45:52Z</time>
      </trkpt>
      <trkpt lat="45.49535" lon="6.77214">
        <ele>3027.6000977</ele>
        <time>2013-07-27T10:45:55Z</time>
      </trkpt>
      <trkpt lat="45.49541" lon="6.77208">
        <ele>3026.6000977</ele>
        <time>2013-07-27T10:45:58Z</time>
      </trkpt>
      <trkpt lat="45.49546" lon="6.77202">
        <ele>3025.6000977</ele>
        <time>2013-07-27T10:46:01Z</time>
      </trkpt>
      <trkpt lat="45.49556" lon="6.77193">
        <ele>3024</ele>
        <time>2013-07-27T10:46:06Z</time>
      </trkpt>
      <trkpt lat="45.49562" lon="6.77187">
        <ele>3023.3999023</ele>
        <time>2013-07-27T10:46:09Z</time>
      </trkpt>
      <trkpt lat="45.49569" lon="6.77181">
        <ele>3022</ele>
        <time>2013-07-27T10:46:13Z</time>
      </trkpt>
      <trkpt lat="45.49577" lon="6.77172">
        <ele>3019.3999023</ele>
        <time>2013-07-27T10:46:18Z</time>
      </trkpt>
      <trkpt lat="45.49582" lon="6.77164">
        <ele>3016.8000488</ele>
        <time>2013-07-27T10:46:22Z</time>
      </trkpt>
      <trkpt lat="45.49587" lon="6.77155">
        <ele>3015.3999023</ele>
        <time>2013-07-27T10:46:27Z</time>
      </trkpt>
      <trkpt lat="45.49593" lon="6.77145">
        <ele>3013.1999512</ele>
        <time>2013-07-27T10:46:33Z</time>
      </trkpt>
      <trkpt lat="45.49598" lon="6.77136">
        <ele>3011.6000977</ele>
        <time>2013-07-27T10:46:38Z</time>
      </trkpt>
      <trkpt lat="45.49605" lon="6.77129">
        <ele>3010.6000977</ele>
        <time>2013-07-27T10:46:43Z</time>
      </trkpt>
      <trkpt lat="45.49611" lon="6.77126">
        <ele>3009.8000488</ele>
        <time>2013-07-27T10:46:47Z</time>
      </trkpt>
      <trkpt lat="45.49619" lon="6.77119">
        <ele>3009</ele>
        <time>2013-07-27T10:46:52Z</time>
      </trkpt>
      <trkpt lat="45.49625" lon="6.77111">
        <ele>3008.8000488</ele>
        <time>2013-07-27T10:46:57Z</time>
      </trkpt>
      <trkpt lat="45.49631" lon="6.77103">
        <ele>3008.3999023</ele>
        <time>2013-07-27T10:47:02Z</time>
      </trkpt>
      <trkpt lat="45.49639" lon="6.771">
        <ele>3008.1999512</ele>
        <time>2013-07-27T10:47:07Z</time>
      </trkpt>
      <trkpt lat="45.49648" lon="6.77098">
        <ele>3008</ele>
        <time>2013-07-27T10:47:12Z</time>
      </trkpt>
      <trkpt lat="45.49654" lon="6.7709">
        <ele>3008.1999512</ele>
        <time>2013-07-27T10:47:17Z</time>
      </trkpt>
      <trkpt lat="45.4966" lon="6.77079">
        <ele>3008</ele>
        <time>2013-07-27T10:47:22Z</time>
      </trkpt>
      <trkpt lat="45.49665" lon="6.77067">
        <ele>3007.8000488</ele>
        <time>2013-07-27T10:47:27Z</time>
      </trkpt>
      <trkpt lat="45.49671" lon="6.77056">
        <ele>3007.1999512</ele>
        <time>2013-07-27T10:47:32Z</time>
      </trkpt>
      <trkpt lat="45.49677" lon="6.77045">
        <ele>3006.6000977</ele>
        <time>2013-07-27T10:47:37Z</time>
      </trkpt>
      <trkpt lat="45.49682" lon="6.77034">
        <ele>3005</ele>
        <time>2013-07-27T10:47:42Z</time>
      </trkpt>
      <trkpt lat="45.49686" lon="6.77023">
        <ele>3003</ele>
        <time>2013-07-27T10:47:47Z</time>
      </trkpt>
      <trkpt lat="45.49689" lon="6.77011">
        <ele>3001.3999023</ele>
        <time>2013-07-27T10:47:52Z</time>
      </trkpt>
      <trkpt lat="45.49695" lon="6.77">
        <ele>3001</ele>
        <time>2013-07-27T10:47:58Z</time>
      </trkpt>
      <trkpt lat="45.49695" lon="6.76991">
        <ele>2999.3999023</ele>
        <time>2013-07-27T10:48:05Z</time>
      </trkpt>
      <trkpt lat="45.49692" lon="6.76982">
        <ele>2995.6000977</ele>
        <time>2013-07-27T10:48:13Z</time>
      </trkpt>
      <trkpt lat="45.49686" lon="6.76979">
        <ele>2992</ele>
        <time>2013-07-27T10:48:18Z</time>
      </trkpt>
      <trkpt lat="45.49677" lon="6.76982">
        <ele>2988</ele>
        <time>2013-07-27T10:48:24Z</time>
      </trkpt>
      <trkpt lat="45.49672" lon="6.76995">
        <ele>2986.8000488</ele>
        <time>2013-07-27T10:48:30Z</time>
      </trkpt>
      <trkpt lat="45.49668" lon="6.77006">
        <ele>2985.3999023</ele>
        <time>2013-07-27T10:48:35Z</time>
      </trkpt>
      <trkpt lat="45.49662" lon="6.77016">
        <ele>2983.3999023</ele>
        <time>2013-07-27T10:48:40Z</time>
      </trkpt>
      <trkpt lat="45.49655" lon="6.77024">
        <ele>2981.3999023</ele>
        <time>2013-07-27T10:48:45Z</time>
      </trkpt>
      <trkpt lat="45.49647" lon="6.77031">
        <ele>2979.6000977</ele>
        <time>2013-07-27T10:48:50Z</time>
      </trkpt>
      <trkpt lat="45.49639" lon="6.77035">
        <ele>2978.1999512</ele>
        <time>2013-07-27T10:48:55Z</time>
      </trkpt>
      <trkpt lat="45.49631" lon="6.7704">
        <ele>2977.6000977</ele>
        <time>2013-07-27T10:49:00Z</time>
      </trkpt>
      <trkpt lat="45.49618" lon="6.77043">
        <ele>2978.3999023</ele>
        <time>2013-07-27T10:49:07Z</time>
      </trkpt>
      <trkpt lat="45.49599" lon="6.77052">
        <ele>2978.3999023</ele>
        <time>2013-07-27T10:49:17Z</time>
      </trkpt>
      <trkpt lat="45.4959" lon="6.77056">
        <ele>2978.6000977</ele>
        <time>2013-07-27T10:49:22Z</time>
      </trkpt>
      <trkpt lat="45.49581" lon="6.7706">
        <ele>2978</ele>
        <time>2013-07-27T10:49:27Z</time>
      </trkpt>
      <trkpt lat="45.49572" lon="6.77062">
        <ele>2976.3999023</ele>
        <time>2013-07-27T10:49:32Z</time>
      </trkpt>
      <trkpt lat="45.49565" lon="6.77064">
        <ele>2974.8000488</ele>
        <time>2013-07-27T10:49:37Z</time>
      </trkpt>
      <trkpt lat="45.49556" lon="6.77067">
        <ele>2973.3999023</ele>
        <time>2013-07-27T10:49:42Z</time>
      </trkpt>
      <trkpt lat="45.49548" lon="6.77072">
        <ele>2972</ele>
        <time>2013-07-27T10:49:47Z</time>
      </trkpt>
      <trkpt lat="45.4954" lon="6.77078">
        <ele>2970.1999512</ele>
        <time>2013-07-27T10:49:52Z</time>
      </trkpt>
      <trkpt lat="45.49532" lon="6.7708">
        <ele>2968.1999512</ele>
        <time>2013-07-27T10:49:57Z</time>
      </trkpt>
      <trkpt lat="45.49521" lon="6.77082">
        <ele>2967</ele>
        <time>2013-07-27T10:50:03Z</time>
      </trkpt>
      <trkpt lat="45.49511" lon="6.77082">
        <ele>2966.3999023</ele>
        <time>2013-07-27T10:50:08Z</time>
      </trkpt>
      <trkpt lat="45.49504" lon="6.77083">
        <ele>2966</ele>
        <time>2013-07-27T10:50:12Z</time>
      </trkpt>
      <trkpt lat="45.49496" lon="6.77084">
        <ele>2965.6000977</ele>
        <time>2013-07-27T10:50:17Z</time>
      </trkpt>
      <trkpt lat="45.49487" lon="6.77086">
        <ele>2964.6000977</ele>
        <time>2013-07-27T10:50:22Z</time>
      </trkpt>
      <trkpt lat="45.4948" lon="6.77089">
        <ele>2963.3999023</ele>
        <time>2013-07-27T10:50:27Z</time>
      </trkpt>
      <trkpt lat="45.49473" lon="6.77089">
        <ele>2962.6000977</ele>
        <time>2013-07-27T10:50:32Z</time>
      </trkpt>
      <trkpt lat="45.49463" lon="6.77092">
        <ele>2961.3999023</ele>
        <time>2013-07-27T10:50:38Z</time>
      </trkpt>
      <trkpt lat="45.49457" lon="6.77096">
        <ele>2960</ele>
        <time>2013-07-27T10:50:42Z</time>
      </trkpt>
      <trkpt lat="45.49448" lon="6.77101">
        <ele>2958.6000977</ele>
        <time>2013-07-27T10:50:47Z</time>
      </trkpt>
      <trkpt lat="45.49439" lon="6.77105">
        <ele>2956.6000977</ele>
        <time>2013-07-27T10:50:52Z</time>
      </trkpt>
      <trkpt lat="45.49431" lon="6.7711">
        <ele>2953.8000488</ele>
        <time>2013-07-27T10:50:57Z</time>
      </trkpt>
      <trkpt lat="45.49422" lon="6.77116">
        <ele>2951.3999023</ele>
        <time>2013-07-27T10:51:03Z</time>
      </trkpt>
      <trkpt lat="45.49416" lon="6.77121">
        <ele>2950.1999512</ele>
        <time>2013-07-27T10:51:07Z</time>
      </trkpt>
      <trkpt lat="45.49409" lon="6.7713">
        <ele>2949.1999512</ele>
        <time>2013-07-27T10:51:12Z</time>
      </trkpt>
      <trkpt lat="45.494" lon="6.77136">
        <ele>2947.8000488</ele>
        <time>2013-07-27T10:51:17Z</time>
      </trkpt>
      <trkpt lat="45.49393" lon="6.77146">
        <ele>2946.6000977</ele>
        <time>2013-07-27T10:51:23Z</time>
      </trkpt>
      <trkpt lat="45.49387" lon="6.77151">
        <ele>2946.8000488</ele>
        <time>2013-07-27T10:51:30Z</time>
      </trkpt>
      <trkpt lat="45.49376" lon="6.77157">
        <ele>2947.3999023</ele>
        <time>2013-07-27T10:51:38Z</time>
      </trkpt>
      <trkpt lat="45.49368" lon="6.7716">
        <ele>2946.6000977</ele>
        <time>2013-07-27T10:51:43Z</time>
      </trkpt>
      <trkpt lat="45.4936" lon="6.77163">
        <ele>2945.1999512</ele>
        <time>2013-07-27T10:51:49Z</time>
      </trkpt>
      <trkpt lat="45.4935" lon="6.77163">
        <ele>2943.8000488</ele>
        <time>2013-07-27T10:51:55Z</time>
      </trkpt>
      <trkpt lat="45.49339" lon="6.77163">
        <ele>2942.3999023</ele>
        <time>2013-07-27T10:52:01Z</time>
      </trkpt>
      <trkpt lat="45.49332" lon="6.77159">
        <ele>2940.8000488</ele>
        <time>2013-07-27T10:52:06Z</time>
      </trkpt>
      <trkpt lat="45.49325" lon="6.77157">
        <ele>2938.8000488</ele>
        <time>2013-07-27T10:52:11Z</time>
      </trkpt>
      <trkpt lat="45.49318" lon="6.77157">
        <ele>2937</ele>
        <time>2013-07-27T10:52:16Z</time>
      </trkpt>
      <trkpt lat="45.49312" lon="6.77152">
        <ele>2935</ele>
        <time>2013-07-27T10:52:29Z</time>
      </trkpt>
      <trkpt lat="45.49305" lon="6.77146">
        <ele>2932.1999512</ele>
        <time>2013-07-27T10:52:36Z</time>
      </trkpt>
      <trkpt lat="45.493" lon="6.77131">
        <ele>2930.3999023</ele>
        <time>2013-07-27T10:52:48Z</time>
      </trkpt>
      <trkpt lat="45.49306" lon="6.77124">
        <ele>2928.6000977</ele>
        <time>2013-07-27T10:52:53Z</time>
      </trkpt>
      <trkpt lat="45.49314" lon="6.77123">
        <ele>2925.1999512</ele>
        <time>2013-07-27T10:53:01Z</time>
      </trkpt>
      <trkpt lat="45.49322" lon="6.77123">
        <ele>2923.3999023</ele>
        <time>2013-07-27T10:53:09Z</time>
      </trkpt>
      <trkpt lat="45.49328" lon="6.77122">
        <ele>2921</ele>
        <time>2013-07-27T10:53:16Z</time>
      </trkpt>
      <trkpt lat="45.49334" lon="6.77117">
        <ele>2918.6000977</ele>
        <time>2013-07-27T10:53:22Z</time>
      </trkpt>
      <trkpt lat="45.49343" lon="6.77116">
        <ele>2913</ele>
        <time>2013-07-27T10:53:30Z</time>
      </trkpt>
      <trkpt lat="45.4935" lon="6.77109">
        <ele>2906.3999023</ele>
        <time>2013-07-27T10:53:38Z</time>
      </trkpt>
      <trkpt lat="45.49355" lon="6.77103">
        <ele>2900.8000488</ele>
        <time>2013-07-27T10:53:45Z</time>
      </trkpt>
      <trkpt lat="45.4936" lon="6.77094">
        <ele>2892.6000977</ele>
        <time>2013-07-27T10:53:55Z</time>
      </trkpt>
      <trkpt lat="45.49361" lon="6.77084">
        <ele>2888.3999023</ele>
        <time>2013-07-27T10:54:05Z</time>
      </trkpt>
      <trkpt lat="45.49364" lon="6.77076">
        <ele>2884.6000977</ele>
        <time>2013-07-27T10:54:11Z</time>
      </trkpt>
      <trkpt lat="45.4937" lon="6.77066">
        <ele>2876.6000977</ele>
        <time>2013-07-27T10:54:17Z</time>
      </trkpt>
      <trkpt lat="45.49376" lon="6.77059">
        <ele>2871.1999512</ele>
        <time>2013-07-27T10:54:22Z</time>
      </trkpt>
      <trkpt lat="45.49382" lon="6.77046">
        <ele>2865.3999023</ele>
        <time>2013-07-27T10:54:29Z</time>
      </trkpt>
      <trkpt lat="45.49388" lon="6.77034">
        <ele>2862.6000977</ele>
        <time>2013-07-27T10:54:35Z</time>
      </trkpt>
      <trkpt lat="45.49394" lon="6.77022">
        <ele>2859.6000977</ele>
        <time>2013-07-27T10:54:41Z</time>
      </trkpt>
      <trkpt lat="45.494" lon="6.77009">
        <ele>2856.8000488</ele>
        <time>2013-07-27T10:54:47Z</time>
      </trkpt>
      <trkpt lat="45.49404" lon="6.77">
        <ele>2854.1999512</ele>
        <time>2013-07-27T10:54:51Z</time>
      </trkpt>
      <trkpt lat="45.49409" lon="6.76989">
        <ele>2851.3999023</ele>
        <time>2013-07-27T10:54:56Z</time>
      </trkpt>
      <trkpt lat="45.49413" lon="6.76981">
        <ele>2850.6000977</ele>
        <time>2013-07-27T10:54:59Z</time>
      </trkpt>
      <trkpt lat="45.49418" lon="6.76974">
        <ele>2849.8000488</ele>
        <time>2013-07-27T10:55:02Z</time>
      </trkpt>
      <trkpt lat="45.49424" lon="6.7696">
        <ele>2849.1999512</ele>
        <time>2013-07-27T10:55:08Z</time>
      </trkpt>
      <trkpt lat="45.4943" lon="6.76948">
        <ele>2848.6000977</ele>
        <time>2013-07-27T10:55:13Z</time>
      </trkpt>
      <trkpt lat="45.49436" lon="6.76935">
        <ele>2848</ele>
        <time>2013-07-27T10:55:18Z</time>
      </trkpt>
      <trkpt lat="45.4944" lon="6.76927">
        <ele>2847.6000977</ele>
        <time>2013-07-27T10:55:21Z</time>
      </trkpt>
      <trkpt lat="45.49448" lon="6.76915">
        <ele>2847</ele>
        <time>2013-07-27T10:55:26Z</time>
      </trkpt>
      <trkpt lat="45.49452" lon="6.76907">
        <ele>2846.8000488</ele>
        <time>2013-07-27T10:55:29Z</time>
      </trkpt>
      <trkpt lat="45.49455" lon="6.769">
        <ele>2846.6000977</ele>
        <time>2013-07-27T10:55:32Z</time>
      </trkpt>
      <trkpt lat="45.49465" lon="6.7688">
        <ele>2846.1999512</ele>
        <time>2013-07-27T10:55:40Z</time>
      </trkpt>
      <trkpt lat="45.49472" lon="6.76868">
        <ele>2846</ele>
        <time>2013-07-27T10:55:45Z</time>
      </trkpt>
      <trkpt lat="45.49476" lon="6.76856">
        <ele>2845.8000488</ele>
        <time>2013-07-27T10:55:51Z</time>
      </trkpt>
      <trkpt lat="45.49471" lon="6.76842">
        <ele>2845.3999023</ele>
        <time>2013-07-27T10:55:57Z</time>
      </trkpt>
      <trkpt lat="45.49469" lon="6.76829">
        <ele>2845</ele>
        <time>2013-07-27T10:56:02Z</time>
      </trkpt>
      <trkpt lat="45.49466" lon="6.76818">
        <ele>2845</ele>
        <time>2013-07-27T10:56:07Z</time>
      </trkpt>
      <trkpt lat="45.49462" lon="6.76802">
        <ele>2844.8000488</ele>
        <time>2013-07-27T10:56:14Z</time>
      </trkpt>
      <trkpt lat="45.49458" lon="6.76793">
        <ele>2844.1999512</ele>
        <time>2013-07-27T10:56:19Z</time>
      </trkpt>
      <trkpt lat="45.49457" lon="6.76784">
        <ele>2844</ele>
        <time>2013-07-27T10:56:23Z</time>
      </trkpt>
      <trkpt lat="45.49456" lon="6.76772">
        <ele>2843.6000977</ele>
        <time>2013-07-27T10:56:28Z</time>
      </trkpt>
      <trkpt lat="45.49453" lon="6.76763">
        <ele>2842.8000488</ele>
        <time>2013-07-27T10:56:33Z</time>
      </trkpt>
      <trkpt lat="45.49448" lon="6.76753">
        <ele>2841.1999512</ele>
        <time>2013-07-27T10:56:38Z</time>
      </trkpt>
      <trkpt lat="45.49446" lon="6.76744">
        <ele>2840.1999512</ele>
        <time>2013-07-27T10:56:42Z</time>
      </trkpt>
      <trkpt lat="45.49442" lon="6.76736">
        <ele>2839.6000977</ele>
        <time>2013-07-27T10:56:46Z</time>
      </trkpt>
      <trkpt lat="45.49438" lon="6.76725">
        <ele>2839</ele>
        <time>2013-07-27T10:56:51Z</time>
      </trkpt>
      <trkpt lat="45.49437" lon="6.76715">
        <ele>2838.1999512</ele>
        <time>2013-07-27T10:56:55Z</time>
      </trkpt>
      <trkpt lat="45.49441" lon="6.76703">
        <ele>2836.8000488</ele>
        <time>2013-07-27T10:57:00Z</time>
      </trkpt>
      <trkpt lat="45.49441" lon="6.76691">
        <ele>2833.8000488</ele>
        <time>2013-07-27T10:57:05Z</time>
      </trkpt>
      <trkpt lat="45.49441" lon="6.76676">
        <ele>2830</ele>
        <time>2013-07-27T10:57:11Z</time>
      </trkpt>
      <trkpt lat="45.49436" lon="6.76663">
        <ele>2825.3999023</ele>
        <time>2013-07-27T10:57:18Z</time>
      </trkpt>
      <trkpt lat="45.4943" lon="6.76653">
        <ele>2824.1999512</ele>
        <time>2013-07-27T10:57:22Z</time>
      </trkpt>
      <trkpt lat="45.49427" lon="6.76645">
        <ele>2823.6000977</ele>
        <time>2013-07-27T10:57:25Z</time>
      </trkpt>
      <trkpt lat="45.49422" lon="6.76634">
        <ele>2821.1999512</ele>
        <time>2013-07-27T10:57:31Z</time>
      </trkpt>
      <trkpt lat="45.49415" lon="6.76623">
        <ele>2816.6000977</ele>
        <time>2013-07-27T10:57:39Z</time>
      </trkpt>
      <trkpt lat="45.49412" lon="6.76613">
        <ele>2815.3999023</ele>
        <time>2013-07-27T10:57:44Z</time>
      </trkpt>
      <trkpt lat="45.49408" lon="6.76598">
        <ele>2813.6000977</ele>
        <time>2013-07-27T10:57:51Z</time>
      </trkpt>
      <trkpt lat="45.49408" lon="6.76588">
        <ele>2810.6000977</ele>
        <time>2013-07-27T10:57:56Z</time>
      </trkpt>
      <trkpt lat="45.49404" lon="6.7658">
        <ele>2805.6000977</ele>
        <time>2013-07-27T10:58:02Z</time>
      </trkpt>
      <trkpt lat="45.49399" lon="6.76572">
        <ele>2798.3999023</ele>
        <time>2013-07-27T10:58:09Z</time>
      </trkpt>
      <trkpt lat="45.49394" lon="6.76567">
        <ele>2795</ele>
        <time>2013-07-27T10:58:17Z</time>
      </trkpt>
      <trkpt lat="45.49388" lon="6.76561">
        <ele>2791.8000488</ele>
        <time>2013-07-27T10:58:25Z</time>
      </trkpt>
      <trkpt lat="45.49382" lon="6.76554">
        <ele>2790</ele>
        <time>2013-07-27T10:58:31Z</time>
      </trkpt>
      <trkpt lat="45.49377" lon="6.76548">
        <ele>2789.1999512</ele>
        <time>2013-07-27T10:58:35Z</time>
      </trkpt>
      <trkpt lat="45.49373" lon="6.76541">
        <ele>2788.1999512</ele>
        <time>2013-07-27T10:58:38Z</time>
      </trkpt>
      <trkpt lat="45.49365" lon="6.7653">
        <ele>2786.1999512</ele>
        <time>2013-07-27T10:58:43Z</time>
      </trkpt>
      <trkpt lat="45.49359" lon="6.76522">
        <ele>2784</ele>
        <time>2013-07-27T10:58:48Z</time>
      </trkpt>
      <trkpt lat="45.49352" lon="6.76514">
        <ele>2782.3999023</ele>
        <time>2013-07-27T10:58:53Z</time>
      </trkpt>
      <trkpt lat="45.49343" lon="6.76511">
        <ele>2780.6000977</ele>
        <time>2013-07-27T10:58:59Z</time>
      </trkpt>
      <trkpt lat="45.49333" lon="6.76511">
        <ele>2779</ele>
        <time>2013-07-27T10:59:05Z</time>
      </trkpt>
      <trkpt lat="45.49327" lon="6.76507">
        <ele>2778.1999512</ele>
        <time>2013-07-27T10:59:09Z</time>
      </trkpt>
      <trkpt lat="45.49315" lon="6.76501">
        <ele>2778.3999023</ele>
        <time>2013-07-27T10:59:16Z</time>
      </trkpt>
      <trkpt lat="45.49308" lon="6.76499">
        <ele>2778.3999023</ele>
        <time>2013-07-27T10:59:20Z</time>
      </trkpt>
      <trkpt lat="45.49299" lon="6.76493">
        <ele>2777.6000977</ele>
        <time>2013-07-27T10:59:26Z</time>
      </trkpt>
      <trkpt lat="45.49292" lon="6.76491">
        <ele>2776.1999512</ele>
        <time>2013-07-27T10:59:31Z</time>
      </trkpt>
      <trkpt lat="45.49285" lon="6.76487">
        <ele>2775.6000977</ele>
        <time>2013-07-27T10:59:36Z</time>
      </trkpt>
      <trkpt lat="45.49271" lon="6.76471">
        <ele>2775.1999512</ele>
        <time>2013-07-27T10:59:47Z</time>
      </trkpt>
      <trkpt lat="45.49265" lon="6.76475">
        <ele>2775.6000977</ele>
        <time>2013-07-27T11:00:00Z</time>
      </trkpt>
      <trkpt lat="45.49258" lon="6.76468">
        <ele>2775.6000977</ele>
        <time>2013-07-27T11:00:05Z</time>
      </trkpt>
      <trkpt lat="45.49254" lon="6.76458">
        <ele>2774.6000977</ele>
        <time>2013-07-27T11:00:10Z</time>
      </trkpt>
      <trkpt lat="45.49248" lon="6.76452">
        <ele>2774.1999512</ele>
        <time>2013-07-27T11:00:14Z</time>
      </trkpt>
      <trkpt lat="45.49242" lon="6.76445">
        <ele>2773.3999023</ele>
        <time>2013-07-27T11:00:19Z</time>
      </trkpt>
      <trkpt lat="45.49237" lon="6.76435">
        <ele>2769.8000488</ele>
        <time>2013-07-27T11:00:26Z</time>
      </trkpt>
      <trkpt lat="45.49236" lon="6.76425">
        <ele>2766.1999512</ele>
        <time>2013-07-27T11:00:33Z</time>
      </trkpt>
      <trkpt lat="45.49232" lon="6.76414">
        <ele>2763.3999023</ele>
        <time>2013-07-27T11:00:38Z</time>
      </trkpt>
      <trkpt lat="45.49227" lon="6.76411">
        <ele>2760</ele>
        <time>2013-07-27T11:00:43Z</time>
      </trkpt>
      <trkpt lat="45.49224" lon="6.76403">
        <ele>2756.8000488</ele>
        <time>2013-07-27T11:00:49Z</time>
      </trkpt>
      <trkpt lat="45.49224" lon="6.76393">
        <ele>2753</ele>
        <time>2013-07-27T11:00:58Z</time>
      </trkpt>
      <trkpt lat="45.4922" lon="6.76382">
        <ele>2751</ele>
        <time>2013-07-27T11:01:05Z</time>
      </trkpt>
      <trkpt lat="45.49216" lon="6.7637">
        <ele>2749.8000488</ele>
        <time>2013-07-27T11:01:10Z</time>
      </trkpt>
      <trkpt lat="45.49213" lon="6.76358">
        <ele>2748.3999023</ele>
        <time>2013-07-27T11:01:15Z</time>
      </trkpt>
      <trkpt lat="45.4921" lon="6.76346">
        <ele>2747.1999512</ele>
        <time>2013-07-27T11:01:20Z</time>
      </trkpt>
      <trkpt lat="45.49209" lon="6.7633">
        <ele>2745</ele>
        <time>2013-07-27T11:01:26Z</time>
      </trkpt>
      <trkpt lat="45.49205" lon="6.76321">
        <ele>2742</ele>
        <time>2013-07-27T11:01:31Z</time>
      </trkpt>
      <trkpt lat="45.49201" lon="6.76312">
        <ele>2740.1999512</ele>
        <time>2013-07-27T11:01:36Z</time>
      </trkpt>
      <trkpt lat="45.49201" lon="6.76298">
        <ele>2739.3999023</ele>
        <time>2013-07-27T11:01:41Z</time>
      </trkpt>
      <trkpt lat="45.492" lon="6.76287">
        <ele>2738.3999023</ele>
        <time>2013-07-27T11:01:46Z</time>
      </trkpt>
      <trkpt lat="45.49197" lon="6.76277">
        <ele>2737</ele>
        <time>2013-07-27T11:01:52Z</time>
      </trkpt>
      <trkpt lat="45.492" lon="6.76266">
        <ele>2734.8000488</ele>
        <time>2013-07-27T11:01:58Z</time>
      </trkpt>
      <trkpt lat="45.49194" lon="6.76254">
        <ele>2730.3999023</ele>
        <time>2013-07-27T11:02:05Z</time>
      </trkpt>
      <trkpt lat="45.49189" lon="6.76248">
        <ele>2728.1999512</ele>
        <time>2013-07-27T11:02:09Z</time>
      </trkpt>
      <trkpt lat="45.49187" lon="6.76235">
        <ele>2725.6000977</ele>
        <time>2013-07-27T11:02:15Z</time>
      </trkpt>
      <trkpt lat="45.49184" lon="6.76225">
        <ele>2721.3999023</ele>
        <time>2013-07-27T11:02:22Z</time>
      </trkpt>
      <trkpt lat="45.49181" lon="6.76216">
        <ele>2718.6000977</ele>
        <time>2013-07-27T11:02:29Z</time>
      </trkpt>
      <trkpt lat="45.49179" lon="6.76212">
        <ele>2716.8000488</ele>
        <time>2013-07-27T11:02:35Z</time>
      </trkpt>
      <trkpt lat="45.49174" lon="6.76218">
        <ele>2715</ele>
        <time>2013-07-27T11:02:40Z</time>
      </trkpt>
      <trkpt lat="45.49172" lon="6.76209">
        <ele>2712</ele>
        <time>2013-07-27T11:02:48Z</time>
      </trkpt>
      <trkpt lat="45.49176" lon="6.76201">
        <ele>2708.1999512</ele>
        <time>2013-07-27T11:02:57Z</time>
      </trkpt>
      <trkpt lat="45.49177" lon="6.76193">
        <ele>2704</ele>
        <time>2013-07-27T11:03:09Z</time>
      </trkpt>
      <trkpt lat="45.49174" lon="6.76185">
        <ele>2701.6000977</ele>
        <time>2013-07-27T11:03:15Z</time>
      </trkpt>
      <trkpt lat="45.49175" lon="6.76176">
        <ele>2697.3999023</ele>
        <time>2013-07-27T11:03:23Z</time>
      </trkpt>
      <trkpt lat="45.49172" lon="6.76165">
        <ele>2694.3999023</ele>
        <time>2013-07-27T11:03:29Z</time>
      </trkpt>
      <trkpt lat="45.49175" lon="6.76156">
        <ele>2692.1999512</ele>
        <time>2013-07-27T11:03:34Z</time>
      </trkpt>
      <trkpt lat="45.49176" lon="6.76156">
        <ele>2690.1999512</ele>
        <time>2013-07-27T11:03:54Z</time>
      </trkpt>
      <trkpt lat="45.49178" lon="6.76146">
        <ele>2688.6000977</ele>
        <time>2013-07-27T11:04:00Z</time>
      </trkpt>
      <trkpt lat="45.49183" lon="6.76131">
        <ele>2686.6000977</ele>
        <time>2013-07-27T11:04:06Z</time>
      </trkpt>
      <trkpt lat="45.49186" lon="6.76121">
        <ele>2684.8000488</ele>
        <time>2013-07-27T11:04:11Z</time>
      </trkpt>
      <trkpt lat="45.49189" lon="6.76112">
        <ele>2682.3999023</ele>
        <time>2013-07-27T11:04:17Z</time>
      </trkpt>
      <trkpt lat="45.49187" lon="6.76101">
        <ele>2680.3999023</ele>
        <time>2013-07-27T11:04:23Z</time>
      </trkpt>
      <trkpt lat="45.4919" lon="6.76091">
        <ele>2679.3999023</ele>
        <time>2013-07-27T11:04:29Z</time>
      </trkpt>
      <trkpt lat="45.49194" lon="6.76078">
        <ele>2678</ele>
        <time>2013-07-27T11:04:36Z</time>
      </trkpt>
      <trkpt lat="45.49198" lon="6.76071">
        <ele>2676.6000977</ele>
        <time>2013-07-27T11:04:40Z</time>
      </trkpt>
      <trkpt lat="45.492" lon="6.7606">
        <ele>2673.8000488</ele>
        <time>2013-07-27T11:04:46Z</time>
      </trkpt>
      <trkpt lat="45.49202" lon="6.7605">
        <ele>2669</ele>
        <time>2013-07-27T11:04:51Z</time>
      </trkpt>
      <trkpt lat="45.49204" lon="6.7604">
        <ele>2663.1999512</ele>
        <time>2013-07-27T11:04:56Z</time>
      </trkpt>
      <trkpt lat="45.49204" lon="6.76027">
        <ele>2658.1999512</ele>
        <time>2013-07-27T11:05:02Z</time>
      </trkpt>
      <trkpt lat="45.49201" lon="6.76019">
        <ele>2653.3999023</ele>
        <time>2013-07-27T11:05:07Z</time>
      </trkpt>
      <trkpt lat="45.49199" lon="6.76008">
        <ele>2649.6000977</ele>
        <time>2013-07-27T11:05:12Z</time>
      </trkpt>
      <trkpt lat="45.49197" lon="6.75998">
        <ele>2646.6000977</ele>
        <time>2013-07-27T11:05:16Z</time>
      </trkpt>
      <trkpt lat="45.49195" lon="6.75989">
        <ele>2645.1999512</ele>
        <time>2013-07-27T11:05:19Z</time>
      </trkpt>
      <trkpt lat="45.49195" lon="6.7598">
        <ele>2644.1999512</ele>
        <time>2013-07-27T11:05:22Z</time>
      </trkpt>
      <trkpt lat="45.49193" lon="6.75966">
        <ele>2642</ele>
        <time>2013-07-27T11:05:27Z</time>
      </trkpt>
      <trkpt lat="45.49192" lon="6.75953">
        <ele>2639.8000488</ele>
        <time>2013-07-27T11:05:31Z</time>
      </trkpt>
      <trkpt lat="45.49187" lon="6.75938">
        <ele>2637.1999512</ele>
        <time>2013-07-27T11:05:37Z</time>
      </trkpt>
      <trkpt lat="45.49185" lon="6.75927">
        <ele>2635</ele>
        <time>2013-07-27T11:05:41Z</time>
      </trkpt>
      <trkpt lat="45.49182" lon="6.75914">
        <ele>2633.6000977</ele>
        <time>2013-07-27T11:05:46Z</time>
      </trkpt>
      <trkpt lat="45.49178" lon="6.75901">
        <ele>2631.8000488</ele>
        <time>2013-07-27T11:05:51Z</time>
      </trkpt>
      <trkpt lat="45.49174" lon="6.75887">
        <ele>2629.6000977</ele>
        <time>2013-07-27T11:05:56Z</time>
      </trkpt>
      <trkpt lat="45.49167" lon="6.75876">
        <ele>2627.6000977</ele>
        <time>2013-07-27T11:06:01Z</time>
      </trkpt>
      <trkpt lat="45.49165" lon="6.75864">
        <ele>2625.6000977</ele>
        <time>2013-07-27T11:06:05Z</time>
      </trkpt>
      <trkpt lat="45.49163" lon="6.75856">
        <ele>2625.1999512</ele>
        <time>2013-07-27T11:06:08Z</time>
      </trkpt>
      <trkpt lat="45.4916" lon="6.75841">
        <ele>2624</ele>
        <time>2013-07-27T11:06:13Z</time>
      </trkpt>
      <trkpt lat="45.49159" lon="6.75825">
        <ele>2623.1999512</ele>
        <time>2013-07-27T11:06:19Z</time>
      </trkpt>
      <trkpt lat="45.49162" lon="6.7581">
        <ele>2622.6000977</ele>
        <time>2013-07-27T11:06:24Z</time>
      </trkpt>
      <trkpt lat="45.49166" lon="6.75796">
        <ele>2622.6000977</ele>
        <time>2013-07-27T11:06:29Z</time>
      </trkpt>
      <trkpt lat="45.49172" lon="6.75784">
        <ele>2623.1999512</ele>
        <time>2013-07-27T11:06:35Z</time>
      </trkpt>
      <trkpt lat="45.49176" lon="6.75772">
        <ele>2624</ele>
        <time>2013-07-27T11:06:41Z</time>
      </trkpt>
      <trkpt lat="45.4918" lon="6.75757">
        <ele>2625</ele>
        <time>2013-07-27T11:06:47Z</time>
      </trkpt>
      <trkpt lat="45.49182" lon="6.75746">
        <ele>2625.3999023</ele>
        <time>2013-07-27T11:06:51Z</time>
      </trkpt>
      <trkpt lat="45.49185" lon="6.75738">
        <ele>2625.3999023</ele>
        <time>2013-07-27T11:06:54Z</time>
      </trkpt>
      <trkpt lat="45.49187" lon="6.75729">
        <ele>2625.1999512</ele>
        <time>2013-07-27T11:06:57Z</time>
      </trkpt>
      <trkpt lat="45.49192" lon="6.75692">
        <ele>2625</ele>
        <time>2013-07-27T11:07:10Z</time>
      </trkpt>
      <trkpt lat="45.49194" lon="6.75679">
        <ele>2624</ele>
        <time>2013-07-27T11:07:15Z</time>
      </trkpt>
      <trkpt lat="45.49195" lon="6.75665">
        <ele>2623</ele>
        <time>2013-07-27T11:07:20Z</time>
      </trkpt>
      <trkpt lat="45.49194" lon="6.75652">
        <ele>2621.1999512</ele>
        <time>2013-07-27T11:07:25Z</time>
      </trkpt>
      <trkpt lat="45.49192" lon="6.75643">
        <ele>2619</ele>
        <time>2013-07-27T11:07:29Z</time>
      </trkpt>
      <trkpt lat="45.4919" lon="6.7563">
        <ele>2616.8000488</ele>
        <time>2013-07-27T11:07:35Z</time>
      </trkpt>
      <trkpt lat="45.49188" lon="6.75619">
        <ele>2614.1999512</ele>
        <time>2013-07-27T11:07:41Z</time>
      </trkpt>
      <trkpt lat="45.49186" lon="6.75608">
        <ele>2612.3999023</ele>
        <time>2013-07-27T11:07:46Z</time>
      </trkpt>
      <trkpt lat="45.49186" lon="6.75593">
        <ele>2610.3999023</ele>
        <time>2013-07-27T11:07:52Z</time>
      </trkpt>
      <trkpt lat="45.49184" lon="6.75582">
        <ele>2608.3999023</ele>
        <time>2013-07-27T11:07:57Z</time>
      </trkpt>
      <trkpt lat="45.49181" lon="6.75568">
        <ele>2606.3999023</ele>
        <time>2013-07-27T11:08:03Z</time>
      </trkpt>
      <trkpt lat="45.49176" lon="6.75557">
        <ele>2604.3999023</ele>
        <time>2013-07-27T11:08:08Z</time>
      </trkpt>
      <trkpt lat="45.49175" lon="6.75545">
        <ele>2602</ele>
        <time>2013-07-27T11:08:13Z</time>
      </trkpt>
      <trkpt lat="45.4917" lon="6.75536">
        <ele>2599.3999023</ele>
        <time>2013-07-27T11:08:18Z</time>
      </trkpt>
      <trkpt lat="45.49169" lon="6.75521">
        <ele>2596</ele>
        <time>2013-07-27T11:08:23Z</time>
      </trkpt>
      <trkpt lat="45.49171" lon="6.75505">
        <ele>2593.6000977</ele>
        <time>2013-07-27T11:08:28Z</time>
      </trkpt>
      <trkpt lat="45.49171" lon="6.75495">
        <ele>2592.6000977</ele>
        <time>2013-07-27T11:08:31Z</time>
      </trkpt>
      <trkpt lat="45.4917" lon="6.75479">
        <ele>2590.6000977</ele>
        <time>2013-07-27T11:08:36Z</time>
      </trkpt>
      <trkpt lat="45.49168" lon="6.75467">
        <ele>2588.6000977</ele>
        <time>2013-07-27T11:08:40Z</time>
      </trkpt>
      <trkpt lat="45.49166" lon="6.75458">
        <ele>2587.6000977</ele>
        <time>2013-07-27T11:08:43Z</time>
      </trkpt>
      <trkpt lat="45.49163" lon="6.75444">
        <ele>2585.8000488</ele>
        <time>2013-07-27T11:08:48Z</time>
      </trkpt>
      <trkpt lat="45.49159" lon="6.75431">
        <ele>2583.3999023</ele>
        <time>2013-07-27T11:08:53Z</time>
      </trkpt>
      <trkpt lat="45.49155" lon="6.75414">
        <ele>2581</ele>
        <time>2013-07-27T11:08:59Z</time>
      </trkpt>
      <trkpt lat="45.49151" lon="6.75399">
        <ele>2578.3999023</ele>
        <time>2013-07-27T11:09:05Z</time>
      </trkpt>
      <trkpt lat="45.4915" lon="6.75387">
        <ele>2576</ele>
        <time>2013-07-27T11:09:09Z</time>
      </trkpt>
      <trkpt lat="45.49149" lon="6.75375">
        <ele>2574</ele>
        <time>2013-07-27T11:09:13Z</time>
      </trkpt>
      <trkpt lat="45.49149" lon="6.75361">
        <ele>2572.6000977</ele>
        <time>2013-07-27T11:09:18Z</time>
      </trkpt>
      <trkpt lat="45.49147" lon="6.75351">
        <ele>2571</ele>
        <time>2013-07-27T11:09:22Z</time>
      </trkpt>
      <trkpt lat="45.49145" lon="6.75337">
        <ele>2569</ele>
        <time>2013-07-27T11:09:27Z</time>
      </trkpt>
      <trkpt lat="45.49145" lon="6.75327">
        <ele>2568.1999512</ele>
        <time>2013-07-27T11:09:30Z</time>
      </trkpt>
      <trkpt lat="45.49144" lon="6.75315">
        <ele>2567.6000977</ele>
        <time>2013-07-27T11:09:34Z</time>
      </trkpt>
      <trkpt lat="45.49146" lon="6.75303">
        <ele>2567.3999023</ele>
        <time>2013-07-27T11:09:38Z</time>
      </trkpt>
      <trkpt lat="45.49145" lon="6.75291">
        <ele>2566.6000977</ele>
        <time>2013-07-27T11:09:43Z</time>
      </trkpt>
      <trkpt lat="45.49144" lon="6.75279">
        <ele>2565.1999512</ele>
        <time>2013-07-27T11:09:48Z</time>
      </trkpt>
      <trkpt lat="45.49145" lon="6.75266">
        <ele>2564.1999512</ele>
        <time>2013-07-27T11:09:53Z</time>
      </trkpt>
      <trkpt lat="45.49146" lon="6.75241">
        <ele>2563.6000977</ele>
        <time>2013-07-27T11:10:02Z</time>
      </trkpt>
      <trkpt lat="45.49148" lon="6.7523">
        <ele>2562.8000488</ele>
        <time>2013-07-27T11:10:06Z</time>
      </trkpt>
      <trkpt lat="45.49151" lon="6.75217">
        <ele>2561.1999512</ele>
        <time>2013-07-27T11:10:11Z</time>
      </trkpt>
      <trkpt lat="45.49152" lon="6.75203">
        <ele>2559.8000488</ele>
        <time>2013-07-27T11:10:16Z</time>
      </trkpt>
      <trkpt lat="45.49154" lon="6.7519">
        <ele>2558</ele>
        <time>2013-07-27T11:10:21Z</time>
      </trkpt>
      <trkpt lat="45.49157" lon="6.75176">
        <ele>2556.1999512</ele>
        <time>2013-07-27T11:10:27Z</time>
      </trkpt>
      <trkpt lat="45.4916" lon="6.75164">
        <ele>2554.8000488</ele>
        <time>2013-07-27T11:10:32Z</time>
      </trkpt>
      <trkpt lat="45.49161" lon="6.75148">
        <ele>2553.6000977</ele>
        <time>2013-07-27T11:10:38Z</time>
      </trkpt>
      <trkpt lat="45.49161" lon="6.75135">
        <ele>2552.3999023</ele>
        <time>2013-07-27T11:10:43Z</time>
      </trkpt>
      <trkpt lat="45.4916" lon="6.7512">
        <ele>2550.6000977</ele>
        <time>2013-07-27T11:10:48Z</time>
      </trkpt>
      <trkpt lat="45.4916" lon="6.75106">
        <ele>2548.3999023</ele>
        <time>2013-07-27T11:10:53Z</time>
      </trkpt>
      <trkpt lat="45.4916" lon="6.75094">
        <ele>2546</ele>
        <time>2013-07-27T11:10:57Z</time>
      </trkpt>
      <trkpt lat="45.49159" lon="6.75084">
        <ele>2543.3999023</ele>
        <time>2013-07-27T11:11:01Z</time>
      </trkpt>
      <trkpt lat="45.49158" lon="6.7507">
        <ele>2541.1999512</ele>
        <time>2013-07-27T11:11:06Z</time>
      </trkpt>
      <trkpt lat="45.49155" lon="6.7506">
        <ele>2539</ele>
        <time>2013-07-27T11:11:10Z</time>
      </trkpt>
      <trkpt lat="45.49156" lon="6.75046">
        <ele>2536.8000488</ele>
        <time>2013-07-27T11:11:16Z</time>
      </trkpt>
      <trkpt lat="45.49158" lon="6.75034">
        <ele>2535</ele>
        <time>2013-07-27T11:11:21Z</time>
      </trkpt>
      <trkpt lat="45.49157" lon="6.75024">
        <ele>2532.8000488</ele>
        <time>2013-07-27T11:11:25Z</time>
      </trkpt>
      <trkpt lat="45.49157" lon="6.75013">
        <ele>2530.6000977</ele>
        <time>2013-07-27T11:11:30Z</time>
      </trkpt>
      <trkpt lat="45.49152" lon="6.75001">
        <ele>2528.6000977</ele>
        <time>2013-07-27T11:11:36Z</time>
      </trkpt>
      <trkpt lat="45.49149" lon="6.74989">
        <ele>2526.1999512</ele>
        <time>2013-07-27T11:11:41Z</time>
      </trkpt>
      <trkpt lat="45.49142" lon="6.74979">
        <ele>2523.3999023</ele>
        <time>2013-07-27T11:11:46Z</time>
      </trkpt>
      <trkpt lat="45.49132" lon="6.74971">
        <ele>2521.1999512</ele>
        <time>2013-07-27T11:11:52Z</time>
      </trkpt>
      <trkpt lat="45.49125" lon="6.74962">
        <ele>2519.3999023</ele>
        <time>2013-07-27T11:11:57Z</time>
      </trkpt>
      <trkpt lat="45.4912" lon="6.74951">
        <ele>2517.6000977</ele>
        <time>2013-07-27T11:12:02Z</time>
      </trkpt>
      <trkpt lat="45.49116" lon="6.74937">
        <ele>2515.3999023</ele>
        <time>2013-07-27T11:12:07Z</time>
      </trkpt>
      <trkpt lat="45.49114" lon="6.74929">
        <ele>2514.1999512</ele>
        <time>2013-07-27T11:12:10Z</time>
      </trkpt>
      <trkpt lat="45.49112" lon="6.74916">
        <ele>2513.1999512</ele>
        <time>2013-07-27T11:12:14Z</time>
      </trkpt>
      <trkpt lat="45.4911" lon="6.74907">
        <ele>2513</ele>
        <time>2013-07-27T11:12:17Z</time>
      </trkpt>
      <trkpt lat="45.49106" lon="6.74893">
        <ele>2511.3999023</ele>
        <time>2013-07-27T11:12:22Z</time>
      </trkpt>
      <trkpt lat="45.49105" lon="6.74884">
        <ele>2510.3999023</ele>
        <time>2013-07-27T11:12:25Z</time>
      </trkpt>
      <trkpt lat="45.49104" lon="6.74875">
        <ele>2509.3999023</ele>
        <time>2013-07-27T11:12:28Z</time>
      </trkpt>
      <trkpt lat="45.49105" lon="6.74857">
        <ele>2508.6000977</ele>
        <time>2013-07-27T11:12:34Z</time>
      </trkpt>
      <trkpt lat="45.49107" lon="6.74847">
        <ele>2509</ele>
        <time>2013-07-27T11:12:38Z</time>
      </trkpt>
      <trkpt lat="45.49109" lon="6.74832">
        <ele>2509.6000977</ele>
        <time>2013-07-27T11:12:44Z</time>
      </trkpt>
      <trkpt lat="45.49113" lon="6.74815">
        <ele>2509</ele>
        <time>2013-07-27T11:12:51Z</time>
      </trkpt>
      <trkpt lat="45.49115" lon="6.74803">
        <ele>2506.8000488</ele>
        <time>2013-07-27T11:12:56Z</time>
      </trkpt>
      <trkpt lat="45.4912" lon="6.74789">
        <ele>2504.6000977</ele>
        <time>2013-07-27T11:13:02Z</time>
      </trkpt>
      <trkpt lat="45.49121" lon="6.74774">
        <ele>2503</ele>
        <time>2013-07-27T11:13:08Z</time>
      </trkpt>
      <trkpt lat="45.4912" lon="6.7476">
        <ele>2503.6000977</ele>
        <time>2013-07-27T11:13:14Z</time>
      </trkpt>
      <trkpt lat="45.49118" lon="6.74749">
        <ele>2504.6000977</ele>
        <time>2013-07-27T11:13:19Z</time>
      </trkpt>
      <trkpt lat="45.49121" lon="6.74732">
        <ele>2504.3999023</ele>
        <time>2013-07-27T11:13:25Z</time>
      </trkpt>
      <trkpt lat="45.49126" lon="6.74717">
        <ele>2503.3999023</ele>
        <time>2013-07-27T11:13:30Z</time>
      </trkpt>
      <trkpt lat="45.49129" lon="6.74708">
        <ele>2502.3999023</ele>
        <time>2013-07-27T11:13:33Z</time>
      </trkpt>
      <trkpt lat="45.49133" lon="6.74697">
        <ele>2501</ele>
        <time>2013-07-27T11:13:37Z</time>
      </trkpt>
      <trkpt lat="45.49142" lon="6.74677">
        <ele>2501</ele>
        <time>2013-07-27T11:13:45Z</time>
      </trkpt>
      <trkpt lat="45.49149" lon="6.7467">
        <ele>2500.8000488</ele>
        <time>2013-07-27T11:13:51Z</time>
      </trkpt>
      <trkpt lat="45.4915" lon="6.74672">
        <ele>2498.1999512</ele>
        <time>2013-07-27T11:15:13Z</time>
      </trkpt>
      <trkpt lat="45.49151" lon="6.74664">
        <ele>2496.6000977</ele>
        <time>2013-07-27T11:16:37Z</time>
      </trkpt>
      <trkpt lat="45.49155" lon="6.7466">
        <ele>2494.6000977</ele>
        <time>2013-07-27T11:16:58Z</time>
      </trkpt>
      <trkpt lat="45.49155" lon="6.74655">
        <ele>2494.1999512</ele>
        <time>2013-07-27T11:17:33Z</time>
      </trkpt>
      <trkpt lat="45.49158" lon="6.7465">
        <ele>2494.3999023</ele>
        <time>2013-07-27T11:19:49Z</time>
      </trkpt>
      <trkpt lat="45.49164" lon="6.74642">
        <ele>2493.8000488</ele>
        <time>2013-07-27T11:19:56Z</time>
      </trkpt>
      <trkpt lat="45.4917" lon="6.74636">
        <ele>2494.1999512</ele>
        <time>2013-07-27T11:20:01Z</time>
      </trkpt>
      <trkpt lat="45.49178" lon="6.74628">
        <ele>2493.8000488</ele>
        <time>2013-07-27T11:20:05Z</time>
      </trkpt>
      <trkpt lat="45.49182" lon="6.74621">
        <ele>2493</ele>
        <time>2013-07-27T11:20:08Z</time>
      </trkpt>
      <trkpt lat="45.49187" lon="6.74611">
        <ele>2491</ele>
        <time>2013-07-27T11:20:12Z</time>
      </trkpt>
      <trkpt lat="45.49191" lon="6.746">
        <ele>2487.3999023</ele>
        <time>2013-07-27T11:20:17Z</time>
      </trkpt>
      <trkpt lat="45.49196" lon="6.74588">
        <ele>2481.3999023</ele>
        <time>2013-07-27T11:20:25Z</time>
      </trkpt>
      <trkpt lat="45.49201" lon="6.74578">
        <ele>2478.3999023</ele>
        <time>2013-07-27T11:20:31Z</time>
      </trkpt>
      <trkpt lat="45.49206" lon="6.7457">
        <ele>2476.3999023</ele>
        <time>2013-07-27T11:20:36Z</time>
      </trkpt>
      <trkpt lat="45.49212" lon="6.74559">
        <ele>2475.1999512</ele>
        <time>2013-07-27T11:20:42Z</time>
      </trkpt>
      <trkpt lat="45.49216" lon="6.74548">
        <ele>2473.8000488</ele>
        <time>2013-07-27T11:20:47Z</time>
      </trkpt>
      <trkpt lat="45.4922" lon="6.74538">
        <ele>2472</ele>
        <time>2013-07-27T11:20:52Z</time>
      </trkpt>
      <trkpt lat="45.49228" lon="6.74528">
        <ele>2470</ele>
        <time>2013-07-27T11:20:58Z</time>
      </trkpt>
      <trkpt lat="45.49235" lon="6.74521">
        <ele>2468.8000488</ele>
        <time>2013-07-27T11:21:03Z</time>
      </trkpt>
      <trkpt lat="45.4924" lon="6.74514">
        <ele>2468</ele>
        <time>2013-07-27T11:21:07Z</time>
      </trkpt>
      <trkpt lat="45.49247" lon="6.74507">
        <ele>2466</ele>
        <time>2013-07-27T11:21:12Z</time>
      </trkpt>
      <trkpt lat="45.49251" lon="6.74501">
        <ele>2463.1999512</ele>
        <time>2013-07-27T11:21:16Z</time>
      </trkpt>
      <trkpt lat="45.49258" lon="6.74494">
        <ele>2460.1999512</ele>
        <time>2013-07-27T11:21:21Z</time>
      </trkpt>
      <trkpt lat="45.49265" lon="6.74487">
        <ele>2457.6000977</ele>
        <time>2013-07-27T11:21:26Z</time>
      </trkpt>
      <trkpt lat="45.49274" lon="6.74479">
        <ele>2455.1999512</ele>
        <time>2013-07-27T11:21:32Z</time>
      </trkpt>
      <trkpt lat="45.49282" lon="6.74472">
        <ele>2452</ele>
        <time>2013-07-27T11:21:37Z</time>
      </trkpt>
      <trkpt lat="45.49289" lon="6.74463">
        <ele>2448.6000977</ele>
        <time>2013-07-27T11:21:42Z</time>
      </trkpt>
      <trkpt lat="45.49295" lon="6.74456">
        <ele>2446.1999512</ele>
        <time>2013-07-27T11:21:46Z</time>
      </trkpt>
      <trkpt lat="45.493" lon="6.7445">
        <ele>2445.1999512</ele>
        <time>2013-07-27T11:21:49Z</time>
      </trkpt>
      <trkpt lat="45.49309" lon="6.74438">
        <ele>2442.1999512</ele>
        <time>2013-07-27T11:21:55Z</time>
      </trkpt>
      <trkpt lat="45.49315" lon="6.74428">
        <ele>2438.8000488</ele>
        <time>2013-07-27T11:22:00Z</time>
      </trkpt>
      <trkpt lat="45.49321" lon="6.74415">
        <ele>2434.8000488</ele>
        <time>2013-07-27T11:22:06Z</time>
      </trkpt>
      <trkpt lat="45.49328" lon="6.74406">
        <ele>2430</ele>
        <time>2013-07-27T11:22:11Z</time>
      </trkpt>
      <trkpt lat="45.49335" lon="6.74398">
        <ele>2425.8000488</ele>
        <time>2013-07-27T11:22:16Z</time>
      </trkpt>
      <trkpt lat="45.49343" lon="6.74393">
        <ele>2423</ele>
        <time>2013-07-27T11:22:21Z</time>
      </trkpt>
      <trkpt lat="45.49352" lon="6.74385">
        <ele>2419.1999512</ele>
        <time>2013-07-27T11:22:27Z</time>
      </trkpt>
      <trkpt lat="45.49361" lon="6.74377">
        <ele>2415.3999023</ele>
        <time>2013-07-27T11:22:32Z</time>
      </trkpt>
      <trkpt lat="45.49369" lon="6.74368">
        <ele>2413.1999512</ele>
        <time>2013-07-27T11:22:37Z</time>
      </trkpt>
      <trkpt lat="45.49374" lon="6.7436">
        <ele>2410.6000977</ele>
        <time>2013-07-27T11:22:41Z</time>
      </trkpt>
      <trkpt lat="45.49382" lon="6.74348">
        <ele>2406.6000977</ele>
        <time>2013-07-27T11:22:47Z</time>
      </trkpt>
      <trkpt lat="45.4939" lon="6.74338">
        <ele>2402.6000977</ele>
        <time>2013-07-27T11:22:52Z</time>
      </trkpt>
      <trkpt lat="45.49395" lon="6.74329">
        <ele>2398.6000977</ele>
        <time>2013-07-27T11:22:57Z</time>
      </trkpt>
      <trkpt lat="45.49403" lon="6.74321">
        <ele>2394.8000488</ele>
        <time>2013-07-27T11:23:02Z</time>
      </trkpt>
      <trkpt lat="45.4941" lon="6.74315">
        <ele>2391.8000488</ele>
        <time>2013-07-27T11:23:06Z</time>
      </trkpt>
      <trkpt lat="45.49416" lon="6.74313">
        <ele>2390.3999023</ele>
        <time>2013-07-27T11:23:09Z</time>
      </trkpt>
      <trkpt lat="45.49424" lon="6.7431">
        <ele>2387.6000977</ele>
        <time>2013-07-27T11:23:13Z</time>
      </trkpt>
      <trkpt lat="45.49433" lon="6.74305">
        <ele>2385.1999512</ele>
        <time>2013-07-27T11:23:18Z</time>
      </trkpt>
      <trkpt lat="45.49444" lon="6.74299">
        <ele>2382.8000488</ele>
        <time>2013-07-27T11:23:24Z</time>
      </trkpt>
      <trkpt lat="45.49451" lon="6.74291">
        <ele>2379</ele>
        <time>2013-07-27T11:23:29Z</time>
      </trkpt>
      <trkpt lat="45.49457" lon="6.74283">
        <ele>2374.6000977</ele>
        <time>2013-07-27T11:23:34Z</time>
      </trkpt>
      <trkpt lat="45.49464" lon="6.74277">
        <ele>2371.1999512</ele>
        <time>2013-07-27T11:23:38Z</time>
      </trkpt>
      <trkpt lat="45.49472" lon="6.74275">
        <ele>2367</ele>
        <time>2013-07-27T11:23:43Z</time>
      </trkpt>
      <trkpt lat="45.4948" lon="6.74276">
        <ele>2364.1999512</ele>
        <time>2013-07-27T11:23:47Z</time>
      </trkpt>
      <trkpt lat="45.49489" lon="6.7427">
        <ele>2362.1999512</ele>
        <time>2013-07-27T11:23:53Z</time>
      </trkpt>
      <trkpt lat="45.49493" lon="6.74262">
        <ele>2363</ele>
        <time>2013-07-27T11:23:59Z</time>
      </trkpt>
      <trkpt lat="45.495" lon="6.74259">
        <ele>2363</ele>
        <time>2013-07-27T11:24:03Z</time>
      </trkpt>
      <trkpt lat="45.49509" lon="6.74254">
        <ele>2360.6000977</ele>
        <time>2013-07-27T11:24:08Z</time>
      </trkpt>
      <trkpt lat="45.49511" lon="6.74245">
        <ele>2360.6000977</ele>
        <time>2013-07-27T11:24:13Z</time>
      </trkpt>
      <trkpt lat="45.49511" lon="6.74235">
        <ele>2363.3999023</ele>
        <time>2013-07-27T11:24:19Z</time>
      </trkpt>
      <trkpt lat="45.4952" lon="6.7423">
        <ele>2365.1999512</ele>
        <time>2013-07-27T11:24:24Z</time>
      </trkpt>
      <trkpt lat="45.49524" lon="6.74217">
        <ele>2363</ele>
        <time>2013-07-27T11:24:32Z</time>
      </trkpt>
      <trkpt lat="45.49527" lon="6.74206">
        <ele>2361.1999512</ele>
        <time>2013-07-27T11:24:38Z</time>
      </trkpt>
      <trkpt lat="45.49529" lon="6.74194">
        <ele>2357.1999512</ele>
        <time>2013-07-27T11:24:45Z</time>
      </trkpt>
      <trkpt lat="45.49535" lon="6.74186">
        <ele>2353.3999023</ele>
        <time>2013-07-27T11:24:51Z</time>
      </trkpt>
      <trkpt lat="45.49541" lon="6.74178">
        <ele>2351.1999512</ele>
        <time>2013-07-27T11:24:56Z</time>
      </trkpt>
      <trkpt lat="45.49546" lon="6.74172">
        <ele>2350.3999023</ele>
        <time>2013-07-27T11:24:59Z</time>
      </trkpt>
      <trkpt lat="45.49553" lon="6.74171">
        <ele>2348.8000488</ele>
        <time>2013-07-27T11:25:02Z</time>
      </trkpt>
      <trkpt lat="45.49563" lon="6.74172">
        <ele>2344.3999023</ele>
        <time>2013-07-27T11:25:07Z</time>
      </trkpt>
      <trkpt lat="45.49574" lon="6.7417">
        <ele>2339</ele>
        <time>2013-07-27T11:25:12Z</time>
      </trkpt>
      <trkpt lat="45.49581" lon="6.74164">
        <ele>2335</ele>
        <time>2013-07-27T11:25:16Z</time>
      </trkpt>
      <trkpt lat="45.49588" lon="6.74163">
        <ele>2333.3999023</ele>
        <time>2013-07-27T11:25:19Z</time>
      </trkpt>
      <trkpt lat="45.49594" lon="6.74161">
        <ele>2331.8000488</ele>
        <time>2013-07-27T11:25:22Z</time>
      </trkpt>
      <trkpt lat="45.49604" lon="6.74158">
        <ele>2328</ele>
        <time>2013-07-27T11:25:27Z</time>
      </trkpt>
      <trkpt lat="45.49612" lon="6.74153">
        <ele>2323.6000977</ele>
        <time>2013-07-27T11:25:32Z</time>
      </trkpt>
      <trkpt lat="45.49622" lon="6.74147">
        <ele>2318.8000488</ele>
        <time>2013-07-27T11:25:37Z</time>
      </trkpt>
      <trkpt lat="45.49628" lon="6.74147">
        <ele>2317.1999512</ele>
        <time>2013-07-27T11:25:40Z</time>
      </trkpt>
      <trkpt lat="45.49636" lon="6.74146">
        <ele>2314.8000488</ele>
        <time>2013-07-27T11:25:44Z</time>
      </trkpt>
      <trkpt lat="45.49645" lon="6.74142">
        <ele>2313.3999023</ele>
        <time>2013-07-27T11:25:48Z</time>
      </trkpt>
      <trkpt lat="45.49652" lon="6.7414">
        <ele>2312.6000977</ele>
        <time>2013-07-27T11:25:51Z</time>
      </trkpt>
      <trkpt lat="45.49664" lon="6.74136">
        <ele>2311.1999512</ele>
        <time>2013-07-27T11:25:56Z</time>
      </trkpt>
      <trkpt lat="45.49674" lon="6.74134">
        <ele>2310.3999023</ele>
        <time>2013-07-27T11:26:00Z</time>
      </trkpt>
      <trkpt lat="45.49687" lon="6.74132">
        <ele>2309.8000488</ele>
        <time>2013-07-27T11:26:05Z</time>
      </trkpt>
      <trkpt lat="45.49694" lon="6.74132">
        <ele>2309.6000977</ele>
        <time>2013-07-27T11:26:08Z</time>
      </trkpt>
      <trkpt lat="45.49701" lon="6.74131">
        <ele>2309</ele>
        <time>2013-07-27T11:26:11Z</time>
      </trkpt>
      <trkpt lat="45.49708" lon="6.74134">
        <ele>2308.1999512</ele>
        <time>2013-07-27T11:26:14Z</time>
      </trkpt>
      <trkpt lat="45.49718" lon="6.74135">
        <ele>2306.8000488</ele>
        <time>2013-07-27T11:26:18Z</time>
      </trkpt>
      <trkpt lat="45.49729" lon="6.74142">
        <ele>2304.8000488</ele>
        <time>2013-07-27T11:26:23Z</time>
      </trkpt>
      <trkpt lat="45.49739" lon="6.74148">
        <ele>2301.6000977</ele>
        <time>2013-07-27T11:26:28Z</time>
      </trkpt>
      <trkpt lat="45.49747" lon="6.74149">
        <ele>2298</ele>
        <time>2013-07-27T11:26:32Z</time>
      </trkpt>
      <trkpt lat="45.49756" lon="6.7415">
        <ele>2295.3999023</ele>
        <time>2013-07-27T11:26:36Z</time>
      </trkpt>
      <trkpt lat="45.49764" lon="6.74157">
        <ele>2293.1999512</ele>
        <time>2013-07-27T11:26:41Z</time>
      </trkpt>
      <trkpt lat="45.49773" lon="6.74158">
        <ele>2290.3999023</ele>
        <time>2013-07-27T11:26:48Z</time>
      </trkpt>
      <trkpt lat="45.49784" lon="6.74159">
        <ele>2288.3999023</ele>
        <time>2013-07-27T11:26:55Z</time>
      </trkpt>
      <trkpt lat="45.49792" lon="6.74165">
        <ele>2285.6000977</ele>
        <time>2013-07-27T11:26:59Z</time>
      </trkpt>
      <trkpt lat="45.498" lon="6.74171">
        <ele>2281.6000977</ele>
        <time>2013-07-27T11:27:04Z</time>
      </trkpt>
      <trkpt lat="45.49806" lon="6.74175">
        <ele>2279.1999512</ele>
        <time>2013-07-27T11:27:08Z</time>
      </trkpt>
      <trkpt lat="45.49814" lon="6.74179">
        <ele>2276.6000977</ele>
        <time>2013-07-27T11:27:13Z</time>
      </trkpt>
      <trkpt lat="45.49821" lon="6.74182">
        <ele>2273.6000977</ele>
        <time>2013-07-27T11:27:18Z</time>
      </trkpt>
      <trkpt lat="45.49829" lon="6.74185">
        <ele>2272</ele>
        <time>2013-07-27T11:27:23Z</time>
      </trkpt>
      <trkpt lat="45.49836" lon="6.74186">
        <ele>2271.3999023</ele>
        <time>2013-07-27T11:27:28Z</time>
      </trkpt>
      <trkpt lat="45.49847" lon="6.74191">
        <ele>2269</ele>
        <time>2013-07-27T11:27:34Z</time>
      </trkpt>
      <trkpt lat="45.49857" lon="6.74183">
        <ele>2265.1999512</ele>
        <time>2013-07-27T11:27:40Z</time>
      </trkpt>
      <trkpt lat="45.49866" lon="6.74176">
        <ele>2262.3999023</ele>
        <time>2013-07-27T11:27:45Z</time>
      </trkpt>
      <trkpt lat="45.49873" lon="6.7417">
        <ele>2262</ele>
        <time>2013-07-27T11:27:49Z</time>
      </trkpt>
      <trkpt lat="45.49881" lon="6.74162">
        <ele>2262.3999023</ele>
        <time>2013-07-27T11:27:54Z</time>
      </trkpt>
      <trkpt lat="45.4989" lon="6.7415">
        <ele>2262.1999512</ele>
        <time>2013-07-27T11:27:59Z</time>
      </trkpt>
      <trkpt lat="45.49896" lon="6.74137">
        <ele>2261.8000488</ele>
        <time>2013-07-27T11:28:04Z</time>
      </trkpt>
      <trkpt lat="45.499" lon="6.74127">
        <ele>2261.8000488</ele>
        <time>2013-07-27T11:28:09Z</time>
      </trkpt>
      <trkpt lat="45.49905" lon="6.74122">
        <ele>2270.1999512</ele>
        <time>2013-07-27T11:28:19Z</time>
      </trkpt>
      <trkpt lat="45.49914" lon="6.74112">
        <ele>2272.3999023</ele>
        <time>2013-07-27T11:28:24Z</time>
      </trkpt>
      <trkpt lat="45.49923" lon="6.74108">
        <ele>2271.8000488</ele>
        <time>2013-07-27T11:28:29Z</time>
      </trkpt>
      <trkpt lat="45.49932" lon="6.74104">
        <ele>2270.8000488</ele>
        <time>2013-07-27T11:28:34Z</time>
      </trkpt>
      <trkpt lat="45.49939" lon="6.74099">
        <ele>2270</ele>
        <time>2013-07-27T11:28:37Z</time>
      </trkpt>
      <trkpt lat="45.49944" lon="6.74094">
        <ele>2269</ele>
        <time>2013-07-27T11:28:40Z</time>
      </trkpt>
      <trkpt lat="45.49953" lon="6.74085">
        <ele>2267.8000488</ele>
        <time>2013-07-27T11:28:45Z</time>
      </trkpt>
      <trkpt lat="45.49959" lon="6.74077">
        <ele>2266</ele>
        <time>2013-07-27T11:28:49Z</time>
      </trkpt>
      <trkpt lat="45.49969" lon="6.74074">
        <ele>2264.1999512</ele>
        <time>2013-07-27T11:28:54Z</time>
      </trkpt>
      <trkpt lat="45.49979" lon="6.7407">
        <ele>2262</ele>
        <time>2013-07-27T11:28:59Z</time>
      </trkpt>
      <trkpt lat="45.49987" lon="6.74064">
        <ele>2258.8000488</ele>
        <time>2013-07-27T11:29:04Z</time>
      </trkpt>
      <trkpt lat="45.49995" lon="6.74058">
        <ele>2254.8000488</ele>
        <time>2013-07-27T11:29:09Z</time>
      </trkpt>
      <trkpt lat="45.50006" lon="6.74049">
        <ele>2252</ele>
        <time>2013-07-27T11:29:15Z</time>
      </trkpt>
      <trkpt lat="45.50012" lon="6.74039">
        <ele>2251.1999512</ele>
        <time>2013-07-27T11:29:21Z</time>
      </trkpt>
      <trkpt lat="45.50019" lon="6.74036">
        <ele>2251.8000488</ele>
        <time>2013-07-27T11:29:26Z</time>
      </trkpt>
      <trkpt lat="45.50029" lon="6.74037">
        <ele>2253.3999023</ele>
        <time>2013-07-27T11:29:31Z</time>
      </trkpt>
      <trkpt lat="45.5004" lon="6.74039">
        <ele>2254</ele>
        <time>2013-07-27T11:29:36Z</time>
      </trkpt>
      <trkpt lat="45.50049" lon="6.74036">
        <ele>2252.6000977</ele>
        <time>2013-07-27T11:29:41Z</time>
      </trkpt>
      <trkpt lat="45.5006" lon="6.74032">
        <ele>2250.6000977</ele>
        <time>2013-07-27T11:29:47Z</time>
      </trkpt>
      <trkpt lat="45.5007" lon="6.74034">
        <ele>2248.6000977</ele>
        <time>2013-07-27T11:29:52Z</time>
      </trkpt>
      <trkpt lat="45.50081" lon="6.7403">
        <ele>2246.8000488</ele>
        <time>2013-07-27T11:29:58Z</time>
      </trkpt>
      <trkpt lat="45.50087" lon="6.74025">
        <ele>2245.6000977</ele>
        <time>2013-07-27T11:30:03Z</time>
      </trkpt>
      <trkpt lat="45.50094" lon="6.74027">
        <ele>2245.1999512</ele>
        <time>2013-07-27T11:30:08Z</time>
      </trkpt>
      <trkpt lat="45.50101" lon="6.74021">
        <ele>2244.1999512</ele>
        <time>2013-07-27T11:30:15Z</time>
      </trkpt>
      <trkpt lat="45.50107" lon="6.74017">
        <ele>2242.3999023</ele>
        <time>2013-07-27T11:30:20Z</time>
      </trkpt>
      <trkpt lat="45.50114" lon="6.74014">
        <ele>2240.6000977</ele>
        <time>2013-07-27T11:30:25Z</time>
      </trkpt>
      <trkpt lat="45.5012" lon="6.7401">
        <ele>2239.6000977</ele>
        <time>2013-07-27T11:30:28Z</time>
      </trkpt>
      <trkpt lat="45.50127" lon="6.74002">
        <ele>2238</ele>
        <time>2013-07-27T11:30:32Z</time>
      </trkpt>
      <trkpt lat="45.50134" lon="6.73991">
        <ele>2236.3999023</ele>
        <time>2013-07-27T11:30:37Z</time>
      </trkpt>
      <trkpt lat="45.50141" lon="6.73981">
        <ele>2234.8000488</ele>
        <time>2013-07-27T11:30:42Z</time>
      </trkpt>
      <trkpt lat="45.50148" lon="6.73972">
        <ele>2232.3999023</ele>
        <time>2013-07-27T11:30:47Z</time>
      </trkpt>
      <trkpt lat="45.50158" lon="6.73965">
        <ele>2229.6000977</ele>
        <time>2013-07-27T11:30:53Z</time>
      </trkpt>
      <trkpt lat="45.50171" lon="6.73962">
        <ele>2227.6000977</ele>
        <time>2013-07-27T11:30:58Z</time>
      </trkpt>
      <trkpt lat="45.5018" lon="6.73957">
        <ele>2225.6000977</ele>
        <time>2013-07-27T11:31:02Z</time>
      </trkpt>
      <trkpt lat="45.50191" lon="6.73953">
        <ele>2223.1999512</ele>
        <time>2013-07-27T11:31:07Z</time>
      </trkpt>
      <trkpt lat="45.50203" lon="6.73952">
        <ele>2221.1999512</ele>
        <time>2013-07-27T11:31:13Z</time>
      </trkpt>
      <trkpt lat="45.50211" lon="6.73948">
        <ele>2218.6000977</ele>
        <time>2013-07-27T11:31:18Z</time>
      </trkpt>
      <trkpt lat="45.50219" lon="6.73946">
        <ele>2215.3999023</ele>
        <time>2013-07-27T11:31:23Z</time>
      </trkpt>
      <trkpt lat="45.50228" lon="6.73942">
        <ele>2212.8000488</ele>
        <time>2013-07-27T11:31:29Z</time>
      </trkpt>
      <trkpt lat="45.50237" lon="6.73939">
        <ele>2210.6000977</ele>
        <time>2013-07-27T11:31:34Z</time>
      </trkpt>
      <trkpt lat="45.50246" lon="6.73934">
        <ele>2207.3999023</ele>
        <time>2013-07-27T11:31:40Z</time>
      </trkpt>
      <trkpt lat="45.50252" lon="6.73929">
        <ele>2205.3999023</ele>
        <time>2013-07-27T11:31:45Z</time>
      </trkpt>
      <trkpt lat="45.50254" lon="6.73942">
        <ele>2203.8000488</ele>
        <time>2013-07-27T11:31:54Z</time>
      </trkpt>
      <trkpt lat="45.50264" lon="6.73945">
        <ele>2200</ele>
        <time>2013-07-27T11:32:03Z</time>
      </trkpt>
      <trkpt lat="45.50269" lon="6.73954">
        <ele>2197.3999023</ele>
        <time>2013-07-27T11:32:09Z</time>
      </trkpt>
      <trkpt lat="45.50277" lon="6.73954">
        <ele>2195.6000977</ele>
        <time>2013-07-27T11:32:14Z</time>
      </trkpt>
      <trkpt lat="45.50285" lon="6.7395">
        <ele>2192.3999023</ele>
        <time>2013-07-27T11:32:20Z</time>
      </trkpt>
      <trkpt lat="45.50291" lon="6.73945">
        <ele>2188.3999023</ele>
        <time>2013-07-27T11:32:24Z</time>
      </trkpt>
      <trkpt lat="45.50298" lon="6.73938">
        <ele>2184.3999023</ele>
        <time>2013-07-27T11:32:29Z</time>
      </trkpt>
      <trkpt lat="45.50304" lon="6.73932">
        <ele>2180.3999023</ele>
        <time>2013-07-27T11:32:34Z</time>
      </trkpt>
      <trkpt lat="45.50312" lon="6.73927">
        <ele>2177.8000488</ele>
        <time>2013-07-27T11:32:39Z</time>
      </trkpt>
      <trkpt lat="45.50319" lon="6.7392">
        <ele>2175.6000977</ele>
        <time>2013-07-27T11:32:44Z</time>
      </trkpt>
      <trkpt lat="45.50325" lon="6.73911">
        <ele>2174</ele>
        <time>2013-07-27T11:32:49Z</time>
      </trkpt>
      <trkpt lat="45.50328" lon="6.73898">
        <ele>2172</ele>
        <time>2013-07-27T11:32:55Z</time>
      </trkpt>
      <trkpt lat="45.50331" lon="6.73884">
        <ele>2170.3999023</ele>
        <time>2013-07-27T11:33:01Z</time>
      </trkpt>
      <trkpt lat="45.50336" lon="6.73872">
        <ele>2168.3999023</ele>
        <time>2013-07-27T11:33:07Z</time>
      </trkpt>
      <trkpt lat="45.50341" lon="6.73862">
        <ele>2165.3999023</ele>
        <time>2013-07-27T11:33:12Z</time>
      </trkpt>
      <trkpt lat="45.50351" lon="6.7386">
        <ele>2162.1999512</ele>
        <time>2013-07-27T11:33:17Z</time>
      </trkpt>
      <trkpt lat="45.5036" lon="6.73861">
        <ele>2159.3999023</ele>
        <time>2013-07-27T11:33:22Z</time>
      </trkpt>
      <trkpt lat="45.50369" lon="6.73862">
        <ele>2157.1999512</ele>
        <time>2013-07-27T11:33:27Z</time>
      </trkpt>
      <trkpt lat="45.5038" lon="6.73862">
        <ele>2155.1999512</ele>
        <time>2013-07-27T11:33:32Z</time>
      </trkpt>
      <trkpt lat="45.50387" lon="6.73861">
        <ele>2154.3999023</ele>
        <time>2013-07-27T11:33:35Z</time>
      </trkpt>
      <trkpt lat="45.50394" lon="6.73859">
        <ele>2153.3999023</ele>
        <time>2013-07-27T11:33:38Z</time>
      </trkpt>
      <trkpt lat="45.50404" lon="6.73853">
        <ele>2151.6000977</ele>
        <time>2013-07-27T11:33:43Z</time>
      </trkpt>
      <trkpt lat="45.50411" lon="6.7385">
        <ele>2150</ele>
        <time>2013-07-27T11:33:47Z</time>
      </trkpt>
      <trkpt lat="45.50418" lon="6.73846">
        <ele>2148.3999023</ele>
        <time>2013-07-27T11:33:52Z</time>
      </trkpt>
      <trkpt lat="45.50426" lon="6.73839">
        <ele>2146.8000488</ele>
        <time>2013-07-27T11:33:58Z</time>
      </trkpt>
      <trkpt lat="45.50432" lon="6.73834">
        <ele>2144.8000488</ele>
        <time>2013-07-27T11:34:03Z</time>
      </trkpt>
      <trkpt lat="45.50442" lon="6.73832">
        <ele>2142.1999512</ele>
        <time>2013-07-27T11:34:09Z</time>
      </trkpt>
      <trkpt lat="45.50449" lon="6.73828">
        <ele>2139.3999023</ele>
        <time>2013-07-27T11:34:14Z</time>
      </trkpt>
      <trkpt lat="45.50457" lon="6.73827">
        <ele>2137.1999512</ele>
        <time>2013-07-27T11:34:19Z</time>
      </trkpt>
      <trkpt lat="45.50463" lon="6.73821">
        <ele>2135.1999512</ele>
        <time>2013-07-27T11:34:25Z</time>
      </trkpt>
      <trkpt lat="45.5047" lon="6.73819">
        <ele>2133</ele>
        <time>2013-07-27T11:34:29Z</time>
      </trkpt>
      <trkpt lat="45.50475" lon="6.73812">
        <ele>2130.3999023</ele>
        <time>2013-07-27T11:34:34Z</time>
      </trkpt>
      <trkpt lat="45.50481" lon="6.73808">
        <ele>2128</ele>
        <time>2013-07-27T11:34:40Z</time>
      </trkpt>
      <trkpt lat="45.50488" lon="6.73809">
        <ele>2125.6000977</ele>
        <time>2013-07-27T11:34:45Z</time>
      </trkpt>
      <trkpt lat="45.50494" lon="6.73804">
        <ele>2123</ele>
        <time>2013-07-27T11:34:50Z</time>
      </trkpt>
      <trkpt lat="45.505" lon="6.73805">
        <ele>2120</ele>
        <time>2013-07-27T11:34:55Z</time>
      </trkpt>
      <trkpt lat="45.50508" lon="6.73804">
        <ele>2115.8000488</ele>
        <time>2013-07-27T11:35:00Z</time>
      </trkpt>
      <trkpt lat="45.50516" lon="6.73811">
        <ele>2111.6000977</ele>
        <time>2013-07-27T11:35:06Z</time>
      </trkpt>
      <trkpt lat="45.50521" lon="6.73818">
        <ele>2108.1999512</ele>
        <time>2013-07-27T11:35:11Z</time>
      </trkpt>
      <trkpt lat="45.50526" lon="6.73827">
        <ele>2106.1999512</ele>
        <time>2013-07-27T11:35:17Z</time>
      </trkpt>
      <trkpt lat="45.50534" lon="6.73825">
        <ele>2102.8000488</ele>
        <time>2013-07-27T11:35:22Z</time>
      </trkpt>
      <trkpt lat="45.50541" lon="6.73824">
        <ele>2098.1999512</ele>
        <time>2013-07-27T11:35:27Z</time>
      </trkpt>
      <trkpt lat="45.50546" lon="6.73817">
        <ele>2094.6000977</ele>
        <time>2013-07-27T11:35:31Z</time>
      </trkpt>
      <trkpt lat="45.50552" lon="6.73814">
        <ele>2093.1999512</ele>
        <time>2013-07-27T11:35:36Z</time>
      </trkpt>
      <trkpt lat="45.50556" lon="6.73825">
        <ele>2091.1999512</ele>
        <time>2013-07-27T11:35:41Z</time>
      </trkpt>
      <trkpt lat="45.50562" lon="6.7383">
        <ele>2088.8000488</ele>
        <time>2013-07-27T11:35:46Z</time>
      </trkpt>
      <trkpt lat="45.50568" lon="6.73841">
        <ele>2086.1999512</ele>
        <time>2013-07-27T11:35:52Z</time>
      </trkpt>
      <trkpt lat="45.50571" lon="6.7385">
        <ele>2083.1999512</ele>
        <time>2013-07-27T11:35:57Z</time>
      </trkpt>
      <trkpt lat="45.50578" lon="6.73846">
        <ele>2080</ele>
        <time>2013-07-27T11:36:02Z</time>
      </trkpt>
      <trkpt lat="45.50583" lon="6.73835">
        <ele>2078.3999023</ele>
        <time>2013-07-27T11:36:07Z</time>
      </trkpt>
      <trkpt lat="45.50583" lon="6.73822">
        <ele>2077.8000488</ele>
        <time>2013-07-27T11:36:12Z</time>
      </trkpt>
      <trkpt lat="45.5059" lon="6.73816">
        <ele>2076.3999023</ele>
        <time>2013-07-27T11:36:18Z</time>
      </trkpt>
      <trkpt lat="45.50595" lon="6.73828">
        <ele>2074.3999023</ele>
        <time>2013-07-27T11:36:23Z</time>
      </trkpt>
      <trkpt lat="45.50598" lon="6.7384">
        <ele>2072.3999023</ele>
        <time>2013-07-27T11:36:29Z</time>
      </trkpt>
      <trkpt lat="45.50605" lon="6.73835">
        <ele>2070.8000488</ele>
        <time>2013-07-27T11:36:34Z</time>
      </trkpt>
      <trkpt lat="45.5061" lon="6.73826">
        <ele>2069.1999512</ele>
        <time>2013-07-27T11:36:39Z</time>
      </trkpt>
      <trkpt lat="45.50612" lon="6.73815">
        <ele>2068.3999023</ele>
        <time>2013-07-27T11:36:44Z</time>
      </trkpt>
      <trkpt lat="45.50615" lon="6.73805">
        <ele>2066.6000977</ele>
        <time>2013-07-27T11:36:49Z</time>
      </trkpt>
      <trkpt lat="45.50624" lon="6.73814">
        <ele>2062.6000977</ele>
        <time>2013-07-27T11:36:55Z</time>
      </trkpt>
      <trkpt lat="45.50628" lon="6.73827">
        <ele>2058.1999512</ele>
        <time>2013-07-27T11:37:00Z</time>
      </trkpt>
      <trkpt lat="45.50636" lon="6.73831">
        <ele>2055</ele>
        <time>2013-07-27T11:37:05Z</time>
      </trkpt>
      <trkpt lat="45.50641" lon="6.73819">
        <ele>2054</ele>
        <time>2013-07-27T11:37:10Z</time>
      </trkpt>
      <trkpt lat="45.50638" lon="6.73807">
        <ele>2054.1999512</ele>
        <time>2013-07-27T11:37:15Z</time>
      </trkpt>
      <trkpt lat="45.50634" lon="6.73795">
        <ele>2053.8000488</ele>
        <time>2013-07-27T11:37:20Z</time>
      </trkpt>
      <trkpt lat="45.50639" lon="6.73782">
        <ele>2052.3999023</ele>
        <time>2013-07-27T11:37:25Z</time>
      </trkpt>
      <trkpt lat="45.50639" lon="6.73768">
        <ele>2050.1999512</ele>
        <time>2013-07-27T11:37:31Z</time>
      </trkpt>
      <trkpt lat="45.50629" lon="6.73761">
        <ele>2049</ele>
        <time>2013-07-27T11:37:36Z</time>
      </trkpt>
      <trkpt lat="45.50624" lon="6.73753">
        <ele>2048</ele>
        <time>2013-07-27T11:37:40Z</time>
      </trkpt>
      <trkpt lat="45.50624" lon="6.73737">
        <ele>2046.5999756</ele>
        <time>2013-07-27T11:37:45Z</time>
      </trkpt>
      <trkpt lat="45.50615" lon="6.73731">
        <ele>2045.4000244</ele>
        <time>2013-07-27T11:37:52Z</time>
      </trkpt>
      <trkpt lat="45.50609" lon="6.73717">
        <ele>2044.5999756</ele>
        <time>2013-07-27T11:38:00Z</time>
      </trkpt>
      <trkpt lat="45.50617" lon="6.7371">
        <ele>2042.5999756</ele>
        <time>2013-07-27T11:38:04Z</time>
      </trkpt>
      <trkpt lat="45.5062" lon="6.73704">
        <ele>2037.8000488</ele>
        <time>2013-07-27T11:38:11Z</time>
      </trkpt>
      <trkpt lat="45.50615" lon="6.73698">
        <ele>2035.5999756</ele>
        <time>2013-07-27T11:38:16Z</time>
      </trkpt>
      <trkpt lat="45.50618" lon="6.73687">
        <ele>2034</ele>
        <time>2013-07-27T11:38:21Z</time>
      </trkpt>
      <trkpt lat="45.50622" lon="6.73673">
        <ele>2032.5999756</ele>
        <time>2013-07-27T11:38:27Z</time>
      </trkpt>
      <trkpt lat="45.50622" lon="6.73656">
        <ele>2032.8000488</ele>
        <time>2013-07-27T11:38:32Z</time>
      </trkpt>
      <trkpt lat="45.50624" lon="6.73647">
        <ele>2033.1999512</ele>
        <time>2013-07-27T11:38:35Z</time>
      </trkpt>
      <trkpt lat="45.50628" lon="6.73639">
        <ele>2033.1999512</ele>
        <time>2013-07-27T11:38:38Z</time>
      </trkpt>
      <trkpt lat="45.50637" lon="6.73625">
        <ele>2033.1999512</ele>
        <time>2013-07-27T11:38:43Z</time>
      </trkpt>
      <trkpt lat="45.50641" lon="6.73615">
        <ele>2031.5999756</ele>
        <time>2013-07-27T11:38:48Z</time>
      </trkpt>
      <trkpt lat="45.50643" lon="6.73595">
        <ele>2031</ele>
        <time>2013-07-27T11:38:54Z</time>
      </trkpt>
      <trkpt lat="45.50646" lon="6.73576">
        <ele>2029.4000244</ele>
        <time>2013-07-27T11:38:59Z</time>
      </trkpt>
      <trkpt lat="45.50647" lon="6.73567">
        <ele>2028.1999512</ele>
        <time>2013-07-27T11:39:02Z</time>
      </trkpt>
      <trkpt lat="45.5065" lon="6.73553">
        <ele>2025.4000244</ele>
        <time>2013-07-27T11:39:08Z</time>
      </trkpt>
      <trkpt lat="45.50656" lon="6.73542">
        <ele>2023.1999512</ele>
        <time>2013-07-27T11:39:13Z</time>
      </trkpt>
      <trkpt lat="45.5066" lon="6.73529">
        <ele>2022</ele>
        <time>2013-07-27T11:39:18Z</time>
      </trkpt>
      <trkpt lat="45.50663" lon="6.73513">
        <ele>2020.8000488</ele>
        <time>2013-07-27T11:39:23Z</time>
      </trkpt>
      <trkpt lat="45.50666" lon="6.73504">
        <ele>2020.4000244</ele>
        <time>2013-07-27T11:39:26Z</time>
      </trkpt>
      <trkpt lat="45.50672" lon="6.73489">
        <ele>2019.1999512</ele>
        <time>2013-07-27T11:39:31Z</time>
      </trkpt>
      <trkpt lat="45.50678" lon="6.73479">
        <ele>2018.1999512</ele>
        <time>2013-07-27T11:39:36Z</time>
      </trkpt>
      <trkpt lat="45.50688" lon="6.73467">
        <ele>2018</ele>
        <time>2013-07-27T11:39:45Z</time>
      </trkpt>
      <trkpt lat="45.50689" lon="6.73458">
        <ele>2017.8000488</ele>
        <time>2013-07-27T11:39:49Z</time>
      </trkpt>
      <trkpt lat="45.50691" lon="6.73446">
        <ele>2016.1999512</ele>
        <time>2013-07-27T11:39:54Z</time>
      </trkpt>
      <trkpt lat="45.50699" lon="6.73439">
        <ele>2012.8000488</ele>
        <time>2013-07-27T11:39:59Z</time>
      </trkpt>
      <trkpt lat="45.50709" lon="6.73436">
        <ele>2010.5999756</ele>
        <time>2013-07-27T11:40:04Z</time>
      </trkpt>
      <trkpt lat="45.50716" lon="6.7343">
        <ele>2009.8000488</ele>
        <time>2013-07-27T11:40:10Z</time>
      </trkpt>
      <trkpt lat="45.50722" lon="6.73422">
        <ele>2008.8000488</ele>
        <time>2013-07-27T11:40:16Z</time>
      </trkpt>
      <trkpt lat="45.50728" lon="6.73417">
        <ele>2007.8000488</ele>
        <time>2013-07-27T11:40:21Z</time>
      </trkpt>
      <trkpt lat="45.50734" lon="6.73411">
        <ele>2007.8000488</ele>
        <time>2013-07-27T11:40:26Z</time>
      </trkpt>
      <trkpt lat="45.50741" lon="6.73401">
        <ele>2008.5999756</ele>
        <time>2013-07-27T11:40:34Z</time>
      </trkpt>
      <trkpt lat="45.50751" lon="6.73387">
        <ele>2009.1999512</ele>
        <time>2013-07-27T11:40:44Z</time>
      </trkpt>
      <trkpt lat="45.50756" lon="6.73381">
        <ele>2010.5999756</ele>
        <time>2013-07-27T11:40:49Z</time>
      </trkpt>
      <trkpt lat="45.50761" lon="6.73373">
        <ele>2011.4000244</ele>
        <time>2013-07-27T11:40:54Z</time>
      </trkpt>
      <trkpt lat="45.50766" lon="6.73364">
        <ele>2011.8000488</ele>
        <time>2013-07-27T11:40:59Z</time>
      </trkpt>
      <trkpt lat="45.50773" lon="6.73356">
        <ele>2011.1999512</ele>
        <time>2013-07-27T11:41:03Z</time>
      </trkpt>
      <trkpt lat="45.50777" lon="6.73345">
        <ele>2010.5999756</ele>
        <time>2013-07-27T11:41:08Z</time>
      </trkpt>
      <trkpt lat="45.5078" lon="6.73334">
        <ele>2011</ele>
        <time>2013-07-27T11:41:14Z</time>
      </trkpt>
      <trkpt lat="45.50784" lon="6.73327">
        <ele>2012.1999512</ele>
        <time>2013-07-27T11:41:20Z</time>
      </trkpt>
      <trkpt lat="45.50791" lon="6.73323">
        <ele>2013</ele>
        <time>2013-07-27T11:41:28Z</time>
      </trkpt>
      <trkpt lat="45.50795" lon="6.73316">
        <ele>2013.5999756</ele>
        <time>2013-07-27T11:41:34Z</time>
      </trkpt>
      <trkpt lat="45.50803" lon="6.73309">
        <ele>2013.4000244</ele>
        <time>2013-07-27T11:41:41Z</time>
      </trkpt>
      <trkpt lat="45.50807" lon="6.73302">
        <ele>2012.8000488</ele>
        <time>2013-07-27T11:41:46Z</time>
      </trkpt>
      <trkpt lat="45.50812" lon="6.73294">
        <ele>2011.8000488</ele>
        <time>2013-07-27T11:41:51Z</time>
      </trkpt>
      <trkpt lat="45.50816" lon="6.73287">
        <ele>2010.8000488</ele>
        <time>2013-07-27T11:41:56Z</time>
      </trkpt>
      <trkpt lat="45.50821" lon="6.73276">
        <ele>2010.1999512</ele>
        <time>2013-07-27T11:42:02Z</time>
      </trkpt>
      <trkpt lat="45.50824" lon="6.73263">
        <ele>2010.5999756</ele>
        <time>2013-07-27T11:42:09Z</time>
      </trkpt>
      <trkpt lat="45.5083" lon="6.73255">
        <ele>2010.8000488</ele>
        <time>2013-07-27T11:42:14Z</time>
      </trkpt>
      <trkpt lat="45.50837" lon="6.73245">
        <ele>2010.4000244</ele>
        <time>2013-07-27T11:42:20Z</time>
      </trkpt>
      <trkpt lat="45.50848" lon="6.73233">
        <ele>2009.5999756</ele>
        <time>2013-07-27T11:42:30Z</time>
      </trkpt>
      <trkpt lat="45.50854" lon="6.73229">
        <ele>2009.4000244</ele>
        <time>2013-07-27T11:42:36Z</time>
      </trkpt>
      <trkpt lat="45.5086" lon="6.73221">
        <ele>2008.1999512</ele>
        <time>2013-07-27T11:42:42Z</time>
      </trkpt>
      <trkpt lat="45.50864" lon="6.73213">
        <ele>2007</ele>
        <time>2013-07-27T11:42:47Z</time>
      </trkpt>
      <trkpt lat="45.50872" lon="6.73214">
        <ele>2007</ele>
        <time>2013-07-27T11:42:54Z</time>
      </trkpt>
      <trkpt lat="45.50877" lon="6.73209">
        <ele>2008</ele>
        <time>2013-07-27T11:42:59Z</time>
      </trkpt>
      <trkpt lat="45.50885" lon="6.73207">
        <ele>2009.4000244</ele>
        <time>2013-07-27T11:43:05Z</time>
      </trkpt>
      <trkpt lat="45.50892" lon="6.73204">
        <ele>2009.4000244</ele>
        <time>2013-07-27T11:43:10Z</time>
      </trkpt>
      <trkpt lat="45.50899" lon="6.732">
        <ele>2008.4000244</ele>
        <time>2013-07-27T11:43:15Z</time>
      </trkpt>
      <trkpt lat="45.50906" lon="6.73193">
        <ele>2006.5999756</ele>
        <time>2013-07-27T11:43:21Z</time>
      </trkpt>
      <trkpt lat="45.50918" lon="6.73188">
        <ele>2006.4000244</ele>
        <time>2013-07-27T11:43:29Z</time>
      </trkpt>
      <trkpt lat="45.50925" lon="6.73185">
        <ele>2006.4000244</ele>
        <time>2013-07-27T11:43:34Z</time>
      </trkpt>
      <trkpt lat="45.50931" lon="6.73183">
        <ele>2006.1999512</ele>
        <time>2013-07-27T11:43:38Z</time>
      </trkpt>
      <trkpt lat="45.50942" lon="6.73183">
        <ele>2006.4000244</ele>
        <time>2013-07-27T11:43:44Z</time>
      </trkpt>
      <trkpt lat="45.50952" lon="6.73179">
        <ele>2007.4000244</ele>
        <time>2013-07-27T11:43:50Z</time>
      </trkpt>
      <trkpt lat="45.5096" lon="6.73176">
        <ele>2008.1999512</ele>
        <time>2013-07-27T11:43:55Z</time>
      </trkpt>
      <trkpt lat="45.50969" lon="6.73176">
        <ele>2008.8000488</ele>
        <time>2013-07-27T11:44:01Z</time>
      </trkpt>
      <trkpt lat="45.50982" lon="6.73172">
        <ele>2008.8000488</ele>
        <time>2013-07-27T11:44:10Z</time>
      </trkpt>
      <trkpt lat="45.50988" lon="6.73168">
        <ele>2009.8000488</ele>
        <time>2013-07-27T11:44:15Z</time>
      </trkpt>
      <trkpt lat="45.50997" lon="6.73168">
        <ele>2010.8000488</ele>
        <time>2013-07-27T11:44:21Z</time>
      </trkpt>
      <trkpt lat="45.51006" lon="6.73163">
        <ele>2013.1999512</ele>
        <time>2013-07-27T11:44:28Z</time>
      </trkpt>
      <trkpt lat="45.51014" lon="6.7316">
        <ele>2015.1999512</ele>
        <time>2013-07-27T11:44:33Z</time>
      </trkpt>
      <trkpt lat="45.51022" lon="6.73156">
        <ele>2016.5999756</ele>
        <time>2013-07-27T11:44:39Z</time>
      </trkpt>
      <trkpt lat="45.5103" lon="6.73156">
        <ele>2017.4000244</ele>
        <time>2013-07-27T11:44:45Z</time>
      </trkpt>
      <trkpt lat="45.51036" lon="6.73163">
        <ele>2017.4000244</ele>
        <time>2013-07-27T11:44:50Z</time>
      </trkpt>
      <trkpt lat="45.51044" lon="6.73165">
        <ele>2017.1999512</ele>
        <time>2013-07-27T11:44:55Z</time>
      </trkpt>
      <trkpt lat="45.51051" lon="6.73159">
        <ele>2018</ele>
        <time>2013-07-27T11:45:03Z</time>
      </trkpt>
      <trkpt lat="45.51059" lon="6.73155">
        <ele>2019.8000488</ele>
        <time>2013-07-27T11:45:09Z</time>
      </trkpt>
      <trkpt lat="45.51065" lon="6.73159">
        <ele>2021.4000244</ele>
        <time>2013-07-27T11:45:14Z</time>
      </trkpt>
      <trkpt lat="45.51079" lon="6.73169">
        <ele>2021.5999756</ele>
        <time>2013-07-27T11:45:25Z</time>
      </trkpt>
      <trkpt lat="45.51087" lon="6.73167">
        <ele>2022.1999512</ele>
        <time>2013-07-27T11:45:31Z</time>
      </trkpt>
      <trkpt lat="45.51093" lon="6.73162">
        <ele>2022.8000488</ele>
        <time>2013-07-27T11:45:36Z</time>
      </trkpt>
      <trkpt lat="45.51099" lon="6.73159">
        <ele>2023.4000244</ele>
        <time>2013-07-27T11:45:41Z</time>
      </trkpt>
      <trkpt lat="45.51106" lon="6.73153">
        <ele>2025.8000488</ele>
        <time>2013-07-27T11:45:47Z</time>
      </trkpt>
      <trkpt lat="45.51113" lon="6.73148">
        <ele>2030</ele>
        <time>2013-07-27T11:45:52Z</time>
      </trkpt>
      <trkpt lat="45.51119" lon="6.73146">
        <ele>2033.4000244</ele>
        <time>2013-07-27T11:45:56Z</time>
      </trkpt>
      <trkpt lat="45.51128" lon="6.73145">
        <ele>2033.4000244</ele>
        <time>2013-07-27T11:46:02Z</time>
      </trkpt>
      <trkpt lat="45.51136" lon="6.73141">
        <ele>2031.5999756</ele>
        <time>2013-07-27T11:46:08Z</time>
      </trkpt>
      <trkpt lat="45.51144" lon="6.73137">
        <ele>2029.1999512</ele>
        <time>2013-07-27T11:46:13Z</time>
      </trkpt>
      <trkpt lat="45.51157" lon="6.73131">
        <ele>2028.4000244</ele>
        <time>2013-07-27T11:46:18Z</time>
      </trkpt>
      <trkpt lat="45.51165" lon="6.73127">
        <ele>2028.4000244</ele>
        <time>2013-07-27T11:46:22Z</time>
      </trkpt>
      <trkpt lat="45.51171" lon="6.73123">
        <ele>2028.8000488</ele>
        <time>2013-07-27T11:46:30Z</time>
      </trkpt>
      <trkpt lat="45.51177" lon="6.73119">
        <ele>2028.8000488</ele>
        <time>2013-07-27T11:46:35Z</time>
      </trkpt>
      <trkpt lat="45.51185" lon="6.73118">
        <ele>2027.5999756</ele>
        <time>2013-07-27T11:46:43Z</time>
      </trkpt>
      <trkpt lat="45.51194" lon="6.73124">
        <ele>2025.5999756</ele>
        <time>2013-07-27T11:46:49Z</time>
      </trkpt>
      <trkpt lat="45.51201" lon="6.73128">
        <ele>2024.8000488</ele>
        <time>2013-07-27T11:46:54Z</time>
      </trkpt>
      <trkpt lat="45.51208" lon="6.73124">
        <ele>2026</ele>
        <time>2013-07-27T11:46:59Z</time>
      </trkpt>
      <trkpt lat="45.51214" lon="6.73114">
        <ele>2028.8000488</ele>
        <time>2013-07-27T11:47:04Z</time>
      </trkpt>
      <trkpt lat="45.51224" lon="6.7311">
        <ele>2031.5999756</ele>
        <time>2013-07-27T11:47:09Z</time>
      </trkpt>
      <trkpt lat="45.51231" lon="6.73109">
        <ele>2033</ele>
        <time>2013-07-27T11:47:12Z</time>
      </trkpt>
      <trkpt lat="45.51241" lon="6.73103">
        <ele>2034.4000244</ele>
        <time>2013-07-27T11:47:17Z</time>
      </trkpt>
      <trkpt lat="45.51248" lon="6.73106">
        <ele>2034.8000488</ele>
        <time>2013-07-27T11:47:20Z</time>
      </trkpt>
      <trkpt lat="45.51257" lon="6.73106">
        <ele>2035.1999512</ele>
        <time>2013-07-27T11:47:25Z</time>
      </trkpt>
      <trkpt lat="45.51263" lon="6.73103">
        <ele>2035</ele>
        <time>2013-07-27T11:47:29Z</time>
      </trkpt>
      <trkpt lat="45.51273" lon="6.73097">
        <ele>2034.1999512</ele>
        <time>2013-07-27T11:47:35Z</time>
      </trkpt>
      <trkpt lat="45.51282" lon="6.7309">
        <ele>2033</ele>
        <time>2013-07-27T11:47:40Z</time>
      </trkpt>
      <trkpt lat="45.51288" lon="6.73082">
        <ele>2032</ele>
        <time>2013-07-27T11:47:45Z</time>
      </trkpt>
      <trkpt lat="45.51293" lon="6.73075">
        <ele>2031.4000244</ele>
        <time>2013-07-27T11:47:51Z</time>
      </trkpt>
      <trkpt lat="45.513" lon="6.73075">
        <ele>2030.8000488</ele>
        <time>2013-07-27T11:47:57Z</time>
      </trkpt>
      <trkpt lat="45.51309" lon="6.73075">
        <ele>2029.1999512</ele>
        <time>2013-07-27T11:48:06Z</time>
      </trkpt>
      <trkpt lat="45.51316" lon="6.73075">
        <ele>2027.8000488</ele>
        <time>2013-07-27T11:48:11Z</time>
      </trkpt>
      <trkpt lat="45.51324" lon="6.73067">
        <ele>2026</ele>
        <time>2013-07-27T11:48:18Z</time>
      </trkpt>
      <trkpt lat="45.51332" lon="6.7306">
        <ele>2025.5999756</ele>
        <time>2013-07-27T11:48:26Z</time>
      </trkpt>
      <trkpt lat="45.51337" lon="6.73064">
        <ele>2028.4000244</ele>
        <time>2013-07-27T11:48:41Z</time>
      </trkpt>
      <trkpt lat="45.51339" lon="6.73057">
        <ele>2030.4000244</ele>
        <time>2013-07-27T11:49:08Z</time>
      </trkpt>
      <trkpt lat="45.51344" lon="6.73052">
        <ele>2033</ele>
        <time>2013-07-27T11:49:23Z</time>
      </trkpt>
      <trkpt lat="45.51349" lon="6.73062">
        <ele>2034.1999512</ele>
        <time>2013-07-27T11:49:28Z</time>
      </trkpt>
      <trkpt lat="45.51355" lon="6.7307">
        <ele>2034</ele>
        <time>2013-07-27T11:49:33Z</time>
      </trkpt>
      <trkpt lat="45.5136" lon="6.73077">
        <ele>2032.8000488</ele>
        <time>2013-07-27T11:49:39Z</time>
      </trkpt>
      <trkpt lat="45.51365" lon="6.73086">
        <ele>2031.8000488</ele>
        <time>2013-07-27T11:49:46Z</time>
      </trkpt>
      <trkpt lat="45.51372" lon="6.7309">
        <ele>2032</ele>
        <time>2013-07-27T11:49:52Z</time>
      </trkpt>
      <trkpt lat="45.51381" lon="6.73094">
        <ele>2033.5999756</ele>
        <time>2013-07-27T11:50:00Z</time>
      </trkpt>
      <trkpt lat="45.51386" lon="6.731">
        <ele>2034.8000488</ele>
        <time>2013-07-27T11:50:06Z</time>
      </trkpt>
      <trkpt lat="45.51392" lon="6.73104">
        <ele>2037.1999512</ele>
        <time>2013-07-27T11:50:20Z</time>
      </trkpt>
      <trkpt lat="45.51399" lon="6.73105">
        <ele>2044.4000244</ele>
        <time>2013-07-27T11:50:34Z</time>
      </trkpt>
      <trkpt lat="45.51402" lon="6.73098">
        <ele>2046</ele>
        <time>2013-07-27T11:50:50Z</time>
      </trkpt>
      <trkpt lat="45.51405" lon="6.73092">
        <ele>2046.4000244</ele>
        <time>2013-07-27T11:51:02Z</time>
      </trkpt>
      <trkpt lat="45.51412" lon="6.7309">
        <ele>2047.8000488</ele>
        <time>2013-07-27T11:51:12Z</time>
      </trkpt>
      <trkpt lat="45.51418" lon="6.73088">
        <ele>2050.3999023</ele>
        <time>2013-07-27T11:51:23Z</time>
      </trkpt>
      <trkpt lat="45.51424" lon="6.73086">
        <ele>2053.8000488</ele>
        <time>2013-07-27T11:51:33Z</time>
      </trkpt>
      <trkpt lat="45.51432" lon="6.73085">
        <ele>2055.1999512</ele>
        <time>2013-07-27T11:51:45Z</time>
      </trkpt>
      <trkpt lat="45.51439" lon="6.73084">
        <ele>2058.1999512</ele>
        <time>2013-07-27T11:51:55Z</time>
      </trkpt>
      <trkpt lat="45.51447" lon="6.73084">
        <ele>2062.1999512</ele>
        <time>2013-07-27T11:52:08Z</time>
      </trkpt>
      <trkpt lat="45.51453" lon="6.73082">
        <ele>2066.1999512</ele>
        <time>2013-07-27T11:52:21Z</time>
      </trkpt>
      <trkpt lat="45.51459" lon="6.73085">
        <ele>2065.8000488</ele>
        <time>2013-07-27T11:52:28Z</time>
      </trkpt>
      <trkpt lat="45.51466" lon="6.73088">
        <ele>2065.6000977</ele>
        <time>2013-07-27T11:52:37Z</time>
      </trkpt>
      <trkpt lat="45.51473" lon="6.73093">
        <ele>2064.3999023</ele>
        <time>2013-07-27T11:52:43Z</time>
      </trkpt>
      <trkpt lat="45.51482" lon="6.73092">
        <ele>2062.6000977</ele>
        <time>2013-07-27T11:52:50Z</time>
      </trkpt>
      <trkpt lat="45.51489" lon="6.73098">
        <ele>2062.1999512</ele>
        <time>2013-07-27T11:52:56Z</time>
      </trkpt>
      <trkpt lat="45.51495" lon="6.731">
        <ele>2061.6000977</ele>
        <time>2013-07-27T11:53:01Z</time>
      </trkpt>
      <trkpt lat="45.51503" lon="6.73102">
        <ele>2060.6000977</ele>
        <time>2013-07-27T11:53:06Z</time>
      </trkpt>
      <trkpt lat="45.51509" lon="6.73108">
        <ele>2061.1999512</ele>
        <time>2013-07-27T11:53:11Z</time>
      </trkpt>
      <trkpt lat="45.51515" lon="6.73112">
        <ele>2062.6000977</ele>
        <time>2013-07-27T11:53:16Z</time>
      </trkpt>
      <trkpt lat="45.51525" lon="6.73114">
        <ele>2062.6000977</ele>
        <time>2013-07-27T11:53:23Z</time>
      </trkpt>
      <trkpt lat="45.51534" lon="6.73114">
        <ele>2062.1999512</ele>
        <time>2013-07-27T11:53:29Z</time>
      </trkpt>
      <trkpt lat="45.51542" lon="6.7311">
        <ele>2061.8000488</ele>
        <time>2013-07-27T11:53:34Z</time>
      </trkpt>
      <trkpt lat="45.51553" lon="6.73104">
        <ele>2060.6000977</ele>
        <time>2013-07-27T11:53:39Z</time>
      </trkpt>
      <trkpt lat="45.51561" lon="6.73105">
        <ele>2059.1999512</ele>
        <time>2013-07-27T11:53:43Z</time>
      </trkpt>
      <trkpt lat="45.5157" lon="6.73106">
        <ele>2057.6000977</ele>
        <time>2013-07-27T11:53:51Z</time>
      </trkpt>
      <trkpt lat="45.51576" lon="6.73107">
        <ele>2058.1999512</ele>
        <time>2013-07-27T11:53:56Z</time>
      </trkpt>
      <trkpt lat="45.51584" lon="6.73109">
        <ele>2059</ele>
        <time>2013-07-27T11:54:02Z</time>
      </trkpt>
      <trkpt lat="45.5159" lon="6.73117">
        <ele>2059.3999023</ele>
        <time>2013-07-27T11:54:09Z</time>
      </trkpt>
      <trkpt lat="45.51598" lon="6.73125">
        <ele>2058.6000977</ele>
        <time>2013-07-27T11:54:14Z</time>
      </trkpt>
      <trkpt lat="45.5161" lon="6.7313">
        <ele>2057.8000488</ele>
        <time>2013-07-27T11:54:20Z</time>
      </trkpt>
      <trkpt lat="45.51619" lon="6.73132">
        <ele>2057.6000977</ele>
        <time>2013-07-27T11:54:26Z</time>
      </trkpt>
      <trkpt lat="45.51631" lon="6.73137">
        <ele>2057.1999512</ele>
        <time>2013-07-27T11:54:32Z</time>
      </trkpt>
      <trkpt lat="45.51636" lon="6.73143">
        <ele>2057</ele>
        <time>2013-07-27T11:54:35Z</time>
      </trkpt>
      <trkpt lat="45.51645" lon="6.73148">
        <ele>2056.8000488</ele>
        <time>2013-07-27T11:54:40Z</time>
      </trkpt>
      <trkpt lat="45.5165" lon="6.73154">
        <ele>2056</ele>
        <time>2013-07-27T11:54:44Z</time>
      </trkpt>
      <trkpt lat="45.51659" lon="6.73165">
        <ele>2055.1999512</ele>
        <time>2013-07-27T11:54:50Z</time>
      </trkpt>
      <trkpt lat="45.51669" lon="6.73171">
        <ele>2055.3999023</ele>
        <time>2013-07-27T11:54:56Z</time>
      </trkpt>
      <trkpt lat="45.51675" lon="6.73175">
        <ele>2056.3999023</ele>
        <time>2013-07-27T11:55:02Z</time>
      </trkpt>
      <trkpt lat="45.51683" lon="6.7318">
        <ele>2057</ele>
        <time>2013-07-27T11:55:08Z</time>
      </trkpt>
      <trkpt lat="45.51693" lon="6.73181">
        <ele>2056.6000977</ele>
        <time>2013-07-27T11:55:13Z</time>
      </trkpt>
      <trkpt lat="45.51704" lon="6.73177">
        <ele>2055.1999512</ele>
        <time>2013-07-27T11:55:19Z</time>
      </trkpt>
      <trkpt lat="45.51712" lon="6.73171">
        <ele>2053.8000488</ele>
        <time>2013-07-27T11:55:24Z</time>
      </trkpt>
      <trkpt lat="45.51721" lon="6.73167">
        <ele>2052</ele>
        <time>2013-07-27T11:55:29Z</time>
      </trkpt>
      <trkpt lat="45.5173" lon="6.7316">
        <ele>2051.1999512</ele>
        <time>2013-07-27T11:55:35Z</time>
      </trkpt>
      <trkpt lat="45.5174" lon="6.73155">
        <ele>2049.8000488</ele>
        <time>2013-07-27T11:55:41Z</time>
      </trkpt>
      <trkpt lat="45.51746" lon="6.73152">
        <ele>2048.6000977</ele>
        <time>2013-07-27T11:55:45Z</time>
      </trkpt>
      <trkpt lat="45.51756" lon="6.73152">
        <ele>2048.3999023</ele>
        <time>2013-07-27T11:55:54Z</time>
      </trkpt>
      <trkpt lat="45.51764" lon="6.73152">
        <ele>2048.8000488</ele>
        <time>2013-07-27T11:56:00Z</time>
      </trkpt>
      <trkpt lat="45.51771" lon="6.73151">
        <ele>2050</ele>
        <time>2013-07-27T11:56:05Z</time>
      </trkpt>
      <trkpt lat="45.51779" lon="6.73154">
        <ele>2051</ele>
        <time>2013-07-27T11:56:12Z</time>
      </trkpt>
      <trkpt lat="45.51788" lon="6.73152">
        <ele>2052</ele>
        <time>2013-07-27T11:56:19Z</time>
      </trkpt>
      <trkpt lat="45.51794" lon="6.73146">
        <ele>2052.3999023</ele>
        <time>2013-07-27T11:56:26Z</time>
      </trkpt>
      <trkpt lat="45.51801" lon="6.73146">
        <ele>2051.3999023</ele>
        <time>2013-07-27T11:56:31Z</time>
      </trkpt>
      <trkpt lat="45.51809" lon="6.73144">
        <ele>2050.1999512</ele>
        <time>2013-07-27T11:56:36Z</time>
      </trkpt>
      <trkpt lat="45.5182" lon="6.73137">
        <ele>2049</ele>
        <time>2013-07-27T11:56:42Z</time>
      </trkpt>
      <trkpt lat="45.51831" lon="6.73136">
        <ele>2047.1999512</ele>
        <time>2013-07-27T11:56:47Z</time>
      </trkpt>
      <trkpt lat="45.5184" lon="6.73142">
        <ele>2046.8000488</ele>
        <time>2013-07-27T11:56:52Z</time>
      </trkpt>
      <trkpt lat="45.51846" lon="6.7314">
        <ele>2047.8000488</ele>
        <time>2013-07-27T11:56:56Z</time>
      </trkpt>
      <trkpt lat="45.51857" lon="6.7314">
        <ele>2047.8000488</ele>
        <time>2013-07-27T11:57:02Z</time>
      </trkpt>
      <trkpt lat="45.51869" lon="6.73142">
        <ele>2048</ele>
        <time>2013-07-27T11:57:08Z</time>
      </trkpt>
      <trkpt lat="45.51875" lon="6.73145">
        <ele>2049.6000977</ele>
        <time>2013-07-27T11:57:13Z</time>
      </trkpt>
      <trkpt lat="45.51882" lon="6.73146">
        <ele>2051.6000977</ele>
        <time>2013-07-27T11:57:18Z</time>
      </trkpt>
      <trkpt lat="45.51889" lon="6.73145">
        <ele>2052.6000977</ele>
        <time>2013-07-27T11:57:24Z</time>
      </trkpt>
      <trkpt lat="45.51895" lon="6.73141">
        <ele>2053.6000977</ele>
        <time>2013-07-27T11:57:31Z</time>
      </trkpt>
      <trkpt lat="45.51903" lon="6.73141">
        <ele>2057.1999512</ele>
        <time>2013-07-27T11:57:42Z</time>
      </trkpt>
      <trkpt lat="45.51909" lon="6.73143">
        <ele>2058.6000977</ele>
        <time>2013-07-27T11:57:50Z</time>
      </trkpt>
      <trkpt lat="45.51915" lon="6.73141">
        <ele>2059.6000977</ele>
        <time>2013-07-27T11:57:57Z</time>
      </trkpt>
      <trkpt lat="45.51923" lon="6.73138">
        <ele>2058.1999512</ele>
        <time>2013-07-27T11:58:05Z</time>
      </trkpt>
      <trkpt lat="45.5193" lon="6.73131">
        <ele>2056.1999512</ele>
        <time>2013-07-27T11:58:10Z</time>
      </trkpt>
      <trkpt lat="45.51937" lon="6.73124">
        <ele>2054</ele>
        <time>2013-07-27T11:58:15Z</time>
      </trkpt>
      <trkpt lat="45.51944" lon="6.73122">
        <ele>2052.3999023</ele>
        <time>2013-07-27T11:58:20Z</time>
      </trkpt>
      <trkpt lat="45.51951" lon="6.7312">
        <ele>2051.8000488</ele>
        <time>2013-07-27T11:58:25Z</time>
      </trkpt>
      <trkpt lat="45.5196" lon="6.73122">
        <ele>2052</ele>
        <time>2013-07-27T11:58:32Z</time>
      </trkpt>
      <trkpt lat="45.51969" lon="6.73121">
        <ele>2053.6000977</ele>
        <time>2013-07-27T11:58:39Z</time>
      </trkpt>
      <trkpt lat="45.51977" lon="6.73118">
        <ele>2054.1999512</ele>
        <time>2013-07-27T11:58:44Z</time>
      </trkpt>
      <trkpt lat="45.51984" lon="6.73117">
        <ele>2054.1999512</ele>
        <time>2013-07-27T11:58:49Z</time>
      </trkpt>
      <trkpt lat="45.51991" lon="6.73116">
        <ele>2053.6000977</ele>
        <time>2013-07-27T11:58:54Z</time>
      </trkpt>
      <trkpt lat="45.51997" lon="6.73112">
        <ele>2052.6000977</ele>
        <time>2013-07-27T11:58:59Z</time>
      </trkpt>
      <trkpt lat="45.52004" lon="6.7311">
        <ele>2050.8000488</ele>
        <time>2013-07-27T11:59:04Z</time>
      </trkpt>
      <trkpt lat="45.52013" lon="6.73108">
        <ele>2049.6000977</ele>
        <time>2013-07-27T11:59:09Z</time>
      </trkpt>
      <trkpt lat="45.5202" lon="6.73112">
        <ele>2049</ele>
        <time>2013-07-27T11:59:17Z</time>
      </trkpt>
      <trkpt lat="45.52029" lon="6.73113">
        <ele>2049.6000977</ele>
        <time>2013-07-27T11:59:25Z</time>
      </trkpt>
      <trkpt lat="45.52037" lon="6.73113">
        <ele>2050.6000977</ele>
        <time>2013-07-27T11:59:31Z</time>
      </trkpt>
      <trkpt lat="45.52044" lon="6.73109">
        <ele>2051.6000977</ele>
        <time>2013-07-27T11:59:37Z</time>
      </trkpt>
      <trkpt lat="45.52047" lon="6.73098">
        <ele>2051.6000977</ele>
        <time>2013-07-27T11:59:46Z</time>
      </trkpt>
      <trkpt lat="45.52046" lon="6.73089">
        <ele>2051.1999512</ele>
        <time>2013-07-27T11:59:57Z</time>
      </trkpt>
      <trkpt lat="45.52042" lon="6.73081">
        <ele>2051.6000977</ele>
        <time>2013-07-27T12:00:06Z</time>
      </trkpt>
      <trkpt lat="45.52042" lon="6.73071">
        <ele>2053.3999023</ele>
        <time>2013-07-27T12:00:58Z</time>
      </trkpt>
      <trkpt lat="45.52044" lon="6.73062">
        <ele>2054</ele>
        <time>2013-07-27T12:01:03Z</time>
      </trkpt>
      <trkpt lat="45.52052" lon="6.73046">
        <ele>2054.3999023</ele>
        <time>2013-07-27T12:01:13Z</time>
      </trkpt>
      <trkpt lat="45.52053" lon="6.73037">
        <ele>2054.6000977</ele>
        <time>2013-07-27T12:01:18Z</time>
      </trkpt>
      <trkpt lat="45.52054" lon="6.73027">
        <ele>2056.3999023</ele>
        <time>2013-07-27T12:01:26Z</time>
      </trkpt>
      <trkpt lat="45.52061" lon="6.73023">
        <ele>2058</ele>
        <time>2013-07-27T12:01:35Z</time>
      </trkpt>
      <trkpt lat="45.52063" lon="6.73014">
        <ele>2059.6000977</ele>
        <time>2013-07-27T12:01:46Z</time>
      </trkpt>
      <trkpt lat="45.52066" lon="6.73008">
        <ele>2063</ele>
        <time>2013-07-27T12:01:54Z</time>
      </trkpt>
      <trkpt lat="45.52066" lon="6.73">
        <ele>2064</ele>
        <time>2013-07-27T12:02:05Z</time>
      </trkpt>
      <trkpt lat="45.52068" lon="6.72994">
        <ele>2068</ele>
        <time>2013-07-27T12:02:15Z</time>
      </trkpt>
      <trkpt lat="45.5207" lon="6.72988">
        <ele>2069.3999023</ele>
        <time>2013-07-27T12:02:27Z</time>
      </trkpt>
      <trkpt lat="45.52073" lon="6.72979">
        <ele>2070.8000488</ele>
        <time>2013-07-27T12:02:36Z</time>
      </trkpt>
      <trkpt lat="45.52078" lon="6.72971">
        <ele>2071.3999023</ele>
        <time>2013-07-27T12:02:44Z</time>
      </trkpt>
      <trkpt lat="45.52082" lon="6.72964">
        <ele>2072.3999023</ele>
        <time>2013-07-27T12:02:54Z</time>
      </trkpt>
      <trkpt lat="45.52086" lon="6.72957">
        <ele>2073.8000488</ele>
        <time>2013-07-27T12:03:03Z</time>
      </trkpt>
      <trkpt lat="45.52091" lon="6.7295">
        <ele>2072.8000488</ele>
        <time>2013-07-27T12:03:11Z</time>
      </trkpt>
      <trkpt lat="45.52097" lon="6.72943">
        <ele>2072.6000977</ele>
        <time>2013-07-27T12:03:18Z</time>
      </trkpt>
      <trkpt lat="45.52104" lon="6.72937">
        <ele>2073.6000977</ele>
        <time>2013-07-27T12:03:27Z</time>
      </trkpt>
      <trkpt lat="45.52112" lon="6.72936">
        <ele>2077</ele>
        <time>2013-07-27T12:03:35Z</time>
      </trkpt>
      <trkpt lat="45.52118" lon="6.72939">
        <ele>2080</ele>
        <time>2013-07-27T12:03:42Z</time>
      </trkpt>
      <trkpt lat="45.52124" lon="6.72932">
        <ele>2082.1999512</ele>
        <time>2013-07-27T12:03:51Z</time>
      </trkpt>
      <trkpt lat="45.5213" lon="6.72926">
        <ele>2082.1999512</ele>
        <time>2013-07-27T12:04:00Z</time>
      </trkpt>
      <trkpt lat="45.52135" lon="6.72917">
        <ele>2082.8000488</ele>
        <time>2013-07-27T12:04:09Z</time>
      </trkpt>
      <trkpt lat="45.52139" lon="6.72906">
        <ele>2084.6000977</ele>
        <time>2013-07-27T12:04:17Z</time>
      </trkpt>
      <trkpt lat="45.52144" lon="6.72894">
        <ele>2086.1999512</ele>
        <time>2013-07-27T12:04:26Z</time>
      </trkpt>
      <trkpt lat="45.52151" lon="6.72889">
        <ele>2083.3999023</ele>
        <time>2013-07-27T12:04:34Z</time>
      </trkpt>
      <trkpt lat="45.5216" lon="6.72887">
        <ele>2084.3999023</ele>
        <time>2013-07-27T12:04:42Z</time>
      </trkpt>
      <trkpt lat="45.52166" lon="6.72883">
        <ele>2085.3999023</ele>
        <time>2013-07-27T12:04:48Z</time>
      </trkpt>
      <trkpt lat="45.52172" lon="6.72875">
        <ele>2086.1999512</ele>
        <time>2013-07-27T12:04:56Z</time>
      </trkpt>
      <trkpt lat="45.52176" lon="6.72866">
        <ele>2089.8000488</ele>
        <time>2013-07-27T12:05:06Z</time>
      </trkpt>
      <trkpt lat="45.52179" lon="6.72862">
        <ele>2093.6000977</ele>
        <time>2013-07-27T12:05:16Z</time>
      </trkpt>
      <trkpt lat="45.52182" lon="6.72856">
        <ele>2097.1999512</ele>
        <time>2013-07-27T12:05:27Z</time>
      </trkpt>
      <trkpt lat="45.5218" lon="6.72847">
        <ele>2100.6000977</ele>
        <time>2013-07-27T12:05:38Z</time>
      </trkpt>
      <trkpt lat="45.52175" lon="6.72841">
        <ele>2103.1999512</ele>
        <time>2013-07-27T12:05:52Z</time>
      </trkpt>
      <trkpt lat="45.52174" lon="6.72833">
        <ele>2105.3999023</ele>
        <time>2013-07-27T12:06:01Z</time>
      </trkpt>
      <trkpt lat="45.52177" lon="6.72819">
        <ele>2105.3999023</ele>
        <time>2013-07-27T12:06:11Z</time>
      </trkpt>
      <trkpt lat="45.52181" lon="6.72808">
        <ele>2104.3999023</ele>
        <time>2013-07-27T12:06:21Z</time>
      </trkpt>
      <trkpt lat="45.52185" lon="6.72798">
        <ele>2105</ele>
        <time>2013-07-27T12:06:29Z</time>
      </trkpt>
      <trkpt lat="45.5219" lon="6.7279">
        <ele>2106.1999512</ele>
        <time>2013-07-27T12:06:35Z</time>
      </trkpt>
      <trkpt lat="45.52196" lon="6.72785">
        <ele>2107.8000488</ele>
        <time>2013-07-27T12:06:41Z</time>
      </trkpt>
      <trkpt lat="45.52203" lon="6.72778">
        <ele>2106.1999512</ele>
        <time>2013-07-27T12:06:50Z</time>
      </trkpt>
      <trkpt lat="45.52208" lon="6.72771">
        <ele>2105.8000488</ele>
        <time>2013-07-27T12:06:57Z</time>
      </trkpt>
      <trkpt lat="45.52214" lon="6.72766">
        <ele>2106</ele>
        <time>2013-07-27T12:07:03Z</time>
      </trkpt>
      <trkpt lat="45.52221" lon="6.72763">
        <ele>2105.1999512</ele>
        <time>2013-07-27T12:07:10Z</time>
      </trkpt>
      <trkpt lat="45.52229" lon="6.72761">
        <ele>2106</ele>
        <time>2013-07-27T12:07:18Z</time>
      </trkpt>
      <trkpt lat="45.52237" lon="6.72757">
        <ele>2109</ele>
        <time>2013-07-27T12:07:28Z</time>
      </trkpt>
      <trkpt lat="45.52245" lon="6.7275">
        <ele>2109.3999023</ele>
        <time>2013-07-27T12:07:36Z</time>
      </trkpt>
      <trkpt lat="45.5225" lon="6.72743">
        <ele>2109.6000977</ele>
        <time>2013-07-27T12:07:41Z</time>
      </trkpt>
      <trkpt lat="45.52256" lon="6.72735">
        <ele>2111.1999512</ele>
        <time>2013-07-27T12:07:48Z</time>
      </trkpt>
      <trkpt lat="45.52262" lon="6.72731">
        <ele>2114.3999023</ele>
        <time>2013-07-27T12:07:55Z</time>
      </trkpt>
      <trkpt lat="45.52269" lon="6.72729">
        <ele>2118</ele>
        <time>2013-07-27T12:08:02Z</time>
      </trkpt>
      <trkpt lat="45.52276" lon="6.72725">
        <ele>2121.6000977</ele>
        <time>2013-07-27T12:08:10Z</time>
      </trkpt>
      <trkpt lat="45.52284" lon="6.72723">
        <ele>2125.6000977</ele>
        <time>2013-07-27T12:08:19Z</time>
      </trkpt>
      <trkpt lat="45.52292" lon="6.72719">
        <ele>2127.3999023</ele>
        <time>2013-07-27T12:08:27Z</time>
      </trkpt>
      <trkpt lat="45.52298" lon="6.72714">
        <ele>2127.6000977</ele>
        <time>2013-07-27T12:08:33Z</time>
      </trkpt>
      <trkpt lat="45.52306" lon="6.7271">
        <ele>2127.6000977</ele>
        <time>2013-07-27T12:08:40Z</time>
      </trkpt>
      <trkpt lat="45.52312" lon="6.72705">
        <ele>2129.6000977</ele>
        <time>2013-07-27T12:08:47Z</time>
      </trkpt>
      <trkpt lat="45.52317" lon="6.72701">
        <ele>2130.6000977</ele>
        <time>2013-07-27T12:08:54Z</time>
      </trkpt>
      <trkpt lat="45.52324" lon="6.72699">
        <ele>2131.8000488</ele>
        <time>2013-07-27T12:09:04Z</time>
      </trkpt>
      <trkpt lat="45.5233" lon="6.72694">
        <ele>2134.1999512</ele>
        <time>2013-07-27T12:09:14Z</time>
      </trkpt>
      <trkpt lat="45.52338" lon="6.72691">
        <ele>2136.3999023</ele>
        <time>2013-07-27T12:09:24Z</time>
      </trkpt>
      <trkpt lat="45.52344" lon="6.72685">
        <ele>2139.3999023</ele>
        <time>2013-07-27T12:09:34Z</time>
      </trkpt>
      <trkpt lat="45.52349" lon="6.7268">
        <ele>2142.1999512</ele>
        <time>2013-07-27T12:09:43Z</time>
      </trkpt>
      <trkpt lat="45.52356" lon="6.72675">
        <ele>2142.6000977</ele>
        <time>2013-07-27T12:09:52Z</time>
      </trkpt>
      <trkpt lat="45.52364" lon="6.72671">
        <ele>2142.1999512</ele>
        <time>2013-07-27T12:10:02Z</time>
      </trkpt>
      <trkpt lat="45.5237" lon="6.72666">
        <ele>2142.8000488</ele>
        <time>2013-07-27T12:10:12Z</time>
      </trkpt>
      <trkpt lat="45.52374" lon="6.72657">
        <ele>2147.6000977</ele>
        <time>2013-07-27T12:10:23Z</time>
      </trkpt>
      <trkpt lat="45.52377" lon="6.72645">
        <ele>2148.8000488</ele>
        <time>2013-07-27T12:10:35Z</time>
      </trkpt>
      <trkpt lat="45.52378" lon="6.72635">
        <ele>2150.8000488</ele>
        <time>2013-07-27T12:10:45Z</time>
      </trkpt>
      <trkpt lat="45.5238" lon="6.72624">
        <ele>2153.8000488</ele>
        <time>2013-07-27T12:10:53Z</time>
      </trkpt>
      <trkpt lat="45.5238" lon="6.72614">
        <ele>2156.3999023</ele>
        <time>2013-07-27T12:11:01Z</time>
      </trkpt>
      <trkpt lat="45.52382" lon="6.72603">
        <ele>2157.8000488</ele>
        <time>2013-07-27T12:11:11Z</time>
      </trkpt>
      <trkpt lat="45.52382" lon="6.72593">
        <ele>2159.3999023</ele>
        <time>2013-07-27T12:11:19Z</time>
      </trkpt>
      <trkpt lat="45.52381" lon="6.72583">
        <ele>2161.3999023</ele>
        <time>2013-07-27T12:11:28Z</time>
      </trkpt>
      <trkpt lat="45.52381" lon="6.72573">
        <ele>2164.6000977</ele>
        <time>2013-07-27T12:11:35Z</time>
      </trkpt>
      <trkpt lat="45.52381" lon="6.72563">
        <ele>2169.1999512</ele>
        <time>2013-07-27T12:11:45Z</time>
      </trkpt>
      <trkpt lat="45.5238" lon="6.72554">
        <ele>2171.6000977</ele>
        <time>2013-07-27T12:11:53Z</time>
      </trkpt>
      <trkpt lat="45.52379" lon="6.72544">
        <ele>2170.6000977</ele>
        <time>2013-07-27T12:12:01Z</time>
      </trkpt>
      <trkpt lat="45.52379" lon="6.72534">
        <ele>2169</ele>
        <time>2013-07-27T12:12:09Z</time>
      </trkpt>
      <trkpt lat="45.52377" lon="6.72525">
        <ele>2169.6000977</ele>
        <time>2013-07-27T12:12:19Z</time>
      </trkpt>
      <trkpt lat="45.52376" lon="6.72514">
        <ele>2174.1999512</ele>
        <time>2013-07-27T12:12:32Z</time>
      </trkpt>
      <trkpt lat="45.52373" lon="6.72506">
        <ele>2175.6000977</ele>
        <time>2013-07-27T12:12:40Z</time>
      </trkpt>
      <trkpt lat="45.52371" lon="6.72495">
        <ele>2178.8000488</ele>
        <time>2013-07-27T12:12:50Z</time>
      </trkpt>
      <trkpt lat="45.5237" lon="6.72485">
        <ele>2181.3999023</ele>
        <time>2013-07-27T12:12:58Z</time>
      </trkpt>
      <trkpt lat="45.52367" lon="6.72473">
        <ele>2181</ele>
        <time>2013-07-27T12:13:06Z</time>
      </trkpt>
      <trkpt lat="45.52364" lon="6.72464">
        <ele>2181.3999023</ele>
        <time>2013-07-27T12:13:12Z</time>
      </trkpt>
      <trkpt lat="45.52361" lon="6.72455">
        <ele>2184.6000977</ele>
        <time>2013-07-27T12:13:19Z</time>
      </trkpt>
      <trkpt lat="45.52357" lon="6.72447">
        <ele>2185.8000488</ele>
        <time>2013-07-27T12:13:24Z</time>
      </trkpt>
      <trkpt lat="45.52355" lon="6.72436">
        <ele>2186.6000977</ele>
        <time>2013-07-27T12:13:30Z</time>
      </trkpt>
      <trkpt lat="45.52351" lon="6.72428">
        <ele>2187.6000977</ele>
        <time>2013-07-27T12:13:36Z</time>
      </trkpt>
      <trkpt lat="45.52347" lon="6.7242">
        <ele>2188.1999512</ele>
        <time>2013-07-27T12:13:42Z</time>
      </trkpt>
      <trkpt lat="45.52344" lon="6.72407">
        <ele>2187.3999023</ele>
        <time>2013-07-27T12:13:50Z</time>
      </trkpt>
      <trkpt lat="45.52342" lon="6.72396">
        <ele>2186.6000977</ele>
        <time>2013-07-27T12:13:57Z</time>
      </trkpt>
      <trkpt lat="45.5234" lon="6.72384">
        <ele>2186.8000488</ele>
        <time>2013-07-27T12:14:06Z</time>
      </trkpt>
      <trkpt lat="45.52333" lon="6.72377">
        <ele>2187.8000488</ele>
        <time>2013-07-27T12:14:14Z</time>
      </trkpt>
      <trkpt lat="45.52331" lon="6.72368">
        <ele>2188.3999023</ele>
        <time>2013-07-27T12:14:21Z</time>
      </trkpt>
      <trkpt lat="45.52328" lon="6.72359">
        <ele>2189.8000488</ele>
        <time>2013-07-27T12:14:29Z</time>
      </trkpt>
      <trkpt lat="45.52327" lon="6.72349">
        <ele>2191.3999023</ele>
        <time>2013-07-27T12:14:36Z</time>
      </trkpt>
      <trkpt lat="45.52327" lon="6.72338">
        <ele>2193.6000977</ele>
        <time>2013-07-27T12:14:47Z</time>
      </trkpt>
      <trkpt lat="45.52325" lon="6.72328">
        <ele>2195</ele>
        <time>2013-07-27T12:14:56Z</time>
      </trkpt>
      <trkpt lat="45.52323" lon="6.72318">
        <ele>2195.6000977</ele>
        <time>2013-07-27T12:15:02Z</time>
      </trkpt>
      <trkpt lat="45.5232" lon="6.72308">
        <ele>2196.1999512</ele>
        <time>2013-07-27T12:15:08Z</time>
      </trkpt>
      <trkpt lat="45.52314" lon="6.723">
        <ele>2198.1999512</ele>
        <time>2013-07-27T12:15:18Z</time>
      </trkpt>
      <trkpt lat="45.5231" lon="6.72293">
        <ele>2199</ele>
        <time>2013-07-27T12:15:23Z</time>
      </trkpt>
      <trkpt lat="45.52312" lon="6.7228">
        <ele>2199.1999512</ele>
        <time>2013-07-27T12:15:29Z</time>
      </trkpt>
      <trkpt lat="45.52314" lon="6.72272">
        <ele>2198.8000488</ele>
        <time>2013-07-27T12:15:34Z</time>
      </trkpt>
      <trkpt lat="45.52319" lon="6.72268">
        <ele>2196.8000488</ele>
        <time>2013-07-27T12:15:42Z</time>
      </trkpt>
      <trkpt lat="45.52317" lon="6.72271">
        <ele>2194.3999023</ele>
        <time>2013-07-27T12:16:20Z</time>
      </trkpt>
      <trkpt lat="45.52326" lon="6.72271">
        <ele>2193</ele>
        <time>2013-07-27T12:16:28Z</time>
      </trkpt>
      <trkpt lat="45.52333" lon="6.72272">
        <ele>2192</ele>
        <time>2013-07-27T12:16:34Z</time>
      </trkpt>
      <trkpt lat="45.5234" lon="6.7227">
        <ele>2190.8000488</ele>
        <time>2013-07-27T12:16:38Z</time>
      </trkpt>
      <trkpt lat="45.52349" lon="6.72267">
        <ele>2187</ele>
        <time>2013-07-27T12:16:45Z</time>
      </trkpt>
      <trkpt lat="45.52356" lon="6.72263">
        <ele>2183.1999512</ele>
        <time>2013-07-27T12:16:50Z</time>
      </trkpt>
      <trkpt lat="45.52364" lon="6.72261">
        <ele>2179.8000488</ele>
        <time>2013-07-27T12:16:56Z</time>
      </trkpt>
      <trkpt lat="45.52371" lon="6.72259">
        <ele>2176.3999023</ele>
        <time>2013-07-27T12:17:01Z</time>
      </trkpt>
      <trkpt lat="45.52378" lon="6.72256">
        <ele>2173.3999023</ele>
        <time>2013-07-27T12:17:06Z</time>
      </trkpt>
      <trkpt lat="45.52386" lon="6.72252">
        <ele>2170.1999512</ele>
        <time>2013-07-27T12:17:11Z</time>
      </trkpt>
      <trkpt lat="45.52395" lon="6.72254">
        <ele>2167</ele>
        <time>2013-07-27T12:17:17Z</time>
      </trkpt>
      <trkpt lat="45.52403" lon="6.72253">
        <ele>2163.1999512</ele>
        <time>2013-07-27T12:17:23Z</time>
      </trkpt>
      <trkpt lat="45.5241" lon="6.72254">
        <ele>2162</ele>
        <time>2013-07-27T12:17:28Z</time>
      </trkpt>
      <trkpt lat="45.52417" lon="6.72253">
        <ele>2161.8000488</ele>
        <time>2013-07-27T12:17:33Z</time>
      </trkpt>
      <trkpt lat="45.52426" lon="6.72247">
        <ele>2163</ele>
        <time>2013-07-27T12:17:41Z</time>
      </trkpt>
      <trkpt lat="45.52436" lon="6.72245">
        <ele>2163.6000977</ele>
        <time>2013-07-27T12:17:49Z</time>
      </trkpt>
      <trkpt lat="45.52444" lon="6.72243">
        <ele>2164.8000488</ele>
        <time>2013-07-27T12:17:56Z</time>
      </trkpt>
      <trkpt lat="45.52451" lon="6.72243">
        <ele>2169.8000488</ele>
        <time>2013-07-27T12:18:04Z</time>
      </trkpt>
      <trkpt lat="45.52455" lon="6.72252">
        <ele>2174.8000488</ele>
        <time>2013-07-27T12:18:12Z</time>
      </trkpt>
      <trkpt lat="45.52463" lon="6.7225">
        <ele>2178.6000977</ele>
        <time>2013-07-27T12:18:21Z</time>
      </trkpt>
      <trkpt lat="45.52471" lon="6.72246">
        <ele>2182</ele>
        <time>2013-07-27T12:18:30Z</time>
      </trkpt>
      <trkpt lat="45.52477" lon="6.72245">
        <ele>2187.3999023</ele>
        <time>2013-07-27T12:18:39Z</time>
      </trkpt>
      <trkpt lat="45.52484" lon="6.72245">
        <ele>2190.1999512</ele>
        <time>2013-07-27T12:18:48Z</time>
      </trkpt>
      <trkpt lat="45.52492" lon="6.72244">
        <ele>2193.3999023</ele>
        <time>2013-07-27T12:18:57Z</time>
      </trkpt>
      <trkpt lat="45.52499" lon="6.72247">
        <ele>2193</ele>
        <time>2013-07-27T12:19:04Z</time>
      </trkpt>
      <trkpt lat="45.52504" lon="6.72256">
        <ele>2193.1999512</ele>
        <time>2013-07-27T12:19:12Z</time>
      </trkpt>
      <trkpt lat="45.52508" lon="6.72265">
        <ele>2198.1999512</ele>
        <time>2013-07-27T12:19:21Z</time>
      </trkpt>
      <trkpt lat="45.52514" lon="6.72269">
        <ele>2201.3999023</ele>
        <time>2013-07-27T12:19:31Z</time>
      </trkpt>
      <trkpt lat="45.52521" lon="6.72264">
        <ele>2204.3999023</ele>
        <time>2013-07-27T12:19:42Z</time>
      </trkpt>
      <trkpt lat="45.52527" lon="6.72268">
        <ele>2209.3999023</ele>
        <time>2013-07-27T12:19:54Z</time>
      </trkpt>
      <trkpt lat="45.52532" lon="6.72273">
        <ele>2213</ele>
        <time>2013-07-27T12:20:05Z</time>
      </trkpt>
      <trkpt lat="45.52538" lon="6.72273">
        <ele>2214</ele>
        <time>2013-07-27T12:20:15Z</time>
      </trkpt>
      <trkpt lat="45.52545" lon="6.72273">
        <ele>2217.6000977</ele>
        <time>2013-07-27T12:20:30Z</time>
      </trkpt>
      <trkpt lat="45.52551" lon="6.72278">
        <ele>2220.6000977</ele>
        <time>2013-07-27T12:20:44Z</time>
      </trkpt>
      <trkpt lat="45.52557" lon="6.72277">
        <ele>2221.8000488</ele>
        <time>2013-07-27T12:20:53Z</time>
      </trkpt>
      <trkpt lat="45.52565" lon="6.72276">
        <ele>2225.8000488</ele>
        <time>2013-07-27T12:21:06Z</time>
      </trkpt>
      <trkpt lat="45.52573" lon="6.72277">
        <ele>2227.8000488</ele>
        <time>2013-07-27T12:21:18Z</time>
      </trkpt>
      <trkpt lat="45.52573" lon="6.72271">
        <ele>2230.6000977</ele>
        <time>2013-07-27T12:21:28Z</time>
      </trkpt>
      <trkpt lat="45.52569" lon="6.72264">
        <ele>2233.3999023</ele>
        <time>2013-07-27T12:21:37Z</time>
      </trkpt>
      <trkpt lat="45.52565" lon="6.72257">
        <ele>2238.8000488</ele>
        <time>2013-07-27T12:21:51Z</time>
      </trkpt>
      <trkpt lat="45.52562" lon="6.72248">
        <ele>2243.8000488</ele>
        <time>2013-07-27T12:22:02Z</time>
      </trkpt>
      <trkpt lat="45.52556" lon="6.7224">
        <ele>2247</ele>
        <time>2013-07-27T12:22:14Z</time>
      </trkpt>
      <trkpt lat="45.52555" lon="6.72231">
        <ele>2247</ele>
        <time>2013-07-27T12:22:25Z</time>
      </trkpt>
      <trkpt lat="45.52555" lon="6.7222">
        <ele>2249.8000488</ele>
        <time>2013-07-27T12:22:37Z</time>
      </trkpt>
      <trkpt lat="45.52552" lon="6.72211">
        <ele>2250.8000488</ele>
        <time>2013-07-27T12:22:48Z</time>
      </trkpt>
      <trkpt lat="45.5255" lon="6.72201">
        <ele>2252.8000488</ele>
        <time>2013-07-27T12:22:59Z</time>
      </trkpt>
      <trkpt lat="45.52547" lon="6.72191">
        <ele>2254.1999512</ele>
        <time>2013-07-27T12:23:08Z</time>
      </trkpt>
      <trkpt lat="45.52544" lon="6.72182">
        <ele>2256</ele>
        <time>2013-07-27T12:23:18Z</time>
      </trkpt>
      <trkpt lat="45.5254" lon="6.72175">
        <ele>2259.8000488</ele>
        <time>2013-07-27T12:23:27Z</time>
      </trkpt>
      <trkpt lat="45.52537" lon="6.72166">
        <ele>2261.3999023</ele>
        <time>2013-07-27T12:23:36Z</time>
      </trkpt>
      <trkpt lat="45.52533" lon="6.72156">
        <ele>2262.1999512</ele>
        <time>2013-07-27T12:23:47Z</time>
      </trkpt>
      <trkpt lat="45.52526" lon="6.72151">
        <ele>2265</ele>
        <time>2013-07-27T12:23:59Z</time>
      </trkpt>
      <trkpt lat="45.52521" lon="6.72143">
        <ele>2265.3999023</ele>
        <time>2013-07-27T12:24:10Z</time>
      </trkpt>
      <trkpt lat="45.52517" lon="6.72136">
        <ele>2266.1999512</ele>
        <time>2013-07-27T12:24:17Z</time>
      </trkpt>
      <trkpt lat="45.52511" lon="6.72132">
        <ele>2267.1999512</ele>
        <time>2013-07-27T12:24:26Z</time>
      </trkpt>
      <trkpt lat="45.52505" lon="6.72128">
        <ele>2268</ele>
        <time>2013-07-27T12:24:32Z</time>
      </trkpt>
      <trkpt lat="45.52498" lon="6.72122">
        <ele>2268.6000977</ele>
        <time>2013-07-27T12:24:38Z</time>
      </trkpt>
      <trkpt lat="45.52494" lon="6.72113">
        <ele>2268</ele>
        <time>2013-07-27T12:24:43Z</time>
      </trkpt>
      <trkpt lat="45.52493" lon="6.72103">
        <ele>2267.1999512</ele>
        <time>2013-07-27T12:24:49Z</time>
      </trkpt>
      <trkpt lat="45.52489" lon="6.72092">
        <ele>2268</ele>
        <time>2013-07-27T12:24:56Z</time>
      </trkpt>
      <trkpt lat="45.52486" lon="6.72084">
        <ele>2268.8000488</ele>
        <time>2013-07-27T12:25:02Z</time>
      </trkpt>
      <trkpt lat="45.52481" lon="6.72077">
        <ele>2269.1999512</ele>
        <time>2013-07-27T12:25:09Z</time>
      </trkpt>
      <trkpt lat="45.52475" lon="6.72072">
        <ele>2269.6000977</ele>
        <time>2013-07-27T12:25:14Z</time>
      </trkpt>
      <trkpt lat="45.52471" lon="6.72064">
        <ele>2269</ele>
        <time>2013-07-27T12:25:19Z</time>
      </trkpt>
      <trkpt lat="45.52465" lon="6.72058">
        <ele>2268.3999023</ele>
        <time>2013-07-27T12:25:25Z</time>
      </trkpt>
      <trkpt lat="45.5246" lon="6.72053">
        <ele>2268.3999023</ele>
        <time>2013-07-27T12:25:30Z</time>
      </trkpt>
      <trkpt lat="45.52454" lon="6.72048">
        <ele>2269</ele>
        <time>2013-07-27T12:25:35Z</time>
      </trkpt>
      <trkpt lat="45.52449" lon="6.72042">
        <ele>2272.6000977</ele>
        <time>2013-07-27T12:25:45Z</time>
      </trkpt>
      <trkpt lat="45.52444" lon="6.72035">
        <ele>2273.3999023</ele>
        <time>2013-07-27T12:25:55Z</time>
      </trkpt>
      <trkpt lat="45.5244" lon="6.72029">
        <ele>2277.8000488</ele>
        <time>2013-07-27T12:26:04Z</time>
      </trkpt>
      <trkpt lat="45.52433" lon="6.72021">
        <ele>2280.6000977</ele>
        <time>2013-07-27T12:26:14Z</time>
      </trkpt>
      <trkpt lat="45.52429" lon="6.72013">
        <ele>2280.1999512</ele>
        <time>2013-07-27T12:26:21Z</time>
      </trkpt>
      <trkpt lat="45.52427" lon="6.72004">
        <ele>2279.6000977</ele>
        <time>2013-07-27T12:26:30Z</time>
      </trkpt>
      <trkpt lat="45.52428" lon="6.71997">
        <ele>2280</ele>
        <time>2013-07-27T12:26:39Z</time>
      </trkpt>
      <trkpt lat="45.52426" lon="6.7199">
        <ele>2283.1999512</ele>
        <time>2013-07-27T12:26:47Z</time>
      </trkpt>
      <trkpt lat="45.52421" lon="6.71984">
        <ele>2284.3999023</ele>
        <time>2013-07-27T12:26:55Z</time>
      </trkpt>
      <trkpt lat="45.52415" lon="6.71978">
        <ele>2288</ele>
        <time>2013-07-27T12:27:05Z</time>
      </trkpt>
      <trkpt lat="45.52412" lon="6.7197">
        <ele>2290</ele>
        <time>2013-07-27T12:27:15Z</time>
      </trkpt>
      <trkpt lat="45.52409" lon="6.7196">
        <ele>2291.8000488</ele>
        <time>2013-07-27T12:27:27Z</time>
      </trkpt>
      <trkpt lat="45.52403" lon="6.71951">
        <ele>2291.3999023</ele>
        <time>2013-07-27T12:27:40Z</time>
      </trkpt>
      <trkpt lat="45.52396" lon="6.71945">
        <ele>2291.6000977</ele>
        <time>2013-07-27T12:27:47Z</time>
      </trkpt>
      <trkpt lat="45.52391" lon="6.71939">
        <ele>2293.1999512</ele>
        <time>2013-07-27T12:27:54Z</time>
      </trkpt>
      <trkpt lat="45.52386" lon="6.71934">
        <ele>2295.8000488</ele>
        <time>2013-07-27T12:28:01Z</time>
      </trkpt>
      <trkpt lat="45.5238" lon="6.71929">
        <ele>2297.3999023</ele>
        <time>2013-07-27T12:28:08Z</time>
      </trkpt>
      <trkpt lat="45.52377" lon="6.71922">
        <ele>2299.1999512</ele>
        <time>2013-07-27T12:28:18Z</time>
      </trkpt>
      <trkpt lat="45.52372" lon="6.71915">
        <ele>2303.1999512</ele>
        <time>2013-07-27T12:28:31Z</time>
      </trkpt>
      <trkpt lat="45.52369" lon="6.71907">
        <ele>2308</ele>
        <time>2013-07-27T12:28:51Z</time>
      </trkpt>
      <trkpt lat="45.52372" lon="6.71898">
        <ele>2310.1999512</ele>
        <time>2013-07-27T12:29:04Z</time>
      </trkpt>
      <trkpt lat="45.52375" lon="6.7189">
        <ele>2309.8000488</ele>
        <time>2013-07-27T12:29:12Z</time>
      </trkpt>
      <trkpt lat="45.52376" lon="6.7188">
        <ele>2309.8000488</ele>
        <time>2013-07-27T12:29:24Z</time>
      </trkpt>
      <trkpt lat="45.52376" lon="6.71864">
        <ele>2310.8000488</ele>
        <time>2013-07-27T12:29:40Z</time>
      </trkpt>
      <trkpt lat="45.52373" lon="6.71853">
        <ele>2311.8000488</ele>
        <time>2013-07-27T12:29:50Z</time>
      </trkpt>
      <trkpt lat="45.52371" lon="6.71843">
        <ele>2312.6000977</ele>
        <time>2013-07-27T12:29:58Z</time>
      </trkpt>
      <trkpt lat="45.52368" lon="6.7183">
        <ele>2314.6000977</ele>
        <time>2013-07-27T12:30:08Z</time>
      </trkpt>
      <trkpt lat="45.52366" lon="6.7182">
        <ele>2316.1999512</ele>
        <time>2013-07-27T12:30:16Z</time>
      </trkpt>
      <trkpt lat="45.52364" lon="6.71811">
        <ele>2317.3999023</ele>
        <time>2013-07-27T12:30:23Z</time>
      </trkpt>
      <trkpt lat="45.52362" lon="6.71802">
        <ele>2319</ele>
        <time>2013-07-27T12:30:31Z</time>
      </trkpt>
      <trkpt lat="45.52359" lon="6.71793">
        <ele>2320.3999023</ele>
        <time>2013-07-27T12:30:39Z</time>
      </trkpt>
      <trkpt lat="45.52354" lon="6.71786">
        <ele>2322</ele>
        <time>2013-07-27T12:30:48Z</time>
      </trkpt>
      <trkpt lat="45.52349" lon="6.71781">
        <ele>2325.8000488</ele>
        <time>2013-07-27T12:30:59Z</time>
      </trkpt>
      <trkpt lat="45.52345" lon="6.71771">
        <ele>2327.8000488</ele>
        <time>2013-07-27T12:31:10Z</time>
      </trkpt>
      <trkpt lat="45.52343" lon="6.71762">
        <ele>2327.1999512</ele>
        <time>2013-07-27T12:31:17Z</time>
      </trkpt>
      <trkpt lat="45.52338" lon="6.71753">
        <ele>2327.6000977</ele>
        <time>2013-07-27T12:31:25Z</time>
      </trkpt>
      <trkpt lat="45.52337" lon="6.71744">
        <ele>2329.6000977</ele>
        <time>2013-07-27T12:31:35Z</time>
      </trkpt>
      <trkpt lat="45.52333" lon="6.71734">
        <ele>2330.3999023</ele>
        <time>2013-07-27T12:31:47Z</time>
      </trkpt>
      <trkpt lat="45.5233" lon="6.71727">
        <ele>2332</ele>
        <time>2013-07-27T12:31:59Z</time>
      </trkpt>
      <trkpt lat="45.52324" lon="6.71719">
        <ele>2333</ele>
        <time>2013-07-27T12:32:10Z</time>
      </trkpt>
      <trkpt lat="45.52319" lon="6.71712">
        <ele>2336</ele>
        <time>2013-07-27T12:32:22Z</time>
      </trkpt>
      <trkpt lat="45.52314" lon="6.71707">
        <ele>2336.3999023</ele>
        <time>2013-07-27T12:32:33Z</time>
      </trkpt>
      <trkpt lat="45.52309" lon="6.71701">
        <ele>2336.3999023</ele>
        <time>2013-07-27T12:32:42Z</time>
      </trkpt>
      <trkpt lat="45.52303" lon="6.71695">
        <ele>2341.1999512</ele>
        <time>2013-07-27T12:32:54Z</time>
      </trkpt>
      <trkpt lat="45.52295" lon="6.71692">
        <ele>2342.8000488</ele>
        <time>2013-07-27T12:33:05Z</time>
      </trkpt>
      <trkpt lat="45.52287" lon="6.71691">
        <ele>2345.8000488</ele>
        <time>2013-07-27T12:33:14Z</time>
      </trkpt>
      <trkpt lat="45.5228" lon="6.71688">
        <ele>2348.6000977</ele>
        <time>2013-07-27T12:33:23Z</time>
      </trkpt>
      <trkpt lat="45.52272" lon="6.71685">
        <ele>2349.3999023</ele>
        <time>2013-07-27T12:33:33Z</time>
      </trkpt>
      <trkpt lat="45.52265" lon="6.71684">
        <ele>2349.8000488</ele>
        <time>2013-07-27T12:33:41Z</time>
      </trkpt>
      <trkpt lat="45.52258" lon="6.71688">
        <ele>2350.6000977</ele>
        <time>2013-07-27T12:33:48Z</time>
      </trkpt>
      <trkpt lat="45.5225" lon="6.71685">
        <ele>2349.8000488</ele>
        <time>2013-07-27T12:33:55Z</time>
      </trkpt>
      <trkpt lat="45.52243" lon="6.71682">
        <ele>2348.6000977</ele>
        <time>2013-07-27T12:33:59Z</time>
      </trkpt>
      <trkpt lat="45.52234" lon="6.7168">
        <ele>2346.3999023</ele>
        <time>2013-07-27T12:34:05Z</time>
      </trkpt>
      <trkpt lat="45.52228" lon="6.71674">
        <ele>2344</ele>
        <time>2013-07-27T12:34:10Z</time>
      </trkpt>
      <trkpt lat="45.52223" lon="6.71665">
        <ele>2341.6000977</ele>
        <time>2013-07-27T12:34:16Z</time>
      </trkpt>
      <trkpt lat="45.52217" lon="6.71658">
        <ele>2339.3999023</ele>
        <time>2013-07-27T12:34:22Z</time>
      </trkpt>
      <trkpt lat="45.5221" lon="6.71653">
        <ele>2337.8000488</ele>
        <time>2013-07-27T12:34:28Z</time>
      </trkpt>
      <trkpt lat="45.52211" lon="6.7165">
        <ele>2339.3999023</ele>
        <time>2013-07-27T12:34:43Z</time>
      </trkpt>
      <trkpt lat="45.52204" lon="6.71643">
        <ele>2338.3999023</ele>
        <time>2013-07-27T12:34:51Z</time>
      </trkpt>
      <trkpt lat="45.52197" lon="6.71636">
        <ele>2335.8000488</ele>
        <time>2013-07-27T12:34:56Z</time>
      </trkpt>
      <trkpt lat="45.52187" lon="6.71631">
        <ele>2333</ele>
        <time>2013-07-27T12:35:03Z</time>
      </trkpt>
      <trkpt lat="45.52184" lon="6.71625">
        <ele>2331</ele>
        <time>2013-07-27T12:35:26Z</time>
      </trkpt>
      <trkpt lat="45.52174" lon="6.71619">
        <ele>2330.6000977</ele>
        <time>2013-07-27T12:35:33Z</time>
      </trkpt>
      <trkpt lat="45.52167" lon="6.71614">
        <ele>2329.8000488</ele>
        <time>2013-07-27T12:35:39Z</time>
      </trkpt>
      <trkpt lat="45.52161" lon="6.71609">
        <ele>2329.1999512</ele>
        <time>2013-07-27T12:35:42Z</time>
      </trkpt>
      <trkpt lat="45.52153" lon="6.716">
        <ele>2327</ele>
        <time>2013-07-27T12:35:47Z</time>
      </trkpt>
      <trkpt lat="45.52149" lon="6.71593">
        <ele>2325</ele>
        <time>2013-07-27T12:35:50Z</time>
      </trkpt>
      <trkpt lat="45.52142" lon="6.71585">
        <ele>2323.1999512</ele>
        <time>2013-07-27T12:35:53Z</time>
      </trkpt>
      <trkpt lat="45.52131" lon="6.7157">
        <ele>2320</ele>
        <time>2013-07-27T12:35:58Z</time>
      </trkpt>
      <trkpt lat="45.5212" lon="6.71559">
        <ele>2318.6000977</ele>
        <time>2013-07-27T12:36:03Z</time>
      </trkpt>
      <trkpt lat="45.52114" lon="6.71554">
        <ele>2318.3999023</ele>
        <time>2013-07-27T12:36:06Z</time>
      </trkpt>
      <trkpt lat="45.52108" lon="6.71548">
        <ele>2317.8000488</ele>
        <time>2013-07-27T12:36:10Z</time>
      </trkpt>
      <trkpt lat="45.521" lon="6.71535">
        <ele>2316.8000488</ele>
        <time>2013-07-27T12:36:16Z</time>
      </trkpt>
      <trkpt lat="45.52094" lon="6.71529">
        <ele>2316.3999023</ele>
        <time>2013-07-27T12:36:19Z</time>
      </trkpt>
      <trkpt lat="45.52086" lon="6.71518">
        <ele>2315.8000488</ele>
        <time>2013-07-27T12:36:24Z</time>
      </trkpt>
      <trkpt lat="45.52076" lon="6.71509">
        <ele>2315.1999512</ele>
        <time>2013-07-27T12:36:29Z</time>
      </trkpt>
      <trkpt lat="45.52069" lon="6.71504">
        <ele>2314.8000488</ele>
        <time>2013-07-27T12:36:32Z</time>
      </trkpt>
      <trkpt lat="45.52063" lon="6.715">
        <ele>2313.8000488</ele>
        <time>2013-07-27T12:36:35Z</time>
      </trkpt>
      <trkpt lat="45.52055" lon="6.71492">
        <ele>2312.1999512</ele>
        <time>2013-07-27T12:36:39Z</time>
      </trkpt>
      <trkpt lat="45.52048" lon="6.71483">
        <ele>2310.8000488</ele>
        <time>2013-07-27T12:36:43Z</time>
      </trkpt>
      <trkpt lat="45.52043" lon="6.71477">
        <ele>2309.8000488</ele>
        <time>2013-07-27T12:36:46Z</time>
      </trkpt>
      <trkpt lat="45.52035" lon="6.71471">
        <ele>2307.3999023</ele>
        <time>2013-07-27T12:36:50Z</time>
      </trkpt>
      <trkpt lat="45.52024" lon="6.71462">
        <ele>2303.8000488</ele>
        <time>2013-07-27T12:36:55Z</time>
      </trkpt>
      <trkpt lat="45.52014" lon="6.71453">
        <ele>2300.8000488</ele>
        <time>2013-07-27T12:37:00Z</time>
      </trkpt>
      <trkpt lat="45.52004" lon="6.71445">
        <ele>2298.1999512</ele>
        <time>2013-07-27T12:37:05Z</time>
      </trkpt>
      <trkpt lat="45.51997" lon="6.71437">
        <ele>2297.3999023</ele>
        <time>2013-07-27T12:37:09Z</time>
      </trkpt>
      <trkpt lat="45.51984" lon="6.71421">
        <ele>2296.8000488</ele>
        <time>2013-07-27T12:37:16Z</time>
      </trkpt>
      <trkpt lat="45.51975" lon="6.71413">
        <ele>2294.8000488</ele>
        <time>2013-07-27T12:37:22Z</time>
      </trkpt>
      <trkpt lat="45.51966" lon="6.71403">
        <ele>2290</ele>
        <time>2013-07-27T12:37:28Z</time>
      </trkpt>
      <trkpt lat="45.51958" lon="6.71393">
        <ele>2285.1999512</ele>
        <time>2013-07-27T12:37:34Z</time>
      </trkpt>
      <trkpt lat="45.51953" lon="6.71385">
        <ele>2281.6000977</ele>
        <time>2013-07-27T12:37:38Z</time>
      </trkpt>
      <trkpt lat="45.51946" lon="6.71373">
        <ele>2280.6000977</ele>
        <time>2013-07-27T12:37:44Z</time>
      </trkpt>
      <trkpt lat="45.51941" lon="6.71365">
        <ele>2280.3999023</ele>
        <time>2013-07-27T12:37:48Z</time>
      </trkpt>
      <trkpt lat="45.51934" lon="6.71354">
        <ele>2279.3999023</ele>
        <time>2013-07-27T12:37:53Z</time>
      </trkpt>
      <trkpt lat="45.51929" lon="6.71347">
        <ele>2276.8000488</ele>
        <time>2013-07-27T12:37:57Z</time>
      </trkpt>
      <trkpt lat="45.5192" lon="6.71335">
        <ele>2275.1999512</ele>
        <time>2013-07-27T12:38:03Z</time>
      </trkpt>
      <trkpt lat="45.51913" lon="6.7132">
        <ele>2274.1999512</ele>
        <time>2013-07-27T12:38:09Z</time>
      </trkpt>
      <trkpt lat="45.51907" lon="6.71308">
        <ele>2274.6000977</ele>
        <time>2013-07-27T12:38:14Z</time>
      </trkpt>
      <trkpt lat="45.51896" lon="6.71302">
        <ele>2274.1999512</ele>
        <time>2013-07-27T12:38:20Z</time>
      </trkpt>
      <trkpt lat="45.51888" lon="6.71303">
        <ele>2273</ele>
        <time>2013-07-27T12:38:24Z</time>
      </trkpt>
      <trkpt lat="45.51881" lon="6.71303">
        <ele>2271.8000488</ele>
        <time>2013-07-27T12:38:28Z</time>
      </trkpt>
      <trkpt lat="45.51871" lon="6.71302">
        <ele>2271</ele>
        <time>2013-07-27T12:38:34Z</time>
      </trkpt>
      <trkpt lat="45.51864" lon="6.713">
        <ele>2269.6000977</ele>
        <time>2013-07-27T12:38:39Z</time>
      </trkpt>
      <trkpt lat="45.51856" lon="6.71295">
        <ele>2267.6000977</ele>
        <time>2013-07-27T12:38:44Z</time>
      </trkpt>
      <trkpt lat="45.51848" lon="6.71293">
        <ele>2266</ele>
        <time>2013-07-27T12:38:49Z</time>
      </trkpt>
      <trkpt lat="45.51838" lon="6.7129">
        <ele>2264.3999023</ele>
        <time>2013-07-27T12:38:54Z</time>
      </trkpt>
      <trkpt lat="45.51828" lon="6.71288">
        <ele>2262.6000977</ele>
        <time>2013-07-27T12:38:58Z</time>
      </trkpt>
      <trkpt lat="45.51822" lon="6.71286">
        <ele>2261.3999023</ele>
        <time>2013-07-27T12:39:01Z</time>
      </trkpt>
      <trkpt lat="45.51812" lon="6.71284">
        <ele>2259.1999512</ele>
        <time>2013-07-27T12:39:06Z</time>
      </trkpt>
      <trkpt lat="45.51803" lon="6.71284">
        <ele>2257.1999512</ele>
        <time>2013-07-27T12:39:11Z</time>
      </trkpt>
      <trkpt lat="45.51794" lon="6.7128">
        <ele>2255.6000977</ele>
        <time>2013-07-27T12:39:16Z</time>
      </trkpt>
      <trkpt lat="45.51785" lon="6.71277">
        <ele>2253.1999512</ele>
        <time>2013-07-27T12:39:21Z</time>
      </trkpt>
      <trkpt lat="45.51778" lon="6.71276">
        <ele>2250.1999512</ele>
        <time>2013-07-27T12:39:25Z</time>
      </trkpt>
      <trkpt lat="45.51771" lon="6.71273">
        <ele>2247</ele>
        <time>2013-07-27T12:39:30Z</time>
      </trkpt>
      <trkpt lat="45.51762" lon="6.71273">
        <ele>2244.6000977</ele>
        <time>2013-07-27T12:39:35Z</time>
      </trkpt>
      <trkpt lat="45.51756" lon="6.71273">
        <ele>2243.3999023</ele>
        <time>2013-07-27T12:39:38Z</time>
      </trkpt>
      <trkpt lat="45.51746" lon="6.71267">
        <ele>2241.1999512</ele>
        <time>2013-07-27T12:39:43Z</time>
      </trkpt>
      <trkpt lat="45.51737" lon="6.71257">
        <ele>2238.8000488</ele>
        <time>2013-07-27T12:39:49Z</time>
      </trkpt>
      <trkpt lat="45.51732" lon="6.71249">
        <ele>2236.8000488</ele>
        <time>2013-07-27T12:39:53Z</time>
      </trkpt>
      <trkpt lat="45.51727" lon="6.71238">
        <ele>2234.8000488</ele>
        <time>2013-07-27T12:39:58Z</time>
      </trkpt>
      <trkpt lat="45.51722" lon="6.71226">
        <ele>2232.8000488</ele>
        <time>2013-07-27T12:40:03Z</time>
      </trkpt>
      <trkpt lat="45.51715" lon="6.7122">
        <ele>2230.1999512</ele>
        <time>2013-07-27T12:40:08Z</time>
      </trkpt>
      <trkpt lat="45.5171" lon="6.71208">
        <ele>2228.8000488</ele>
        <time>2013-07-27T12:40:13Z</time>
      </trkpt>
      <trkpt lat="45.51707" lon="6.71198">
        <ele>2228</ele>
        <time>2013-07-27T12:40:16Z</time>
      </trkpt>
      <trkpt lat="45.51701" lon="6.71184">
        <ele>2225.3999023</ele>
        <time>2013-07-27T12:40:21Z</time>
      </trkpt>
      <trkpt lat="45.51696" lon="6.71176">
        <ele>2223.6000977</ele>
        <time>2013-07-27T12:40:24Z</time>
      </trkpt>
      <trkpt lat="45.51691" lon="6.71169">
        <ele>2221.8000488</ele>
        <time>2013-07-27T12:40:27Z</time>
      </trkpt>
      <trkpt lat="45.51684" lon="6.71156">
        <ele>2219.3999023</ele>
        <time>2013-07-27T12:40:32Z</time>
      </trkpt>
      <trkpt lat="45.51675" lon="6.7114">
        <ele>2218.8000488</ele>
        <time>2013-07-27T12:40:38Z</time>
      </trkpt>
      <trkpt lat="45.51671" lon="6.71132">
        <ele>2217.6000977</ele>
        <time>2013-07-27T12:40:41Z</time>
      </trkpt>
      <trkpt lat="45.51666" lon="6.71123">
        <ele>2215.3999023</ele>
        <time>2013-07-27T12:40:44Z</time>
      </trkpt>
      <trkpt lat="45.51663" lon="6.71111">
        <ele>2212.8000488</ele>
        <time>2013-07-27T12:40:47Z</time>
      </trkpt>
      <trkpt lat="45.51662" lon="6.711">
        <ele>2209.6000977</ele>
        <time>2013-07-27T12:40:50Z</time>
      </trkpt>
      <trkpt lat="45.51658" lon="6.71086">
        <ele>2205.3999023</ele>
        <time>2013-07-27T12:40:55Z</time>
      </trkpt>
      <trkpt lat="45.51656" lon="6.71073">
        <ele>2203.6000977</ele>
        <time>2013-07-27T12:40:59Z</time>
      </trkpt>
      <trkpt lat="45.51655" lon="6.71064">
        <ele>2203</ele>
        <time>2013-07-27T12:41:02Z</time>
      </trkpt>
      <trkpt lat="45.51654" lon="6.71052">
        <ele>2201</ele>
        <time>2013-07-27T12:41:06Z</time>
      </trkpt>
      <trkpt lat="45.51651" lon="6.71045">
        <ele>2200</ele>
        <time>2013-07-27T12:41:09Z</time>
      </trkpt>
      <trkpt lat="45.51641" lon="6.71034">
        <ele>2198.6000977</ele>
        <time>2013-07-27T12:41:15Z</time>
      </trkpt>
      <trkpt lat="45.51632" lon="6.71033">
        <ele>2198.1999512</ele>
        <time>2013-07-27T12:41:20Z</time>
      </trkpt>
      <trkpt lat="45.51622" lon="6.7103">
        <ele>2197.1999512</ele>
        <time>2013-07-27T12:41:25Z</time>
      </trkpt>
      <trkpt lat="45.51611" lon="6.71024">
        <ele>2196.3999023</ele>
        <time>2013-07-27T12:41:31Z</time>
      </trkpt>
      <trkpt lat="45.51602" lon="6.7102">
        <ele>2194.6000977</ele>
        <time>2013-07-27T12:41:36Z</time>
      </trkpt>
      <trkpt lat="45.51592" lon="6.71016">
        <ele>2193.1999512</ele>
        <time>2013-07-27T12:41:41Z</time>
      </trkpt>
      <trkpt lat="45.51584" lon="6.71015">
        <ele>2190.1999512</ele>
        <time>2013-07-27T12:41:46Z</time>
      </trkpt>
      <trkpt lat="45.51576" lon="6.71012">
        <ele>2187</ele>
        <time>2013-07-27T12:41:51Z</time>
      </trkpt>
      <trkpt lat="45.51568" lon="6.71011">
        <ele>2183.6000977</ele>
        <time>2013-07-27T12:41:56Z</time>
      </trkpt>
      <trkpt lat="45.51556" lon="6.71012">
        <ele>2179.3999023</ele>
        <time>2013-07-27T12:42:03Z</time>
      </trkpt>
      <trkpt lat="45.51548" lon="6.71013">
        <ele>2176.3999023</ele>
        <time>2013-07-27T12:42:07Z</time>
      </trkpt>
      <trkpt lat="45.51537" lon="6.71013">
        <ele>2173.1999512</ele>
        <time>2013-07-27T12:42:12Z</time>
      </trkpt>
      <trkpt lat="45.51527" lon="6.71009">
        <ele>2169.6000977</ele>
        <time>2013-07-27T12:42:17Z</time>
      </trkpt>
      <trkpt lat="45.51519" lon="6.71006">
        <ele>2167.8000488</ele>
        <time>2013-07-27T12:42:20Z</time>
      </trkpt>
      <trkpt lat="45.51508" lon="6.70998">
        <ele>2165</ele>
        <time>2013-07-27T12:42:25Z</time>
      </trkpt>
      <trkpt lat="45.51502" lon="6.70994">
        <ele>2164.1999512</ele>
        <time>2013-07-27T12:42:28Z</time>
      </trkpt>
      <trkpt lat="45.51496" lon="6.7099">
        <ele>2163.3999023</ele>
        <time>2013-07-27T12:42:31Z</time>
      </trkpt>
      <trkpt lat="45.5149" lon="6.70987">
        <ele>2163</ele>
        <time>2013-07-27T12:42:34Z</time>
      </trkpt>
      <trkpt lat="45.51482" lon="6.70983">
        <ele>2162</ele>
        <time>2013-07-27T12:42:38Z</time>
      </trkpt>
      <trkpt lat="45.51476" lon="6.70979">
        <ele>2161</ele>
        <time>2013-07-27T12:42:41Z</time>
      </trkpt>
      <trkpt lat="45.5147" lon="6.70975">
        <ele>2160.3999023</ele>
        <time>2013-07-27T12:42:44Z</time>
      </trkpt>
      <trkpt lat="45.51463" lon="6.70971">
        <ele>2159.3999023</ele>
        <time>2013-07-27T12:42:47Z</time>
      </trkpt>
      <trkpt lat="45.51454" lon="6.70965">
        <ele>2158</ele>
        <time>2013-07-27T12:42:52Z</time>
      </trkpt>
      <trkpt lat="45.51446" lon="6.70962">
        <ele>2157.1999512</ele>
        <time>2013-07-27T12:42:56Z</time>
      </trkpt>
      <trkpt lat="45.51437" lon="6.70956">
        <ele>2156.6000977</ele>
        <time>2013-07-27T12:43:01Z</time>
      </trkpt>
      <trkpt lat="45.51428" lon="6.70952">
        <ele>2155.6000977</ele>
        <time>2013-07-27T12:43:06Z</time>
      </trkpt>
      <trkpt lat="45.5142" lon="6.70946">
        <ele>2154.1999512</ele>
        <time>2013-07-27T12:43:11Z</time>
      </trkpt>
      <trkpt lat="45.51416" lon="6.70939">
        <ele>2153.1999512</ele>
        <time>2013-07-27T12:43:14Z</time>
      </trkpt>
      <trkpt lat="45.51412" lon="6.70932">
        <ele>2152.1999512</ele>
        <time>2013-07-27T12:43:17Z</time>
      </trkpt>
      <trkpt lat="45.51406" lon="6.70924">
        <ele>2150.6000977</ele>
        <time>2013-07-27T12:43:21Z</time>
      </trkpt>
      <trkpt lat="45.51398" lon="6.70917">
        <ele>2149</ele>
        <time>2013-07-27T12:43:26Z</time>
      </trkpt>
      <trkpt lat="45.51388" lon="6.70916">
        <ele>2148</ele>
        <time>2013-07-27T12:43:31Z</time>
      </trkpt>
      <trkpt lat="45.51381" lon="6.70918">
        <ele>2147.6000977</ele>
        <time>2013-07-27T12:43:34Z</time>
      </trkpt>
      <trkpt lat="45.51363" lon="6.70926">
        <ele>2147.3999023</ele>
        <time>2013-07-27T12:43:42Z</time>
      </trkpt>
      <trkpt lat="45.51355" lon="6.70922">
        <ele>2147.6000977</ele>
        <time>2013-07-27T12:43:47Z</time>
      </trkpt>
      <trkpt lat="45.51348" lon="6.7091">
        <ele>2146.8000488</ele>
        <time>2013-07-27T12:43:52Z</time>
      </trkpt>
      <trkpt lat="45.51345" lon="6.70902">
        <ele>2146.3999023</ele>
        <time>2013-07-27T12:43:55Z</time>
      </trkpt>
      <trkpt lat="45.5134" lon="6.70887">
        <ele>2145.1999512</ele>
        <time>2013-07-27T12:44:00Z</time>
      </trkpt>
      <trkpt lat="45.51337" lon="6.70878">
        <ele>2144.8000488</ele>
        <time>2013-07-27T12:44:03Z</time>
      </trkpt>
      <trkpt lat="45.51334" lon="6.7087">
        <ele>2144.3999023</ele>
        <time>2013-07-27T12:44:06Z</time>
      </trkpt>
      <trkpt lat="45.51324" lon="6.70845">
        <ele>2144.1999512</ele>
        <time>2013-07-27T12:44:15Z</time>
      </trkpt>
      <trkpt lat="45.51322" lon="6.70836">
        <ele>2144</ele>
        <time>2013-07-27T12:44:18Z</time>
      </trkpt>
      <trkpt lat="45.51322" lon="6.70827">
        <ele>2143</ele>
        <time>2013-07-27T12:44:21Z</time>
      </trkpt>
      <trkpt lat="45.51321" lon="6.70812">
        <ele>2140.1999512</ele>
        <time>2013-07-27T12:44:26Z</time>
      </trkpt>
      <trkpt lat="45.51319" lon="6.70797">
        <ele>2137.1999512</ele>
        <time>2013-07-27T12:44:31Z</time>
      </trkpt>
      <trkpt lat="45.51316" lon="6.70782">
        <ele>2135.6000977</ele>
        <time>2013-07-27T12:44:36Z</time>
      </trkpt>
      <trkpt lat="45.51312" lon="6.70766">
        <ele>2134.6000977</ele>
        <time>2013-07-27T12:44:42Z</time>
      </trkpt>
      <trkpt lat="45.51307" lon="6.70754">
        <ele>2134</ele>
        <time>2013-07-27T12:44:47Z</time>
      </trkpt>
      <trkpt lat="45.51303" lon="6.70741">
        <ele>2132.1999512</ele>
        <time>2013-07-27T12:44:52Z</time>
      </trkpt>
      <trkpt lat="45.51298" lon="6.70728">
        <ele>2130.6000977</ele>
        <time>2013-07-27T12:44:57Z</time>
      </trkpt>
      <trkpt lat="45.51295" lon="6.70715">
        <ele>2128.1999512</ele>
        <time>2013-07-27T12:45:02Z</time>
      </trkpt>
      <trkpt lat="45.51292" lon="6.70702">
        <ele>2126.8000488</ele>
        <time>2013-07-27T12:45:07Z</time>
      </trkpt>
      <trkpt lat="45.51289" lon="6.70691">
        <ele>2125.1999512</ele>
        <time>2013-07-27T12:45:11Z</time>
      </trkpt>
      <trkpt lat="45.51285" lon="6.70696">
        <ele>2123</ele>
        <time>2013-07-27T12:45:16Z</time>
      </trkpt>
      <trkpt lat="45.51279" lon="6.70711">
        <ele>2122.6000977</ele>
        <time>2013-07-27T12:45:24Z</time>
      </trkpt>
      <trkpt lat="45.51275" lon="6.7072">
        <ele>2124.3999023</ele>
        <time>2013-07-27T12:45:30Z</time>
      </trkpt>
      <trkpt lat="45.51271" lon="6.70728">
        <ele>2125</ele>
        <time>2013-07-27T12:45:35Z</time>
      </trkpt>
      <trkpt lat="45.51265" lon="6.70737">
        <ele>2126.6000977</ele>
        <time>2013-07-27T12:45:42Z</time>
      </trkpt>
      <trkpt lat="45.51259" lon="6.70744">
        <ele>2127.8000488</ele>
        <time>2013-07-27T12:45:48Z</time>
      </trkpt>
      <trkpt lat="45.51252" lon="6.70752">
        <ele>2129</ele>
        <time>2013-07-27T12:45:55Z</time>
      </trkpt>
      <trkpt lat="45.51246" lon="6.70756">
        <ele>2129.6000977</ele>
        <time>2013-07-27T12:46:00Z</time>
      </trkpt>
      <trkpt lat="45.51238" lon="6.70761">
        <ele>2130.3999023</ele>
        <time>2013-07-27T12:46:08Z</time>
      </trkpt>
      <trkpt lat="45.51232" lon="6.70768">
        <ele>2132</ele>
        <time>2013-07-27T12:46:17Z</time>
      </trkpt>
      <trkpt lat="45.51226" lon="6.70777">
        <ele>2136</ele>
        <time>2013-07-27T12:46:27Z</time>
      </trkpt>
      <trkpt lat="45.51219" lon="6.70782">
        <ele>2139.8000488</ele>
        <time>2013-07-27T12:46:36Z</time>
      </trkpt>
      <trkpt lat="45.51211" lon="6.70787">
        <ele>2141.3999023</ele>
        <time>2013-07-27T12:46:44Z</time>
      </trkpt>
      <trkpt lat="45.51204" lon="6.70786">
        <ele>2140.3999023</ele>
        <time>2013-07-27T12:46:47Z</time>
      </trkpt>
      <trkpt lat="45.51192" lon="6.70784">
        <ele>2137</ele>
        <time>2013-07-27T12:46:52Z</time>
      </trkpt>
      <trkpt lat="45.51183" lon="6.70781">
        <ele>2132.8000488</ele>
        <time>2013-07-27T12:46:56Z</time>
      </trkpt>
      <trkpt lat="45.51171" lon="6.70777">
        <ele>2130.8000488</ele>
        <time>2013-07-27T12:47:01Z</time>
      </trkpt>
      <trkpt lat="45.5116" lon="6.70776">
        <ele>2130</ele>
        <time>2013-07-27T12:47:06Z</time>
      </trkpt>
      <trkpt lat="45.5115" lon="6.70775">
        <ele>2129.6000977</ele>
        <time>2013-07-27T12:47:10Z</time>
      </trkpt>
      <trkpt lat="45.51143" lon="6.70776">
        <ele>2128.8000488</ele>
        <time>2013-07-27T12:47:13Z</time>
      </trkpt>
      <trkpt lat="45.51131" lon="6.70778">
        <ele>2126.8000488</ele>
        <time>2013-07-27T12:47:18Z</time>
      </trkpt>
      <trkpt lat="45.51125" lon="6.70776">
        <ele>2125.3999023</ele>
        <time>2013-07-27T12:47:21Z</time>
      </trkpt>
      <trkpt lat="45.51116" lon="6.70773">
        <ele>2123.1999512</ele>
        <time>2013-07-27T12:47:25Z</time>
      </trkpt>
      <trkpt lat="45.51105" lon="6.70774">
        <ele>2120.6000977</ele>
        <time>2013-07-27T12:47:30Z</time>
      </trkpt>
      <trkpt lat="45.51098" lon="6.70775">
        <ele>2119</ele>
        <time>2013-07-27T12:47:33Z</time>
      </trkpt>
      <trkpt lat="45.51088" lon="6.70778">
        <ele>2116.8000488</ele>
        <time>2013-07-27T12:47:38Z</time>
      </trkpt>
      <trkpt lat="45.51081" lon="6.70781">
        <ele>2116.1999512</ele>
        <time>2013-07-27T12:47:41Z</time>
      </trkpt>
      <trkpt lat="45.51072" lon="6.70791">
        <ele>2115.8000488</ele>
        <time>2013-07-27T12:47:47Z</time>
      </trkpt>
      <trkpt lat="45.51068" lon="6.70805">
        <ele>2115.1999512</ele>
        <time>2013-07-27T12:47:52Z</time>
      </trkpt>
      <trkpt lat="45.51063" lon="6.70815">
        <ele>2114.8000488</ele>
        <time>2013-07-27T12:47:57Z</time>
      </trkpt>
      <trkpt lat="45.5105" lon="6.70821">
        <ele>2114</ele>
        <time>2013-07-27T12:48:02Z</time>
      </trkpt>
      <trkpt lat="45.51041" lon="6.70823">
        <ele>2113.3999023</ele>
        <time>2013-07-27T12:48:05Z</time>
      </trkpt>
      <trkpt lat="45.51032" lon="6.70821">
        <ele>2112</ele>
        <time>2013-07-27T12:48:09Z</time>
      </trkpt>
      <trkpt lat="45.51023" lon="6.7082">
        <ele>2111</ele>
        <time>2013-07-27T12:48:13Z</time>
      </trkpt>
      <trkpt lat="45.51012" lon="6.70817">
        <ele>2109.6000977</ele>
        <time>2013-07-27T12:48:18Z</time>
      </trkpt>
      <trkpt lat="45.51003" lon="6.70814">
        <ele>2107.6000977</ele>
        <time>2013-07-27T12:48:22Z</time>
      </trkpt>
      <trkpt lat="45.50993" lon="6.70811">
        <ele>2106.3999023</ele>
        <time>2013-07-27T12:48:25Z</time>
      </trkpt>
      <trkpt lat="45.50986" lon="6.70808">
        <ele>2105.1999512</ele>
        <time>2013-07-27T12:48:27Z</time>
      </trkpt>
      <trkpt lat="45.50978" lon="6.70805">
        <ele>2104</ele>
        <time>2013-07-27T12:48:30Z</time>
      </trkpt>
      <trkpt lat="45.50969" lon="6.70808">
        <ele>2102.3999023</ele>
        <time>2013-07-27T12:48:34Z</time>
      </trkpt>
      <trkpt lat="45.50962" lon="6.70811">
        <ele>2102.1999512</ele>
        <time>2013-07-27T12:48:37Z</time>
      </trkpt>
      <trkpt lat="45.50955" lon="6.70812">
        <ele>2101.8000488</ele>
        <time>2013-07-27T12:48:40Z</time>
      </trkpt>
      <trkpt lat="45.50946" lon="6.70816">
        <ele>2102</ele>
        <time>2013-07-27T12:48:45Z</time>
      </trkpt>
      <trkpt lat="45.50939" lon="6.70822">
        <ele>2103.3999023</ele>
        <time>2013-07-27T12:48:52Z</time>
      </trkpt>
      <trkpt lat="45.5093" lon="6.7083">
        <ele>2104</ele>
        <time>2013-07-27T12:48:58Z</time>
      </trkpt>
      <trkpt lat="45.50922" lon="6.70837">
        <ele>2103.6000977</ele>
        <time>2013-07-27T12:49:03Z</time>
      </trkpt>
      <trkpt lat="45.50902" lon="6.70845">
        <ele>2104</ele>
        <time>2013-07-27T12:49:12Z</time>
      </trkpt>
      <trkpt lat="45.50894" lon="6.70846">
        <ele>2105.3999023</ele>
        <time>2013-07-27T12:49:15Z</time>
      </trkpt>
      <trkpt lat="45.50884" lon="6.7085">
        <ele>2109.1999512</ele>
        <time>2013-07-27T12:49:20Z</time>
      </trkpt>
      <trkpt lat="45.50876" lon="6.70853">
        <ele>2112.6000977</ele>
        <time>2013-07-27T12:49:24Z</time>
      </trkpt>
      <trkpt lat="45.50869" lon="6.70855">
        <ele>2113</ele>
        <time>2013-07-27T12:49:27Z</time>
      </trkpt>
      <trkpt lat="45.50863" lon="6.70859">
        <ele>2113.1999512</ele>
        <time>2013-07-27T12:49:30Z</time>
      </trkpt>
      <trkpt lat="45.50856" lon="6.70862">
        <ele>2113</ele>
        <time>2013-07-27T12:49:33Z</time>
      </trkpt>
      <trkpt lat="45.50847" lon="6.70869">
        <ele>2112.3999023</ele>
        <time>2013-07-27T12:49:38Z</time>
      </trkpt>
      <trkpt lat="45.50839" lon="6.70873">
        <ele>2111.6000977</ele>
        <time>2013-07-27T12:49:42Z</time>
      </trkpt>
      <trkpt lat="45.50831" lon="6.70875">
        <ele>2111</ele>
        <time>2013-07-27T12:49:45Z</time>
      </trkpt>
      <trkpt lat="45.50823" lon="6.7088">
        <ele>2109.8000488</ele>
        <time>2013-07-27T12:49:49Z</time>
      </trkpt>
      <trkpt lat="45.5081" lon="6.70878">
        <ele>2107.3999023</ele>
        <time>2013-07-27T12:49:54Z</time>
      </trkpt>
      <trkpt lat="45.50798" lon="6.70874">
        <ele>2103.3999023</ele>
        <time>2013-07-27T12:49:58Z</time>
      </trkpt>
      <trkpt lat="45.50785" lon="6.7087">
        <ele>2098.3999023</ele>
        <time>2013-07-27T12:50:03Z</time>
      </trkpt>
      <trkpt lat="45.50776" lon="6.7087">
        <ele>2095.6000977</ele>
        <time>2013-07-27T12:50:07Z</time>
      </trkpt>
      <trkpt lat="45.50765" lon="6.70874">
        <ele>2094</ele>
        <time>2013-07-27T12:50:14Z</time>
      </trkpt>
      <trkpt lat="45.50758" lon="6.70874">
        <ele>2093.1999512</ele>
        <time>2013-07-27T12:50:16Z</time>
      </trkpt>
      <trkpt lat="45.50751" lon="6.70873">
        <ele>2092.3999023</ele>
        <time>2013-07-27T12:50:18Z</time>
      </trkpt>
      <trkpt lat="45.50741" lon="6.70874">
        <ele>2091.1999512</ele>
        <time>2013-07-27T12:50:21Z</time>
      </trkpt>
      <trkpt lat="45.50727" lon="6.70875">
        <ele>2089.8000488</ele>
        <time>2013-07-27T12:50:26Z</time>
      </trkpt>
      <trkpt lat="45.50719" lon="6.70881">
        <ele>2090.8000488</ele>
        <time>2013-07-27T12:50:31Z</time>
      </trkpt>
      <trkpt lat="45.50712" lon="6.70885">
        <ele>2093</ele>
        <time>2013-07-27T12:50:36Z</time>
      </trkpt>
      <trkpt lat="45.50698" lon="6.70887">
        <ele>2091.8000488</ele>
        <time>2013-07-27T12:50:42Z</time>
      </trkpt>
      <trkpt lat="45.50686" lon="6.70882">
        <ele>2089.1999512</ele>
        <time>2013-07-27T12:50:45Z</time>
      </trkpt>
      <trkpt lat="45.5068" lon="6.70872">
        <ele>2086.1999512</ele>
        <time>2013-07-27T12:50:48Z</time>
      </trkpt>
      <trkpt lat="45.5068" lon="6.70853">
        <ele>2079.3999023</ele>
        <time>2013-07-27T12:50:53Z</time>
      </trkpt>
      <trkpt lat="45.50682" lon="6.70837">
        <ele>2076</ele>
        <time>2013-07-27T12:50:58Z</time>
      </trkpt>
      <trkpt lat="45.50683" lon="6.70827">
        <ele>2074.6000977</ele>
        <time>2013-07-27T12:51:01Z</time>
      </trkpt>
      <trkpt lat="45.50682" lon="6.70817">
        <ele>2073.3999023</ele>
        <time>2013-07-27T12:51:04Z</time>
      </trkpt>
      <trkpt lat="45.50679" lon="6.70808">
        <ele>2072.1999512</ele>
        <time>2013-07-27T12:51:07Z</time>
      </trkpt>
      <trkpt lat="45.50673" lon="6.70799">
        <ele>2070.1999512</ele>
        <time>2013-07-27T12:51:11Z</time>
      </trkpt>
      <trkpt lat="45.50665" lon="6.70793">
        <ele>2069</ele>
        <time>2013-07-27T12:51:15Z</time>
      </trkpt>
      <trkpt lat="45.50664" lon="6.70782">
        <ele>2068.1999512</ele>
        <time>2013-07-27T12:51:18Z</time>
      </trkpt>
      <trkpt lat="45.50664" lon="6.70768">
        <ele>2066.3999023</ele>
        <time>2013-07-27T12:51:22Z</time>
      </trkpt>
      <trkpt lat="45.50662" lon="6.70758">
        <ele>2065.8000488</ele>
        <time>2013-07-27T12:51:25Z</time>
      </trkpt>
      <trkpt lat="45.50657" lon="6.70743">
        <ele>2065.1999512</ele>
        <time>2013-07-27T12:51:30Z</time>
      </trkpt>
      <trkpt lat="45.50651" lon="6.70727">
        <ele>2065</ele>
        <time>2013-07-27T12:51:35Z</time>
      </trkpt>
      <trkpt lat="45.50649" lon="6.70705">
        <ele>2064.1999512</ele>
        <time>2013-07-27T12:51:40Z</time>
      </trkpt>
      <trkpt lat="45.50649" lon="6.70696">
        <ele>2063.8000488</ele>
        <time>2013-07-27T12:51:42Z</time>
      </trkpt>
      <trkpt lat="45.5065" lon="6.70684">
        <ele>2063.3999023</ele>
        <time>2013-07-27T12:51:45Z</time>
      </trkpt>
      <trkpt lat="45.50653" lon="6.70671">
        <ele>2063</ele>
        <time>2013-07-27T12:51:48Z</time>
      </trkpt>
      <trkpt lat="45.50656" lon="6.70658">
        <ele>2061.3999023</ele>
        <time>2013-07-27T12:51:52Z</time>
      </trkpt>
      <trkpt lat="45.50658" lon="6.70641">
        <ele>2059.8000488</ele>
        <time>2013-07-27T12:51:57Z</time>
      </trkpt>
      <trkpt lat="45.5066" lon="6.70625">
        <ele>2058.1999512</ele>
        <time>2013-07-27T12:52:02Z</time>
      </trkpt>
      <trkpt lat="45.50663" lon="6.70615">
        <ele>2058</ele>
        <time>2013-07-27T12:52:05Z</time>
      </trkpt>
      <trkpt lat="45.50665" lon="6.70607">
        <ele>2057.8000488</ele>
        <time>2013-07-27T12:52:08Z</time>
      </trkpt>
      <trkpt lat="45.50672" lon="6.70597">
        <ele>2057.6000977</ele>
        <time>2013-07-27T12:52:12Z</time>
      </trkpt>
      <trkpt lat="45.50681" lon="6.70585">
        <ele>2057.3999023</ele>
        <time>2013-07-27T12:52:17Z</time>
      </trkpt>
      <trkpt lat="45.50692" lon="6.70573">
        <ele>2056.8000488</ele>
        <time>2013-07-27T12:52:22Z</time>
      </trkpt>
      <trkpt lat="45.50703" lon="6.70562">
        <ele>2056.8000488</ele>
        <time>2013-07-27T12:52:27Z</time>
      </trkpt>
      <trkpt lat="45.50708" lon="6.70556">
        <ele>2057</ele>
        <time>2013-07-27T12:52:30Z</time>
      </trkpt>
      <trkpt lat="45.50711" lon="6.70546">
        <ele>2056.8000488</ele>
        <time>2013-07-27T12:52:33Z</time>
      </trkpt>
      <trkpt lat="45.50713" lon="6.70532">
        <ele>2055.8000488</ele>
        <time>2013-07-27T12:52:37Z</time>
      </trkpt>
      <trkpt lat="45.50713" lon="6.70517">
        <ele>2053</ele>
        <time>2013-07-27T12:52:42Z</time>
      </trkpt>
      <trkpt lat="45.50717" lon="6.70507">
        <ele>2051.3999023</ele>
        <time>2013-07-27T12:52:46Z</time>
      </trkpt>
      <trkpt lat="45.50728" lon="6.70505">
        <ele>2049.6000977</ele>
        <time>2013-07-27T12:52:51Z</time>
      </trkpt>
      <trkpt lat="45.50738" lon="6.70506">
        <ele>2044.5999756</ele>
        <time>2013-07-27T12:52:55Z</time>
      </trkpt>
      <trkpt lat="45.50749" lon="6.7051">
        <ele>2037.5999756</ele>
        <time>2013-07-27T12:53:00Z</time>
      </trkpt>
      <trkpt lat="45.50759" lon="6.70507">
        <ele>2031.5999756</ele>
        <time>2013-07-27T12:53:05Z</time>
      </trkpt>
      <trkpt lat="45.50767" lon="6.70506">
        <ele>2027.1999512</ele>
        <time>2013-07-27T12:53:09Z</time>
      </trkpt>
      <trkpt lat="45.50776" lon="6.70507">
        <ele>2023.8000488</ele>
        <time>2013-07-27T12:53:14Z</time>
      </trkpt>
      <trkpt lat="45.50784" lon="6.70503">
        <ele>2020.8000488</ele>
        <time>2013-07-27T12:53:18Z</time>
      </trkpt>
      <trkpt lat="45.50791" lon="6.70498">
        <ele>2018.5999756</ele>
        <time>2013-07-27T12:53:22Z</time>
      </trkpt>
      <trkpt lat="45.50798" lon="6.7049">
        <ele>2017.5999756</ele>
        <time>2013-07-27T12:53:27Z</time>
      </trkpt>
      <trkpt lat="45.50806" lon="6.70481">
        <ele>2016.8000488</ele>
        <time>2013-07-27T12:53:32Z</time>
      </trkpt>
      <trkpt lat="45.50813" lon="6.70474">
        <ele>2015.8000488</ele>
        <time>2013-07-27T12:53:36Z</time>
      </trkpt>
      <trkpt lat="45.50822" lon="6.70464">
        <ele>2014.8000488</ele>
        <time>2013-07-27T12:53:41Z</time>
      </trkpt>
      <trkpt lat="45.50832" lon="6.70454">
        <ele>2014.1999512</ele>
        <time>2013-07-27T12:53:47Z</time>
      </trkpt>
      <trkpt lat="45.5084" lon="6.70446">
        <ele>2013.8000488</ele>
        <time>2013-07-27T12:53:52Z</time>
      </trkpt>
      <trkpt lat="45.50849" lon="6.70436">
        <ele>2012.5999756</ele>
        <time>2013-07-27T12:53:58Z</time>
      </trkpt>
      <trkpt lat="45.50856" lon="6.70426">
        <ele>2011</ele>
        <time>2013-07-27T12:54:04Z</time>
      </trkpt>
      <trkpt lat="45.50862" lon="6.70417">
        <ele>2008.5999756</ele>
        <time>2013-07-27T12:54:09Z</time>
      </trkpt>
      <trkpt lat="45.50868" lon="6.70408">
        <ele>2006.1999512</ele>
        <time>2013-07-27T12:54:14Z</time>
      </trkpt>
      <trkpt lat="45.50874" lon="6.70398">
        <ele>2004</ele>
        <time>2013-07-27T12:54:19Z</time>
      </trkpt>
      <trkpt lat="45.50881" lon="6.70387">
        <ele>2001.4000244</ele>
        <time>2013-07-27T12:54:24Z</time>
      </trkpt>
      <trkpt lat="45.50889" lon="6.70378">
        <ele>1999.1999512</ele>
        <time>2013-07-27T12:54:30Z</time>
      </trkpt>
      <trkpt lat="45.509" lon="6.7037">
        <ele>1996.1999512</ele>
        <time>2013-07-27T12:54:36Z</time>
      </trkpt>
      <trkpt lat="45.50909" lon="6.70361">
        <ele>1992.5999756</ele>
        <time>2013-07-27T12:54:41Z</time>
      </trkpt>
      <trkpt lat="45.50914" lon="6.70357">
        <ele>1991</ele>
        <time>2013-07-27T12:54:44Z</time>
      </trkpt>
      <trkpt lat="45.5092" lon="6.70353">
        <ele>1989.8000488</ele>
        <time>2013-07-27T12:54:47Z</time>
      </trkpt>
      <trkpt lat="45.50927" lon="6.7035">
        <ele>1989</ele>
        <time>2013-07-27T12:54:49Z</time>
      </trkpt>
      <trkpt lat="45.50938" lon="6.7034">
        <ele>1988.1999512</ele>
        <time>2013-07-27T12:54:54Z</time>
      </trkpt>
      <trkpt lat="45.50945" lon="6.70333">
        <ele>1987.5999756</ele>
        <time>2013-07-27T12:54:58Z</time>
      </trkpt>
      <trkpt lat="45.50951" lon="6.70319">
        <ele>1986</ele>
        <time>2013-07-27T12:55:04Z</time>
      </trkpt>
      <trkpt lat="45.50956" lon="6.70306">
        <ele>1983.1999512</ele>
        <time>2013-07-27T12:55:09Z</time>
      </trkpt>
      <trkpt lat="45.50962" lon="6.70291">
        <ele>1980.8000488</ele>
        <time>2013-07-27T12:55:15Z</time>
      </trkpt>
      <trkpt lat="45.50967" lon="6.70285">
        <ele>1980</ele>
        <time>2013-07-27T12:55:18Z</time>
      </trkpt>
      <trkpt lat="45.50972" lon="6.70272">
        <ele>1978.8000488</ele>
        <time>2013-07-27T12:55:23Z</time>
      </trkpt>
      <trkpt lat="45.50976" lon="6.70257">
        <ele>1977.5999756</ele>
        <time>2013-07-27T12:55:28Z</time>
      </trkpt>
      <trkpt lat="45.50983" lon="6.70245">
        <ele>1976.4000244</ele>
        <time>2013-07-27T12:55:33Z</time>
      </trkpt>
      <trkpt lat="45.50988" lon="6.70238">
        <ele>1975.4000244</ele>
        <time>2013-07-27T12:55:36Z</time>
      </trkpt>
      <trkpt lat="45.50996" lon="6.70228">
        <ele>1973.4000244</ele>
        <time>2013-07-27T12:55:41Z</time>
      </trkpt>
      <trkpt lat="45.51001" lon="6.70221">
        <ele>1972.1999512</ele>
        <time>2013-07-27T12:55:44Z</time>
      </trkpt>
      <trkpt lat="45.51009" lon="6.70211">
        <ele>1970</ele>
        <time>2013-07-27T12:55:49Z</time>
      </trkpt>
      <trkpt lat="45.51014" lon="6.70203">
        <ele>1967.8000488</ele>
        <time>2013-07-27T12:55:53Z</time>
      </trkpt>
      <trkpt lat="45.51021" lon="6.70193">
        <ele>1966.5999756</ele>
        <time>2013-07-27T12:55:58Z</time>
      </trkpt>
      <trkpt lat="45.51028" lon="6.7018">
        <ele>1966.1999512</ele>
        <time>2013-07-27T12:56:04Z</time>
      </trkpt>
      <trkpt lat="45.51034" lon="6.70172">
        <ele>1965.8000488</ele>
        <time>2013-07-27T12:56:08Z</time>
      </trkpt>
      <trkpt lat="45.51041" lon="6.7016">
        <ele>1964.8000488</ele>
        <time>2013-07-27T12:56:13Z</time>
      </trkpt>
      <trkpt lat="45.51049" lon="6.7015">
        <ele>1963.4000244</ele>
        <time>2013-07-27T12:56:18Z</time>
      </trkpt>
      <trkpt lat="45.51053" lon="6.70143">
        <ele>1962.8000488</ele>
        <time>2013-07-27T12:56:21Z</time>
      </trkpt>
      <trkpt lat="45.5106" lon="6.70135">
        <ele>1961.5999756</ele>
        <time>2013-07-27T12:56:25Z</time>
      </trkpt>
      <trkpt lat="45.51065" lon="6.70129">
        <ele>1961.4000244</ele>
        <time>2013-07-27T12:56:28Z</time>
      </trkpt>
      <trkpt lat="45.5107" lon="6.70123">
        <ele>1960.8000488</ele>
        <time>2013-07-27T12:56:31Z</time>
      </trkpt>
      <trkpt lat="45.51076" lon="6.70114">
        <ele>1959.4000244</ele>
        <time>2013-07-27T12:56:35Z</time>
      </trkpt>
      <trkpt lat="45.51081" lon="6.70102">
        <ele>1958.4000244</ele>
        <time>2013-07-27T12:56:40Z</time>
      </trkpt>
      <trkpt lat="45.51087" lon="6.70089">
        <ele>1957.8000488</ele>
        <time>2013-07-27T12:56:45Z</time>
      </trkpt>
      <trkpt lat="45.51091" lon="6.70076">
        <ele>1957</ele>
        <time>2013-07-27T12:56:50Z</time>
      </trkpt>
      <trkpt lat="45.51093" lon="6.70067">
        <ele>1956.1999512</ele>
        <time>2013-07-27T12:56:53Z</time>
      </trkpt>
      <trkpt lat="45.51096" lon="6.70057">
        <ele>1955.1999512</ele>
        <time>2013-07-27T12:56:56Z</time>
      </trkpt>
      <trkpt lat="45.51103" lon="6.70037">
        <ele>1952.4000244</ele>
        <time>2013-07-27T12:57:01Z</time>
      </trkpt>
      <trkpt lat="45.51108" lon="6.70028">
        <ele>1951</ele>
        <time>2013-07-27T12:57:04Z</time>
      </trkpt>
      <trkpt lat="45.51116" lon="6.70016">
        <ele>1947.8000488</ele>
        <time>2013-07-27T12:57:08Z</time>
      </trkpt>
      <trkpt lat="45.51121" lon="6.70007">
        <ele>1946.1999512</ele>
        <time>2013-07-27T12:57:11Z</time>
      </trkpt>
      <trkpt lat="45.51129" lon="6.69996">
        <ele>1944</ele>
        <time>2013-07-27T12:57:15Z</time>
      </trkpt>
      <trkpt lat="45.51133" lon="6.69989">
        <ele>1943.8000488</ele>
        <time>2013-07-27T12:57:18Z</time>
      </trkpt>
      <trkpt lat="45.51144" lon="6.69964">
        <ele>1943.1999512</ele>
        <time>2013-07-27T12:57:27Z</time>
      </trkpt>
      <trkpt lat="45.51151" lon="6.69951">
        <ele>1941.1999512</ele>
        <time>2013-07-27T12:57:32Z</time>
      </trkpt>
      <trkpt lat="45.51156" lon="6.69942">
        <ele>1939.5999756</ele>
        <time>2013-07-27T12:57:35Z</time>
      </trkpt>
      <trkpt lat="45.51162" lon="6.6993">
        <ele>1936.1999512</ele>
        <time>2013-07-27T12:57:39Z</time>
      </trkpt>
      <trkpt lat="45.51167" lon="6.6992">
        <ele>1934.1999512</ele>
        <time>2013-07-27T12:57:42Z</time>
      </trkpt>
      <trkpt lat="45.5117" lon="6.6991">
        <ele>1932.5999756</ele>
        <time>2013-07-27T12:57:45Z</time>
      </trkpt>
      <trkpt lat="45.51174" lon="6.69898">
        <ele>1931</ele>
        <time>2013-07-27T12:57:49Z</time>
      </trkpt>
      <trkpt lat="45.51176" lon="6.6989">
        <ele>1930.5999756</ele>
        <time>2013-07-27T12:57:52Z</time>
      </trkpt>
      <trkpt lat="45.51181" lon="6.69878">
        <ele>1930.8000488</ele>
        <time>2013-07-27T12:57:57Z</time>
      </trkpt>
      <trkpt lat="45.51184" lon="6.69865">
        <ele>1932.1999512</ele>
        <time>2013-07-27T12:58:02Z</time>
      </trkpt>
      <trkpt lat="45.51188" lon="6.69853">
        <ele>1934.1999512</ele>
        <time>2013-07-27T12:58:07Z</time>
      </trkpt>
      <trkpt lat="45.51194" lon="6.6984">
        <ele>1935.1999512</ele>
        <time>2013-07-27T12:58:12Z</time>
      </trkpt>
      <trkpt lat="45.51201" lon="6.69832">
        <ele>1935.5999756</ele>
        <time>2013-07-27T12:58:16Z</time>
      </trkpt>
      <trkpt lat="45.51212" lon="6.69826">
        <ele>1935.1999512</ele>
        <time>2013-07-27T12:58:21Z</time>
      </trkpt>
      <trkpt lat="45.51218" lon="6.69822">
        <ele>1934.5999756</ele>
        <time>2013-07-27T12:58:24Z</time>
      </trkpt>
      <trkpt lat="45.51226" lon="6.69814">
        <ele>1933.5999756</ele>
        <time>2013-07-27T12:58:29Z</time>
      </trkpt>
      <trkpt lat="45.51235" lon="6.69808">
        <ele>1932.4000244</ele>
        <time>2013-07-27T12:58:34Z</time>
      </trkpt>
      <trkpt lat="45.51246" lon="6.69804">
        <ele>1931.5999756</ele>
        <time>2013-07-27T12:58:39Z</time>
      </trkpt>
      <trkpt lat="45.51253" lon="6.69802">
        <ele>1931.4000244</ele>
        <time>2013-07-27T12:58:44Z</time>
      </trkpt>
      <trkpt lat="45.51259" lon="6.69804">
        <ele>1932.1999512</ele>
        <time>2013-07-27T12:58:49Z</time>
      </trkpt>
      <trkpt lat="45.51266" lon="6.69807">
        <ele>1934.5999756</ele>
        <time>2013-07-27T12:58:59Z</time>
      </trkpt>
      <trkpt lat="45.51276" lon="6.69802">
        <ele>1935.1999512</ele>
        <time>2013-07-27T13:00:31Z</time>
      </trkpt>
      <trkpt lat="45.51278" lon="6.69797">
        <ele>1933.8000488</ele>
        <time>2013-07-27T13:01:06Z</time>
      </trkpt>
      <trkpt lat="45.51281" lon="6.69792">
        <ele>1933.4000244</ele>
        <time>2013-07-27T13:02:12Z</time>
      </trkpt>
      <trkpt lat="45.51287" lon="6.69786">
        <ele>1932.8000488</ele>
        <time>2013-07-27T13:02:17Z</time>
      </trkpt>
      <trkpt lat="45.51295" lon="6.69782">
        <ele>1931.4000244</ele>
        <time>2013-07-27T13:02:22Z</time>
      </trkpt>
      <trkpt lat="45.51303" lon="6.69775">
        <ele>1930</ele>
        <time>2013-07-27T13:02:27Z</time>
      </trkpt>
      <trkpt lat="45.51309" lon="6.69768">
        <ele>1929.4000244</ele>
        <time>2013-07-27T13:02:32Z</time>
      </trkpt>
      <trkpt lat="45.51313" lon="6.69761">
        <ele>1928.5999756</ele>
        <time>2013-07-27T13:02:37Z</time>
      </trkpt>
      <trkpt lat="45.51321" lon="6.69755">
        <ele>1927.5999756</ele>
        <time>2013-07-27T13:02:42Z</time>
      </trkpt>
      <trkpt lat="45.51327" lon="6.69753">
        <ele>1926.5999756</ele>
        <time>2013-07-27T13:02:47Z</time>
      </trkpt>
      <trkpt lat="45.51335" lon="6.69754">
        <ele>1928.5999756</ele>
        <time>2013-07-27T13:02:56Z</time>
      </trkpt>
      <trkpt lat="45.51347" lon="6.69758">
        <ele>1930.5999756</ele>
        <time>2013-07-27T13:03:08Z</time>
      </trkpt>
      <trkpt lat="45.51354" lon="6.69765">
        <ele>1930.8000488</ele>
        <time>2013-07-27T13:03:14Z</time>
      </trkpt>
      <trkpt lat="45.51361" lon="6.6977">
        <ele>1931.8000488</ele>
        <time>2013-07-27T13:03:19Z</time>
      </trkpt>
      <trkpt lat="45.51368" lon="6.69775">
        <ele>1932.5999756</ele>
        <time>2013-07-27T13:03:25Z</time>
      </trkpt>
      <trkpt lat="45.51372" lon="6.69767">
        <ele>1933.8000488</ele>
        <time>2013-07-27T13:03:33Z</time>
      </trkpt>
      <trkpt lat="45.51371" lon="6.69759">
        <ele>1935.5999756</ele>
        <time>2013-07-27T13:03:41Z</time>
      </trkpt>
      <trkpt lat="45.51377" lon="6.69756">
        <ele>1938.1999512</ele>
        <time>2013-07-27T13:03:46Z</time>
      </trkpt>
      <trkpt lat="45.51388" lon="6.6975">
        <ele>1941.1999512</ele>
        <time>2013-07-27T13:03:52Z</time>
      </trkpt>
      <trkpt lat="45.51397" lon="6.69748">
        <ele>1941.5999756</ele>
        <time>2013-07-27T13:03:58Z</time>
      </trkpt>
      <trkpt lat="45.51409" lon="6.69752">
        <ele>1937.1999512</ele>
        <time>2013-07-27T13:04:03Z</time>
      </trkpt>
      <trkpt lat="45.51418" lon="6.69755">
        <ele>1933.8000488</ele>
        <time>2013-07-27T13:04:06Z</time>
      </trkpt>
      <trkpt lat="45.51424" lon="6.69756">
        <ele>1930.4000244</ele>
        <time>2013-07-27T13:04:09Z</time>
      </trkpt>
      <trkpt lat="45.51432" lon="6.69752">
        <ele>1926</ele>
        <time>2013-07-27T13:04:14Z</time>
      </trkpt>
      <trkpt lat="45.51439" lon="6.69748">
        <ele>1926.1999512</ele>
        <time>2013-07-27T13:04:19Z</time>
      </trkpt>
      <trkpt lat="45.51445" lon="6.69742">
        <ele>1927</ele>
        <time>2013-07-27T13:04:24Z</time>
      </trkpt>
      <trkpt lat="45.51455" lon="6.69745">
        <ele>1928</ele>
        <time>2013-07-27T13:04:31Z</time>
      </trkpt>
      <trkpt lat="45.51461" lon="6.69748">
        <ele>1929</ele>
        <time>2013-07-27T13:04:36Z</time>
      </trkpt>
      <trkpt lat="45.51468" lon="6.69751">
        <ele>1929.8000488</ele>
        <time>2013-07-27T13:04:41Z</time>
      </trkpt>
      <trkpt lat="45.51475" lon="6.69753">
        <ele>1929.8000488</ele>
        <time>2013-07-27T13:04:46Z</time>
      </trkpt>
      <trkpt lat="45.51483" lon="6.69752">
        <ele>1930</ele>
        <time>2013-07-27T13:04:51Z</time>
      </trkpt>
      <trkpt lat="45.51491" lon="6.69752">
        <ele>1930</ele>
        <time>2013-07-27T13:04:56Z</time>
      </trkpt>
      <trkpt lat="45.51499" lon="6.6975">
        <ele>1930</ele>
        <time>2013-07-27T13:05:04Z</time>
      </trkpt>
      <trkpt lat="45.51506" lon="6.69745">
        <ele>1930.1999512</ele>
        <time>2013-07-27T13:05:11Z</time>
      </trkpt>
      <trkpt lat="45.51512" lon="6.69739">
        <ele>1930.4000244</ele>
        <time>2013-07-27T13:05:17Z</time>
      </trkpt>
      <trkpt lat="45.51517" lon="6.69734">
        <ele>1930.4000244</ele>
        <time>2013-07-27T13:05:22Z</time>
      </trkpt>
      <trkpt lat="45.51522" lon="6.69726">
        <ele>1929.5999756</ele>
        <time>2013-07-27T13:05:27Z</time>
      </trkpt>
      <trkpt lat="45.51528" lon="6.69716">
        <ele>1928.1999512</ele>
        <time>2013-07-27T13:05:33Z</time>
      </trkpt>
      <trkpt lat="45.51531" lon="6.69707">
        <ele>1927.8000488</ele>
        <time>2013-07-27T13:05:38Z</time>
      </trkpt>
      <trkpt lat="45.51534" lon="6.69697">
        <ele>1927.1999512</ele>
        <time>2013-07-27T13:05:43Z</time>
      </trkpt>
      <trkpt lat="45.51536" lon="6.69685">
        <ele>1925.8000488</ele>
        <time>2013-07-27T13:05:49Z</time>
      </trkpt>
      <trkpt lat="45.51539" lon="6.69675">
        <ele>1925.4000244</ele>
        <time>2013-07-27T13:05:54Z</time>
      </trkpt>
      <trkpt lat="45.51543" lon="6.69661">
        <ele>1924.5999756</ele>
        <time>2013-07-27T13:06:00Z</time>
      </trkpt>
      <trkpt lat="45.51544" lon="6.69649">
        <ele>1923.4000244</ele>
        <time>2013-07-27T13:06:05Z</time>
      </trkpt>
      <trkpt lat="45.51547" lon="6.69636">
        <ele>1921.8000488</ele>
        <time>2013-07-27T13:06:11Z</time>
      </trkpt>
      <trkpt lat="45.51551" lon="6.69625">
        <ele>1920.4000244</ele>
        <time>2013-07-27T13:06:16Z</time>
      </trkpt>
      <trkpt lat="45.51556" lon="6.69613">
        <ele>1919</ele>
        <time>2013-07-27T13:06:22Z</time>
      </trkpt>
      <trkpt lat="45.5156" lon="6.69602">
        <ele>1917.5999756</ele>
        <time>2013-07-27T13:06:28Z</time>
      </trkpt>
      <trkpt lat="45.51563" lon="6.69594">
        <ele>1915.8000488</ele>
        <time>2013-07-27T13:06:33Z</time>
      </trkpt>
      <trkpt lat="45.51568" lon="6.69581">
        <ele>1912.5999756</ele>
        <time>2013-07-27T13:06:40Z</time>
      </trkpt>
      <trkpt lat="45.51571" lon="6.6957">
        <ele>1911</ele>
        <time>2013-07-27T13:06:44Z</time>
      </trkpt>
      <trkpt lat="45.51571" lon="6.69556">
        <ele>1909.4000244</ele>
        <time>2013-07-27T13:06:49Z</time>
      </trkpt>
      <trkpt lat="45.51572" lon="6.69542">
        <ele>1906.1999512</ele>
        <time>2013-07-27T13:06:55Z</time>
      </trkpt>
      <trkpt lat="45.51571" lon="6.6953">
        <ele>1903.8000488</ele>
        <time>2013-07-27T13:07:00Z</time>
      </trkpt>
      <trkpt lat="45.51569" lon="6.69521">
        <ele>1902.8000488</ele>
        <time>2013-07-27T13:07:06Z</time>
      </trkpt>
      <trkpt lat="45.51565" lon="6.69509">
        <ele>1902.1999512</ele>
        <time>2013-07-27T13:07:11Z</time>
      </trkpt>
      <trkpt lat="45.51556" lon="6.69491">
        <ele>1902.4000244</ele>
        <time>2013-07-27T13:07:18Z</time>
      </trkpt>
      <trkpt lat="45.51551" lon="6.69484">
        <ele>1902.5999756</ele>
        <time>2013-07-27T13:07:21Z</time>
      </trkpt>
      <trkpt lat="45.51544" lon="6.69476">
        <ele>1902</ele>
        <time>2013-07-27T13:07:26Z</time>
      </trkpt>
      <trkpt lat="45.51538" lon="6.6947">
        <ele>1900.4000244</ele>
        <time>2013-07-27T13:07:30Z</time>
      </trkpt>
      <trkpt lat="45.51531" lon="6.69462">
        <ele>1898.4000244</ele>
        <time>2013-07-27T13:07:36Z</time>
      </trkpt>
      <trkpt lat="45.51525" lon="6.69466">
        <ele>1899.1999512</ele>
        <time>2013-07-27T13:07:44Z</time>
      </trkpt>
      <trkpt lat="45.51518" lon="6.69465">
        <ele>1900</ele>
        <time>2013-07-27T13:07:49Z</time>
      </trkpt>
      <trkpt lat="45.51511" lon="6.69461">
        <ele>1898.1999512</ele>
        <time>2013-07-27T13:07:54Z</time>
      </trkpt>
      <trkpt lat="45.51512" lon="6.69445">
        <ele>1896.1999512</ele>
        <time>2013-07-27T13:08:00Z</time>
      </trkpt>
      <trkpt lat="45.51514" lon="6.69434">
        <ele>1893.8000488</ele>
        <time>2013-07-27T13:08:05Z</time>
      </trkpt>
      <trkpt lat="45.51518" lon="6.69425">
        <ele>1892.1999512</ele>
        <time>2013-07-27T13:08:09Z</time>
      </trkpt>
      <trkpt lat="45.51524" lon="6.69415">
        <ele>1890.5999756</ele>
        <time>2013-07-27T13:08:14Z</time>
      </trkpt>
      <trkpt lat="45.51531" lon="6.69412">
        <ele>1889.4000244</ele>
        <time>2013-07-27T13:08:18Z</time>
      </trkpt>
      <trkpt lat="45.5154" lon="6.69408">
        <ele>1886.5999756</ele>
        <time>2013-07-27T13:08:23Z</time>
      </trkpt>
      <trkpt lat="45.51549" lon="6.69406">
        <ele>1884.4000244</ele>
        <time>2013-07-27T13:08:28Z</time>
      </trkpt>
      <trkpt lat="45.51558" lon="6.69401">
        <ele>1882.5999756</ele>
        <time>2013-07-27T13:08:33Z</time>
      </trkpt>
      <trkpt lat="45.51566" lon="6.69396">
        <ele>1882.1999512</ele>
        <time>2013-07-27T13:08:37Z</time>
      </trkpt>
      <trkpt lat="45.51572" lon="6.69393">
        <ele>1881.8000488</ele>
        <time>2013-07-27T13:08:40Z</time>
      </trkpt>
      <trkpt lat="45.51582" lon="6.69392">
        <ele>1880.5999756</ele>
        <time>2013-07-27T13:08:45Z</time>
      </trkpt>
      <trkpt lat="45.51591" lon="6.69392">
        <ele>1878</ele>
        <time>2013-07-27T13:08:50Z</time>
      </trkpt>
      <trkpt lat="45.51601" lon="6.69391">
        <ele>1876.1999512</ele>
        <time>2013-07-27T13:08:55Z</time>
      </trkpt>
      <trkpt lat="45.51609" lon="6.69383">
        <ele>1875.8000488</ele>
        <time>2013-07-27T13:09:00Z</time>
      </trkpt>
      <trkpt lat="45.51616" lon="6.69373">
        <ele>1877.5999756</ele>
        <time>2013-07-27T13:09:06Z</time>
      </trkpt>
      <trkpt lat="45.51624" lon="6.69367">
        <ele>1880.5999756</ele>
        <time>2013-07-27T13:09:12Z</time>
      </trkpt>
      <trkpt lat="45.5163" lon="6.69365">
        <ele>1881.1999512</ele>
        <time>2013-07-27T13:09:15Z</time>
      </trkpt>
      <trkpt lat="45.5164" lon="6.69365">
        <ele>1881.8000488</ele>
        <time>2013-07-27T13:09:20Z</time>
      </trkpt>
      <trkpt lat="45.51648" lon="6.69365">
        <ele>1881.5999756</ele>
        <time>2013-07-27T13:09:25Z</time>
      </trkpt>
      <trkpt lat="45.51655" lon="6.69364">
        <ele>1884.4000244</ele>
        <time>2013-07-27T13:09:32Z</time>
      </trkpt>
      <trkpt lat="45.51662" lon="6.69357">
        <ele>1886</ele>
        <time>2013-07-27T13:09:39Z</time>
      </trkpt>
      <trkpt lat="45.51668" lon="6.69354">
        <ele>1885.1999512</ele>
        <time>2013-07-27T13:09:42Z</time>
      </trkpt>
      <trkpt lat="45.51676" lon="6.6935">
        <ele>1883.4000244</ele>
        <time>2013-07-27T13:09:47Z</time>
      </trkpt>
      <trkpt lat="45.51682" lon="6.69342">
        <ele>1882.1999512</ele>
        <time>2013-07-27T13:09:52Z</time>
      </trkpt>
      <trkpt lat="45.5169" lon="6.69336">
        <ele>1884</ele>
        <time>2013-07-27T13:09:57Z</time>
      </trkpt>
      <trkpt lat="45.51696" lon="6.69328">
        <ele>1887.1999512</ele>
        <time>2013-07-27T13:10:02Z</time>
      </trkpt>
      <trkpt lat="45.51704" lon="6.69323">
        <ele>1892.5999756</ele>
        <time>2013-07-27T13:10:10Z</time>
      </trkpt>
      <trkpt lat="45.51711" lon="6.69317">
        <ele>1895.4000244</ele>
        <time>2013-07-27T13:10:15Z</time>
      </trkpt>
      <trkpt lat="45.51718" lon="6.69309">
        <ele>1898.1999512</ele>
        <time>2013-07-27T13:10:20Z</time>
      </trkpt>
      <trkpt lat="45.51724" lon="6.69304">
        <ele>1900.5999756</ele>
        <time>2013-07-27T13:10:24Z</time>
      </trkpt>
      <trkpt lat="45.51731" lon="6.69299">
        <ele>1901</ele>
        <time>2013-07-27T13:10:29Z</time>
      </trkpt>
      <trkpt lat="45.51742" lon="6.69295">
        <ele>1897.8000488</ele>
        <time>2013-07-27T13:10:35Z</time>
      </trkpt>
      <trkpt lat="45.5175" lon="6.69292">
        <ele>1894</ele>
        <time>2013-07-27T13:10:38Z</time>
      </trkpt>
      <trkpt lat="45.51759" lon="6.69288">
        <ele>1885</ele>
        <time>2013-07-27T13:10:42Z</time>
      </trkpt>
      <trkpt lat="45.51772" lon="6.69282">
        <ele>1876.8000488</ele>
        <time>2013-07-27T13:10:47Z</time>
      </trkpt>
      <trkpt lat="45.5178" lon="6.69278">
        <ele>1873.4000244</ele>
        <time>2013-07-27T13:10:50Z</time>
      </trkpt>
      <trkpt lat="45.51789" lon="6.69275">
        <ele>1868.4000244</ele>
        <time>2013-07-27T13:10:54Z</time>
      </trkpt>
      <trkpt lat="45.51798" lon="6.69267">
        <ele>1866.5999756</ele>
        <time>2013-07-27T13:10:59Z</time>
      </trkpt>
      <trkpt lat="45.51805" lon="6.6926">
        <ele>1871</ele>
        <time>2013-07-27T13:11:05Z</time>
      </trkpt>
      <trkpt lat="45.51811" lon="6.69253">
        <ele>1874</ele>
        <time>2013-07-27T13:11:10Z</time>
      </trkpt>
      <trkpt lat="45.51816" lon="6.69245">
        <ele>1878.4000244</ele>
        <time>2013-07-27T13:11:17Z</time>
      </trkpt>
      <trkpt lat="45.51822" lon="6.69239">
        <ele>1881</ele>
        <time>2013-07-27T13:11:22Z</time>
      </trkpt>
      <trkpt lat="45.5183" lon="6.6923">
        <ele>1882.5999756</ele>
        <time>2013-07-27T13:11:29Z</time>
      </trkpt>
      <trkpt lat="45.51834" lon="6.69223">
        <ele>1882.4000244</ele>
        <time>2013-07-27T13:11:34Z</time>
      </trkpt>
      <trkpt lat="45.51841" lon="6.69216">
        <ele>1881</ele>
        <time>2013-07-27T13:11:40Z</time>
      </trkpt>
      <trkpt lat="45.51849" lon="6.69212">
        <ele>1880.4000244</ele>
        <time>2013-07-27T13:11:46Z</time>
      </trkpt>
      <trkpt lat="45.51857" lon="6.69208">
        <ele>1881.4000244</ele>
        <time>2013-07-27T13:11:52Z</time>
      </trkpt>
      <trkpt lat="45.51866" lon="6.69204">
        <ele>1881.5999756</ele>
        <time>2013-07-27T13:11:58Z</time>
      </trkpt>
      <trkpt lat="45.51872" lon="6.69198">
        <ele>1883</ele>
        <time>2013-07-27T13:12:05Z</time>
      </trkpt>
      <trkpt lat="45.5188" lon="6.69197">
        <ele>1883</ele>
        <time>2013-07-27T13:12:12Z</time>
      </trkpt>
      <trkpt lat="45.51887" lon="6.69193">
        <ele>1882.8000488</ele>
        <time>2013-07-27T13:12:18Z</time>
      </trkpt>
      <trkpt lat="45.51893" lon="6.69192">
        <ele>1883</ele>
        <time>2013-07-27T13:12:23Z</time>
      </trkpt>
      <trkpt lat="45.51899" lon="6.69189">
        <ele>1883</ele>
        <time>2013-07-27T13:12:28Z</time>
      </trkpt>
      <trkpt lat="45.51905" lon="6.69185">
        <ele>1883.4000244</ele>
        <time>2013-07-27T13:12:33Z</time>
      </trkpt>
      <trkpt lat="45.5191" lon="6.69179">
        <ele>1883.4000244</ele>
        <time>2013-07-27T13:12:38Z</time>
      </trkpt>
      <trkpt lat="45.51917" lon="6.69172">
        <ele>1882.5999756</ele>
        <time>2013-07-27T13:12:44Z</time>
      </trkpt>
      <trkpt lat="45.51925" lon="6.6916">
        <ele>1881.5999756</ele>
        <time>2013-07-27T13:12:53Z</time>
      </trkpt>
      <trkpt lat="45.51935" lon="6.69157">
        <ele>1882.8000488</ele>
        <time>2013-07-27T13:13:01Z</time>
      </trkpt>
      <trkpt lat="45.51942" lon="6.69155">
        <ele>1882.5999756</ele>
        <time>2013-07-27T13:13:07Z</time>
      </trkpt>
      <trkpt lat="45.51952" lon="6.69151">
        <ele>1883</ele>
        <time>2013-07-27T13:13:16Z</time>
      </trkpt>
      <trkpt lat="45.51959" lon="6.69149">
        <ele>1883</ele>
        <time>2013-07-27T13:13:23Z</time>
      </trkpt>
      <trkpt lat="45.51964" lon="6.69142">
        <ele>1879.8000488</ele>
        <time>2013-07-27T13:13:31Z</time>
      </trkpt>
      <trkpt lat="45.51969" lon="6.69134">
        <ele>1876</ele>
        <time>2013-07-27T13:13:41Z</time>
      </trkpt>
      <trkpt lat="45.51974" lon="6.69127">
        <ele>1872.4000244</ele>
        <time>2013-07-27T13:13:48Z</time>
      </trkpt>
      <trkpt lat="45.51981" lon="6.6912">
        <ele>1871.1999512</ele>
        <time>2013-07-27T13:13:57Z</time>
      </trkpt>
      <trkpt lat="45.51989" lon="6.69106">
        <ele>1871.4000244</ele>
        <time>2013-07-27T13:14:07Z</time>
      </trkpt>
      <trkpt lat="45.51994" lon="6.69092">
        <ele>1873</ele>
        <time>2013-07-27T13:14:13Z</time>
      </trkpt>
      <trkpt lat="45.52001" lon="6.69085">
        <ele>1873.8000488</ele>
        <time>2013-07-27T13:14:19Z</time>
      </trkpt>
      <trkpt lat="45.52007" lon="6.69078">
        <ele>1873.4000244</ele>
        <time>2013-07-27T13:14:24Z</time>
      </trkpt>
      <trkpt lat="45.52013" lon="6.69069">
        <ele>1874.4000244</ele>
        <time>2013-07-27T13:14:32Z</time>
      </trkpt>
      <trkpt lat="45.5202" lon="6.69062">
        <ele>1876.8000488</ele>
        <time>2013-07-27T13:14:40Z</time>
      </trkpt>
      <trkpt lat="45.52027" lon="6.69057">
        <ele>1878.8000488</ele>
        <time>2013-07-27T13:14:47Z</time>
      </trkpt>
      <trkpt lat="45.52036" lon="6.6905">
        <ele>1881</ele>
        <time>2013-07-27T13:14:54Z</time>
      </trkpt>
      <trkpt lat="45.5204" lon="6.69042">
        <ele>1883.5999756</ele>
        <time>2013-07-27T13:14:59Z</time>
      </trkpt>
      <trkpt lat="45.52046" lon="6.69036">
        <ele>1888.5999756</ele>
        <time>2013-07-27T13:15:05Z</time>
      </trkpt>
      <trkpt lat="45.52052" lon="6.69029">
        <ele>1892</ele>
        <time>2013-07-27T13:15:12Z</time>
      </trkpt>
      <trkpt lat="45.52057" lon="6.69023">
        <ele>1894</ele>
        <time>2013-07-27T13:15:18Z</time>
      </trkpt>
      <trkpt lat="45.52064" lon="6.69014">
        <ele>1898</ele>
        <time>2013-07-27T13:15:26Z</time>
      </trkpt>
      <trkpt lat="45.52069" lon="6.69008">
        <ele>1899.1999512</ele>
        <time>2013-07-27T13:15:34Z</time>
      </trkpt>
      <trkpt lat="45.52076" lon="6.69">
        <ele>1898.1999512</ele>
        <time>2013-07-27T13:15:41Z</time>
      </trkpt>
      <trkpt lat="45.52081" lon="6.68992">
        <ele>1897.4000244</ele>
        <time>2013-07-27T13:15:47Z</time>
      </trkpt>
      <trkpt lat="45.52086" lon="6.68985">
        <ele>1895.5999756</ele>
        <time>2013-07-27T13:15:53Z</time>
      </trkpt>
      <trkpt lat="45.5209" lon="6.68976">
        <ele>1895.1999512</ele>
        <time>2013-07-27T13:15:59Z</time>
      </trkpt>
      <trkpt lat="45.52094" lon="6.68968">
        <ele>1895.8000488</ele>
        <time>2013-07-27T13:16:04Z</time>
      </trkpt>
      <trkpt lat="45.52098" lon="6.68959">
        <ele>1896.8000488</ele>
        <time>2013-07-27T13:16:11Z</time>
      </trkpt>
      <trkpt lat="45.52104" lon="6.68949">
        <ele>1896.1999512</ele>
        <time>2013-07-27T13:16:18Z</time>
      </trkpt>
      <trkpt lat="45.5211" lon="6.68944">
        <ele>1896.5999756</ele>
        <time>2013-07-27T13:16:23Z</time>
      </trkpt>
      <trkpt lat="45.52116" lon="6.68935">
        <ele>1897.1999512</ele>
        <time>2013-07-27T13:16:29Z</time>
      </trkpt>
      <trkpt lat="45.52122" lon="6.68926">
        <ele>1898.1999512</ele>
        <time>2013-07-27T13:16:34Z</time>
      </trkpt>
      <trkpt lat="45.52129" lon="6.68914">
        <ele>1898.5999756</ele>
        <time>2013-07-27T13:16:41Z</time>
      </trkpt>
      <trkpt lat="45.52134" lon="6.68907">
        <ele>1898.8000488</ele>
        <time>2013-07-27T13:16:46Z</time>
      </trkpt>
      <trkpt lat="45.5214" lon="6.68899">
        <ele>1899.8000488</ele>
        <time>2013-07-27T13:16:53Z</time>
      </trkpt>
      <trkpt lat="45.52143" lon="6.68891">
        <ele>1899.4000244</ele>
        <time>2013-07-27T13:16:58Z</time>
      </trkpt>
      <trkpt lat="45.52145" lon="6.68882">
        <ele>1897.5999756</ele>
        <time>2013-07-27T13:17:03Z</time>
      </trkpt>
      <trkpt lat="45.5215" lon="6.68874">
        <ele>1895.8000488</ele>
        <time>2013-07-27T13:17:08Z</time>
      </trkpt>
      <trkpt lat="45.52153" lon="6.68866">
        <ele>1895.4000244</ele>
        <time>2013-07-27T13:17:13Z</time>
      </trkpt>
      <trkpt lat="45.52159" lon="6.6886">
        <ele>1895.8000488</ele>
        <time>2013-07-27T13:17:18Z</time>
      </trkpt>
      <trkpt lat="45.52166" lon="6.68855">
        <ele>1897.4000244</ele>
        <time>2013-07-27T13:17:25Z</time>
      </trkpt>
      <trkpt lat="45.52176" lon="6.68851">
        <ele>1897</ele>
        <time>2013-07-27T13:17:31Z</time>
      </trkpt>
      <trkpt lat="45.52184" lon="6.68849">
        <ele>1894.5999756</ele>
        <time>2013-07-27T13:17:36Z</time>
      </trkpt>
      <trkpt lat="45.52192" lon="6.68847">
        <ele>1892.4000244</ele>
        <time>2013-07-27T13:17:41Z</time>
      </trkpt>
      <trkpt lat="45.52198" lon="6.68845">
        <ele>1893.8000488</ele>
        <time>2013-07-27T13:17:47Z</time>
      </trkpt>
      <trkpt lat="45.52204" lon="6.68839">
        <ele>1896.8000488</ele>
        <time>2013-07-27T13:17:54Z</time>
      </trkpt>
      <trkpt lat="45.52208" lon="6.68832">
        <ele>1901.4000244</ele>
        <time>2013-07-27T13:18:01Z</time>
      </trkpt>
      <trkpt lat="45.52216" lon="6.68825">
        <ele>1909</ele>
        <time>2013-07-27T13:18:10Z</time>
      </trkpt>
      <trkpt lat="45.52222" lon="6.68818">
        <ele>1913.5999756</ele>
        <time>2013-07-27T13:18:17Z</time>
      </trkpt>
      <trkpt lat="45.52229" lon="6.68814">
        <ele>1918.1999512</ele>
        <time>2013-07-27T13:18:24Z</time>
      </trkpt>
      <trkpt lat="45.52236" lon="6.6881">
        <ele>1919.1999512</ele>
        <time>2013-07-27T13:18:30Z</time>
      </trkpt>
      <trkpt lat="45.5224" lon="6.68803">
        <ele>1919.5999756</ele>
        <time>2013-07-27T13:18:35Z</time>
      </trkpt>
      <trkpt lat="45.52246" lon="6.68799">
        <ele>1919.5999756</ele>
        <time>2013-07-27T13:18:40Z</time>
      </trkpt>
      <trkpt lat="45.5225" lon="6.68788">
        <ele>1918.8000488</ele>
        <time>2013-07-27T13:18:47Z</time>
      </trkpt>
      <trkpt lat="45.52257" lon="6.68781">
        <ele>1918</ele>
        <time>2013-07-27T13:18:52Z</time>
      </trkpt>
      <trkpt lat="45.52261" lon="6.68774">
        <ele>1917.5999756</ele>
        <time>2013-07-27T13:18:56Z</time>
      </trkpt>
      <trkpt lat="45.52264" lon="6.68765">
        <ele>1917.5999756</ele>
        <time>2013-07-27T13:19:01Z</time>
      </trkpt>
      <trkpt lat="45.52271" lon="6.68754">
        <ele>1918.1999512</ele>
        <time>2013-07-27T13:19:08Z</time>
      </trkpt>
      <trkpt lat="45.52275" lon="6.68744">
        <ele>1918.5999756</ele>
        <time>2013-07-27T13:19:15Z</time>
      </trkpt>
      <trkpt lat="45.52282" lon="6.68739">
        <ele>1919.4000244</ele>
        <time>2013-07-27T13:19:21Z</time>
      </trkpt>
      <trkpt lat="45.52291" lon="6.68731">
        <ele>1921</ele>
        <time>2013-07-27T13:19:29Z</time>
      </trkpt>
      <trkpt lat="45.52298" lon="6.68722">
        <ele>1920.4000244</ele>
        <time>2013-07-27T13:19:34Z</time>
      </trkpt>
      <trkpt lat="45.52302" lon="6.6871">
        <ele>1919</ele>
        <time>2013-07-27T13:19:38Z</time>
      </trkpt>
      <trkpt lat="45.52305" lon="6.68702">
        <ele>1918.4000244</ele>
        <time>2013-07-27T13:19:41Z</time>
      </trkpt>
      <trkpt lat="45.52308" lon="6.68688">
        <ele>1917</ele>
        <time>2013-07-27T13:19:47Z</time>
      </trkpt>
      <trkpt lat="45.52314" lon="6.68681">
        <ele>1915.8000488</ele>
        <time>2013-07-27T13:19:51Z</time>
      </trkpt>
      <trkpt lat="45.52319" lon="6.68675">
        <ele>1914</ele>
        <time>2013-07-27T13:19:54Z</time>
      </trkpt>
      <trkpt lat="45.52328" lon="6.68668">
        <ele>1909.8000488</ele>
        <time>2013-07-27T13:19:59Z</time>
      </trkpt>
      <trkpt lat="45.52335" lon="6.68661">
        <ele>1905.4000244</ele>
        <time>2013-07-27T13:20:04Z</time>
      </trkpt>
      <trkpt lat="45.52342" lon="6.68654">
        <ele>1904.4000244</ele>
        <time>2013-07-27T13:20:09Z</time>
      </trkpt>
      <trkpt lat="45.5235" lon="6.68647">
        <ele>1904.1999512</ele>
        <time>2013-07-27T13:20:14Z</time>
      </trkpt>
      <trkpt lat="45.52356" lon="6.6864">
        <ele>1904</ele>
        <time>2013-07-27T13:20:18Z</time>
      </trkpt>
      <trkpt lat="45.52363" lon="6.68631">
        <ele>1904.5999756</ele>
        <time>2013-07-27T13:20:24Z</time>
      </trkpt>
      <trkpt lat="45.52368" lon="6.68622">
        <ele>1906.8000488</ele>
        <time>2013-07-27T13:20:29Z</time>
      </trkpt>
      <trkpt lat="45.52375" lon="6.68614">
        <ele>1908.8000488</ele>
        <time>2013-07-27T13:20:35Z</time>
      </trkpt>
      <trkpt lat="45.52379" lon="6.68604">
        <ele>1910</ele>
        <time>2013-07-27T13:20:40Z</time>
      </trkpt>
      <trkpt lat="45.52381" lon="6.68591">
        <ele>1909.1999512</ele>
        <time>2013-07-27T13:20:46Z</time>
      </trkpt>
      <trkpt lat="45.52385" lon="6.68583">
        <ele>1907.4000244</ele>
        <time>2013-07-27T13:20:50Z</time>
      </trkpt>
      <trkpt lat="45.52394" lon="6.68577">
        <ele>1905.8000488</ele>
        <time>2013-07-27T13:20:55Z</time>
      </trkpt>
      <trkpt lat="45.52406" lon="6.68569">
        <ele>1904.5999756</ele>
        <time>2013-07-27T13:21:01Z</time>
      </trkpt>
      <trkpt lat="45.52411" lon="6.68559">
        <ele>1903.8000488</ele>
        <time>2013-07-27T13:21:05Z</time>
      </trkpt>
      <trkpt lat="45.52417" lon="6.68552">
        <ele>1902.1999512</ele>
        <time>2013-07-27T13:21:09Z</time>
      </trkpt>
      <trkpt lat="45.52424" lon="6.68548">
        <ele>1900.5999756</ele>
        <time>2013-07-27T13:21:13Z</time>
      </trkpt>
      <trkpt lat="45.52431" lon="6.68545">
        <ele>1898.8000488</ele>
        <time>2013-07-27T13:21:16Z</time>
      </trkpt>
      <trkpt lat="45.52439" lon="6.68538">
        <ele>1896.1999512</ele>
        <time>2013-07-27T13:21:20Z</time>
      </trkpt>
      <trkpt lat="45.52448" lon="6.68534">
        <ele>1894.4000244</ele>
        <time>2013-07-27T13:21:25Z</time>
      </trkpt>
      <trkpt lat="45.52454" lon="6.68528">
        <ele>1893.4000244</ele>
        <time>2013-07-27T13:21:31Z</time>
      </trkpt>
      <trkpt lat="45.52459" lon="6.68521">
        <ele>1893</ele>
        <time>2013-07-27T13:21:36Z</time>
      </trkpt>
      <trkpt lat="45.52463" lon="6.68513">
        <ele>1893.8000488</ele>
        <time>2013-07-27T13:21:40Z</time>
      </trkpt>
      <trkpt lat="45.5247" lon="6.68502">
        <ele>1896.1999512</ele>
        <time>2013-07-27T13:21:46Z</time>
      </trkpt>
      <trkpt lat="45.52477" lon="6.68499">
        <ele>1897.5999756</ele>
        <time>2013-07-27T13:21:50Z</time>
      </trkpt>
      <trkpt lat="45.52486" lon="6.68499">
        <ele>1896.8000488</ele>
        <time>2013-07-27T13:21:55Z</time>
      </trkpt>
      <trkpt lat="45.52498" lon="6.68499">
        <ele>1893.1999512</ele>
        <time>2013-07-27T13:22:01Z</time>
      </trkpt>
      <trkpt lat="45.52506" lon="6.68498">
        <ele>1890.8000488</ele>
        <time>2013-07-27T13:22:06Z</time>
      </trkpt>
      <trkpt lat="45.52516" lon="6.68496">
        <ele>1889.8000488</ele>
        <time>2013-07-27T13:22:11Z</time>
      </trkpt>
      <trkpt lat="45.52523" lon="6.68493">
        <ele>1889.1999512</ele>
        <time>2013-07-27T13:22:15Z</time>
      </trkpt>
      <trkpt lat="45.5253" lon="6.68489">
        <ele>1890</ele>
        <time>2013-07-27T13:22:20Z</time>
      </trkpt>
      <trkpt lat="45.52536" lon="6.6848">
        <ele>1893.1999512</ele>
        <time>2013-07-27T13:22:27Z</time>
      </trkpt>
      <trkpt lat="45.52541" lon="6.68471">
        <ele>1895.4000244</ele>
        <time>2013-07-27T13:22:34Z</time>
      </trkpt>
      <trkpt lat="45.52549" lon="6.68465">
        <ele>1895.1999512</ele>
        <time>2013-07-27T13:22:41Z</time>
      </trkpt>
      <trkpt lat="45.52555" lon="6.68459">
        <ele>1893.4000244</ele>
        <time>2013-07-27T13:22:47Z</time>
      </trkpt>
      <trkpt lat="45.52561" lon="6.68452">
        <ele>1893</ele>
        <time>2013-07-27T13:22:52Z</time>
      </trkpt>
      <trkpt lat="45.52567" lon="6.68443">
        <ele>1894</ele>
        <time>2013-07-27T13:22:58Z</time>
      </trkpt>
      <trkpt lat="45.52576" lon="6.68439">
        <ele>1894.1999512</ele>
        <time>2013-07-27T13:23:03Z</time>
      </trkpt>
      <trkpt lat="45.52583" lon="6.68436">
        <ele>1893</ele>
        <time>2013-07-27T13:23:07Z</time>
      </trkpt>
      <trkpt lat="45.52596" lon="6.68434">
        <ele>1889.1999512</ele>
        <time>2013-07-27T13:23:13Z</time>
      </trkpt>
      <trkpt lat="45.52604" lon="6.68431">
        <ele>1886.4000244</ele>
        <time>2013-07-27T13:23:17Z</time>
      </trkpt>
      <trkpt lat="45.52614" lon="6.68428">
        <ele>1884.5999756</ele>
        <time>2013-07-27T13:23:22Z</time>
      </trkpt>
      <trkpt lat="45.52624" lon="6.68431">
        <ele>1886.1999512</ele>
        <time>2013-07-27T13:23:28Z</time>
      </trkpt>
      <trkpt lat="45.52636" lon="6.68435">
        <ele>1885</ele>
        <time>2013-07-27T13:23:34Z</time>
      </trkpt>
      <trkpt lat="45.52647" lon="6.68442">
        <ele>1881.4000244</ele>
        <time>2013-07-27T13:23:39Z</time>
      </trkpt>
      <trkpt lat="45.52657" lon="6.68447">
        <ele>1876.1999512</ele>
        <time>2013-07-27T13:23:44Z</time>
      </trkpt>
      <trkpt lat="45.52665" lon="6.68449">
        <ele>1874.5999756</ele>
        <time>2013-07-27T13:23:49Z</time>
      </trkpt>
      <trkpt lat="45.52672" lon="6.68453">
        <ele>1874.8000488</ele>
        <time>2013-07-27T13:23:54Z</time>
      </trkpt>
      <trkpt lat="45.52679" lon="6.6846">
        <ele>1876</ele>
        <time>2013-07-27T13:23:59Z</time>
      </trkpt>
      <trkpt lat="45.52683" lon="6.68468">
        <ele>1876.1999512</ele>
        <time>2013-07-27T13:24:03Z</time>
      </trkpt>
      <trkpt lat="45.52687" lon="6.6848">
        <ele>1875</ele>
        <time>2013-07-27T13:24:07Z</time>
      </trkpt>
      <trkpt lat="45.52687" lon="6.68492">
        <ele>1873.4000244</ele>
        <time>2013-07-27T13:24:12Z</time>
      </trkpt>
      <trkpt lat="45.52684" lon="6.68502">
        <ele>1871.5999756</ele>
        <time>2013-07-27T13:24:16Z</time>
      </trkpt>
      <trkpt lat="45.52681" lon="6.68516">
        <ele>1870.5999756</ele>
        <time>2013-07-27T13:24:21Z</time>
      </trkpt>
      <trkpt lat="45.5268" lon="6.68531">
        <ele>1869.5999756</ele>
        <time>2013-07-27T13:24:27Z</time>
      </trkpt>
      <trkpt lat="45.52685" lon="6.68544">
        <ele>1869</ele>
        <time>2013-07-27T13:24:33Z</time>
      </trkpt>
      <trkpt lat="45.52691" lon="6.68554">
        <ele>1869.8000488</ele>
        <time>2013-07-27T13:24:38Z</time>
      </trkpt>
      <trkpt lat="45.52697" lon="6.68564">
        <ele>1869.8000488</ele>
        <time>2013-07-27T13:24:44Z</time>
      </trkpt>
      <trkpt lat="45.52699" lon="6.68576">
        <ele>1870.5999756</ele>
        <time>2013-07-27T13:24:50Z</time>
      </trkpt>
      <trkpt lat="45.527" lon="6.68585">
        <ele>1871.1999512</ele>
        <time>2013-07-27T13:24:53Z</time>
      </trkpt>
      <trkpt lat="45.52702" lon="6.68598">
        <ele>1873.8000488</ele>
        <time>2013-07-27T13:24:58Z</time>
      </trkpt>
      <trkpt lat="45.52706" lon="6.68604">
        <ele>1875.1999512</ele>
        <time>2013-07-27T13:25:01Z</time>
      </trkpt>
      <trkpt lat="45.52713" lon="6.68615">
        <ele>1877.1999512</ele>
        <time>2013-07-27T13:25:06Z</time>
      </trkpt>
      <trkpt lat="45.52719" lon="6.68623">
        <ele>1877.8000488</ele>
        <time>2013-07-27T13:25:11Z</time>
      </trkpt>
      <trkpt lat="45.52726" lon="6.68629">
        <ele>1878.1999512</ele>
        <time>2013-07-27T13:25:16Z</time>
      </trkpt>
      <trkpt lat="45.52734" lon="6.68637">
        <ele>1880</ele>
        <time>2013-07-27T13:25:21Z</time>
      </trkpt>
      <trkpt lat="45.52742" lon="6.68645">
        <ele>1881</ele>
        <time>2013-07-27T13:25:27Z</time>
      </trkpt>
      <trkpt lat="45.52749" lon="6.68652">
        <ele>1880.8000488</ele>
        <time>2013-07-27T13:25:33Z</time>
      </trkpt>
      <trkpt lat="45.52755" lon="6.68662">
        <ele>1879.8000488</ele>
        <time>2013-07-27T13:25:38Z</time>
      </trkpt>
      <trkpt lat="45.52761" lon="6.68668">
        <ele>1879.1999512</ele>
        <time>2013-07-27T13:25:43Z</time>
      </trkpt>
      <trkpt lat="45.52768" lon="6.68675">
        <ele>1880</ele>
        <time>2013-07-27T13:25:50Z</time>
      </trkpt>
      <trkpt lat="45.52774" lon="6.68686">
        <ele>1880.1999512</ele>
        <time>2013-07-27T13:25:55Z</time>
      </trkpt>
      <trkpt lat="45.52782" lon="6.68695">
        <ele>1879.5999756</ele>
        <time>2013-07-27T13:26:00Z</time>
      </trkpt>
      <trkpt lat="45.52789" lon="6.68705">
        <ele>1877.8000488</ele>
        <time>2013-07-27T13:26:05Z</time>
      </trkpt>
      <trkpt lat="45.52796" lon="6.68716">
        <ele>1875.4000244</ele>
        <time>2013-07-27T13:26:10Z</time>
      </trkpt>
      <trkpt lat="45.52801" lon="6.68729">
        <ele>1873.8000488</ele>
        <time>2013-07-27T13:26:15Z</time>
      </trkpt>
      <trkpt lat="45.52803" lon="6.6874">
        <ele>1872.4000244</ele>
        <time>2013-07-27T13:26:19Z</time>
      </trkpt>
      <trkpt lat="45.52806" lon="6.68749">
        <ele>1871</ele>
        <time>2013-07-27T13:26:23Z</time>
      </trkpt>
      <trkpt lat="45.52811" lon="6.68759">
        <ele>1870.5999756</ele>
        <time>2013-07-27T13:26:28Z</time>
      </trkpt>
      <trkpt lat="45.52813" lon="6.68769">
        <ele>1869.8000488</ele>
        <time>2013-07-27T13:26:33Z</time>
      </trkpt>
      <trkpt lat="45.52818" lon="6.68781">
        <ele>1867.1999512</ele>
        <time>2013-07-27T13:26:38Z</time>
      </trkpt>
      <trkpt lat="45.52821" lon="6.68795">
        <ele>1864.5999756</ele>
        <time>2013-07-27T13:26:43Z</time>
      </trkpt>
      <trkpt lat="45.52818" lon="6.6881">
        <ele>1863</ele>
        <time>2013-07-27T13:26:48Z</time>
      </trkpt>
      <trkpt lat="45.52814" lon="6.68822">
        <ele>1862</ele>
        <time>2013-07-27T13:26:52Z</time>
      </trkpt>
      <trkpt lat="45.52814" lon="6.68831">
        <ele>1862.1999512</ele>
        <time>2013-07-27T13:26:55Z</time>
      </trkpt>
      <trkpt lat="45.52814" lon="6.68846">
        <ele>1863</ele>
        <time>2013-07-27T13:27:00Z</time>
      </trkpt>
      <trkpt lat="45.5281" lon="6.68859">
        <ele>1864.4000244</ele>
        <time>2013-07-27T13:27:05Z</time>
      </trkpt>
      <trkpt lat="45.52811" lon="6.68872">
        <ele>1865.1999512</ele>
        <time>2013-07-27T13:27:10Z</time>
      </trkpt>
      <trkpt lat="45.52811" lon="6.68882">
        <ele>1866.1999512</ele>
        <time>2013-07-27T13:27:14Z</time>
      </trkpt>
      <trkpt lat="45.52813" lon="6.68898">
        <ele>1867.4000244</ele>
        <time>2013-07-27T13:27:20Z</time>
      </trkpt>
      <trkpt lat="45.52814" lon="6.6891">
        <ele>1867.5999756</ele>
        <time>2013-07-27T13:27:27Z</time>
      </trkpt>
      <trkpt lat="45.52813" lon="6.68922">
        <ele>1867.4000244</ele>
        <time>2013-07-27T13:27:32Z</time>
      </trkpt>
      <trkpt lat="45.52814" lon="6.68935">
        <ele>1868</ele>
        <time>2013-07-27T13:27:39Z</time>
      </trkpt>
      <trkpt lat="45.52816" lon="6.68945">
        <ele>1870</ele>
        <time>2013-07-27T13:27:44Z</time>
      </trkpt>
      <trkpt lat="45.52818" lon="6.68955">
        <ele>1874.4000244</ele>
        <time>2013-07-27T13:27:50Z</time>
      </trkpt>
      <trkpt lat="45.52818" lon="6.68965">
        <ele>1880.5999756</ele>
        <time>2013-07-27T13:27:55Z</time>
      </trkpt>
      <trkpt lat="45.52819" lon="6.68974">
        <ele>1885.1999512</ele>
        <time>2013-07-27T13:28:00Z</time>
      </trkpt>
      <trkpt lat="45.52821" lon="6.68983">
        <ele>1888.8000488</ele>
        <time>2013-07-27T13:28:07Z</time>
      </trkpt>
      <trkpt lat="45.52817" lon="6.68993">
        <ele>1889.5999756</ele>
        <time>2013-07-27T13:28:15Z</time>
      </trkpt>
      <trkpt lat="45.52815" lon="6.69003">
        <ele>1888.8000488</ele>
        <time>2013-07-27T13:28:21Z</time>
      </trkpt>
      <trkpt lat="45.52812" lon="6.69021">
        <ele>1888.4000244</ele>
        <time>2013-07-27T13:28:31Z</time>
      </trkpt>
      <trkpt lat="45.52808" lon="6.69029">
        <ele>1889</ele>
        <time>2013-07-27T13:28:36Z</time>
      </trkpt>
      <trkpt lat="45.52806" lon="6.69038">
        <ele>1887.4000244</ele>
        <time>2013-07-27T13:28:42Z</time>
      </trkpt>
      <trkpt lat="45.52804" lon="6.69049">
        <ele>1888.4000244</ele>
        <time>2013-07-27T13:28:53Z</time>
      </trkpt>
      <trkpt lat="45.5281" lon="6.69053">
        <ele>1896</ele>
        <time>2013-07-27T13:29:10Z</time>
      </trkpt>
      <trkpt lat="45.52816" lon="6.69061">
        <ele>1900.8000488</ele>
        <time>2013-07-27T13:29:19Z</time>
      </trkpt>
      <trkpt lat="45.52821" lon="6.69069">
        <ele>1903.1999512</ele>
        <time>2013-07-27T13:29:27Z</time>
      </trkpt>
      <trkpt lat="45.52825" lon="6.6908">
        <ele>1904.4000244</ele>
        <time>2013-07-27T13:29:35Z</time>
      </trkpt>
      <trkpt lat="45.5283" lon="6.6909">
        <ele>1906.5999756</ele>
        <time>2013-07-27T13:29:42Z</time>
      </trkpt>
      <trkpt lat="45.52834" lon="6.69098">
        <ele>1908.1999512</ele>
        <time>2013-07-27T13:29:47Z</time>
      </trkpt>
      <trkpt lat="45.5284" lon="6.69111">
        <ele>1907.4000244</ele>
        <time>2013-07-27T13:29:54Z</time>
      </trkpt>
      <trkpt lat="45.52847" lon="6.69123">
        <ele>1904.4000244</ele>
        <time>2013-07-27T13:29:59Z</time>
      </trkpt>
      <trkpt lat="45.52853" lon="6.69132">
        <ele>1901.4000244</ele>
        <time>2013-07-27T13:30:04Z</time>
      </trkpt>
      <trkpt lat="45.5286" lon="6.69146">
        <ele>1898.1999512</ele>
        <time>2013-07-27T13:30:09Z</time>
      </trkpt>
      <trkpt lat="45.52863" lon="6.69154">
        <ele>1896</ele>
        <time>2013-07-27T13:30:12Z</time>
      </trkpt>
      <trkpt lat="45.52871" lon="6.69166">
        <ele>1891.8000488</ele>
        <time>2013-07-27T13:30:17Z</time>
      </trkpt>
      <trkpt lat="45.52877" lon="6.69177">
        <ele>1889.4000244</ele>
        <time>2013-07-27T13:30:22Z</time>
      </trkpt>
      <trkpt lat="45.52882" lon="6.69183">
        <ele>1888.5999756</ele>
        <time>2013-07-27T13:30:25Z</time>
      </trkpt>
      <trkpt lat="45.5289" lon="6.69195">
        <ele>1885.1999512</ele>
        <time>2013-07-27T13:30:31Z</time>
      </trkpt>
      <trkpt lat="45.52898" lon="6.69203">
        <ele>1881.5999756</ele>
        <time>2013-07-27T13:30:36Z</time>
      </trkpt>
      <trkpt lat="45.52903" lon="6.69209">
        <ele>1879.8000488</ele>
        <time>2013-07-27T13:30:41Z</time>
      </trkpt>
      <trkpt lat="45.52911" lon="6.69214">
        <ele>1878.1999512</ele>
        <time>2013-07-27T13:30:46Z</time>
      </trkpt>
      <trkpt lat="45.52919" lon="6.69221">
        <ele>1875.1999512</ele>
        <time>2013-07-27T13:30:51Z</time>
      </trkpt>
      <trkpt lat="45.52927" lon="6.69226">
        <ele>1872.4000244</ele>
        <time>2013-07-27T13:30:56Z</time>
      </trkpt>
      <trkpt lat="45.52934" lon="6.69228">
        <ele>1870</ele>
        <time>2013-07-27T13:31:00Z</time>
      </trkpt>
      <trkpt lat="45.52942" lon="6.69233">
        <ele>1869</ele>
        <time>2013-07-27T13:31:05Z</time>
      </trkpt>
      <trkpt lat="45.5295" lon="6.69241">
        <ele>1867.5999756</ele>
        <time>2013-07-27T13:31:10Z</time>
      </trkpt>
      <trkpt lat="45.52958" lon="6.69249">
        <ele>1866.5999756</ele>
        <time>2013-07-27T13:31:15Z</time>
      </trkpt>
      <trkpt lat="45.52967" lon="6.69254">
        <ele>1867</ele>
        <time>2013-07-27T13:31:20Z</time>
      </trkpt>
      <trkpt lat="45.52977" lon="6.69261">
        <ele>1868.5999756</ele>
        <time>2013-07-27T13:31:25Z</time>
      </trkpt>
      <trkpt lat="45.52986" lon="6.69273">
        <ele>1869.8000488</ele>
        <time>2013-07-27T13:31:31Z</time>
      </trkpt>
      <trkpt lat="45.52992" lon="6.69277">
        <ele>1869.4000244</ele>
        <time>2013-07-27T13:31:34Z</time>
      </trkpt>
      <trkpt lat="45.52999" lon="6.69285">
        <ele>1867.4000244</ele>
        <time>2013-07-27T13:31:38Z</time>
      </trkpt>
      <trkpt lat="45.53008" lon="6.69294">
        <ele>1863.8000488</ele>
        <time>2013-07-27T13:31:43Z</time>
      </trkpt>
      <trkpt lat="45.53016" lon="6.693">
        <ele>1859.5999756</ele>
        <time>2013-07-27T13:31:48Z</time>
      </trkpt>
      <trkpt lat="45.53022" lon="6.69311">
        <ele>1855</ele>
        <time>2013-07-27T13:31:53Z</time>
      </trkpt>
      <trkpt lat="45.53032" lon="6.69315">
        <ele>1851</ele>
        <time>2013-07-27T13:31:59Z</time>
      </trkpt>
      <trkpt lat="45.53038" lon="6.69317">
        <ele>1848.8000488</ele>
        <time>2013-07-27T13:32:03Z</time>
      </trkpt>
      <trkpt lat="45.53047" lon="6.69322">
        <ele>1847.4000244</ele>
        <time>2013-07-27T13:32:08Z</time>
      </trkpt>
      <trkpt lat="45.53056" lon="6.6933">
        <ele>1846</ele>
        <time>2013-07-27T13:32:14Z</time>
      </trkpt>
      <trkpt lat="45.53061" lon="6.6934">
        <ele>1845.5999756</ele>
        <time>2013-07-27T13:32:20Z</time>
      </trkpt>
      <trkpt lat="45.53065" lon="6.6935">
        <ele>1846.1999512</ele>
        <time>2013-07-27T13:33:06Z</time>
      </trkpt>
      <trkpt lat="45.53069" lon="6.6936">
        <ele>1847</ele>
        <time>2013-07-27T13:33:11Z</time>
      </trkpt>
      <trkpt lat="45.53073" lon="6.69368">
        <ele>1846.8000488</ele>
        <time>2013-07-27T13:33:16Z</time>
      </trkpt>
      <trkpt lat="45.53077" lon="6.69375">
        <ele>1846.4000244</ele>
        <time>2013-07-27T13:33:24Z</time>
      </trkpt>
      <trkpt lat="45.53078" lon="6.69386">
        <ele>1847.4000244</ele>
        <time>2013-07-27T13:33:32Z</time>
      </trkpt>
      <trkpt lat="45.5308" lon="6.69396">
        <ele>1847.8000488</ele>
        <time>2013-07-27T13:33:39Z</time>
      </trkpt>
      <trkpt lat="45.53085" lon="6.69401">
        <ele>1850.1999512</ele>
        <time>2013-07-27T13:33:46Z</time>
      </trkpt>
      <trkpt lat="45.53093" lon="6.6941">
        <ele>1853.8000488</ele>
        <time>2013-07-27T13:33:54Z</time>
      </trkpt>
      <trkpt lat="45.531" lon="6.69414">
        <ele>1855.1999512</ele>
        <time>2013-07-27T13:33:59Z</time>
      </trkpt>
      <trkpt lat="45.53106" lon="6.69421">
        <ele>1855.4000244</ele>
        <time>2013-07-27T13:34:04Z</time>
      </trkpt>
      <trkpt lat="45.53115" lon="6.69435">
        <ele>1855.4000244</ele>
        <time>2013-07-27T13:34:12Z</time>
      </trkpt>
      <trkpt lat="45.53122" lon="6.69442">
        <ele>1855</ele>
        <time>2013-07-27T13:34:17Z</time>
      </trkpt>
      <trkpt lat="45.53129" lon="6.69447">
        <ele>1854.4000244</ele>
        <time>2013-07-27T13:34:22Z</time>
      </trkpt>
      <trkpt lat="45.53135" lon="6.69451">
        <ele>1854</ele>
        <time>2013-07-27T13:34:26Z</time>
      </trkpt>
      <trkpt lat="45.53143" lon="6.69459">
        <ele>1853.4000244</ele>
        <time>2013-07-27T13:34:31Z</time>
      </trkpt>
      <trkpt lat="45.53152" lon="6.69465">
        <ele>1852.5999756</ele>
        <time>2013-07-27T13:34:36Z</time>
      </trkpt>
      <trkpt lat="45.53162" lon="6.69469">
        <ele>1852.8000488</ele>
        <time>2013-07-27T13:34:41Z</time>
      </trkpt>
      <trkpt lat="45.53168" lon="6.69472">
        <ele>1853</ele>
        <time>2013-07-27T13:34:44Z</time>
      </trkpt>
      <trkpt lat="45.53174" lon="6.69476">
        <ele>1853.4000244</ele>
        <time>2013-07-27T13:34:47Z</time>
      </trkpt>
      <trkpt lat="45.53179" lon="6.69483">
        <ele>1853.4000244</ele>
        <time>2013-07-27T13:34:50Z</time>
      </trkpt>
      <trkpt lat="45.53188" lon="6.69495">
        <ele>1852</ele>
        <time>2013-07-27T13:34:55Z</time>
      </trkpt>
      <trkpt lat="45.53194" lon="6.69506">
        <ele>1850</ele>
        <time>2013-07-27T13:34:59Z</time>
      </trkpt>
      <trkpt lat="45.53202" lon="6.69518">
        <ele>1848.8000488</ele>
        <time>2013-07-27T13:35:04Z</time>
      </trkpt>
      <trkpt lat="45.53206" lon="6.69525">
        <ele>1848.1999512</ele>
        <time>2013-07-27T13:35:07Z</time>
      </trkpt>
      <trkpt lat="45.53212" lon="6.6953">
        <ele>1847.8000488</ele>
        <time>2013-07-27T13:35:10Z</time>
      </trkpt>
      <trkpt lat="45.53219" lon="6.69535">
        <ele>1847</ele>
        <time>2013-07-27T13:35:14Z</time>
      </trkpt>
      <trkpt lat="45.53228" lon="6.69542">
        <ele>1845.5999756</ele>
        <time>2013-07-27T13:35:19Z</time>
      </trkpt>
      <trkpt lat="45.53238" lon="6.69552">
        <ele>1844</ele>
        <time>2013-07-27T13:35:25Z</time>
      </trkpt>
      <trkpt lat="45.53247" lon="6.69558">
        <ele>1843</ele>
        <time>2013-07-27T13:35:30Z</time>
      </trkpt>
      <trkpt lat="45.53252" lon="6.69562">
        <ele>1842.1999512</ele>
        <time>2013-07-27T13:35:33Z</time>
      </trkpt>
      <trkpt lat="45.53259" lon="6.6957">
        <ele>1840.8000488</ele>
        <time>2013-07-27T13:35:37Z</time>
      </trkpt>
      <trkpt lat="45.53267" lon="6.69579">
        <ele>1838.5999756</ele>
        <time>2013-07-27T13:35:42Z</time>
      </trkpt>
      <trkpt lat="45.53274" lon="6.69584">
        <ele>1837</ele>
        <time>2013-07-27T13:35:46Z</time>
      </trkpt>
      <trkpt lat="45.5328" lon="6.69587">
        <ele>1835.8000488</ele>
        <time>2013-07-27T13:35:51Z</time>
      </trkpt>
      <trkpt lat="45.53289" lon="6.69588">
        <ele>1834.8000488</ele>
        <time>2013-07-27T13:35:59Z</time>
      </trkpt>
      <trkpt lat="45.53299" lon="6.69594">
        <ele>1834</ele>
        <time>2013-07-27T13:36:05Z</time>
      </trkpt>
      <trkpt lat="45.53306" lon="6.69603">
        <ele>1833</ele>
        <time>2013-07-27T13:36:10Z</time>
      </trkpt>
      <trkpt lat="45.53315" lon="6.69611">
        <ele>1831.1999512</ele>
        <time>2013-07-27T13:36:16Z</time>
      </trkpt>
      <trkpt lat="45.53324" lon="6.69622">
        <ele>1830.1999512</ele>
        <time>2013-07-27T13:36:22Z</time>
      </trkpt>
      <trkpt lat="45.53333" lon="6.6963">
        <ele>1829.8000488</ele>
        <time>2013-07-27T13:36:28Z</time>
      </trkpt>
      <trkpt lat="45.53339" lon="6.69639">
        <ele>1830</ele>
        <time>2013-07-27T13:36:32Z</time>
      </trkpt>
      <trkpt lat="45.53344" lon="6.69645">
        <ele>1829.8000488</ele>
        <time>2013-07-27T13:36:35Z</time>
      </trkpt>
      <trkpt lat="45.53352" lon="6.69651">
        <ele>1829</ele>
        <time>2013-07-27T13:36:40Z</time>
      </trkpt>
      <trkpt lat="45.5336" lon="6.69656">
        <ele>1827.1999512</ele>
        <time>2013-07-27T13:36:48Z</time>
      </trkpt>
      <trkpt lat="45.5337" lon="6.69657">
        <ele>1826</ele>
        <time>2013-07-27T13:36:55Z</time>
      </trkpt>
      <trkpt lat="45.53381" lon="6.69659">
        <ele>1822</ele>
        <time>2013-07-27T13:37:02Z</time>
      </trkpt>
      <trkpt lat="45.53388" lon="6.69664">
        <ele>1818.8000488</ele>
        <time>2013-07-27T13:37:07Z</time>
      </trkpt>
      <trkpt lat="45.53396" lon="6.6967">
        <ele>1817</ele>
        <time>2013-07-27T13:37:12Z</time>
      </trkpt>
      <trkpt lat="45.53402" lon="6.69674">
        <ele>1816.8000488</ele>
        <time>2013-07-27T13:37:16Z</time>
      </trkpt>
      <trkpt lat="45.53409" lon="6.69683">
        <ele>1814.8000488</ele>
        <time>2013-07-27T13:37:21Z</time>
      </trkpt>
      <trkpt lat="45.53417" lon="6.69692">
        <ele>1811.1999512</ele>
        <time>2013-07-27T13:37:26Z</time>
      </trkpt>
      <trkpt lat="45.53423" lon="6.69699">
        <ele>1807.1999512</ele>
        <time>2013-07-27T13:37:30Z</time>
      </trkpt>
      <trkpt lat="45.53428" lon="6.69705">
        <ele>1805.5999756</ele>
        <time>2013-07-27T13:37:34Z</time>
      </trkpt>
      <trkpt lat="45.53436" lon="6.69712">
        <ele>1805</ele>
        <time>2013-07-27T13:37:40Z</time>
      </trkpt>
      <trkpt lat="45.53443" lon="6.69719">
        <ele>1807.1999512</ele>
        <time>2013-07-27T13:37:46Z</time>
      </trkpt>
      <trkpt lat="45.5345" lon="6.69722">
        <ele>1807.8000488</ele>
        <time>2013-07-27T13:37:51Z</time>
      </trkpt>
      <trkpt lat="45.53456" lon="6.69729">
        <ele>1807</ele>
        <time>2013-07-27T13:37:56Z</time>
      </trkpt>
      <trkpt lat="45.53464" lon="6.69734">
        <ele>1806.4000244</ele>
        <time>2013-07-27T13:38:01Z</time>
      </trkpt>
      <trkpt lat="45.53469" lon="6.69741">
        <ele>1808.5999756</ele>
        <time>2013-07-27T13:38:06Z</time>
      </trkpt>
      <trkpt lat="45.53477" lon="6.69746">
        <ele>1812.4000244</ele>
        <time>2013-07-27T13:38:12Z</time>
      </trkpt>
      <trkpt lat="45.53487" lon="6.69753">
        <ele>1812.8000488</ele>
        <time>2013-07-27T13:38:18Z</time>
      </trkpt>
      <trkpt lat="45.53495" lon="6.69756">
        <ele>1808.4000244</ele>
        <time>2013-07-27T13:38:23Z</time>
      </trkpt>
      <trkpt lat="45.53505" lon="6.69763">
        <ele>1802.4000244</ele>
        <time>2013-07-27T13:38:29Z</time>
      </trkpt>
      <trkpt lat="45.53511" lon="6.69773">
        <ele>1798.4000244</ele>
        <time>2013-07-27T13:38:34Z</time>
      </trkpt>
      <trkpt lat="45.53518" lon="6.69781">
        <ele>1796.1999512</ele>
        <time>2013-07-27T13:38:39Z</time>
      </trkpt>
      <trkpt lat="45.53527" lon="6.69785">
        <ele>1794.5999756</ele>
        <time>2013-07-27T13:38:46Z</time>
      </trkpt>
      <trkpt lat="45.53532" lon="6.6979">
        <ele>1794</ele>
        <time>2013-07-27T13:38:51Z</time>
      </trkpt>
      <trkpt lat="45.53542" lon="6.69794">
        <ele>1791.5999756</ele>
        <time>2013-07-27T13:38:58Z</time>
      </trkpt>
      <trkpt lat="45.53552" lon="6.69794">
        <ele>1787.5999756</ele>
        <time>2013-07-27T13:39:06Z</time>
      </trkpt>
      <trkpt lat="45.53562" lon="6.69804">
        <ele>1783.5999756</ele>
        <time>2013-07-27T13:39:11Z</time>
      </trkpt>
      <trkpt lat="45.5357" lon="6.69814">
        <ele>1778.8000488</ele>
        <time>2013-07-27T13:39:16Z</time>
      </trkpt>
      <trkpt lat="45.53577" lon="6.69824">
        <ele>1774.4000244</ele>
        <time>2013-07-27T13:39:21Z</time>
      </trkpt>
      <trkpt lat="45.53587" lon="6.69829">
        <ele>1772</ele>
        <time>2013-07-27T13:39:28Z</time>
      </trkpt>
      <trkpt lat="45.53593" lon="6.69832">
        <ele>1772</ele>
        <time>2013-07-27T13:39:31Z</time>
      </trkpt>
      <trkpt lat="45.53598" lon="6.69838">
        <ele>1772.1999512</ele>
        <time>2013-07-27T13:39:35Z</time>
      </trkpt>
      <trkpt lat="45.53603" lon="6.69845">
        <ele>1770.5999756</ele>
        <time>2013-07-27T13:39:41Z</time>
      </trkpt>
      <trkpt lat="45.53611" lon="6.69848">
        <ele>1768.8000488</ele>
        <time>2013-07-27T13:39:46Z</time>
      </trkpt>
      <trkpt lat="45.53619" lon="6.69852">
        <ele>1766.5999756</ele>
        <time>2013-07-27T13:39:54Z</time>
      </trkpt>
      <trkpt lat="45.53625" lon="6.69858">
        <ele>1764.1999512</ele>
        <time>2013-07-27T13:39:58Z</time>
      </trkpt>
      <trkpt lat="45.53628" lon="6.69868">
        <ele>1762.5999756</ele>
        <time>2013-07-27T13:40:01Z</time>
      </trkpt>
      <trkpt lat="45.5363" lon="6.69878">
        <ele>1760.4000244</ele>
        <time>2013-07-27T13:40:04Z</time>
      </trkpt>
      <trkpt lat="45.53632" lon="6.69887">
        <ele>1758.1999512</ele>
        <time>2013-07-27T13:40:07Z</time>
      </trkpt>
      <trkpt lat="45.53635" lon="6.69901">
        <ele>1754.4000244</ele>
        <time>2013-07-27T13:40:12Z</time>
      </trkpt>
      <trkpt lat="45.53638" lon="6.69918">
        <ele>1751.4000244</ele>
        <time>2013-07-27T13:40:17Z</time>
      </trkpt>
      <trkpt lat="45.53643" lon="6.69931">
        <ele>1749.1999512</ele>
        <time>2013-07-27T13:40:22Z</time>
      </trkpt>
      <trkpt lat="45.53649" lon="6.69942">
        <ele>1748.4000244</ele>
        <time>2013-07-27T13:40:27Z</time>
      </trkpt>
      <trkpt lat="45.53655" lon="6.69951">
        <ele>1747.5999756</ele>
        <time>2013-07-27T13:40:32Z</time>
      </trkpt>
      <trkpt lat="45.53662" lon="6.69959">
        <ele>1747.5999756</ele>
        <time>2013-07-27T13:40:38Z</time>
      </trkpt>
      <trkpt lat="45.53669" lon="6.69962">
        <ele>1748</ele>
        <time>2013-07-27T13:40:43Z</time>
      </trkpt>
      <trkpt lat="45.53675" lon="6.69971">
        <ele>1749</ele>
        <time>2013-07-27T13:40:49Z</time>
      </trkpt>
      <trkpt lat="45.53679" lon="6.6998">
        <ele>1748</ele>
        <time>2013-07-27T13:40:54Z</time>
      </trkpt>
      <trkpt lat="45.53683" lon="6.6999">
        <ele>1746.4000244</ele>
        <time>2013-07-27T13:40:59Z</time>
      </trkpt>
      <trkpt lat="45.53683" lon="6.70006">
        <ele>1746.1999512</ele>
        <time>2013-07-27T13:41:07Z</time>
      </trkpt>
      <trkpt lat="45.53685" lon="6.70015">
        <ele>1747</ele>
        <time>2013-07-27T13:41:12Z</time>
      </trkpt>
      <trkpt lat="45.53688" lon="6.70023">
        <ele>1747.5999756</ele>
        <time>2013-07-27T13:41:17Z</time>
      </trkpt>
      <trkpt lat="45.53688" lon="6.70035">
        <ele>1747.4000244</ele>
        <time>2013-07-27T13:41:23Z</time>
      </trkpt>
      <trkpt lat="45.53692" lon="6.70042">
        <ele>1748.1999512</ele>
        <time>2013-07-27T13:41:32Z</time>
      </trkpt>
      <trkpt lat="45.53696" lon="6.70053">
        <ele>1750</ele>
        <time>2013-07-27T13:41:40Z</time>
      </trkpt>
      <trkpt lat="45.53702" lon="6.70065">
        <ele>1750.4000244</ele>
        <time>2013-07-27T13:41:48Z</time>
      </trkpt>
      <trkpt lat="45.53707" lon="6.7007">
        <ele>1750.4000244</ele>
        <time>2013-07-27T13:41:53Z</time>
      </trkpt>
      <trkpt lat="45.53715" lon="6.7007">
        <ele>1751.1999512</ele>
        <time>2013-07-27T13:41:59Z</time>
      </trkpt>
      <trkpt lat="45.53722" lon="6.70066">
        <ele>1753.4000244</ele>
        <time>2013-07-27T13:42:06Z</time>
      </trkpt>
      <trkpt lat="45.53728" lon="6.70066">
        <ele>1753</ele>
        <time>2013-07-27T13:42:12Z</time>
      </trkpt>
      <trkpt lat="45.53738" lon="6.70065">
        <ele>1750.5999756</ele>
        <time>2013-07-27T13:42:18Z</time>
      </trkpt>
      <trkpt lat="45.53745" lon="6.70067">
        <ele>1748.1999512</ele>
        <time>2013-07-27T13:42:23Z</time>
      </trkpt>
      <trkpt lat="45.53752" lon="6.70072">
        <ele>1746.1999512</ele>
        <time>2013-07-27T13:42:28Z</time>
      </trkpt>
      <trkpt lat="45.5376" lon="6.70079">
        <ele>1744.4000244</ele>
        <time>2013-07-27T13:42:33Z</time>
      </trkpt>
      <trkpt lat="45.53765" lon="6.70084">
        <ele>1743.8000488</ele>
        <time>2013-07-27T13:42:36Z</time>
      </trkpt>
      <trkpt lat="45.53775" lon="6.7009">
        <ele>1741.4000244</ele>
        <time>2013-07-27T13:42:41Z</time>
      </trkpt>
      <trkpt lat="45.53783" lon="6.70094">
        <ele>1739.5999756</ele>
        <time>2013-07-27T13:42:46Z</time>
      </trkpt>
      <trkpt lat="45.5379" lon="6.70098">
        <ele>1738.5999756</ele>
        <time>2013-07-27T13:42:51Z</time>
      </trkpt>
      <trkpt lat="45.53797" lon="6.70102">
        <ele>1740.4000244</ele>
        <time>2013-07-27T13:42:56Z</time>
      </trkpt>
      <trkpt lat="45.53803" lon="6.70105">
        <ele>1742</ele>
        <time>2013-07-27T13:43:01Z</time>
      </trkpt>
      <trkpt lat="45.53809" lon="6.70108">
        <ele>1743</ele>
        <time>2013-07-27T13:43:06Z</time>
      </trkpt>
      <trkpt lat="45.53817" lon="6.70111">
        <ele>1740.5999756</ele>
        <time>2013-07-27T13:43:14Z</time>
      </trkpt>
      <trkpt lat="45.53824" lon="6.7011">
        <ele>1733.1999512</ele>
        <time>2013-07-27T13:43:23Z</time>
      </trkpt>
      <trkpt lat="45.5383" lon="6.70112">
        <ele>1730</ele>
        <time>2013-07-27T13:43:28Z</time>
      </trkpt>
      <trkpt lat="45.5384" lon="6.70115">
        <ele>1726.5999756</ele>
        <time>2013-07-27T13:43:34Z</time>
      </trkpt>
      <trkpt lat="45.53847" lon="6.70121">
        <ele>1723.5999756</ele>
        <time>2013-07-27T13:43:39Z</time>
      </trkpt>
      <trkpt lat="45.53853" lon="6.70123">
        <ele>1721</ele>
        <time>2013-07-27T13:43:43Z</time>
      </trkpt>
      <trkpt lat="45.5386" lon="6.70125">
        <ele>1719.4000244</ele>
        <time>2013-07-27T13:43:47Z</time>
      </trkpt>
      <trkpt lat="45.53869" lon="6.70132">
        <ele>1718.5999756</ele>
        <time>2013-07-27T13:43:53Z</time>
      </trkpt>
      <trkpt lat="45.53874" lon="6.70137">
        <ele>1719</ele>
        <time>2013-07-27T13:43:57Z</time>
      </trkpt>
      <trkpt lat="45.5388" lon="6.70147">
        <ele>1719</ele>
        <time>2013-07-27T13:44:02Z</time>
      </trkpt>
      <trkpt lat="45.53883" lon="6.70155">
        <ele>1718</ele>
        <time>2013-07-27T13:44:05Z</time>
      </trkpt>
      <trkpt lat="45.53884" lon="6.70164">
        <ele>1716.1999512</ele>
        <time>2013-07-27T13:44:08Z</time>
      </trkpt>
      <trkpt lat="45.53883" lon="6.70175">
        <ele>1713.4000244</ele>
        <time>2013-07-27T13:44:11Z</time>
      </trkpt>
      <trkpt lat="45.53883" lon="6.70186">
        <ele>1708.5999756</ele>
        <time>2013-07-27T13:44:15Z</time>
      </trkpt>
      <trkpt lat="45.53883" lon="6.70197">
        <ele>1705.4000244</ele>
        <time>2013-07-27T13:44:20Z</time>
      </trkpt>
      <trkpt lat="45.53885" lon="6.70208">
        <ele>1703</ele>
        <time>2013-07-27T13:44:25Z</time>
      </trkpt>
      <trkpt lat="45.53884" lon="6.70218">
        <ele>1699.1999512</ele>
        <time>2013-07-27T13:44:30Z</time>
      </trkpt>
      <trkpt lat="45.53882" lon="6.7023">
        <ele>1696.1999512</ele>
        <time>2013-07-27T13:44:35Z</time>
      </trkpt>
      <trkpt lat="45.53881" lon="6.70242">
        <ele>1694</ele>
        <time>2013-07-27T13:44:40Z</time>
      </trkpt>
      <trkpt lat="45.53881" lon="6.70256">
        <ele>1691.8000488</ele>
        <time>2013-07-27T13:44:45Z</time>
      </trkpt>
      <trkpt lat="45.53877" lon="6.70272">
        <ele>1690.1999512</ele>
        <time>2013-07-27T13:44:51Z</time>
      </trkpt>
      <trkpt lat="45.53875" lon="6.70285">
        <ele>1689.5999756</ele>
        <time>2013-07-27T13:44:56Z</time>
      </trkpt>
      <trkpt lat="45.53872" lon="6.70295">
        <ele>1688.5999756</ele>
        <time>2013-07-27T13:45:00Z</time>
      </trkpt>
      <trkpt lat="45.53868" lon="6.70305">
        <ele>1686.5999756</ele>
        <time>2013-07-27T13:45:05Z</time>
      </trkpt>
      <trkpt lat="45.53863" lon="6.70318">
        <ele>1684.8000488</ele>
        <time>2013-07-27T13:45:11Z</time>
      </trkpt>
      <trkpt lat="45.53861" lon="6.7033">
        <ele>1683.5999756</ele>
        <time>2013-07-27T13:45:16Z</time>
      </trkpt>
      <trkpt lat="45.53858" lon="6.70342">
        <ele>1682.4000244</ele>
        <time>2013-07-27T13:45:22Z</time>
      </trkpt>
      <trkpt lat="45.53854" lon="6.70349">
        <ele>1682</ele>
        <time>2013-07-27T13:45:27Z</time>
      </trkpt>
      <trkpt lat="45.53848" lon="6.7036">
        <ele>1681.1999512</ele>
        <time>2013-07-27T13:45:33Z</time>
      </trkpt>
      <trkpt lat="45.53845" lon="6.70367">
        <ele>1679.8000488</ele>
        <time>2013-07-27T13:45:37Z</time>
      </trkpt>
      <trkpt lat="45.53842" lon="6.70379">
        <ele>1679.1999512</ele>
        <time>2013-07-27T13:45:43Z</time>
      </trkpt>
      <trkpt lat="45.53838" lon="6.70392">
        <ele>1678.5999756</ele>
        <time>2013-07-27T13:45:49Z</time>
      </trkpt>
      <trkpt lat="45.53836" lon="6.70403">
        <ele>1677.8000488</ele>
        <time>2013-07-27T13:45:54Z</time>
      </trkpt>
      <trkpt lat="45.5383" lon="6.70414">
        <ele>1676</ele>
        <time>2013-07-27T13:45:59Z</time>
      </trkpt>
      <trkpt lat="45.53829" lon="6.70424">
        <ele>1674.4000244</ele>
        <time>2013-07-27T13:46:04Z</time>
      </trkpt>
      <trkpt lat="45.5383" lon="6.70434">
        <ele>1673.8000488</ele>
        <time>2013-07-27T13:46:09Z</time>
      </trkpt>
      <trkpt lat="45.53829" lon="6.70443">
        <ele>1672.5999756</ele>
        <time>2013-07-27T13:46:13Z</time>
      </trkpt>
      <trkpt lat="45.53828" lon="6.70453">
        <ele>1672.1999512</ele>
        <time>2013-07-27T13:46:16Z</time>
      </trkpt>
      <trkpt lat="45.53826" lon="6.70463">
        <ele>1672.5999756</ele>
        <time>2013-07-27T13:46:23Z</time>
      </trkpt>
      <trkpt lat="45.53824" lon="6.70472">
        <ele>1673.8000488</ele>
        <time>2013-07-27T13:46:29Z</time>
      </trkpt>
      <trkpt lat="45.5382" lon="6.70481">
        <ele>1674</ele>
        <time>2013-07-27T13:46:34Z</time>
      </trkpt>
      <trkpt lat="45.53815" lon="6.70492">
        <ele>1672.8000488</ele>
        <time>2013-07-27T13:46:39Z</time>
      </trkpt>
      <trkpt lat="45.53813" lon="6.705">
        <ele>1672.8000488</ele>
        <time>2013-07-27T13:46:44Z</time>
      </trkpt>
      <trkpt lat="45.5381" lon="6.70505">
        <ele>1680.4000244</ele>
        <time>2013-07-27T13:47:23Z</time>
      </trkpt>
      <trkpt lat="45.53817" lon="6.705">
        <ele>1688.8000488</ele>
        <time>2013-07-27T13:47:31Z</time>
      </trkpt>
      <trkpt lat="45.53823" lon="6.70494">
        <ele>1686.4000244</ele>
        <time>2013-07-27T13:47:41Z</time>
      </trkpt>
      <trkpt lat="45.53832" lon="6.70496">
        <ele>1681.1999512</ele>
        <time>2013-07-27T13:47:48Z</time>
      </trkpt>
      <trkpt lat="45.53841" lon="6.70492">
        <ele>1677.4000244</ele>
        <time>2013-07-27T13:47:53Z</time>
      </trkpt>
      <trkpt lat="45.53847" lon="6.70488">
        <ele>1674.1999512</ele>
        <time>2013-07-27T13:47:59Z</time>
      </trkpt>
      <trkpt lat="45.53855" lon="6.70487">
        <ele>1667.1999512</ele>
        <time>2013-07-27T13:48:05Z</time>
      </trkpt>
      <trkpt lat="45.53863" lon="6.70489">
        <ele>1663.5999756</ele>
        <time>2013-07-27T13:48:10Z</time>
      </trkpt>
      <trkpt lat="45.53871" lon="6.70489">
        <ele>1661</ele>
        <time>2013-07-27T13:48:15Z</time>
      </trkpt>
      <trkpt lat="45.53878" lon="6.70491">
        <ele>1657.4000244</ele>
        <time>2013-07-27T13:48:20Z</time>
      </trkpt>
      <trkpt lat="45.53889" lon="6.70494">
        <ele>1654.1999512</ele>
        <time>2013-07-27T13:48:26Z</time>
      </trkpt>
      <trkpt lat="45.53896" lon="6.70498">
        <ele>1652.5999756</ele>
        <time>2013-07-27T13:48:30Z</time>
      </trkpt>
      <trkpt lat="45.53904" lon="6.70499">
        <ele>1652.5999756</ele>
        <time>2013-07-27T13:48:33Z</time>
      </trkpt>
      <trkpt lat="45.53912" lon="6.70497">
        <ele>1653</ele>
        <time>2013-07-27T13:48:37Z</time>
      </trkpt>
      <trkpt lat="45.53921" lon="6.70495">
        <ele>1653.4000244</ele>
        <time>2013-07-27T13:48:42Z</time>
      </trkpt>
      <trkpt lat="45.53933" lon="6.70494">
        <ele>1654</ele>
        <time>2013-07-27T13:48:48Z</time>
      </trkpt>
      <trkpt lat="45.53942" lon="6.70497">
        <ele>1653.4000244</ele>
        <time>2013-07-27T13:48:53Z</time>
      </trkpt>
      <trkpt lat="45.53949" lon="6.705">
        <ele>1651.4000244</ele>
        <time>2013-07-27T13:48:58Z</time>
      </trkpt>
      <trkpt lat="45.53956" lon="6.70505">
        <ele>1648.5999756</ele>
        <time>2013-07-27T13:49:02Z</time>
      </trkpt>
      <trkpt lat="45.53965" lon="6.70512">
        <ele>1645.5999756</ele>
        <time>2013-07-27T13:49:07Z</time>
      </trkpt>
      <trkpt lat="45.53971" lon="6.70516">
        <ele>1642.5999756</ele>
        <time>2013-07-27T13:49:12Z</time>
      </trkpt>
      <trkpt lat="45.5398" lon="6.70518">
        <ele>1640.8000488</ele>
        <time>2013-07-27T13:49:17Z</time>
      </trkpt>
      <trkpt lat="45.53987" lon="6.70522">
        <ele>1641.4000244</ele>
        <time>2013-07-27T13:49:21Z</time>
      </trkpt>
      <trkpt lat="45.53992" lon="6.70528">
        <ele>1642</ele>
        <time>2013-07-27T13:49:24Z</time>
      </trkpt>
      <trkpt lat="45.53999" lon="6.70535">
        <ele>1643.8000488</ele>
        <time>2013-07-27T13:49:28Z</time>
      </trkpt>
      <trkpt lat="45.54002" lon="6.70544">
        <ele>1644.5999756</ele>
        <time>2013-07-27T13:49:31Z</time>
      </trkpt>
      <trkpt lat="45.54008" lon="6.70558">
        <ele>1645.8000488</ele>
        <time>2013-07-27T13:49:36Z</time>
      </trkpt>
      <trkpt lat="45.54014" lon="6.70566">
        <ele>1645.5999756</ele>
        <time>2013-07-27T13:49:39Z</time>
      </trkpt>
      <trkpt lat="45.54021" lon="6.70573">
        <ele>1644.8000488</ele>
        <time>2013-07-27T13:49:43Z</time>
      </trkpt>
      <trkpt lat="45.54031" lon="6.70574">
        <ele>1643</ele>
        <time>2013-07-27T13:49:48Z</time>
      </trkpt>
      <trkpt lat="45.54041" lon="6.70577">
        <ele>1640</ele>
        <time>2013-07-27T13:49:54Z</time>
      </trkpt>
      <trkpt lat="45.54047" lon="6.70579">
        <ele>1635.8000488</ele>
        <time>2013-07-27T13:49:59Z</time>
      </trkpt>
      <trkpt lat="45.54056" lon="6.70582">
        <ele>1627.4000244</ele>
        <time>2013-07-27T13:50:06Z</time>
      </trkpt>
      <trkpt lat="45.54062" lon="6.70586">
        <ele>1623</ele>
        <time>2013-07-27T13:50:11Z</time>
      </trkpt>
      <trkpt lat="45.54071" lon="6.70592">
        <ele>1620.4000244</ele>
        <time>2013-07-27T13:50:17Z</time>
      </trkpt>
      <trkpt lat="45.54079" lon="6.70604">
        <ele>1615.1999512</ele>
        <time>2013-07-27T13:50:24Z</time>
      </trkpt>
      <trkpt lat="45.54084" lon="6.70609">
        <ele>1611.8000488</ele>
        <time>2013-07-27T13:50:28Z</time>
      </trkpt>
      <trkpt lat="45.54091" lon="6.70612">
        <ele>1610.5999756</ele>
        <time>2013-07-27T13:50:34Z</time>
      </trkpt>
      <trkpt lat="45.54098" lon="6.7062">
        <ele>1610.8000488</ele>
        <time>2013-07-27T13:50:39Z</time>
      </trkpt>
      <trkpt lat="45.54107" lon="6.70623">
        <ele>1610.4000244</ele>
        <time>2013-07-27T13:50:45Z</time>
      </trkpt>
      <trkpt lat="45.54112" lon="6.70629">
        <ele>1609.1999512</ele>
        <time>2013-07-27T13:50:50Z</time>
      </trkpt>
      <trkpt lat="45.54119" lon="6.70635">
        <ele>1607.8000488</ele>
        <time>2013-07-27T13:50:55Z</time>
      </trkpt>
      <trkpt lat="45.54126" lon="6.70641">
        <ele>1607.4000244</ele>
        <time>2013-07-27T13:51:00Z</time>
      </trkpt>
      <trkpt lat="45.54132" lon="6.70648">
        <ele>1606.4000244</ele>
        <time>2013-07-27T13:51:05Z</time>
      </trkpt>
      <trkpt lat="45.54138" lon="6.70659">
        <ele>1603.5999756</ele>
        <time>2013-07-27T13:51:10Z</time>
      </trkpt>
      <trkpt lat="45.54146" lon="6.70667">
        <ele>1601.4000244</ele>
        <time>2013-07-27T13:51:15Z</time>
      </trkpt>
      <trkpt lat="45.54151" lon="6.70675">
        <ele>1600.4000244</ele>
        <time>2013-07-27T13:51:19Z</time>
      </trkpt>
      <trkpt lat="45.54157" lon="6.70682">
        <ele>1598</ele>
        <time>2013-07-27T13:51:27Z</time>
      </trkpt>
      <trkpt lat="45.54156" lon="6.70675">
        <ele>1598.1999512</ele>
        <time>2013-07-27T13:51:41Z</time>
      </trkpt>
      <trkpt lat="45.54153" lon="6.70666">
        <ele>1600.5999756</ele>
        <time>2013-07-27T13:51:50Z</time>
      </trkpt>
      <trkpt lat="45.54148" lon="6.70658">
        <ele>1600.4000244</ele>
        <time>2013-07-27T13:51:56Z</time>
      </trkpt>
      <trkpt lat="45.54153" lon="6.70651">
        <ele>1599.8000488</ele>
        <time>2013-07-27T13:52:01Z</time>
      </trkpt>
      <trkpt lat="45.54158" lon="6.70645">
        <ele>1597.4000244</ele>
        <time>2013-07-27T13:52:06Z</time>
      </trkpt>
      <trkpt lat="45.54166" lon="6.7064">
        <ele>1591</ele>
        <time>2013-07-27T13:52:13Z</time>
      </trkpt>
      <trkpt lat="45.54173" lon="6.70637">
        <ele>1587.5999756</ele>
        <time>2013-07-27T13:52:18Z</time>
      </trkpt>
      <trkpt lat="45.54181" lon="6.70632">
        <ele>1585.8000488</ele>
        <time>2013-07-27T13:52:25Z</time>
      </trkpt>
      <trkpt lat="45.54187" lon="6.70633">
        <ele>1584.5999756</ele>
        <time>2013-07-27T13:52:31Z</time>
      </trkpt>
      <trkpt lat="45.54196" lon="6.70634">
        <ele>1582.8000488</ele>
        <time>2013-07-27T13:52:37Z</time>
      </trkpt>
      <trkpt lat="45.54203" lon="6.70639">
        <ele>1584</ele>
        <time>2013-07-27T13:52:41Z</time>
      </trkpt>
      <trkpt lat="45.54208" lon="6.70648">
        <ele>1585</ele>
        <time>2013-07-27T13:52:46Z</time>
      </trkpt>
      <trkpt lat="45.54211" lon="6.70664">
        <ele>1583</ele>
        <time>2013-07-27T13:52:52Z</time>
      </trkpt>
      <trkpt lat="45.54213" lon="6.70673">
        <ele>1579</ele>
        <time>2013-07-27T13:52:56Z</time>
      </trkpt>
      <trkpt lat="45.54216" lon="6.70689">
        <ele>1574.8000488</ele>
        <time>2013-07-27T13:53:02Z</time>
      </trkpt>
      <trkpt lat="45.54215" lon="6.70699">
        <ele>1570.4000244</ele>
        <time>2013-07-27T13:53:06Z</time>
      </trkpt>
      <trkpt lat="45.54216" lon="6.7071">
        <ele>1567</ele>
        <time>2013-07-27T13:53:10Z</time>
      </trkpt>
      <trkpt lat="45.5422" lon="6.70724">
        <ele>1564</ele>
        <time>2013-07-27T13:53:16Z</time>
      </trkpt>
      <trkpt lat="45.54223" lon="6.70732">
        <ele>1562.4000244</ele>
        <time>2013-07-27T13:53:21Z</time>
      </trkpt>
      <trkpt lat="45.54226" lon="6.70742">
        <ele>1562.5999756</ele>
        <time>2013-07-27T13:53:27Z</time>
      </trkpt>
      <trkpt lat="45.54231" lon="6.70756">
        <ele>1564.1999512</ele>
        <time>2013-07-27T13:53:33Z</time>
      </trkpt>
      <trkpt lat="45.54231" lon="6.70769">
        <ele>1565.4000244</ele>
        <time>2013-07-27T13:53:38Z</time>
      </trkpt>
      <trkpt lat="45.54232" lon="6.70782">
        <ele>1567.4000244</ele>
        <time>2013-07-27T13:53:43Z</time>
      </trkpt>
      <trkpt lat="45.54235" lon="6.70796">
        <ele>1570.8000488</ele>
        <time>2013-07-27T13:53:49Z</time>
      </trkpt>
      <trkpt lat="45.54239" lon="6.70805">
        <ele>1574.4000244</ele>
        <time>2013-07-27T13:53:55Z</time>
      </trkpt>
      <trkpt lat="45.5424" lon="6.70818">
        <ele>1576.5999756</ele>
        <time>2013-07-27T13:54:02Z</time>
      </trkpt>
      <trkpt lat="45.54233" lon="6.70831">
        <ele>1575.8000488</ele>
        <time>2013-07-27T13:54:10Z</time>
      </trkpt>
      <trkpt lat="45.54228" lon="6.70838">
        <ele>1574.5999756</ele>
        <time>2013-07-27T13:54:15Z</time>
      </trkpt>
      <trkpt lat="45.54225" lon="6.70852">
        <ele>1572.8000488</ele>
        <time>2013-07-27T13:54:20Z</time>
      </trkpt>
      <trkpt lat="45.54223" lon="6.70867">
        <ele>1572</ele>
        <time>2013-07-27T13:54:25Z</time>
      </trkpt>
      <trkpt lat="45.54218" lon="6.70877">
        <ele>1571.4000244</ele>
        <time>2013-07-27T13:54:33Z</time>
      </trkpt>
      <trkpt lat="45.54225" lon="6.70879">
        <ele>1573.1999512</ele>
        <time>2013-07-27T13:54:44Z</time>
      </trkpt>
      <trkpt lat="45.54228" lon="6.70881">
        <ele>1573.8000488</ele>
        <time>2013-07-27T13:54:57Z</time>
      </trkpt>
      <trkpt lat="45.54243" lon="6.70881">
        <ele>1573.4000244</ele>
        <time>2013-07-27T13:55:05Z</time>
      </trkpt>
      <trkpt lat="45.54252" lon="6.70879">
        <ele>1573.1999512</ele>
        <time>2013-07-27T13:55:10Z</time>
      </trkpt>
      <trkpt lat="45.5426" lon="6.70876">
        <ele>1574.4000244</ele>
        <time>2013-07-27T13:55:21Z</time>
      </trkpt>
      <trkpt lat="45.54265" lon="6.70876">
        <ele>1573.1999512</ele>
        <time>2013-07-27T13:55:35Z</time>
      </trkpt>
      <trkpt lat="45.54269" lon="6.7087">
        <ele>1564.5999756</ele>
        <time>2013-07-27T13:55:44Z</time>
      </trkpt>
      <trkpt lat="45.54276" lon="6.70868">
        <ele>1556.1999512</ele>
        <time>2013-07-27T13:55:50Z</time>
      </trkpt>
      <trkpt lat="45.54282" lon="6.70864">
        <ele>1546.5999756</ele>
        <time>2013-07-27T13:55:56Z</time>
      </trkpt>
      <trkpt lat="45.54291" lon="6.70864">
        <ele>1537.1999512</ele>
        <time>2013-07-27T13:56:03Z</time>
      </trkpt>
      <trkpt lat="45.54297" lon="6.70864">
        <ele>1535</ele>
        <time>2013-07-27T13:56:08Z</time>
      </trkpt>
      <trkpt lat="45.54307" lon="6.7087">
        <ele>1535.8000488</ele>
        <time>2013-07-27T13:56:15Z</time>
      </trkpt>
      <trkpt lat="45.54314" lon="6.70872">
        <ele>1535.5999756</ele>
        <time>2013-07-27T13:56:20Z</time>
      </trkpt>
      <trkpt lat="45.54323" lon="6.70878">
        <ele>1532.5999756</ele>
        <time>2013-07-27T13:56:27Z</time>
      </trkpt>
      <trkpt lat="45.54331" lon="6.70887">
        <ele>1532.8000488</ele>
        <time>2013-07-27T13:56:32Z</time>
      </trkpt>
      <trkpt lat="45.54339" lon="6.70894">
        <ele>1535.4000244</ele>
        <time>2013-07-27T13:56:37Z</time>
      </trkpt>
      <trkpt lat="45.54347" lon="6.70906">
        <ele>1537.8000488</ele>
        <time>2013-07-27T13:56:43Z</time>
      </trkpt>
      <trkpt lat="45.54354" lon="6.70916">
        <ele>1539.5999756</ele>
        <time>2013-07-27T13:56:48Z</time>
      </trkpt>
      <trkpt lat="45.54358" lon="6.70923">
        <ele>1540.8000488</ele>
        <time>2013-07-27T13:56:52Z</time>
      </trkpt>
      <trkpt lat="45.54362" lon="6.70933">
        <ele>1541.5999756</ele>
        <time>2013-07-27T13:56:58Z</time>
      </trkpt>
      <trkpt lat="45.54367" lon="6.70942">
        <ele>1543</ele>
        <time>2013-07-27T13:57:03Z</time>
      </trkpt>
      <trkpt lat="45.54372" lon="6.7095">
        <ele>1545.4000244</ele>
        <time>2013-07-27T13:57:08Z</time>
      </trkpt>
      <trkpt lat="45.54378" lon="6.70954">
        <ele>1545.5999756</ele>
        <time>2013-07-27T13:57:13Z</time>
      </trkpt>
      <trkpt lat="45.54384" lon="6.70953">
        <ele>1543.8000488</ele>
        <time>2013-07-27T13:57:18Z</time>
      </trkpt>
      <trkpt lat="45.54391" lon="6.70947">
        <ele>1541.5999756</ele>
        <time>2013-07-27T13:57:24Z</time>
      </trkpt>
      <trkpt lat="45.54399" lon="6.70941">
        <ele>1539.4000244</ele>
        <time>2013-07-27T13:57:32Z</time>
      </trkpt>
      <trkpt lat="45.54405" lon="6.70941">
        <ele>1537.5999756</ele>
        <time>2013-07-27T13:57:37Z</time>
      </trkpt>
      <trkpt lat="45.54412" lon="6.70939">
        <ele>1536.1999512</ele>
        <time>2013-07-27T13:57:42Z</time>
      </trkpt>
      <trkpt lat="45.54419" lon="6.70939">
        <ele>1536</ele>
        <time>2013-07-27T13:57:46Z</time>
      </trkpt>
      <trkpt lat="45.54426" lon="6.70942">
        <ele>1535.4000244</ele>
        <time>2013-07-27T13:57:51Z</time>
      </trkpt>
      <trkpt lat="45.54435" lon="6.70942">
        <ele>1537.1999512</ele>
        <time>2013-07-27T13:57:59Z</time>
      </trkpt>
      <trkpt lat="45.54442" lon="6.70941">
        <ele>1541.1999512</ele>
        <time>2013-07-27T13:58:05Z</time>
      </trkpt>
      <trkpt lat="45.54451" lon="6.70939">
        <ele>1540.5999756</ele>
        <time>2013-07-27T13:58:11Z</time>
      </trkpt>
      <trkpt lat="45.54457" lon="6.70942">
        <ele>1537.8000488</ele>
        <time>2013-07-27T13:58:16Z</time>
      </trkpt>
      <trkpt lat="45.54465" lon="6.70946">
        <ele>1534</ele>
        <time>2013-07-27T13:58:23Z</time>
      </trkpt>
      <trkpt lat="45.54472" lon="6.70949">
        <ele>1533.4000244</ele>
        <time>2013-07-27T13:58:28Z</time>
      </trkpt>
      <trkpt lat="45.54481" lon="6.70947">
        <ele>1532</ele>
        <time>2013-07-27T13:58:34Z</time>
      </trkpt>
      <trkpt lat="45.54489" lon="6.70951">
        <ele>1530</ele>
        <time>2013-07-27T13:58:39Z</time>
      </trkpt>
      <trkpt lat="45.54498" lon="6.70964">
        <ele>1528.4000244</ele>
        <time>2013-07-27T13:58:45Z</time>
      </trkpt>
      <trkpt lat="45.54505" lon="6.70973">
        <ele>1528.4000244</ele>
        <time>2013-07-27T13:58:49Z</time>
      </trkpt>
      <trkpt lat="45.54512" lon="6.7098">
        <ele>1528.8000488</ele>
        <time>2013-07-27T13:58:52Z</time>
      </trkpt>
      <trkpt lat="45.5452" lon="6.7098">
        <ele>1527.8000488</ele>
        <time>2013-07-27T13:58:57Z</time>
      </trkpt>
      <trkpt lat="45.54528" lon="6.70978">
        <ele>1525.8000488</ele>
        <time>2013-07-27T13:59:04Z</time>
      </trkpt>
      <trkpt lat="45.54536" lon="6.70978">
        <ele>1524.1999512</ele>
        <time>2013-07-27T13:59:11Z</time>
      </trkpt>
      <trkpt lat="45.54541" lon="6.70984">
        <ele>1521.4000244</ele>
        <time>2013-07-27T13:59:18Z</time>
      </trkpt>
      <trkpt lat="45.54544" lon="6.70989">
        <ele>1519</ele>
        <time>2013-07-27T13:59:28Z</time>
      </trkpt>
      <trkpt lat="45.54548" lon="6.7098">
        <ele>1516.8000488</ele>
        <time>2013-07-27T13:59:35Z</time>
      </trkpt>
      <trkpt lat="45.54545" lon="6.70971">
        <ele>1516.8000488</ele>
        <time>2013-07-27T13:59:41Z</time>
      </trkpt>
      <trkpt lat="45.54545" lon="6.70959">
        <ele>1517.5999756</ele>
        <time>2013-07-27T13:59:47Z</time>
      </trkpt>
      <trkpt lat="45.5455" lon="6.70953">
        <ele>1516.8000488</ele>
        <time>2013-07-27T13:59:51Z</time>
      </trkpt>
      <trkpt lat="45.54556" lon="6.70948">
        <ele>1515.5999756</ele>
        <time>2013-07-27T13:59:54Z</time>
      </trkpt>
      <trkpt lat="45.54565" lon="6.70943">
        <ele>1512.1999512</ele>
        <time>2013-07-27T13:59:59Z</time>
      </trkpt>
      <trkpt lat="45.54577" lon="6.7094">
        <ele>1509.4000244</ele>
        <time>2013-07-27T14:00:05Z</time>
      </trkpt>
      <trkpt lat="45.54584" lon="6.70942">
        <ele>1507.5999756</ele>
        <time>2013-07-27T14:00:09Z</time>
      </trkpt>
      <trkpt lat="45.54593" lon="6.70944">
        <ele>1506</ele>
        <time>2013-07-27T14:00:14Z</time>
      </trkpt>
      <trkpt lat="45.54603" lon="6.70946">
        <ele>1504.8000488</ele>
        <time>2013-07-27T14:00:19Z</time>
      </trkpt>
      <trkpt lat="45.54613" lon="6.70948">
        <ele>1504.1999512</ele>
        <time>2013-07-27T14:00:24Z</time>
      </trkpt>
      <trkpt lat="45.54623" lon="6.70951">
        <ele>1504.1999512</ele>
        <time>2013-07-27T14:00:29Z</time>
      </trkpt>
      <trkpt lat="45.54629" lon="6.70955">
        <ele>1504</ele>
        <time>2013-07-27T14:00:32Z</time>
      </trkpt>
      <trkpt lat="45.54636" lon="6.70962">
        <ele>1503.8000488</ele>
        <time>2013-07-27T14:00:36Z</time>
      </trkpt>
      <trkpt lat="45.54643" lon="6.70968">
        <ele>1503.8000488</ele>
        <time>2013-07-27T14:00:41Z</time>
      </trkpt>
      <trkpt lat="45.54649" lon="6.70976">
        <ele>1504</ele>
        <time>2013-07-27T14:00:47Z</time>
      </trkpt>
      <trkpt lat="45.54653" lon="6.70987">
        <ele>1504.8000488</ele>
        <time>2013-07-27T14:00:53Z</time>
      </trkpt>
      <trkpt lat="45.54651" lon="6.71005">
        <ele>1504</ele>
        <time>2013-07-27T14:01:01Z</time>
      </trkpt>
      <trkpt lat="45.54647" lon="6.71014">
        <ele>1503.1999512</ele>
        <time>2013-07-27T14:01:06Z</time>
      </trkpt>
      <trkpt lat="45.54642" lon="6.71024">
        <ele>1505.1999512</ele>
        <time>2013-07-27T14:01:13Z</time>
      </trkpt>
      <trkpt lat="45.54638" lon="6.71033">
        <ele>1506.1999512</ele>
        <time>2013-07-27T14:01:21Z</time>
      </trkpt>
      <trkpt lat="45.54642" lon="6.71043">
        <ele>1508</ele>
        <time>2013-07-27T14:01:31Z</time>
      </trkpt>
      <trkpt lat="45.54648" lon="6.71051">
        <ele>1507</ele>
        <time>2013-07-27T14:01:36Z</time>
      </trkpt>
      <trkpt lat="45.54655" lon="6.71056">
        <ele>1505.1999512</ele>
        <time>2013-07-27T14:01:41Z</time>
      </trkpt>
      <trkpt lat="45.54662" lon="6.71057">
        <ele>1503.5999756</ele>
        <time>2013-07-27T14:01:47Z</time>
      </trkpt>
      <trkpt lat="45.54669" lon="6.71056">
        <ele>1503</ele>
        <time>2013-07-27T14:01:52Z</time>
      </trkpt>
      <trkpt lat="45.54678" lon="6.71053">
        <ele>1502.1999512</ele>
        <time>2013-07-27T14:01:57Z</time>
      </trkpt>
      <trkpt lat="45.54685" lon="6.71055">
        <ele>1501</ele>
        <time>2013-07-27T14:02:00Z</time>
      </trkpt>
      <trkpt lat="45.54691" lon="6.71064">
        <ele>1498.8000488</ele>
        <time>2013-07-27T14:02:03Z</time>
      </trkpt>
      <trkpt lat="45.54697" lon="6.71074">
        <ele>1496</ele>
        <time>2013-07-27T14:02:06Z</time>
      </trkpt>
      <trkpt lat="45.54701" lon="6.71093">
        <ele>1490.8000488</ele>
        <time>2013-07-27T14:02:11Z</time>
      </trkpt>
      <trkpt lat="45.54701" lon="6.71112">
        <ele>1488</ele>
        <time>2013-07-27T14:02:16Z</time>
      </trkpt>
      <trkpt lat="45.54701" lon="6.71126">
        <ele>1488.4000244</ele>
        <time>2013-07-27T14:02:20Z</time>
      </trkpt>
      <trkpt lat="45.54703" lon="6.71153">
        <ele>1488.8000488</ele>
        <time>2013-07-27T14:02:28Z</time>
      </trkpt>
      <trkpt lat="45.54705" lon="6.71163">
        <ele>1488.4000244</ele>
        <time>2013-07-27T14:02:31Z</time>
      </trkpt>
      <trkpt lat="45.54707" lon="6.71171">
        <ele>1488</ele>
        <time>2013-07-27T14:02:34Z</time>
      </trkpt>
      <trkpt lat="45.54713" lon="6.71192">
        <ele>1487.8000488</ele>
        <time>2013-07-27T14:02:43Z</time>
      </trkpt>
      <trkpt lat="45.54713" lon="6.71207">
        <ele>1488.4000244</ele>
        <time>2013-07-27T14:02:49Z</time>
      </trkpt>
      <trkpt lat="45.54705" lon="6.71221">
        <ele>1488.5999756</ele>
        <time>2013-07-27T14:02:55Z</time>
      </trkpt>
      <trkpt lat="45.547" lon="6.71234">
        <ele>1487.5999756</ele>
        <time>2013-07-27T14:03:01Z</time>
      </trkpt>
      <trkpt lat="45.54699" lon="6.71243">
        <ele>1487.8000488</ele>
        <time>2013-07-27T14:03:05Z</time>
      </trkpt>
      <trkpt lat="45.54699" lon="6.71255">
        <ele>1488.5999756</ele>
        <time>2013-07-27T14:03:10Z</time>
      </trkpt>
      <trkpt lat="45.54702" lon="6.71263">
        <ele>1489.4000244</ele>
        <time>2013-07-27T14:03:15Z</time>
      </trkpt>
      <trkpt lat="45.54708" lon="6.71271">
        <ele>1492.4000244</ele>
        <time>2013-07-27T14:03:22Z</time>
      </trkpt>
      <trkpt lat="45.54715" lon="6.71272">
        <ele>1501</ele>
        <time>2013-07-27T14:03:31Z</time>
      </trkpt>
      <trkpt lat="45.54723" lon="6.71279">
        <ele>1502.1999512</ele>
        <time>2013-07-27T14:03:39Z</time>
      </trkpt>
      <trkpt lat="45.5473" lon="6.71282">
        <ele>1500.8000488</ele>
        <time>2013-07-27T14:03:45Z</time>
      </trkpt>
      <trkpt lat="45.54738" lon="6.71287">
        <ele>1501.4000244</ele>
        <time>2013-07-27T14:03:50Z</time>
      </trkpt>
      <trkpt lat="45.54744" lon="6.71293">
        <ele>1502.5999756</ele>
        <time>2013-07-27T14:03:53Z</time>
      </trkpt>
      <trkpt lat="45.54749" lon="6.713">
        <ele>1503.5999756</ele>
        <time>2013-07-27T14:03:56Z</time>
      </trkpt>
      <trkpt lat="45.54753" lon="6.71307">
        <ele>1504.8000488</ele>
        <time>2013-07-27T14:03:59Z</time>
      </trkpt>
      <trkpt lat="45.54762" lon="6.71315">
        <ele>1506.4000244</ele>
        <time>2013-07-27T14:04:05Z</time>
      </trkpt>
      <trkpt lat="45.54768" lon="6.7132">
        <ele>1508.1999512</ele>
        <time>2013-07-27T14:04:10Z</time>
      </trkpt>
      <trkpt lat="45.54774" lon="6.71325">
        <ele>1511.5999756</ele>
        <time>2013-07-27T14:04:19Z</time>
      </trkpt>
      <trkpt lat="45.54782" lon="6.71329">
        <ele>1513.8000488</ele>
        <time>2013-07-27T14:04:26Z</time>
      </trkpt>
      <trkpt lat="45.54787" lon="6.71336">
        <ele>1514.1999512</ele>
        <time>2013-07-27T14:04:29Z</time>
      </trkpt>
      <trkpt lat="45.54794" lon="6.71347">
        <ele>1515</ele>
        <time>2013-07-27T14:04:35Z</time>
      </trkpt>
      <trkpt lat="45.548" lon="6.71352">
        <ele>1516.1999512</ele>
        <time>2013-07-27T14:04:41Z</time>
      </trkpt>
      <trkpt lat="45.54807" lon="6.71354">
        <ele>1517.8000488</ele>
        <time>2013-07-27T14:04:47Z</time>
      </trkpt>
      <trkpt lat="45.54812" lon="6.71364">
        <ele>1517.5999756</ele>
        <time>2013-07-27T14:04:52Z</time>
      </trkpt>
      <trkpt lat="45.54816" lon="6.71383">
        <ele>1513.4000244</ele>
        <time>2013-07-27T14:04:57Z</time>
      </trkpt>
      <trkpt lat="45.54815" lon="6.71396">
        <ele>1508</ele>
        <time>2013-07-27T14:05:01Z</time>
      </trkpt>
      <trkpt lat="45.54813" lon="6.7141">
        <ele>1505.8000488</ele>
        <time>2013-07-27T14:05:06Z</time>
      </trkpt>
      <trkpt lat="45.54813" lon="6.71423">
        <ele>1506.4000244</ele>
        <time>2013-07-27T14:05:11Z</time>
      </trkpt>
      <trkpt lat="45.54818" lon="6.71434">
        <ele>1507.8000488</ele>
        <time>2013-07-27T14:05:17Z</time>
      </trkpt>
      <trkpt lat="45.54823" lon="6.71442">
        <ele>1510.1999512</ele>
        <time>2013-07-27T14:05:25Z</time>
      </trkpt>
      <trkpt lat="45.5483" lon="6.7145">
        <ele>1510.1999512</ele>
        <time>2013-07-27T14:05:32Z</time>
      </trkpt>
      <trkpt lat="45.54834" lon="6.71463">
        <ele>1509.1999512</ele>
        <time>2013-07-27T14:05:40Z</time>
      </trkpt>
      <trkpt lat="45.54842" lon="6.71472">
        <ele>1509.4000244</ele>
        <time>2013-07-27T14:05:46Z</time>
      </trkpt>
      <trkpt lat="45.54847" lon="6.71482">
        <ele>1509.8000488</ele>
        <time>2013-07-27T14:05:51Z</time>
      </trkpt>
      <trkpt lat="45.54853" lon="6.71492">
        <ele>1510.5999756</ele>
        <time>2013-07-27T14:05:56Z</time>
      </trkpt>
      <trkpt lat="45.54858" lon="6.71503">
        <ele>1511.8000488</ele>
        <time>2013-07-27T14:06:01Z</time>
      </trkpt>
      <trkpt lat="45.54864" lon="6.71513">
        <ele>1514.5999756</ele>
        <time>2013-07-27T14:06:07Z</time>
      </trkpt>
      <trkpt lat="45.54874" lon="6.71518">
        <ele>1515</ele>
        <time>2013-07-27T14:06:13Z</time>
      </trkpt>
      <trkpt lat="45.54882" lon="6.71521">
        <ele>1513.8000488</ele>
        <time>2013-07-27T14:06:18Z</time>
      </trkpt>
      <trkpt lat="45.5489" lon="6.71527">
        <ele>1511.8000488</ele>
        <time>2013-07-27T14:06:25Z</time>
      </trkpt>
      <trkpt lat="45.54896" lon="6.71529">
        <ele>1511.5999756</ele>
        <time>2013-07-27T14:06:30Z</time>
      </trkpt>
      <trkpt lat="45.54903" lon="6.71532">
        <ele>1511.1999512</ele>
        <time>2013-07-27T14:06:35Z</time>
      </trkpt>
      <trkpt lat="45.5491" lon="6.71534">
        <ele>1509.5999756</ele>
        <time>2013-07-27T14:06:42Z</time>
      </trkpt>
      <trkpt lat="45.54917" lon="6.71541">
        <ele>1509</ele>
        <time>2013-07-27T14:06:48Z</time>
      </trkpt>
      <trkpt lat="45.54924" lon="6.71548">
        <ele>1507.4000244</ele>
        <time>2013-07-27T14:06:53Z</time>
      </trkpt>
      <trkpt lat="45.54932" lon="6.71556">
        <ele>1503.1999512</ele>
        <time>2013-07-27T14:06:58Z</time>
      </trkpt>
      <trkpt lat="45.54939" lon="6.71566">
        <ele>1499.5999756</ele>
        <time>2013-07-27T14:07:03Z</time>
      </trkpt>
      <trkpt lat="45.54942" lon="6.71574">
        <ele>1497.8000488</ele>
        <time>2013-07-27T14:07:06Z</time>
      </trkpt>
      <trkpt lat="45.54944" lon="6.71588">
        <ele>1495.8000488</ele>
        <time>2013-07-27T14:07:12Z</time>
      </trkpt>
      <trkpt lat="45.54946" lon="6.716">
        <ele>1494.1999512</ele>
        <time>2013-07-27T14:07:18Z</time>
      </trkpt>
      <trkpt lat="45.54947" lon="6.71611">
        <ele>1492.8000488</ele>
        <time>2013-07-27T14:07:23Z</time>
      </trkpt>
      <trkpt lat="45.54948" lon="6.71625">
        <ele>1491.5999756</ele>
        <time>2013-07-27T14:07:29Z</time>
      </trkpt>
      <trkpt lat="45.54949" lon="6.71636">
        <ele>1490</ele>
        <time>2013-07-27T14:07:34Z</time>
      </trkpt>
      <trkpt lat="45.5495" lon="6.71648">
        <ele>1488</ele>
        <time>2013-07-27T14:07:39Z</time>
      </trkpt>
      <trkpt lat="45.54953" lon="6.71661">
        <ele>1486.8000488</ele>
        <time>2013-07-27T14:07:45Z</time>
      </trkpt>
      <trkpt lat="45.54959" lon="6.71674">
        <ele>1486</ele>
        <time>2013-07-27T14:07:51Z</time>
      </trkpt>
      <trkpt lat="45.54963" lon="6.71681">
        <ele>1485.5999756</ele>
        <time>2013-07-27T14:07:55Z</time>
      </trkpt>
      <trkpt lat="45.54971" lon="6.71696">
        <ele>1486.4000244</ele>
        <time>2013-07-27T14:08:04Z</time>
      </trkpt>
      <trkpt lat="45.54977" lon="6.71705">
        <ele>1487.1999512</ele>
        <time>2013-07-27T14:08:10Z</time>
      </trkpt>
      <trkpt lat="45.54982" lon="6.71716">
        <ele>1488.4000244</ele>
        <time>2013-07-27T14:08:18Z</time>
      </trkpt>
      <trkpt lat="45.54987" lon="6.71725">
        <ele>1490.4000244</ele>
        <time>2013-07-27T14:08:25Z</time>
      </trkpt>
      <trkpt lat="45.54991" lon="6.71736">
        <ele>1492.5999756</ele>
        <time>2013-07-27T14:08:34Z</time>
      </trkpt>
      <trkpt lat="45.54991" lon="6.71747">
        <ele>1496.4000244</ele>
        <time>2013-07-27T14:08:43Z</time>
      </trkpt>
      <trkpt lat="45.5499" lon="6.71756">
        <ele>1497.4000244</ele>
        <time>2013-07-27T14:08:49Z</time>
      </trkpt>
      <trkpt lat="45.5499" lon="6.71766">
        <ele>1497.8000488</ele>
        <time>2013-07-27T14:08:54Z</time>
      </trkpt>
      <trkpt lat="45.54992" lon="6.71784">
        <ele>1497.5999756</ele>
        <time>2013-07-27T14:09:02Z</time>
      </trkpt>
      <trkpt lat="45.54994" lon="6.71795">
        <ele>1497.1999512</ele>
        <time>2013-07-27T14:09:07Z</time>
      </trkpt>
      <trkpt lat="45.54997" lon="6.71803">
        <ele>1497.4000244</ele>
        <time>2013-07-27T14:09:11Z</time>
      </trkpt>
      <trkpt lat="45.55001" lon="6.71814">
        <ele>1499</ele>
        <time>2013-07-27T14:09:17Z</time>
      </trkpt>
      <trkpt lat="45.55006" lon="6.71822">
        <ele>1500.1999512</ele>
        <time>2013-07-27T14:09:22Z</time>
      </trkpt>
      <trkpt lat="45.55012" lon="6.71835">
        <ele>1500.5999756</ele>
        <time>2013-07-27T14:09:30Z</time>
      </trkpt>
      <trkpt lat="45.55015" lon="6.71844">
        <ele>1500</ele>
        <time>2013-07-27T14:09:35Z</time>
      </trkpt>
      <trkpt lat="45.55019" lon="6.71853">
        <ele>1499.1999512</ele>
        <time>2013-07-27T14:09:40Z</time>
      </trkpt>
      <trkpt lat="45.55022" lon="6.71866">
        <ele>1499.8000488</ele>
        <time>2013-07-27T14:09:46Z</time>
      </trkpt>
      <trkpt lat="45.55021" lon="6.71881">
        <ele>1500.5999756</ele>
        <time>2013-07-27T14:09:53Z</time>
      </trkpt>
      <trkpt lat="45.55018" lon="6.71897">
        <ele>1501</ele>
        <time>2013-07-27T14:10:00Z</time>
      </trkpt>
      <trkpt lat="45.55018" lon="6.71907">
        <ele>1501.1999512</ele>
        <time>2013-07-27T14:10:05Z</time>
      </trkpt>
      <trkpt lat="45.55021" lon="6.71915">
        <ele>1502.4000244</ele>
        <time>2013-07-27T14:10:11Z</time>
      </trkpt>
      <trkpt lat="45.55024" lon="6.71927">
        <ele>1505.1999512</ele>
        <time>2013-07-27T14:10:18Z</time>
      </trkpt>
      <trkpt lat="45.55022" lon="6.71941">
        <ele>1504.5999756</ele>
        <time>2013-07-27T14:10:23Z</time>
      </trkpt>
      <trkpt lat="45.55022" lon="6.71954">
        <ele>1501.5999756</ele>
        <time>2013-07-27T14:10:29Z</time>
      </trkpt>
      <trkpt lat="45.5502" lon="6.71968">
        <ele>1498</ele>
        <time>2013-07-27T14:10:36Z</time>
      </trkpt>
      <trkpt lat="45.55019" lon="6.71979">
        <ele>1497.5999756</ele>
        <time>2013-07-27T14:10:43Z</time>
      </trkpt>
      <trkpt lat="45.5502" lon="6.71988">
        <ele>1498.4000244</ele>
        <time>2013-07-27T14:10:48Z</time>
      </trkpt>
      <trkpt lat="45.55025" lon="6.71995">
        <ele>1499</ele>
        <time>2013-07-27T14:10:59Z</time>
      </trkpt>
      <trkpt lat="45.55034" lon="6.71999">
        <ele>1500.8000488</ele>
        <time>2013-07-27T14:11:08Z</time>
      </trkpt>
      <trkpt lat="45.55039" lon="6.7201">
        <ele>1503.4000244</ele>
        <time>2013-07-27T14:11:16Z</time>
      </trkpt>
      <trkpt lat="45.55042" lon="6.72022">
        <ele>1503.4000244</ele>
        <time>2013-07-27T14:11:21Z</time>
      </trkpt>
      <trkpt lat="45.55047" lon="6.72028">
        <ele>1504.1999512</ele>
        <time>2013-07-27T14:11:26Z</time>
      </trkpt>
      <trkpt lat="45.55054" lon="6.72031">
        <ele>1506.8000488</ele>
        <time>2013-07-27T14:11:36Z</time>
      </trkpt>
      <trkpt lat="45.55061" lon="6.7203">
        <ele>1507.1999512</ele>
        <time>2013-07-27T14:11:40Z</time>
      </trkpt>
      <trkpt lat="45.55064" lon="6.72022">
        <ele>1506.4000244</ele>
        <time>2013-07-27T14:11:48Z</time>
      </trkpt>
      <trkpt lat="45.55072" lon="6.72022">
        <ele>1503</ele>
        <time>2013-07-27T14:11:55Z</time>
      </trkpt>
      <trkpt lat="45.55079" lon="6.72031">
        <ele>1500.1999512</ele>
        <time>2013-07-27T14:12:00Z</time>
      </trkpt>
      <trkpt lat="45.55085" lon="6.72038">
        <ele>1498.5999756</ele>
        <time>2013-07-27T14:12:03Z</time>
      </trkpt>
      <trkpt lat="45.55093" lon="6.72049">
        <ele>1496.1999512</ele>
        <time>2013-07-27T14:12:08Z</time>
      </trkpt>
      <trkpt lat="45.551" lon="6.72063">
        <ele>1494.5999756</ele>
        <time>2013-07-27T14:12:14Z</time>
      </trkpt>
      <trkpt lat="45.55105" lon="6.72075">
        <ele>1492.1999512</ele>
        <time>2013-07-27T14:12:18Z</time>
      </trkpt>
      <trkpt lat="45.55111" lon="6.72082">
        <ele>1490.1999512</ele>
        <time>2013-07-27T14:12:23Z</time>
      </trkpt>
      <trkpt lat="45.55114" lon="6.72094">
        <ele>1491.4000244</ele>
        <time>2013-07-27T14:12:28Z</time>
      </trkpt>
      <trkpt lat="45.55117" lon="6.72103">
        <ele>1492.5999756</ele>
        <time>2013-07-27T14:12:33Z</time>
      </trkpt>
      <trkpt lat="45.5512" lon="6.72116">
        <ele>1493.8000488</ele>
        <time>2013-07-27T14:12:39Z</time>
      </trkpt>
      <trkpt lat="45.55122" lon="6.72128">
        <ele>1494.4000244</ele>
        <time>2013-07-27T14:12:44Z</time>
      </trkpt>
      <trkpt lat="45.55124" lon="6.72143">
        <ele>1493.4000244</ele>
        <time>2013-07-27T14:12:50Z</time>
      </trkpt>
      <trkpt lat="45.55128" lon="6.72156">
        <ele>1491.1999512</ele>
        <time>2013-07-27T14:12:55Z</time>
      </trkpt>
      <trkpt lat="45.55131" lon="6.72164">
        <ele>1490.1999512</ele>
        <time>2013-07-27T14:12:58Z</time>
      </trkpt>
      <trkpt lat="45.55135" lon="6.72176">
        <ele>1489.5999756</ele>
        <time>2013-07-27T14:13:02Z</time>
      </trkpt>
      <trkpt lat="45.5514" lon="6.72187">
        <ele>1490.5999756</ele>
        <time>2013-07-27T14:13:07Z</time>
      </trkpt>
      <trkpt lat="45.55146" lon="6.72204">
        <ele>1492</ele>
        <time>2013-07-27T14:13:13Z</time>
      </trkpt>
      <trkpt lat="45.55152" lon="6.72223">
        <ele>1490.5999756</ele>
        <time>2013-07-27T14:13:18Z</time>
      </trkpt>
      <trkpt lat="45.55156" lon="6.72232">
        <ele>1490</ele>
        <time>2013-07-27T14:13:21Z</time>
      </trkpt>
      <trkpt lat="45.55162" lon="6.72247">
        <ele>1488</ele>
        <time>2013-07-27T14:13:27Z</time>
      </trkpt>
      <trkpt lat="45.55167" lon="6.72258">
        <ele>1487.4000244</ele>
        <time>2013-07-27T14:13:31Z</time>
      </trkpt>
      <trkpt lat="45.55172" lon="6.72272">
        <ele>1487.5999756</ele>
        <time>2013-07-27T14:13:36Z</time>
      </trkpt>
      <trkpt lat="45.55178" lon="6.72287">
        <ele>1487.8000488</ele>
        <time>2013-07-27T14:13:41Z</time>
      </trkpt>
      <trkpt lat="45.55179" lon="6.72297">
        <ele>1486.4000244</ele>
        <time>2013-07-27T14:13:44Z</time>
      </trkpt>
      <trkpt lat="45.55179" lon="6.72308">
        <ele>1483.8000488</ele>
        <time>2013-07-27T14:13:47Z</time>
      </trkpt>
      <trkpt lat="45.5518" lon="6.72325">
        <ele>1476.5999756</ele>
        <time>2013-07-27T14:13:52Z</time>
      </trkpt>
      <trkpt lat="45.55185" lon="6.72339">
        <ele>1470.8000488</ele>
        <time>2013-07-27T14:13:57Z</time>
      </trkpt>
      <trkpt lat="45.55191" lon="6.72354">
        <ele>1469.5999756</ele>
        <time>2013-07-27T14:14:02Z</time>
      </trkpt>
      <trkpt lat="45.55194" lon="6.72364">
        <ele>1471.1999512</ele>
        <time>2013-07-27T14:14:06Z</time>
      </trkpt>
      <trkpt lat="45.55199" lon="6.72377">
        <ele>1474</ele>
        <time>2013-07-27T14:14:11Z</time>
      </trkpt>
      <trkpt lat="45.55202" lon="6.72385">
        <ele>1474.8000488</ele>
        <time>2013-07-27T14:14:14Z</time>
      </trkpt>
      <trkpt lat="45.55205" lon="6.72397">
        <ele>1476</ele>
        <time>2013-07-27T14:14:18Z</time>
      </trkpt>
      <trkpt lat="45.5521" lon="6.72413">
        <ele>1477.5999756</ele>
        <time>2013-07-27T14:14:24Z</time>
      </trkpt>
      <trkpt lat="45.55211" lon="6.72422">
        <ele>1477.4000244</ele>
        <time>2013-07-27T14:14:27Z</time>
      </trkpt>
      <trkpt lat="45.55212" lon="6.72438">
        <ele>1473.4000244</ele>
        <time>2013-07-27T14:14:31Z</time>
      </trkpt>
      <trkpt lat="45.55211" lon="6.72456">
        <ele>1467.5999756</ele>
        <time>2013-07-27T14:14:36Z</time>
      </trkpt>
      <trkpt lat="45.55209" lon="6.72471">
        <ele>1464</ele>
        <time>2013-07-27T14:14:40Z</time>
      </trkpt>
      <trkpt lat="45.5521" lon="6.72482">
        <ele>1462.8000488</ele>
        <time>2013-07-27T14:14:43Z</time>
      </trkpt>
      <trkpt lat="45.55212" lon="6.72492">
        <ele>1461.1999512</ele>
        <time>2013-07-27T14:14:46Z</time>
      </trkpt>
      <trkpt lat="45.55218" lon="6.72507">
        <ele>1459.4000244</ele>
        <time>2013-07-27T14:14:51Z</time>
      </trkpt>
      <trkpt lat="45.55221" lon="6.72515">
        <ele>1459</ele>
        <time>2013-07-27T14:14:54Z</time>
      </trkpt>
      <trkpt lat="45.55225" lon="6.7253">
        <ele>1458.4000244</ele>
        <time>2013-07-27T14:14:59Z</time>
      </trkpt>
      <trkpt lat="45.55231" lon="6.72548">
        <ele>1458</ele>
        <time>2013-07-27T14:15:05Z</time>
      </trkpt>
      <trkpt lat="45.55234" lon="6.72558">
        <ele>1457.5999756</ele>
        <time>2013-07-27T14:15:08Z</time>
      </trkpt>
      <trkpt lat="45.5524" lon="6.72571">
        <ele>1458.4000244</ele>
        <time>2013-07-27T14:15:13Z</time>
      </trkpt>
      <trkpt lat="45.55242" lon="6.7258">
        <ele>1458.8000488</ele>
        <time>2013-07-27T14:15:16Z</time>
      </trkpt>
      <trkpt lat="45.55243" lon="6.72595">
        <ele>1458.5999756</ele>
        <time>2013-07-27T14:15:21Z</time>
      </trkpt>
      <trkpt lat="45.55246" lon="6.72605">
        <ele>1456.8000488</ele>
        <time>2013-07-27T14:15:26Z</time>
      </trkpt>
      <trkpt lat="45.55255" lon="6.72591">
        <ele>1455</ele>
        <time>2013-07-27T14:15:31Z</time>
      </trkpt>
      <trkpt lat="45.55262" lon="6.72583">
        <ele>1454.5999756</ele>
        <time>2013-07-27T14:15:34Z</time>
      </trkpt>
      <trkpt lat="45.55268" lon="6.72578">
        <ele>1454</ele>
        <time>2013-07-27T14:15:37Z</time>
      </trkpt>
      <trkpt lat="45.55277" lon="6.7258">
        <ele>1452.5999756</ele>
        <time>2013-07-27T14:15:42Z</time>
      </trkpt>
      <trkpt lat="45.55288" lon="6.72589">
        <ele>1450.5999756</ele>
        <time>2013-07-27T14:15:48Z</time>
      </trkpt>
      <trkpt lat="45.55296" lon="6.72595">
        <ele>1448</ele>
        <time>2013-07-27T14:15:53Z</time>
      </trkpt>
      <trkpt lat="45.55306" lon="6.726">
        <ele>1444.8000488</ele>
        <time>2013-07-27T14:15:58Z</time>
      </trkpt>
      <trkpt lat="45.55315" lon="6.72601">
        <ele>1441.1999512</ele>
        <time>2013-07-27T14:16:02Z</time>
      </trkpt>
      <trkpt lat="45.55323" lon="6.72604">
        <ele>1438.4000244</ele>
        <time>2013-07-27T14:16:07Z</time>
      </trkpt>
      <trkpt lat="45.55334" lon="6.72603">
        <ele>1438</ele>
        <time>2013-07-27T14:16:12Z</time>
      </trkpt>
      <trkpt lat="45.5534" lon="6.72603">
        <ele>1441</ele>
        <time>2013-07-27T14:16:19Z</time>
      </trkpt>
      <trkpt lat="45.55346" lon="6.72608">
        <ele>1441.8000488</ele>
        <time>2013-07-27T14:16:26Z</time>
      </trkpt>
      <trkpt lat="45.55348" lon="6.72621">
        <ele>1436.4000244</ele>
        <time>2013-07-27T14:16:30Z</time>
      </trkpt>
      <trkpt lat="45.5535" lon="6.72635">
        <ele>1431.4000244</ele>
        <time>2013-07-27T14:16:34Z</time>
      </trkpt>
      <trkpt lat="45.5535" lon="6.72646">
        <ele>1429.4000244</ele>
        <time>2013-07-27T14:16:37Z</time>
      </trkpt>
      <trkpt lat="45.55351" lon="6.72656">
        <ele>1427.8000488</ele>
        <time>2013-07-27T14:16:40Z</time>
      </trkpt>
      <trkpt lat="45.55351" lon="6.72665">
        <ele>1426.4000244</ele>
        <time>2013-07-27T14:16:43Z</time>
      </trkpt>
      <trkpt lat="45.55354" lon="6.72674">
        <ele>1425.1999512</ele>
        <time>2013-07-27T14:16:46Z</time>
      </trkpt>
      <trkpt lat="45.55363" lon="6.72678">
        <ele>1423</ele>
        <time>2013-07-27T14:16:50Z</time>
      </trkpt>
      <trkpt lat="45.55369" lon="6.72685">
        <ele>1421.1999512</ele>
        <time>2013-07-27T14:16:57Z</time>
      </trkpt>
      <trkpt lat="45.55372" lon="6.72694">
        <ele>1419</ele>
        <time>2013-07-27T14:17:02Z</time>
      </trkpt>
      <trkpt lat="45.55376" lon="6.72704">
        <ele>1416.1999512</ele>
        <time>2013-07-27T14:17:07Z</time>
      </trkpt>
      <trkpt lat="45.55383" lon="6.72714">
        <ele>1414</ele>
        <time>2013-07-27T14:17:13Z</time>
      </trkpt>
      <trkpt lat="45.5539" lon="6.72721">
        <ele>1412.5999756</ele>
        <time>2013-07-27T14:17:18Z</time>
      </trkpt>
      <trkpt lat="45.55397" lon="6.72732">
        <ele>1411.8000488</ele>
        <time>2013-07-27T14:17:24Z</time>
      </trkpt>
      <trkpt lat="45.55399" lon="6.72742">
        <ele>1410</ele>
        <time>2013-07-27T14:17:29Z</time>
      </trkpt>
      <trkpt lat="45.55403" lon="6.72753">
        <ele>1407.1999512</ele>
        <time>2013-07-27T14:17:34Z</time>
      </trkpt>
      <trkpt lat="45.55403" lon="6.72764">
        <ele>1404.4000244</ele>
        <time>2013-07-27T14:17:39Z</time>
      </trkpt>
      <trkpt lat="45.554" lon="6.7276">
        <ele>1396.8000488</ele>
        <time>2013-07-27T14:17:52Z</time>
      </trkpt>
      <trkpt lat="45.55398" lon="6.72769">
        <ele>1393.4000244</ele>
        <time>2013-07-27T14:18:02Z</time>
      </trkpt>
      <trkpt lat="45.55397" lon="6.72778">
        <ele>1392.1999512</ele>
        <time>2013-07-27T14:18:06Z</time>
      </trkpt>
      <trkpt lat="45.55395" lon="6.72789">
        <ele>1390.4000244</ele>
        <time>2013-07-27T14:18:11Z</time>
      </trkpt>
      <trkpt lat="45.55396" lon="6.72804">
        <ele>1389.1999512</ele>
        <time>2013-07-27T14:18:17Z</time>
      </trkpt>
      <trkpt lat="45.55398" lon="6.72818">
        <ele>1387.8000488</ele>
        <time>2013-07-27T14:18:22Z</time>
      </trkpt>
      <trkpt lat="45.55399" lon="6.72828">
        <ele>1387.1999512</ele>
        <time>2013-07-27T14:18:26Z</time>
      </trkpt>
      <trkpt lat="45.55402" lon="6.72841">
        <ele>1386.1999512</ele>
        <time>2013-07-27T14:18:31Z</time>
      </trkpt>
      <trkpt lat="45.55406" lon="6.72855">
        <ele>1385.4000244</ele>
        <time>2013-07-27T14:18:36Z</time>
      </trkpt>
      <trkpt lat="45.55408" lon="6.72868">
        <ele>1385.1999512</ele>
        <time>2013-07-27T14:18:41Z</time>
      </trkpt>
      <trkpt lat="45.55406" lon="6.7288">
        <ele>1384.1999512</ele>
        <time>2013-07-27T14:18:46Z</time>
      </trkpt>
      <trkpt lat="45.55408" lon="6.72891">
        <ele>1382.1999512</ele>
        <time>2013-07-27T14:18:54Z</time>
      </trkpt>
      <trkpt lat="45.55414" lon="6.72898">
        <ele>1380.4000244</ele>
        <time>2013-07-27T14:18:59Z</time>
      </trkpt>
      <trkpt lat="45.55421" lon="6.72902">
        <ele>1380.5999756</ele>
        <time>2013-07-27T14:19:04Z</time>
      </trkpt>
      <trkpt lat="45.55428" lon="6.72909">
        <ele>1381.5999756</ele>
        <time>2013-07-27T14:19:09Z</time>
      </trkpt>
      <trkpt lat="45.55434" lon="6.72915">
        <ele>1383.4000244</ele>
        <time>2013-07-27T14:19:14Z</time>
      </trkpt>
      <trkpt lat="45.55441" lon="6.72925">
        <ele>1384.8000488</ele>
        <time>2013-07-27T14:19:21Z</time>
      </trkpt>
      <trkpt lat="45.55451" lon="6.7294">
        <ele>1385</ele>
        <time>2013-07-27T14:19:28Z</time>
      </trkpt>
      <trkpt lat="45.5546" lon="6.7295">
        <ele>1384.8000488</ele>
        <time>2013-07-27T14:19:33Z</time>
      </trkpt>
      <trkpt lat="45.55467" lon="6.72955">
        <ele>1384.5999756</ele>
        <time>2013-07-27T14:19:37Z</time>
      </trkpt>
      <trkpt lat="45.55478" lon="6.72961">
        <ele>1384</ele>
        <time>2013-07-27T14:19:43Z</time>
      </trkpt>
      <trkpt lat="45.55487" lon="6.72961">
        <ele>1383.1999512</ele>
        <time>2013-07-27T14:19:48Z</time>
      </trkpt>
      <trkpt lat="45.55495" lon="6.72961">
        <ele>1382.1999512</ele>
        <time>2013-07-27T14:19:53Z</time>
      </trkpt>
      <trkpt lat="45.55502" lon="6.72961">
        <ele>1381.1999512</ele>
        <time>2013-07-27T14:19:58Z</time>
      </trkpt>
      <trkpt lat="45.55509" lon="6.7296">
        <ele>1380</ele>
        <time>2013-07-27T14:20:02Z</time>
      </trkpt>
      <trkpt lat="45.55517" lon="6.72959">
        <ele>1377.8000488</ele>
        <time>2013-07-27T14:20:07Z</time>
      </trkpt>
      <trkpt lat="45.55524" lon="6.7296">
        <ele>1376.4000244</ele>
        <time>2013-07-27T14:20:12Z</time>
      </trkpt>
      <trkpt lat="45.55531" lon="6.72963">
        <ele>1376.4000244</ele>
        <time>2013-07-27T14:20:15Z</time>
      </trkpt>
      <trkpt lat="45.55541" lon="6.72966">
        <ele>1377.8000488</ele>
        <time>2013-07-27T14:20:19Z</time>
      </trkpt>
      <trkpt lat="45.5555" lon="6.72968">
        <ele>1378.8000488</ele>
        <time>2013-07-27T14:20:23Z</time>
      </trkpt>
      <trkpt lat="45.55564" lon="6.72974">
        <ele>1378</ele>
        <time>2013-07-27T14:20:28Z</time>
      </trkpt>
      <trkpt lat="45.55572" lon="6.72975">
        <ele>1374.1999512</ele>
        <time>2013-07-27T14:20:34Z</time>
      </trkpt>
      <trkpt lat="45.55578" lon="6.72977">
        <ele>1369.5999756</ele>
        <time>2013-07-27T14:20:38Z</time>
      </trkpt>
      <trkpt lat="45.55598" lon="6.72995">
        <ele>1368.1999512</ele>
        <time>2013-07-27T14:20:46Z</time>
      </trkpt>
      <trkpt lat="45.55602" lon="6.73002">
        <ele>1368.4000244</ele>
        <time>2013-07-27T14:20:48Z</time>
      </trkpt>
      <trkpt lat="45.5561" lon="6.73019">
        <ele>1368.8000488</ele>
        <time>2013-07-27T14:20:53Z</time>
      </trkpt>
      <trkpt lat="45.55613" lon="6.73041">
        <ele>1369.4000244</ele>
        <time>2013-07-27T14:21:00Z</time>
      </trkpt>
      <trkpt lat="45.55615" lon="6.73056">
        <ele>1369.4000244</ele>
        <time>2013-07-27T14:21:04Z</time>
      </trkpt>
      <trkpt lat="45.55615" lon="6.73066">
        <ele>1369</ele>
        <time>2013-07-27T14:21:07Z</time>
      </trkpt>
      <trkpt lat="45.55614" lon="6.73075">
        <ele>1368.5999756</ele>
        <time>2013-07-27T14:21:10Z</time>
      </trkpt>
      <trkpt lat="45.55611" lon="6.73092">
        <ele>1365.8000488</ele>
        <time>2013-07-27T14:21:15Z</time>
      </trkpt>
      <trkpt lat="45.55608" lon="6.73104">
        <ele>1363.5999756</ele>
        <time>2013-07-27T14:21:19Z</time>
      </trkpt>
      <trkpt lat="45.55607" lon="6.73114">
        <ele>1362.4000244</ele>
        <time>2013-07-27T14:21:22Z</time>
      </trkpt>
      <trkpt lat="45.55605" lon="6.73131">
        <ele>1360.4000244</ele>
        <time>2013-07-27T14:21:27Z</time>
      </trkpt>
      <trkpt lat="45.55604" lon="6.7315">
        <ele>1359</ele>
        <time>2013-07-27T14:21:32Z</time>
      </trkpt>
      <trkpt lat="45.55605" lon="6.73163">
        <ele>1358</ele>
        <time>2013-07-27T14:21:36Z</time>
      </trkpt>
      <trkpt lat="45.5561" lon="6.73184">
        <ele>1358.4000244</ele>
        <time>2013-07-27T14:21:44Z</time>
      </trkpt>
      <trkpt lat="45.55612" lon="6.732">
        <ele>1359.4000244</ele>
        <time>2013-07-27T14:21:50Z</time>
      </trkpt>
      <trkpt lat="45.55611" lon="6.7322">
        <ele>1359.4000244</ele>
        <time>2013-07-27T14:21:57Z</time>
      </trkpt>
      <trkpt lat="45.55614" lon="6.73232">
        <ele>1358.5999756</ele>
        <time>2013-07-27T14:22:01Z</time>
      </trkpt>
      <trkpt lat="45.55619" lon="6.73249">
        <ele>1357.8000488</ele>
        <time>2013-07-27T14:22:06Z</time>
      </trkpt>
      <trkpt lat="45.55621" lon="6.73262">
        <ele>1355.8000488</ele>
        <time>2013-07-27T14:22:10Z</time>
      </trkpt>
      <trkpt lat="45.55624" lon="6.73271">
        <ele>1355.1999512</ele>
        <time>2013-07-27T14:22:13Z</time>
      </trkpt>
      <trkpt lat="45.55626" lon="6.7328">
        <ele>1354.1999512</ele>
        <time>2013-07-27T14:22:16Z</time>
      </trkpt>
      <trkpt lat="45.55627" lon="6.73292">
        <ele>1352.1999512</ele>
        <time>2013-07-27T14:22:20Z</time>
      </trkpt>
      <trkpt lat="45.5563" lon="6.73302">
        <ele>1351.1999512</ele>
        <time>2013-07-27T14:22:24Z</time>
      </trkpt>
      <trkpt lat="45.55632" lon="6.73315">
        <ele>1351.4000244</ele>
        <time>2013-07-27T14:22:29Z</time>
      </trkpt>
      <trkpt lat="45.55637" lon="6.7333">
        <ele>1350.1999512</ele>
        <time>2013-07-27T14:22:34Z</time>
      </trkpt>
      <trkpt lat="45.5564" lon="6.73339">
        <ele>1349</ele>
        <time>2013-07-27T14:22:37Z</time>
      </trkpt>
      <trkpt lat="45.55641" lon="6.73349">
        <ele>1347</ele>
        <time>2013-07-27T14:22:40Z</time>
      </trkpt>
      <trkpt lat="45.55642" lon="6.7336">
        <ele>1344.8000488</ele>
        <time>2013-07-27T14:22:43Z</time>
      </trkpt>
      <trkpt lat="45.55643" lon="6.73371">
        <ele>1343</ele>
        <time>2013-07-27T14:22:46Z</time>
      </trkpt>
      <trkpt lat="45.55642" lon="6.7339">
        <ele>1339.8000488</ele>
        <time>2013-07-27T14:22:51Z</time>
      </trkpt>
      <trkpt lat="45.55642" lon="6.73409">
        <ele>1337.8000488</ele>
        <time>2013-07-27T14:22:56Z</time>
      </trkpt>
      <trkpt lat="45.55642" lon="6.7342">
        <ele>1336.8000488</ele>
        <time>2013-07-27T14:22:59Z</time>
      </trkpt>
      <trkpt lat="45.55642" lon="6.73433">
        <ele>1335</ele>
        <time>2013-07-27T14:23:03Z</time>
      </trkpt>
      <trkpt lat="45.55643" lon="6.73444">
        <ele>1334</ele>
        <time>2013-07-27T14:23:06Z</time>
      </trkpt>
      <trkpt lat="45.55643" lon="6.73453">
        <ele>1333.1999512</ele>
        <time>2013-07-27T14:23:09Z</time>
      </trkpt>
      <trkpt lat="45.55643" lon="6.73469">
        <ele>1331.5999756</ele>
        <time>2013-07-27T14:23:14Z</time>
      </trkpt>
      <trkpt lat="45.55646" lon="6.73481">
        <ele>1330.4000244</ele>
        <time>2013-07-27T14:23:18Z</time>
      </trkpt>
      <trkpt lat="45.55646" lon="6.73496">
        <ele>1330.4000244</ele>
        <time>2013-07-27T14:23:23Z</time>
      </trkpt>
      <trkpt lat="45.55643" lon="6.73511">
        <ele>1330.4000244</ele>
        <time>2013-07-27T14:23:28Z</time>
      </trkpt>
      <trkpt lat="45.5564" lon="6.73525">
        <ele>1329.4000244</ele>
        <time>2013-07-27T14:23:33Z</time>
      </trkpt>
      <trkpt lat="45.55639" lon="6.73535">
        <ele>1328</ele>
        <time>2013-07-27T14:23:37Z</time>
      </trkpt>
      <trkpt lat="45.55639" lon="6.73545">
        <ele>1327.1999512</ele>
        <time>2013-07-27T14:23:42Z</time>
      </trkpt>
      <trkpt lat="45.55637" lon="6.73555">
        <ele>1326</ele>
        <time>2013-07-27T14:23:47Z</time>
      </trkpt>
      <trkpt lat="45.55633" lon="6.73563">
        <ele>1324.5999756</ele>
        <time>2013-07-27T14:23:51Z</time>
      </trkpt>
      <trkpt lat="45.5563" lon="6.73574">
        <ele>1323.8000488</ele>
        <time>2013-07-27T14:23:56Z</time>
      </trkpt>
      <trkpt lat="45.55626" lon="6.73587">
        <ele>1322.4000244</ele>
        <time>2013-07-27T14:24:03Z</time>
      </trkpt>
      <trkpt lat="45.55623" lon="6.73599">
        <ele>1321.4000244</ele>
        <time>2013-07-27T14:24:09Z</time>
      </trkpt>
      <trkpt lat="45.5562" lon="6.73613">
        <ele>1320.4000244</ele>
        <time>2013-07-27T14:24:15Z</time>
      </trkpt>
      <trkpt lat="45.55619" lon="6.73621">
        <ele>1319.5999756</ele>
        <time>2013-07-27T14:24:19Z</time>
      </trkpt>
      <trkpt lat="45.55619" lon="6.73632">
        <ele>1320</ele>
        <time>2013-07-27T14:24:24Z</time>
      </trkpt>
      <trkpt lat="45.55616" lon="6.73643">
        <ele>1320.4000244</ele>
        <time>2013-07-27T14:24:30Z</time>
      </trkpt>
      <trkpt lat="45.55621" lon="6.73637">
        <ele>1314.8000488</ele>
        <time>2013-07-27T14:24:40Z</time>
      </trkpt>
      <trkpt lat="45.55629" lon="6.7363">
        <ele>1311.8000488</ele>
        <time>2013-07-27T14:24:46Z</time>
      </trkpt>
      <trkpt lat="45.55637" lon="6.73625">
        <ele>1309.5999756</ele>
        <time>2013-07-27T14:24:51Z</time>
      </trkpt>
      <trkpt lat="45.55645" lon="6.73618">
        <ele>1307.5999756</ele>
        <time>2013-07-27T14:24:56Z</time>
      </trkpt>
      <trkpt lat="45.55652" lon="6.73609">
        <ele>1306.8000488</ele>
        <time>2013-07-27T14:25:02Z</time>
      </trkpt>
      <trkpt lat="45.5566" lon="6.73601">
        <ele>1306</ele>
        <time>2013-07-27T14:25:08Z</time>
      </trkpt>
      <trkpt lat="45.55666" lon="6.73596">
        <ele>1305.4000244</ele>
        <time>2013-07-27T14:25:13Z</time>
      </trkpt>
      <trkpt lat="45.55676" lon="6.73591">
        <ele>1305</ele>
        <time>2013-07-27T14:25:19Z</time>
      </trkpt>
      <trkpt lat="45.55685" lon="6.73588">
        <ele>1304.4000244</ele>
        <time>2013-07-27T14:25:24Z</time>
      </trkpt>
      <trkpt lat="45.55693" lon="6.73586">
        <ele>1303.8000488</ele>
        <time>2013-07-27T14:25:30Z</time>
      </trkpt>
      <trkpt lat="45.55701" lon="6.73574">
        <ele>1303</ele>
        <time>2013-07-27T14:25:37Z</time>
      </trkpt>
      <trkpt lat="45.55709" lon="6.73562">
        <ele>1301.1999512</ele>
        <time>2013-07-27T14:25:43Z</time>
      </trkpt>
      <trkpt lat="45.55717" lon="6.73555">
        <ele>1300</ele>
        <time>2013-07-27T14:25:48Z</time>
      </trkpt>
      <trkpt lat="45.55724" lon="6.73552">
        <ele>1300.1999512</ele>
        <time>2013-07-27T14:25:53Z</time>
      </trkpt>
      <trkpt lat="45.55735" lon="6.73545">
        <ele>1300.5999756</ele>
        <time>2013-07-27T14:26:01Z</time>
      </trkpt>
      <trkpt lat="45.55743" lon="6.73541">
        <ele>1299.4000244</ele>
        <time>2013-07-27T14:26:07Z</time>
      </trkpt>
      <trkpt lat="45.55748" lon="6.73535">
        <ele>1298.4000244</ele>
        <time>2013-07-27T14:26:11Z</time>
      </trkpt>
      <trkpt lat="45.55756" lon="6.73524">
        <ele>1297.8000488</ele>
        <time>2013-07-27T14:26:17Z</time>
      </trkpt>
      <trkpt lat="45.55766" lon="6.73515">
        <ele>1296.5999756</ele>
        <time>2013-07-27T14:26:23Z</time>
      </trkpt>
      <trkpt lat="45.5578" lon="6.73505">
        <ele>1293.1999512</ele>
        <time>2013-07-27T14:26:28Z</time>
      </trkpt>
      <trkpt lat="45.5579" lon="6.73497">
        <ele>1288.1999512</ele>
        <time>2013-07-27T14:26:33Z</time>
      </trkpt>
      <trkpt lat="45.55799" lon="6.73489">
        <ele>1284.1999512</ele>
        <time>2013-07-27T14:26:38Z</time>
      </trkpt>
      <trkpt lat="45.55809" lon="6.73481">
        <ele>1280.4000244</ele>
        <time>2013-07-27T14:26:44Z</time>
      </trkpt>
      <trkpt lat="45.55817" lon="6.73484">
        <ele>1276.8000488</ele>
        <time>2013-07-27T14:26:49Z</time>
      </trkpt>
      <trkpt lat="45.55826" lon="6.73479">
        <ele>1272</ele>
        <time>2013-07-27T14:26:55Z</time>
      </trkpt>
      <trkpt lat="45.55836" lon="6.73474">
        <ele>1267</ele>
        <time>2013-07-27T14:27:02Z</time>
      </trkpt>
      <trkpt lat="45.55846" lon="6.73477">
        <ele>1265.1999512</ele>
        <time>2013-07-27T14:27:08Z</time>
      </trkpt>
      <trkpt lat="45.55853" lon="6.7347">
        <ele>1260.8000488</ele>
        <time>2013-07-27T14:27:15Z</time>
      </trkpt>
      <trkpt lat="45.55851" lon="6.73462">
        <ele>1257.4000244</ele>
        <time>2013-07-27T14:27:20Z</time>
      </trkpt>
      <trkpt lat="45.55859" lon="6.73457">
        <ele>1255.1999512</ele>
        <time>2013-07-27T14:27:26Z</time>
      </trkpt>
      <trkpt lat="45.55865" lon="6.73464">
        <ele>1252.5999756</ele>
        <time>2013-07-27T14:27:33Z</time>
      </trkpt>
      <trkpt lat="45.55871" lon="6.73473">
        <ele>1250.4000244</ele>
        <time>2013-07-27T14:27:38Z</time>
      </trkpt>
      <trkpt lat="45.55875" lon="6.73482">
        <ele>1247.5999756</ele>
        <time>2013-07-27T14:27:43Z</time>
      </trkpt>
      <trkpt lat="45.5588" lon="6.73491">
        <ele>1244.5999756</ele>
        <time>2013-07-27T14:27:48Z</time>
      </trkpt>
      <trkpt lat="45.55886" lon="6.735">
        <ele>1242</ele>
        <time>2013-07-27T14:27:53Z</time>
      </trkpt>
      <trkpt lat="45.55895" lon="6.73509">
        <ele>1239.4000244</ele>
        <time>2013-07-27T14:27:59Z</time>
      </trkpt>
      <trkpt lat="45.55904" lon="6.73514">
        <ele>1237</ele>
        <time>2013-07-27T14:28:04Z</time>
      </trkpt>
      <trkpt lat="45.55913" lon="6.73523">
        <ele>1235.8000488</ele>
        <time>2013-07-27T14:28:10Z</time>
      </trkpt>
      <trkpt lat="45.55921" lon="6.7353">
        <ele>1234.4000244</ele>
        <time>2013-07-27T14:28:16Z</time>
      </trkpt>
      <trkpt lat="45.55928" lon="6.73536">
        <ele>1231.8000488</ele>
        <time>2013-07-27T14:28:21Z</time>
      </trkpt>
      <trkpt lat="45.55935" lon="6.73539">
        <ele>1230.1999512</ele>
        <time>2013-07-27T14:28:26Z</time>
      </trkpt>
      <trkpt lat="45.55942" lon="6.73547">
        <ele>1229.5999756</ele>
        <time>2013-07-27T14:28:31Z</time>
      </trkpt>
      <trkpt lat="45.55949" lon="6.7355">
        <ele>1229</ele>
        <time>2013-07-27T14:28:35Z</time>
      </trkpt>
      <trkpt lat="45.5596" lon="6.73554">
        <ele>1228.4000244</ele>
        <time>2013-07-27T14:28:41Z</time>
      </trkpt>
      <trkpt lat="45.55966" lon="6.7356">
        <ele>1226</ele>
        <time>2013-07-27T14:28:46Z</time>
      </trkpt>
      <trkpt lat="45.55967" lon="6.73573">
        <ele>1223.5999756</ele>
        <time>2013-07-27T14:29:10Z</time>
      </trkpt>
      <trkpt lat="45.55978" lon="6.73578">
        <ele>1223.4000244</ele>
        <time>2013-07-27T14:29:16Z</time>
      </trkpt>
      <trkpt lat="45.55986" lon="6.73586">
        <ele>1223</ele>
        <time>2013-07-27T14:29:21Z</time>
      </trkpt>
      <trkpt lat="45.55994" lon="6.73593">
        <ele>1222.5999756</ele>
        <time>2013-07-27T14:29:26Z</time>
      </trkpt>
      <trkpt lat="45.56" lon="6.73611">
        <ele>1222.5999756</ele>
        <time>2013-07-27T14:29:33Z</time>
      </trkpt>
      <trkpt lat="45.56009" lon="6.73611">
        <ele>1225</ele>
        <time>2013-07-27T14:29:40Z</time>
      </trkpt>
      <trkpt lat="45.56019" lon="6.73613">
        <ele>1228</ele>
        <time>2013-07-27T14:29:45Z</time>
      </trkpt>
      <trkpt lat="45.56028" lon="6.73611">
        <ele>1229.5999756</ele>
        <time>2013-07-27T14:29:50Z</time>
      </trkpt>
      <trkpt lat="45.56031" lon="6.73604">
        <ele>1229.5999756</ele>
        <time>2013-07-27T14:29:59Z</time>
      </trkpt>
      <trkpt lat="45.5603" lon="6.73595">
        <ele>1228.4000244</ele>
        <time>2013-07-27T14:30:09Z</time>
      </trkpt>
      <trkpt lat="45.56023" lon="6.73589">
        <ele>1222.8000488</ele>
        <time>2013-07-27T14:30:17Z</time>
      </trkpt>
      <trkpt lat="45.56017" lon="6.73583">
        <ele>1218</ele>
        <time>2013-07-27T14:30:26Z</time>
      </trkpt>
      <trkpt lat="45.56016" lon="6.7358">
        <ele>1219.1999512</ele>
        <time>2013-07-27T14:32:04Z</time>
      </trkpt>
      <trkpt lat="45.56014" lon="6.7357">
        <ele>1214.4000244</ele>
        <time>2013-07-27T14:32:11Z</time>
      </trkpt>
      <trkpt lat="45.56014" lon="6.73558">
        <ele>1211.4000244</ele>
        <time>2013-07-27T14:32:17Z</time>
      </trkpt>
      <trkpt lat="45.56011" lon="6.7355">
        <ele>1210.1999512</ele>
        <time>2013-07-27T14:32:21Z</time>
      </trkpt>
      <trkpt lat="45.56009" lon="6.73538">
        <ele>1208.1999512</ele>
        <time>2013-07-27T14:32:28Z</time>
      </trkpt>
      <trkpt lat="45.56007" lon="6.73528">
        <ele>1206.4000244</ele>
        <time>2013-07-27T14:32:33Z</time>
      </trkpt>
      <trkpt lat="45.56008" lon="6.73516">
        <ele>1207.4000244</ele>
        <time>2013-07-27T14:32:39Z</time>
      </trkpt>
      <trkpt lat="45.5601" lon="6.73505">
        <ele>1210.1999512</ele>
        <time>2013-07-27T14:32:44Z</time>
      </trkpt>
      <trkpt lat="45.56012" lon="6.73495">
        <ele>1213.5999756</ele>
        <time>2013-07-27T14:32:52Z</time>
      </trkpt>
      <trkpt lat="45.56014" lon="6.73484">
        <ele>1215.5999756</ele>
        <time>2013-07-27T14:33:00Z</time>
      </trkpt>
      <trkpt lat="45.56015" lon="6.73475">
        <ele>1216.1999512</ele>
        <time>2013-07-27T14:33:02Z</time>
      </trkpt>
      <trkpt lat="45.56013" lon="6.73457">
        <ele>1216.1999512</ele>
        <time>2013-07-27T14:33:06Z</time>
      </trkpt>
      <trkpt lat="45.56015" lon="6.73446">
        <ele>1215.5999756</ele>
        <time>2013-07-27T14:33:09Z</time>
      </trkpt>
      <trkpt lat="45.56018" lon="6.73435">
        <ele>1212.8000488</ele>
        <time>2013-07-27T14:33:14Z</time>
      </trkpt>
      <trkpt lat="45.5602" lon="6.73426">
        <ele>1208.5999756</ele>
        <time>2013-07-27T14:33:21Z</time>
      </trkpt>
      <trkpt lat="45.56022" lon="6.73416">
        <ele>1208.5999756</ele>
        <time>2013-07-27T14:33:27Z</time>
      </trkpt>
      <trkpt lat="45.56024" lon="6.73407">
        <ele>1208</ele>
        <time>2013-07-27T14:33:32Z</time>
      </trkpt>
      <trkpt lat="45.56023" lon="6.73397">
        <ele>1207.5999756</ele>
        <time>2013-07-27T14:33:37Z</time>
      </trkpt>
      <trkpt lat="45.5602" lon="6.73388">
        <ele>1207.4000244</ele>
        <time>2013-07-27T14:33:42Z</time>
      </trkpt>
      <trkpt lat="45.56017" lon="6.73377">
        <ele>1207.4000244</ele>
        <time>2013-07-27T14:33:48Z</time>
      </trkpt>
      <trkpt lat="45.56015" lon="6.73367">
        <ele>1206.5999756</ele>
        <time>2013-07-27T14:33:53Z</time>
      </trkpt>
      <trkpt lat="45.56013" lon="6.73355">
        <ele>1206</ele>
        <time>2013-07-27T14:33:58Z</time>
      </trkpt>
      <trkpt lat="45.56012" lon="6.73344">
        <ele>1205.4000244</ele>
        <time>2013-07-27T14:34:03Z</time>
      </trkpt>
      <trkpt lat="45.56009" lon="6.73334">
        <ele>1203.8000488</ele>
        <time>2013-07-27T14:34:08Z</time>
      </trkpt>
      <trkpt lat="45.56006" lon="6.73323">
        <ele>1202.1999512</ele>
        <time>2013-07-27T14:34:13Z</time>
      </trkpt>
      <trkpt lat="45.56004" lon="6.73311">
        <ele>1202.4000244</ele>
        <time>2013-07-27T14:34:19Z</time>
      </trkpt>
      <trkpt lat="45.56" lon="6.73299">
        <ele>1202.4000244</ele>
        <time>2013-07-27T14:34:26Z</time>
      </trkpt>
      <trkpt lat="45.55999" lon="6.73289">
        <ele>1201.4000244</ele>
        <time>2013-07-27T14:34:32Z</time>
      </trkpt>
      <trkpt lat="45.55999" lon="6.73274">
        <ele>1199</ele>
        <time>2013-07-27T14:34:39Z</time>
      </trkpt>
      <trkpt lat="45.55997" lon="6.7326">
        <ele>1198.5999756</ele>
        <time>2013-07-27T14:34:44Z</time>
      </trkpt>
      <trkpt lat="45.55995" lon="6.73245">
        <ele>1199</ele>
        <time>2013-07-27T14:34:49Z</time>
      </trkpt>
      <trkpt lat="45.55993" lon="6.73234">
        <ele>1199.8000488</ele>
        <time>2013-07-27T14:34:54Z</time>
      </trkpt>
      <trkpt lat="45.55991" lon="6.73221">
        <ele>1200.5999756</ele>
        <time>2013-07-27T14:34:59Z</time>
      </trkpt>
      <trkpt lat="45.55991" lon="6.7321">
        <ele>1201.4000244</ele>
        <time>2013-07-27T14:35:03Z</time>
      </trkpt>
      <trkpt lat="45.55985" lon="6.73198">
        <ele>1201.5999756</ele>
        <time>2013-07-27T14:35:09Z</time>
      </trkpt>
      <trkpt lat="45.5598" lon="6.73183">
        <ele>1202</ele>
        <time>2013-07-27T14:35:16Z</time>
      </trkpt>
      <trkpt lat="45.55979" lon="6.73172">
        <ele>1202.5999756</ele>
        <time>2013-07-27T14:35:20Z</time>
      </trkpt>
      <trkpt lat="45.55977" lon="6.73164">
        <ele>1202.8000488</ele>
        <time>2013-07-27T14:35:23Z</time>
      </trkpt>
      <trkpt lat="45.55972" lon="6.7314">
        <ele>1202.4000244</ele>
        <time>2013-07-27T14:35:30Z</time>
      </trkpt>
      <trkpt lat="45.55969" lon="6.7313">
        <ele>1201.8000488</ele>
        <time>2013-07-27T14:35:33Z</time>
      </trkpt>
      <trkpt lat="45.55965" lon="6.7312">
        <ele>1200.5999756</ele>
        <time>2013-07-27T14:35:37Z</time>
      </trkpt>
      <trkpt lat="45.55961" lon="6.73111">
        <ele>1200</ele>
        <time>2013-07-27T14:35:40Z</time>
      </trkpt>
      <trkpt lat="45.55956" lon="6.73097">
        <ele>1199</ele>
        <time>2013-07-27T14:35:45Z</time>
      </trkpt>
      <trkpt lat="45.55955" lon="6.73088">
        <ele>1198.4000244</ele>
        <time>2013-07-27T14:35:48Z</time>
      </trkpt>
      <trkpt lat="45.55953" lon="6.73072">
        <ele>1196</ele>
        <time>2013-07-27T14:35:53Z</time>
      </trkpt>
      <trkpt lat="45.55953" lon="6.73057">
        <ele>1194</ele>
        <time>2013-07-27T14:35:58Z</time>
      </trkpt>
      <trkpt lat="45.55954" lon="6.73042">
        <ele>1192.4000244</ele>
        <time>2013-07-27T14:36:03Z</time>
      </trkpt>
      <trkpt lat="45.55954" lon="6.73032">
        <ele>1192.1999512</ele>
        <time>2013-07-27T14:36:06Z</time>
      </trkpt>
      <trkpt lat="45.55956" lon="6.73017">
        <ele>1192</ele>
        <time>2013-07-27T14:36:11Z</time>
      </trkpt>
      <trkpt lat="45.55956" lon="6.73004">
        <ele>1191.8000488</ele>
        <time>2013-07-27T14:36:16Z</time>
      </trkpt>
      <trkpt lat="45.55959" lon="6.72986">
        <ele>1191.4000244</ele>
        <time>2013-07-27T14:36:22Z</time>
      </trkpt>
      <trkpt lat="45.55961" lon="6.72972">
        <ele>1190.1999512</ele>
        <time>2013-07-27T14:36:27Z</time>
      </trkpt>
      <trkpt lat="45.55962" lon="6.72963">
        <ele>1189.5999756</ele>
        <time>2013-07-27T14:36:30Z</time>
      </trkpt>
      <trkpt lat="45.5596" lon="6.72947">
        <ele>1188.8000488</ele>
        <time>2013-07-27T14:36:36Z</time>
      </trkpt>
      <trkpt lat="45.55957" lon="6.72935">
        <ele>1189</ele>
        <time>2013-07-27T14:36:41Z</time>
      </trkpt>
      <trkpt lat="45.55952" lon="6.72924">
        <ele>1189.8000488</ele>
        <time>2013-07-27T14:36:47Z</time>
      </trkpt>
      <trkpt lat="45.55949" lon="6.72912">
        <ele>1191</ele>
        <time>2013-07-27T14:36:55Z</time>
      </trkpt>
      <trkpt lat="45.55944" lon="6.72898">
        <ele>1191.8000488</ele>
        <time>2013-07-27T14:37:04Z</time>
      </trkpt>
      <trkpt lat="45.55942" lon="6.72886">
        <ele>1192.8000488</ele>
        <time>2013-07-27T14:37:10Z</time>
      </trkpt>
      <trkpt lat="45.55939" lon="6.72876">
        <ele>1193.4000244</ele>
        <time>2013-07-27T14:37:16Z</time>
      </trkpt>
      <trkpt lat="45.55939" lon="6.72863">
        <ele>1191.5999756</ele>
        <time>2013-07-27T14:37:22Z</time>
      </trkpt>
      <trkpt lat="45.55936" lon="6.72854">
        <ele>1188.1999512</ele>
        <time>2013-07-27T14:37:27Z</time>
      </trkpt>
      <trkpt lat="45.55933" lon="6.72845">
        <ele>1185</ele>
        <time>2013-07-27T14:37:32Z</time>
      </trkpt>
      <trkpt lat="45.55933" lon="6.72834">
        <ele>1182.1999512</ele>
        <time>2013-07-27T14:37:36Z</time>
      </trkpt>
      <trkpt lat="45.55933" lon="6.7282">
        <ele>1179.1999512</ele>
        <time>2013-07-27T14:37:41Z</time>
      </trkpt>
      <trkpt lat="45.55932" lon="6.72811">
        <ele>1178.1999512</ele>
        <time>2013-07-27T14:37:44Z</time>
      </trkpt>
      <trkpt lat="45.55931" lon="6.72801">
        <ele>1177.5999756</ele>
        <time>2013-07-27T14:37:47Z</time>
      </trkpt>
      <trkpt lat="45.55928" lon="6.7279">
        <ele>1176.5999756</ele>
        <time>2013-07-27T14:37:51Z</time>
      </trkpt>
      <trkpt lat="45.55925" lon="6.72774">
        <ele>1176</ele>
        <time>2013-07-27T14:37:57Z</time>
      </trkpt>
      <trkpt lat="45.55922" lon="6.72764">
        <ele>1175</ele>
        <time>2013-07-27T14:38:03Z</time>
      </trkpt>
      <trkpt lat="45.55915" lon="6.72734">
        <ele>1174.8000488</ele>
        <time>2013-07-27T14:38:19Z</time>
      </trkpt>
      <trkpt lat="45.55912" lon="6.72725">
        <ele>1175.8000488</ele>
        <time>2013-07-27T14:38:24Z</time>
      </trkpt>
      <trkpt lat="45.55907" lon="6.72715">
        <ele>1176.8000488</ele>
        <time>2013-07-27T14:38:30Z</time>
      </trkpt>
      <trkpt lat="45.55902" lon="6.72707">
        <ele>1178</ele>
        <time>2013-07-27T14:38:36Z</time>
      </trkpt>
      <trkpt lat="45.55896" lon="6.72684">
        <ele>1178.4000244</ele>
        <time>2013-07-27T14:38:48Z</time>
      </trkpt>
      <trkpt lat="45.55891" lon="6.72675">
        <ele>1178.5999756</ele>
        <time>2013-07-27T14:38:55Z</time>
      </trkpt>
      <trkpt lat="45.55889" lon="6.72663">
        <ele>1178.5999756</ele>
        <time>2013-07-27T14:39:01Z</time>
      </trkpt>
      <trkpt lat="45.55885" lon="6.72654">
        <ele>1177.4000244</ele>
        <time>2013-07-27T14:39:07Z</time>
      </trkpt>
      <trkpt lat="45.55883" lon="6.72646">
        <ele>1176.5999756</ele>
        <time>2013-07-27T14:39:12Z</time>
      </trkpt>
      <trkpt lat="45.55878" lon="6.7264">
        <ele>1175.8000488</ele>
        <time>2013-07-27T14:39:17Z</time>
      </trkpt>
      <trkpt lat="45.55876" lon="6.72629">
        <ele>1176.1999512</ele>
        <time>2013-07-27T14:39:22Z</time>
      </trkpt>
      <trkpt lat="45.55875" lon="6.72616">
        <ele>1177.8000488</ele>
        <time>2013-07-27T14:39:28Z</time>
      </trkpt>
      <trkpt lat="45.55872" lon="6.72607">
        <ele>1179.5999756</ele>
        <time>2013-07-27T14:39:33Z</time>
      </trkpt>
      <trkpt lat="45.55871" lon="6.72594">
        <ele>1179.4000244</ele>
        <time>2013-07-27T14:39:41Z</time>
      </trkpt>
      <trkpt lat="45.55868" lon="6.72583">
        <ele>1177</ele>
        <time>2013-07-27T14:39:47Z</time>
      </trkpt>
      <trkpt lat="45.55868" lon="6.72572">
        <ele>1173.8000488</ele>
        <time>2013-07-27T14:39:52Z</time>
      </trkpt>
      <trkpt lat="45.55866" lon="6.72556">
        <ele>1172</ele>
        <time>2013-07-27T14:39:58Z</time>
      </trkpt>
      <trkpt lat="45.55862" lon="6.72548">
        <ele>1171.5999756</ele>
        <time>2013-07-27T14:40:02Z</time>
      </trkpt>
      <trkpt lat="45.55861" lon="6.72538">
        <ele>1172.1999512</ele>
        <time>2013-07-27T14:40:06Z</time>
      </trkpt>
      <trkpt lat="45.5586" lon="6.72528">
        <ele>1173.1999512</ele>
        <time>2013-07-27T14:40:11Z</time>
      </trkpt>
      <trkpt lat="45.55855" lon="6.72521">
        <ele>1174.1999512</ele>
        <time>2013-07-27T14:40:16Z</time>
      </trkpt>
      <trkpt lat="45.55851" lon="6.72511">
        <ele>1174</ele>
        <time>2013-07-27T14:40:21Z</time>
      </trkpt>
      <trkpt lat="45.55847" lon="6.72499">
        <ele>1173.5999756</ele>
        <time>2013-07-27T14:40:27Z</time>
      </trkpt>
      <trkpt lat="45.55843" lon="6.7249">
        <ele>1173.8000488</ele>
        <time>2013-07-27T14:40:32Z</time>
      </trkpt>
      <trkpt lat="45.55836" lon="6.72478">
        <ele>1173.4000244</ele>
        <time>2013-07-27T14:40:39Z</time>
      </trkpt>
      <trkpt lat="45.55834" lon="6.7247">
        <ele>1172.1999512</ele>
        <time>2013-07-27T14:40:44Z</time>
      </trkpt>
      <trkpt lat="45.55832" lon="6.72461">
        <ele>1171.4000244</ele>
        <time>2013-07-27T14:40:49Z</time>
      </trkpt>
      <trkpt lat="45.55827" lon="6.72449">
        <ele>1171.4000244</ele>
        <time>2013-07-27T14:40:56Z</time>
      </trkpt>
      <trkpt lat="45.55824" lon="6.7244">
        <ele>1171.5999756</ele>
        <time>2013-07-27T14:41:04Z</time>
      </trkpt>
      <trkpt lat="45.5582" lon="6.72427">
        <ele>1173.4000244</ele>
        <time>2013-07-27T14:41:12Z</time>
      </trkpt>
      <trkpt lat="45.55816" lon="6.72416">
        <ele>1175.1999512</ele>
        <time>2013-07-27T14:41:19Z</time>
      </trkpt>
      <trkpt lat="45.55812" lon="6.72408">
        <ele>1175.8000488</ele>
        <time>2013-07-27T14:41:25Z</time>
      </trkpt>
      <trkpt lat="45.55809" lon="6.72398">
        <ele>1176.4000244</ele>
        <time>2013-07-27T14:41:31Z</time>
      </trkpt>
      <trkpt lat="45.55806" lon="6.72386">
        <ele>1176.4000244</ele>
        <time>2013-07-27T14:41:37Z</time>
      </trkpt>
      <trkpt lat="45.558" lon="6.72376">
        <ele>1176.5999756</ele>
        <time>2013-07-27T14:41:45Z</time>
      </trkpt>
      <trkpt lat="45.55801" lon="6.72367">
        <ele>1180.8000488</ele>
        <time>2013-07-27T14:41:53Z</time>
      </trkpt>
      <trkpt lat="45.55798" lon="6.72358">
        <ele>1186</ele>
        <time>2013-07-27T14:42:01Z</time>
      </trkpt>
      <trkpt lat="45.55795" lon="6.72351">
        <ele>1186.8000488</ele>
        <time>2013-07-27T14:42:07Z</time>
      </trkpt>
      <trkpt lat="45.55791" lon="6.7234">
        <ele>1188.8000488</ele>
        <time>2013-07-27T14:42:15Z</time>
      </trkpt>
      <trkpt lat="45.55788" lon="6.72332">
        <ele>1189</ele>
        <time>2013-07-27T14:42:20Z</time>
      </trkpt>
      <trkpt lat="45.55783" lon="6.72325">
        <ele>1183.8000488</ele>
        <time>2013-07-27T14:42:27Z</time>
      </trkpt>
      <trkpt lat="45.55775" lon="6.72321">
        <ele>1180.8000488</ele>
        <time>2013-07-27T14:42:32Z</time>
      </trkpt>
      <trkpt lat="45.55767" lon="6.72318">
        <ele>1180.1999512</ele>
        <time>2013-07-27T14:42:38Z</time>
      </trkpt>
      <trkpt lat="45.5576" lon="6.72313">
        <ele>1181</ele>
        <time>2013-07-27T14:42:45Z</time>
      </trkpt>
      <trkpt lat="45.55754" lon="6.72304">
        <ele>1182</ele>
        <time>2013-07-27T14:42:55Z</time>
      </trkpt>
      <trkpt lat="45.5575" lon="6.72299">
        <ele>1183.8000488</ele>
        <time>2013-07-27T14:43:06Z</time>
      </trkpt>
      <trkpt lat="45.55745" lon="6.72292">
        <ele>1185.1999512</ele>
        <time>2013-07-27T14:43:17Z</time>
      </trkpt>
      <trkpt lat="45.5574" lon="6.72287">
        <ele>1187.8000488</ele>
        <time>2013-07-27T14:43:25Z</time>
      </trkpt>
      <trkpt lat="45.55735" lon="6.7228">
        <ele>1189</ele>
        <time>2013-07-27T14:43:34Z</time>
      </trkpt>
      <trkpt lat="45.5573" lon="6.72274">
        <ele>1189</ele>
        <time>2013-07-27T14:43:41Z</time>
      </trkpt>
      <trkpt lat="45.55724" lon="6.72259">
        <ele>1189</ele>
        <time>2013-07-27T14:43:51Z</time>
      </trkpt>
      <trkpt lat="45.55721" lon="6.72245">
        <ele>1189.8000488</ele>
        <time>2013-07-27T14:43:59Z</time>
      </trkpt>
      <trkpt lat="45.55717" lon="6.72233">
        <ele>1195.5999756</ele>
        <time>2013-07-27T14:44:06Z</time>
      </trkpt>
      <trkpt lat="45.55714" lon="6.72225">
        <ele>1199.4000244</ele>
        <time>2013-07-27T14:44:12Z</time>
      </trkpt>
      <trkpt lat="45.55709" lon="6.72218">
        <ele>1200.1999512</ele>
        <time>2013-07-27T14:44:19Z</time>
      </trkpt>
      <trkpt lat="45.55704" lon="6.72211">
        <ele>1198.8000488</ele>
        <time>2013-07-27T14:44:24Z</time>
      </trkpt>
      <trkpt lat="45.55702" lon="6.72202">
        <ele>1197.5999756</ele>
        <time>2013-07-27T14:44:29Z</time>
      </trkpt>
      <trkpt lat="45.55699" lon="6.72195">
        <ele>1196.1999512</ele>
        <time>2013-07-27T14:44:34Z</time>
      </trkpt>
      <trkpt lat="45.55693" lon="6.72187">
        <ele>1195</ele>
        <time>2013-07-27T14:44:42Z</time>
      </trkpt>
      <trkpt lat="45.55689" lon="6.72179">
        <ele>1195.4000244</ele>
        <time>2013-07-27T14:44:50Z</time>
      </trkpt>
      <trkpt lat="45.55687" lon="6.7217">
        <ele>1196.4000244</ele>
        <time>2013-07-27T14:44:57Z</time>
      </trkpt>
      <trkpt lat="45.55682" lon="6.72158">
        <ele>1198</ele>
        <time>2013-07-27T14:45:07Z</time>
      </trkpt>
      <trkpt lat="45.55675" lon="6.72152">
        <ele>1198.8000488</ele>
        <time>2013-07-27T14:45:11Z</time>
      </trkpt>
      <trkpt lat="45.55668" lon="6.72145">
        <ele>1197.5999756</ele>
        <time>2013-07-27T14:45:16Z</time>
      </trkpt>
      <trkpt lat="45.5566" lon="6.72139">
        <ele>1198</ele>
        <time>2013-07-27T14:45:24Z</time>
      </trkpt>
      <trkpt lat="45.55654" lon="6.7214">
        <ele>1200</ele>
        <time>2013-07-27T14:45:32Z</time>
      </trkpt>
      <trkpt lat="45.55645" lon="6.72139">
        <ele>1200.8000488</ele>
        <time>2013-07-27T14:45:45Z</time>
      </trkpt>
      <trkpt lat="45.55636" lon="6.72138">
        <ele>1202.1999512</ele>
        <time>2013-07-27T14:45:54Z</time>
      </trkpt>
      <trkpt lat="45.5563" lon="6.72136">
        <ele>1205.5999756</ele>
        <time>2013-07-27T14:46:05Z</time>
      </trkpt>
      <trkpt lat="45.55626" lon="6.72125">
        <ele>1209.8000488</ele>
        <time>2013-07-27T14:46:17Z</time>
      </trkpt>
      <trkpt lat="45.55623" lon="6.72116">
        <ele>1209.1999512</ele>
        <time>2013-07-27T14:46:22Z</time>
      </trkpt>
      <trkpt lat="45.55619" lon="6.72109">
        <ele>1208</ele>
        <time>2013-07-27T14:46:27Z</time>
      </trkpt>
      <trkpt lat="45.55615" lon="6.72099">
        <ele>1206.8000488</ele>
        <time>2013-07-27T14:46:32Z</time>
      </trkpt>
      <trkpt lat="45.55607" lon="6.72091">
        <ele>1205.4000244</ele>
        <time>2013-07-27T14:46:38Z</time>
      </trkpt>
      <trkpt lat="45.55602" lon="6.72081">
        <ele>1203.5999756</ele>
        <time>2013-07-27T14:46:44Z</time>
      </trkpt>
      <trkpt lat="45.55598" lon="6.7207">
        <ele>1201.4000244</ele>
        <time>2013-07-27T14:46:51Z</time>
      </trkpt>
      <trkpt lat="45.55597" lon="6.72062">
        <ele>1202.4000244</ele>
        <time>2013-07-27T14:46:56Z</time>
      </trkpt>
      <trkpt lat="45.55599" lon="6.72051">
        <ele>1204.1999512</ele>
        <time>2013-07-27T14:47:03Z</time>
      </trkpt>
      <trkpt lat="45.55599" lon="6.72041">
        <ele>1204.4000244</ele>
        <time>2013-07-27T14:47:09Z</time>
      </trkpt>
      <trkpt lat="45.55597" lon="6.72031">
        <ele>1203.4000244</ele>
        <time>2013-07-27T14:47:15Z</time>
      </trkpt>
      <trkpt lat="45.556" lon="6.72023">
        <ele>1202.5999756</ele>
        <time>2013-07-27T14:47:19Z</time>
      </trkpt>
      <trkpt lat="45.55602" lon="6.72009">
        <ele>1203.4000244</ele>
        <time>2013-07-27T14:47:25Z</time>
      </trkpt>
      <trkpt lat="45.55604" lon="6.72">
        <ele>1205.4000244</ele>
        <time>2013-07-27T14:47:30Z</time>
      </trkpt>
      <trkpt lat="45.55603" lon="6.71987">
        <ele>1208.4000244</ele>
        <time>2013-07-27T14:47:37Z</time>
      </trkpt>
      <trkpt lat="45.55602" lon="6.71974">
        <ele>1209.1999512</ele>
        <time>2013-07-27T14:47:45Z</time>
      </trkpt>
      <trkpt lat="45.5561" lon="6.71977">
        <ele>1206.4000244</ele>
        <time>2013-07-27T14:47:55Z</time>
      </trkpt>
      <trkpt lat="45.5561" lon="6.71966">
        <ele>1204</ele>
        <time>2013-07-27T14:48:03Z</time>
      </trkpt>
      <trkpt lat="45.55611" lon="6.71952">
        <ele>1202</ele>
        <time>2013-07-27T14:48:11Z</time>
      </trkpt>
      <trkpt lat="45.55611" lon="6.71942">
        <ele>1199.8000488</ele>
        <time>2013-07-27T14:48:16Z</time>
      </trkpt>
      <trkpt lat="45.5561" lon="6.71932">
        <ele>1197.8000488</ele>
        <time>2013-07-27T14:48:21Z</time>
      </trkpt>
      <trkpt lat="45.5561" lon="6.71921">
        <ele>1196.4000244</ele>
        <time>2013-07-27T14:48:26Z</time>
      </trkpt>
      <trkpt lat="45.55606" lon="6.71909">
        <ele>1197.8000488</ele>
        <time>2013-07-27T14:48:34Z</time>
      </trkpt>
      <trkpt lat="45.55605" lon="6.719">
        <ele>1200.4000244</ele>
        <time>2013-07-27T14:48:39Z</time>
      </trkpt>
      <trkpt lat="45.55608" lon="6.71891">
        <ele>1202.4000244</ele>
        <time>2013-07-27T14:48:45Z</time>
      </trkpt>
      <trkpt lat="45.55613" lon="6.71884">
        <ele>1203.5999756</ele>
        <time>2013-07-27T14:48:50Z</time>
      </trkpt>
      <trkpt lat="45.55618" lon="6.71876">
        <ele>1204.1999512</ele>
        <time>2013-07-27T14:48:55Z</time>
      </trkpt>
      <trkpt lat="45.55619" lon="6.71866">
        <ele>1203.8000488</ele>
        <time>2013-07-27T14:49:00Z</time>
      </trkpt>
      <trkpt lat="45.55619" lon="6.71854">
        <ele>1203.5999756</ele>
        <time>2013-07-27T14:49:05Z</time>
      </trkpt>
      <trkpt lat="45.55619" lon="6.71843">
        <ele>1204</ele>
        <time>2013-07-27T14:49:10Z</time>
      </trkpt>
      <trkpt lat="45.55622" lon="6.71833">
        <ele>1204.1999512</ele>
        <time>2013-07-27T14:49:15Z</time>
      </trkpt>
      <trkpt lat="45.55625" lon="6.71818">
        <ele>1203.5999756</ele>
        <time>2013-07-27T14:49:20Z</time>
      </trkpt>
      <trkpt lat="45.55626" lon="6.71807">
        <ele>1201.5999756</ele>
        <time>2013-07-27T14:49:24Z</time>
      </trkpt>
      <trkpt lat="45.55625" lon="6.71794">
        <ele>1200.5999756</ele>
        <time>2013-07-27T14:49:30Z</time>
      </trkpt>
      <trkpt lat="45.55631" lon="6.71792">
        <ele>1199.4000244</ele>
        <time>2013-07-27T14:49:34Z</time>
      </trkpt>
      <trkpt lat="45.55635" lon="6.71803">
        <ele>1194</ele>
        <time>2013-07-27T14:49:41Z</time>
      </trkpt>
      <trkpt lat="45.55645" lon="6.71803">
        <ele>1189.1999512</ele>
        <time>2013-07-27T14:49:47Z</time>
      </trkpt>
      <trkpt lat="45.55642" lon="6.71794">
        <ele>1187</ele>
        <time>2013-07-27T14:49:52Z</time>
      </trkpt>
      <trkpt lat="45.55642" lon="6.71784">
        <ele>1186.1999512</ele>
        <time>2013-07-27T14:49:57Z</time>
      </trkpt>
      <trkpt lat="45.55647" lon="6.71772">
        <ele>1186.5999756</ele>
        <time>2013-07-27T14:50:02Z</time>
      </trkpt>
      <trkpt lat="45.55648" lon="6.71763">
        <ele>1187.1999512</ele>
        <time>2013-07-27T14:50:07Z</time>
      </trkpt>
      <trkpt lat="45.5565" lon="6.71754">
        <ele>1187.1999512</ele>
        <time>2013-07-27T14:50:11Z</time>
      </trkpt>
      <trkpt lat="45.55649" lon="6.71742">
        <ele>1186.5999756</ele>
        <time>2013-07-27T14:50:16Z</time>
      </trkpt>
      <trkpt lat="45.5565" lon="6.71729">
        <ele>1185.8000488</ele>
        <time>2013-07-27T14:50:23Z</time>
      </trkpt>
      <trkpt lat="45.55648" lon="6.7172">
        <ele>1185.4000244</ele>
        <time>2013-07-27T14:50:28Z</time>
      </trkpt>
      <trkpt lat="45.55651" lon="6.71707">
        <ele>1184.4000244</ele>
        <time>2013-07-27T14:50:36Z</time>
      </trkpt>
      <trkpt lat="45.55656" lon="6.717">
        <ele>1185</ele>
        <time>2013-07-27T14:50:40Z</time>
      </trkpt>
      <trkpt lat="45.55661" lon="6.71684">
        <ele>1184.8000488</ele>
        <time>2013-07-27T14:50:46Z</time>
      </trkpt>
      <trkpt lat="45.55665" lon="6.71674">
        <ele>1182.1999512</ele>
        <time>2013-07-27T14:50:50Z</time>
      </trkpt>
      <trkpt lat="45.55671" lon="6.71666">
        <ele>1178.1999512</ele>
        <time>2013-07-27T14:50:55Z</time>
      </trkpt>
      <trkpt lat="45.55679" lon="6.71664">
        <ele>1177.4000244</ele>
        <time>2013-07-27T14:51:00Z</time>
      </trkpt>
      <trkpt lat="45.55687" lon="6.71659">
        <ele>1177.4000244</ele>
        <time>2013-07-27T14:51:05Z</time>
      </trkpt>
      <trkpt lat="45.55693" lon="6.71651">
        <ele>1175.5999756</ele>
        <time>2013-07-27T14:51:09Z</time>
      </trkpt>
      <trkpt lat="45.55695" lon="6.71642">
        <ele>1174.4000244</ele>
        <time>2013-07-27T14:51:12Z</time>
      </trkpt>
      <trkpt lat="45.55698" lon="6.71631">
        <ele>1173.1999512</ele>
        <time>2013-07-27T14:51:15Z</time>
      </trkpt>
      <trkpt lat="45.55698" lon="6.71619">
        <ele>1170.8000488</ele>
        <time>2013-07-27T14:51:19Z</time>
      </trkpt>
      <trkpt lat="45.55696" lon="6.7161">
        <ele>1168.8000488</ele>
        <time>2013-07-27T14:51:26Z</time>
      </trkpt>
      <trkpt lat="45.557" lon="6.71601">
        <ele>1169.1999512</ele>
        <time>2013-07-27T14:51:33Z</time>
      </trkpt>
      <trkpt lat="45.55707" lon="6.71595">
        <ele>1170</ele>
        <time>2013-07-27T14:51:42Z</time>
      </trkpt>
      <trkpt lat="45.55709" lon="6.71581">
        <ele>1170</ele>
        <time>2013-07-27T14:51:51Z</time>
      </trkpt>
      <trkpt lat="45.55714" lon="6.71572">
        <ele>1172</ele>
        <time>2013-07-27T14:51:58Z</time>
      </trkpt>
      <trkpt lat="45.55719" lon="6.71562">
        <ele>1172.8000488</ele>
        <time>2013-07-27T14:52:02Z</time>
      </trkpt>
      <trkpt lat="45.55722" lon="6.71553">
        <ele>1172.4000244</ele>
        <time>2013-07-27T14:52:05Z</time>
      </trkpt>
      <trkpt lat="45.55728" lon="6.71538">
        <ele>1171.4000244</ele>
        <time>2013-07-27T14:52:10Z</time>
      </trkpt>
      <trkpt lat="45.55732" lon="6.71525">
        <ele>1169.8000488</ele>
        <time>2013-07-27T14:52:15Z</time>
      </trkpt>
      <trkpt lat="45.55735" lon="6.71514">
        <ele>1167.5999756</ele>
        <time>2013-07-27T14:52:19Z</time>
      </trkpt>
      <trkpt lat="45.55733" lon="6.715">
        <ele>1163.4000244</ele>
        <time>2013-07-27T14:52:24Z</time>
      </trkpt>
      <trkpt lat="45.55731" lon="6.71489">
        <ele>1158.8000488</ele>
        <time>2013-07-27T14:52:29Z</time>
      </trkpt>
      <trkpt lat="45.55732" lon="6.71475">
        <ele>1155.5999756</ele>
        <time>2013-07-27T14:52:35Z</time>
      </trkpt>
      <trkpt lat="45.55732" lon="6.71465">
        <ele>1154.4000244</ele>
        <time>2013-07-27T14:52:39Z</time>
      </trkpt>
      <trkpt lat="45.55729" lon="6.71455">
        <ele>1153.4000244</ele>
        <time>2013-07-27T14:52:44Z</time>
      </trkpt>
      <trkpt lat="45.55737" lon="6.71453">
        <ele>1153</ele>
        <time>2013-07-27T14:52:50Z</time>
      </trkpt>
      <trkpt lat="45.55746" lon="6.71456">
        <ele>1152</ele>
        <time>2013-07-27T14:52:58Z</time>
      </trkpt>
      <trkpt lat="45.55753" lon="6.71466">
        <ele>1150.4000244</ele>
        <time>2013-07-27T14:53:04Z</time>
      </trkpt>
      <trkpt lat="45.55762" lon="6.71473">
        <ele>1147.5999756</ele>
        <time>2013-07-27T14:53:09Z</time>
      </trkpt>
      <trkpt lat="45.55766" lon="6.71489">
        <ele>1145</ele>
        <time>2013-07-27T14:53:15Z</time>
      </trkpt>
      <trkpt lat="45.55766" lon="6.71503">
        <ele>1142.5999756</ele>
        <time>2013-07-27T14:53:20Z</time>
      </trkpt>
      <trkpt lat="45.55768" lon="6.71516">
        <ele>1139</ele>
        <time>2013-07-27T14:53:25Z</time>
      </trkpt>
      <trkpt lat="45.55771" lon="6.71525">
        <ele>1134.8000488</ele>
        <time>2013-07-27T14:53:29Z</time>
      </trkpt>
      <trkpt lat="45.55768" lon="6.71537">
        <ele>1134.1999512</ele>
        <time>2013-07-27T14:53:34Z</time>
      </trkpt>
      <trkpt lat="45.55772" lon="6.71544">
        <ele>1135.5999756</ele>
        <time>2013-07-27T14:53:39Z</time>
      </trkpt>
      <trkpt lat="45.55774" lon="6.71533">
        <ele>1137</ele>
        <time>2013-07-27T14:53:44Z</time>
      </trkpt>
      <trkpt lat="45.55777" lon="6.71523">
        <ele>1138.5999756</ele>
        <time>2013-07-27T14:53:49Z</time>
      </trkpt>
      <trkpt lat="45.55777" lon="6.71513">
        <ele>1139</ele>
        <time>2013-07-27T14:53:54Z</time>
      </trkpt>
      <trkpt lat="45.55779" lon="6.715">
        <ele>1135.8000488</ele>
        <time>2013-07-27T14:54:02Z</time>
      </trkpt>
      <trkpt lat="45.55777" lon="6.71489">
        <ele>1131</ele>
        <time>2013-07-27T14:54:07Z</time>
      </trkpt>
      <trkpt lat="45.55775" lon="6.71475">
        <ele>1126.5999756</ele>
        <time>2013-07-27T14:54:13Z</time>
      </trkpt>
      <trkpt lat="45.55772" lon="6.71464">
        <ele>1124.5999756</ele>
        <time>2013-07-27T14:54:18Z</time>
      </trkpt>
      <trkpt lat="45.55771" lon="6.71454">
        <ele>1122</ele>
        <time>2013-07-27T14:54:24Z</time>
      </trkpt>
      <trkpt lat="45.5577" lon="6.71445">
        <ele>1118.4000244</ele>
        <time>2013-07-27T14:54:29Z</time>
      </trkpt>
      <trkpt lat="45.55768" lon="6.71436">
        <ele>1116</ele>
        <time>2013-07-27T14:54:33Z</time>
      </trkpt>
      <trkpt lat="45.55765" lon="6.71426">
        <ele>1116.1999512</ele>
        <time>2013-07-27T14:54:38Z</time>
      </trkpt>
      <trkpt lat="45.55758" lon="6.71416">
        <ele>1116.5999756</ele>
        <time>2013-07-27T14:54:43Z</time>
      </trkpt>
      <trkpt lat="45.55756" lon="6.71404">
        <ele>1116</ele>
        <time>2013-07-27T14:54:48Z</time>
      </trkpt>
      <trkpt lat="45.55751" lon="6.7139">
        <ele>1115</ele>
        <time>2013-07-27T14:54:55Z</time>
      </trkpt>
      <trkpt lat="45.55746" lon="6.71381">
        <ele>1114.5999756</ele>
        <time>2013-07-27T14:55:00Z</time>
      </trkpt>
      <trkpt lat="45.55741" lon="6.71371">
        <ele>1114</ele>
        <time>2013-07-27T14:55:06Z</time>
      </trkpt>
      <trkpt lat="45.55735" lon="6.71362">
        <ele>1113.4000244</ele>
        <time>2013-07-27T14:55:11Z</time>
      </trkpt>
      <trkpt lat="45.55728" lon="6.71353">
        <ele>1112.5999756</ele>
        <time>2013-07-27T14:55:16Z</time>
      </trkpt>
      <trkpt lat="45.55724" lon="6.71341">
        <ele>1111.5999756</ele>
        <time>2013-07-27T14:55:21Z</time>
      </trkpt>
      <trkpt lat="45.55721" lon="6.71333">
        <ele>1110.4000244</ele>
        <time>2013-07-27T14:55:25Z</time>
      </trkpt>
      <trkpt lat="45.55727" lon="6.71327">
        <ele>1108</ele>
        <time>2013-07-27T14:55:32Z</time>
      </trkpt>
      <trkpt lat="45.55733" lon="6.71325">
        <ele>1106.8000488</ele>
        <time>2013-07-27T14:55:38Z</time>
      </trkpt>
      <trkpt lat="45.55741" lon="6.71326">
        <ele>1105.4000244</ele>
        <time>2013-07-27T14:55:48Z</time>
      </trkpt>
      <trkpt lat="45.55748" lon="6.71331">
        <ele>1104.5999756</ele>
        <time>2013-07-27T14:55:53Z</time>
      </trkpt>
      <trkpt lat="45.55757" lon="6.71327">
        <ele>1104</ele>
        <time>2013-07-27T14:55:58Z</time>
      </trkpt>
      <trkpt lat="45.55763" lon="6.71328">
        <ele>1102.5999756</ele>
        <time>2013-07-27T14:56:02Z</time>
      </trkpt>
      <trkpt lat="45.55767" lon="6.71344">
        <ele>1100.1999512</ele>
        <time>2013-07-27T14:56:07Z</time>
      </trkpt>
      <trkpt lat="45.55775" lon="6.71353">
        <ele>1098.1999512</ele>
        <time>2013-07-27T14:56:13Z</time>
      </trkpt>
      <trkpt lat="45.55786" lon="6.71357">
        <ele>1095.8000488</ele>
        <time>2013-07-27T14:56:20Z</time>
      </trkpt>
      <trkpt lat="45.55793" lon="6.71366">
        <ele>1094</ele>
        <time>2013-07-27T14:56:25Z</time>
      </trkpt>
      <trkpt lat="45.558" lon="6.71375">
        <ele>1092.8000488</ele>
        <time>2013-07-27T14:56:30Z</time>
      </trkpt>
      <trkpt lat="45.55806" lon="6.7138">
        <ele>1091.5999756</ele>
        <time>2013-07-27T14:56:33Z</time>
      </trkpt>
      <trkpt lat="45.55811" lon="6.71388">
        <ele>1090.4000244</ele>
        <time>2013-07-27T14:56:36Z</time>
      </trkpt>
      <trkpt lat="45.55814" lon="6.71397">
        <ele>1089.4000244</ele>
        <time>2013-07-27T14:56:39Z</time>
      </trkpt>
      <trkpt lat="45.55818" lon="6.71404">
        <ele>1088</ele>
        <time>2013-07-27T14:56:42Z</time>
      </trkpt>
      <trkpt lat="45.55828" lon="6.71413">
        <ele>1086</ele>
        <time>2013-07-27T14:56:47Z</time>
      </trkpt>
      <trkpt lat="45.55833" lon="6.7142">
        <ele>1084.1999512</ele>
        <time>2013-07-27T14:56:54Z</time>
      </trkpt>
      <trkpt lat="45.5584" lon="6.71427">
        <ele>1079.8000488</ele>
        <time>2013-07-27T14:57:01Z</time>
      </trkpt>
      <trkpt lat="45.55846" lon="6.71433">
        <ele>1076.5999756</ele>
        <time>2013-07-27T14:57:06Z</time>
      </trkpt>
      <trkpt lat="45.5585" lon="6.71443">
        <ele>1075.1999512</ele>
        <time>2013-07-27T14:57:11Z</time>
      </trkpt>
      <trkpt lat="45.55854" lon="6.71455">
        <ele>1074.1999512</ele>
        <time>2013-07-27T14:57:17Z</time>
      </trkpt>
      <trkpt lat="45.55857" lon="6.71464">
        <ele>1073.1999512</ele>
        <time>2013-07-27T14:57:22Z</time>
      </trkpt>
      <trkpt lat="45.5586" lon="6.71473">
        <ele>1073.5999756</ele>
        <time>2013-07-27T14:57:27Z</time>
      </trkpt>
      <trkpt lat="45.55864" lon="6.71482">
        <ele>1074.4000244</ele>
        <time>2013-07-27T14:57:32Z</time>
      </trkpt>
      <trkpt lat="45.55863" lon="6.71494">
        <ele>1073.4000244</ele>
        <time>2013-07-27T14:57:38Z</time>
      </trkpt>
      <trkpt lat="45.55867" lon="6.71504">
        <ele>1071.5999756</ele>
        <time>2013-07-27T14:57:44Z</time>
      </trkpt>
      <trkpt lat="45.55865" lon="6.71515">
        <ele>1070.5999756</ele>
        <time>2013-07-27T14:57:50Z</time>
      </trkpt>
      <trkpt lat="45.55864" lon="6.71533">
        <ele>1069.5999756</ele>
        <time>2013-07-27T14:57:55Z</time>
      </trkpt>
      <trkpt lat="45.55865" lon="6.71543">
        <ele>1069.5999756</ele>
        <time>2013-07-27T14:57:58Z</time>
      </trkpt>
      <trkpt lat="45.5587" lon="6.71559">
        <ele>1070.1999512</ele>
        <time>2013-07-27T14:58:03Z</time>
      </trkpt>
      <trkpt lat="45.55874" lon="6.71567">
        <ele>1070.5999756</ele>
        <time>2013-07-27T14:58:06Z</time>
      </trkpt>
      <trkpt lat="45.55878" lon="6.71578">
        <ele>1071.4000244</ele>
        <time>2013-07-27T14:58:10Z</time>
      </trkpt>
      <trkpt lat="45.55872" lon="6.71571">
        <ele>1068.8000488</ele>
        <time>2013-07-27T14:58:16Z</time>
      </trkpt>
      <trkpt lat="45.55868" lon="6.71565">
        <ele>1065.1999512</ele>
        <time>2013-07-27T14:58:20Z</time>
      </trkpt>
      <trkpt lat="45.55866" lon="6.71554">
        <ele>1063.1999512</ele>
        <time>2013-07-27T14:58:24Z</time>
      </trkpt>
      <trkpt lat="45.55868" lon="6.7154">
        <ele>1063.4000244</ele>
        <time>2013-07-27T14:58:29Z</time>
      </trkpt>
      <trkpt lat="45.5587" lon="6.71531">
        <ele>1064.4000244</ele>
        <time>2013-07-27T14:58:33Z</time>
      </trkpt>
      <trkpt lat="45.55868" lon="6.71519">
        <ele>1065</ele>
        <time>2013-07-27T14:58:38Z</time>
      </trkpt>
      <trkpt lat="45.55864" lon="6.71508">
        <ele>1064.8000488</ele>
        <time>2013-07-27T14:58:43Z</time>
      </trkpt>
      <trkpt lat="45.55866" lon="6.71492">
        <ele>1063.4000244</ele>
        <time>2013-07-27T14:58:49Z</time>
      </trkpt>
      <trkpt lat="45.55867" lon="6.71479">
        <ele>1061.5999756</ele>
        <time>2013-07-27T14:58:54Z</time>
      </trkpt>
      <trkpt lat="45.55869" lon="6.71468">
        <ele>1060.8000488</ele>
        <time>2013-07-27T14:58:58Z</time>
      </trkpt>
      <trkpt lat="45.55872" lon="6.71455">
        <ele>1060.1999512</ele>
        <time>2013-07-27T14:59:03Z</time>
      </trkpt>
      <trkpt lat="45.55869" lon="6.71442">
        <ele>1058.4000244</ele>
        <time>2013-07-27T14:59:08Z</time>
      </trkpt>
      <trkpt lat="45.55867" lon="6.71428">
        <ele>1056</ele>
        <time>2013-07-27T14:59:13Z</time>
      </trkpt>
      <trkpt lat="45.55864" lon="6.71416">
        <ele>1054.4000244</ele>
        <time>2013-07-27T14:59:18Z</time>
      </trkpt>
      <trkpt lat="45.55859" lon="6.71406">
        <ele>1053.8000488</ele>
        <time>2013-07-27T14:59:23Z</time>
      </trkpt>
      <trkpt lat="45.55856" lon="6.71397">
        <ele>1053</ele>
        <time>2013-07-27T14:59:26Z</time>
      </trkpt>
      <trkpt lat="45.55852" lon="6.71387">
        <ele>1051.8000488</ele>
        <time>2013-07-27T14:59:30Z</time>
      </trkpt>
      <trkpt lat="45.55849" lon="6.71374">
        <ele>1050.4000244</ele>
        <time>2013-07-27T14:59:35Z</time>
      </trkpt>
      <trkpt lat="45.5585" lon="6.71359">
        <ele>1050.1999512</ele>
        <time>2013-07-27T14:59:41Z</time>
      </trkpt>
      <trkpt lat="45.55847" lon="6.71342">
        <ele>1048.5999756</ele>
        <time>2013-07-27T14:59:47Z</time>
      </trkpt>
      <trkpt lat="45.55847" lon="6.71325">
        <ele>1046.4000244</ele>
        <time>2013-07-27T14:59:53Z</time>
      </trkpt>
      <trkpt lat="45.55851" lon="6.71312">
        <ele>1046</ele>
        <time>2013-07-27T14:59:57Z</time>
      </trkpt>
      <trkpt lat="45.55853" lon="6.71295">
        <ele>1045.8000488</ele>
        <time>2013-07-27T15:00:02Z</time>
      </trkpt>
      <trkpt lat="45.55854" lon="6.71279">
        <ele>1043.5999756</ele>
        <time>2013-07-27T15:00:07Z</time>
      </trkpt>
      <trkpt lat="45.55851" lon="6.71271">
        <ele>1041.5999756</ele>
        <time>2013-07-27T15:00:11Z</time>
      </trkpt>
      <trkpt lat="45.55845" lon="6.71255">
        <ele>1040.5999756</ele>
        <time>2013-07-27T15:00:17Z</time>
      </trkpt>
      <trkpt lat="45.55845" lon="6.71244">
        <ele>1040.4000244</ele>
        <time>2013-07-27T15:00:21Z</time>
      </trkpt>
      <trkpt lat="45.55844" lon="6.71234">
        <ele>1040.5999756</ele>
        <time>2013-07-27T15:00:26Z</time>
      </trkpt>
      <trkpt lat="45.55851" lon="6.71234">
        <ele>1041.5999756</ele>
        <time>2013-07-27T15:00:31Z</time>
      </trkpt>
      <trkpt lat="45.55857" lon="6.71237">
        <ele>1040.1999512</ele>
        <time>2013-07-27T15:00:38Z</time>
      </trkpt>
      <trkpt lat="45.55867" lon="6.71239">
        <ele>1037.1999512</ele>
        <time>2013-07-27T15:00:45Z</time>
      </trkpt>
      <trkpt lat="45.55871" lon="6.71245">
        <ele>1034.8000488</ele>
        <time>2013-07-27T15:00:52Z</time>
      </trkpt>
      <trkpt lat="45.55873" lon="6.71253">
        <ele>1033.4000244</ele>
        <time>2013-07-27T15:00:59Z</time>
      </trkpt>
      <trkpt lat="45.55878" lon="6.71264">
        <ele>1033</ele>
        <time>2013-07-27T15:01:07Z</time>
      </trkpt>
      <trkpt lat="45.55884" lon="6.71274">
        <ele>1033.1999512</ele>
        <time>2013-07-27T15:01:13Z</time>
      </trkpt>
      <trkpt lat="45.55889" lon="6.7128">
        <ele>1033.5999756</ele>
        <time>2013-07-27T15:01:16Z</time>
      </trkpt>
      <trkpt lat="45.55894" lon="6.71289">
        <ele>1034.4000244</ele>
        <time>2013-07-27T15:01:20Z</time>
      </trkpt>
      <trkpt lat="45.55901" lon="6.71297">
        <ele>1035</ele>
        <time>2013-07-27T15:01:25Z</time>
      </trkpt>
      <trkpt lat="45.55907" lon="6.71304">
        <ele>1034.4000244</ele>
        <time>2013-07-27T15:01:30Z</time>
      </trkpt>
      <trkpt lat="45.55911" lon="6.71312">
        <ele>1032</ele>
        <time>2013-07-27T15:01:34Z</time>
      </trkpt>
      <trkpt lat="45.55914" lon="6.7132">
        <ele>1028.5999756</ele>
        <time>2013-07-27T15:01:40Z</time>
      </trkpt>
      <trkpt lat="45.55919" lon="6.71326">
        <ele>1026.5999756</ele>
        <time>2013-07-27T15:01:45Z</time>
      </trkpt>
      <trkpt lat="45.5592" lon="6.7134">
        <ele>1025.4000244</ele>
        <time>2013-07-27T15:01:52Z</time>
      </trkpt>
      <trkpt lat="45.55921" lon="6.71355">
        <ele>1024.4000244</ele>
        <time>2013-07-27T15:01:57Z</time>
      </trkpt>
      <trkpt lat="45.5593" lon="6.71366">
        <ele>1023.4000244</ele>
        <time>2013-07-27T15:02:02Z</time>
      </trkpt>
      <trkpt lat="45.55936" lon="6.71381">
        <ele>1021.2000122</ele>
        <time>2013-07-27T15:02:08Z</time>
      </trkpt>
      <trkpt lat="45.55939" lon="6.71391">
        <ele>1019</ele>
        <time>2013-07-27T15:02:13Z</time>
      </trkpt>
      <trkpt lat="45.55945" lon="6.71401">
        <ele>1016.4000244</ele>
        <time>2013-07-27T15:02:19Z</time>
      </trkpt>
      <trkpt lat="45.55947" lon="6.7141">
        <ele>1014.7999878</ele>
        <time>2013-07-27T15:02:25Z</time>
      </trkpt>
      <trkpt lat="45.55947" lon="6.71421">
        <ele>1012.2000122</ele>
        <time>2013-07-27T15:02:31Z</time>
      </trkpt>
      <trkpt lat="45.55947" lon="6.71432">
        <ele>1010</ele>
        <time>2013-07-27T15:02:36Z</time>
      </trkpt>
      <trkpt lat="45.55949" lon="6.71444">
        <ele>1008.5999756</ele>
        <time>2013-07-27T15:02:41Z</time>
      </trkpt>
      <trkpt lat="45.55953" lon="6.71463">
        <ele>1008</ele>
        <time>2013-07-27T15:02:49Z</time>
      </trkpt>
      <trkpt lat="45.55954" lon="6.71473">
        <ele>1006</ele>
        <time>2013-07-27T15:02:53Z</time>
      </trkpt>
      <trkpt lat="45.55962" lon="6.71485">
        <ele>1003.5999756</ele>
        <time>2013-07-27T15:02:59Z</time>
      </trkpt>
      <trkpt lat="45.55966" lon="6.71493">
        <ele>1001.5999756</ele>
        <time>2013-07-27T15:03:03Z</time>
      </trkpt>
      <trkpt lat="45.55971" lon="6.71504">
        <ele>999.5999756</ele>
        <time>2013-07-27T15:03:09Z</time>
      </trkpt>
      <trkpt lat="45.5598" lon="6.71512">
        <ele>998</ele>
        <time>2013-07-27T15:03:15Z</time>
      </trkpt>
      <trkpt lat="45.55985" lon="6.7152">
        <ele>996.2000122</ele>
        <time>2013-07-27T15:03:20Z</time>
      </trkpt>
      <trkpt lat="45.55991" lon="6.71524">
        <ele>994.4000244</ele>
        <time>2013-07-27T15:03:26Z</time>
      </trkpt>
      <trkpt lat="45.55996" lon="6.71531">
        <ele>993.2000122</ele>
        <time>2013-07-27T15:03:31Z</time>
      </trkpt>
      <trkpt lat="45.56002" lon="6.71536">
        <ele>991</ele>
        <time>2013-07-27T15:03:36Z</time>
      </trkpt>
      <trkpt lat="45.56011" lon="6.71541">
        <ele>987.5999756</ele>
        <time>2013-07-27T15:03:42Z</time>
      </trkpt>
      <trkpt lat="45.56012" lon="6.71553">
        <ele>984.2000122</ele>
        <time>2013-07-27T15:03:48Z</time>
      </trkpt>
      <trkpt lat="45.56009" lon="6.71566">
        <ele>982</ele>
        <time>2013-07-27T15:03:54Z</time>
      </trkpt>
      <trkpt lat="45.56006" lon="6.7158">
        <ele>980.2000122</ele>
        <time>2013-07-27T15:04:01Z</time>
      </trkpt>
      <trkpt lat="45.56004" lon="6.71593">
        <ele>978.5999756</ele>
        <time>2013-07-27T15:04:07Z</time>
      </trkpt>
      <trkpt lat="45.56" lon="6.71604">
        <ele>976.7999878</ele>
        <time>2013-07-27T15:04:13Z</time>
      </trkpt>
      <trkpt lat="45.55995" lon="6.7161">
        <ele>973.5999756</ele>
        <time>2013-07-27T15:04:18Z</time>
      </trkpt>
      <trkpt lat="45.55988" lon="6.71615">
        <ele>969.4000244</ele>
        <time>2013-07-27T15:04:25Z</time>
      </trkpt>
      <trkpt lat="45.55982" lon="6.71622">
        <ele>969.2000122</ele>
        <time>2013-07-27T15:04:31Z</time>
      </trkpt>
      <trkpt lat="45.55978" lon="6.7163">
        <ele>968.7999878</ele>
        <time>2013-07-27T15:04:36Z</time>
      </trkpt>
      <trkpt lat="45.55973" lon="6.71637">
        <ele>968</ele>
        <time>2013-07-27T15:04:41Z</time>
      </trkpt>
      <trkpt lat="45.55966" lon="6.71642">
        <ele>967.2000122</ele>
        <time>2013-07-27T15:04:47Z</time>
      </trkpt>
      <trkpt lat="45.55959" lon="6.71652">
        <ele>968</ele>
        <time>2013-07-27T15:04:54Z</time>
      </trkpt>
      <trkpt lat="45.55952" lon="6.71663">
        <ele>968.7999878</ele>
        <time>2013-07-27T15:05:00Z</time>
      </trkpt>
      <trkpt lat="45.55947" lon="6.71675">
        <ele>969.5999756</ele>
        <time>2013-07-27T15:05:06Z</time>
      </trkpt>
      <trkpt lat="45.55944" lon="6.71684">
        <ele>970.2000122</ele>
        <time>2013-07-27T15:05:13Z</time>
      </trkpt>
      <trkpt lat="45.55937" lon="6.71679">
        <ele>968.7999878</ele>
        <time>2013-07-27T15:05:38Z</time>
      </trkpt>
      <trkpt lat="45.55944" lon="6.71683">
        <ele>965.7999878</ele>
        <time>2013-07-27T15:05:46Z</time>
      </trkpt>
      <trkpt lat="45.55953" lon="6.71684">
        <ele>962.2000122</ele>
        <time>2013-07-27T15:05:54Z</time>
      </trkpt>
      <trkpt lat="45.5596" lon="6.71689">
        <ele>960</ele>
        <time>2013-07-27T15:05:59Z</time>
      </trkpt>
      <trkpt lat="45.55967" lon="6.71694">
        <ele>958.7999878</ele>
        <time>2013-07-27T15:06:04Z</time>
      </trkpt>
      <trkpt lat="45.55973" lon="6.71699">
        <ele>957.7999878</ele>
        <time>2013-07-27T15:06:08Z</time>
      </trkpt>
      <trkpt lat="45.5598" lon="6.71703">
        <ele>956.4000244</ele>
        <time>2013-07-27T15:06:13Z</time>
      </trkpt>
      <trkpt lat="45.55986" lon="6.71708">
        <ele>955</ele>
        <time>2013-07-27T15:06:18Z</time>
      </trkpt>
      <trkpt lat="45.55997" lon="6.71715">
        <ele>954.2000122</ele>
        <time>2013-07-27T15:06:24Z</time>
      </trkpt>
      <trkpt lat="45.56004" lon="6.71721">
        <ele>953</ele>
        <time>2013-07-27T15:06:28Z</time>
      </trkpt>
      <trkpt lat="45.56008" lon="6.71728">
        <ele>952.4000244</ele>
        <time>2013-07-27T15:06:31Z</time>
      </trkpt>
      <trkpt lat="45.56012" lon="6.71735">
        <ele>951.4000244</ele>
        <time>2013-07-27T15:06:34Z</time>
      </trkpt>
      <trkpt lat="45.56018" lon="6.71749">
        <ele>950</ele>
        <time>2013-07-27T15:06:39Z</time>
      </trkpt>
      <trkpt lat="45.56024" lon="6.71761">
        <ele>948.4000244</ele>
        <time>2013-07-27T15:06:45Z</time>
      </trkpt>
      <trkpt lat="45.56031" lon="6.71767">
        <ele>947.7999878</ele>
        <time>2013-07-27T15:06:50Z</time>
      </trkpt>
      <trkpt lat="45.56037" lon="6.71774">
        <ele>947.4000244</ele>
        <time>2013-07-27T15:06:57Z</time>
      </trkpt>
      <trkpt lat="45.56043" lon="6.71772">
        <ele>947.4000244</ele>
        <time>2013-07-27T15:07:06Z</time>
      </trkpt>
      <trkpt lat="45.5605" lon="6.71767">
        <ele>947.5999756</ele>
        <time>2013-07-27T15:07:11Z</time>
      </trkpt>
      <trkpt lat="45.56057" lon="6.71768">
        <ele>948.4000244</ele>
        <time>2013-07-27T15:07:16Z</time>
      </trkpt>
      <trkpt lat="45.56065" lon="6.71772">
        <ele>948.7999878</ele>
        <time>2013-07-27T15:07:21Z</time>
      </trkpt>
      <trkpt lat="45.56073" lon="6.71776">
        <ele>948.5999756</ele>
        <time>2013-07-27T15:07:25Z</time>
      </trkpt>
      <trkpt lat="45.56085" lon="6.71791">
        <ele>948</ele>
        <time>2013-07-27T15:07:32Z</time>
      </trkpt>
      <trkpt lat="45.56092" lon="6.71798">
        <ele>947.7999878</ele>
        <time>2013-07-27T15:07:36Z</time>
      </trkpt>
      <trkpt lat="45.56095" lon="6.71792">
        <ele>946.7999878</ele>
        <time>2013-07-27T15:07:41Z</time>
      </trkpt>
      <trkpt lat="45.56089" lon="6.71791">
        <ele>943.2000122</ele>
        <time>2013-07-27T15:07:47Z</time>
      </trkpt>
      <trkpt lat="45.56082" lon="6.71793">
        <ele>939.7999878</ele>
        <time>2013-07-27T15:07:52Z</time>
      </trkpt>
      <trkpt lat="45.56075" lon="6.71789">
        <ele>937.5999756</ele>
        <time>2013-07-27T15:07:57Z</time>
      </trkpt>
      <trkpt lat="45.56068" lon="6.71786">
        <ele>936.7999878</ele>
        <time>2013-07-27T15:08:01Z</time>
      </trkpt>
      <trkpt lat="45.5606" lon="6.71772">
        <ele>937.2000122</ele>
        <time>2013-07-27T15:08:12Z</time>
      </trkpt>
      <trkpt lat="45.56059" lon="6.71755">
        <ele>935.7999878</ele>
        <time>2013-07-27T15:08:18Z</time>
      </trkpt>
      <trkpt lat="45.56062" lon="6.71742">
        <ele>934.4000244</ele>
        <time>2013-07-27T15:08:22Z</time>
      </trkpt>
      <trkpt lat="45.5606" lon="6.7173">
        <ele>935</ele>
        <time>2013-07-27T15:08:27Z</time>
      </trkpt>
      <trkpt lat="45.56059" lon="6.71718">
        <ele>936.4000244</ele>
        <time>2013-07-27T15:08:32Z</time>
      </trkpt>
      <trkpt lat="45.56055" lon="6.71708">
        <ele>937.2000122</ele>
        <time>2013-07-27T15:08:36Z</time>
      </trkpt>
      <trkpt lat="45.56063" lon="6.71704">
        <ele>938.2000122</ele>
        <time>2013-07-27T15:08:44Z</time>
      </trkpt>
      <trkpt lat="45.5607" lon="6.71701">
        <ele>938.4000244</ele>
        <time>2013-07-27T15:08:47Z</time>
      </trkpt>
      <trkpt lat="45.56076" lon="6.71696">
        <ele>938.4000244</ele>
        <time>2013-07-27T15:08:50Z</time>
      </trkpt>
      <trkpt lat="45.5608" lon="6.71689">
        <ele>938.2000122</ele>
        <time>2013-07-27T15:08:53Z</time>
      </trkpt>
      <trkpt lat="45.56085" lon="6.71678">
        <ele>938.4000244</ele>
        <time>2013-07-27T15:08:57Z</time>
      </trkpt>
      <trkpt lat="45.56091" lon="6.71667">
        <ele>939</ele>
        <time>2013-07-27T15:09:01Z</time>
      </trkpt>
      <trkpt lat="45.56095" lon="6.71656">
        <ele>939.2000122</ele>
        <time>2013-07-27T15:09:04Z</time>
      </trkpt>
      <trkpt lat="45.56096" lon="6.71646">
        <ele>939</ele>
        <time>2013-07-27T15:09:07Z</time>
      </trkpt>
      <trkpt lat="45.56099" lon="6.71634">
        <ele>938.5999756</ele>
        <time>2013-07-27T15:09:11Z</time>
      </trkpt>
      <trkpt lat="45.56107" lon="6.71616">
        <ele>938.4000244</ele>
        <time>2013-07-27T15:09:19Z</time>
      </trkpt>
      <trkpt lat="45.56112" lon="6.71606">
        <ele>937.2000122</ele>
        <time>2013-07-27T15:09:24Z</time>
      </trkpt>
      <trkpt lat="45.56116" lon="6.71597">
        <ele>935.7999878</ele>
        <time>2013-07-27T15:09:29Z</time>
      </trkpt>
      <trkpt lat="45.56122" lon="6.71589">
        <ele>935</ele>
        <time>2013-07-27T15:09:34Z</time>
      </trkpt>
      <trkpt lat="45.56127" lon="6.71578">
        <ele>934.4000244</ele>
        <time>2013-07-27T15:09:39Z</time>
      </trkpt>
      <trkpt lat="45.56127" lon="6.71564">
        <ele>930.7999878</ele>
        <time>2013-07-27T15:09:44Z</time>
      </trkpt>
      <trkpt lat="45.56123" lon="6.71552">
        <ele>922.4000244</ele>
        <time>2013-07-27T15:09:48Z</time>
      </trkpt>
      <trkpt lat="45.56117" lon="6.71539">
        <ele>911.5999756</ele>
        <time>2013-07-27T15:09:53Z</time>
      </trkpt>
      <trkpt lat="45.56114" lon="6.7153">
        <ele>905.2000122</ele>
        <time>2013-07-27T15:09:57Z</time>
      </trkpt>
      <trkpt lat="45.56112" lon="6.71518">
        <ele>901.4000244</ele>
        <time>2013-07-27T15:10:02Z</time>
      </trkpt>
      <trkpt lat="45.56112" lon="6.71502">
        <ele>899.5999756</ele>
        <time>2013-07-27T15:10:09Z</time>
      </trkpt>
      <trkpt lat="45.56112" lon="6.71493">
        <ele>899.5999756</ele>
        <time>2013-07-27T15:10:14Z</time>
      </trkpt>
      <trkpt lat="45.56112" lon="6.71483">
        <ele>900</ele>
        <time>2013-07-27T15:10:20Z</time>
      </trkpt>
      <trkpt lat="45.56112" lon="6.71473">
        <ele>900.7999878</ele>
        <time>2013-07-27T15:10:27Z</time>
      </trkpt>
      <trkpt lat="45.56114" lon="6.7146">
        <ele>902.2000122</ele>
        <time>2013-07-27T15:10:35Z</time>
      </trkpt>
      <trkpt lat="45.56118" lon="6.71452">
        <ele>905.5999756</ele>
        <time>2013-07-27T15:10:51Z</time>
      </trkpt>
      <trkpt lat="45.56121" lon="6.71448">
        <ele>908.5999756</ele>
        <time>2013-07-27T15:12:55Z</time>
      </trkpt>
      <trkpt lat="45.56124" lon="6.71438">
        <ele>910</ele>
        <time>2013-07-27T15:14:27Z</time>
      </trkpt>
      <trkpt lat="45.56125" lon="6.7144">
        <ele>912.7999878</ele>
        <time>2013-07-27T15:15:06Z</time>
      </trkpt>
      <trkpt lat="45.56127" lon="6.7144">
        <ele>913.7999878</ele>
        <time>2013-07-27T15:15:51Z</time>
      </trkpt>
      <trkpt lat="45.56124" lon="6.71435">
        <ele>916.7999878</ele>
        <time>2013-07-27T15:17:22Z</time>
      </trkpt>
      <trkpt lat="45.56128" lon="6.71424">
        <ele>914.2000122</ele>
        <time>2013-07-27T15:17:32Z</time>
      </trkpt>
      <trkpt lat="45.56125" lon="6.71415">
        <ele>914</ele>
        <time>2013-07-27T15:17:39Z</time>
      </trkpt>
      <trkpt lat="45.56125" lon="6.71406">
        <ele>915.4000244</ele>
        <time>2013-07-27T15:17:51Z</time>
      </trkpt>
      <trkpt lat="45.56126" lon="6.71397">
        <ele>916.4000244</ele>
        <time>2013-07-27T15:17:59Z</time>
      </trkpt>
      <trkpt lat="45.56125" lon="6.71386">
        <ele>917</ele>
        <time>2013-07-27T15:18:09Z</time>
      </trkpt>
      <trkpt lat="45.56121" lon="6.71368">
        <ele>917.2000122</ele>
        <time>2013-07-27T15:18:22Z</time>
      </trkpt>
      <trkpt lat="45.56119" lon="6.71358">
        <ele>917.7999878</ele>
        <time>2013-07-27T15:18:28Z</time>
      </trkpt>
      <trkpt lat="45.56118" lon="6.71345">
        <ele>917.7999878</ele>
        <time>2013-07-27T15:18:34Z</time>
      </trkpt>
      <trkpt lat="45.56115" lon="6.71338">
        <ele>917.7999878</ele>
        <time>2013-07-27T15:18:39Z</time>
      </trkpt>
      <trkpt lat="45.56112" lon="6.71329">
        <ele>918.7999878</ele>
        <time>2013-07-27T15:18:46Z</time>
      </trkpt>
      <trkpt lat="45.5611" lon="6.7132">
        <ele>919.2000122</ele>
        <time>2013-07-27T15:18:52Z</time>
      </trkpt>
      <trkpt lat="45.56112" lon="6.71311">
        <ele>919.7999878</ele>
        <time>2013-07-27T15:18:57Z</time>
      </trkpt>
      <trkpt lat="45.56112" lon="6.71302">
        <ele>920</ele>
        <time>2013-07-27T15:19:02Z</time>
      </trkpt>
      <trkpt lat="45.56107" lon="6.71291">
        <ele>919</ele>
        <time>2013-07-27T15:19:09Z</time>
      </trkpt>
      <trkpt lat="45.56104" lon="6.71283">
        <ele>918.7999878</ele>
        <time>2013-07-27T15:19:14Z</time>
      </trkpt>
      <trkpt lat="45.56101" lon="6.71271">
        <ele>919.2000122</ele>
        <time>2013-07-27T15:19:21Z</time>
      </trkpt>
      <trkpt lat="45.56102" lon="6.7126">
        <ele>918.4000244</ele>
        <time>2013-07-27T15:19:28Z</time>
      </trkpt>
      <trkpt lat="45.56096" lon="6.71249">
        <ele>917</ele>
        <time>2013-07-27T15:19:35Z</time>
      </trkpt>
      <trkpt lat="45.56089" lon="6.71243">
        <ele>917.2000122</ele>
        <time>2013-07-27T15:19:40Z</time>
      </trkpt>
      <trkpt lat="45.56086" lon="6.71236">
        <ele>918.4000244</ele>
        <time>2013-07-27T15:19:45Z</time>
      </trkpt>
      <trkpt lat="45.56085" lon="6.71226">
        <ele>918.4000244</ele>
        <time>2013-07-27T15:19:50Z</time>
      </trkpt>
      <trkpt lat="45.56087" lon="6.71215">
        <ele>917.4000244</ele>
        <time>2013-07-27T15:19:55Z</time>
      </trkpt>
      <trkpt lat="45.56089" lon="6.71204">
        <ele>915.7999878</ele>
        <time>2013-07-27T15:20:01Z</time>
      </trkpt>
      <trkpt lat="45.5609" lon="6.71187">
        <ele>915.4000244</ele>
        <time>2013-07-27T15:20:09Z</time>
      </trkpt>
      <trkpt lat="45.5609" lon="6.71174">
        <ele>915.5999756</ele>
        <time>2013-07-27T15:20:15Z</time>
      </trkpt>
      <trkpt lat="45.56087" lon="6.71167">
        <ele>916.2000122</ele>
        <time>2013-07-27T15:20:20Z</time>
      </trkpt>
      <trkpt lat="45.56081" lon="6.71159">
        <ele>917.2000122</ele>
        <time>2013-07-27T15:20:28Z</time>
      </trkpt>
      <trkpt lat="45.56086" lon="6.71152">
        <ele>918</ele>
        <time>2013-07-27T15:20:35Z</time>
      </trkpt>
      <trkpt lat="45.56083" lon="6.71141">
        <ele>918.7999878</ele>
        <time>2013-07-27T15:20:42Z</time>
      </trkpt>
      <trkpt lat="45.56077" lon="6.71133">
        <ele>919.2000122</ele>
        <time>2013-07-27T15:20:47Z</time>
      </trkpt>
      <trkpt lat="45.56073" lon="6.71124">
        <ele>920.5999756</ele>
        <time>2013-07-27T15:20:59Z</time>
      </trkpt>
      <trkpt lat="45.56067" lon="6.71118">
        <ele>919.7999878</ele>
        <time>2013-07-27T15:21:05Z</time>
      </trkpt>
      <trkpt lat="45.56065" lon="6.71115">
        <ele>919.4000244</ele>
        <time>2013-07-27T15:21:18Z</time>
      </trkpt>
      <trkpt lat="45.56058" lon="6.71109">
        <ele>919.2000122</ele>
        <time>2013-07-27T15:21:23Z</time>
      </trkpt>
      <trkpt lat="45.56051" lon="6.71104">
        <ele>918.5999756</ele>
        <time>2013-07-27T15:21:27Z</time>
      </trkpt>
      <trkpt lat="45.56044" lon="6.71097">
        <ele>918</ele>
        <time>2013-07-27T15:21:36Z</time>
      </trkpt>
      <trkpt lat="45.56038" lon="6.71095">
        <ele>918.7999878</ele>
        <time>2013-07-27T15:21:41Z</time>
      </trkpt>
      <trkpt lat="45.56031" lon="6.71092">
        <ele>920.2000122</ele>
        <time>2013-07-27T15:21:47Z</time>
      </trkpt>
      <trkpt lat="45.56027" lon="6.71085">
        <ele>922</ele>
        <time>2013-07-27T15:21:54Z</time>
      </trkpt>
      <trkpt lat="45.56024" lon="6.71082">
        <ele>922.4000244</ele>
        <time>2013-07-27T15:22:01Z</time>
      </trkpt>
      <trkpt lat="45.56019" lon="6.71084">
        <ele>922.2000122</ele>
        <time>2013-07-27T15:22:08Z</time>
      </trkpt>
      <trkpt lat="45.5602" lon="6.71074">
        <ele>922.7999878</ele>
        <time>2013-07-27T15:22:13Z</time>
      </trkpt>
      <trkpt lat="45.56019" lon="6.71059">
        <ele>924.7999878</ele>
        <time>2013-07-27T15:22:19Z</time>
      </trkpt>
      <trkpt lat="45.56026" lon="6.71051">
        <ele>926.4000244</ele>
        <time>2013-07-27T15:22:29Z</time>
      </trkpt>
      <trkpt lat="45.56031" lon="6.7105">
        <ele>926.4000244</ele>
        <time>2013-07-27T15:22:35Z</time>
      </trkpt>
      <trkpt lat="45.56038" lon="6.71043">
        <ele>927.2000122</ele>
        <time>2013-07-27T15:22:43Z</time>
      </trkpt>
      <trkpt lat="45.56045" lon="6.71041">
        <ele>929.4000244</ele>
        <time>2013-07-27T15:22:53Z</time>
      </trkpt>
      <trkpt lat="45.56052" lon="6.71033">
        <ele>930.5999756</ele>
        <time>2013-07-27T15:23:01Z</time>
      </trkpt>
      <trkpt lat="45.56058" lon="6.71025">
        <ele>931.7999878</ele>
        <time>2013-07-27T15:23:06Z</time>
      </trkpt>
      <trkpt lat="45.56064" lon="6.7102">
        <ele>932.5999756</ele>
        <time>2013-07-27T15:23:11Z</time>
      </trkpt>
      <trkpt lat="45.56068" lon="6.71014">
        <ele>933</ele>
        <time>2013-07-27T15:23:17Z</time>
      </trkpt>
      <trkpt lat="45.56076" lon="6.71007">
        <ele>933</ele>
        <time>2013-07-27T15:23:24Z</time>
      </trkpt>
      <trkpt lat="45.56081" lon="6.71001">
        <ele>934.2000122</ele>
        <time>2013-07-27T15:23:34Z</time>
      </trkpt>
      <trkpt lat="45.56087" lon="6.70994">
        <ele>933</ele>
        <time>2013-07-27T15:23:44Z</time>
      </trkpt>
      <trkpt lat="45.56092" lon="6.70984">
        <ele>932.4000244</ele>
        <time>2013-07-27T15:23:51Z</time>
      </trkpt>
      <trkpt lat="45.56092" lon="6.70974">
        <ele>928</ele>
        <time>2013-07-27T15:23:56Z</time>
      </trkpt>
      <trkpt lat="45.56088" lon="6.70964">
        <ele>920.7999878</ele>
        <time>2013-07-27T15:24:01Z</time>
      </trkpt>
      <trkpt lat="45.56083" lon="6.70955">
        <ele>913.2000122</ele>
        <time>2013-07-27T15:24:06Z</time>
      </trkpt>
      <trkpt lat="45.56079" lon="6.70944">
        <ele>908</ele>
        <time>2013-07-27T15:24:12Z</time>
      </trkpt>
      <trkpt lat="45.56072" lon="6.70935">
        <ele>903.5999756</ele>
        <time>2013-07-27T15:24:18Z</time>
      </trkpt>
      <trkpt lat="45.56064" lon="6.70927">
        <ele>900.5999756</ele>
        <time>2013-07-27T15:24:24Z</time>
      </trkpt>
      <trkpt lat="45.56058" lon="6.7092">
        <ele>899.5999756</ele>
        <time>2013-07-27T15:24:30Z</time>
      </trkpt>
      <trkpt lat="45.56055" lon="6.70911">
        <ele>900.2000122</ele>
        <time>2013-07-27T15:24:38Z</time>
      </trkpt>
      <trkpt lat="45.5605" lon="6.70899">
        <ele>900.4000244</ele>
        <time>2013-07-27T15:24:45Z</time>
      </trkpt>
      <trkpt lat="45.56049" lon="6.70889">
        <ele>899.7999878</ele>
        <time>2013-07-27T15:24:50Z</time>
      </trkpt>
      <trkpt lat="45.56046" lon="6.70885">
        <ele>899.2000122</ele>
        <time>2013-07-27T15:24:59Z</time>
      </trkpt>
      <trkpt lat="45.56051" lon="6.70881">
        <ele>899.2000122</ele>
        <time>2013-07-27T15:25:04Z</time>
      </trkpt>
      <trkpt lat="45.5607" lon="6.7087">
        <ele>899.2000122</ele>
        <time>2013-07-27T15:25:15Z</time>
      </trkpt>
      <trkpt lat="45.56078" lon="6.70863">
        <ele>900.2000122</ele>
        <time>2013-07-27T15:25:21Z</time>
      </trkpt>
      <trkpt lat="45.56089" lon="6.70847">
        <ele>899.5999756</ele>
        <time>2013-07-27T15:25:30Z</time>
      </trkpt>
      <trkpt lat="45.56096" lon="6.7084">
        <ele>898.2000122</ele>
        <time>2013-07-27T15:25:34Z</time>
      </trkpt>
      <trkpt lat="45.561" lon="6.70834">
        <ele>897.4000244</ele>
        <time>2013-07-27T15:25:37Z</time>
      </trkpt>
      <trkpt lat="45.5611" lon="6.70819">
        <ele>896.2000122</ele>
        <time>2013-07-27T15:25:44Z</time>
      </trkpt>
      <trkpt lat="45.56112" lon="6.70811">
        <ele>896</ele>
        <time>2013-07-27T15:25:49Z</time>
      </trkpt>
      <trkpt lat="45.5611" lon="6.70802">
        <ele>894.5999756</ele>
        <time>2013-07-27T15:25:55Z</time>
      </trkpt>
      <trkpt lat="45.56115" lon="6.7079">
        <ele>891.7999878</ele>
        <time>2013-07-27T15:26:03Z</time>
      </trkpt>
      <trkpt lat="45.56117" lon="6.70779">
        <ele>889.5999756</ele>
        <time>2013-07-27T15:26:10Z</time>
      </trkpt>
      <trkpt lat="45.56121" lon="6.7077">
        <ele>888.4000244</ele>
        <time>2013-07-27T15:26:16Z</time>
      </trkpt>
      <trkpt lat="45.56123" lon="6.70761">
        <ele>887.4000244</ele>
        <time>2013-07-27T15:26:21Z</time>
      </trkpt>
      <trkpt lat="45.56128" lon="6.70753">
        <ele>887.7999878</ele>
        <time>2013-07-27T15:26:26Z</time>
      </trkpt>
      <trkpt lat="45.56126" lon="6.70744">
        <ele>888</ele>
        <time>2013-07-27T15:26:34Z</time>
      </trkpt>
      <trkpt lat="45.56125" lon="6.70733">
        <ele>887.7999878</ele>
        <time>2013-07-27T15:27:15Z</time>
      </trkpt>
      <trkpt lat="45.56126" lon="6.70723">
        <ele>890.2000122</ele>
        <time>2013-07-27T15:27:23Z</time>
      </trkpt>
      <trkpt lat="45.56125" lon="6.70711">
        <ele>887.5999756</ele>
        <time>2013-07-27T15:27:33Z</time>
      </trkpt>
      <trkpt lat="45.56124" lon="6.70699">
        <ele>884.4000244</ele>
        <time>2013-07-27T15:27:40Z</time>
      </trkpt>
      <trkpt lat="45.56128" lon="6.70688">
        <ele>884.2000122</ele>
        <time>2013-07-27T15:27:45Z</time>
      </trkpt>
      <trkpt lat="45.56128" lon="6.70677">
        <ele>884.2000122</ele>
        <time>2013-07-27T15:27:50Z</time>
      </trkpt>
      <trkpt lat="45.56124" lon="6.70669">
        <ele>883.5999756</ele>
        <time>2013-07-27T15:27:55Z</time>
      </trkpt>
      <trkpt lat="45.56124" lon="6.70658">
        <ele>884</ele>
        <time>2013-07-27T15:28:04Z</time>
      </trkpt>
      <trkpt lat="45.56128" lon="6.70647">
        <ele>883.4000244</ele>
        <time>2013-07-27T15:28:10Z</time>
      </trkpt>
      <trkpt lat="45.56134" lon="6.70635">
        <ele>883.7999878</ele>
        <time>2013-07-27T15:28:16Z</time>
      </trkpt>
      <trkpt lat="45.56137" lon="6.70626">
        <ele>885.2000122</ele>
        <time>2013-07-27T15:28:21Z</time>
      </trkpt>
      <trkpt lat="45.56137" lon="6.70617">
        <ele>887.4000244</ele>
        <time>2013-07-27T15:28:26Z</time>
      </trkpt>
      <trkpt lat="45.56138" lon="6.70604">
        <ele>889.7999878</ele>
        <time>2013-07-27T15:28:35Z</time>
      </trkpt>
      <trkpt lat="45.56136" lon="6.70593">
        <ele>891</ele>
        <time>2013-07-27T15:28:44Z</time>
      </trkpt>
      <trkpt lat="45.56137" lon="6.70581">
        <ele>891.5999756</ele>
        <time>2013-07-27T15:28:54Z</time>
      </trkpt>
      <trkpt lat="45.56136" lon="6.7057">
        <ele>893.4000244</ele>
        <time>2013-07-27T15:29:01Z</time>
      </trkpt>
      <trkpt lat="45.56132" lon="6.70558">
        <ele>894.2000122</ele>
        <time>2013-07-27T15:29:07Z</time>
      </trkpt>
      <trkpt lat="45.56124" lon="6.70547">
        <ele>893.7999878</ele>
        <time>2013-07-27T15:29:14Z</time>
      </trkpt>
      <trkpt lat="45.56116" lon="6.70531">
        <ele>893</ele>
        <time>2013-07-27T15:29:24Z</time>
      </trkpt>
      <trkpt lat="45.56108" lon="6.70528">
        <ele>896</ele>
        <time>2013-07-27T15:29:32Z</time>
      </trkpt>
      <trkpt lat="45.56102" lon="6.70523">
        <ele>898.7999878</ele>
        <time>2013-07-27T15:29:40Z</time>
      </trkpt>
      <trkpt lat="45.561" lon="6.70513">
        <ele>899.7999878</ele>
        <time>2013-07-27T15:29:48Z</time>
      </trkpt>
      <trkpt lat="45.56097" lon="6.70504">
        <ele>901</ele>
        <time>2013-07-27T15:29:56Z</time>
      </trkpt>
      <trkpt lat="45.56093" lon="6.70495">
        <ele>902.7999878</ele>
        <time>2013-07-27T15:30:06Z</time>
      </trkpt>
      <trkpt lat="45.56087" lon="6.70486">
        <ele>901.7999878</ele>
        <time>2013-07-27T15:30:16Z</time>
      </trkpt>
      <trkpt lat="45.56082" lon="6.7048">
        <ele>903</ele>
        <time>2013-07-27T15:30:24Z</time>
      </trkpt>
      <trkpt lat="45.5608" lon="6.70471">
        <ele>905.4000244</ele>
        <time>2013-07-27T15:30:33Z</time>
      </trkpt>
      <trkpt lat="45.5608" lon="6.70461">
        <ele>903.2000122</ele>
        <time>2013-07-27T15:30:40Z</time>
      </trkpt>
      <trkpt lat="45.56084" lon="6.7045">
        <ele>902.4000244</ele>
        <time>2013-07-27T15:30:51Z</time>
      </trkpt>
      <trkpt lat="45.56086" lon="6.7044">
        <ele>902.5999756</ele>
        <time>2013-07-27T15:30:57Z</time>
      </trkpt>
      <trkpt lat="45.56087" lon="6.70431">
        <ele>902.5999756</ele>
        <time>2013-07-27T15:31:05Z</time>
      </trkpt>
      <trkpt lat="45.56079" lon="6.70425">
        <ele>902.7999878</ele>
        <time>2013-07-27T15:31:13Z</time>
      </trkpt>
      <trkpt lat="45.56081" lon="6.70411">
        <ele>903.4000244</ele>
        <time>2013-07-27T15:31:21Z</time>
      </trkpt>
      <trkpt lat="45.56082" lon="6.70402">
        <ele>905</ele>
        <time>2013-07-27T15:31:28Z</time>
      </trkpt>
      <trkpt lat="45.56076" lon="6.70395">
        <ele>904.4000244</ele>
        <time>2013-07-27T15:31:36Z</time>
      </trkpt>
      <trkpt lat="45.56078" lon="6.70385">
        <ele>903</ele>
        <time>2013-07-27T15:31:44Z</time>
      </trkpt>
      <trkpt lat="45.56072" lon="6.70381">
        <ele>899.4000244</ele>
        <time>2013-07-27T15:31:52Z</time>
      </trkpt>
      <trkpt lat="45.56073" lon="6.70372">
        <ele>891.4000244</ele>
        <time>2013-07-27T15:32:02Z</time>
      </trkpt>
      <trkpt lat="45.56068" lon="6.70362">
        <ele>889.4000244</ele>
        <time>2013-07-27T15:32:09Z</time>
      </trkpt>
      <trkpt lat="45.5607" lon="6.70354">
        <ele>887.7999878</ele>
        <time>2013-07-27T15:32:16Z</time>
      </trkpt>
      <trkpt lat="45.56069" lon="6.70346">
        <ele>885.5999756</ele>
        <time>2013-07-27T15:32:23Z</time>
      </trkpt>
      <trkpt lat="45.56066" lon="6.70338">
        <ele>882</ele>
        <time>2013-07-27T15:32:36Z</time>
      </trkpt>
      <trkpt lat="45.56059" lon="6.70329">
        <ele>882</ele>
        <time>2013-07-27T15:32:47Z</time>
      </trkpt>
      <trkpt lat="45.56054" lon="6.70323">
        <ele>882</ele>
        <time>2013-07-27T15:32:52Z</time>
      </trkpt>
      <trkpt lat="45.56049" lon="6.70318">
        <ele>882.7999878</ele>
        <time>2013-07-27T15:33:01Z</time>
      </trkpt>
      <trkpt lat="45.56043" lon="6.70315">
        <ele>883</ele>
        <time>2013-07-27T15:33:06Z</time>
      </trkpt>
      <trkpt lat="45.56035" lon="6.70309">
        <ele>883.5999756</ele>
        <time>2013-07-27T15:33:15Z</time>
      </trkpt>
      <trkpt lat="45.5603" lon="6.70305">
        <ele>887.2000122</ele>
        <time>2013-07-27T15:33:29Z</time>
      </trkpt>
      <trkpt lat="45.56034" lon="6.70296">
        <ele>888</ele>
        <time>2013-07-27T15:33:34Z</time>
      </trkpt>
      <trkpt lat="45.5604" lon="6.70288">
        <ele>888.7999878</ele>
        <time>2013-07-27T15:33:42Z</time>
      </trkpt>
      <trkpt lat="45.56036" lon="6.70281">
        <ele>889.5999756</ele>
        <time>2013-07-27T15:33:50Z</time>
      </trkpt>
      <trkpt lat="45.56036" lon="6.70276">
        <ele>892.5999756</ele>
        <time>2013-07-27T15:34:03Z</time>
      </trkpt>
      <trkpt lat="45.56036" lon="6.70265">
        <ele>896.4000244</ele>
        <time>2013-07-27T15:34:10Z</time>
      </trkpt>
      <trkpt lat="45.56039" lon="6.70254">
        <ele>898.7999878</ele>
        <time>2013-07-27T15:34:15Z</time>
      </trkpt>
      <trkpt lat="45.56039" lon="6.70239">
        <ele>903.4000244</ele>
        <time>2013-07-27T15:34:22Z</time>
      </trkpt>
      <trkpt lat="45.56043" lon="6.70228">
        <ele>905.7999878</ele>
        <time>2013-07-27T15:34:29Z</time>
      </trkpt>
      <trkpt lat="45.56049" lon="6.70218">
        <ele>905.2000122</ele>
        <time>2013-07-27T15:34:33Z</time>
      </trkpt>
      <trkpt lat="45.56049" lon="6.70209">
        <ele>902</ele>
        <time>2013-07-27T15:34:39Z</time>
      </trkpt>
      <trkpt lat="45.56045" lon="6.702">
        <ele>897</ele>
        <time>2013-07-27T15:34:51Z</time>
      </trkpt>
      <trkpt lat="45.56047" lon="6.70191">
        <ele>896.7999878</ele>
        <time>2013-07-27T15:34:56Z</time>
      </trkpt>
      <trkpt lat="45.56045" lon="6.70187">
        <ele>896.4000244</ele>
        <time>2013-07-27T15:35:03Z</time>
      </trkpt>
      <trkpt lat="45.56041" lon="6.70178">
        <ele>894</ele>
        <time>2013-07-27T15:35:09Z</time>
      </trkpt>
      <trkpt lat="45.56039" lon="6.70164">
        <ele>891</ele>
        <time>2013-07-27T15:35:17Z</time>
      </trkpt>
      <trkpt lat="45.56042" lon="6.70155">
        <ele>891</ele>
        <time>2013-07-27T15:35:24Z</time>
      </trkpt>
      <trkpt lat="45.56045" lon="6.70147">
        <ele>889.7999878</ele>
        <time>2013-07-27T15:35:31Z</time>
      </trkpt>
      <trkpt lat="45.56047" lon="6.70136">
        <ele>887.4000244</ele>
        <time>2013-07-27T15:35:39Z</time>
      </trkpt>
      <trkpt lat="45.56052" lon="6.70126">
        <ele>886.4000244</ele>
        <time>2013-07-27T15:35:48Z</time>
      </trkpt>
      <trkpt lat="45.56053" lon="6.70113">
        <ele>887.7999878</ele>
        <time>2013-07-27T15:35:57Z</time>
      </trkpt>
      <trkpt lat="45.56057" lon="6.70106">
        <ele>887.5999756</ele>
        <time>2013-07-27T15:36:07Z</time>
      </trkpt>
      <trkpt lat="45.56057" lon="6.70099">
        <ele>885.5999756</ele>
        <time>2013-07-27T15:36:17Z</time>
      </trkpt>
      <trkpt lat="45.5606" lon="6.70089">
        <ele>885.5999756</ele>
        <time>2013-07-27T15:36:23Z</time>
      </trkpt>
      <trkpt lat="45.56063" lon="6.70081">
        <ele>885.5999756</ele>
        <time>2013-07-27T15:36:29Z</time>
      </trkpt>
      <trkpt lat="45.56063" lon="6.70072">
        <ele>884</ele>
        <time>2013-07-27T15:36:34Z</time>
      </trkpt>
      <trkpt lat="45.56062" lon="6.7006">
        <ele>881.5999756</ele>
        <time>2013-07-27T15:36:39Z</time>
      </trkpt>
      <trkpt lat="45.56059" lon="6.70053">
        <ele>880.2000122</ele>
        <time>2013-07-27T15:36:44Z</time>
      </trkpt>
      <trkpt lat="45.56054" lon="6.70044">
        <ele>880</ele>
        <time>2013-07-27T15:36:52Z</time>
      </trkpt>
      <trkpt lat="45.56051" lon="6.70033">
        <ele>878.7999878</ele>
        <time>2013-07-27T15:36:59Z</time>
      </trkpt>
      <trkpt lat="45.5605" lon="6.70025">
        <ele>877.5999756</ele>
        <time>2013-07-27T15:37:04Z</time>
      </trkpt>
      <trkpt lat="45.56053" lon="6.70014">
        <ele>877.4000244</ele>
        <time>2013-07-27T15:37:11Z</time>
      </trkpt>
      <trkpt lat="45.5606" lon="6.70008">
        <ele>879.4000244</ele>
        <time>2013-07-27T15:37:17Z</time>
      </trkpt>
      <trkpt lat="45.56055" lon="6.70001">
        <ele>881</ele>
        <time>2013-07-27T15:37:24Z</time>
      </trkpt>
      <trkpt lat="45.56053" lon="6.69992">
        <ele>880.5999756</ele>
        <time>2013-07-27T15:37:31Z</time>
      </trkpt>
      <trkpt lat="45.56048" lon="6.69986">
        <ele>879</ele>
        <time>2013-07-27T15:37:38Z</time>
      </trkpt>
      <trkpt lat="45.56046" lon="6.69979">
        <ele>877</ele>
        <time>2013-07-27T15:37:45Z</time>
      </trkpt>
      <trkpt lat="45.56046" lon="6.69969">
        <ele>877.4000244</ele>
        <time>2013-07-27T15:37:51Z</time>
      </trkpt>
      <trkpt lat="45.56046" lon="6.69956">
        <ele>879.2000122</ele>
        <time>2013-07-27T15:37:56Z</time>
      </trkpt>
      <trkpt lat="45.56044" lon="6.69945">
        <ele>880.4000244</ele>
        <time>2013-07-27T15:38:01Z</time>
      </trkpt>
      <trkpt lat="45.56044" lon="6.69935">
        <ele>879.7999878</ele>
        <time>2013-07-27T15:38:06Z</time>
      </trkpt>
      <trkpt lat="45.56038" lon="6.69933">
        <ele>876.4000244</ele>
        <time>2013-07-27T15:38:12Z</time>
      </trkpt>
      <trkpt lat="45.56035" lon="6.69922">
        <ele>872</ele>
        <time>2013-07-27T15:38:18Z</time>
      </trkpt>
      <trkpt lat="45.56033" lon="6.69914">
        <ele>867</ele>
        <time>2013-07-27T15:38:23Z</time>
      </trkpt>
      <trkpt lat="45.5603" lon="6.69904">
        <ele>862.7999878</ele>
        <time>2013-07-27T15:38:28Z</time>
      </trkpt>
      <trkpt lat="45.5603" lon="6.69892">
        <ele>862.5999756</ele>
        <time>2013-07-27T15:38:35Z</time>
      </trkpt>
      <trkpt lat="45.56025" lon="6.69884">
        <ele>863.4000244</ele>
        <time>2013-07-27T15:38:44Z</time>
      </trkpt>
      <trkpt lat="45.56023" lon="6.69875">
        <ele>865.2000122</ele>
        <time>2013-07-27T15:38:52Z</time>
      </trkpt>
      <trkpt lat="45.56028" lon="6.69868">
        <ele>867.2000122</ele>
        <time>2013-07-27T15:38:58Z</time>
      </trkpt>
      <trkpt lat="45.56029" lon="6.69854">
        <ele>867.2000122</ele>
        <time>2013-07-27T15:39:06Z</time>
      </trkpt>
      <trkpt lat="45.5603" lon="6.69845">
        <ele>866.4000244</ele>
        <time>2013-07-27T15:39:14Z</time>
      </trkpt>
      <trkpt lat="45.56036" lon="6.69839">
        <ele>866.2000122</ele>
        <time>2013-07-27T15:39:17Z</time>
      </trkpt>
      <trkpt lat="45.56042" lon="6.69828">
        <ele>865.7999878</ele>
        <time>2013-07-27T15:39:21Z</time>
      </trkpt>
      <trkpt lat="45.56045" lon="6.69817">
        <ele>866.7999878</ele>
        <time>2013-07-27T15:39:28Z</time>
      </trkpt>
      <trkpt lat="45.56038" lon="6.69812">
        <ele>867.5999756</ele>
        <time>2013-07-27T15:39:34Z</time>
      </trkpt>
      <trkpt lat="45.56034" lon="6.69804">
        <ele>870.4000244</ele>
        <time>2013-07-27T15:39:41Z</time>
      </trkpt>
      <trkpt lat="45.56029" lon="6.69794">
        <ele>871.7999878</ele>
        <time>2013-07-27T15:39:46Z</time>
      </trkpt>
      <trkpt lat="45.56028" lon="6.69786">
        <ele>870.5999756</ele>
        <time>2013-07-27T15:39:54Z</time>
      </trkpt>
      <trkpt lat="45.56031" lon="6.69776">
        <ele>870.4000244</ele>
        <time>2013-07-27T15:40:00Z</time>
      </trkpt>
      <trkpt lat="45.56033" lon="6.69768">
        <ele>871.2000122</ele>
        <time>2013-07-27T15:40:06Z</time>
      </trkpt>
      <trkpt lat="45.56038" lon="6.69761">
        <ele>873.5999756</ele>
        <time>2013-07-27T15:40:11Z</time>
      </trkpt>
      <trkpt lat="45.56043" lon="6.69754">
        <ele>876.5999756</ele>
        <time>2013-07-27T15:40:17Z</time>
      </trkpt>
      <trkpt lat="45.56038" lon="6.69746">
        <ele>881.2000122</ele>
        <time>2013-07-27T15:40:42Z</time>
      </trkpt>
      <trkpt lat="45.56033" lon="6.69737">
        <ele>883.5999756</ele>
        <time>2013-07-27T15:40:51Z</time>
      </trkpt>
      <trkpt lat="45.5603" lon="6.69728">
        <ele>883</ele>
        <time>2013-07-27T15:40:58Z</time>
      </trkpt>
      <trkpt lat="45.56039" lon="6.69723">
        <ele>883.7999878</ele>
        <time>2013-07-27T15:41:04Z</time>
      </trkpt>
      <trkpt lat="45.56047" lon="6.69722">
        <ele>885</ele>
        <time>2013-07-27T15:41:09Z</time>
      </trkpt>
      <trkpt lat="45.56056" lon="6.69721">
        <ele>885.7999878</ele>
        <time>2013-07-27T15:41:14Z</time>
      </trkpt>
      <trkpt lat="45.56063" lon="6.69716">
        <ele>886.5999756</ele>
        <time>2013-07-27T15:41:19Z</time>
      </trkpt>
      <trkpt lat="45.5606" lon="6.69701">
        <ele>887.2000122</ele>
        <time>2013-07-27T15:41:25Z</time>
      </trkpt>
      <trkpt lat="45.56066" lon="6.69688">
        <ele>888.4000244</ele>
        <time>2013-07-27T15:41:29Z</time>
      </trkpt>
      <trkpt lat="45.56071" lon="6.69682">
        <ele>889.2000122</ele>
        <time>2013-07-27T15:41:32Z</time>
      </trkpt>
      <trkpt lat="45.5607" lon="6.6967">
        <ele>888.7999878</ele>
        <time>2013-07-27T15:41:38Z</time>
      </trkpt>
      <trkpt lat="45.56065" lon="6.69659">
        <ele>885.4000244</ele>
        <time>2013-07-27T15:41:44Z</time>
      </trkpt>
      <trkpt lat="45.56057" lon="6.6965">
        <ele>882.2000122</ele>
        <time>2013-07-27T15:41:50Z</time>
      </trkpt>
      <trkpt lat="45.56047" lon="6.69648">
        <ele>878.7999878</ele>
        <time>2013-07-27T15:41:55Z</time>
      </trkpt>
      <trkpt lat="45.56054" lon="6.69642">
        <ele>877</ele>
        <time>2013-07-27T15:42:00Z</time>
      </trkpt>
      <trkpt lat="45.56052" lon="6.69641">
        <ele>875.7999878</ele>
        <time>2013-07-27T15:42:06Z</time>
      </trkpt>
      <trkpt lat="45.56047" lon="6.69633">
        <ele>875.4000244</ele>
        <time>2013-07-27T15:42:28Z</time>
      </trkpt>
      <trkpt lat="45.56049" lon="6.69624">
        <ele>876</ele>
        <time>2013-07-27T15:42:33Z</time>
      </trkpt>
      <trkpt lat="45.56049" lon="6.69612">
        <ele>876.5999756</ele>
        <time>2013-07-27T15:42:41Z</time>
      </trkpt>
      <trkpt lat="45.56049" lon="6.69601">
        <ele>877.4000244</ele>
        <time>2013-07-27T15:42:51Z</time>
      </trkpt>
      <trkpt lat="45.56046" lon="6.6959">
        <ele>877.5999756</ele>
        <time>2013-07-27T15:42:58Z</time>
      </trkpt>
      <trkpt lat="45.56047" lon="6.69578">
        <ele>874.2000122</ele>
        <time>2013-07-27T15:43:03Z</time>
      </trkpt>
      <trkpt lat="45.56047" lon="6.69565">
        <ele>866.7999878</ele>
        <time>2013-07-27T15:43:11Z</time>
      </trkpt>
      <trkpt lat="45.56048" lon="6.69554">
        <ele>863.4000244</ele>
        <time>2013-07-27T15:43:17Z</time>
      </trkpt>
      <trkpt lat="45.56053" lon="6.69542">
        <ele>861</ele>
        <time>2013-07-27T15:43:23Z</time>
      </trkpt>
      <trkpt lat="45.56049" lon="6.69533">
        <ele>858.2000122</ele>
        <time>2013-07-27T15:43:30Z</time>
      </trkpt>
      <trkpt lat="45.56047" lon="6.69523">
        <ele>856.5999756</ele>
        <time>2013-07-27T15:43:37Z</time>
      </trkpt>
      <trkpt lat="45.56039" lon="6.69516">
        <ele>857.4000244</ele>
        <time>2013-07-27T15:43:44Z</time>
      </trkpt>
      <trkpt lat="45.56033" lon="6.69508">
        <ele>862</ele>
        <time>2013-07-27T15:43:52Z</time>
      </trkpt>
      <trkpt lat="45.56027" lon="6.69499">
        <ele>863.7999878</ele>
        <time>2013-07-27T15:43:58Z</time>
      </trkpt>
      <trkpt lat="45.56025" lon="6.6949">
        <ele>863.5999756</ele>
        <time>2013-07-27T15:44:03Z</time>
      </trkpt>
      <trkpt lat="45.5602" lon="6.69482">
        <ele>862.2000122</ele>
        <time>2013-07-27T15:44:08Z</time>
      </trkpt>
      <trkpt lat="45.56014" lon="6.69474">
        <ele>861.4000244</ele>
        <time>2013-07-27T15:44:14Z</time>
      </trkpt>
      <trkpt lat="45.56013" lon="6.69462">
        <ele>859</ele>
        <time>2013-07-27T15:44:19Z</time>
      </trkpt>
      <trkpt lat="45.56019" lon="6.69456">
        <ele>857</ele>
        <time>2013-07-27T15:44:22Z</time>
      </trkpt>
      <trkpt lat="45.56018" lon="6.69444">
        <ele>851.5999756</ele>
        <time>2013-07-27T15:44:27Z</time>
      </trkpt>
      <trkpt lat="45.56021" lon="6.69434">
        <ele>849.4000244</ele>
        <time>2013-07-27T15:44:32Z</time>
      </trkpt>
      <trkpt lat="45.56025" lon="6.69422">
        <ele>852.2000122</ele>
        <time>2013-07-27T15:44:39Z</time>
      </trkpt>
      <trkpt lat="45.56031" lon="6.69413">
        <ele>853.5999756</ele>
        <time>2013-07-27T15:44:44Z</time>
      </trkpt>
      <trkpt lat="45.56034" lon="6.69402">
        <ele>850.4000244</ele>
        <time>2013-07-27T15:44:51Z</time>
      </trkpt>
      <trkpt lat="45.56036" lon="6.69391">
        <ele>844.4000244</ele>
        <time>2013-07-27T15:44:59Z</time>
      </trkpt>
      <trkpt lat="45.56036" lon="6.69381">
        <ele>842.4000244</ele>
        <time>2013-07-27T15:45:04Z</time>
      </trkpt>
      <trkpt lat="45.56033" lon="6.69372">
        <ele>842.4000244</ele>
        <time>2013-07-27T15:45:09Z</time>
      </trkpt>
      <trkpt lat="45.5603" lon="6.69364">
        <ele>843.2000122</ele>
        <time>2013-07-27T15:45:14Z</time>
      </trkpt>
      <trkpt lat="45.56027" lon="6.69354">
        <ele>845.4000244</ele>
        <time>2013-07-27T15:45:19Z</time>
      </trkpt>
      <trkpt lat="45.56023" lon="6.69346">
        <ele>847.5999756</ele>
        <time>2013-07-27T15:45:24Z</time>
      </trkpt>
      <trkpt lat="45.56016" lon="6.69338">
        <ele>848.2000122</ele>
        <time>2013-07-27T15:45:30Z</time>
      </trkpt>
      <trkpt lat="45.56012" lon="6.69326">
        <ele>846.7999878</ele>
        <time>2013-07-27T15:45:36Z</time>
      </trkpt>
      <trkpt lat="45.56012" lon="6.69316">
        <ele>844.7999878</ele>
        <time>2013-07-27T15:45:40Z</time>
      </trkpt>
      <trkpt lat="45.56014" lon="6.69307">
        <ele>842.7999878</ele>
        <time>2013-07-27T15:45:45Z</time>
      </trkpt>
      <trkpt lat="45.56018" lon="6.69299">
        <ele>842.5999756</ele>
        <time>2013-07-27T15:45:50Z</time>
      </trkpt>
      <trkpt lat="45.56022" lon="6.69292">
        <ele>842.7999878</ele>
        <time>2013-07-27T15:45:55Z</time>
      </trkpt>
      <trkpt lat="45.56021" lon="6.69282">
        <ele>842.7999878</ele>
        <time>2013-07-27T15:46:01Z</time>
      </trkpt>
      <trkpt lat="45.5602" lon="6.69269">
        <ele>841.7999878</ele>
        <time>2013-07-27T15:46:08Z</time>
      </trkpt>
      <trkpt lat="45.56017" lon="6.69256">
        <ele>841.2000122</ele>
        <time>2013-07-27T15:46:15Z</time>
      </trkpt>
      <trkpt lat="45.56013" lon="6.69247">
        <ele>843.5999756</ele>
        <time>2013-07-27T15:46:20Z</time>
      </trkpt>
      <trkpt lat="45.56012" lon="6.69235">
        <ele>847.4000244</ele>
        <time>2013-07-27T15:46:25Z</time>
      </trkpt>
      <trkpt lat="45.56007" lon="6.69224">
        <ele>851.5999756</ele>
        <time>2013-07-27T15:46:31Z</time>
      </trkpt>
      <trkpt lat="45.56002" lon="6.69216">
        <ele>854</ele>
        <time>2013-07-27T15:46:37Z</time>
      </trkpt>
      <trkpt lat="45.55996" lon="6.6921">
        <ele>855</ele>
        <time>2013-07-27T15:46:42Z</time>
      </trkpt>
      <trkpt lat="45.5599" lon="6.69203">
        <ele>856.5999756</ele>
        <time>2013-07-27T15:46:49Z</time>
      </trkpt>
      <trkpt lat="45.55984" lon="6.69201">
        <ele>856.7999878</ele>
        <time>2013-07-27T15:46:54Z</time>
      </trkpt>
      <trkpt lat="45.55976" lon="6.69196">
        <ele>856.7999878</ele>
        <time>2013-07-27T15:47:00Z</time>
      </trkpt>
      <trkpt lat="45.55972" lon="6.69186">
        <ele>855.5999756</ele>
        <time>2013-07-27T15:47:06Z</time>
      </trkpt>
      <trkpt lat="45.55975" lon="6.69176">
        <ele>852.2000122</ele>
        <time>2013-07-27T15:47:11Z</time>
      </trkpt>
      <trkpt lat="45.55976" lon="6.69163">
        <ele>847.5999756</ele>
        <time>2013-07-27T15:47:17Z</time>
      </trkpt>
      <trkpt lat="45.55972" lon="6.69153">
        <ele>843.5999756</ele>
        <time>2013-07-27T15:47:22Z</time>
      </trkpt>
      <trkpt lat="45.55967" lon="6.69144">
        <ele>841.5999756</ele>
        <time>2013-07-27T15:47:27Z</time>
      </trkpt>
      <trkpt lat="45.55965" lon="6.69135">
        <ele>842.5999756</ele>
        <time>2013-07-27T15:47:32Z</time>
      </trkpt>
      <trkpt lat="45.55961" lon="6.69127">
        <ele>844</ele>
        <time>2013-07-27T15:47:37Z</time>
      </trkpt>
      <trkpt lat="45.5596" lon="6.69117">
        <ele>845.7999878</ele>
        <time>2013-07-27T15:47:42Z</time>
      </trkpt>
      <trkpt lat="45.5596" lon="6.69104">
        <ele>847.5999756</ele>
        <time>2013-07-27T15:47:48Z</time>
      </trkpt>
      <trkpt lat="45.55967" lon="6.69092">
        <ele>850.2000122</ele>
        <time>2013-07-27T15:47:53Z</time>
      </trkpt>
      <trkpt lat="45.55972" lon="6.69082">
        <ele>852.4000244</ele>
        <time>2013-07-27T15:47:58Z</time>
      </trkpt>
      <trkpt lat="45.55975" lon="6.69074">
        <ele>854.7999878</ele>
        <time>2013-07-27T15:48:04Z</time>
      </trkpt>
      <trkpt lat="45.55976" lon="6.6906">
        <ele>855</ele>
        <time>2013-07-27T15:48:11Z</time>
      </trkpt>
      <trkpt lat="45.55974" lon="6.69051">
        <ele>855.4000244</ele>
        <time>2013-07-27T15:48:16Z</time>
      </trkpt>
      <trkpt lat="45.55975" lon="6.69041">
        <ele>856</ele>
        <time>2013-07-27T15:48:23Z</time>
      </trkpt>
      <trkpt lat="45.55979" lon="6.69029">
        <ele>854.5999756</ele>
        <time>2013-07-27T15:48:30Z</time>
      </trkpt>
      <trkpt lat="45.55981" lon="6.69018">
        <ele>852</ele>
        <time>2013-07-27T15:48:36Z</time>
      </trkpt>
      <trkpt lat="45.55975" lon="6.69012">
        <ele>852.2000122</ele>
        <time>2013-07-27T15:48:42Z</time>
      </trkpt>
      <trkpt lat="45.55968" lon="6.69001">
        <ele>854.5999756</ele>
        <time>2013-07-27T15:48:48Z</time>
      </trkpt>
      <trkpt lat="45.55966" lon="6.68988">
        <ele>857.2000122</ele>
        <time>2013-07-27T15:48:53Z</time>
      </trkpt>
      <trkpt lat="45.55965" lon="6.68979">
        <ele>856.7999878</ele>
        <time>2013-07-27T15:48:59Z</time>
      </trkpt>
      <trkpt lat="45.55962" lon="6.68972">
        <ele>855</ele>
        <time>2013-07-27T15:49:07Z</time>
      </trkpt>
      <trkpt lat="45.55967" lon="6.68965">
        <ele>852</ele>
        <time>2013-07-27T15:49:12Z</time>
      </trkpt>
      <trkpt lat="45.55974" lon="6.68955">
        <ele>848.4000244</ele>
        <time>2013-07-27T15:49:17Z</time>
      </trkpt>
      <trkpt lat="45.55968" lon="6.68947">
        <ele>845.4000244</ele>
        <time>2013-07-27T15:49:22Z</time>
      </trkpt>
      <trkpt lat="45.55963" lon="6.68938">
        <ele>842.4000244</ele>
        <time>2013-07-27T15:49:28Z</time>
      </trkpt>
      <trkpt lat="45.55956" lon="6.6893">
        <ele>842.2000122</ele>
        <time>2013-07-27T15:49:34Z</time>
      </trkpt>
      <trkpt lat="45.5595" lon="6.68927">
        <ele>842.7999878</ele>
        <time>2013-07-27T15:49:38Z</time>
      </trkpt>
      <trkpt lat="45.55944" lon="6.68922">
        <ele>844.2000122</ele>
        <time>2013-07-27T15:49:43Z</time>
      </trkpt>
      <trkpt lat="45.55936" lon="6.68918">
        <ele>843.2000122</ele>
        <time>2013-07-27T15:49:48Z</time>
      </trkpt>
      <trkpt lat="45.55929" lon="6.68915">
        <ele>841.2000122</ele>
        <time>2013-07-27T15:49:52Z</time>
      </trkpt>
      <trkpt lat="45.55925" lon="6.68904">
        <ele>837.5999756</ele>
        <time>2013-07-27T15:50:01Z</time>
      </trkpt>
      <trkpt lat="45.55922" lon="6.68893">
        <ele>836.2000122</ele>
        <time>2013-07-27T15:50:08Z</time>
      </trkpt>
      <trkpt lat="45.55919" lon="6.68888">
        <ele>834</ele>
        <time>2013-07-27T15:50:17Z</time>
      </trkpt>
      <trkpt lat="45.55915" lon="6.6888">
        <ele>832.2000122</ele>
        <time>2013-07-27T15:50:24Z</time>
      </trkpt>
      <trkpt lat="45.55914" lon="6.68868">
        <ele>831.2000122</ele>
        <time>2013-07-27T15:50:31Z</time>
      </trkpt>
      <trkpt lat="45.55908" lon="6.68861">
        <ele>830</ele>
        <time>2013-07-27T15:50:37Z</time>
      </trkpt>
      <trkpt lat="45.55906" lon="6.68853">
        <ele>830</ele>
        <time>2013-07-27T15:50:44Z</time>
      </trkpt>
      <trkpt lat="45.55903" lon="6.68843">
        <ele>833.2000122</ele>
        <time>2013-07-27T15:50:53Z</time>
      </trkpt>
      <trkpt lat="45.55899" lon="6.68835">
        <ele>834</ele>
        <time>2013-07-27T15:50:58Z</time>
      </trkpt>
      <trkpt lat="45.55897" lon="6.68825">
        <ele>834.4000244</ele>
        <time>2013-07-27T15:51:05Z</time>
      </trkpt>
      <trkpt lat="45.55894" lon="6.68815">
        <ele>835.4000244</ele>
        <time>2013-07-27T15:51:13Z</time>
      </trkpt>
      <trkpt lat="45.55895" lon="6.68805">
        <ele>834.7999878</ele>
        <time>2013-07-27T15:51:19Z</time>
      </trkpt>
      <trkpt lat="45.55896" lon="6.68796">
        <ele>833</ele>
        <time>2013-07-27T15:51:25Z</time>
      </trkpt>
      <trkpt lat="45.55891" lon="6.68787">
        <ele>831.7999878</ele>
        <time>2013-07-27T15:51:30Z</time>
      </trkpt>
      <trkpt lat="45.55887" lon="6.68777">
        <ele>829.5999756</ele>
        <time>2013-07-27T15:51:38Z</time>
      </trkpt>
      <trkpt lat="45.55883" lon="6.6877">
        <ele>827</ele>
        <time>2013-07-27T15:51:44Z</time>
      </trkpt>
      <trkpt lat="45.55878" lon="6.68766">
        <ele>824.4000244</ele>
        <time>2013-07-27T15:51:51Z</time>
      </trkpt>
      <trkpt lat="45.5587" lon="6.68762">
        <ele>825</ele>
        <time>2013-07-27T15:51:58Z</time>
      </trkpt>
      <trkpt lat="45.55862" lon="6.68761">
        <ele>825</ele>
        <time>2013-07-27T15:52:02Z</time>
      </trkpt>
      <trkpt lat="45.55854" lon="6.68757">
        <ele>825.2000122</ele>
        <time>2013-07-27T15:52:06Z</time>
      </trkpt>
      <trkpt lat="45.55848" lon="6.68747">
        <ele>825.5999756</ele>
        <time>2013-07-27T15:52:11Z</time>
      </trkpt>
      <trkpt lat="45.55848" lon="6.68733">
        <ele>826</ele>
        <time>2013-07-27T15:52:19Z</time>
      </trkpt>
      <trkpt lat="45.55848" lon="6.68722">
        <ele>826.5999756</ele>
        <time>2013-07-27T15:52:26Z</time>
      </trkpt>
      <trkpt lat="45.55851" lon="6.68708">
        <ele>827.5999756</ele>
        <time>2013-07-27T15:52:32Z</time>
      </trkpt>
      <trkpt lat="45.55845" lon="6.68696">
        <ele>828</ele>
        <time>2013-07-27T15:52:39Z</time>
      </trkpt>
      <trkpt lat="45.5584" lon="6.68689">
        <ele>826.7999878</ele>
        <time>2013-07-27T15:52:45Z</time>
      </trkpt>
      <trkpt lat="45.55839" lon="6.68676">
        <ele>824.7999878</ele>
        <time>2013-07-27T15:52:52Z</time>
      </trkpt>
      <trkpt lat="45.55835" lon="6.68665">
        <ele>824.2000122</ele>
        <time>2013-07-27T15:52:57Z</time>
      </trkpt>
      <trkpt lat="45.55835" lon="6.68656">
        <ele>824.2000122</ele>
        <time>2013-07-27T15:53:01Z</time>
      </trkpt>
      <trkpt lat="45.55832" lon="6.68648">
        <ele>824.4000244</ele>
        <time>2013-07-27T15:53:04Z</time>
      </trkpt>
      <trkpt lat="45.55825" lon="6.68644">
        <ele>824.5999756</ele>
        <time>2013-07-27T15:53:10Z</time>
      </trkpt>
      <trkpt lat="45.55817" lon="6.68635">
        <ele>824.7999878</ele>
        <time>2013-07-27T15:53:16Z</time>
      </trkpt>
      <trkpt lat="45.55814" lon="6.68626">
        <ele>824.7999878</ele>
        <time>2013-07-27T15:53:21Z</time>
      </trkpt>
      <trkpt lat="45.55809" lon="6.68618">
        <ele>822.7999878</ele>
        <time>2013-07-27T15:53:26Z</time>
      </trkpt>
      <trkpt lat="45.55808" lon="6.68606">
        <ele>820</ele>
        <time>2013-07-27T15:53:31Z</time>
      </trkpt>
      <trkpt lat="45.55803" lon="6.68598">
        <ele>817.4000244</ele>
        <time>2013-07-27T15:53:38Z</time>
      </trkpt>
      <trkpt lat="45.55797" lon="6.68592">
        <ele>816.4000244</ele>
        <time>2013-07-27T15:53:43Z</time>
      </trkpt>
      <trkpt lat="45.55798" lon="6.68572">
        <ele>815.7999878</ele>
        <time>2013-07-27T15:53:49Z</time>
      </trkpt>
      <trkpt lat="45.55798" lon="6.68563">
        <ele>815</ele>
        <time>2013-07-27T15:53:53Z</time>
      </trkpt>
      <trkpt lat="45.55793" lon="6.68549">
        <ele>815</ele>
        <time>2013-07-27T15:53:58Z</time>
      </trkpt>
      <trkpt lat="45.55789" lon="6.6854">
        <ele>816.7999878</ele>
        <time>2013-07-27T15:54:00Z</time>
      </trkpt>
      <trkpt lat="45.55785" lon="6.68527">
        <ele>818.7999878</ele>
        <time>2013-07-27T15:54:03Z</time>
      </trkpt>
      <trkpt lat="45.5578" lon="6.68515">
        <ele>824.7999878</ele>
        <time>2013-07-27T15:54:07Z</time>
      </trkpt>
      <trkpt lat="45.55778" lon="6.68506">
        <ele>827.7999878</ele>
        <time>2013-07-27T15:54:10Z</time>
      </trkpt>
      <trkpt lat="45.55771" lon="6.68493">
        <ele>831</ele>
        <time>2013-07-27T15:54:15Z</time>
      </trkpt>
      <trkpt lat="45.55766" lon="6.68485">
        <ele>833</ele>
        <time>2013-07-27T15:54:19Z</time>
      </trkpt>
      <trkpt lat="45.55761" lon="6.68476">
        <ele>834</ele>
        <time>2013-07-27T15:54:24Z</time>
      </trkpt>
      <trkpt lat="45.55756" lon="6.6847">
        <ele>835.5999756</ele>
        <time>2013-07-27T15:54:28Z</time>
      </trkpt>
      <trkpt lat="45.55755" lon="6.68455">
        <ele>836.5999756</ele>
        <time>2013-07-27T15:54:35Z</time>
      </trkpt>
      <trkpt lat="45.55754" lon="6.68445">
        <ele>837.4000244</ele>
        <time>2013-07-27T15:54:40Z</time>
      </trkpt>
      <trkpt lat="45.55745" lon="6.6844">
        <ele>838</ele>
        <time>2013-07-27T15:54:45Z</time>
      </trkpt>
      <trkpt lat="45.5574" lon="6.6844">
        <ele>838.5999756</ele>
        <time>2013-07-27T15:54:56Z</time>
      </trkpt>
      <trkpt lat="45.55735" lon="6.6844">
        <ele>837.2000122</ele>
        <time>2013-07-27T15:55:11Z</time>
      </trkpt>
      <trkpt lat="45.5573" lon="6.68447">
        <ele>836.4000244</ele>
        <time>2013-07-27T15:55:23Z</time>
      </trkpt>
      <trkpt lat="45.55738" lon="6.68441">
        <ele>833.5999756</ele>
        <time>2013-07-27T15:56:17Z</time>
      </trkpt>
      <trkpt lat="45.55747" lon="6.68437">
        <ele>829.5999756</ele>
        <time>2013-07-27T15:56:21Z</time>
      </trkpt>
      <trkpt lat="45.55752" lon="6.68432">
        <ele>824.5999756</ele>
        <time>2013-07-27T15:56:30Z</time>
      </trkpt>
      <trkpt lat="45.55759" lon="6.68431">
        <ele>821.7999878</ele>
        <time>2013-07-27T15:56:40Z</time>
      </trkpt>
      <trkpt lat="45.55759" lon="6.68433">
        <ele>820.2000122</ele>
        <time>2013-07-27T15:57:02Z</time>
      </trkpt>
      <trkpt lat="45.55766" lon="6.68436">
        <ele>819</ele>
        <time>2013-07-27T15:57:09Z</time>
      </trkpt>
      <trkpt lat="45.55774" lon="6.68439">
        <ele>817.2000122</ele>
        <time>2013-07-27T15:57:14Z</time>
      </trkpt>
      <trkpt lat="45.55782" lon="6.68442">
        <ele>816</ele>
        <time>2013-07-27T15:57:19Z</time>
      </trkpt>
      <trkpt lat="45.5579" lon="6.68446">
        <ele>815.5999756</ele>
        <time>2013-07-27T15:57:24Z</time>
      </trkpt>
      <trkpt lat="45.55798" lon="6.68448">
        <ele>814</ele>
        <time>2013-07-27T15:57:29Z</time>
      </trkpt>
      <trkpt lat="45.55804" lon="6.6845">
        <ele>812</ele>
        <time>2013-07-27T15:57:33Z</time>
      </trkpt>
      <trkpt lat="45.55811" lon="6.68455">
        <ele>811</ele>
        <time>2013-07-27T15:57:38Z</time>
      </trkpt>
      <trkpt lat="45.55814" lon="6.68462">
        <ele>810</ele>
        <time>2013-07-27T15:57:49Z</time>
      </trkpt>
      <trkpt lat="45.55812" lon="6.68466">
        <ele>804.5999756</ele>
        <time>2013-07-27T15:58:32Z</time>
      </trkpt>
      <trkpt lat="45.55816" lon="6.68473">
        <ele>806</ele>
        <time>2013-07-27T15:58:49Z</time>
      </trkpt>
      <trkpt lat="45.55823" lon="6.68475">
        <ele>807.5999756</ele>
        <time>2013-07-27T15:59:04Z</time>
      </trkpt>
      <trkpt lat="45.5583" lon="6.68473">
        <ele>807</ele>
        <time>2013-07-27T15:59:09Z</time>
      </trkpt>
      <trkpt lat="45.55835" lon="6.68466">
        <ele>805.4000244</ele>
        <time>2013-07-27T15:59:14Z</time>
      </trkpt>
      <trkpt lat="45.55841" lon="6.68454">
        <ele>803.5999756</ele>
        <time>2013-07-27T15:59:24Z</time>
      </trkpt>
      <trkpt lat="45.55847" lon="6.68445">
        <ele>802.4000244</ele>
        <time>2013-07-27T15:59:32Z</time>
      </trkpt>
      <trkpt lat="45.55852" lon="6.68437">
        <ele>801.2000122</ele>
        <time>2013-07-27T15:59:40Z</time>
      </trkpt>
      <trkpt lat="45.55859" lon="6.68432">
        <ele>800.7999878</ele>
        <time>2013-07-27T15:59:46Z</time>
      </trkpt>
      <trkpt lat="45.55867" lon="6.68428">
        <ele>799.7999878</ele>
        <time>2013-07-27T15:59:54Z</time>
      </trkpt>
      <trkpt lat="45.55872" lon="6.68422">
        <ele>799.2000122</ele>
        <time>2013-07-27T16:00:01Z</time>
      </trkpt>
      <trkpt lat="45.55878" lon="6.6842">
        <ele>799.4000244</ele>
        <time>2013-07-27T16:00:07Z</time>
      </trkpt>
      <trkpt lat="45.55888" lon="6.68418">
        <ele>798.7999878</ele>
        <time>2013-07-27T16:00:16Z</time>
      </trkpt>
      <trkpt lat="45.55893" lon="6.68413">
        <ele>797.7999878</ele>
        <time>2013-07-27T16:00:22Z</time>
      </trkpt>
      <trkpt lat="45.55901" lon="6.68408">
        <ele>796.4000244</ele>
        <time>2013-07-27T16:00:31Z</time>
      </trkpt>
      <trkpt lat="45.55911" lon="6.68405">
        <ele>794.2000122</ele>
        <time>2013-07-27T16:00:37Z</time>
      </trkpt>
      <trkpt lat="45.55918" lon="6.68405">
        <ele>792</ele>
        <time>2013-07-27T16:00:42Z</time>
      </trkpt>
      <trkpt lat="45.55925" lon="6.68402">
        <ele>789.7999878</ele>
        <time>2013-07-27T16:00:48Z</time>
      </trkpt>
      <trkpt lat="45.55933" lon="6.68402">
        <ele>785.7999878</ele>
        <time>2013-07-27T16:00:56Z</time>
      </trkpt>
      <trkpt lat="45.55942" lon="6.68405">
        <ele>785.7999878</ele>
        <time>2013-07-27T16:01:04Z</time>
      </trkpt>
      <trkpt lat="45.55952" lon="6.68409">
        <ele>785.5999756</ele>
        <time>2013-07-27T16:01:12Z</time>
      </trkpt>
      <trkpt lat="45.55958" lon="6.68412">
        <ele>785</ele>
        <time>2013-07-27T16:01:17Z</time>
      </trkpt>
      <trkpt lat="45.55965" lon="6.68411">
        <ele>784.2000122</ele>
        <time>2013-07-27T16:01:24Z</time>
      </trkpt>
      <trkpt lat="45.55975" lon="6.68411">
        <ele>784.4000244</ele>
        <time>2013-07-27T16:01:32Z</time>
      </trkpt>
      <trkpt lat="45.55984" lon="6.68409">
        <ele>783.4000244</ele>
        <time>2013-07-27T16:01:38Z</time>
      </trkpt>
      <trkpt lat="45.5599" lon="6.6841">
        <ele>780.5999756</ele>
        <time>2013-07-27T16:01:46Z</time>
      </trkpt>
      <trkpt lat="45.55998" lon="6.68411">
        <ele>778.5999756</ele>
        <time>2013-07-27T16:01:54Z</time>
      </trkpt>
      <trkpt lat="45.56007" lon="6.68408">
        <ele>776.5999756</ele>
        <time>2013-07-27T16:02:03Z</time>
      </trkpt>
      <trkpt lat="45.56015" lon="6.68403">
        <ele>776.4000244</ele>
        <time>2013-07-27T16:02:10Z</time>
      </trkpt>
      <trkpt lat="45.5602" lon="6.68396">
        <ele>775.5999756</ele>
        <time>2013-07-27T16:02:16Z</time>
      </trkpt>
      <trkpt lat="45.56025" lon="6.68389">
        <ele>773.5999756</ele>
        <time>2013-07-27T16:02:21Z</time>
      </trkpt>
      <trkpt lat="45.56025" lon="6.68386">
        <ele>772.2000122</ele>
        <time>2013-07-27T16:02:41Z</time>
      </trkpt>
      <trkpt lat="45.56028" lon="6.68395">
        <ele>772</ele>
        <time>2013-07-27T16:02:52Z</time>
      </trkpt>
      <trkpt lat="45.5603" lon="6.68397">
        <ele>773.2000122</ele>
        <time>2013-07-27T16:03:54Z</time>
      </trkpt>
      <trkpt lat="45.5603" lon="6.68387">
        <ele>767.4000244</ele>
        <time>2013-07-27T16:04:31Z</time>
      </trkpt>
      <trkpt lat="45.56031" lon="6.68378">
        <ele>764.4000244</ele>
        <time>2013-07-27T16:04:38Z</time>
      </trkpt>
      <trkpt lat="45.56032" lon="6.68368">
        <ele>762.7999878</ele>
        <time>2013-07-27T16:04:43Z</time>
      </trkpt>
      <trkpt lat="45.56034" lon="6.68356">
        <ele>761.2000122</ele>
        <time>2013-07-27T16:04:49Z</time>
      </trkpt>
      <trkpt lat="45.56037" lon="6.68344">
        <ele>759.5999756</ele>
        <time>2013-07-27T16:04:57Z</time>
      </trkpt>
      <trkpt lat="45.56041" lon="6.68335">
        <ele>758.2000122</ele>
        <time>2013-07-27T16:05:04Z</time>
      </trkpt>
      <trkpt lat="45.56047" lon="6.68328">
        <ele>757.5999756</ele>
        <time>2013-07-27T16:05:11Z</time>
      </trkpt>
      <trkpt lat="45.56052" lon="6.68322">
        <ele>756.5999756</ele>
        <time>2013-07-27T16:05:17Z</time>
      </trkpt>
      <trkpt lat="45.56059" lon="6.68315">
        <ele>754.4000244</ele>
        <time>2013-07-27T16:05:24Z</time>
      </trkpt>
      <trkpt lat="45.56063" lon="6.68307">
        <ele>753.7999878</ele>
        <time>2013-07-27T16:05:31Z</time>
      </trkpt>
      <trkpt lat="45.56063" lon="6.68298">
        <ele>756</ele>
        <time>2013-07-27T16:05:40Z</time>
      </trkpt>
      <trkpt lat="45.5606" lon="6.6829">
        <ele>758</ele>
        <time>2013-07-27T16:05:48Z</time>
      </trkpt>
      <trkpt lat="45.56063" lon="6.68275">
        <ele>758.2000122</ele>
        <time>2013-07-27T16:05:59Z</time>
      </trkpt>
      <trkpt lat="45.56066" lon="6.68266">
        <ele>757.5999756</ele>
        <time>2013-07-27T16:06:04Z</time>
      </trkpt>
      <trkpt lat="45.56068" lon="6.68253">
        <ele>755.5999756</ele>
        <time>2013-07-27T16:06:10Z</time>
      </trkpt>
      <trkpt lat="45.5607" lon="6.68242">
        <ele>755.7999878</ele>
        <time>2013-07-27T16:06:17Z</time>
      </trkpt>
      <trkpt lat="45.56075" lon="6.68233">
        <ele>754</ele>
        <time>2013-07-27T16:06:24Z</time>
      </trkpt>
      <trkpt lat="45.56083" lon="6.68225">
        <ele>747.4000244</ele>
        <time>2013-07-27T16:06:31Z</time>
      </trkpt>
      <trkpt lat="45.56091" lon="6.68217">
        <ele>741.7999878</ele>
        <time>2013-07-27T16:06:39Z</time>
      </trkpt>
      <trkpt lat="45.56097" lon="6.6821">
        <ele>740.2000122</ele>
        <time>2013-07-27T16:06:45Z</time>
      </trkpt>
      <trkpt lat="45.56103" lon="6.68204">
        <ele>739.2000122</ele>
        <time>2013-07-27T16:06:53Z</time>
      </trkpt>
      <trkpt lat="45.56108" lon="6.68194">
        <ele>737.7999878</ele>
        <time>2013-07-27T16:07:02Z</time>
      </trkpt>
      <trkpt lat="45.56108" lon="6.68184">
        <ele>739.4000244</ele>
        <time>2013-07-27T16:07:10Z</time>
      </trkpt>
      <trkpt lat="45.56109" lon="6.68174">
        <ele>740.7999878</ele>
        <time>2013-07-27T16:07:17Z</time>
      </trkpt>
      <trkpt lat="45.56114" lon="6.68165">
        <ele>741</ele>
        <time>2013-07-27T16:07:23Z</time>
      </trkpt>
      <trkpt lat="45.56119" lon="6.68159">
        <ele>738.2000122</ele>
        <time>2013-07-27T16:07:28Z</time>
      </trkpt>
      <trkpt lat="45.56126" lon="6.68153">
        <ele>736.5999756</ele>
        <time>2013-07-27T16:07:35Z</time>
      </trkpt>
      <trkpt lat="45.56131" lon="6.68147">
        <ele>736.4000244</ele>
        <time>2013-07-27T16:07:42Z</time>
      </trkpt>
      <trkpt lat="45.56137" lon="6.68141">
        <ele>736.4000244</ele>
        <time>2013-07-27T16:07:49Z</time>
      </trkpt>
      <trkpt lat="45.56141" lon="6.6813">
        <ele>735.4000244</ele>
        <time>2013-07-27T16:07:56Z</time>
      </trkpt>
      <trkpt lat="45.56142" lon="6.68121">
        <ele>733.7999878</ele>
        <time>2013-07-27T16:08:02Z</time>
      </trkpt>
      <trkpt lat="45.56145" lon="6.68112">
        <ele>732.5999756</ele>
        <time>2013-07-27T16:08:11Z</time>
      </trkpt>
      <trkpt lat="45.56152" lon="6.68106">
        <ele>731.4000244</ele>
        <time>2013-07-27T16:08:20Z</time>
      </trkpt>
      <trkpt lat="45.56159" lon="6.68101">
        <ele>731.7999878</ele>
        <time>2013-07-27T16:08:28Z</time>
      </trkpt>
      <trkpt lat="45.56165" lon="6.68095">
        <ele>733.2000122</ele>
        <time>2013-07-27T16:08:34Z</time>
      </trkpt>
      <trkpt lat="45.56173" lon="6.68087">
        <ele>733</ele>
        <time>2013-07-27T16:08:41Z</time>
      </trkpt>
      <trkpt lat="45.56177" lon="6.68079">
        <ele>732</ele>
        <time>2013-07-27T16:08:46Z</time>
      </trkpt>
      <trkpt lat="45.56179" lon="6.68067">
        <ele>731.5999756</ele>
        <time>2013-07-27T16:08:55Z</time>
      </trkpt>
      <trkpt lat="45.56179" lon="6.68056">
        <ele>732</ele>
        <time>2013-07-27T16:09:03Z</time>
      </trkpt>
      <trkpt lat="45.56181" lon="6.68045">
        <ele>730.2000122</ele>
        <time>2013-07-27T16:09:11Z</time>
      </trkpt>
      <trkpt lat="45.56181" lon="6.68032">
        <ele>726.4000244</ele>
        <time>2013-07-27T16:09:19Z</time>
      </trkpt>
      <trkpt lat="45.56182" lon="6.68021">
        <ele>724.4000244</ele>
        <time>2013-07-27T16:09:24Z</time>
      </trkpt>
      <trkpt lat="45.56185" lon="6.68012">
        <ele>724</ele>
        <time>2013-07-27T16:09:29Z</time>
      </trkpt>
      <trkpt lat="45.56188" lon="6.67996">
        <ele>725.2000122</ele>
        <time>2013-07-27T16:09:38Z</time>
      </trkpt>
      <trkpt lat="45.5619" lon="6.67986">
        <ele>724.5999756</ele>
        <time>2013-07-27T16:09:43Z</time>
      </trkpt>
      <trkpt lat="45.56193" lon="6.67976">
        <ele>723.4000244</ele>
        <time>2013-07-27T16:09:49Z</time>
      </trkpt>
      <trkpt lat="45.56197" lon="6.67969">
        <ele>721.7999878</ele>
        <time>2013-07-27T16:09:54Z</time>
      </trkpt>
      <trkpt lat="45.56199" lon="6.67964">
        <ele>716</ele>
        <time>2013-07-27T16:10:21Z</time>
      </trkpt>
      <trkpt lat="45.56203" lon="6.67955">
        <ele>715.7999878</ele>
        <time>2013-07-27T16:10:30Z</time>
      </trkpt>
      <trkpt lat="45.56208" lon="6.67947">
        <ele>715.5999756</ele>
        <time>2013-07-27T16:10:35Z</time>
      </trkpt>
      <trkpt lat="45.56216" lon="6.67938">
        <ele>715</ele>
        <time>2013-07-27T16:10:43Z</time>
      </trkpt>
      <trkpt lat="45.56223" lon="6.67934">
        <ele>712.5999756</ele>
        <time>2013-07-27T16:10:50Z</time>
      </trkpt>
      <trkpt lat="45.56229" lon="6.6793">
        <ele>709.7999878</ele>
        <time>2013-07-27T16:10:55Z</time>
      </trkpt>
      <trkpt lat="45.56233" lon="6.6792">
        <ele>707.5999756</ele>
        <time>2013-07-27T16:11:03Z</time>
      </trkpt>
      <trkpt lat="45.56232" lon="6.6791">
        <ele>709.4000244</ele>
        <time>2013-07-27T16:11:13Z</time>
      </trkpt>
      <trkpt lat="45.56232" lon="6.67896">
        <ele>709.5999756</ele>
        <time>2013-07-27T16:11:22Z</time>
      </trkpt>
      <trkpt lat="45.56234" lon="6.6789">
        <ele>709.4000244</ele>
        <time>2013-07-27T16:11:32Z</time>
      </trkpt>
      <trkpt lat="45.5624" lon="6.67879">
        <ele>707</ele>
        <time>2013-07-27T16:11:39Z</time>
      </trkpt>
      <trkpt lat="45.56246" lon="6.67867">
        <ele>705.2000122</ele>
        <time>2013-07-27T16:11:44Z</time>
      </trkpt>
      <trkpt lat="45.5625" lon="6.67858">
        <ele>704.7999878</ele>
        <time>2013-07-27T16:11:49Z</time>
      </trkpt>
      <trkpt lat="45.56249" lon="6.67849">
        <ele>705.4000244</ele>
        <time>2013-07-27T16:11:54Z</time>
      </trkpt>
      <trkpt lat="45.5625" lon="6.6784">
        <ele>705.7999878</ele>
        <time>2013-07-27T16:11:59Z</time>
      </trkpt>
      <trkpt lat="45.56252" lon="6.67827">
        <ele>707</ele>
        <time>2013-07-27T16:12:06Z</time>
      </trkpt>
      <trkpt lat="45.56258" lon="6.67812">
        <ele>707</ele>
        <time>2013-07-27T16:12:14Z</time>
      </trkpt>
      <trkpt lat="45.56261" lon="6.67799">
        <ele>703.7999878</ele>
        <time>2013-07-27T16:12:20Z</time>
      </trkpt>
      <trkpt lat="45.5626" lon="6.67789">
        <ele>700.4000244</ele>
        <time>2013-07-27T16:12:26Z</time>
      </trkpt>
      <trkpt lat="45.56255" lon="6.67779">
        <ele>699.7999878</ele>
        <time>2013-07-27T16:12:35Z</time>
      </trkpt>
      <trkpt lat="45.56253" lon="6.67769">
        <ele>700.7999878</ele>
        <time>2013-07-27T16:12:42Z</time>
      </trkpt>
      <trkpt lat="45.56251" lon="6.6776">
        <ele>701.7999878</ele>
        <time>2013-07-27T16:12:50Z</time>
      </trkpt>
      <trkpt lat="45.56249" lon="6.67752">
        <ele>703</ele>
        <time>2013-07-27T16:12:56Z</time>
      </trkpt>
      <trkpt lat="45.56247" lon="6.67742">
        <ele>703.4000244</ele>
        <time>2013-07-27T16:13:02Z</time>
      </trkpt>
      <trkpt lat="45.56243" lon="6.67733">
        <ele>704.2000122</ele>
        <time>2013-07-27T16:13:08Z</time>
      </trkpt>
      <trkpt lat="45.5624" lon="6.67725">
        <ele>705</ele>
        <time>2013-07-27T16:13:12Z</time>
      </trkpt>
      <trkpt lat="45.56235" lon="6.67717">
        <ele>705.5999756</ele>
        <time>2013-07-27T16:13:17Z</time>
      </trkpt>
      <trkpt lat="45.56227" lon="6.67702">
        <ele>705.4000244</ele>
        <time>2013-07-27T16:13:26Z</time>
      </trkpt>
      <trkpt lat="45.56223" lon="6.67695">
        <ele>705</ele>
        <time>2013-07-27T16:13:31Z</time>
      </trkpt>
      <trkpt lat="45.56219" lon="6.67687">
        <ele>704.7999878</ele>
        <time>2013-07-27T16:13:36Z</time>
      </trkpt>
      <trkpt lat="45.56214" lon="6.67681">
        <ele>705</ele>
        <time>2013-07-27T16:13:41Z</time>
      </trkpt>
      <trkpt lat="45.56207" lon="6.67671">
        <ele>704.4000244</ele>
        <time>2013-07-27T16:13:49Z</time>
      </trkpt>
      <trkpt lat="45.56202" lon="6.67666">
        <ele>704.4000244</ele>
        <time>2013-07-27T16:13:54Z</time>
      </trkpt>
      <trkpt lat="45.56192" lon="6.67654">
        <ele>704</ele>
        <time>2013-07-27T16:14:04Z</time>
      </trkpt>
      <trkpt lat="45.56186" lon="6.67646">
        <ele>703.2000122</ele>
        <time>2013-07-27T16:14:10Z</time>
      </trkpt>
      <trkpt lat="45.56178" lon="6.67638">
        <ele>703</ele>
        <time>2013-07-27T16:14:18Z</time>
      </trkpt>
      <trkpt lat="45.56173" lon="6.67631">
        <ele>705.2000122</ele>
        <time>2013-07-27T16:14:26Z</time>
      </trkpt>
      <trkpt lat="45.56166" lon="6.67622">
        <ele>706.5999756</ele>
        <time>2013-07-27T16:14:35Z</time>
      </trkpt>
      <trkpt lat="45.56162" lon="6.67612">
        <ele>705.7999878</ele>
        <time>2013-07-27T16:14:41Z</time>
      </trkpt>
      <trkpt lat="45.56157" lon="6.67604">
        <ele>704.2000122</ele>
        <time>2013-07-27T16:14:48Z</time>
      </trkpt>
      <trkpt lat="45.5615" lon="6.67596">
        <ele>703.4000244</ele>
        <time>2013-07-27T16:14:55Z</time>
      </trkpt>
      <trkpt lat="45.56146" lon="6.67589">
        <ele>703.2000122</ele>
        <time>2013-07-27T16:15:00Z</time>
      </trkpt>
      <trkpt lat="45.56137" lon="6.67578">
        <ele>703.2000122</ele>
        <time>2013-07-27T16:15:09Z</time>
      </trkpt>
      <trkpt lat="45.56133" lon="6.6757">
        <ele>703.2000122</ele>
        <time>2013-07-27T16:15:15Z</time>
      </trkpt>
      <trkpt lat="45.56129" lon="6.67562">
        <ele>702.7999878</ele>
        <time>2013-07-27T16:15:20Z</time>
      </trkpt>
      <trkpt lat="45.56125" lon="6.67555">
        <ele>702.4000244</ele>
        <time>2013-07-27T16:15:25Z</time>
      </trkpt>
      <trkpt lat="45.56122" lon="6.67545">
        <ele>702.5999756</ele>
        <time>2013-07-27T16:15:30Z</time>
      </trkpt>
      <trkpt lat="45.56117" lon="6.67535">
        <ele>703.5999756</ele>
        <time>2013-07-27T16:15:36Z</time>
      </trkpt>
      <trkpt lat="45.56112" lon="6.67522">
        <ele>704</ele>
        <time>2013-07-27T16:15:45Z</time>
      </trkpt>
      <trkpt lat="45.56108" lon="6.67513">
        <ele>704.2000122</ele>
        <time>2013-07-27T16:15:51Z</time>
      </trkpt>
      <trkpt lat="45.56105" lon="6.67502">
        <ele>704.5999756</ele>
        <time>2013-07-27T16:15:56Z</time>
      </trkpt>
      <trkpt lat="45.56101" lon="6.6749">
        <ele>705.2000122</ele>
        <time>2013-07-27T16:16:03Z</time>
      </trkpt>
      <trkpt lat="45.56095" lon="6.6748">
        <ele>706.4000244</ele>
        <time>2013-07-27T16:16:10Z</time>
      </trkpt>
      <trkpt lat="45.56094" lon="6.67471">
        <ele>702.7999878</ele>
        <time>2013-07-27T16:16:17Z</time>
      </trkpt>
      <trkpt lat="45.56094" lon="6.67462">
        <ele>693.7999878</ele>
        <time>2013-07-27T16:16:32Z</time>
      </trkpt>
      <trkpt lat="45.56091" lon="6.67456">
        <ele>689.4000244</ele>
        <time>2013-07-27T16:16:49Z</time>
      </trkpt>
      <trkpt lat="45.56086" lon="6.67449">
        <ele>687</ele>
        <time>2013-07-27T16:16:57Z</time>
      </trkpt>
      <trkpt lat="45.56086" lon="6.67437">
        <ele>687</ele>
        <time>2013-07-27T16:17:10Z</time>
      </trkpt>
      <trkpt lat="45.56081" lon="6.67424">
        <ele>688.5999756</ele>
        <time>2013-07-27T16:17:18Z</time>
      </trkpt>
      <trkpt lat="45.56076" lon="6.67413">
        <ele>691.2000122</ele>
        <time>2013-07-27T16:17:24Z</time>
      </trkpt>
      <trkpt lat="45.56071" lon="6.67403">
        <ele>692.2000122</ele>
        <time>2013-07-27T16:17:30Z</time>
      </trkpt>
      <trkpt lat="45.56067" lon="6.67394">
        <ele>692.2000122</ele>
        <time>2013-07-27T16:17:36Z</time>
      </trkpt>
      <trkpt lat="45.56062" lon="6.67387">
        <ele>691.4000244</ele>
        <time>2013-07-27T16:17:41Z</time>
      </trkpt>
      <trkpt lat="45.56059" lon="6.67379">
        <ele>690.5999756</ele>
        <time>2013-07-27T16:17:46Z</time>
      </trkpt>
      <trkpt lat="45.56055" lon="6.67371">
        <ele>690.2000122</ele>
        <time>2013-07-27T16:17:52Z</time>
      </trkpt>
      <trkpt lat="45.56054" lon="6.67361">
        <ele>689.2000122</ele>
        <time>2013-07-27T16:17:57Z</time>
      </trkpt>
      <trkpt lat="45.56053" lon="6.67349">
        <ele>687.4000244</ele>
        <time>2013-07-27T16:18:04Z</time>
      </trkpt>
      <trkpt lat="45.5605" lon="6.67336">
        <ele>687.5999756</ele>
        <time>2013-07-27T16:18:11Z</time>
      </trkpt>
      <trkpt lat="45.56047" lon="6.67326">
        <ele>686.7999878</ele>
        <time>2013-07-27T16:18:16Z</time>
      </trkpt>
      <trkpt lat="45.56046" lon="6.67317">
        <ele>685.5999756</ele>
        <time>2013-07-27T16:18:21Z</time>
      </trkpt>
      <trkpt lat="45.56043" lon="6.67303">
        <ele>684.7999878</ele>
        <time>2013-07-27T16:18:29Z</time>
      </trkpt>
      <trkpt lat="45.56041" lon="6.6729">
        <ele>685.5999756</ele>
        <time>2013-07-27T16:18:36Z</time>
      </trkpt>
      <trkpt lat="45.5604" lon="6.67277">
        <ele>688.4000244</ele>
        <time>2013-07-27T16:18:43Z</time>
      </trkpt>
      <trkpt lat="45.56039" lon="6.67268">
        <ele>690</ele>
        <time>2013-07-27T16:18:48Z</time>
      </trkpt>
      <trkpt lat="45.56037" lon="6.67257">
        <ele>690.4000244</ele>
        <time>2013-07-27T16:18:54Z</time>
      </trkpt>
      <trkpt lat="45.56036" lon="6.67241">
        <ele>690.2000122</ele>
        <time>2013-07-27T16:19:01Z</time>
      </trkpt>
      <trkpt lat="45.56036" lon="6.67231">
        <ele>689.4000244</ele>
        <time>2013-07-27T16:19:06Z</time>
      </trkpt>
      <trkpt lat="45.56038" lon="6.67221">
        <ele>688.5999756</ele>
        <time>2013-07-27T16:19:11Z</time>
      </trkpt>
      <trkpt lat="45.56041" lon="6.67207">
        <ele>688.4000244</ele>
        <time>2013-07-27T16:19:17Z</time>
      </trkpt>
      <trkpt lat="45.56043" lon="6.67197">
        <ele>687.4000244</ele>
        <time>2013-07-27T16:19:21Z</time>
      </trkpt>
      <trkpt lat="45.56046" lon="6.67185">
        <ele>686</ele>
        <time>2013-07-27T16:19:26Z</time>
      </trkpt>
      <trkpt lat="45.56049" lon="6.67174">
        <ele>686</ele>
        <time>2013-07-27T16:19:32Z</time>
      </trkpt>
      <trkpt lat="45.56051" lon="6.67164">
        <ele>686.5999756</ele>
        <time>2013-07-27T16:19:37Z</time>
      </trkpt>
      <trkpt lat="45.56052" lon="6.6715">
        <ele>687.4000244</ele>
        <time>2013-07-27T16:19:45Z</time>
      </trkpt>
      <trkpt lat="45.56046" lon="6.67131">
        <ele>687.4000244</ele>
        <time>2013-07-27T16:19:56Z</time>
      </trkpt>
      <trkpt lat="45.56041" lon="6.6712">
        <ele>687.4000244</ele>
        <time>2013-07-27T16:20:05Z</time>
      </trkpt>
      <trkpt lat="45.56038" lon="6.6711">
        <ele>688.4000244</ele>
        <time>2013-07-27T16:20:10Z</time>
      </trkpt>
      <trkpt lat="45.56036" lon="6.671">
        <ele>689.2000122</ele>
        <time>2013-07-27T16:20:15Z</time>
      </trkpt>
      <trkpt lat="45.56026" lon="6.67079">
        <ele>689.4000244</ele>
        <time>2013-07-27T16:20:28Z</time>
      </trkpt>
      <trkpt lat="45.56021" lon="6.6707">
        <ele>689.4000244</ele>
        <time>2013-07-27T16:20:35Z</time>
      </trkpt>
      <trkpt lat="45.56014" lon="6.67052">
        <ele>690.5999756</ele>
        <time>2013-07-27T16:20:47Z</time>
      </trkpt>
      <trkpt lat="45.5601" lon="6.6704">
        <ele>688.7999878</ele>
        <time>2013-07-27T16:20:53Z</time>
      </trkpt>
      <trkpt lat="45.56006" lon="6.6703">
        <ele>689.5999756</ele>
        <time>2013-07-27T16:21:00Z</time>
      </trkpt>
      <trkpt lat="45.56004" lon="6.67021">
        <ele>690.7999878</ele>
        <time>2013-07-27T16:21:05Z</time>
      </trkpt>
      <trkpt lat="45.56001" lon="6.67012">
        <ele>691</ele>
        <time>2013-07-27T16:21:10Z</time>
      </trkpt>
      <trkpt lat="45.55997" lon="6.67003">
        <ele>690.7999878</ele>
        <time>2013-07-27T16:21:15Z</time>
      </trkpt>
      <trkpt lat="45.5599" lon="6.6698">
        <ele>691.2000122</ele>
        <time>2013-07-27T16:21:27Z</time>
      </trkpt>
      <trkpt lat="45.55981" lon="6.66958">
        <ele>691.2000122</ele>
        <time>2013-07-27T16:21:39Z</time>
      </trkpt>
      <trkpt lat="45.55976" lon="6.66946">
        <ele>690.7999878</ele>
        <time>2013-07-27T16:21:46Z</time>
      </trkpt>
      <trkpt lat="45.55973" lon="6.66938">
        <ele>690.5999756</ele>
        <time>2013-07-27T16:21:51Z</time>
      </trkpt>
      <trkpt lat="45.55969" lon="6.6693">
        <ele>689.7999878</ele>
        <time>2013-07-27T16:21:56Z</time>
      </trkpt>
      <trkpt lat="45.55965" lon="6.66922">
        <ele>689</ele>
        <time>2013-07-27T16:22:01Z</time>
      </trkpt>
      <trkpt lat="45.55961" lon="6.66914">
        <ele>688.2000122</ele>
        <time>2013-07-27T16:22:06Z</time>
      </trkpt>
      <trkpt lat="45.55956" lon="6.66902">
        <ele>687.4000244</ele>
        <time>2013-07-27T16:22:13Z</time>
      </trkpt>
      <trkpt lat="45.55951" lon="6.66892">
        <ele>687.2000122</ele>
        <time>2013-07-27T16:22:19Z</time>
      </trkpt>
      <trkpt lat="45.55947" lon="6.66883">
        <ele>687.2000122</ele>
        <time>2013-07-27T16:22:24Z</time>
      </trkpt>
      <trkpt lat="45.55943" lon="6.66875">
        <ele>687.5999756</ele>
        <time>2013-07-27T16:22:30Z</time>
      </trkpt>
      <trkpt lat="45.55938" lon="6.66863">
        <ele>688.2000122</ele>
        <time>2013-07-27T16:22:38Z</time>
      </trkpt>
      <trkpt lat="45.55934" lon="6.66853">
        <ele>688.5999756</ele>
        <time>2013-07-27T16:22:45Z</time>
      </trkpt>
      <trkpt lat="45.55931" lon="6.66844">
        <ele>689.4000244</ele>
        <time>2013-07-27T16:22:50Z</time>
      </trkpt>
      <trkpt lat="45.5593" lon="6.66835">
        <ele>689.7999878</ele>
        <time>2013-07-27T16:22:55Z</time>
      </trkpt>
      <trkpt lat="45.55928" lon="6.66823">
        <ele>691</ele>
        <time>2013-07-27T16:23:03Z</time>
      </trkpt>
      <trkpt lat="45.55925" lon="6.66811">
        <ele>693.7999878</ele>
        <time>2013-07-27T16:23:11Z</time>
      </trkpt>
      <trkpt lat="45.55923" lon="6.66802">
        <ele>696.2000122</ele>
        <time>2013-07-27T16:23:17Z</time>
      </trkpt>
      <trkpt lat="45.55921" lon="6.66793">
        <ele>698</ele>
        <time>2013-07-27T16:23:22Z</time>
      </trkpt>
      <trkpt lat="45.55919" lon="6.66779">
        <ele>698.7999878</ele>
        <time>2013-07-27T16:23:29Z</time>
      </trkpt>
      <trkpt lat="45.55917" lon="6.66767">
        <ele>698.4000244</ele>
        <time>2013-07-27T16:23:35Z</time>
      </trkpt>
      <trkpt lat="45.55913" lon="6.66753">
        <ele>698</ele>
        <time>2013-07-27T16:23:45Z</time>
      </trkpt>
      <trkpt lat="45.55911" lon="6.66741">
        <ele>699</ele>
        <time>2013-07-27T16:23:52Z</time>
      </trkpt>
      <trkpt lat="45.55909" lon="6.66729">
        <ele>700.2000122</ele>
        <time>2013-07-27T16:24:00Z</time>
      </trkpt>
      <trkpt lat="45.55907" lon="6.6672">
        <ele>700.7999878</ele>
        <time>2013-07-27T16:24:05Z</time>
      </trkpt>
      <trkpt lat="45.55905" lon="6.66709">
        <ele>699.5999756</ele>
        <time>2013-07-27T16:24:10Z</time>
      </trkpt>
      <trkpt lat="45.55901" lon="6.66699">
        <ele>697.7999878</ele>
        <time>2013-07-27T16:24:15Z</time>
      </trkpt>
      <trkpt lat="45.55897" lon="6.66689">
        <ele>695.5999756</ele>
        <time>2013-07-27T16:24:20Z</time>
      </trkpt>
      <trkpt lat="45.55893" lon="6.66681">
        <ele>693.2000122</ele>
        <time>2013-07-27T16:24:24Z</time>
      </trkpt>
      <trkpt lat="45.55888" lon="6.66671">
        <ele>691.5999756</ele>
        <time>2013-07-27T16:24:30Z</time>
      </trkpt>
      <trkpt lat="45.55881" lon="6.66662">
        <ele>690</ele>
        <time>2013-07-27T16:24:37Z</time>
      </trkpt>
      <trkpt lat="45.55875" lon="6.66655">
        <ele>688.7999878</ele>
        <time>2013-07-27T16:24:43Z</time>
      </trkpt>
      <trkpt lat="45.55869" lon="6.66647">
        <ele>687.5999756</ele>
        <time>2013-07-27T16:24:51Z</time>
      </trkpt>
      <trkpt lat="45.55862" lon="6.66637">
        <ele>686.4000244</ele>
        <time>2013-07-27T16:24:59Z</time>
      </trkpt>
      <trkpt lat="45.55857" lon="6.66628">
        <ele>685.4000244</ele>
        <time>2013-07-27T16:25:05Z</time>
      </trkpt>
      <trkpt lat="45.55849" lon="6.66621">
        <ele>684.7999878</ele>
        <time>2013-07-27T16:25:13Z</time>
      </trkpt>
      <trkpt lat="45.55842" lon="6.66614">
        <ele>684.7999878</ele>
        <time>2013-07-27T16:25:19Z</time>
      </trkpt>
      <trkpt lat="45.55829" lon="6.66595">
        <ele>682.7999878</ele>
        <time>2013-07-27T16:25:30Z</time>
      </trkpt>
      <trkpt lat="45.55824" lon="6.66587">
        <ele>678.5999756</ele>
        <time>2013-07-27T16:25:35Z</time>
      </trkpt>
      <trkpt lat="45.55817" lon="6.66579">
        <ele>674.2000122</ele>
        <time>2013-07-27T16:25:41Z</time>
      </trkpt>
      <trkpt lat="45.55811" lon="6.66572">
        <ele>675</ele>
        <time>2013-07-27T16:25:46Z</time>
      </trkpt>
      <trkpt lat="45.55803" lon="6.66566">
        <ele>675.2000122</ele>
        <time>2013-07-27T16:25:51Z</time>
      </trkpt>
      <trkpt lat="45.55796" lon="6.66556">
        <ele>674.5999756</ele>
        <time>2013-07-27T16:25:57Z</time>
      </trkpt>
      <trkpt lat="45.55789" lon="6.66544">
        <ele>672.7999878</ele>
        <time>2013-07-27T16:26:04Z</time>
      </trkpt>
      <trkpt lat="45.55785" lon="6.66535">
        <ele>671.2000122</ele>
        <time>2013-07-27T16:26:09Z</time>
      </trkpt>
      <trkpt lat="45.55781" lon="6.66528">
        <ele>670.4000244</ele>
        <time>2013-07-27T16:26:14Z</time>
      </trkpt>
      <trkpt lat="45.55775" lon="6.66518">
        <ele>671</ele>
        <time>2013-07-27T16:26:19Z</time>
      </trkpt>
      <trkpt lat="45.55767" lon="6.66503">
        <ele>671.2000122</ele>
        <time>2013-07-27T16:26:27Z</time>
      </trkpt>
      <trkpt lat="45.55763" lon="6.66495">
        <ele>670.5999756</ele>
        <time>2013-07-27T16:26:32Z</time>
      </trkpt>
      <trkpt lat="45.55748" lon="6.66472">
        <ele>670.4000244</ele>
        <time>2013-07-27T16:26:47Z</time>
      </trkpt>
      <trkpt lat="45.55743" lon="6.66465">
        <ele>671</ele>
        <time>2013-07-27T16:26:52Z</time>
      </trkpt>
      <trkpt lat="45.55736" lon="6.66457">
        <ele>671.5999756</ele>
        <time>2013-07-27T16:26:59Z</time>
      </trkpt>
      <trkpt lat="45.55732" lon="6.66447">
        <ele>671.5999756</ele>
        <time>2013-07-27T16:27:04Z</time>
      </trkpt>
      <trkpt lat="45.55726" lon="6.66439">
        <ele>671.2000122</ele>
        <time>2013-07-27T16:27:09Z</time>
      </trkpt>
      <trkpt lat="45.55721" lon="6.66431">
        <ele>670.7999878</ele>
        <time>2013-07-27T16:27:14Z</time>
      </trkpt>
      <trkpt lat="45.55717" lon="6.66423">
        <ele>670.2000122</ele>
        <time>2013-07-27T16:27:19Z</time>
      </trkpt>
      <trkpt lat="45.55713" lon="6.66414">
        <ele>670.5999756</ele>
        <time>2013-07-27T16:27:25Z</time>
      </trkpt>
      <trkpt lat="45.55717" lon="6.66405">
        <ele>671.2000122</ele>
        <time>2013-07-27T16:27:31Z</time>
      </trkpt>
      <trkpt lat="45.55723" lon="6.664">
        <ele>671.7999878</ele>
        <time>2013-07-27T16:27:35Z</time>
      </trkpt>
      <trkpt lat="45.5573" lon="6.66392">
        <ele>671.5999756</ele>
        <time>2013-07-27T16:27:41Z</time>
      </trkpt>
      <trkpt lat="45.55737" lon="6.66388">
        <ele>672</ele>
        <time>2013-07-27T16:27:46Z</time>
      </trkpt>
      <trkpt lat="45.5574" lon="6.66379">
        <ele>671.7999878</ele>
        <time>2013-07-27T16:27:51Z</time>
      </trkpt>
      <trkpt lat="45.55737" lon="6.66369">
        <ele>671</ele>
        <time>2013-07-27T16:27:57Z</time>
      </trkpt>
      <trkpt lat="45.55735" lon="6.6636">
        <ele>669</ele>
        <time>2013-07-27T16:28:04Z</time>
      </trkpt>
      <trkpt lat="45.55732" lon="6.6635">
        <ele>666.2000122</ele>
        <time>2013-07-27T16:28:18Z</time>
      </trkpt>
      <trkpt lat="45.55728" lon="6.66339">
        <ele>666.4000244</ele>
        <time>2013-07-27T16:28:23Z</time>
      </trkpt>
      <trkpt lat="45.55725" lon="6.6633">
        <ele>666</ele>
        <time>2013-07-27T16:28:28Z</time>
      </trkpt>
      <trkpt lat="45.55721" lon="6.6632">
        <ele>666.2000122</ele>
        <time>2013-07-27T16:28:33Z</time>
      </trkpt>
      <trkpt lat="45.55718" lon="6.66308">
        <ele>666</ele>
        <time>2013-07-27T16:28:39Z</time>
      </trkpt>
      <trkpt lat="45.55715" lon="6.66299">
        <ele>666.5999756</ele>
        <time>2013-07-27T16:28:44Z</time>
      </trkpt>
      <trkpt lat="45.55713" lon="6.6629">
        <ele>667.7999878</ele>
        <time>2013-07-27T16:28:49Z</time>
      </trkpt>
      <trkpt lat="45.55707" lon="6.6628">
        <ele>670</ele>
        <time>2013-07-27T16:28:59Z</time>
      </trkpt>
      <trkpt lat="45.55703" lon="6.66265">
        <ele>669.7999878</ele>
        <time>2013-07-27T16:29:04Z</time>
      </trkpt>
      <trkpt lat="45.557" lon="6.66253">
        <ele>669.2000122</ele>
        <time>2013-07-27T16:29:09Z</time>
      </trkpt>
      <trkpt lat="45.55699" lon="6.66238">
        <ele>669.5999756</ele>
        <time>2013-07-27T16:29:16Z</time>
      </trkpt>
      <trkpt lat="45.55696" lon="6.66228">
        <ele>670.5999756</ele>
        <time>2013-07-27T16:29:21Z</time>
      </trkpt>
      <trkpt lat="45.55695" lon="6.66216">
        <ele>673.4000244</ele>
        <time>2013-07-27T16:29:29Z</time>
      </trkpt>
      <trkpt lat="45.55692" lon="6.66207">
        <ele>674.4000244</ele>
        <time>2013-07-27T16:29:34Z</time>
      </trkpt>
      <trkpt lat="45.55691" lon="6.66197">
        <ele>673.5999756</ele>
        <time>2013-07-27T16:29:38Z</time>
      </trkpt>
      <trkpt lat="45.55688" lon="6.66188">
        <ele>673</ele>
        <time>2013-07-27T16:29:43Z</time>
      </trkpt>
      <trkpt lat="45.55685" lon="6.66177">
        <ele>672.4000244</ele>
        <time>2013-07-27T16:29:49Z</time>
      </trkpt>
      <trkpt lat="45.55682" lon="6.66167">
        <ele>672.2000122</ele>
        <time>2013-07-27T16:29:54Z</time>
      </trkpt>
      <trkpt lat="45.55679" lon="6.66158">
        <ele>672.4000244</ele>
        <time>2013-07-27T16:29:59Z</time>
      </trkpt>
      <trkpt lat="45.55677" lon="6.66148">
        <ele>672.7999878</ele>
        <time>2013-07-27T16:30:04Z</time>
      </trkpt>
      <trkpt lat="45.55672" lon="6.66121">
        <ele>673</ele>
        <time>2013-07-27T16:30:17Z</time>
      </trkpt>
      <trkpt lat="45.55668" lon="6.66109">
        <ele>673.2000122</ele>
        <time>2013-07-27T16:30:24Z</time>
      </trkpt>
      <trkpt lat="45.55664" lon="6.661">
        <ele>673.7999878</ele>
        <time>2013-07-27T16:30:30Z</time>
      </trkpt>
      <trkpt lat="45.55663" lon="6.66089">
        <ele>674.4000244</ele>
        <time>2013-07-27T16:30:38Z</time>
      </trkpt>
      <trkpt lat="45.55661" lon="6.66075">
        <ele>674</ele>
        <time>2013-07-27T16:30:45Z</time>
      </trkpt>
      <trkpt lat="45.5566" lon="6.66061">
        <ele>673.2000122</ele>
        <time>2013-07-27T16:30:52Z</time>
      </trkpt>
      <trkpt lat="45.55658" lon="6.66049">
        <ele>671.7999878</ele>
        <time>2013-07-27T16:30:57Z</time>
      </trkpt>
      <trkpt lat="45.55658" lon="6.66038">
        <ele>670.4000244</ele>
        <time>2013-07-27T16:31:02Z</time>
      </trkpt>
      <trkpt lat="45.55656" lon="6.66025">
        <ele>669.4000244</ele>
        <time>2013-07-27T16:31:08Z</time>
      </trkpt>
      <trkpt lat="45.55656" lon="6.66011">
        <ele>668.2000122</ele>
        <time>2013-07-27T16:31:15Z</time>
      </trkpt>
      <trkpt lat="45.55657" lon="6.66008">
        <ele>667.5999756</ele>
        <time>2013-07-27T16:33:18Z</time>
      </trkpt>
      <trkpt lat="45.55658" lon="6.65997">
        <ele>669.4000244</ele>
        <time>2013-07-27T16:33:29Z</time>
      </trkpt>
      <trkpt lat="45.55658" lon="6.65984">
        <ele>671.7999878</ele>
        <time>2013-07-27T16:33:37Z</time>
      </trkpt>
      <trkpt lat="45.55658" lon="6.65971">
        <ele>674</ele>
        <time>2013-07-27T16:33:44Z</time>
      </trkpt>
      <trkpt lat="45.55659" lon="6.65961">
        <ele>674.5999756</ele>
        <time>2013-07-27T16:33:49Z</time>
      </trkpt>
      <trkpt lat="45.55661" lon="6.65951">
        <ele>674.4000244</ele>
        <time>2013-07-27T16:33:54Z</time>
      </trkpt>
      <trkpt lat="45.5566" lon="6.6594">
        <ele>674.5999756</ele>
        <time>2013-07-27T16:34:01Z</time>
      </trkpt>
      <trkpt lat="45.55658" lon="6.6593">
        <ele>676.2000122</ele>
        <time>2013-07-27T16:34:06Z</time>
      </trkpt>
      <trkpt lat="45.55656" lon="6.65918">
        <ele>678.7999878</ele>
        <time>2013-07-27T16:34:13Z</time>
      </trkpt>
      <trkpt lat="45.55655" lon="6.65906">
        <ele>680.5999756</ele>
        <time>2013-07-27T16:34:19Z</time>
      </trkpt>
      <trkpt lat="45.55656" lon="6.65892">
        <ele>681.7999878</ele>
        <time>2013-07-27T16:34:25Z</time>
      </trkpt>
      <trkpt lat="45.55656" lon="6.65881">
        <ele>683</ele>
        <time>2013-07-27T16:34:30Z</time>
      </trkpt>
      <trkpt lat="45.55656" lon="6.65867">
        <ele>685.2000122</ele>
        <time>2013-07-27T16:34:37Z</time>
      </trkpt>
      <trkpt lat="45.55656" lon="6.65858">
        <ele>686.5999756</ele>
        <time>2013-07-27T16:34:42Z</time>
      </trkpt>
      <trkpt lat="45.55657" lon="6.65847">
        <ele>687.7999878</ele>
        <time>2013-07-27T16:34:48Z</time>
      </trkpt>
      <trkpt lat="45.55657" lon="6.65838">
        <ele>688.7999878</ele>
        <time>2013-07-27T16:34:53Z</time>
      </trkpt>
      <trkpt lat="45.55658" lon="6.65829">
        <ele>689.7999878</ele>
        <time>2013-07-27T16:34:58Z</time>
      </trkpt>
      <trkpt lat="45.55661" lon="6.65816">
        <ele>690.7999878</ele>
        <time>2013-07-27T16:35:03Z</time>
      </trkpt>
      <trkpt lat="45.55659" lon="6.65807">
        <ele>691.4000244</ele>
        <time>2013-07-27T16:35:08Z</time>
      </trkpt>
      <trkpt lat="45.55659" lon="6.65795">
        <ele>693</ele>
        <time>2013-07-27T16:35:14Z</time>
      </trkpt>
      <trkpt lat="45.55659" lon="6.65783">
        <ele>695</ele>
        <time>2013-07-27T16:35:20Z</time>
      </trkpt>
      <trkpt lat="45.55663" lon="6.65774">
        <ele>694.7999878</ele>
        <time>2013-07-27T16:35:25Z</time>
      </trkpt>
      <trkpt lat="45.55669" lon="6.65762">
        <ele>690</ele>
        <time>2013-07-27T16:35:30Z</time>
      </trkpt>
      <trkpt lat="45.55674" lon="6.65752">
        <ele>683</ele>
        <time>2013-07-27T16:35:36Z</time>
      </trkpt>
      <trkpt lat="45.55676" lon="6.6574">
        <ele>677.2000122</ele>
        <time>2013-07-27T16:35:43Z</time>
      </trkpt>
      <trkpt lat="45.55678" lon="6.65729">
        <ele>676.7999878</ele>
        <time>2013-07-27T16:35:49Z</time>
      </trkpt>
      <trkpt lat="45.55677" lon="6.65719">
        <ele>678</ele>
        <time>2013-07-27T16:35:55Z</time>
      </trkpt>
      <trkpt lat="45.55682" lon="6.65709">
        <ele>677</ele>
        <time>2013-07-27T16:36:02Z</time>
      </trkpt>
      <trkpt lat="45.55679" lon="6.65699">
        <ele>677.2000122</ele>
        <time>2013-07-27T16:36:09Z</time>
      </trkpt>
      <trkpt lat="45.55682" lon="6.65684">
        <ele>679</ele>
        <time>2013-07-27T16:36:15Z</time>
      </trkpt>
      <trkpt lat="45.55684" lon="6.65672">
        <ele>680.5999756</ele>
        <time>2013-07-27T16:36:22Z</time>
      </trkpt>
      <trkpt lat="45.55688" lon="6.65665">
        <ele>680.7999878</ele>
        <time>2013-07-27T16:36:27Z</time>
      </trkpt>
      <trkpt lat="45.55695" lon="6.65674">
        <ele>681.5999756</ele>
        <time>2013-07-27T16:36:34Z</time>
      </trkpt>
      <trkpt lat="45.55701" lon="6.65681">
        <ele>680.2000122</ele>
        <time>2013-07-27T16:36:40Z</time>
      </trkpt>
      <trkpt lat="45.55708" lon="6.65677">
        <ele>679</ele>
        <time>2013-07-27T16:36:45Z</time>
      </trkpt>
      <trkpt lat="45.55709" lon="6.65666">
        <ele>678</ele>
        <time>2013-07-27T16:36:51Z</time>
      </trkpt>
      <trkpt lat="45.55709" lon="6.65658">
        <ele>677.5999756</ele>
        <time>2013-07-27T16:36:56Z</time>
      </trkpt>
      <trkpt lat="45.55716" lon="6.65647">
        <ele>677.7999878</ele>
        <time>2013-07-27T16:37:00Z</time>
      </trkpt>
      <trkpt lat="45.55719" lon="6.65637">
        <ele>678.5999756</ele>
        <time>2013-07-27T16:37:04Z</time>
      </trkpt>
      <trkpt lat="45.55722" lon="6.65628">
        <ele>679.2000122</ele>
        <time>2013-07-27T16:37:09Z</time>
      </trkpt>
      <trkpt lat="45.55727" lon="6.65616">
        <ele>679.2000122</ele>
        <time>2013-07-27T16:37:16Z</time>
      </trkpt>
      <trkpt lat="45.5573" lon="6.65605">
        <ele>678.7999878</ele>
        <time>2013-07-27T16:37:22Z</time>
      </trkpt>
      <trkpt lat="45.55732" lon="6.65596">
        <ele>678.7999878</ele>
        <time>2013-07-27T16:37:27Z</time>
      </trkpt>
      <trkpt lat="45.55734" lon="6.65587">
        <ele>679.7999878</ele>
        <time>2013-07-27T16:37:32Z</time>
      </trkpt>
      <trkpt lat="45.55737" lon="6.65573">
        <ele>680</ele>
        <time>2013-07-27T16:37:38Z</time>
      </trkpt>
      <trkpt lat="45.55739" lon="6.65562">
        <ele>679.2000122</ele>
        <time>2013-07-27T16:37:44Z</time>
      </trkpt>
      <trkpt lat="45.55743" lon="6.65552">
        <ele>677.7999878</ele>
        <time>2013-07-27T16:37:50Z</time>
      </trkpt>
      <trkpt lat="45.55745" lon="6.65544">
        <ele>677.2000122</ele>
        <time>2013-07-27T16:37:55Z</time>
      </trkpt>
      <trkpt lat="45.55746" lon="6.65534">
        <ele>676.7999878</ele>
        <time>2013-07-27T16:38:00Z</time>
      </trkpt>
      <trkpt lat="45.55748" lon="6.65523">
        <ele>675.7999878</ele>
        <time>2013-07-27T16:38:06Z</time>
      </trkpt>
      <trkpt lat="45.55751" lon="6.65494">
        <ele>675.5999756</ele>
        <time>2013-07-27T16:38:21Z</time>
      </trkpt>
      <trkpt lat="45.55751" lon="6.65477">
        <ele>675.2000122</ele>
        <time>2013-07-27T16:38:30Z</time>
      </trkpt>
      <trkpt lat="45.55749" lon="6.65468">
        <ele>676</ele>
        <time>2013-07-27T16:38:35Z</time>
      </trkpt>
      <trkpt lat="45.55746" lon="6.65456">
        <ele>678.5999756</ele>
        <time>2013-07-27T16:38:41Z</time>
      </trkpt>
      <trkpt lat="45.55746" lon="6.65443">
        <ele>682.2000122</ele>
        <time>2013-07-27T16:38:46Z</time>
      </trkpt>
      <trkpt lat="45.55746" lon="6.65423">
        <ele>684</ele>
        <time>2013-07-27T16:38:52Z</time>
      </trkpt>
      <trkpt lat="45.55744" lon="6.6541">
        <ele>683.7999878</ele>
        <time>2013-07-27T16:38:59Z</time>
      </trkpt>
      <trkpt lat="45.5574" lon="6.65401">
        <ele>684.7999878</ele>
        <time>2013-07-27T16:39:05Z</time>
      </trkpt>
      <trkpt lat="45.55737" lon="6.6539">
        <ele>686.5999756</ele>
        <time>2013-07-27T16:39:11Z</time>
      </trkpt>
      <trkpt lat="45.55732" lon="6.65381">
        <ele>685.5999756</ele>
        <time>2013-07-27T16:39:19Z</time>
      </trkpt>
      <trkpt lat="45.55731" lon="6.6537">
        <ele>684.2000122</ele>
        <time>2013-07-27T16:39:23Z</time>
      </trkpt>
      <trkpt lat="45.5573" lon="6.65361">
        <ele>684</ele>
        <time>2013-07-27T16:39:26Z</time>
      </trkpt>
      <trkpt lat="45.55727" lon="6.65353">
        <ele>684.4000244</ele>
        <time>2013-07-27T16:39:30Z</time>
      </trkpt>
      <trkpt lat="45.55719" lon="6.65351">
        <ele>682.5999756</ele>
        <time>2013-07-27T16:39:38Z</time>
      </trkpt>
      <trkpt lat="45.55716" lon="6.6534">
        <ele>682.5999756</ele>
        <time>2013-07-27T16:39:44Z</time>
      </trkpt>
      <trkpt lat="45.55713" lon="6.65329">
        <ele>685.7999878</ele>
        <time>2013-07-27T16:39:49Z</time>
      </trkpt>
      <trkpt lat="45.55705" lon="6.65328">
        <ele>688.2000122</ele>
        <time>2013-07-27T16:39:58Z</time>
      </trkpt>
      <trkpt lat="45.55694" lon="6.65308">
        <ele>688.4000244</ele>
        <time>2013-07-27T16:40:09Z</time>
      </trkpt>
      <trkpt lat="45.55689" lon="6.65302">
        <ele>690</ele>
        <time>2013-07-27T16:40:14Z</time>
      </trkpt>
      <trkpt lat="45.55682" lon="6.65296">
        <ele>691.2000122</ele>
        <time>2013-07-27T16:40:19Z</time>
      </trkpt>
      <trkpt lat="45.55675" lon="6.6529">
        <ele>692.7999878</ele>
        <time>2013-07-27T16:40:24Z</time>
      </trkpt>
      <trkpt lat="45.55668" lon="6.65284">
        <ele>694.2000122</ele>
        <time>2013-07-27T16:40:29Z</time>
      </trkpt>
      <trkpt lat="45.55659" lon="6.65275">
        <ele>693.7999878</ele>
        <time>2013-07-27T16:40:33Z</time>
      </trkpt>
      <trkpt lat="45.55652" lon="6.65264">
        <ele>692</ele>
        <time>2013-07-27T16:40:37Z</time>
      </trkpt>
      <trkpt lat="45.55647" lon="6.65256">
        <ele>691.2000122</ele>
        <time>2013-07-27T16:40:40Z</time>
      </trkpt>
      <trkpt lat="45.55642" lon="6.65248">
        <ele>690.4000244</ele>
        <time>2013-07-27T16:40:43Z</time>
      </trkpt>
      <trkpt lat="45.55638" lon="6.6524">
        <ele>689.7999878</ele>
        <time>2013-07-27T16:40:46Z</time>
      </trkpt>
      <trkpt lat="45.5563" lon="6.65228">
        <ele>688</ele>
        <time>2013-07-27T16:40:51Z</time>
      </trkpt>
      <trkpt lat="45.55626" lon="6.65221">
        <ele>686.7999878</ele>
        <time>2013-07-27T16:40:54Z</time>
      </trkpt>
      <trkpt lat="45.5562" lon="6.65206">
        <ele>685.4000244</ele>
        <time>2013-07-27T16:40:59Z</time>
      </trkpt>
      <trkpt lat="45.55617" lon="6.65196">
        <ele>684.5999756</ele>
        <time>2013-07-27T16:41:02Z</time>
      </trkpt>
      <trkpt lat="45.5561" lon="6.65186">
        <ele>684.5999756</ele>
        <time>2013-07-27T16:41:06Z</time>
      </trkpt>
      <trkpt lat="45.55605" lon="6.65177">
        <ele>684</ele>
        <time>2013-07-27T16:41:09Z</time>
      </trkpt>
      <trkpt lat="45.55598" lon="6.6517">
        <ele>683.2000122</ele>
        <time>2013-07-27T16:41:12Z</time>
      </trkpt>
      <trkpt lat="45.55594" lon="6.65161">
        <ele>682.5999756</ele>
        <time>2013-07-27T16:41:15Z</time>
      </trkpt>
      <trkpt lat="45.55593" lon="6.65159">
        <ele>681.7999878</ele>
        <time>2013-07-27T16:41:25Z</time>
      </trkpt>
      <trkpt lat="45.55592" lon="6.65156">
        <ele>680.2000122</ele>
        <time>2013-07-27T16:41:38Z</time>
      </trkpt>
    </trkseg>
  </trk>
</gpx>